<?xml version="1.0" encoding="UTF-8" standalone="no" ?>
<gpx xmlns="http://www.topografix.com/GPX/1/1" xmlns:xsi="http://www.w3.org/2001/XMLSchema-instance" xsi:schemaLocation="http://www.topografix.com/GPX/1/1 http://www.topografix.com/GPX/1/1/gpx.xsd" version="1.1" creator="VisuGPX - https://www.visugpx.com">
  <metadata>
    <name>ORSALHER VTT 2024 Reconnaissance d'une partie du parcours /1</name>
    <desc><![CDATA[Jean-Jacques, Kristian, Olivier et moi-même en reconnaissance de la Rando L'ORSALHER 2024.]]></desc>
  </metadata>
  <trk>
    <name><![CDATA[ORSALHER VTT 2024 Reconnaissance d'une partie du parcours /1_1]]></name>
    <trkseg>
      <trkpt lat="42.87372" lon="1.21661">
        <ele>499.8</ele>
        <time>2024-05-12T06:39:32Z</time>
      </trkpt>
      <trkpt lat="42.87372" lon="1.21653">
        <ele>499.8</ele>
        <time>2024-05-12T06:39:35Z</time>
      </trkpt>
      <trkpt lat="42.87372" lon="1.2165">
        <ele>499.8</ele>
        <time>2024-05-12T06:39:36Z</time>
      </trkpt>
      <trkpt lat="42.87372" lon="1.21638">
        <ele>499.8</ele>
        <time>2024-05-12T06:39:40Z</time>
      </trkpt>
      <trkpt lat="42.87374" lon="1.21636">
        <ele>499.8</ele>
        <time>2024-05-12T06:39:41Z</time>
      </trkpt>
      <trkpt lat="42.8738" lon="1.21631">
        <ele>499.8</ele>
        <time>2024-05-12T06:39:44Z</time>
      </trkpt>
      <trkpt lat="42.87385" lon="1.21628">
        <ele>499.8</ele>
        <time>2024-05-12T06:39:46Z</time>
      </trkpt>
      <trkpt lat="42.87397" lon="1.21619">
        <ele>499.8</ele>
        <time>2024-05-12T06:39:51Z</time>
      </trkpt>
      <trkpt lat="42.87401" lon="1.21615">
        <ele>499.8</ele>
        <time>2024-05-12T06:39:53Z</time>
      </trkpt>
      <trkpt lat="42.87406" lon="1.21606">
        <ele>499.8</ele>
        <time>2024-05-12T06:39:56Z</time>
      </trkpt>
      <trkpt lat="42.87416" lon="1.21585">
        <ele>499.8</ele>
        <time>2024-05-12T06:40:02Z</time>
      </trkpt>
      <trkpt lat="42.8742" lon="1.21564">
        <ele>499.8</ele>
        <time>2024-05-12T06:40:07Z</time>
      </trkpt>
      <trkpt lat="42.8742" lon="1.21556">
        <ele>499.8</ele>
        <time>2024-05-12T06:40:09Z</time>
      </trkpt>
      <trkpt lat="42.87417" lon="1.21544">
        <ele>499.8</ele>
        <time>2024-05-12T06:40:11Z</time>
      </trkpt>
      <trkpt lat="42.8741" lon="1.21521">
        <ele>499.8</ele>
        <time>2024-05-12T06:40:17Z</time>
      </trkpt>
      <trkpt lat="42.87405" lon="1.2151">
        <ele>500.2</ele>
        <time>2024-05-12T06:40:20Z</time>
      </trkpt>
      <trkpt lat="42.87403" lon="1.21507">
        <ele>500.6</ele>
        <time>2024-05-12T06:40:22Z</time>
      </trkpt>
      <trkpt lat="42.87402" lon="1.21504">
        <ele>501</ele>
        <time>2024-05-12T06:40:23Z</time>
      </trkpt>
      <trkpt lat="42.874" lon="1.21501">
        <ele>501.6</ele>
        <time>2024-05-12T06:40:24Z</time>
      </trkpt>
      <trkpt lat="42.87399" lon="1.21498">
        <ele>502</ele>
        <time>2024-05-12T06:40:25Z</time>
      </trkpt>
      <trkpt lat="42.87393" lon="1.21479">
        <ele>502</ele>
        <time>2024-05-12T06:40:31Z</time>
      </trkpt>
      <trkpt lat="42.87394" lon="1.21463">
        <ele>502.4</ele>
        <time>2024-05-12T06:40:37Z</time>
      </trkpt>
      <trkpt lat="42.87395" lon="1.2146">
        <ele>502.8</ele>
        <time>2024-05-12T06:40:38Z</time>
      </trkpt>
      <trkpt lat="42.87396" lon="1.21457">
        <ele>503.2</ele>
        <time>2024-05-12T06:40:39Z</time>
      </trkpt>
      <trkpt lat="42.87397" lon="1.21454">
        <ele>503.6</ele>
        <time>2024-05-12T06:40:40Z</time>
      </trkpt>
      <trkpt lat="42.87398" lon="1.21451">
        <ele>504</ele>
        <time>2024-05-12T06:40:41Z</time>
      </trkpt>
      <trkpt lat="42.87401" lon="1.21444">
        <ele>504</ele>
        <time>2024-05-12T06:40:44Z</time>
      </trkpt>
      <trkpt lat="42.87405" lon="1.21425">
        <ele>504</ele>
        <time>2024-05-12T06:40:50Z</time>
      </trkpt>
      <trkpt lat="42.87404" lon="1.21421">
        <ele>504.4</ele>
        <time>2024-05-12T06:40:51Z</time>
      </trkpt>
      <trkpt lat="42.87403" lon="1.21418">
        <ele>505</ele>
        <time>2024-05-12T06:40:52Z</time>
      </trkpt>
      <trkpt lat="42.87401" lon="1.21415">
        <ele>505.4</ele>
        <time>2024-05-12T06:40:53Z</time>
      </trkpt>
      <trkpt lat="42.87399" lon="1.21412">
        <ele>505.8</ele>
        <time>2024-05-12T06:40:54Z</time>
      </trkpt>
      <trkpt lat="42.87397" lon="1.2141">
        <ele>506.2</ele>
        <time>2024-05-12T06:40:55Z</time>
      </trkpt>
      <trkpt lat="42.87385" lon="1.21402">
        <ele>506.6</ele>
        <time>2024-05-12T06:41:00Z</time>
      </trkpt>
      <trkpt lat="42.87383" lon="1.214">
        <ele>507</ele>
        <time>2024-05-12T06:41:01Z</time>
      </trkpt>
      <trkpt lat="42.87381" lon="1.21399">
        <ele>507.4</ele>
        <time>2024-05-12T06:41:02Z</time>
      </trkpt>
      <trkpt lat="42.87379" lon="1.21397">
        <ele>508</ele>
        <time>2024-05-12T06:41:03Z</time>
      </trkpt>
      <trkpt lat="42.87377" lon="1.21396">
        <ele>508.4</ele>
        <time>2024-05-12T06:41:04Z</time>
      </trkpt>
      <trkpt lat="42.87371" lon="1.21393">
        <ele>509.2</ele>
        <time>2024-05-12T06:41:07Z</time>
      </trkpt>
      <trkpt lat="42.87369" lon="1.21392">
        <ele>509.6</ele>
        <time>2024-05-12T06:41:08Z</time>
      </trkpt>
      <trkpt lat="42.87367" lon="1.21391">
        <ele>510</ele>
        <time>2024-05-12T06:41:09Z</time>
      </trkpt>
      <trkpt lat="42.87365" lon="1.2139">
        <ele>510.6</ele>
        <time>2024-05-12T06:41:10Z</time>
      </trkpt>
      <trkpt lat="42.87361" lon="1.21387">
        <ele>510.6</ele>
        <time>2024-05-12T06:41:12Z</time>
      </trkpt>
      <trkpt lat="42.87359" lon="1.21386">
        <ele>511</ele>
        <time>2024-05-12T06:41:13Z</time>
      </trkpt>
      <trkpt lat="42.87357" lon="1.21384">
        <ele>511.4</ele>
        <time>2024-05-12T06:41:14Z</time>
      </trkpt>
      <trkpt lat="42.87355" lon="1.21383">
        <ele>511.8</ele>
        <time>2024-05-12T06:41:15Z</time>
      </trkpt>
      <trkpt lat="42.87353" lon="1.21382">
        <ele>512.2</ele>
        <time>2024-05-12T06:41:16Z</time>
      </trkpt>
      <trkpt lat="42.87352" lon="1.21381">
        <ele>512.6</ele>
        <time>2024-05-12T06:41:17Z</time>
      </trkpt>
      <trkpt lat="42.87346" lon="1.21377">
        <ele>513</ele>
        <time>2024-05-12T06:41:20Z</time>
      </trkpt>
      <trkpt lat="42.87344" lon="1.21376">
        <ele>513.4</ele>
        <time>2024-05-12T06:41:21Z</time>
      </trkpt>
      <trkpt lat="42.87342" lon="1.21376">
        <ele>513.8</ele>
        <time>2024-05-12T06:41:22Z</time>
      </trkpt>
      <trkpt lat="42.8734" lon="1.21375">
        <ele>514.2</ele>
        <time>2024-05-12T06:41:23Z</time>
      </trkpt>
      <trkpt lat="42.87338" lon="1.21374">
        <ele>514.8</ele>
        <time>2024-05-12T06:41:24Z</time>
      </trkpt>
      <trkpt lat="42.87335" lon="1.21371">
        <ele>514.8</ele>
        <time>2024-05-12T06:41:26Z</time>
      </trkpt>
      <trkpt lat="42.87331" lon="1.21369">
        <ele>515.2</ele>
        <time>2024-05-12T06:41:28Z</time>
      </trkpt>
      <trkpt lat="42.87329" lon="1.21368">
        <ele>515.6</ele>
        <time>2024-05-12T06:41:29Z</time>
      </trkpt>
      <trkpt lat="42.87327" lon="1.21367">
        <ele>516</ele>
        <time>2024-05-12T06:41:30Z</time>
      </trkpt>
      <trkpt lat="42.87325" lon="1.21365">
        <ele>517</ele>
        <time>2024-05-12T06:41:31Z</time>
      </trkpt>
      <trkpt lat="42.8732" lon="1.21362">
        <ele>517</ele>
        <time>2024-05-12T06:41:34Z</time>
      </trkpt>
      <trkpt lat="42.87318" lon="1.21362">
        <ele>517.4</ele>
        <time>2024-05-12T06:41:35Z</time>
      </trkpt>
      <trkpt lat="42.87317" lon="1.2136">
        <ele>517.8</ele>
        <time>2024-05-12T06:41:36Z</time>
      </trkpt>
      <trkpt lat="42.87315" lon="1.2136">
        <ele>518.2</ele>
        <time>2024-05-12T06:41:37Z</time>
      </trkpt>
      <trkpt lat="42.87314" lon="1.21358">
        <ele>518.6</ele>
        <time>2024-05-12T06:41:38Z</time>
      </trkpt>
      <trkpt lat="42.87313" lon="1.21357">
        <ele>519</ele>
        <time>2024-05-12T06:41:39Z</time>
      </trkpt>
      <trkpt lat="42.87309" lon="1.21355">
        <ele>519</ele>
        <time>2024-05-12T06:41:41Z</time>
      </trkpt>
      <trkpt lat="42.87306" lon="1.21353">
        <ele>519.6</ele>
        <time>2024-05-12T06:41:43Z</time>
      </trkpt>
      <trkpt lat="42.87304" lon="1.21352">
        <ele>520</ele>
        <time>2024-05-12T06:41:44Z</time>
      </trkpt>
      <trkpt lat="42.87302" lon="1.21351">
        <ele>520.4</ele>
        <time>2024-05-12T06:41:45Z</time>
      </trkpt>
      <trkpt lat="42.873" lon="1.21349">
        <ele>520.8</ele>
        <time>2024-05-12T06:41:46Z</time>
      </trkpt>
      <trkpt lat="42.87299" lon="1.21348">
        <ele>521.2</ele>
        <time>2024-05-12T06:41:47Z</time>
      </trkpt>
      <trkpt lat="42.87293" lon="1.21346">
        <ele>521.2</ele>
        <time>2024-05-12T06:41:50Z</time>
      </trkpt>
      <trkpt lat="42.87289" lon="1.21344">
        <ele>521.6</ele>
        <time>2024-05-12T06:41:52Z</time>
      </trkpt>
      <trkpt lat="42.87286" lon="1.21343">
        <ele>522</ele>
        <time>2024-05-12T06:41:53Z</time>
      </trkpt>
      <trkpt lat="42.87284" lon="1.21343">
        <ele>522.4</ele>
        <time>2024-05-12T06:41:54Z</time>
      </trkpt>
      <trkpt lat="42.87282" lon="1.21342">
        <ele>522.8</ele>
        <time>2024-05-12T06:41:55Z</time>
      </trkpt>
      <trkpt lat="42.8728" lon="1.21341">
        <ele>523.2</ele>
        <time>2024-05-12T06:41:56Z</time>
      </trkpt>
      <trkpt lat="42.87278" lon="1.2134">
        <ele>523.2</ele>
        <time>2024-05-12T06:41:57Z</time>
      </trkpt>
      <trkpt lat="42.87273" lon="1.21338">
        <ele>523.8</ele>
        <time>2024-05-12T06:42:00Z</time>
      </trkpt>
      <trkpt lat="42.87271" lon="1.21337">
        <ele>524.2</ele>
        <time>2024-05-12T06:42:01Z</time>
      </trkpt>
      <trkpt lat="42.87269" lon="1.21337">
        <ele>524.6</ele>
        <time>2024-05-12T06:42:02Z</time>
      </trkpt>
      <trkpt lat="42.87267" lon="1.21336">
        <ele>525</ele>
        <time>2024-05-12T06:42:03Z</time>
      </trkpt>
      <trkpt lat="42.87265" lon="1.21335">
        <ele>525.6</ele>
        <time>2024-05-12T06:42:04Z</time>
      </trkpt>
      <trkpt lat="42.87264" lon="1.21335">
        <ele>525.6</ele>
        <time>2024-05-12T06:42:05Z</time>
      </trkpt>
      <trkpt lat="42.87255" lon="1.2133">
        <ele>526</ele>
        <time>2024-05-12T06:42:10Z</time>
      </trkpt>
      <trkpt lat="42.87253" lon="1.21329">
        <ele>526.4</ele>
        <time>2024-05-12T06:42:11Z</time>
      </trkpt>
      <trkpt lat="42.87252" lon="1.21329">
        <ele>526.8</ele>
        <time>2024-05-12T06:42:12Z</time>
      </trkpt>
      <trkpt lat="42.8725" lon="1.21328">
        <ele>527.4</ele>
        <time>2024-05-12T06:42:13Z</time>
      </trkpt>
      <trkpt lat="42.87248" lon="1.21327">
        <ele>527.8</ele>
        <time>2024-05-12T06:42:14Z</time>
      </trkpt>
      <trkpt lat="42.87243" lon="1.21324">
        <ele>527.8</ele>
        <time>2024-05-12T06:42:17Z</time>
      </trkpt>
      <trkpt lat="42.8724" lon="1.21323">
        <ele>528.2</ele>
        <time>2024-05-12T06:42:19Z</time>
      </trkpt>
      <trkpt lat="42.87238" lon="1.21322">
        <ele>528.6</ele>
        <time>2024-05-12T06:42:20Z</time>
      </trkpt>
      <trkpt lat="42.87236" lon="1.21322">
        <ele>529.4</ele>
        <time>2024-05-12T06:42:21Z</time>
      </trkpt>
      <trkpt lat="42.87234" lon="1.2132">
        <ele>529.8</ele>
        <time>2024-05-12T06:42:22Z</time>
      </trkpt>
      <trkpt lat="42.87232" lon="1.2132">
        <ele>529.8</ele>
        <time>2024-05-12T06:42:23Z</time>
      </trkpt>
      <trkpt lat="42.87224" lon="1.21316">
        <ele>530.4</ele>
        <time>2024-05-12T06:42:27Z</time>
      </trkpt>
      <trkpt lat="42.87222" lon="1.21316">
        <ele>530.8</ele>
        <time>2024-05-12T06:42:28Z</time>
      </trkpt>
      <trkpt lat="42.87221" lon="1.21316">
        <ele>531.2</ele>
        <time>2024-05-12T06:42:29Z</time>
      </trkpt>
      <trkpt lat="42.87219" lon="1.21316">
        <ele>531.6</ele>
        <time>2024-05-12T06:42:30Z</time>
      </trkpt>
      <trkpt lat="42.87218" lon="1.21316">
        <ele>532</ele>
        <time>2024-05-12T06:42:31Z</time>
      </trkpt>
      <trkpt lat="42.87216" lon="1.21315">
        <ele>532</ele>
        <time>2024-05-12T06:42:32Z</time>
      </trkpt>
      <trkpt lat="42.87209" lon="1.21311">
        <ele>532</ele>
        <time>2024-05-12T06:42:36Z</time>
      </trkpt>
      <trkpt lat="42.87207" lon="1.2131">
        <ele>532.4</ele>
        <time>2024-05-12T06:42:37Z</time>
      </trkpt>
      <trkpt lat="42.87205" lon="1.21309">
        <ele>532.8</ele>
        <time>2024-05-12T06:42:38Z</time>
      </trkpt>
      <trkpt lat="42.87203" lon="1.21309">
        <ele>533.2</ele>
        <time>2024-05-12T06:42:39Z</time>
      </trkpt>
      <trkpt lat="42.87201" lon="1.21308">
        <ele>533.8</ele>
        <time>2024-05-12T06:42:40Z</time>
      </trkpt>
      <trkpt lat="42.87199" lon="1.21307">
        <ele>534.2</ele>
        <time>2024-05-12T06:42:41Z</time>
      </trkpt>
      <trkpt lat="42.87188" lon="1.21304">
        <ele>534.6</ele>
        <time>2024-05-12T06:42:46Z</time>
      </trkpt>
      <trkpt lat="42.87186" lon="1.21304">
        <ele>535</ele>
        <time>2024-05-12T06:42:47Z</time>
      </trkpt>
      <trkpt lat="42.87184" lon="1.21303">
        <ele>535.4</ele>
        <time>2024-05-12T06:42:48Z</time>
      </trkpt>
      <trkpt lat="42.87182" lon="1.21303">
        <ele>535.8</ele>
        <time>2024-05-12T06:42:49Z</time>
      </trkpt>
      <trkpt lat="42.8718" lon="1.21303">
        <ele>536.2</ele>
        <time>2024-05-12T06:42:50Z</time>
      </trkpt>
      <trkpt lat="42.87169" lon="1.21301">
        <ele>536.6</ele>
        <time>2024-05-12T06:42:55Z</time>
      </trkpt>
      <trkpt lat="42.87167" lon="1.21301">
        <ele>537</ele>
        <time>2024-05-12T06:42:56Z</time>
      </trkpt>
      <trkpt lat="42.87165" lon="1.21301">
        <ele>537.6</ele>
        <time>2024-05-12T06:42:57Z</time>
      </trkpt>
      <trkpt lat="42.87163" lon="1.213">
        <ele>538</ele>
        <time>2024-05-12T06:42:58Z</time>
      </trkpt>
      <trkpt lat="42.87161" lon="1.213">
        <ele>538.4</ele>
        <time>2024-05-12T06:42:59Z</time>
      </trkpt>
      <trkpt lat="42.87153" lon="1.21301">
        <ele>538.8</ele>
        <time>2024-05-12T06:43:03Z</time>
      </trkpt>
      <trkpt lat="42.87151" lon="1.21302">
        <ele>539.2</ele>
        <time>2024-05-12T06:43:04Z</time>
      </trkpt>
      <trkpt lat="42.87149" lon="1.21303">
        <ele>539.6</ele>
        <time>2024-05-12T06:43:05Z</time>
      </trkpt>
      <trkpt lat="42.87146" lon="1.21303">
        <ele>540.2</ele>
        <time>2024-05-12T06:43:06Z</time>
      </trkpt>
      <trkpt lat="42.87144" lon="1.21304">
        <ele>540.6</ele>
        <time>2024-05-12T06:43:07Z</time>
      </trkpt>
      <trkpt lat="42.87137" lon="1.21303">
        <ele>541</ele>
        <time>2024-05-12T06:43:11Z</time>
      </trkpt>
      <trkpt lat="42.87135" lon="1.21303">
        <ele>541.4</ele>
        <time>2024-05-12T06:43:12Z</time>
      </trkpt>
      <trkpt lat="42.87133" lon="1.21303">
        <ele>541.8</ele>
        <time>2024-05-12T06:43:13Z</time>
      </trkpt>
      <trkpt lat="42.87131" lon="1.21304">
        <ele>542.4</ele>
        <time>2024-05-12T06:43:14Z</time>
      </trkpt>
      <trkpt lat="42.87129" lon="1.21304">
        <ele>542.8</ele>
        <time>2024-05-12T06:43:15Z</time>
      </trkpt>
      <trkpt lat="42.8712" lon="1.21306">
        <ele>543.2</ele>
        <time>2024-05-12T06:43:19Z</time>
      </trkpt>
      <trkpt lat="42.87118" lon="1.21307">
        <ele>543.6</ele>
        <time>2024-05-12T06:43:20Z</time>
      </trkpt>
      <trkpt lat="42.87116" lon="1.21308">
        <ele>544</ele>
        <time>2024-05-12T06:43:21Z</time>
      </trkpt>
      <trkpt lat="42.87115" lon="1.21309">
        <ele>544.6</ele>
        <time>2024-05-12T06:43:22Z</time>
      </trkpt>
      <trkpt lat="42.87113" lon="1.2131">
        <ele>545</ele>
        <time>2024-05-12T06:43:23Z</time>
      </trkpt>
      <trkpt lat="42.87103" lon="1.21314">
        <ele>545.4</ele>
        <time>2024-05-12T06:43:28Z</time>
      </trkpt>
      <trkpt lat="42.87101" lon="1.21314">
        <ele>545.8</ele>
        <time>2024-05-12T06:43:29Z</time>
      </trkpt>
      <trkpt lat="42.87098" lon="1.21315">
        <ele>546.2</ele>
        <time>2024-05-12T06:43:30Z</time>
      </trkpt>
      <trkpt lat="42.87096" lon="1.21317">
        <ele>546.6</ele>
        <time>2024-05-12T06:43:31Z</time>
      </trkpt>
      <trkpt lat="42.87094" lon="1.21318">
        <ele>547</ele>
        <time>2024-05-12T06:43:32Z</time>
      </trkpt>
      <trkpt lat="42.87091" lon="1.21321">
        <ele>547</ele>
        <time>2024-05-12T06:43:34Z</time>
      </trkpt>
      <trkpt lat="42.87087" lon="1.21324">
        <ele>547.6</ele>
        <time>2024-05-12T06:43:36Z</time>
      </trkpt>
      <trkpt lat="42.87085" lon="1.21325">
        <ele>548</ele>
        <time>2024-05-12T06:43:37Z</time>
      </trkpt>
      <trkpt lat="42.87083" lon="1.21326">
        <ele>548.4</ele>
        <time>2024-05-12T06:43:38Z</time>
      </trkpt>
      <trkpt lat="42.87081" lon="1.21327">
        <ele>548.8</ele>
        <time>2024-05-12T06:43:39Z</time>
      </trkpt>
      <trkpt lat="42.87079" lon="1.21329">
        <ele>549.2</ele>
        <time>2024-05-12T06:43:40Z</time>
      </trkpt>
      <trkpt lat="42.87078" lon="1.2133">
        <ele>549.2</ele>
        <time>2024-05-12T06:43:41Z</time>
      </trkpt>
      <trkpt lat="42.87069" lon="1.21334">
        <ele>549.6</ele>
        <time>2024-05-12T06:43:46Z</time>
      </trkpt>
      <trkpt lat="42.87067" lon="1.21335">
        <ele>550</ele>
        <time>2024-05-12T06:43:47Z</time>
      </trkpt>
      <trkpt lat="42.87064" lon="1.21336">
        <ele>550.4</ele>
        <time>2024-05-12T06:43:48Z</time>
      </trkpt>
      <trkpt lat="42.87062" lon="1.21335">
        <ele>550.8</ele>
        <time>2024-05-12T06:43:49Z</time>
      </trkpt>
      <trkpt lat="42.8706" lon="1.21335">
        <ele>551.2</ele>
        <time>2024-05-12T06:43:50Z</time>
      </trkpt>
      <trkpt lat="42.87047" lon="1.21337">
        <ele>551.8</ele>
        <time>2024-05-12T06:43:56Z</time>
      </trkpt>
      <trkpt lat="42.87045" lon="1.21337">
        <ele>552.2</ele>
        <time>2024-05-12T06:43:57Z</time>
      </trkpt>
      <trkpt lat="42.87042" lon="1.21337">
        <ele>552.6</ele>
        <time>2024-05-12T06:43:58Z</time>
      </trkpt>
      <trkpt lat="42.8704" lon="1.21336">
        <ele>553</ele>
        <time>2024-05-12T06:43:59Z</time>
      </trkpt>
      <trkpt lat="42.87038" lon="1.21335">
        <ele>553.6</ele>
        <time>2024-05-12T06:44:00Z</time>
      </trkpt>
      <trkpt lat="42.87032" lon="1.21332">
        <ele>553.6</ele>
        <time>2024-05-12T06:44:03Z</time>
      </trkpt>
      <trkpt lat="42.87029" lon="1.2133">
        <ele>554</ele>
        <time>2024-05-12T06:44:05Z</time>
      </trkpt>
      <trkpt lat="42.87027" lon="1.21328">
        <ele>554.4</ele>
        <time>2024-05-12T06:44:06Z</time>
      </trkpt>
      <trkpt lat="42.87025" lon="1.21326">
        <ele>554.8</ele>
        <time>2024-05-12T06:44:07Z</time>
      </trkpt>
      <trkpt lat="42.87023" lon="1.21325">
        <ele>555.2</ele>
        <time>2024-05-12T06:44:08Z</time>
      </trkpt>
      <trkpt lat="42.87021" lon="1.21323">
        <ele>555.8</ele>
        <time>2024-05-12T06:44:09Z</time>
      </trkpt>
      <trkpt lat="42.87019" lon="1.21322">
        <ele>555.8</ele>
        <time>2024-05-12T06:44:10Z</time>
      </trkpt>
      <trkpt lat="42.8701" lon="1.21316">
        <ele>556.2</ele>
        <time>2024-05-12T06:44:15Z</time>
      </trkpt>
      <trkpt lat="42.87008" lon="1.21315">
        <ele>556.6</ele>
        <time>2024-05-12T06:44:16Z</time>
      </trkpt>
      <trkpt lat="42.87006" lon="1.21314">
        <ele>557</ele>
        <time>2024-05-12T06:44:17Z</time>
      </trkpt>
      <trkpt lat="42.87004" lon="1.21315">
        <ele>557.4</ele>
        <time>2024-05-12T06:44:18Z</time>
      </trkpt>
      <trkpt lat="42.87003" lon="1.21315">
        <ele>557.8</ele>
        <time>2024-05-12T06:44:19Z</time>
      </trkpt>
      <trkpt lat="42.86998" lon="1.21318">
        <ele>557.8</ele>
        <time>2024-05-12T06:44:22Z</time>
      </trkpt>
      <trkpt lat="42.86997" lon="1.21321">
        <ele>557.8</ele>
        <time>2024-05-12T06:44:23Z</time>
      </trkpt>
      <trkpt lat="42.86996" lon="1.21326">
        <ele>558.2</ele>
        <time>2024-05-12T06:44:25Z</time>
      </trkpt>
      <trkpt lat="42.86995" lon="1.21329">
        <ele>558.8</ele>
        <time>2024-05-12T06:44:26Z</time>
      </trkpt>
      <trkpt lat="42.86996" lon="1.21332">
        <ele>559.2</ele>
        <time>2024-05-12T06:44:27Z</time>
      </trkpt>
      <trkpt lat="42.86997" lon="1.21334">
        <ele>559.6</ele>
        <time>2024-05-12T06:44:28Z</time>
      </trkpt>
      <trkpt lat="42.86998" lon="1.21337">
        <ele>560</ele>
        <time>2024-05-12T06:44:29Z</time>
      </trkpt>
      <trkpt lat="42.87002" lon="1.2134">
        <ele>560</ele>
        <time>2024-05-12T06:44:32Z</time>
      </trkpt>
      <trkpt lat="42.87014" lon="1.21344">
        <ele>560.4</ele>
        <time>2024-05-12T06:44:38Z</time>
      </trkpt>
      <trkpt lat="42.87017" lon="1.21345">
        <ele>560.8</ele>
        <time>2024-05-12T06:44:39Z</time>
      </trkpt>
      <trkpt lat="42.87019" lon="1.21346">
        <ele>561.2</ele>
        <time>2024-05-12T06:44:40Z</time>
      </trkpt>
      <trkpt lat="42.87021" lon="1.21346">
        <ele>561.6</ele>
        <time>2024-05-12T06:44:41Z</time>
      </trkpt>
      <trkpt lat="42.87023" lon="1.21347">
        <ele>562</ele>
        <time>2024-05-12T06:44:42Z</time>
      </trkpt>
      <trkpt lat="42.8703" lon="1.21354">
        <ele>562</ele>
        <time>2024-05-12T06:44:46Z</time>
      </trkpt>
      <trkpt lat="42.87035" lon="1.21359">
        <ele>562.8</ele>
        <time>2024-05-12T06:44:49Z</time>
      </trkpt>
      <trkpt lat="42.87037" lon="1.21361">
        <ele>563.4</ele>
        <time>2024-05-12T06:44:50Z</time>
      </trkpt>
      <trkpt lat="42.87038" lon="1.21362">
        <ele>563.8</ele>
        <time>2024-05-12T06:44:51Z</time>
      </trkpt>
      <trkpt lat="42.8704" lon="1.21364">
        <ele>564.2</ele>
        <time>2024-05-12T06:44:52Z</time>
      </trkpt>
      <trkpt lat="42.87042" lon="1.21365">
        <ele>564.2</ele>
        <time>2024-05-12T06:44:53Z</time>
      </trkpt>
      <trkpt lat="42.87047" lon="1.21374">
        <ele>564.6</ele>
        <time>2024-05-12T06:44:57Z</time>
      </trkpt>
      <trkpt lat="42.87048" lon="1.21377">
        <ele>565</ele>
        <time>2024-05-12T06:44:58Z</time>
      </trkpt>
      <trkpt lat="42.87049" lon="1.2138">
        <ele>565.4</ele>
        <time>2024-05-12T06:44:59Z</time>
      </trkpt>
      <trkpt lat="42.8705" lon="1.21382">
        <ele>565.8</ele>
        <time>2024-05-12T06:45:00Z</time>
      </trkpt>
      <trkpt lat="42.87051" lon="1.21384">
        <ele>566.2</ele>
        <time>2024-05-12T06:45:01Z</time>
      </trkpt>
      <trkpt lat="42.87058" lon="1.21398">
        <ele>566.8</ele>
        <time>2024-05-12T06:45:07Z</time>
      </trkpt>
      <trkpt lat="42.87059" lon="1.214">
        <ele>567.2</ele>
        <time>2024-05-12T06:45:08Z</time>
      </trkpt>
      <trkpt lat="42.87061" lon="1.21402">
        <ele>567.6</ele>
        <time>2024-05-12T06:45:09Z</time>
      </trkpt>
      <trkpt lat="42.87063" lon="1.21404">
        <ele>568</ele>
        <time>2024-05-12T06:45:10Z</time>
      </trkpt>
      <trkpt lat="42.87064" lon="1.21407">
        <ele>568.4</ele>
        <time>2024-05-12T06:45:11Z</time>
      </trkpt>
      <trkpt lat="42.8707" lon="1.21413">
        <ele>569</ele>
        <time>2024-05-12T06:45:15Z</time>
      </trkpt>
      <trkpt lat="42.87072" lon="1.21415">
        <ele>569.4</ele>
        <time>2024-05-12T06:45:16Z</time>
      </trkpt>
      <trkpt lat="42.87074" lon="1.21416">
        <ele>569.8</ele>
        <time>2024-05-12T06:45:17Z</time>
      </trkpt>
      <trkpt lat="42.87075" lon="1.21417">
        <ele>570.2</ele>
        <time>2024-05-12T06:45:18Z</time>
      </trkpt>
      <trkpt lat="42.87077" lon="1.21418">
        <ele>570.6</ele>
        <time>2024-05-12T06:45:19Z</time>
      </trkpt>
      <trkpt lat="42.87083" lon="1.21422">
        <ele>570.6</ele>
        <time>2024-05-12T06:45:23Z</time>
      </trkpt>
      <trkpt lat="42.87084" lon="1.21423">
        <ele>571</ele>
        <time>2024-05-12T06:45:24Z</time>
      </trkpt>
      <trkpt lat="42.87086" lon="1.21424">
        <ele>571.4</ele>
        <time>2024-05-12T06:45:25Z</time>
      </trkpt>
      <trkpt lat="42.87088" lon="1.21425">
        <ele>571.8</ele>
        <time>2024-05-12T06:45:26Z</time>
      </trkpt>
      <trkpt lat="42.8709" lon="1.21426">
        <ele>572.2</ele>
        <time>2024-05-12T06:45:27Z</time>
      </trkpt>
      <trkpt lat="42.87091" lon="1.21428">
        <ele>572.6</ele>
        <time>2024-05-12T06:45:28Z</time>
      </trkpt>
      <trkpt lat="42.87095" lon="1.2143">
        <ele>572.6</ele>
        <time>2024-05-12T06:45:30Z</time>
      </trkpt>
      <trkpt lat="42.87104" lon="1.21438">
        <ele>573</ele>
        <time>2024-05-12T06:45:35Z</time>
      </trkpt>
      <trkpt lat="42.87106" lon="1.21439">
        <ele>573.6</ele>
        <time>2024-05-12T06:45:36Z</time>
      </trkpt>
      <trkpt lat="42.87108" lon="1.21441">
        <ele>574</ele>
        <time>2024-05-12T06:45:37Z</time>
      </trkpt>
      <trkpt lat="42.8711" lon="1.21443">
        <ele>574.8</ele>
        <time>2024-05-12T06:45:38Z</time>
      </trkpt>
      <trkpt lat="42.8712" lon="1.21455">
        <ele>574.8</ele>
        <time>2024-05-12T06:45:44Z</time>
      </trkpt>
      <trkpt lat="42.87123" lon="1.21463">
        <ele>575.2</ele>
        <time>2024-05-12T06:45:47Z</time>
      </trkpt>
      <trkpt lat="42.87123" lon="1.21465">
        <ele>575.6</ele>
        <time>2024-05-12T06:45:48Z</time>
      </trkpt>
      <trkpt lat="42.87123" lon="1.21468">
        <ele>576</ele>
        <time>2024-05-12T06:45:49Z</time>
      </trkpt>
      <trkpt lat="42.87123" lon="1.21471">
        <ele>576.6</ele>
        <time>2024-05-12T06:45:50Z</time>
      </trkpt>
      <trkpt lat="42.87123" lon="1.21474">
        <ele>577</ele>
        <time>2024-05-12T06:45:51Z</time>
      </trkpt>
      <trkpt lat="42.87116" lon="1.21484">
        <ele>577</ele>
        <time>2024-05-12T06:45:56Z</time>
      </trkpt>
      <trkpt lat="42.87112" lon="1.21486">
        <ele>577.4</ele>
        <time>2024-05-12T06:45:58Z</time>
      </trkpt>
      <trkpt lat="42.8711" lon="1.21486">
        <ele>577.8</ele>
        <time>2024-05-12T06:45:59Z</time>
      </trkpt>
      <trkpt lat="42.87108" lon="1.21487">
        <ele>578.2</ele>
        <time>2024-05-12T06:46:00Z</time>
      </trkpt>
      <trkpt lat="42.87106" lon="1.21488">
        <ele>578.6</ele>
        <time>2024-05-12T06:46:01Z</time>
      </trkpt>
      <trkpt lat="42.87104" lon="1.21488">
        <ele>579.2</ele>
        <time>2024-05-12T06:46:02Z</time>
      </trkpt>
      <trkpt lat="42.87098" lon="1.21488">
        <ele>579.6</ele>
        <time>2024-05-12T06:46:05Z</time>
      </trkpt>
      <trkpt lat="42.87096" lon="1.21487">
        <ele>580</ele>
        <time>2024-05-12T06:46:06Z</time>
      </trkpt>
      <trkpt lat="42.87093" lon="1.21487">
        <ele>580.4</ele>
        <time>2024-05-12T06:46:07Z</time>
      </trkpt>
      <trkpt lat="42.87091" lon="1.21487">
        <ele>580.8</ele>
        <time>2024-05-12T06:46:08Z</time>
      </trkpt>
      <trkpt lat="42.87089" lon="1.21487">
        <ele>581.2</ele>
        <time>2024-05-12T06:46:09Z</time>
      </trkpt>
      <trkpt lat="42.8708" lon="1.21485">
        <ele>581.6</ele>
        <time>2024-05-12T06:46:14Z</time>
      </trkpt>
      <trkpt lat="42.87078" lon="1.21485">
        <ele>582</ele>
        <time>2024-05-12T06:46:15Z</time>
      </trkpt>
      <trkpt lat="42.87076" lon="1.21485">
        <ele>582.4</ele>
        <time>2024-05-12T06:46:16Z</time>
      </trkpt>
      <trkpt lat="42.87074" lon="1.21485">
        <ele>582.8</ele>
        <time>2024-05-12T06:46:17Z</time>
      </trkpt>
      <trkpt lat="42.87072" lon="1.21484">
        <ele>583.2</ele>
        <time>2024-05-12T06:46:18Z</time>
      </trkpt>
      <trkpt lat="42.87064" lon="1.21485">
        <ele>583.2</ele>
        <time>2024-05-12T06:46:22Z</time>
      </trkpt>
      <trkpt lat="42.8706" lon="1.21485">
        <ele>583.6</ele>
        <time>2024-05-12T06:46:24Z</time>
      </trkpt>
      <trkpt lat="42.87059" lon="1.21484">
        <ele>584</ele>
        <time>2024-05-12T06:46:25Z</time>
      </trkpt>
      <trkpt lat="42.87057" lon="1.21484">
        <ele>584.6</ele>
        <time>2024-05-12T06:46:26Z</time>
      </trkpt>
      <trkpt lat="42.87055" lon="1.21483">
        <ele>585.4</ele>
        <time>2024-05-12T06:46:27Z</time>
      </trkpt>
      <trkpt lat="42.87049" lon="1.21482">
        <ele>585.4</ele>
        <time>2024-05-12T06:46:30Z</time>
      </trkpt>
      <trkpt lat="42.87043" lon="1.21481">
        <ele>585.8</ele>
        <time>2024-05-12T06:46:33Z</time>
      </trkpt>
      <trkpt lat="42.87041" lon="1.2148">
        <ele>586.2</ele>
        <time>2024-05-12T06:46:34Z</time>
      </trkpt>
      <trkpt lat="42.8704" lon="1.2148">
        <ele>586.6</ele>
        <time>2024-05-12T06:46:35Z</time>
      </trkpt>
      <trkpt lat="42.87038" lon="1.21479">
        <ele>587</ele>
        <time>2024-05-12T06:46:36Z</time>
      </trkpt>
      <trkpt lat="42.87036" lon="1.21478">
        <ele>587.4</ele>
        <time>2024-05-12T06:46:37Z</time>
      </trkpt>
      <trkpt lat="42.87025" lon="1.21474">
        <ele>587.8</ele>
        <time>2024-05-12T06:46:43Z</time>
      </trkpt>
      <trkpt lat="42.87023" lon="1.21474">
        <ele>588.4</ele>
        <time>2024-05-12T06:46:44Z</time>
      </trkpt>
      <trkpt lat="42.87022" lon="1.21473">
        <ele>588.8</ele>
        <time>2024-05-12T06:46:45Z</time>
      </trkpt>
      <trkpt lat="42.8702" lon="1.21473">
        <ele>589.2</ele>
        <time>2024-05-12T06:46:46Z</time>
      </trkpt>
      <trkpt lat="42.87018" lon="1.21472">
        <ele>589.6</ele>
        <time>2024-05-12T06:46:47Z</time>
      </trkpt>
      <trkpt lat="42.87011" lon="1.21469">
        <ele>589.6</ele>
        <time>2024-05-12T06:46:51Z</time>
      </trkpt>
      <trkpt lat="42.87009" lon="1.21468">
        <ele>590</ele>
        <time>2024-05-12T06:46:52Z</time>
      </trkpt>
      <trkpt lat="42.87007" lon="1.21468">
        <ele>590.4</ele>
        <time>2024-05-12T06:46:53Z</time>
      </trkpt>
      <trkpt lat="42.87006" lon="1.21467">
        <ele>590.8</ele>
        <time>2024-05-12T06:46:54Z</time>
      </trkpt>
      <trkpt lat="42.87004" lon="1.21466">
        <ele>591.2</ele>
        <time>2024-05-12T06:46:55Z</time>
      </trkpt>
      <trkpt lat="42.87002" lon="1.21465">
        <ele>591.6</ele>
        <time>2024-05-12T06:46:56Z</time>
      </trkpt>
      <trkpt lat="42.86994" lon="1.21461">
        <ele>591.6</ele>
        <time>2024-05-12T06:47:01Z</time>
      </trkpt>
      <trkpt lat="42.86992" lon="1.2146">
        <ele>592</ele>
        <time>2024-05-12T06:47:02Z</time>
      </trkpt>
      <trkpt lat="42.8699" lon="1.2146">
        <ele>592.4</ele>
        <time>2024-05-12T06:47:03Z</time>
      </trkpt>
      <trkpt lat="42.86988" lon="1.21459">
        <ele>592.8</ele>
        <time>2024-05-12T06:47:04Z</time>
      </trkpt>
      <trkpt lat="42.86986" lon="1.21458">
        <ele>593.2</ele>
        <time>2024-05-12T06:47:05Z</time>
      </trkpt>
      <trkpt lat="42.86984" lon="1.21457">
        <ele>593.6</ele>
        <time>2024-05-12T06:47:06Z</time>
      </trkpt>
      <trkpt lat="42.86979" lon="1.21455">
        <ele>593.6</ele>
        <time>2024-05-12T06:47:09Z</time>
      </trkpt>
      <trkpt lat="42.86976" lon="1.21454">
        <ele>594</ele>
        <time>2024-05-12T06:47:11Z</time>
      </trkpt>
      <trkpt lat="42.86974" lon="1.21453">
        <ele>594.4</ele>
        <time>2024-05-12T06:47:12Z</time>
      </trkpt>
      <trkpt lat="42.86972" lon="1.21453">
        <ele>594.8</ele>
        <time>2024-05-12T06:47:13Z</time>
      </trkpt>
      <trkpt lat="42.8697" lon="1.21452">
        <ele>595.2</ele>
        <time>2024-05-12T06:47:14Z</time>
      </trkpt>
      <trkpt lat="42.86969" lon="1.21452">
        <ele>595.6</ele>
        <time>2024-05-12T06:47:15Z</time>
      </trkpt>
      <trkpt lat="42.86967" lon="1.21451">
        <ele>595.6</ele>
        <time>2024-05-12T06:47:16Z</time>
      </trkpt>
      <trkpt lat="42.86959" lon="1.21449">
        <ele>596</ele>
        <time>2024-05-12T06:47:20Z</time>
      </trkpt>
      <trkpt lat="42.86957" lon="1.21449">
        <ele>596.4</ele>
        <time>2024-05-12T06:47:21Z</time>
      </trkpt>
      <trkpt lat="42.86955" lon="1.21448">
        <ele>596.8</ele>
        <time>2024-05-12T06:47:22Z</time>
      </trkpt>
      <trkpt lat="42.86954" lon="1.21448">
        <ele>597.2</ele>
        <time>2024-05-12T06:47:23Z</time>
      </trkpt>
      <trkpt lat="42.86952" lon="1.21448">
        <ele>597.6</ele>
        <time>2024-05-12T06:47:24Z</time>
      </trkpt>
      <trkpt lat="42.86941" lon="1.2145">
        <ele>597.6</ele>
        <time>2024-05-12T06:47:30Z</time>
      </trkpt>
      <trkpt lat="42.86939" lon="1.2145">
        <ele>598</ele>
        <time>2024-05-12T06:47:31Z</time>
      </trkpt>
      <trkpt lat="42.86938" lon="1.2145">
        <ele>598.4</ele>
        <time>2024-05-12T06:47:32Z</time>
      </trkpt>
      <trkpt lat="42.86936" lon="1.2145">
        <ele>599</ele>
        <time>2024-05-12T06:47:33Z</time>
      </trkpt>
      <trkpt lat="42.86934" lon="1.2145">
        <ele>599.4</ele>
        <time>2024-05-12T06:47:34Z</time>
      </trkpt>
      <trkpt lat="42.86932" lon="1.2145">
        <ele>599.8</ele>
        <time>2024-05-12T06:47:35Z</time>
      </trkpt>
      <trkpt lat="42.8693" lon="1.21451">
        <ele>599.8</ele>
        <time>2024-05-12T06:47:36Z</time>
      </trkpt>
      <trkpt lat="42.86922" lon="1.21456">
        <ele>599.8</ele>
        <time>2024-05-12T06:47:41Z</time>
      </trkpt>
      <trkpt lat="42.86918" lon="1.21457">
        <ele>600.2</ele>
        <time>2024-05-12T06:47:43Z</time>
      </trkpt>
      <trkpt lat="42.86916" lon="1.21459">
        <ele>600.6</ele>
        <time>2024-05-12T06:47:44Z</time>
      </trkpt>
      <trkpt lat="42.86914" lon="1.2146">
        <ele>601</ele>
        <time>2024-05-12T06:47:45Z</time>
      </trkpt>
      <trkpt lat="42.86913" lon="1.21461">
        <ele>601.4</ele>
        <time>2024-05-12T06:47:46Z</time>
      </trkpt>
      <trkpt lat="42.86911" lon="1.21462">
        <ele>601.8</ele>
        <time>2024-05-12T06:47:47Z</time>
      </trkpt>
      <trkpt lat="42.86909" lon="1.21462">
        <ele>601.8</ele>
        <time>2024-05-12T06:47:48Z</time>
      </trkpt>
      <trkpt lat="42.86892" lon="1.21467">
        <ele>601.8</ele>
        <time>2024-05-12T06:47:56Z</time>
      </trkpt>
      <trkpt lat="42.86891" lon="1.21468">
        <ele>602.2</ele>
        <time>2024-05-12T06:47:57Z</time>
      </trkpt>
      <trkpt lat="42.86888" lon="1.21468">
        <ele>602.8</ele>
        <time>2024-05-12T06:47:58Z</time>
      </trkpt>
      <trkpt lat="42.86886" lon="1.21468">
        <ele>603.2</ele>
        <time>2024-05-12T06:47:59Z</time>
      </trkpt>
      <trkpt lat="42.86884" lon="1.21468">
        <ele>603.6</ele>
        <time>2024-05-12T06:48:00Z</time>
      </trkpt>
      <trkpt lat="42.86882" lon="1.21468">
        <ele>604</ele>
        <time>2024-05-12T06:48:01Z</time>
      </trkpt>
      <trkpt lat="42.86877" lon="1.21466">
        <ele>604</ele>
        <time>2024-05-12T06:48:04Z</time>
      </trkpt>
      <trkpt lat="42.86866" lon="1.21459">
        <ele>604.4</ele>
        <time>2024-05-12T06:48:11Z</time>
      </trkpt>
      <trkpt lat="42.86864" lon="1.21457">
        <ele>604.8</ele>
        <time>2024-05-12T06:48:12Z</time>
      </trkpt>
      <trkpt lat="42.86862" lon="1.21456">
        <ele>605.2</ele>
        <time>2024-05-12T06:48:13Z</time>
      </trkpt>
      <trkpt lat="42.86861" lon="1.21454">
        <ele>605.8</ele>
        <time>2024-05-12T06:48:14Z</time>
      </trkpt>
      <trkpt lat="42.86859" lon="1.21452">
        <ele>606.2</ele>
        <time>2024-05-12T06:48:15Z</time>
      </trkpt>
      <trkpt lat="42.86851" lon="1.21444">
        <ele>606.2</ele>
        <time>2024-05-12T06:48:20Z</time>
      </trkpt>
      <trkpt lat="42.86846" lon="1.21437">
        <ele>606.6</ele>
        <time>2024-05-12T06:48:24Z</time>
      </trkpt>
      <trkpt lat="42.86845" lon="1.21435">
        <ele>607</ele>
        <time>2024-05-12T06:48:25Z</time>
      </trkpt>
      <trkpt lat="42.86844" lon="1.21433">
        <ele>607.4</ele>
        <time>2024-05-12T06:48:26Z</time>
      </trkpt>
      <trkpt lat="42.86842" lon="1.21432">
        <ele>607.8</ele>
        <time>2024-05-12T06:48:27Z</time>
      </trkpt>
      <trkpt lat="42.86841" lon="1.21431">
        <ele>608.4</ele>
        <time>2024-05-12T06:48:28Z</time>
      </trkpt>
      <trkpt lat="42.86833" lon="1.21423">
        <ele>608.8</ele>
        <time>2024-05-12T06:48:33Z</time>
      </trkpt>
      <trkpt lat="42.86832" lon="1.21422">
        <ele>609.2</ele>
        <time>2024-05-12T06:48:34Z</time>
      </trkpt>
      <trkpt lat="42.8683" lon="1.2142">
        <ele>609.6</ele>
        <time>2024-05-12T06:48:35Z</time>
      </trkpt>
      <trkpt lat="42.86828" lon="1.21419">
        <ele>610</ele>
        <time>2024-05-12T06:48:36Z</time>
      </trkpt>
      <trkpt lat="42.86826" lon="1.21418">
        <ele>610.4</ele>
        <time>2024-05-12T06:48:37Z</time>
      </trkpt>
      <trkpt lat="42.86819" lon="1.21416">
        <ele>610.4</ele>
        <time>2024-05-12T06:48:41Z</time>
      </trkpt>
      <trkpt lat="42.86815" lon="1.21414">
        <ele>610.8</ele>
        <time>2024-05-12T06:48:43Z</time>
      </trkpt>
      <trkpt lat="42.86813" lon="1.21413">
        <ele>611.2</ele>
        <time>2024-05-12T06:48:44Z</time>
      </trkpt>
      <trkpt lat="42.86812" lon="1.21413">
        <ele>611.6</ele>
        <time>2024-05-12T06:48:45Z</time>
      </trkpt>
      <trkpt lat="42.8681" lon="1.21412">
        <ele>612</ele>
        <time>2024-05-12T06:48:46Z</time>
      </trkpt>
      <trkpt lat="42.86808" lon="1.21411">
        <ele>612.4</ele>
        <time>2024-05-12T06:48:47Z</time>
      </trkpt>
      <trkpt lat="42.86799" lon="1.21406">
        <ele>612.8</ele>
        <time>2024-05-12T06:48:52Z</time>
      </trkpt>
      <trkpt lat="42.86798" lon="1.21405">
        <ele>613.2</ele>
        <time>2024-05-12T06:48:53Z</time>
      </trkpt>
      <trkpt lat="42.86797" lon="1.21404">
        <ele>613.6</ele>
        <time>2024-05-12T06:48:54Z</time>
      </trkpt>
      <trkpt lat="42.86795" lon="1.21403">
        <ele>614</ele>
        <time>2024-05-12T06:48:55Z</time>
      </trkpt>
      <trkpt lat="42.86793" lon="1.21403">
        <ele>614.4</ele>
        <time>2024-05-12T06:48:56Z</time>
      </trkpt>
      <trkpt lat="42.86785" lon="1.21401">
        <ele>614.8</ele>
        <time>2024-05-12T06:49:00Z</time>
      </trkpt>
      <trkpt lat="42.86783" lon="1.214">
        <ele>615.2</ele>
        <time>2024-05-12T06:49:01Z</time>
      </trkpt>
      <trkpt lat="42.86782" lon="1.21399">
        <ele>615.6</ele>
        <time>2024-05-12T06:49:02Z</time>
      </trkpt>
      <trkpt lat="42.8678" lon="1.21399">
        <ele>616</ele>
        <time>2024-05-12T06:49:03Z</time>
      </trkpt>
      <trkpt lat="42.86778" lon="1.21398">
        <ele>616.6</ele>
        <time>2024-05-12T06:49:04Z</time>
      </trkpt>
      <trkpt lat="42.86775" lon="1.21393">
        <ele>616.6</ele>
        <time>2024-05-12T06:49:07Z</time>
      </trkpt>
      <trkpt lat="42.86771" lon="1.21389">
        <ele>617</ele>
        <time>2024-05-12T06:49:10Z</time>
      </trkpt>
      <trkpt lat="42.86769" lon="1.21388">
        <ele>617.4</ele>
        <time>2024-05-12T06:49:11Z</time>
      </trkpt>
      <trkpt lat="42.86768" lon="1.21388">
        <ele>617.8</ele>
        <time>2024-05-12T06:49:12Z</time>
      </trkpt>
      <trkpt lat="42.86766" lon="1.21387">
        <ele>618.2</ele>
        <time>2024-05-12T06:49:13Z</time>
      </trkpt>
      <trkpt lat="42.86764" lon="1.21386">
        <ele>618.6</ele>
        <time>2024-05-12T06:49:14Z</time>
      </trkpt>
      <trkpt lat="42.86755" lon="1.21379">
        <ele>619</ele>
        <time>2024-05-12T06:49:20Z</time>
      </trkpt>
      <trkpt lat="42.86753" lon="1.21378">
        <ele>619.8</ele>
        <time>2024-05-12T06:49:21Z</time>
      </trkpt>
      <trkpt lat="42.86751" lon="1.21376">
        <ele>620.2</ele>
        <time>2024-05-12T06:49:22Z</time>
      </trkpt>
      <trkpt lat="42.8675" lon="1.21375">
        <ele>620.6</ele>
        <time>2024-05-12T06:49:23Z</time>
      </trkpt>
      <trkpt lat="42.8674" lon="1.21368">
        <ele>621</ele>
        <time>2024-05-12T06:49:29Z</time>
      </trkpt>
      <trkpt lat="42.86739" lon="1.21367">
        <ele>621.4</ele>
        <time>2024-05-12T06:49:30Z</time>
      </trkpt>
      <trkpt lat="42.86736" lon="1.21366">
        <ele>621.8</ele>
        <time>2024-05-12T06:49:31Z</time>
      </trkpt>
      <trkpt lat="42.86735" lon="1.21364">
        <ele>622.2</ele>
        <time>2024-05-12T06:49:32Z</time>
      </trkpt>
      <trkpt lat="42.86734" lon="1.21362">
        <ele>622.6</ele>
        <time>2024-05-12T06:49:33Z</time>
      </trkpt>
      <trkpt lat="42.86733" lon="1.2136">
        <ele>622.6</ele>
        <time>2024-05-12T06:49:34Z</time>
      </trkpt>
      <trkpt lat="42.8673" lon="1.21356">
        <ele>622.6</ele>
        <time>2024-05-12T06:49:36Z</time>
      </trkpt>
      <trkpt lat="42.86728" lon="1.21353">
        <ele>623.2</ele>
        <time>2024-05-12T06:49:38Z</time>
      </trkpt>
      <trkpt lat="42.86726" lon="1.21352">
        <ele>623.6</ele>
        <time>2024-05-12T06:49:39Z</time>
      </trkpt>
      <trkpt lat="42.86725" lon="1.21352">
        <ele>624</ele>
        <time>2024-05-12T06:49:40Z</time>
      </trkpt>
      <trkpt lat="42.86724" lon="1.2135">
        <ele>624.4</ele>
        <time>2024-05-12T06:49:41Z</time>
      </trkpt>
      <trkpt lat="42.86722" lon="1.21349">
        <ele>624.8</ele>
        <time>2024-05-12T06:49:42Z</time>
      </trkpt>
      <trkpt lat="42.86718" lon="1.21345">
        <ele>624.8</ele>
        <time>2024-05-12T06:49:45Z</time>
      </trkpt>
      <trkpt lat="42.86715" lon="1.21343">
        <ele>625.2</ele>
        <time>2024-05-12T06:49:47Z</time>
      </trkpt>
      <trkpt lat="42.86714" lon="1.21342">
        <ele>625.6</ele>
        <time>2024-05-12T06:49:48Z</time>
      </trkpt>
      <trkpt lat="42.86713" lon="1.2134">
        <ele>626</ele>
        <time>2024-05-12T06:49:49Z</time>
      </trkpt>
      <trkpt lat="42.86712" lon="1.21339">
        <ele>626.6</ele>
        <time>2024-05-12T06:49:50Z</time>
      </trkpt>
      <trkpt lat="42.86711" lon="1.21337">
        <ele>627</ele>
        <time>2024-05-12T06:49:51Z</time>
      </trkpt>
      <trkpt lat="42.86709" lon="1.21333">
        <ele>627</ele>
        <time>2024-05-12T06:49:53Z</time>
      </trkpt>
      <trkpt lat="42.86702" lon="1.21322">
        <ele>627.4</ele>
        <time>2024-05-12T06:49:59Z</time>
      </trkpt>
      <trkpt lat="42.86701" lon="1.21321">
        <ele>627.8</ele>
        <time>2024-05-12T06:50:00Z</time>
      </trkpt>
      <trkpt lat="42.86699" lon="1.2132">
        <ele>628.2</ele>
        <time>2024-05-12T06:50:01Z</time>
      </trkpt>
      <trkpt lat="42.86698" lon="1.21319">
        <ele>628.6</ele>
        <time>2024-05-12T06:50:02Z</time>
      </trkpt>
      <trkpt lat="42.86697" lon="1.21318">
        <ele>629</ele>
        <time>2024-05-12T06:50:03Z</time>
      </trkpt>
      <trkpt lat="42.86691" lon="1.21311">
        <ele>629</ele>
        <time>2024-05-12T06:50:07Z</time>
      </trkpt>
      <trkpt lat="42.86686" lon="1.21309">
        <ele>629.6</ele>
        <time>2024-05-12T06:50:10Z</time>
      </trkpt>
      <trkpt lat="42.86684" lon="1.21308">
        <ele>630</ele>
        <time>2024-05-12T06:50:11Z</time>
      </trkpt>
      <trkpt lat="42.86683" lon="1.21307">
        <ele>630.4</ele>
        <time>2024-05-12T06:50:12Z</time>
      </trkpt>
      <trkpt lat="42.86681" lon="1.21307">
        <ele>630.8</ele>
        <time>2024-05-12T06:50:13Z</time>
      </trkpt>
      <trkpt lat="42.8668" lon="1.21306">
        <ele>631.2</ele>
        <time>2024-05-12T06:50:14Z</time>
      </trkpt>
      <trkpt lat="42.86673" lon="1.213">
        <ele>631.2</ele>
        <time>2024-05-12T06:50:19Z</time>
      </trkpt>
      <trkpt lat="42.86671" lon="1.213">
        <ele>631.6</ele>
        <time>2024-05-12T06:50:20Z</time>
      </trkpt>
      <trkpt lat="42.86669" lon="1.213">
        <ele>632</ele>
        <time>2024-05-12T06:50:21Z</time>
      </trkpt>
      <trkpt lat="42.86668" lon="1.213">
        <ele>632.4</ele>
        <time>2024-05-12T06:50:22Z</time>
      </trkpt>
      <trkpt lat="42.86667" lon="1.213">
        <ele>632.8</ele>
        <time>2024-05-12T06:50:23Z</time>
      </trkpt>
      <trkpt lat="42.86665" lon="1.213">
        <ele>633.2</ele>
        <time>2024-05-12T06:50:24Z</time>
      </trkpt>
      <trkpt lat="42.86661" lon="1.213">
        <ele>633.2</ele>
        <time>2024-05-12T06:50:26Z</time>
      </trkpt>
      <trkpt lat="42.86655" lon="1.213">
        <ele>633.6</ele>
        <time>2024-05-12T06:50:29Z</time>
      </trkpt>
      <trkpt lat="42.86654" lon="1.213">
        <ele>634</ele>
        <time>2024-05-12T06:50:30Z</time>
      </trkpt>
      <trkpt lat="42.86652" lon="1.21299">
        <ele>634.6</ele>
        <time>2024-05-12T06:50:31Z</time>
      </trkpt>
      <trkpt lat="42.86651" lon="1.21299">
        <ele>635</ele>
        <time>2024-05-12T06:50:32Z</time>
      </trkpt>
      <trkpt lat="42.8665" lon="1.21299">
        <ele>635.4</ele>
        <time>2024-05-12T06:50:33Z</time>
      </trkpt>
      <trkpt lat="42.86644" lon="1.21298">
        <ele>635.8</ele>
        <time>2024-05-12T06:50:37Z</time>
      </trkpt>
      <trkpt lat="42.86642" lon="1.21297">
        <ele>636.2</ele>
        <time>2024-05-12T06:50:38Z</time>
      </trkpt>
      <trkpt lat="42.86639" lon="1.21297">
        <ele>636.6</ele>
        <time>2024-05-12T06:50:39Z</time>
      </trkpt>
      <trkpt lat="42.86637" lon="1.21296">
        <ele>637</ele>
        <time>2024-05-12T06:50:40Z</time>
      </trkpt>
      <trkpt lat="42.86635" lon="1.21296">
        <ele>637.4</ele>
        <time>2024-05-12T06:50:41Z</time>
      </trkpt>
      <trkpt lat="42.8663" lon="1.21296">
        <ele>637.8</ele>
        <time>2024-05-12T06:50:44Z</time>
      </trkpt>
      <trkpt lat="42.86628" lon="1.21296">
        <ele>638.2</ele>
        <time>2024-05-12T06:50:45Z</time>
      </trkpt>
      <trkpt lat="42.86626" lon="1.21297">
        <ele>638.6</ele>
        <time>2024-05-12T06:50:46Z</time>
      </trkpt>
      <trkpt lat="42.86624" lon="1.21297">
        <ele>639</ele>
        <time>2024-05-12T06:50:47Z</time>
      </trkpt>
      <trkpt lat="42.86622" lon="1.21297">
        <ele>639.4</ele>
        <time>2024-05-12T06:50:48Z</time>
      </trkpt>
      <trkpt lat="42.86613" lon="1.21296">
        <ele>639.8</ele>
        <time>2024-05-12T06:50:52Z</time>
      </trkpt>
      <trkpt lat="42.86612" lon="1.21296">
        <ele>640.2</ele>
        <time>2024-05-12T06:50:53Z</time>
      </trkpt>
      <trkpt lat="42.8661" lon="1.21296">
        <ele>640.6</ele>
        <time>2024-05-12T06:50:54Z</time>
      </trkpt>
      <trkpt lat="42.86608" lon="1.21296">
        <ele>641</ele>
        <time>2024-05-12T06:50:55Z</time>
      </trkpt>
      <trkpt lat="42.86607" lon="1.21295">
        <ele>641.4</ele>
        <time>2024-05-12T06:50:56Z</time>
      </trkpt>
      <trkpt lat="42.86599" lon="1.21293">
        <ele>642.4</ele>
        <time>2024-05-12T06:51:00Z</time>
      </trkpt>
      <trkpt lat="42.86596" lon="1.21292">
        <ele>642.8</ele>
        <time>2024-05-12T06:51:01Z</time>
      </trkpt>
      <trkpt lat="42.86595" lon="1.21291">
        <ele>643.2</ele>
        <time>2024-05-12T06:51:02Z</time>
      </trkpt>
      <trkpt lat="42.86593" lon="1.21291">
        <ele>643.6</ele>
        <time>2024-05-12T06:51:03Z</time>
      </trkpt>
      <trkpt lat="42.86591" lon="1.2129">
        <ele>643.6</ele>
        <time>2024-05-12T06:51:04Z</time>
      </trkpt>
      <trkpt lat="42.86584" lon="1.21288">
        <ele>644</ele>
        <time>2024-05-12T06:51:08Z</time>
      </trkpt>
      <trkpt lat="42.86582" lon="1.21287">
        <ele>644.4</ele>
        <time>2024-05-12T06:51:09Z</time>
      </trkpt>
      <trkpt lat="42.8658" lon="1.21286">
        <ele>644.8</ele>
        <time>2024-05-12T06:51:10Z</time>
      </trkpt>
      <trkpt lat="42.86579" lon="1.21285">
        <ele>645.2</ele>
        <time>2024-05-12T06:51:11Z</time>
      </trkpt>
      <trkpt lat="42.86578" lon="1.21284">
        <ele>645.6</ele>
        <time>2024-05-12T06:51:12Z</time>
      </trkpt>
      <trkpt lat="42.86569" lon="1.21277">
        <ele>646</ele>
        <time>2024-05-12T06:51:17Z</time>
      </trkpt>
      <trkpt lat="42.86568" lon="1.21276">
        <ele>646.6</ele>
        <time>2024-05-12T06:51:18Z</time>
      </trkpt>
      <trkpt lat="42.86567" lon="1.21275">
        <ele>647</ele>
        <time>2024-05-12T06:51:19Z</time>
      </trkpt>
      <trkpt lat="42.86565" lon="1.21273">
        <ele>647.4</ele>
        <time>2024-05-12T06:51:20Z</time>
      </trkpt>
      <trkpt lat="42.86563" lon="1.21272">
        <ele>647.8</ele>
        <time>2024-05-12T06:51:21Z</time>
      </trkpt>
      <trkpt lat="42.86557" lon="1.21265">
        <ele>648.2</ele>
        <time>2024-05-12T06:51:25Z</time>
      </trkpt>
      <trkpt lat="42.86556" lon="1.21264">
        <ele>648.8</ele>
        <time>2024-05-12T06:51:26Z</time>
      </trkpt>
      <trkpt lat="42.86554" lon="1.21263">
        <ele>649.2</ele>
        <time>2024-05-12T06:51:27Z</time>
      </trkpt>
      <trkpt lat="42.86553" lon="1.21261">
        <ele>649.6</ele>
        <time>2024-05-12T06:51:28Z</time>
      </trkpt>
      <trkpt lat="42.86552" lon="1.2126">
        <ele>650</ele>
        <time>2024-05-12T06:51:29Z</time>
      </trkpt>
      <trkpt lat="42.86548" lon="1.21255">
        <ele>650</ele>
        <time>2024-05-12T06:51:32Z</time>
      </trkpt>
      <trkpt lat="42.86546" lon="1.21251">
        <ele>650.4</ele>
        <time>2024-05-12T06:51:34Z</time>
      </trkpt>
      <trkpt lat="42.86545" lon="1.21249">
        <ele>651</ele>
        <time>2024-05-12T06:51:35Z</time>
      </trkpt>
      <trkpt lat="42.86543" lon="1.21247">
        <ele>651.4</ele>
        <time>2024-05-12T06:51:36Z</time>
      </trkpt>
      <trkpt lat="42.86542" lon="1.21245">
        <ele>651.8</ele>
        <time>2024-05-12T06:51:37Z</time>
      </trkpt>
      <trkpt lat="42.86542" lon="1.21243">
        <ele>652.2</ele>
        <time>2024-05-12T06:51:38Z</time>
      </trkpt>
      <trkpt lat="42.86539" lon="1.2124">
        <ele>652.2</ele>
        <time>2024-05-12T06:51:40Z</time>
      </trkpt>
      <trkpt lat="42.86538" lon="1.21238">
        <ele>652.2</ele>
        <time>2024-05-12T06:51:41Z</time>
      </trkpt>
      <trkpt lat="42.86536" lon="1.21233">
        <ele>652.6</ele>
        <time>2024-05-12T06:51:43Z</time>
      </trkpt>
      <trkpt lat="42.86534" lon="1.2123">
        <ele>653</ele>
        <time>2024-05-12T06:51:44Z</time>
      </trkpt>
      <trkpt lat="42.86534" lon="1.21228">
        <ele>653.4</ele>
        <time>2024-05-12T06:51:45Z</time>
      </trkpt>
      <trkpt lat="42.86533" lon="1.21226">
        <ele>653.8</ele>
        <time>2024-05-12T06:51:46Z</time>
      </trkpt>
      <trkpt lat="42.86532" lon="1.21224">
        <ele>654.4</ele>
        <time>2024-05-12T06:51:47Z</time>
      </trkpt>
      <trkpt lat="42.86528" lon="1.21216">
        <ele>654.4</ele>
        <time>2024-05-12T06:51:51Z</time>
      </trkpt>
      <trkpt lat="42.86527" lon="1.21215">
        <ele>654.8</ele>
        <time>2024-05-12T06:51:52Z</time>
      </trkpt>
      <trkpt lat="42.86525" lon="1.21213">
        <ele>655.2</ele>
        <time>2024-05-12T06:51:53Z</time>
      </trkpt>
      <trkpt lat="42.86524" lon="1.21211">
        <ele>655.6</ele>
        <time>2024-05-12T06:51:54Z</time>
      </trkpt>
      <trkpt lat="42.86523" lon="1.21209">
        <ele>656</ele>
        <time>2024-05-12T06:51:55Z</time>
      </trkpt>
      <trkpt lat="42.86522" lon="1.21208">
        <ele>656.4</ele>
        <time>2024-05-12T06:51:56Z</time>
      </trkpt>
      <trkpt lat="42.86519" lon="1.21204">
        <ele>656.4</ele>
        <time>2024-05-12T06:51:58Z</time>
      </trkpt>
      <trkpt lat="42.86515" lon="1.212">
        <ele>656.8</ele>
        <time>2024-05-12T06:52:01Z</time>
      </trkpt>
      <trkpt lat="42.86513" lon="1.21199">
        <ele>657.2</ele>
        <time>2024-05-12T06:52:02Z</time>
      </trkpt>
      <trkpt lat="42.86511" lon="1.21198">
        <ele>657.6</ele>
        <time>2024-05-12T06:52:03Z</time>
      </trkpt>
      <trkpt lat="42.86509" lon="1.21196">
        <ele>658.2</ele>
        <time>2024-05-12T06:52:04Z</time>
      </trkpt>
      <trkpt lat="42.86507" lon="1.21195">
        <ele>658.6</ele>
        <time>2024-05-12T06:52:05Z</time>
      </trkpt>
      <trkpt lat="42.865" lon="1.21187">
        <ele>659</ele>
        <time>2024-05-12T06:52:10Z</time>
      </trkpt>
      <trkpt lat="42.86499" lon="1.21186">
        <ele>659.4</ele>
        <time>2024-05-12T06:52:11Z</time>
      </trkpt>
      <trkpt lat="42.86497" lon="1.21185">
        <ele>659.8</ele>
        <time>2024-05-12T06:52:12Z</time>
      </trkpt>
      <trkpt lat="42.86494" lon="1.21185">
        <ele>660.4</ele>
        <time>2024-05-12T06:52:13Z</time>
      </trkpt>
      <trkpt lat="42.86493" lon="1.21183">
        <ele>660.8</ele>
        <time>2024-05-12T06:52:14Z</time>
      </trkpt>
      <trkpt lat="42.86484" lon="1.21182">
        <ele>661.2</ele>
        <time>2024-05-12T06:52:18Z</time>
      </trkpt>
      <trkpt lat="42.86482" lon="1.21181">
        <ele>661.6</ele>
        <time>2024-05-12T06:52:19Z</time>
      </trkpt>
      <trkpt lat="42.8648" lon="1.21181">
        <ele>662.2</ele>
        <time>2024-05-12T06:52:20Z</time>
      </trkpt>
      <trkpt lat="42.86477" lon="1.21181">
        <ele>662.6</ele>
        <time>2024-05-12T06:52:21Z</time>
      </trkpt>
      <trkpt lat="42.86476" lon="1.21181">
        <ele>663</ele>
        <time>2024-05-12T06:52:22Z</time>
      </trkpt>
      <trkpt lat="42.86465" lon="1.21181">
        <ele>663.4</ele>
        <time>2024-05-12T06:52:27Z</time>
      </trkpt>
      <trkpt lat="42.86463" lon="1.21181">
        <ele>663.8</ele>
        <time>2024-05-12T06:52:28Z</time>
      </trkpt>
      <trkpt lat="42.86461" lon="1.21181">
        <ele>664.2</ele>
        <time>2024-05-12T06:52:29Z</time>
      </trkpt>
      <trkpt lat="42.86458" lon="1.21182">
        <ele>664.8</ele>
        <time>2024-05-12T06:52:30Z</time>
      </trkpt>
      <trkpt lat="42.86457" lon="1.21182">
        <ele>665.2</ele>
        <time>2024-05-12T06:52:31Z</time>
      </trkpt>
      <trkpt lat="42.8645" lon="1.21184">
        <ele>665.2</ele>
        <time>2024-05-12T06:52:34Z</time>
      </trkpt>
      <trkpt lat="42.86448" lon="1.21184">
        <ele>665.6</ele>
        <time>2024-05-12T06:52:35Z</time>
      </trkpt>
      <trkpt lat="42.86446" lon="1.21185">
        <ele>666</ele>
        <time>2024-05-12T06:52:36Z</time>
      </trkpt>
      <trkpt lat="42.86444" lon="1.21187">
        <ele>666.4</ele>
        <time>2024-05-12T06:52:37Z</time>
      </trkpt>
      <trkpt lat="42.86442" lon="1.21188">
        <ele>666.8</ele>
        <time>2024-05-12T06:52:38Z</time>
      </trkpt>
      <trkpt lat="42.8644" lon="1.21189">
        <ele>667.2</ele>
        <time>2024-05-12T06:52:39Z</time>
      </trkpt>
      <trkpt lat="42.86437" lon="1.21191">
        <ele>667.2</ele>
        <time>2024-05-12T06:52:41Z</time>
      </trkpt>
      <trkpt lat="42.86433" lon="1.21193">
        <ele>667.6</ele>
        <time>2024-05-12T06:52:43Z</time>
      </trkpt>
      <trkpt lat="42.86431" lon="1.21193">
        <ele>668</ele>
        <time>2024-05-12T06:52:44Z</time>
      </trkpt>
      <trkpt lat="42.86429" lon="1.21195">
        <ele>668.4</ele>
        <time>2024-05-12T06:52:45Z</time>
      </trkpt>
      <trkpt lat="42.86427" lon="1.21196">
        <ele>668.8</ele>
        <time>2024-05-12T06:52:46Z</time>
      </trkpt>
      <trkpt lat="42.86425" lon="1.21197">
        <ele>669.2</ele>
        <time>2024-05-12T06:52:47Z</time>
      </trkpt>
      <trkpt lat="42.86424" lon="1.21199">
        <ele>669.2</ele>
        <time>2024-05-12T06:52:48Z</time>
      </trkpt>
      <trkpt lat="42.86414" lon="1.21209">
        <ele>669.8</ele>
        <time>2024-05-12T06:52:53Z</time>
      </trkpt>
      <trkpt lat="42.86413" lon="1.2121">
        <ele>670.2</ele>
        <time>2024-05-12T06:52:54Z</time>
      </trkpt>
      <trkpt lat="42.86411" lon="1.21212">
        <ele>670.6</ele>
        <time>2024-05-12T06:52:55Z</time>
      </trkpt>
      <trkpt lat="42.8641" lon="1.21214">
        <ele>671</ele>
        <time>2024-05-12T06:52:56Z</time>
      </trkpt>
      <trkpt lat="42.86408" lon="1.21215">
        <ele>671.4</ele>
        <time>2024-05-12T06:52:57Z</time>
      </trkpt>
      <trkpt lat="42.86405" lon="1.2122">
        <ele>671.4</ele>
        <time>2024-05-12T06:53:00Z</time>
      </trkpt>
      <trkpt lat="42.86402" lon="1.21225">
        <ele>671.8</ele>
        <time>2024-05-12T06:53:02Z</time>
      </trkpt>
      <trkpt lat="42.864" lon="1.21228">
        <ele>672.4</ele>
        <time>2024-05-12T06:53:03Z</time>
      </trkpt>
      <trkpt lat="42.86399" lon="1.2123">
        <ele>673.2</ele>
        <time>2024-05-12T06:53:04Z</time>
      </trkpt>
      <trkpt lat="42.86397" lon="1.21232">
        <ele>673.6</ele>
        <time>2024-05-12T06:53:05Z</time>
      </trkpt>
      <trkpt lat="42.86395" lon="1.21235">
        <ele>673.6</ele>
        <time>2024-05-12T06:53:07Z</time>
      </trkpt>
      <trkpt lat="42.8639" lon="1.21244">
        <ele>674</ele>
        <time>2024-05-12T06:53:11Z</time>
      </trkpt>
      <trkpt lat="42.86389" lon="1.21245">
        <ele>674.4</ele>
        <time>2024-05-12T06:53:12Z</time>
      </trkpt>
      <trkpt lat="42.86387" lon="1.21247">
        <ele>674.8</ele>
        <time>2024-05-12T06:53:13Z</time>
      </trkpt>
      <trkpt lat="42.86386" lon="1.21249">
        <ele>675.2</ele>
        <time>2024-05-12T06:53:14Z</time>
      </trkpt>
      <trkpt lat="42.86385" lon="1.21251">
        <ele>675.6</ele>
        <time>2024-05-12T06:53:15Z</time>
      </trkpt>
      <trkpt lat="42.86379" lon="1.21259">
        <ele>675.6</ele>
        <time>2024-05-12T06:53:19Z</time>
      </trkpt>
      <trkpt lat="42.86376" lon="1.21262">
        <ele>676</ele>
        <time>2024-05-12T06:53:21Z</time>
      </trkpt>
      <trkpt lat="42.86375" lon="1.21264">
        <ele>676.4</ele>
        <time>2024-05-12T06:53:22Z</time>
      </trkpt>
      <trkpt lat="42.86374" lon="1.21267">
        <ele>676.8</ele>
        <time>2024-05-12T06:53:23Z</time>
      </trkpt>
      <trkpt lat="42.86371" lon="1.21268">
        <ele>677.2</ele>
        <time>2024-05-12T06:53:24Z</time>
      </trkpt>
      <trkpt lat="42.86369" lon="1.21269">
        <ele>677.6</ele>
        <time>2024-05-12T06:53:25Z</time>
      </trkpt>
      <trkpt lat="42.86367" lon="1.21271">
        <ele>677.6</ele>
        <time>2024-05-12T06:53:26Z</time>
      </trkpt>
      <trkpt lat="42.86362" lon="1.21276">
        <ele>678.2</ele>
        <time>2024-05-12T06:53:29Z</time>
      </trkpt>
      <trkpt lat="42.86361" lon="1.21277">
        <ele>678.6</ele>
        <time>2024-05-12T06:53:30Z</time>
      </trkpt>
      <trkpt lat="42.86359" lon="1.21279">
        <ele>679</ele>
        <time>2024-05-12T06:53:31Z</time>
      </trkpt>
      <trkpt lat="42.86358" lon="1.21281">
        <ele>679.6</ele>
        <time>2024-05-12T06:53:32Z</time>
      </trkpt>
      <trkpt lat="42.86356" lon="1.21283">
        <ele>680</ele>
        <time>2024-05-12T06:53:33Z</time>
      </trkpt>
      <trkpt lat="42.8635" lon="1.21291">
        <ele>680.4</ele>
        <time>2024-05-12T06:53:37Z</time>
      </trkpt>
      <trkpt lat="42.86349" lon="1.21294">
        <ele>680.8</ele>
        <time>2024-05-12T06:53:38Z</time>
      </trkpt>
      <trkpt lat="42.86348" lon="1.21296">
        <ele>681.2</ele>
        <time>2024-05-12T06:53:39Z</time>
      </trkpt>
      <trkpt lat="42.86346" lon="1.21297">
        <ele>681.6</ele>
        <time>2024-05-12T06:53:40Z</time>
      </trkpt>
      <trkpt lat="42.86346" lon="1.213">
        <ele>682.2</ele>
        <time>2024-05-12T06:53:41Z</time>
      </trkpt>
      <trkpt lat="42.86342" lon="1.21315">
        <ele>682.2</ele>
        <time>2024-05-12T06:53:46Z</time>
      </trkpt>
      <trkpt lat="42.86341" lon="1.21319">
        <ele>682.6</ele>
        <time>2024-05-12T06:53:47Z</time>
      </trkpt>
      <trkpt lat="42.86341" lon="1.21322">
        <ele>683</ele>
        <time>2024-05-12T06:53:48Z</time>
      </trkpt>
      <trkpt lat="42.86341" lon="1.21325">
        <ele>683.4</ele>
        <time>2024-05-12T06:53:49Z</time>
      </trkpt>
      <trkpt lat="42.86341" lon="1.21328">
        <ele>683.8</ele>
        <time>2024-05-12T06:53:50Z</time>
      </trkpt>
      <trkpt lat="42.8634" lon="1.21331">
        <ele>684.2</ele>
        <time>2024-05-12T06:53:51Z</time>
      </trkpt>
      <trkpt lat="42.8634" lon="1.21334">
        <ele>684.2</ele>
        <time>2024-05-12T06:53:52Z</time>
      </trkpt>
      <trkpt lat="42.8634" lon="1.21348">
        <ele>684.2</ele>
        <time>2024-05-12T06:53:57Z</time>
      </trkpt>
      <trkpt lat="42.86339" lon="1.21355">
        <ele>684.6</ele>
        <time>2024-05-12T06:53:59Z</time>
      </trkpt>
      <trkpt lat="42.86339" lon="1.21359">
        <ele>685</ele>
        <time>2024-05-12T06:54:00Z</time>
      </trkpt>
      <trkpt lat="42.86337" lon="1.21363">
        <ele>685.4</ele>
        <time>2024-05-12T06:54:01Z</time>
      </trkpt>
      <trkpt lat="42.86336" lon="1.21366">
        <ele>685.8</ele>
        <time>2024-05-12T06:54:02Z</time>
      </trkpt>
      <trkpt lat="42.86334" lon="1.21369">
        <ele>686.2</ele>
        <time>2024-05-12T06:54:03Z</time>
      </trkpt>
      <trkpt lat="42.86323" lon="1.21391">
        <ele>686.2</ele>
        <time>2024-05-12T06:54:10Z</time>
      </trkpt>
      <trkpt lat="42.8632" lon="1.21395">
        <ele>686.6</ele>
        <time>2024-05-12T06:54:12Z</time>
      </trkpt>
      <trkpt lat="42.86318" lon="1.21398">
        <ele>687</ele>
        <time>2024-05-12T06:54:13Z</time>
      </trkpt>
      <trkpt lat="42.86316" lon="1.21401">
        <ele>687.4</ele>
        <time>2024-05-12T06:54:14Z</time>
      </trkpt>
      <trkpt lat="42.86314" lon="1.21403">
        <ele>687.8</ele>
        <time>2024-05-12T06:54:15Z</time>
      </trkpt>
      <trkpt lat="42.86312" lon="1.21406">
        <ele>688.2</ele>
        <time>2024-05-12T06:54:16Z</time>
      </trkpt>
      <trkpt lat="42.8631" lon="1.21408">
        <ele>688.2</ele>
        <time>2024-05-12T06:54:17Z</time>
      </trkpt>
      <trkpt lat="42.86298" lon="1.21424">
        <ele>688.2</ele>
        <time>2024-05-12T06:54:23Z</time>
      </trkpt>
      <trkpt lat="42.86296" lon="1.21426">
        <ele>688.6</ele>
        <time>2024-05-12T06:54:24Z</time>
      </trkpt>
      <trkpt lat="42.86294" lon="1.21429">
        <ele>689.2</ele>
        <time>2024-05-12T06:54:25Z</time>
      </trkpt>
      <trkpt lat="42.86292" lon="1.21432">
        <ele>689.6</ele>
        <time>2024-05-12T06:54:26Z</time>
      </trkpt>
      <trkpt lat="42.86291" lon="1.21434">
        <ele>690</ele>
        <time>2024-05-12T06:54:27Z</time>
      </trkpt>
      <trkpt lat="42.86289" lon="1.21437">
        <ele>690.4</ele>
        <time>2024-05-12T06:54:28Z</time>
      </trkpt>
      <trkpt lat="42.86287" lon="1.21438">
        <ele>690.4</ele>
        <time>2024-05-12T06:54:29Z</time>
      </trkpt>
      <trkpt lat="42.86276" lon="1.21453">
        <ele>690.4</ele>
        <time>2024-05-12T06:54:35Z</time>
      </trkpt>
      <trkpt lat="42.86274" lon="1.21456">
        <ele>690.8</ele>
        <time>2024-05-12T06:54:36Z</time>
      </trkpt>
      <trkpt lat="42.86272" lon="1.21457">
        <ele>691.2</ele>
        <time>2024-05-12T06:54:37Z</time>
      </trkpt>
      <trkpt lat="42.8627" lon="1.21459">
        <ele>691.6</ele>
        <time>2024-05-12T06:54:38Z</time>
      </trkpt>
      <trkpt lat="42.86268" lon="1.21462">
        <ele>692</ele>
        <time>2024-05-12T06:54:39Z</time>
      </trkpt>
      <trkpt lat="42.86265" lon="1.21463">
        <ele>692.4</ele>
        <time>2024-05-12T06:54:40Z</time>
      </trkpt>
      <trkpt lat="42.8625" lon="1.21474">
        <ele>692.4</ele>
        <time>2024-05-12T06:54:46Z</time>
      </trkpt>
      <trkpt lat="42.86248" lon="1.21476">
        <ele>692.8</ele>
        <time>2024-05-12T06:54:47Z</time>
      </trkpt>
      <trkpt lat="42.86245" lon="1.21479">
        <ele>693.2</ele>
        <time>2024-05-12T06:54:48Z</time>
      </trkpt>
      <trkpt lat="42.86244" lon="1.21481">
        <ele>693.6</ele>
        <time>2024-05-12T06:54:49Z</time>
      </trkpt>
      <trkpt lat="42.86242" lon="1.21484">
        <ele>694.2</ele>
        <time>2024-05-12T06:54:50Z</time>
      </trkpt>
      <trkpt lat="42.8624" lon="1.21487">
        <ele>694.6</ele>
        <time>2024-05-12T06:54:51Z</time>
      </trkpt>
      <trkpt lat="42.86231" lon="1.2151">
        <ele>694.6</ele>
        <time>2024-05-12T06:54:58Z</time>
      </trkpt>
      <trkpt lat="42.86228" lon="1.21525">
        <ele>695</ele>
        <time>2024-05-12T06:55:02Z</time>
      </trkpt>
      <trkpt lat="42.86228" lon="1.21529">
        <ele>695.4</ele>
        <time>2024-05-12T06:55:03Z</time>
      </trkpt>
      <trkpt lat="42.86227" lon="1.21533">
        <ele>695.8</ele>
        <time>2024-05-12T06:55:04Z</time>
      </trkpt>
      <trkpt lat="42.86226" lon="1.21537">
        <ele>696.2</ele>
        <time>2024-05-12T06:55:05Z</time>
      </trkpt>
      <trkpt lat="42.86224" lon="1.21541">
        <ele>696.6</ele>
        <time>2024-05-12T06:55:06Z</time>
      </trkpt>
      <trkpt lat="42.86216" lon="1.2156">
        <ele>696.6</ele>
        <time>2024-05-12T06:55:11Z</time>
      </trkpt>
      <trkpt lat="42.86202" lon="1.21569">
        <ele>696.6</ele>
        <time>2024-05-12T06:55:16Z</time>
      </trkpt>
      <trkpt lat="42.86194" lon="1.2157">
        <ele>697</ele>
        <time>2024-05-12T06:55:19Z</time>
      </trkpt>
      <trkpt lat="42.86192" lon="1.21571">
        <ele>697.4</ele>
        <time>2024-05-12T06:55:20Z</time>
      </trkpt>
      <trkpt lat="42.8619" lon="1.21572">
        <ele>697.8</ele>
        <time>2024-05-12T06:55:21Z</time>
      </trkpt>
      <trkpt lat="42.86187" lon="1.21573">
        <ele>698.2</ele>
        <time>2024-05-12T06:55:22Z</time>
      </trkpt>
      <trkpt lat="42.86184" lon="1.21574">
        <ele>698.6</ele>
        <time>2024-05-12T06:55:23Z</time>
      </trkpt>
      <trkpt lat="42.86171" lon="1.21582">
        <ele>699</ele>
        <time>2024-05-12T06:55:28Z</time>
      </trkpt>
      <trkpt lat="42.86169" lon="1.21583">
        <ele>699.4</ele>
        <time>2024-05-12T06:55:29Z</time>
      </trkpt>
      <trkpt lat="42.86167" lon="1.21585">
        <ele>699.8</ele>
        <time>2024-05-12T06:55:30Z</time>
      </trkpt>
      <trkpt lat="42.86164" lon="1.21587">
        <ele>700.2</ele>
        <time>2024-05-12T06:55:31Z</time>
      </trkpt>
      <trkpt lat="42.86162" lon="1.21589">
        <ele>700.6</ele>
        <time>2024-05-12T06:55:32Z</time>
      </trkpt>
      <trkpt lat="42.86156" lon="1.21596">
        <ele>700.6</ele>
        <time>2024-05-12T06:55:35Z</time>
      </trkpt>
      <trkpt lat="42.8615" lon="1.21608">
        <ele>701</ele>
        <time>2024-05-12T06:55:39Z</time>
      </trkpt>
      <trkpt lat="42.86148" lon="1.21611">
        <ele>701.4</ele>
        <time>2024-05-12T06:55:40Z</time>
      </trkpt>
      <trkpt lat="42.86148" lon="1.21614">
        <ele>701.8</ele>
        <time>2024-05-12T06:55:41Z</time>
      </trkpt>
      <trkpt lat="42.86147" lon="1.21617">
        <ele>702.4</ele>
        <time>2024-05-12T06:55:42Z</time>
      </trkpt>
      <trkpt lat="42.86145" lon="1.21621">
        <ele>702.8</ele>
        <time>2024-05-12T06:55:43Z</time>
      </trkpt>
      <trkpt lat="42.86143" lon="1.21628">
        <ele>702.8</ele>
        <time>2024-05-12T06:55:45Z</time>
      </trkpt>
      <trkpt lat="42.86136" lon="1.21645">
        <ele>702.8</ele>
        <time>2024-05-12T06:55:50Z</time>
      </trkpt>
      <trkpt lat="42.86124" lon="1.21664">
        <ele>703.2</ele>
        <time>2024-05-12T06:55:56Z</time>
      </trkpt>
      <trkpt lat="42.86122" lon="1.21666">
        <ele>703.6</ele>
        <time>2024-05-12T06:55:57Z</time>
      </trkpt>
      <trkpt lat="42.8612" lon="1.21669">
        <ele>704</ele>
        <time>2024-05-12T06:55:58Z</time>
      </trkpt>
      <trkpt lat="42.86117" lon="1.21672">
        <ele>704.4</ele>
        <time>2024-05-12T06:55:59Z</time>
      </trkpt>
      <trkpt lat="42.86115" lon="1.21674">
        <ele>704.8</ele>
        <time>2024-05-12T06:56:00Z</time>
      </trkpt>
      <trkpt lat="42.86109" lon="1.21678">
        <ele>704.8</ele>
        <time>2024-05-12T06:56:02Z</time>
      </trkpt>
      <trkpt lat="42.86089" lon="1.21694">
        <ele>704.8</ele>
        <time>2024-05-12T06:56:10Z</time>
      </trkpt>
      <trkpt lat="42.86078" lon="1.21702">
        <ele>705.2</ele>
        <time>2024-05-12T06:56:14Z</time>
      </trkpt>
      <trkpt lat="42.86075" lon="1.21704">
        <ele>705.6</ele>
        <time>2024-05-12T06:56:15Z</time>
      </trkpt>
      <trkpt lat="42.86073" lon="1.21706">
        <ele>706</ele>
        <time>2024-05-12T06:56:16Z</time>
      </trkpt>
      <trkpt lat="42.86071" lon="1.21709">
        <ele>706.4</ele>
        <time>2024-05-12T06:56:17Z</time>
      </trkpt>
      <trkpt lat="42.86069" lon="1.21711">
        <ele>706.8</ele>
        <time>2024-05-12T06:56:18Z</time>
      </trkpt>
      <trkpt lat="42.86055" lon="1.21724">
        <ele>706.8</ele>
        <time>2024-05-12T06:56:24Z</time>
      </trkpt>
      <trkpt lat="42.86044" lon="1.21744">
        <ele>707.2</ele>
        <time>2024-05-12T06:56:30Z</time>
      </trkpt>
      <trkpt lat="42.86043" lon="1.21748">
        <ele>707.6</ele>
        <time>2024-05-12T06:56:31Z</time>
      </trkpt>
      <trkpt lat="42.86042" lon="1.21752">
        <ele>708</ele>
        <time>2024-05-12T06:56:32Z</time>
      </trkpt>
      <trkpt lat="42.86041" lon="1.21757">
        <ele>708.4</ele>
        <time>2024-05-12T06:56:33Z</time>
      </trkpt>
      <trkpt lat="42.86041" lon="1.21762">
        <ele>708.8</ele>
        <time>2024-05-12T06:56:34Z</time>
      </trkpt>
      <trkpt lat="42.8604" lon="1.21774">
        <ele>708.8</ele>
        <time>2024-05-12T06:56:36Z</time>
      </trkpt>
      <trkpt lat="42.86038" lon="1.2178">
        <ele>708.8</ele>
        <time>2024-05-12T06:56:37Z</time>
      </trkpt>
      <trkpt lat="42.8603" lon="1.21797">
        <ele>708.8</ele>
        <time>2024-05-12T06:56:40Z</time>
      </trkpt>
      <trkpt lat="42.86024" lon="1.21807">
        <ele>708.8</ele>
        <time>2024-05-12T06:56:42Z</time>
      </trkpt>
      <trkpt lat="42.8602" lon="1.21811">
        <ele>708.8</ele>
        <time>2024-05-12T06:56:43Z</time>
      </trkpt>
      <trkpt lat="42.86012" lon="1.21819">
        <ele>708.8</ele>
        <time>2024-05-12T06:56:45Z</time>
      </trkpt>
      <trkpt lat="42.86008" lon="1.21822">
        <ele>708.8</ele>
        <time>2024-05-12T06:56:46Z</time>
      </trkpt>
      <trkpt lat="42.85995" lon="1.21829">
        <ele>708.8</ele>
        <time>2024-05-12T06:56:49Z</time>
      </trkpt>
      <trkpt lat="42.85983" lon="1.21834">
        <ele>708.8</ele>
        <time>2024-05-12T06:56:52Z</time>
      </trkpt>
      <trkpt lat="42.85969" lon="1.21841">
        <ele>708.8</ele>
        <time>2024-05-12T06:56:55Z</time>
      </trkpt>
      <trkpt lat="42.85958" lon="1.21851">
        <ele>708.8</ele>
        <time>2024-05-12T06:56:58Z</time>
      </trkpt>
      <trkpt lat="42.85939" lon="1.21876">
        <ele>708.8</ele>
        <time>2024-05-12T06:57:04Z</time>
      </trkpt>
      <trkpt lat="42.85922" lon="1.21895">
        <ele>708.8</ele>
        <time>2024-05-12T06:57:10Z</time>
      </trkpt>
      <trkpt lat="42.85905" lon="1.21904">
        <ele>708.8</ele>
        <time>2024-05-12T06:57:16Z</time>
      </trkpt>
      <trkpt lat="42.85896" lon="1.21911">
        <ele>708.8</ele>
        <time>2024-05-12T06:57:21Z</time>
      </trkpt>
      <trkpt lat="42.85882" lon="1.21925">
        <ele>708.8</ele>
        <time>2024-05-12T06:57:27Z</time>
      </trkpt>
      <trkpt lat="42.85867" lon="1.21941">
        <ele>708.8</ele>
        <time>2024-05-12T06:57:34Z</time>
      </trkpt>
      <trkpt lat="42.85853" lon="1.21957">
        <ele>708.8</ele>
        <time>2024-05-12T06:57:41Z</time>
      </trkpt>
      <trkpt lat="42.85849" lon="1.21963">
        <ele>709.2</ele>
        <time>2024-05-12T06:57:43Z</time>
      </trkpt>
      <trkpt lat="42.85846" lon="1.21966">
        <ele>709.6</ele>
        <time>2024-05-12T06:57:44Z</time>
      </trkpt>
      <trkpt lat="42.85845" lon="1.21968">
        <ele>710</ele>
        <time>2024-05-12T06:57:45Z</time>
      </trkpt>
      <trkpt lat="42.85841" lon="1.2197">
        <ele>710.4</ele>
        <time>2024-05-12T06:57:46Z</time>
      </trkpt>
      <trkpt lat="42.85839" lon="1.21972">
        <ele>710.8</ele>
        <time>2024-05-12T06:57:47Z</time>
      </trkpt>
      <trkpt lat="42.85825" lon="1.21985">
        <ele>710.8</ele>
        <time>2024-05-12T06:57:54Z</time>
      </trkpt>
      <trkpt lat="42.85815" lon="1.2199">
        <ele>711.2</ele>
        <time>2024-05-12T06:57:59Z</time>
      </trkpt>
      <trkpt lat="42.85812" lon="1.21991">
        <ele>712.2</ele>
        <time>2024-05-12T06:58:00Z</time>
      </trkpt>
      <trkpt lat="42.85809" lon="1.21992">
        <ele>712.6</ele>
        <time>2024-05-12T06:58:01Z</time>
      </trkpt>
      <trkpt lat="42.85807" lon="1.21992">
        <ele>713</ele>
        <time>2024-05-12T06:58:02Z</time>
      </trkpt>
      <trkpt lat="42.85785" lon="1.21991">
        <ele>713</ele>
        <time>2024-05-12T06:58:10Z</time>
      </trkpt>
      <trkpt lat="42.8578" lon="1.21992">
        <ele>713.4</ele>
        <time>2024-05-12T06:58:12Z</time>
      </trkpt>
      <trkpt lat="42.85778" lon="1.21992">
        <ele>713.8</ele>
        <time>2024-05-12T06:58:13Z</time>
      </trkpt>
      <trkpt lat="42.85776" lon="1.21992">
        <ele>714.2</ele>
        <time>2024-05-12T06:58:14Z</time>
      </trkpt>
      <trkpt lat="42.85773" lon="1.21993">
        <ele>714.6</ele>
        <time>2024-05-12T06:58:15Z</time>
      </trkpt>
      <trkpt lat="42.85771" lon="1.21993">
        <ele>715</ele>
        <time>2024-05-12T06:58:16Z</time>
      </trkpt>
      <trkpt lat="42.85767" lon="1.21994">
        <ele>715</ele>
        <time>2024-05-12T06:58:18Z</time>
      </trkpt>
      <trkpt lat="42.85765" lon="1.21993">
        <ele>715</ele>
        <time>2024-05-12T06:58:19Z</time>
      </trkpt>
      <trkpt lat="42.8576" lon="1.21994">
        <ele>715</ele>
        <time>2024-05-12T06:58:22Z</time>
      </trkpt>
      <trkpt lat="42.85756" lon="1.21996">
        <ele>715.6</ele>
        <time>2024-05-12T06:58:25Z</time>
      </trkpt>
      <trkpt lat="42.85755" lon="1.21996">
        <ele>716</ele>
        <time>2024-05-12T06:58:26Z</time>
      </trkpt>
      <trkpt lat="42.85754" lon="1.21996">
        <ele>716.4</ele>
        <time>2024-05-12T06:58:27Z</time>
      </trkpt>
      <trkpt lat="42.85753" lon="1.21997">
        <ele>716.8</ele>
        <time>2024-05-12T06:58:28Z</time>
      </trkpt>
      <trkpt lat="42.8575" lon="1.21998">
        <ele>717.2</ele>
        <time>2024-05-12T06:58:29Z</time>
      </trkpt>
      <trkpt lat="42.8574" lon="1.22">
        <ele>717.2</ele>
        <time>2024-05-12T06:58:34Z</time>
      </trkpt>
      <trkpt lat="42.85729" lon="1.22004">
        <ele>717.6</ele>
        <time>2024-05-12T06:58:39Z</time>
      </trkpt>
      <trkpt lat="42.85727" lon="1.22005">
        <ele>718</ele>
        <time>2024-05-12T06:58:40Z</time>
      </trkpt>
      <trkpt lat="42.85724" lon="1.22006">
        <ele>718.6</ele>
        <time>2024-05-12T06:58:41Z</time>
      </trkpt>
      <trkpt lat="42.85722" lon="1.22007">
        <ele>719</ele>
        <time>2024-05-12T06:58:42Z</time>
      </trkpt>
      <trkpt lat="42.8572" lon="1.22007">
        <ele>719.4</ele>
        <time>2024-05-12T06:58:43Z</time>
      </trkpt>
      <trkpt lat="42.85718" lon="1.22008">
        <ele>719.4</ele>
        <time>2024-05-12T06:58:44Z</time>
      </trkpt>
      <trkpt lat="42.8571" lon="1.22012">
        <ele>719.8</ele>
        <time>2024-05-12T06:58:48Z</time>
      </trkpt>
      <trkpt lat="42.85708" lon="1.22012">
        <ele>720.2</ele>
        <time>2024-05-12T06:58:49Z</time>
      </trkpt>
      <trkpt lat="42.85706" lon="1.22013">
        <ele>721</ele>
        <time>2024-05-12T06:58:50Z</time>
      </trkpt>
      <trkpt lat="42.85704" lon="1.22013">
        <ele>721.4</ele>
        <time>2024-05-12T06:58:51Z</time>
      </trkpt>
      <trkpt lat="42.85689" lon="1.22017">
        <ele>721.8</ele>
        <time>2024-05-12T06:58:58Z</time>
      </trkpt>
      <trkpt lat="42.85687" lon="1.22015">
        <ele>722.2</ele>
        <time>2024-05-12T06:58:59Z</time>
      </trkpt>
      <trkpt lat="42.85687" lon="1.22012">
        <ele>722.8</ele>
        <time>2024-05-12T06:59:00Z</time>
      </trkpt>
      <trkpt lat="42.85687" lon="1.2201">
        <ele>723.2</ele>
        <time>2024-05-12T06:59:01Z</time>
      </trkpt>
      <trkpt lat="42.85688" lon="1.22007">
        <ele>723.6</ele>
        <time>2024-05-12T06:59:02Z</time>
      </trkpt>
      <trkpt lat="42.85696" lon="1.21997">
        <ele>724</ele>
        <time>2024-05-12T06:59:07Z</time>
      </trkpt>
      <trkpt lat="42.85698" lon="1.21995">
        <ele>724.4</ele>
        <time>2024-05-12T06:59:08Z</time>
      </trkpt>
      <trkpt lat="42.857" lon="1.21994">
        <ele>724.8</ele>
        <time>2024-05-12T06:59:09Z</time>
      </trkpt>
      <trkpt lat="42.85701" lon="1.21992">
        <ele>725.2</ele>
        <time>2024-05-12T06:59:10Z</time>
      </trkpt>
      <trkpt lat="42.85703" lon="1.2199">
        <ele>725.6</ele>
        <time>2024-05-12T06:59:11Z</time>
      </trkpt>
      <trkpt lat="42.85705" lon="1.21983">
        <ele>726</ele>
        <time>2024-05-12T06:59:14Z</time>
      </trkpt>
      <trkpt lat="42.85705" lon="1.2198">
        <ele>726.4</ele>
        <time>2024-05-12T06:59:15Z</time>
      </trkpt>
      <trkpt lat="42.85706" lon="1.21978">
        <ele>726.8</ele>
        <time>2024-05-12T06:59:16Z</time>
      </trkpt>
      <trkpt lat="42.85706" lon="1.21976">
        <ele>727.2</ele>
        <time>2024-05-12T06:59:17Z</time>
      </trkpt>
      <trkpt lat="42.85707" lon="1.21973">
        <ele>727.8</ele>
        <time>2024-05-12T06:59:18Z</time>
      </trkpt>
      <trkpt lat="42.85706" lon="1.21965">
        <ele>727.8</ele>
        <time>2024-05-12T06:59:21Z</time>
      </trkpt>
      <trkpt lat="42.85704" lon="1.21959">
        <ele>728.2</ele>
        <time>2024-05-12T06:59:23Z</time>
      </trkpt>
      <trkpt lat="42.85703" lon="1.21956">
        <ele>728.6</ele>
        <time>2024-05-12T06:59:24Z</time>
      </trkpt>
      <trkpt lat="42.85702" lon="1.21953">
        <ele>729</ele>
        <time>2024-05-12T06:59:25Z</time>
      </trkpt>
      <trkpt lat="42.857" lon="1.21951">
        <ele>729.4</ele>
        <time>2024-05-12T06:59:26Z</time>
      </trkpt>
      <trkpt lat="42.85699" lon="1.21949">
        <ele>729.8</ele>
        <time>2024-05-12T06:59:27Z</time>
      </trkpt>
      <trkpt lat="42.85697" lon="1.21947">
        <ele>729.8</ele>
        <time>2024-05-12T06:59:28Z</time>
      </trkpt>
      <trkpt lat="42.85686" lon="1.21935">
        <ele>730.2</ele>
        <time>2024-05-12T06:59:34Z</time>
      </trkpt>
      <trkpt lat="42.85685" lon="1.21934">
        <ele>730.6</ele>
        <time>2024-05-12T06:59:35Z</time>
      </trkpt>
      <trkpt lat="42.85683" lon="1.21933">
        <ele>731</ele>
        <time>2024-05-12T06:59:36Z</time>
      </trkpt>
      <trkpt lat="42.85681" lon="1.21932">
        <ele>731.4</ele>
        <time>2024-05-12T06:59:37Z</time>
      </trkpt>
      <trkpt lat="42.85679" lon="1.21931">
        <ele>731.8</ele>
        <time>2024-05-12T06:59:38Z</time>
      </trkpt>
      <trkpt lat="42.85674" lon="1.2193">
        <ele>731.8</ele>
        <time>2024-05-12T06:59:41Z</time>
      </trkpt>
      <trkpt lat="42.85672" lon="1.2193">
        <ele>732.2</ele>
        <time>2024-05-12T06:59:42Z</time>
      </trkpt>
      <trkpt lat="42.8567" lon="1.2193">
        <ele>732.8</ele>
        <time>2024-05-12T06:59:43Z</time>
      </trkpt>
      <trkpt lat="42.85668" lon="1.2193">
        <ele>733.2</ele>
        <time>2024-05-12T06:59:44Z</time>
      </trkpt>
      <trkpt lat="42.85666" lon="1.2193">
        <ele>733.6</ele>
        <time>2024-05-12T06:59:45Z</time>
      </trkpt>
      <trkpt lat="42.85664" lon="1.21931">
        <ele>734</ele>
        <time>2024-05-12T06:59:46Z</time>
      </trkpt>
      <trkpt lat="42.85662" lon="1.21931">
        <ele>734</ele>
        <time>2024-05-12T06:59:47Z</time>
      </trkpt>
      <trkpt lat="42.85648" lon="1.21939">
        <ele>734.4</ele>
        <time>2024-05-12T06:59:54Z</time>
      </trkpt>
      <trkpt lat="42.85646" lon="1.2194">
        <ele>735</ele>
        <time>2024-05-12T06:59:55Z</time>
      </trkpt>
      <trkpt lat="42.85644" lon="1.21942">
        <ele>735.4</ele>
        <time>2024-05-12T06:59:56Z</time>
      </trkpt>
      <trkpt lat="42.85642" lon="1.21943">
        <ele>735.8</ele>
        <time>2024-05-12T06:59:57Z</time>
      </trkpt>
      <trkpt lat="42.85641" lon="1.21944">
        <ele>736.2</ele>
        <time>2024-05-12T06:59:58Z</time>
      </trkpt>
      <trkpt lat="42.85635" lon="1.21949">
        <ele>736.2</ele>
        <time>2024-05-12T07:00:01Z</time>
      </trkpt>
      <trkpt lat="42.8563" lon="1.21954">
        <ele>736.6</ele>
        <time>2024-05-12T07:00:04Z</time>
      </trkpt>
      <trkpt lat="42.85628" lon="1.21956">
        <ele>737</ele>
        <time>2024-05-12T07:00:05Z</time>
      </trkpt>
      <trkpt lat="42.85626" lon="1.21959">
        <ele>737.6</ele>
        <time>2024-05-12T07:00:06Z</time>
      </trkpt>
      <trkpt lat="42.85625" lon="1.21961">
        <ele>738</ele>
        <time>2024-05-12T07:00:07Z</time>
      </trkpt>
      <trkpt lat="42.85623" lon="1.21964">
        <ele>738.4</ele>
        <time>2024-05-12T07:00:08Z</time>
      </trkpt>
      <trkpt lat="42.8561" lon="1.21979">
        <ele>738.8</ele>
        <time>2024-05-12T07:00:15Z</time>
      </trkpt>
      <trkpt lat="42.85609" lon="1.21982">
        <ele>739.2</ele>
        <time>2024-05-12T07:00:16Z</time>
      </trkpt>
      <trkpt lat="42.85607" lon="1.21984">
        <ele>739.6</ele>
        <time>2024-05-12T07:00:17Z</time>
      </trkpt>
      <trkpt lat="42.85606" lon="1.21986">
        <ele>740</ele>
        <time>2024-05-12T07:00:18Z</time>
      </trkpt>
      <trkpt lat="42.85605" lon="1.21989">
        <ele>740.4</ele>
        <time>2024-05-12T07:00:19Z</time>
      </trkpt>
      <trkpt lat="42.85595" lon="1.22002">
        <ele>740.4</ele>
        <time>2024-05-12T07:00:25Z</time>
      </trkpt>
      <trkpt lat="42.85594" lon="1.22003">
        <ele>740.8</ele>
        <time>2024-05-12T07:00:26Z</time>
      </trkpt>
      <trkpt lat="42.85592" lon="1.22005">
        <ele>741.2</ele>
        <time>2024-05-12T07:00:27Z</time>
      </trkpt>
      <trkpt lat="42.8559" lon="1.22007">
        <ele>742.2</ele>
        <time>2024-05-12T07:00:28Z</time>
      </trkpt>
      <trkpt lat="42.85588" lon="1.22008">
        <ele>742.6</ele>
        <time>2024-05-12T07:00:29Z</time>
      </trkpt>
      <trkpt lat="42.8558" lon="1.22012">
        <ele>742.6</ele>
        <time>2024-05-12T07:00:33Z</time>
      </trkpt>
      <trkpt lat="42.85578" lon="1.22013">
        <ele>743</ele>
        <time>2024-05-12T07:00:34Z</time>
      </trkpt>
      <trkpt lat="42.85576" lon="1.22013">
        <ele>743.4</ele>
        <time>2024-05-12T07:00:35Z</time>
      </trkpt>
      <trkpt lat="42.85573" lon="1.22013">
        <ele>743.8</ele>
        <time>2024-05-12T07:00:36Z</time>
      </trkpt>
      <trkpt lat="42.85571" lon="1.22012">
        <ele>744.2</ele>
        <time>2024-05-12T07:00:37Z</time>
      </trkpt>
      <trkpt lat="42.85569" lon="1.22012">
        <ele>744.6</ele>
        <time>2024-05-12T07:00:38Z</time>
      </trkpt>
      <trkpt lat="42.85566" lon="1.22011">
        <ele>744.6</ele>
        <time>2024-05-12T07:00:40Z</time>
      </trkpt>
      <trkpt lat="42.85562" lon="1.2201">
        <ele>745</ele>
        <time>2024-05-12T07:00:42Z</time>
      </trkpt>
      <trkpt lat="42.8556" lon="1.22009">
        <ele>745.4</ele>
        <time>2024-05-12T07:00:43Z</time>
      </trkpt>
      <trkpt lat="42.85558" lon="1.22009">
        <ele>746</ele>
        <time>2024-05-12T07:00:44Z</time>
      </trkpt>
      <trkpt lat="42.85556" lon="1.22008">
        <ele>746.4</ele>
        <time>2024-05-12T07:00:45Z</time>
      </trkpt>
      <trkpt lat="42.85555" lon="1.22008">
        <ele>746.8</ele>
        <time>2024-05-12T07:00:46Z</time>
      </trkpt>
      <trkpt lat="42.85547" lon="1.22006">
        <ele>747.2</ele>
        <time>2024-05-12T07:00:50Z</time>
      </trkpt>
      <trkpt lat="42.85545" lon="1.22005">
        <ele>747.6</ele>
        <time>2024-05-12T07:00:51Z</time>
      </trkpt>
      <trkpt lat="42.85543" lon="1.22005">
        <ele>748</ele>
        <time>2024-05-12T07:00:52Z</time>
      </trkpt>
      <trkpt lat="42.85541" lon="1.22005">
        <ele>748.8</ele>
        <time>2024-05-12T07:00:53Z</time>
      </trkpt>
      <trkpt lat="42.85534" lon="1.22002">
        <ele>749.2</ele>
        <time>2024-05-12T07:00:57Z</time>
      </trkpt>
      <trkpt lat="42.85532" lon="1.22002">
        <ele>749.6</ele>
        <time>2024-05-12T07:00:58Z</time>
      </trkpt>
      <trkpt lat="42.8553" lon="1.22001">
        <ele>750</ele>
        <time>2024-05-12T07:00:59Z</time>
      </trkpt>
      <trkpt lat="42.85529" lon="1.22">
        <ele>750.4</ele>
        <time>2024-05-12T07:01:00Z</time>
      </trkpt>
      <trkpt lat="42.85527" lon="1.22">
        <ele>750.8</ele>
        <time>2024-05-12T07:01:01Z</time>
      </trkpt>
      <trkpt lat="42.8552" lon="1.21997">
        <ele>751.4</ele>
        <time>2024-05-12T07:01:05Z</time>
      </trkpt>
      <trkpt lat="42.85519" lon="1.21996">
        <ele>751.8</ele>
        <time>2024-05-12T07:01:06Z</time>
      </trkpt>
      <trkpt lat="42.85517" lon="1.21995">
        <ele>752.2</ele>
        <time>2024-05-12T07:01:07Z</time>
      </trkpt>
      <trkpt lat="42.85515" lon="1.21993">
        <ele>752.6</ele>
        <time>2024-05-12T07:01:08Z</time>
      </trkpt>
      <trkpt lat="42.85514" lon="1.21992">
        <ele>753.2</ele>
        <time>2024-05-12T07:01:09Z</time>
      </trkpt>
      <trkpt lat="42.85507" lon="1.21988">
        <ele>753.6</ele>
        <time>2024-05-12T07:01:13Z</time>
      </trkpt>
      <trkpt lat="42.85505" lon="1.21987">
        <ele>754</ele>
        <time>2024-05-12T07:01:14Z</time>
      </trkpt>
      <trkpt lat="42.85503" lon="1.21987">
        <ele>754.4</ele>
        <time>2024-05-12T07:01:15Z</time>
      </trkpt>
      <trkpt lat="42.85502" lon="1.21986">
        <ele>754.8</ele>
        <time>2024-05-12T07:01:16Z</time>
      </trkpt>
      <trkpt lat="42.855" lon="1.21987">
        <ele>755.2</ele>
        <time>2024-05-12T07:01:17Z</time>
      </trkpt>
      <trkpt lat="42.85497" lon="1.21988">
        <ele>755.6</ele>
        <time>2024-05-12T07:01:19Z</time>
      </trkpt>
      <trkpt lat="42.85496" lon="1.21988">
        <ele>756.2</ele>
        <time>2024-05-12T07:01:20Z</time>
      </trkpt>
      <trkpt lat="42.85496" lon="1.21988">
        <ele>756.6</ele>
        <time>2024-05-12T07:01:21Z</time>
      </trkpt>
      <trkpt lat="42.85495" lon="1.21989">
        <ele>757</ele>
        <time>2024-05-12T07:01:22Z</time>
      </trkpt>
      <trkpt lat="42.85495" lon="1.21989">
        <ele>757.4</ele>
        <time>2024-05-12T07:01:23Z</time>
      </trkpt>
      <trkpt lat="42.85495" lon="1.2199">
        <ele>757.4</ele>
        <time>2024-05-12T07:01:24Z</time>
      </trkpt>
      <trkpt lat="42.85483" lon="1.21984">
        <ele>759.6</ele>
        <time>2024-05-12T07:02:46Z</time>
      </trkpt>
      <trkpt lat="42.85474" lon="1.2198">
        <ele>759.6</ele>
        <time>2024-05-12T07:02:51Z</time>
      </trkpt>
      <trkpt lat="42.85469" lon="1.21978">
        <ele>759.6</ele>
        <time>2024-05-12T07:02:54Z</time>
      </trkpt>
      <trkpt lat="42.85466" lon="1.21977">
        <ele>759.6</ele>
        <time>2024-05-12T07:02:56Z</time>
      </trkpt>
      <trkpt lat="42.85463" lon="1.21975">
        <ele>759.6</ele>
        <time>2024-05-12T07:02:58Z</time>
      </trkpt>
      <trkpt lat="42.85454" lon="1.21972">
        <ele>759.6</ele>
        <time>2024-05-12T07:03:03Z</time>
      </trkpt>
      <trkpt lat="42.85453" lon="1.21972">
        <ele>760</ele>
        <time>2024-05-12T07:03:04Z</time>
      </trkpt>
      <trkpt lat="42.85451" lon="1.21972">
        <ele>760.4</ele>
        <time>2024-05-12T07:03:05Z</time>
      </trkpt>
      <trkpt lat="42.85449" lon="1.21971">
        <ele>760.8</ele>
        <time>2024-05-12T07:03:06Z</time>
      </trkpt>
      <trkpt lat="42.85447" lon="1.2197">
        <ele>761.4</ele>
        <time>2024-05-12T07:03:07Z</time>
      </trkpt>
      <trkpt lat="42.85445" lon="1.21969">
        <ele>761.8</ele>
        <time>2024-05-12T07:03:08Z</time>
      </trkpt>
      <trkpt lat="42.85443" lon="1.21968">
        <ele>761.8</ele>
        <time>2024-05-12T07:03:09Z</time>
      </trkpt>
      <trkpt lat="42.8543" lon="1.21965">
        <ele>762.2</ele>
        <time>2024-05-12T07:03:14Z</time>
      </trkpt>
      <trkpt lat="42.85428" lon="1.21965">
        <ele>762.6</ele>
        <time>2024-05-12T07:03:15Z</time>
      </trkpt>
      <trkpt lat="42.85426" lon="1.21964">
        <ele>763</ele>
        <time>2024-05-12T07:03:16Z</time>
      </trkpt>
      <trkpt lat="42.85424" lon="1.21963">
        <ele>763.4</ele>
        <time>2024-05-12T07:03:17Z</time>
      </trkpt>
      <trkpt lat="42.85422" lon="1.21963">
        <ele>763.8</ele>
        <time>2024-05-12T07:03:18Z</time>
      </trkpt>
      <trkpt lat="42.85419" lon="1.21961">
        <ele>763.8</ele>
        <time>2024-05-12T07:03:20Z</time>
      </trkpt>
      <trkpt lat="42.85417" lon="1.2196">
        <ele>763.8</ele>
        <time>2024-05-12T07:03:21Z</time>
      </trkpt>
      <trkpt lat="42.85415" lon="1.21959">
        <ele>764.2</ele>
        <time>2024-05-12T07:03:22Z</time>
      </trkpt>
      <trkpt lat="42.85414" lon="1.21959">
        <ele>764.6</ele>
        <time>2024-05-12T07:03:23Z</time>
      </trkpt>
      <trkpt lat="42.85412" lon="1.21958">
        <ele>765</ele>
        <time>2024-05-12T07:03:24Z</time>
      </trkpt>
      <trkpt lat="42.85411" lon="1.21958">
        <ele>765.4</ele>
        <time>2024-05-12T07:03:25Z</time>
      </trkpt>
      <trkpt lat="42.85409" lon="1.21957">
        <ele>765.8</ele>
        <time>2024-05-12T07:03:26Z</time>
      </trkpt>
      <trkpt lat="42.85407" lon="1.21956">
        <ele>765.8</ele>
        <time>2024-05-12T07:03:27Z</time>
      </trkpt>
      <trkpt lat="42.85402" lon="1.21954">
        <ele>766.2</ele>
        <time>2024-05-12T07:03:31Z</time>
      </trkpt>
      <trkpt lat="42.85401" lon="1.21954">
        <ele>766.8</ele>
        <time>2024-05-12T07:03:32Z</time>
      </trkpt>
      <trkpt lat="42.854" lon="1.21953">
        <ele>767.2</ele>
        <time>2024-05-12T07:03:33Z</time>
      </trkpt>
      <trkpt lat="42.85398" lon="1.21952">
        <ele>767.6</ele>
        <time>2024-05-12T07:03:34Z</time>
      </trkpt>
      <trkpt lat="42.85397" lon="1.21951">
        <ele>768</ele>
        <time>2024-05-12T07:03:35Z</time>
      </trkpt>
      <trkpt lat="42.85393" lon="1.2195">
        <ele>768</ele>
        <time>2024-05-12T07:03:37Z</time>
      </trkpt>
      <trkpt lat="42.85388" lon="1.21944">
        <ele>768.4</ele>
        <time>2024-05-12T07:03:41Z</time>
      </trkpt>
      <trkpt lat="42.85386" lon="1.21943">
        <ele>768.8</ele>
        <time>2024-05-12T07:03:42Z</time>
      </trkpt>
      <trkpt lat="42.85385" lon="1.21942">
        <ele>769.2</ele>
        <time>2024-05-12T07:03:43Z</time>
      </trkpt>
      <trkpt lat="42.85385" lon="1.2194">
        <ele>769.6</ele>
        <time>2024-05-12T07:03:44Z</time>
      </trkpt>
      <trkpt lat="42.85384" lon="1.21938">
        <ele>770</ele>
        <time>2024-05-12T07:03:45Z</time>
      </trkpt>
      <trkpt lat="42.85384" lon="1.21936">
        <ele>770.4</ele>
        <time>2024-05-12T07:03:46Z</time>
      </trkpt>
      <trkpt lat="42.85384" lon="1.21935">
        <ele>770.8</ele>
        <time>2024-05-12T07:03:47Z</time>
      </trkpt>
      <trkpt lat="42.85383" lon="1.21933">
        <ele>771.2</ele>
        <time>2024-05-12T07:03:48Z</time>
      </trkpt>
      <trkpt lat="42.85382" lon="1.21931">
        <ele>771.6</ele>
        <time>2024-05-12T07:03:49Z</time>
      </trkpt>
      <trkpt lat="42.85381" lon="1.21929">
        <ele>772.2</ele>
        <time>2024-05-12T07:03:50Z</time>
      </trkpt>
      <trkpt lat="42.8538" lon="1.21927">
        <ele>772.6</ele>
        <time>2024-05-12T07:03:51Z</time>
      </trkpt>
      <trkpt lat="42.85379" lon="1.21925">
        <ele>773</ele>
        <time>2024-05-12T07:03:52Z</time>
      </trkpt>
      <trkpt lat="42.85378" lon="1.21924">
        <ele>773.4</ele>
        <time>2024-05-12T07:03:53Z</time>
      </trkpt>
      <trkpt lat="42.85377" lon="1.21922">
        <ele>773.8</ele>
        <time>2024-05-12T07:03:54Z</time>
      </trkpt>
      <trkpt lat="42.85375" lon="1.2192">
        <ele>774.2</ele>
        <time>2024-05-12T07:03:55Z</time>
      </trkpt>
      <trkpt lat="42.85373" lon="1.21915">
        <ele>774.6</ele>
        <time>2024-05-12T07:03:57Z</time>
      </trkpt>
      <trkpt lat="42.85371" lon="1.21912">
        <ele>775.2</ele>
        <time>2024-05-12T07:03:58Z</time>
      </trkpt>
      <trkpt lat="42.8537" lon="1.2191">
        <ele>775.6</ele>
        <time>2024-05-12T07:03:59Z</time>
      </trkpt>
      <trkpt lat="42.85369" lon="1.21908">
        <ele>776</ele>
        <time>2024-05-12T07:04:00Z</time>
      </trkpt>
      <trkpt lat="42.85368" lon="1.21906">
        <ele>776.6</ele>
        <time>2024-05-12T07:04:01Z</time>
      </trkpt>
      <trkpt lat="42.85367" lon="1.21904">
        <ele>777</ele>
        <time>2024-05-12T07:04:02Z</time>
      </trkpt>
      <trkpt lat="42.85365" lon="1.21902">
        <ele>777.6</ele>
        <time>2024-05-12T07:04:03Z</time>
      </trkpt>
      <trkpt lat="42.85365" lon="1.219">
        <ele>778</ele>
        <time>2024-05-12T07:04:04Z</time>
      </trkpt>
      <trkpt lat="42.85364" lon="1.21898">
        <ele>778.6</ele>
        <time>2024-05-12T07:04:05Z</time>
      </trkpt>
      <trkpt lat="42.85363" lon="1.21896">
        <ele>779.2</ele>
        <time>2024-05-12T07:04:06Z</time>
      </trkpt>
      <trkpt lat="42.85361" lon="1.21895">
        <ele>779.8</ele>
        <time>2024-05-12T07:04:07Z</time>
      </trkpt>
      <trkpt lat="42.8536" lon="1.21893">
        <ele>780.4</ele>
        <time>2024-05-12T07:04:08Z</time>
      </trkpt>
      <trkpt lat="42.85359" lon="1.21891">
        <ele>781</ele>
        <time>2024-05-12T07:04:09Z</time>
      </trkpt>
      <trkpt lat="42.85358" lon="1.21888">
        <ele>781.4</ele>
        <time>2024-05-12T07:04:10Z</time>
      </trkpt>
      <trkpt lat="42.85357" lon="1.21886">
        <ele>782.6</ele>
        <time>2024-05-12T07:04:11Z</time>
      </trkpt>
      <trkpt lat="42.85357" lon="1.21884">
        <ele>783.2</ele>
        <time>2024-05-12T07:04:12Z</time>
      </trkpt>
      <trkpt lat="42.85356" lon="1.21882">
        <ele>783.6</ele>
        <time>2024-05-12T07:04:13Z</time>
      </trkpt>
      <trkpt lat="42.85356" lon="1.2188">
        <ele>784</ele>
        <time>2024-05-12T07:04:14Z</time>
      </trkpt>
      <trkpt lat="42.85354" lon="1.21878">
        <ele>784.4</ele>
        <time>2024-05-12T07:04:15Z</time>
      </trkpt>
      <trkpt lat="42.85353" lon="1.21876">
        <ele>784.8</ele>
        <time>2024-05-12T07:04:16Z</time>
      </trkpt>
      <trkpt lat="42.85352" lon="1.21874">
        <ele>785.2</ele>
        <time>2024-05-12T07:04:17Z</time>
      </trkpt>
      <trkpt lat="42.85351" lon="1.21872">
        <ele>785.6</ele>
        <time>2024-05-12T07:04:18Z</time>
      </trkpt>
      <trkpt lat="42.85351" lon="1.21871">
        <ele>786.2</ele>
        <time>2024-05-12T07:04:19Z</time>
      </trkpt>
      <trkpt lat="42.85351" lon="1.21869">
        <ele>786.6</ele>
        <time>2024-05-12T07:04:20Z</time>
      </trkpt>
      <trkpt lat="42.8535" lon="1.21867">
        <ele>787</ele>
        <time>2024-05-12T07:04:21Z</time>
      </trkpt>
      <trkpt lat="42.8535" lon="1.21865">
        <ele>787.4</ele>
        <time>2024-05-12T07:04:22Z</time>
      </trkpt>
      <trkpt lat="42.85348" lon="1.21861">
        <ele>788</ele>
        <time>2024-05-12T07:04:24Z</time>
      </trkpt>
      <trkpt lat="42.85348" lon="1.2186">
        <ele>788.4</ele>
        <time>2024-05-12T07:04:25Z</time>
      </trkpt>
      <trkpt lat="42.85347" lon="1.21858">
        <ele>788.8</ele>
        <time>2024-05-12T07:04:26Z</time>
      </trkpt>
      <trkpt lat="42.85347" lon="1.21856">
        <ele>789.4</ele>
        <time>2024-05-12T07:04:27Z</time>
      </trkpt>
      <trkpt lat="42.85346" lon="1.21854">
        <ele>789.8</ele>
        <time>2024-05-12T07:04:28Z</time>
      </trkpt>
      <trkpt lat="42.85344" lon="1.21851">
        <ele>790.2</ele>
        <time>2024-05-12T07:04:30Z</time>
      </trkpt>
      <trkpt lat="42.85343" lon="1.21849">
        <ele>790.8</ele>
        <time>2024-05-12T07:04:31Z</time>
      </trkpt>
      <trkpt lat="42.85342" lon="1.21847">
        <ele>791.2</ele>
        <time>2024-05-12T07:04:32Z</time>
      </trkpt>
      <trkpt lat="42.85342" lon="1.21845">
        <ele>791.6</ele>
        <time>2024-05-12T07:04:33Z</time>
      </trkpt>
      <trkpt lat="42.8534" lon="1.21844">
        <ele>792</ele>
        <time>2024-05-12T07:04:34Z</time>
      </trkpt>
      <trkpt lat="42.85338" lon="1.21842">
        <ele>792.6</ele>
        <time>2024-05-12T07:04:35Z</time>
      </trkpt>
      <trkpt lat="42.85337" lon="1.21841">
        <ele>793.4</ele>
        <time>2024-05-12T07:04:36Z</time>
      </trkpt>
      <trkpt lat="42.85336" lon="1.21839">
        <ele>793.8</ele>
        <time>2024-05-12T07:04:37Z</time>
      </trkpt>
      <trkpt lat="42.85335" lon="1.21838">
        <ele>794.2</ele>
        <time>2024-05-12T07:04:38Z</time>
      </trkpt>
      <trkpt lat="42.85333" lon="1.21835">
        <ele>794.6</ele>
        <time>2024-05-12T07:04:40Z</time>
      </trkpt>
      <trkpt lat="42.85331" lon="1.21834">
        <ele>795.2</ele>
        <time>2024-05-12T07:04:41Z</time>
      </trkpt>
      <trkpt lat="42.85329" lon="1.21833">
        <ele>795.6</ele>
        <time>2024-05-12T07:04:42Z</time>
      </trkpt>
      <trkpt lat="42.85329" lon="1.21832">
        <ele>796</ele>
        <time>2024-05-12T07:04:43Z</time>
      </trkpt>
      <trkpt lat="42.85328" lon="1.2183">
        <ele>796.4</ele>
        <time>2024-05-12T07:04:44Z</time>
      </trkpt>
      <trkpt lat="42.85326" lon="1.21826">
        <ele>796.4</ele>
        <time>2024-05-12T07:04:46Z</time>
      </trkpt>
      <trkpt lat="42.85325" lon="1.21824">
        <ele>796.8</ele>
        <time>2024-05-12T07:04:47Z</time>
      </trkpt>
      <trkpt lat="42.85323" lon="1.21821">
        <ele>797.2</ele>
        <time>2024-05-12T07:04:48Z</time>
      </trkpt>
      <trkpt lat="42.85322" lon="1.2182">
        <ele>797.6</ele>
        <time>2024-05-12T07:04:49Z</time>
      </trkpt>
      <trkpt lat="42.8532" lon="1.21818">
        <ele>798.2</ele>
        <time>2024-05-12T07:04:50Z</time>
      </trkpt>
      <trkpt lat="42.85318" lon="1.21815">
        <ele>798.6</ele>
        <time>2024-05-12T07:04:51Z</time>
      </trkpt>
      <trkpt lat="42.85316" lon="1.21812">
        <ele>798.6</ele>
        <time>2024-05-12T07:04:53Z</time>
      </trkpt>
      <trkpt lat="42.85314" lon="1.2181">
        <ele>799</ele>
        <time>2024-05-12T07:04:54Z</time>
      </trkpt>
      <trkpt lat="42.85312" lon="1.21808">
        <ele>799.4</ele>
        <time>2024-05-12T07:04:55Z</time>
      </trkpt>
      <trkpt lat="42.8531" lon="1.21806">
        <ele>799.8</ele>
        <time>2024-05-12T07:04:56Z</time>
      </trkpt>
      <trkpt lat="42.85307" lon="1.21805">
        <ele>800.2</ele>
        <time>2024-05-12T07:04:57Z</time>
      </trkpt>
      <trkpt lat="42.85305" lon="1.21804">
        <ele>800.6</ele>
        <time>2024-05-12T07:04:58Z</time>
      </trkpt>
      <trkpt lat="42.85297" lon="1.21799">
        <ele>801</ele>
        <time>2024-05-12T07:05:01Z</time>
      </trkpt>
      <trkpt lat="42.85294" lon="1.21798">
        <ele>801.4</ele>
        <time>2024-05-12T07:05:02Z</time>
      </trkpt>
      <trkpt lat="42.85291" lon="1.21797">
        <ele>801.8</ele>
        <time>2024-05-12T07:05:03Z</time>
      </trkpt>
      <trkpt lat="42.85288" lon="1.21795">
        <ele>802.2</ele>
        <time>2024-05-12T07:05:04Z</time>
      </trkpt>
      <trkpt lat="42.85285" lon="1.21793">
        <ele>802.8</ele>
        <time>2024-05-12T07:05:05Z</time>
      </trkpt>
      <trkpt lat="42.85281" lon="1.2179">
        <ele>802.8</ele>
        <time>2024-05-12T07:05:07Z</time>
      </trkpt>
      <trkpt lat="42.85279" lon="1.21788">
        <ele>803.2</ele>
        <time>2024-05-12T07:05:08Z</time>
      </trkpt>
      <trkpt lat="42.85278" lon="1.21787">
        <ele>803.6</ele>
        <time>2024-05-12T07:05:09Z</time>
      </trkpt>
      <trkpt lat="42.85277" lon="1.21785">
        <ele>804</ele>
        <time>2024-05-12T07:05:10Z</time>
      </trkpt>
      <trkpt lat="42.85276" lon="1.21784">
        <ele>804.4</ele>
        <time>2024-05-12T07:05:11Z</time>
      </trkpt>
      <trkpt lat="42.85274" lon="1.21782">
        <ele>804.8</ele>
        <time>2024-05-12T07:05:12Z</time>
      </trkpt>
      <trkpt lat="42.85266" lon="1.21776">
        <ele>805.2</ele>
        <time>2024-05-12T07:05:16Z</time>
      </trkpt>
      <trkpt lat="42.85264" lon="1.21773">
        <ele>805.6</ele>
        <time>2024-05-12T07:05:17Z</time>
      </trkpt>
      <trkpt lat="42.85261" lon="1.21771">
        <ele>806.2</ele>
        <time>2024-05-12T07:05:18Z</time>
      </trkpt>
      <trkpt lat="42.85259" lon="1.21769">
        <ele>806.6</ele>
        <time>2024-05-12T07:05:19Z</time>
      </trkpt>
      <trkpt lat="42.85256" lon="1.21768">
        <ele>807</ele>
        <time>2024-05-12T07:05:20Z</time>
      </trkpt>
      <trkpt lat="42.85252" lon="1.21764">
        <ele>807</ele>
        <time>2024-05-12T07:05:22Z</time>
      </trkpt>
      <trkpt lat="42.85245" lon="1.21759">
        <ele>807.4</ele>
        <time>2024-05-12T07:05:25Z</time>
      </trkpt>
      <trkpt lat="42.85243" lon="1.21758">
        <ele>807.8</ele>
        <time>2024-05-12T07:05:26Z</time>
      </trkpt>
      <trkpt lat="42.85241" lon="1.21756">
        <ele>808.2</ele>
        <time>2024-05-12T07:05:27Z</time>
      </trkpt>
      <trkpt lat="42.85239" lon="1.21755">
        <ele>808.6</ele>
        <time>2024-05-12T07:05:28Z</time>
      </trkpt>
      <trkpt lat="42.85237" lon="1.21753">
        <ele>809</ele>
        <time>2024-05-12T07:05:29Z</time>
      </trkpt>
      <trkpt lat="42.85231" lon="1.21749">
        <ele>809</ele>
        <time>2024-05-12T07:05:32Z</time>
      </trkpt>
      <trkpt lat="42.85224" lon="1.21744">
        <ele>809.4</ele>
        <time>2024-05-12T07:05:36Z</time>
      </trkpt>
      <trkpt lat="42.85223" lon="1.21743">
        <ele>810</ele>
        <time>2024-05-12T07:05:37Z</time>
      </trkpt>
      <trkpt lat="42.85222" lon="1.21742">
        <ele>810.4</ele>
        <time>2024-05-12T07:05:38Z</time>
      </trkpt>
      <trkpt lat="42.85221" lon="1.2174">
        <ele>810.8</ele>
        <time>2024-05-12T07:05:39Z</time>
      </trkpt>
      <trkpt lat="42.8522" lon="1.21737">
        <ele>811.4</ele>
        <time>2024-05-12T07:05:40Z</time>
      </trkpt>
      <trkpt lat="42.85219" lon="1.21732">
        <ele>811.4</ele>
        <time>2024-05-12T07:05:42Z</time>
      </trkpt>
      <trkpt lat="42.85215" lon="1.21726">
        <ele>811.8</ele>
        <time>2024-05-12T07:05:44Z</time>
      </trkpt>
      <trkpt lat="42.85213" lon="1.21722">
        <ele>812.2</ele>
        <time>2024-05-12T07:05:45Z</time>
      </trkpt>
      <trkpt lat="42.85211" lon="1.2172">
        <ele>812.6</ele>
        <time>2024-05-12T07:05:46Z</time>
      </trkpt>
      <trkpt lat="42.85209" lon="1.21718">
        <ele>813</ele>
        <time>2024-05-12T07:05:47Z</time>
      </trkpt>
      <trkpt lat="42.85207" lon="1.21716">
        <ele>813.4</ele>
        <time>2024-05-12T07:05:48Z</time>
      </trkpt>
      <trkpt lat="42.85205" lon="1.21711">
        <ele>813.8</ele>
        <time>2024-05-12T07:05:50Z</time>
      </trkpt>
      <trkpt lat="42.85203" lon="1.21708">
        <ele>814.2</ele>
        <time>2024-05-12T07:05:51Z</time>
      </trkpt>
      <trkpt lat="42.85202" lon="1.21704">
        <ele>814.6</ele>
        <time>2024-05-12T07:05:52Z</time>
      </trkpt>
      <trkpt lat="42.852" lon="1.21701">
        <ele>815</ele>
        <time>2024-05-12T07:05:53Z</time>
      </trkpt>
      <trkpt lat="42.85198" lon="1.21698">
        <ele>815.4</ele>
        <time>2024-05-12T07:05:54Z</time>
      </trkpt>
      <trkpt lat="42.85196" lon="1.21691">
        <ele>815.8</ele>
        <time>2024-05-12T07:05:56Z</time>
      </trkpt>
      <trkpt lat="42.85195" lon="1.21688">
        <ele>816.2</ele>
        <time>2024-05-12T07:05:57Z</time>
      </trkpt>
      <trkpt lat="42.85194" lon="1.21685">
        <ele>816.6</ele>
        <time>2024-05-12T07:05:58Z</time>
      </trkpt>
      <trkpt lat="42.85192" lon="1.21682">
        <ele>817</ele>
        <time>2024-05-12T07:05:59Z</time>
      </trkpt>
      <trkpt lat="42.85191" lon="1.2168">
        <ele>817.4</ele>
        <time>2024-05-12T07:06:00Z</time>
      </trkpt>
      <trkpt lat="42.85188" lon="1.21676">
        <ele>817.8</ele>
        <time>2024-05-12T07:06:02Z</time>
      </trkpt>
      <trkpt lat="42.85187" lon="1.21674">
        <ele>818.2</ele>
        <time>2024-05-12T07:06:03Z</time>
      </trkpt>
      <trkpt lat="42.85185" lon="1.21672">
        <ele>818.6</ele>
        <time>2024-05-12T07:06:04Z</time>
      </trkpt>
      <trkpt lat="42.85184" lon="1.2167">
        <ele>819.2</ele>
        <time>2024-05-12T07:06:05Z</time>
      </trkpt>
      <trkpt lat="42.85184" lon="1.21668">
        <ele>819.6</ele>
        <time>2024-05-12T07:06:06Z</time>
      </trkpt>
      <trkpt lat="42.85184" lon="1.21666">
        <ele>819.6</ele>
        <time>2024-05-12T07:06:07Z</time>
      </trkpt>
      <trkpt lat="42.85183" lon="1.21663">
        <ele>820</ele>
        <time>2024-05-12T07:06:08Z</time>
      </trkpt>
      <trkpt lat="42.85183" lon="1.2166">
        <ele>820.4</ele>
        <time>2024-05-12T07:06:09Z</time>
      </trkpt>
      <trkpt lat="42.85182" lon="1.21658">
        <ele>820.8</ele>
        <time>2024-05-12T07:06:10Z</time>
      </trkpt>
      <trkpt lat="42.85182" lon="1.21656">
        <ele>821.2</ele>
        <time>2024-05-12T07:06:11Z</time>
      </trkpt>
      <trkpt lat="42.85182" lon="1.21654">
        <ele>821.6</ele>
        <time>2024-05-12T07:06:12Z</time>
      </trkpt>
      <trkpt lat="42.85181" lon="1.2165">
        <ele>822.4</ele>
        <time>2024-05-12T07:06:14Z</time>
      </trkpt>
      <trkpt lat="42.85181" lon="1.21648">
        <ele>823</ele>
        <time>2024-05-12T07:06:15Z</time>
      </trkpt>
      <trkpt lat="42.8518" lon="1.21646">
        <ele>823.4</ele>
        <time>2024-05-12T07:06:16Z</time>
      </trkpt>
      <trkpt lat="42.8518" lon="1.21643">
        <ele>823.8</ele>
        <time>2024-05-12T07:06:17Z</time>
      </trkpt>
      <trkpt lat="42.85179" lon="1.21641">
        <ele>823.8</ele>
        <time>2024-05-12T07:06:18Z</time>
      </trkpt>
      <trkpt lat="42.85178" lon="1.21639">
        <ele>823.8</ele>
        <time>2024-05-12T07:06:19Z</time>
      </trkpt>
      <trkpt lat="42.85177" lon="1.21637">
        <ele>824.2</ele>
        <time>2024-05-12T07:06:20Z</time>
      </trkpt>
      <trkpt lat="42.85176" lon="1.21634">
        <ele>824.6</ele>
        <time>2024-05-12T07:06:21Z</time>
      </trkpt>
      <trkpt lat="42.85176" lon="1.21632">
        <ele>825</ele>
        <time>2024-05-12T07:06:22Z</time>
      </trkpt>
      <trkpt lat="42.85175" lon="1.2163">
        <ele>825.6</ele>
        <time>2024-05-12T07:06:23Z</time>
      </trkpt>
      <trkpt lat="42.85175" lon="1.21628">
        <ele>826</ele>
        <time>2024-05-12T07:06:24Z</time>
      </trkpt>
      <trkpt lat="42.85175" lon="1.21622">
        <ele>826.4</ele>
        <time>2024-05-12T07:06:26Z</time>
      </trkpt>
      <trkpt lat="42.85174" lon="1.21619">
        <ele>826.8</ele>
        <time>2024-05-12T07:06:27Z</time>
      </trkpt>
      <trkpt lat="42.85173" lon="1.21617">
        <ele>827.2</ele>
        <time>2024-05-12T07:06:28Z</time>
      </trkpt>
      <trkpt lat="42.85173" lon="1.21614">
        <ele>827.8</ele>
        <time>2024-05-12T07:06:29Z</time>
      </trkpt>
      <trkpt lat="42.85172" lon="1.2161">
        <ele>828.2</ele>
        <time>2024-05-12T07:06:30Z</time>
      </trkpt>
      <trkpt lat="42.8517" lon="1.21604">
        <ele>828.6</ele>
        <time>2024-05-12T07:06:32Z</time>
      </trkpt>
      <trkpt lat="42.8517" lon="1.21602">
        <ele>829</ele>
        <time>2024-05-12T07:06:33Z</time>
      </trkpt>
      <trkpt lat="42.85169" lon="1.216">
        <ele>829.6</ele>
        <time>2024-05-12T07:06:34Z</time>
      </trkpt>
      <trkpt lat="42.85168" lon="1.21599">
        <ele>830</ele>
        <time>2024-05-12T07:06:35Z</time>
      </trkpt>
      <trkpt lat="42.85167" lon="1.21597">
        <ele>830.4</ele>
        <time>2024-05-12T07:06:36Z</time>
      </trkpt>
      <trkpt lat="42.85166" lon="1.21595">
        <ele>830.8</ele>
        <time>2024-05-12T07:06:37Z</time>
      </trkpt>
      <trkpt lat="42.85165" lon="1.21592">
        <ele>831.2</ele>
        <time>2024-05-12T07:06:38Z</time>
      </trkpt>
      <trkpt lat="42.85164" lon="1.2159">
        <ele>832</ele>
        <time>2024-05-12T07:06:39Z</time>
      </trkpt>
      <trkpt lat="42.85163" lon="1.21589">
        <ele>832.6</ele>
        <time>2024-05-12T07:06:40Z</time>
      </trkpt>
      <trkpt lat="42.85162" lon="1.21587">
        <ele>833</ele>
        <time>2024-05-12T07:06:41Z</time>
      </trkpt>
      <trkpt lat="42.8516" lon="1.21585">
        <ele>833.4</ele>
        <time>2024-05-12T07:06:42Z</time>
      </trkpt>
      <trkpt lat="42.85158" lon="1.21583">
        <ele>833.8</ele>
        <time>2024-05-12T07:06:43Z</time>
      </trkpt>
      <trkpt lat="42.85157" lon="1.2158">
        <ele>834.4</ele>
        <time>2024-05-12T07:06:44Z</time>
      </trkpt>
      <trkpt lat="42.85155" lon="1.21578">
        <ele>834.8</ele>
        <time>2024-05-12T07:06:45Z</time>
      </trkpt>
      <trkpt lat="42.85153" lon="1.21575">
        <ele>835.2</ele>
        <time>2024-05-12T07:06:46Z</time>
      </trkpt>
      <trkpt lat="42.8515" lon="1.21573">
        <ele>835.8</ele>
        <time>2024-05-12T07:06:47Z</time>
      </trkpt>
      <trkpt lat="42.85149" lon="1.21571">
        <ele>836.2</ele>
        <time>2024-05-12T07:06:48Z</time>
      </trkpt>
      <trkpt lat="42.85147" lon="1.21569">
        <ele>836.6</ele>
        <time>2024-05-12T07:06:49Z</time>
      </trkpt>
      <trkpt lat="42.85146" lon="1.21567">
        <ele>837</ele>
        <time>2024-05-12T07:06:50Z</time>
      </trkpt>
      <trkpt lat="42.85145" lon="1.21565">
        <ele>837.4</ele>
        <time>2024-05-12T07:06:51Z</time>
      </trkpt>
      <trkpt lat="42.85143" lon="1.21563">
        <ele>838</ele>
        <time>2024-05-12T07:06:52Z</time>
      </trkpt>
      <trkpt lat="42.85142" lon="1.21561">
        <ele>838.4</ele>
        <time>2024-05-12T07:06:53Z</time>
      </trkpt>
      <trkpt lat="42.8514" lon="1.21559">
        <ele>838.8</ele>
        <time>2024-05-12T07:06:54Z</time>
      </trkpt>
      <trkpt lat="42.85139" lon="1.21557">
        <ele>839.2</ele>
        <time>2024-05-12T07:06:55Z</time>
      </trkpt>
      <trkpt lat="42.85139" lon="1.21555">
        <ele>839.6</ele>
        <time>2024-05-12T07:06:56Z</time>
      </trkpt>
      <trkpt lat="42.85139" lon="1.21553">
        <ele>840</ele>
        <time>2024-05-12T07:06:57Z</time>
      </trkpt>
      <trkpt lat="42.85138" lon="1.21552">
        <ele>840.6</ele>
        <time>2024-05-12T07:06:58Z</time>
      </trkpt>
      <trkpt lat="42.85138" lon="1.2155">
        <ele>841</ele>
        <time>2024-05-12T07:06:59Z</time>
      </trkpt>
      <trkpt lat="42.85137" lon="1.21549">
        <ele>841.4</ele>
        <time>2024-05-12T07:07:00Z</time>
      </trkpt>
      <trkpt lat="42.85136" lon="1.21548">
        <ele>842</ele>
        <time>2024-05-12T07:07:01Z</time>
      </trkpt>
      <trkpt lat="42.85135" lon="1.21547">
        <ele>842.4</ele>
        <time>2024-05-12T07:07:02Z</time>
      </trkpt>
      <trkpt lat="42.85134" lon="1.21545">
        <ele>842.8</ele>
        <time>2024-05-12T07:07:03Z</time>
      </trkpt>
      <trkpt lat="42.85133" lon="1.21543">
        <ele>843.8</ele>
        <time>2024-05-12T07:07:04Z</time>
      </trkpt>
      <trkpt lat="42.85132" lon="1.2154">
        <ele>844.4</ele>
        <time>2024-05-12T07:07:05Z</time>
      </trkpt>
      <trkpt lat="42.85131" lon="1.21538">
        <ele>844.8</ele>
        <time>2024-05-12T07:07:06Z</time>
      </trkpt>
      <trkpt lat="42.8513" lon="1.21536">
        <ele>845.2</ele>
        <time>2024-05-12T07:07:07Z</time>
      </trkpt>
      <trkpt lat="42.85128" lon="1.21534">
        <ele>845.8</ele>
        <time>2024-05-12T07:07:08Z</time>
      </trkpt>
      <trkpt lat="42.85127" lon="1.2153">
        <ele>846.2</ele>
        <time>2024-05-12T07:07:10Z</time>
      </trkpt>
      <trkpt lat="42.85125" lon="1.21529">
        <ele>846.6</ele>
        <time>2024-05-12T07:07:11Z</time>
      </trkpt>
      <trkpt lat="42.85124" lon="1.21527">
        <ele>847</ele>
        <time>2024-05-12T07:07:12Z</time>
      </trkpt>
      <trkpt lat="42.85123" lon="1.21525">
        <ele>847.4</ele>
        <time>2024-05-12T07:07:13Z</time>
      </trkpt>
      <trkpt lat="42.85121" lon="1.21524">
        <ele>847.8</ele>
        <time>2024-05-12T07:07:14Z</time>
      </trkpt>
      <trkpt lat="42.8512" lon="1.21522">
        <ele>847.8</ele>
        <time>2024-05-12T07:07:15Z</time>
      </trkpt>
      <trkpt lat="42.85117" lon="1.2152">
        <ele>848.2</ele>
        <time>2024-05-12T07:07:17Z</time>
      </trkpt>
      <trkpt lat="42.85116" lon="1.21519">
        <ele>848.6</ele>
        <time>2024-05-12T07:07:18Z</time>
      </trkpt>
      <trkpt lat="42.85115" lon="1.21516">
        <ele>849</ele>
        <time>2024-05-12T07:07:19Z</time>
      </trkpt>
      <trkpt lat="42.85113" lon="1.21515">
        <ele>849.4</ele>
        <time>2024-05-12T07:07:20Z</time>
      </trkpt>
      <trkpt lat="42.85113" lon="1.21514">
        <ele>849.8</ele>
        <time>2024-05-12T07:07:21Z</time>
      </trkpt>
      <trkpt lat="42.85109" lon="1.21508">
        <ele>849.8</ele>
        <time>2024-05-12T07:07:25Z</time>
      </trkpt>
      <trkpt lat="42.85108" lon="1.21506">
        <ele>849.8</ele>
        <time>2024-05-12T07:07:26Z</time>
      </trkpt>
      <trkpt lat="42.85107" lon="1.21506">
        <ele>849.8</ele>
        <time>2024-05-12T07:07:27Z</time>
      </trkpt>
      <trkpt lat="42.85078" lon="1.21411">
        <ele>866</ele>
        <time>2024-05-12T07:08:36Z</time>
      </trkpt>
      <trkpt lat="42.85077" lon="1.21409">
        <ele>866.4</ele>
        <time>2024-05-12T07:08:37Z</time>
      </trkpt>
      <trkpt lat="42.85075" lon="1.21408">
        <ele>867</ele>
        <time>2024-05-12T07:08:38Z</time>
      </trkpt>
      <trkpt lat="42.85074" lon="1.21407">
        <ele>867.4</ele>
        <time>2024-05-12T07:08:39Z</time>
      </trkpt>
      <trkpt lat="42.85071" lon="1.21404">
        <ele>867.8</ele>
        <time>2024-05-12T07:08:42Z</time>
      </trkpt>
      <trkpt lat="42.85069" lon="1.21402">
        <ele>868.8</ele>
        <time>2024-05-12T07:08:43Z</time>
      </trkpt>
      <trkpt lat="42.85068" lon="1.21401">
        <ele>869.2</ele>
        <time>2024-05-12T07:08:44Z</time>
      </trkpt>
      <trkpt lat="42.85067" lon="1.21401">
        <ele>869.6</ele>
        <time>2024-05-12T07:08:45Z</time>
      </trkpt>
      <trkpt lat="42.85062" lon="1.21398">
        <ele>870.2</ele>
        <time>2024-05-12T07:08:49Z</time>
      </trkpt>
      <trkpt lat="42.85062" lon="1.21397">
        <ele>870.6</ele>
        <time>2024-05-12T07:08:50Z</time>
      </trkpt>
      <trkpt lat="42.85061" lon="1.21396">
        <ele>871</ele>
        <time>2024-05-12T07:08:51Z</time>
      </trkpt>
      <trkpt lat="42.8506" lon="1.21395">
        <ele>871.4</ele>
        <time>2024-05-12T07:08:52Z</time>
      </trkpt>
      <trkpt lat="42.85059" lon="1.21395">
        <ele>871.8</ele>
        <time>2024-05-12T07:08:53Z</time>
      </trkpt>
      <trkpt lat="42.85048" lon="1.21388">
        <ele>871.8</ele>
        <time>2024-05-12T07:09:00Z</time>
      </trkpt>
      <trkpt lat="42.85043" lon="1.21383">
        <ele>872.4</ele>
        <time>2024-05-12T07:09:03Z</time>
      </trkpt>
      <trkpt lat="42.85042" lon="1.21382">
        <ele>872.8</ele>
        <time>2024-05-12T07:09:04Z</time>
      </trkpt>
      <trkpt lat="42.85041" lon="1.2138">
        <ele>873.2</ele>
        <time>2024-05-12T07:09:05Z</time>
      </trkpt>
      <trkpt lat="42.8504" lon="1.21379">
        <ele>873.6</ele>
        <time>2024-05-12T07:09:06Z</time>
      </trkpt>
      <trkpt lat="42.8504" lon="1.21377">
        <ele>874</ele>
        <time>2024-05-12T07:09:07Z</time>
      </trkpt>
      <trkpt lat="42.85036" lon="1.21372">
        <ele>874.4</ele>
        <time>2024-05-12T07:09:11Z</time>
      </trkpt>
      <trkpt lat="42.85035" lon="1.21371">
        <ele>874.8</ele>
        <time>2024-05-12T07:09:12Z</time>
      </trkpt>
      <trkpt lat="42.85029" lon="1.21356">
        <ele>877.4</ele>
        <time>2024-05-12T07:09:23Z</time>
      </trkpt>
      <trkpt lat="42.85028" lon="1.21354">
        <ele>877.8</ele>
        <time>2024-05-12T07:09:24Z</time>
      </trkpt>
      <trkpt lat="42.85027" lon="1.21353">
        <ele>878.2</ele>
        <time>2024-05-12T07:09:25Z</time>
      </trkpt>
      <trkpt lat="42.85022" lon="1.21346">
        <ele>878.6</ele>
        <time>2024-05-12T07:09:30Z</time>
      </trkpt>
      <trkpt lat="42.8502" lon="1.21344">
        <ele>879</ele>
        <time>2024-05-12T07:09:31Z</time>
      </trkpt>
      <trkpt lat="42.85019" lon="1.21343">
        <ele>879.8</ele>
        <time>2024-05-12T07:09:32Z</time>
      </trkpt>
      <trkpt lat="42.85017" lon="1.21341">
        <ele>880.2</ele>
        <time>2024-05-12T07:09:33Z</time>
      </trkpt>
      <trkpt lat="42.85017" lon="1.21339">
        <ele>880.2</ele>
        <time>2024-05-12T07:09:34Z</time>
      </trkpt>
      <trkpt lat="42.85016" lon="1.21338">
        <ele>880.6</ele>
        <time>2024-05-12T07:09:35Z</time>
      </trkpt>
      <trkpt lat="42.85015" lon="1.21336">
        <ele>881</ele>
        <time>2024-05-12T07:09:36Z</time>
      </trkpt>
      <trkpt lat="42.85016" lon="1.21334">
        <ele>881.6</ele>
        <time>2024-05-12T07:09:37Z</time>
      </trkpt>
      <trkpt lat="42.85015" lon="1.21332">
        <ele>882</ele>
        <time>2024-05-12T07:09:38Z</time>
      </trkpt>
      <trkpt lat="42.85014" lon="1.21331">
        <ele>882.4</ele>
        <time>2024-05-12T07:09:39Z</time>
      </trkpt>
      <trkpt lat="42.85011" lon="1.21328">
        <ele>882.8</ele>
        <time>2024-05-12T07:09:41Z</time>
      </trkpt>
      <trkpt lat="42.84998" lon="1.21318">
        <ele>885.4</ele>
        <time>2024-05-12T07:09:49Z</time>
      </trkpt>
      <trkpt lat="42.84997" lon="1.21317">
        <ele>885.8</ele>
        <time>2024-05-12T07:09:50Z</time>
      </trkpt>
      <trkpt lat="42.84995" lon="1.21315">
        <ele>886.2</ele>
        <time>2024-05-12T07:09:51Z</time>
      </trkpt>
      <trkpt lat="42.84994" lon="1.21313">
        <ele>886.6</ele>
        <time>2024-05-12T07:09:52Z</time>
      </trkpt>
      <trkpt lat="42.84989" lon="1.21309">
        <ele>887</ele>
        <time>2024-05-12T07:09:55Z</time>
      </trkpt>
      <trkpt lat="42.84987" lon="1.21302">
        <ele>888.6</ele>
        <time>2024-05-12T07:09:59Z</time>
      </trkpt>
      <trkpt lat="42.8499" lon="1.21288">
        <ele>888.6</ele>
        <time>2024-05-12T07:10:02Z</time>
      </trkpt>
      <trkpt lat="42.84993" lon="1.21284">
        <ele>888.6</ele>
        <time>2024-05-12T07:10:03Z</time>
      </trkpt>
      <trkpt lat="42.85" lon="1.21274">
        <ele>888.6</ele>
        <time>2024-05-12T07:10:07Z</time>
      </trkpt>
      <trkpt lat="42.85" lon="1.21272">
        <ele>888.6</ele>
        <time>2024-05-12T07:10:08Z</time>
      </trkpt>
      <trkpt lat="42.85003" lon="1.21268">
        <ele>888.6</ele>
        <time>2024-05-12T07:10:11Z</time>
      </trkpt>
      <trkpt lat="42.85005" lon="1.21262">
        <ele>888.6</ele>
        <time>2024-05-12T07:10:15Z</time>
      </trkpt>
      <trkpt lat="42.85006" lon="1.21261">
        <ele>888.6</ele>
        <time>2024-05-12T07:10:16Z</time>
      </trkpt>
      <trkpt lat="42.85006" lon="1.21259">
        <ele>888.6</ele>
        <time>2024-05-12T07:10:17Z</time>
      </trkpt>
      <trkpt lat="42.85009" lon="1.21251">
        <ele>889.2</ele>
        <time>2024-05-12T07:10:20Z</time>
      </trkpt>
      <trkpt lat="42.8501" lon="1.21248">
        <ele>889.6</ele>
        <time>2024-05-12T07:10:21Z</time>
      </trkpt>
      <trkpt lat="42.8501" lon="1.21246">
        <ele>890.6</ele>
        <time>2024-05-12T07:10:22Z</time>
      </trkpt>
      <trkpt lat="42.8501" lon="1.21242">
        <ele>891</ele>
        <time>2024-05-12T07:10:23Z</time>
      </trkpt>
      <trkpt lat="42.85011" lon="1.21238">
        <ele>891.4</ele>
        <time>2024-05-12T07:10:24Z</time>
      </trkpt>
      <trkpt lat="42.85013" lon="1.21236">
        <ele>891.8</ele>
        <time>2024-05-12T07:10:25Z</time>
      </trkpt>
      <trkpt lat="42.85015" lon="1.21234">
        <ele>892.2</ele>
        <time>2024-05-12T07:10:26Z</time>
      </trkpt>
      <trkpt lat="42.85017" lon="1.21227">
        <ele>894</ele>
        <time>2024-05-12T07:10:31Z</time>
      </trkpt>
      <trkpt lat="42.85018" lon="1.21225">
        <ele>894.4</ele>
        <time>2024-05-12T07:10:32Z</time>
      </trkpt>
      <trkpt lat="42.85017" lon="1.21223">
        <ele>894.8</ele>
        <time>2024-05-12T07:10:33Z</time>
      </trkpt>
      <trkpt lat="42.85016" lon="1.21221">
        <ele>895.2</ele>
        <time>2024-05-12T07:10:34Z</time>
      </trkpt>
      <trkpt lat="42.85016" lon="1.21219">
        <ele>895.6</ele>
        <time>2024-05-12T07:10:35Z</time>
      </trkpt>
      <trkpt lat="42.85015" lon="1.21217">
        <ele>896</ele>
        <time>2024-05-12T07:10:36Z</time>
      </trkpt>
      <trkpt lat="42.85014" lon="1.21215">
        <ele>896.4</ele>
        <time>2024-05-12T07:10:37Z</time>
      </trkpt>
      <trkpt lat="42.85014" lon="1.21213">
        <ele>897</ele>
        <time>2024-05-12T07:10:38Z</time>
      </trkpt>
      <trkpt lat="42.85015" lon="1.2121">
        <ele>897.4</ele>
        <time>2024-05-12T07:10:39Z</time>
      </trkpt>
      <trkpt lat="42.85014" lon="1.21207">
        <ele>897.8</ele>
        <time>2024-05-12T07:10:40Z</time>
      </trkpt>
      <trkpt lat="42.85014" lon="1.21205">
        <ele>898.2</ele>
        <time>2024-05-12T07:10:41Z</time>
      </trkpt>
      <trkpt lat="42.85013" lon="1.21203">
        <ele>898.8</ele>
        <time>2024-05-12T07:10:42Z</time>
      </trkpt>
      <trkpt lat="42.85013" lon="1.21201">
        <ele>899.2</ele>
        <time>2024-05-12T07:10:43Z</time>
      </trkpt>
      <trkpt lat="42.85013" lon="1.21199">
        <ele>899.6</ele>
        <time>2024-05-12T07:10:44Z</time>
      </trkpt>
      <trkpt lat="42.85012" lon="1.21194">
        <ele>900.2</ele>
        <time>2024-05-12T07:10:46Z</time>
      </trkpt>
      <trkpt lat="42.85012" lon="1.21191">
        <ele>901</ele>
        <time>2024-05-12T07:10:47Z</time>
      </trkpt>
      <trkpt lat="42.85012" lon="1.21189">
        <ele>901.6</ele>
        <time>2024-05-12T07:10:48Z</time>
      </trkpt>
      <trkpt lat="42.85011" lon="1.21188">
        <ele>902</ele>
        <time>2024-05-12T07:10:49Z</time>
      </trkpt>
      <trkpt lat="42.85011" lon="1.21184">
        <ele>902.4</ele>
        <time>2024-05-12T07:10:51Z</time>
      </trkpt>
      <trkpt lat="42.85011" lon="1.21183">
        <ele>903</ele>
        <time>2024-05-12T07:10:52Z</time>
      </trkpt>
      <trkpt lat="42.85011" lon="1.21181">
        <ele>903.4</ele>
        <time>2024-05-12T07:10:53Z</time>
      </trkpt>
      <trkpt lat="42.85011" lon="1.21178">
        <ele>903.8</ele>
        <time>2024-05-12T07:10:54Z</time>
      </trkpt>
      <trkpt lat="42.8501" lon="1.21176">
        <ele>904.4</ele>
        <time>2024-05-12T07:10:55Z</time>
      </trkpt>
      <trkpt lat="42.85009" lon="1.21171">
        <ele>904.8</ele>
        <time>2024-05-12T07:10:57Z</time>
      </trkpt>
      <trkpt lat="42.85009" lon="1.21168">
        <ele>905.2</ele>
        <time>2024-05-12T07:10:58Z</time>
      </trkpt>
      <trkpt lat="42.85008" lon="1.21166">
        <ele>905.6</ele>
        <time>2024-05-12T07:10:59Z</time>
      </trkpt>
      <trkpt lat="42.85008" lon="1.21164">
        <ele>906</ele>
        <time>2024-05-12T07:11:00Z</time>
      </trkpt>
      <trkpt lat="42.85007" lon="1.21162">
        <ele>906.6</ele>
        <time>2024-05-12T07:11:01Z</time>
      </trkpt>
      <trkpt lat="42.85007" lon="1.21158">
        <ele>907</ele>
        <time>2024-05-12T07:11:03Z</time>
      </trkpt>
      <trkpt lat="42.85007" lon="1.21155">
        <ele>907.4</ele>
        <time>2024-05-12T07:11:04Z</time>
      </trkpt>
      <trkpt lat="42.85007" lon="1.21153">
        <ele>907.8</ele>
        <time>2024-05-12T07:11:05Z</time>
      </trkpt>
      <trkpt lat="42.85007" lon="1.21152">
        <ele>908.4</ele>
        <time>2024-05-12T07:11:06Z</time>
      </trkpt>
      <trkpt lat="42.85007" lon="1.2115">
        <ele>908.8</ele>
        <time>2024-05-12T07:11:07Z</time>
      </trkpt>
      <trkpt lat="42.85005" lon="1.21147">
        <ele>909.2</ele>
        <time>2024-05-12T07:11:09Z</time>
      </trkpt>
      <trkpt lat="42.85005" lon="1.21145">
        <ele>909.6</ele>
        <time>2024-05-12T07:11:10Z</time>
      </trkpt>
      <trkpt lat="42.85005" lon="1.21143">
        <ele>910.4</ele>
        <time>2024-05-12T07:11:11Z</time>
      </trkpt>
      <trkpt lat="42.85006" lon="1.21141">
        <ele>910.8</ele>
        <time>2024-05-12T07:11:12Z</time>
      </trkpt>
      <trkpt lat="42.85007" lon="1.21136">
        <ele>911.4</ele>
        <time>2024-05-12T07:11:14Z</time>
      </trkpt>
      <trkpt lat="42.85007" lon="1.21134">
        <ele>911.8</ele>
        <time>2024-05-12T07:11:15Z</time>
      </trkpt>
      <trkpt lat="42.85007" lon="1.21131">
        <ele>912.2</ele>
        <time>2024-05-12T07:11:16Z</time>
      </trkpt>
      <trkpt lat="42.85007" lon="1.2113">
        <ele>912.8</ele>
        <time>2024-05-12T07:11:17Z</time>
      </trkpt>
      <trkpt lat="42.85007" lon="1.21128">
        <ele>913.2</ele>
        <time>2024-05-12T07:11:18Z</time>
      </trkpt>
      <trkpt lat="42.85007" lon="1.21127">
        <ele>913.8</ele>
        <time>2024-05-12T07:11:19Z</time>
      </trkpt>
      <trkpt lat="42.85007" lon="1.21126">
        <ele>914.4</ele>
        <time>2024-05-12T07:11:20Z</time>
      </trkpt>
      <trkpt lat="42.85013" lon="1.21114">
        <ele>915.8</ele>
        <time>2024-05-12T07:11:54Z</time>
      </trkpt>
      <trkpt lat="42.85014" lon="1.21112">
        <ele>916.2</ele>
        <time>2024-05-12T07:11:55Z</time>
      </trkpt>
      <trkpt lat="42.85014" lon="1.21111">
        <ele>916.6</ele>
        <time>2024-05-12T07:11:56Z</time>
      </trkpt>
      <trkpt lat="42.85014" lon="1.21109">
        <ele>917</ele>
        <time>2024-05-12T07:11:57Z</time>
      </trkpt>
      <trkpt lat="42.85015" lon="1.21108">
        <ele>917.4</ele>
        <time>2024-05-12T07:11:58Z</time>
      </trkpt>
      <trkpt lat="42.85015" lon="1.21106">
        <ele>917.4</ele>
        <time>2024-05-12T07:11:59Z</time>
      </trkpt>
      <trkpt lat="42.85014" lon="1.21104">
        <ele>918</ele>
        <time>2024-05-12T07:12:00Z</time>
      </trkpt>
      <trkpt lat="42.85013" lon="1.21102">
        <ele>918.4</ele>
        <time>2024-05-12T07:12:01Z</time>
      </trkpt>
      <trkpt lat="42.85012" lon="1.21101">
        <ele>918.8</ele>
        <time>2024-05-12T07:12:02Z</time>
      </trkpt>
      <trkpt lat="42.85012" lon="1.21099">
        <ele>919.4</ele>
        <time>2024-05-12T07:12:03Z</time>
      </trkpt>
      <trkpt lat="42.85012" lon="1.21098">
        <ele>919.8</ele>
        <time>2024-05-12T07:12:04Z</time>
      </trkpt>
      <trkpt lat="42.85012" lon="1.21095">
        <ele>920.2</ele>
        <time>2024-05-12T07:12:06Z</time>
      </trkpt>
      <trkpt lat="42.85012" lon="1.21094">
        <ele>920.6</ele>
        <time>2024-05-12T07:12:07Z</time>
      </trkpt>
      <trkpt lat="42.85013" lon="1.21092">
        <ele>921</ele>
        <time>2024-05-12T07:12:08Z</time>
      </trkpt>
      <trkpt lat="42.85014" lon="1.2109">
        <ele>921.4</ele>
        <time>2024-05-12T07:12:09Z</time>
      </trkpt>
      <trkpt lat="42.85014" lon="1.21088">
        <ele>921.8</ele>
        <time>2024-05-12T07:12:10Z</time>
      </trkpt>
      <trkpt lat="42.85014" lon="1.21089">
        <ele>921.8</ele>
        <time>2024-05-12T07:12:11Z</time>
      </trkpt>
      <trkpt lat="42.85014" lon="1.21088">
        <ele>922.4</ele>
        <time>2024-05-12T07:12:12Z</time>
      </trkpt>
      <trkpt lat="42.85014" lon="1.21088">
        <ele>922.8</ele>
        <time>2024-05-12T07:12:13Z</time>
      </trkpt>
      <trkpt lat="42.85015" lon="1.21088">
        <ele>923.2</ele>
        <time>2024-05-12T07:12:14Z</time>
      </trkpt>
      <trkpt lat="42.85032" lon="1.21069">
        <ele>930.2</ele>
        <time>2024-05-12T07:13:03Z</time>
      </trkpt>
      <trkpt lat="42.85034" lon="1.21067">
        <ele>930.2</ele>
        <time>2024-05-12T07:13:05Z</time>
      </trkpt>
      <trkpt lat="42.85034" lon="1.21066">
        <ele>930.6</ele>
        <time>2024-05-12T07:13:06Z</time>
      </trkpt>
      <trkpt lat="42.85034" lon="1.21065">
        <ele>931.2</ele>
        <time>2024-05-12T07:13:07Z</time>
      </trkpt>
      <trkpt lat="42.85035" lon="1.21063">
        <ele>931.6</ele>
        <time>2024-05-12T07:13:08Z</time>
      </trkpt>
      <trkpt lat="42.85035" lon="1.21061">
        <ele>932</ele>
        <time>2024-05-12T07:13:09Z</time>
      </trkpt>
      <trkpt lat="42.85036" lon="1.2106">
        <ele>932.6</ele>
        <time>2024-05-12T07:13:10Z</time>
      </trkpt>
      <trkpt lat="42.85037" lon="1.21058">
        <ele>933</ele>
        <time>2024-05-12T07:13:11Z</time>
      </trkpt>
      <trkpt lat="42.85037" lon="1.21055">
        <ele>933.4</ele>
        <time>2024-05-12T07:13:12Z</time>
      </trkpt>
      <trkpt lat="42.85037" lon="1.21054">
        <ele>933.8</ele>
        <time>2024-05-12T07:13:13Z</time>
      </trkpt>
      <trkpt lat="42.85037" lon="1.21052">
        <ele>934.6</ele>
        <time>2024-05-12T07:13:14Z</time>
      </trkpt>
      <trkpt lat="42.85038" lon="1.21048">
        <ele>935</ele>
        <time>2024-05-12T07:13:16Z</time>
      </trkpt>
      <trkpt lat="42.85038" lon="1.21046">
        <ele>935.4</ele>
        <time>2024-05-12T07:13:17Z</time>
      </trkpt>
      <trkpt lat="42.85038" lon="1.21045">
        <ele>935.8</ele>
        <time>2024-05-12T07:13:18Z</time>
      </trkpt>
      <trkpt lat="42.85037" lon="1.21043">
        <ele>936.4</ele>
        <time>2024-05-12T07:13:19Z</time>
      </trkpt>
      <trkpt lat="42.85036" lon="1.21041">
        <ele>936.8</ele>
        <time>2024-05-12T07:13:20Z</time>
      </trkpt>
      <trkpt lat="42.85034" lon="1.21037">
        <ele>937.2</ele>
        <time>2024-05-12T07:13:22Z</time>
      </trkpt>
      <trkpt lat="42.85034" lon="1.21035">
        <ele>937.6</ele>
        <time>2024-05-12T07:13:23Z</time>
      </trkpt>
      <trkpt lat="42.85033" lon="1.21033">
        <ele>938</ele>
        <time>2024-05-12T07:13:24Z</time>
      </trkpt>
      <trkpt lat="42.85033" lon="1.2103">
        <ele>938.4</ele>
        <time>2024-05-12T07:13:25Z</time>
      </trkpt>
      <trkpt lat="42.85032" lon="1.21028">
        <ele>938.8</ele>
        <time>2024-05-12T07:13:26Z</time>
      </trkpt>
      <trkpt lat="42.85029" lon="1.21024">
        <ele>938.8</ele>
        <time>2024-05-12T07:13:28Z</time>
      </trkpt>
      <trkpt lat="42.85028" lon="1.21022">
        <ele>939.2</ele>
        <time>2024-05-12T07:13:29Z</time>
      </trkpt>
      <trkpt lat="42.85028" lon="1.21019">
        <ele>939.6</ele>
        <time>2024-05-12T07:13:30Z</time>
      </trkpt>
      <trkpt lat="42.85028" lon="1.21018">
        <ele>940</ele>
        <time>2024-05-12T07:13:31Z</time>
      </trkpt>
      <trkpt lat="42.85027" lon="1.21016">
        <ele>940.4</ele>
        <time>2024-05-12T07:13:32Z</time>
      </trkpt>
      <trkpt lat="42.85026" lon="1.21014">
        <ele>941</ele>
        <time>2024-05-12T07:13:33Z</time>
      </trkpt>
      <trkpt lat="42.85025" lon="1.21012">
        <ele>941.4</ele>
        <time>2024-05-12T07:13:35Z</time>
      </trkpt>
      <trkpt lat="42.85024" lon="1.21011">
        <ele>941.8</ele>
        <time>2024-05-12T07:13:36Z</time>
      </trkpt>
      <trkpt lat="42.85023" lon="1.21009">
        <ele>942.2</ele>
        <time>2024-05-12T07:13:37Z</time>
      </trkpt>
      <trkpt lat="42.85022" lon="1.21008">
        <ele>942.6</ele>
        <time>2024-05-12T07:13:38Z</time>
      </trkpt>
      <trkpt lat="42.85021" lon="1.21007">
        <ele>943.4</ele>
        <time>2024-05-12T07:13:39Z</time>
      </trkpt>
      <trkpt lat="42.85019" lon="1.21005">
        <ele>944</ele>
        <time>2024-05-12T07:13:40Z</time>
      </trkpt>
      <trkpt lat="42.85019" lon="1.21003">
        <ele>944.4</ele>
        <time>2024-05-12T07:13:41Z</time>
      </trkpt>
      <trkpt lat="42.85018" lon="1.21002">
        <ele>944.8</ele>
        <time>2024-05-12T07:13:42Z</time>
      </trkpt>
      <trkpt lat="42.85018" lon="1.21">
        <ele>945.4</ele>
        <time>2024-05-12T07:13:43Z</time>
      </trkpt>
      <trkpt lat="42.85017" lon="1.20999">
        <ele>945.8</ele>
        <time>2024-05-12T07:13:44Z</time>
      </trkpt>
      <trkpt lat="42.85016" lon="1.20998">
        <ele>946.4</ele>
        <time>2024-05-12T07:13:45Z</time>
      </trkpt>
      <trkpt lat="42.85015" lon="1.20996">
        <ele>946.8</ele>
        <time>2024-05-12T07:13:46Z</time>
      </trkpt>
      <trkpt lat="42.85013" lon="1.20996">
        <ele>947.4</ele>
        <time>2024-05-12T07:13:47Z</time>
      </trkpt>
      <trkpt lat="42.85013" lon="1.20995">
        <ele>947.4</ele>
        <time>2024-05-12T07:13:48Z</time>
      </trkpt>
      <trkpt lat="42.85008" lon="1.20985">
        <ele>949.4</ele>
        <time>2024-05-12T07:13:54Z</time>
      </trkpt>
      <trkpt lat="42.85007" lon="1.20983">
        <ele>949.8</ele>
        <time>2024-05-12T07:13:56Z</time>
      </trkpt>
      <trkpt lat="42.85007" lon="1.20982">
        <ele>950.4</ele>
        <time>2024-05-12T07:13:57Z</time>
      </trkpt>
      <trkpt lat="42.85006" lon="1.2098">
        <ele>950.8</ele>
        <time>2024-05-12T07:13:58Z</time>
      </trkpt>
      <trkpt lat="42.85006" lon="1.20979">
        <ele>951.2</ele>
        <time>2024-05-12T07:13:59Z</time>
      </trkpt>
      <trkpt lat="42.85005" lon="1.20977">
        <ele>951.6</ele>
        <time>2024-05-12T07:14:00Z</time>
      </trkpt>
      <trkpt lat="42.85002" lon="1.20971">
        <ele>952.2</ele>
        <time>2024-05-12T07:14:04Z</time>
      </trkpt>
      <trkpt lat="42.85002" lon="1.20969">
        <ele>952.6</ele>
        <time>2024-05-12T07:14:05Z</time>
      </trkpt>
      <trkpt lat="42.85002" lon="1.20966">
        <ele>953</ele>
        <time>2024-05-12T07:14:06Z</time>
      </trkpt>
      <trkpt lat="42.85" lon="1.20965">
        <ele>953.4</ele>
        <time>2024-05-12T07:14:07Z</time>
      </trkpt>
      <trkpt lat="42.84999" lon="1.20962">
        <ele>953.8</ele>
        <time>2024-05-12T07:14:08Z</time>
      </trkpt>
      <trkpt lat="42.84998" lon="1.20958">
        <ele>954.2</ele>
        <time>2024-05-12T07:14:12Z</time>
      </trkpt>
      <trkpt lat="42.84997" lon="1.20957">
        <ele>954.6</ele>
        <time>2024-05-12T07:14:13Z</time>
      </trkpt>
      <trkpt lat="42.84996" lon="1.20955">
        <ele>955.2</ele>
        <time>2024-05-12T07:14:14Z</time>
      </trkpt>
      <trkpt lat="42.84994" lon="1.20954">
        <ele>955.6</ele>
        <time>2024-05-12T07:14:15Z</time>
      </trkpt>
      <trkpt lat="42.84993" lon="1.20953">
        <ele>956</ele>
        <time>2024-05-12T07:14:16Z</time>
      </trkpt>
      <trkpt lat="42.84992" lon="1.20952">
        <ele>956</ele>
        <time>2024-05-12T07:14:17Z</time>
      </trkpt>
      <trkpt lat="42.84989" lon="1.20949">
        <ele>956.4</ele>
        <time>2024-05-12T07:14:19Z</time>
      </trkpt>
      <trkpt lat="42.84987" lon="1.20948">
        <ele>956.8</ele>
        <time>2024-05-12T07:14:20Z</time>
      </trkpt>
      <trkpt lat="42.84986" lon="1.20946">
        <ele>957.2</ele>
        <time>2024-05-12T07:14:21Z</time>
      </trkpt>
      <trkpt lat="42.84986" lon="1.20945">
        <ele>957.6</ele>
        <time>2024-05-12T07:14:22Z</time>
      </trkpt>
      <trkpt lat="42.84985" lon="1.20943">
        <ele>958</ele>
        <time>2024-05-12T07:14:23Z</time>
      </trkpt>
      <trkpt lat="42.84983" lon="1.2094">
        <ele>958.4</ele>
        <time>2024-05-12T07:14:25Z</time>
      </trkpt>
      <trkpt lat="42.84982" lon="1.20939">
        <ele>958.8</ele>
        <time>2024-05-12T07:14:26Z</time>
      </trkpt>
      <trkpt lat="42.84982" lon="1.20938">
        <ele>959.2</ele>
        <time>2024-05-12T07:14:27Z</time>
      </trkpt>
      <trkpt lat="42.84981" lon="1.20937">
        <ele>959.6</ele>
        <time>2024-05-12T07:14:28Z</time>
      </trkpt>
      <trkpt lat="42.84982" lon="1.20935">
        <ele>960</ele>
        <time>2024-05-12T07:14:29Z</time>
      </trkpt>
      <trkpt lat="42.84981" lon="1.20934">
        <ele>960.4</ele>
        <time>2024-05-12T07:14:30Z</time>
      </trkpt>
      <trkpt lat="42.84979" lon="1.20923">
        <ele>966.2</ele>
        <time>2024-05-12T07:20:28Z</time>
      </trkpt>
      <trkpt lat="42.8498" lon="1.20911">
        <ele>966.2</ele>
        <time>2024-05-12T07:20:30Z</time>
      </trkpt>
      <trkpt lat="42.8498" lon="1.20892">
        <ele>965.6</ele>
        <time>2024-05-12T07:20:33Z</time>
      </trkpt>
      <trkpt lat="42.8498" lon="1.20886">
        <ele>965.2</ele>
        <time>2024-05-12T07:20:34Z</time>
      </trkpt>
      <trkpt lat="42.8498" lon="1.20879">
        <ele>964.8</ele>
        <time>2024-05-12T07:20:35Z</time>
      </trkpt>
      <trkpt lat="42.84978" lon="1.20875">
        <ele>964.2</ele>
        <time>2024-05-12T07:20:36Z</time>
      </trkpt>
      <trkpt lat="42.84977" lon="1.20872">
        <ele>963.8</ele>
        <time>2024-05-12T07:20:37Z</time>
      </trkpt>
      <trkpt lat="42.84976" lon="1.20869">
        <ele>963.4</ele>
        <time>2024-05-12T07:20:38Z</time>
      </trkpt>
      <trkpt lat="42.84974" lon="1.20866">
        <ele>963</ele>
        <time>2024-05-12T07:20:39Z</time>
      </trkpt>
      <trkpt lat="42.84974" lon="1.20863">
        <ele>962.6</ele>
        <time>2024-05-12T07:20:40Z</time>
      </trkpt>
      <trkpt lat="42.84972" lon="1.2086">
        <ele>962.2</ele>
        <time>2024-05-12T07:20:41Z</time>
      </trkpt>
      <trkpt lat="42.84972" lon="1.20858">
        <ele>961.8</ele>
        <time>2024-05-12T07:20:42Z</time>
      </trkpt>
      <trkpt lat="42.84971" lon="1.20852">
        <ele>961.8</ele>
        <time>2024-05-12T07:20:45Z</time>
      </trkpt>
      <trkpt lat="42.84973" lon="1.20836">
        <ele>961.8</ele>
        <time>2024-05-12T07:24:39Z</time>
      </trkpt>
      <trkpt lat="42.84977" lon="1.20822">
        <ele>961.8</ele>
        <time>2024-05-12T07:24:42Z</time>
      </trkpt>
      <trkpt lat="42.8498" lon="1.20816">
        <ele>961.2</ele>
        <time>2024-05-12T07:24:43Z</time>
      </trkpt>
      <trkpt lat="42.84982" lon="1.2081">
        <ele>960.8</ele>
        <time>2024-05-12T07:24:44Z</time>
      </trkpt>
      <trkpt lat="42.84985" lon="1.20803">
        <ele>960.4</ele>
        <time>2024-05-12T07:24:45Z</time>
      </trkpt>
      <trkpt lat="42.84988" lon="1.20794">
        <ele>960</ele>
        <time>2024-05-12T07:24:46Z</time>
      </trkpt>
      <trkpt lat="42.84991" lon="1.20785">
        <ele>959.4</ele>
        <time>2024-05-12T07:24:47Z</time>
      </trkpt>
      <trkpt lat="42.84994" lon="1.20778">
        <ele>958.8</ele>
        <time>2024-05-12T07:24:48Z</time>
      </trkpt>
      <trkpt lat="42.84997" lon="1.20772">
        <ele>958.4</ele>
        <time>2024-05-12T07:24:49Z</time>
      </trkpt>
      <trkpt lat="42.85" lon="1.20765">
        <ele>957</ele>
        <time>2024-05-12T07:24:50Z</time>
      </trkpt>
      <trkpt lat="42.85003" lon="1.20758">
        <ele>956.4</ele>
        <time>2024-05-12T07:24:51Z</time>
      </trkpt>
      <trkpt lat="42.85007" lon="1.20749">
        <ele>955.6</ele>
        <time>2024-05-12T07:24:52Z</time>
      </trkpt>
      <trkpt lat="42.85009" lon="1.20741">
        <ele>955</ele>
        <time>2024-05-12T07:24:53Z</time>
      </trkpt>
      <trkpt lat="42.85013" lon="1.20733">
        <ele>954.2</ele>
        <time>2024-05-12T07:24:54Z</time>
      </trkpt>
      <trkpt lat="42.85016" lon="1.20725">
        <ele>953.4</ele>
        <time>2024-05-12T07:24:55Z</time>
      </trkpt>
      <trkpt lat="42.85019" lon="1.20718">
        <ele>952.8</ele>
        <time>2024-05-12T07:24:56Z</time>
      </trkpt>
      <trkpt lat="42.85021" lon="1.20712">
        <ele>952</ele>
        <time>2024-05-12T07:24:57Z</time>
      </trkpt>
      <trkpt lat="42.85022" lon="1.20707">
        <ele>951.2</ele>
        <time>2024-05-12T07:24:58Z</time>
      </trkpt>
      <trkpt lat="42.85023" lon="1.20705">
        <ele>950.4</ele>
        <time>2024-05-12T07:24:59Z</time>
      </trkpt>
      <trkpt lat="42.85024" lon="1.20698">
        <ele>950</ele>
        <time>2024-05-12T07:25:01Z</time>
      </trkpt>
      <trkpt lat="42.85025" lon="1.20694">
        <ele>949.4</ele>
        <time>2024-05-12T07:25:02Z</time>
      </trkpt>
      <trkpt lat="42.85025" lon="1.20688">
        <ele>949</ele>
        <time>2024-05-12T07:25:03Z</time>
      </trkpt>
      <trkpt lat="42.85026" lon="1.20682">
        <ele>948.4</ele>
        <time>2024-05-12T07:25:04Z</time>
      </trkpt>
      <trkpt lat="42.85027" lon="1.20674">
        <ele>947.8</ele>
        <time>2024-05-12T07:25:05Z</time>
      </trkpt>
      <trkpt lat="42.85028" lon="1.20665">
        <ele>947.2</ele>
        <time>2024-05-12T07:25:06Z</time>
      </trkpt>
      <trkpt lat="42.85029" lon="1.20657">
        <ele>946.4</ele>
        <time>2024-05-12T07:25:07Z</time>
      </trkpt>
      <trkpt lat="42.85031" lon="1.20646">
        <ele>945.8</ele>
        <time>2024-05-12T07:25:08Z</time>
      </trkpt>
      <trkpt lat="42.85032" lon="1.20635">
        <ele>945</ele>
        <time>2024-05-12T07:25:09Z</time>
      </trkpt>
      <trkpt lat="42.85033" lon="1.20625">
        <ele>944.4</ele>
        <time>2024-05-12T07:25:10Z</time>
      </trkpt>
      <trkpt lat="42.85032" lon="1.20616">
        <ele>943.8</ele>
        <time>2024-05-12T07:25:11Z</time>
      </trkpt>
      <trkpt lat="42.85032" lon="1.20608">
        <ele>943</ele>
        <time>2024-05-12T07:25:12Z</time>
      </trkpt>
      <trkpt lat="42.85032" lon="1.20599">
        <ele>942.2</ele>
        <time>2024-05-12T07:25:13Z</time>
      </trkpt>
      <trkpt lat="42.8503" lon="1.2059">
        <ele>940.8</ele>
        <time>2024-05-12T07:25:14Z</time>
      </trkpt>
      <trkpt lat="42.8503" lon="1.20582">
        <ele>940</ele>
        <time>2024-05-12T07:25:15Z</time>
      </trkpt>
      <trkpt lat="42.85028" lon="1.20575">
        <ele>939.4</ele>
        <time>2024-05-12T07:25:16Z</time>
      </trkpt>
      <trkpt lat="42.85027" lon="1.20566">
        <ele>938.8</ele>
        <time>2024-05-12T07:25:17Z</time>
      </trkpt>
      <trkpt lat="42.85028" lon="1.20557">
        <ele>938.4</ele>
        <time>2024-05-12T07:25:18Z</time>
      </trkpt>
      <trkpt lat="42.85027" lon="1.20548">
        <ele>937.8</ele>
        <time>2024-05-12T07:25:19Z</time>
      </trkpt>
      <trkpt lat="42.85027" lon="1.20538">
        <ele>937.2</ele>
        <time>2024-05-12T07:25:20Z</time>
      </trkpt>
      <trkpt lat="42.85028" lon="1.20528">
        <ele>936.4</ele>
        <time>2024-05-12T07:25:21Z</time>
      </trkpt>
      <trkpt lat="42.85028" lon="1.20517">
        <ele>935.8</ele>
        <time>2024-05-12T07:25:22Z</time>
      </trkpt>
      <trkpt lat="42.8503" lon="1.20506">
        <ele>935.2</ele>
        <time>2024-05-12T07:25:23Z</time>
      </trkpt>
      <trkpt lat="42.85033" lon="1.20494">
        <ele>934.4</ele>
        <time>2024-05-12T07:25:24Z</time>
      </trkpt>
      <trkpt lat="42.85037" lon="1.20483">
        <ele>933.8</ele>
        <time>2024-05-12T07:25:25Z</time>
      </trkpt>
      <trkpt lat="42.85039" lon="1.20474">
        <ele>933</ele>
        <time>2024-05-12T07:25:26Z</time>
      </trkpt>
      <trkpt lat="42.85044" lon="1.20467">
        <ele>932.2</ele>
        <time>2024-05-12T07:25:27Z</time>
      </trkpt>
      <trkpt lat="42.85048" lon="1.2046">
        <ele>931.6</ele>
        <time>2024-05-12T07:25:28Z</time>
      </trkpt>
      <trkpt lat="42.85052" lon="1.20452">
        <ele>930.8</ele>
        <time>2024-05-12T07:25:29Z</time>
      </trkpt>
      <trkpt lat="42.85058" lon="1.20446">
        <ele>930</ele>
        <time>2024-05-12T07:25:30Z</time>
      </trkpt>
      <trkpt lat="42.85062" lon="1.2044">
        <ele>929.4</ele>
        <time>2024-05-12T07:25:31Z</time>
      </trkpt>
      <trkpt lat="42.85065" lon="1.20434">
        <ele>928.6</ele>
        <time>2024-05-12T07:25:32Z</time>
      </trkpt>
      <trkpt lat="42.85068" lon="1.20429">
        <ele>927.8</ele>
        <time>2024-05-12T07:25:33Z</time>
      </trkpt>
      <trkpt lat="42.85071" lon="1.20424">
        <ele>927.2</ele>
        <time>2024-05-12T07:25:34Z</time>
      </trkpt>
      <trkpt lat="42.85073" lon="1.20418">
        <ele>926.6</ele>
        <time>2024-05-12T07:25:35Z</time>
      </trkpt>
      <trkpt lat="42.85077" lon="1.20412">
        <ele>926</ele>
        <time>2024-05-12T07:25:36Z</time>
      </trkpt>
      <trkpt lat="42.8508" lon="1.20406">
        <ele>925.4</ele>
        <time>2024-05-12T07:25:37Z</time>
      </trkpt>
      <trkpt lat="42.85083" lon="1.20399">
        <ele>924.8</ele>
        <time>2024-05-12T07:25:38Z</time>
      </trkpt>
      <trkpt lat="42.85086" lon="1.20393">
        <ele>923.8</ele>
        <time>2024-05-12T07:25:39Z</time>
      </trkpt>
      <trkpt lat="42.85089" lon="1.20387">
        <ele>923.2</ele>
        <time>2024-05-12T07:25:40Z</time>
      </trkpt>
      <trkpt lat="42.85093" lon="1.2038">
        <ele>922.6</ele>
        <time>2024-05-12T07:25:41Z</time>
      </trkpt>
      <trkpt lat="42.85099" lon="1.20372">
        <ele>922</ele>
        <time>2024-05-12T07:25:42Z</time>
      </trkpt>
      <trkpt lat="42.85103" lon="1.20364">
        <ele>921.2</ele>
        <time>2024-05-12T07:25:43Z</time>
      </trkpt>
      <trkpt lat="42.85106" lon="1.20357">
        <ele>920.6</ele>
        <time>2024-05-12T07:25:44Z</time>
      </trkpt>
      <trkpt lat="42.85109" lon="1.20349">
        <ele>920</ele>
        <time>2024-05-12T07:25:45Z</time>
      </trkpt>
      <trkpt lat="42.85111" lon="1.20341">
        <ele>919.4</ele>
        <time>2024-05-12T07:25:46Z</time>
      </trkpt>
      <trkpt lat="42.85114" lon="1.20332">
        <ele>918.8</ele>
        <time>2024-05-12T07:25:47Z</time>
      </trkpt>
      <trkpt lat="42.85118" lon="1.20324">
        <ele>918</ele>
        <time>2024-05-12T07:25:48Z</time>
      </trkpt>
      <trkpt lat="42.8512" lon="1.20314">
        <ele>917.4</ele>
        <time>2024-05-12T07:25:49Z</time>
      </trkpt>
      <trkpt lat="42.85121" lon="1.20306">
        <ele>916.6</ele>
        <time>2024-05-12T07:25:50Z</time>
      </trkpt>
      <trkpt lat="42.8512" lon="1.20299">
        <ele>916</ele>
        <time>2024-05-12T07:25:51Z</time>
      </trkpt>
      <trkpt lat="42.85117" lon="1.20296">
        <ele>915.4</ele>
        <time>2024-05-12T07:25:52Z</time>
      </trkpt>
      <trkpt lat="42.85112" lon="1.20291">
        <ele>914.6</ele>
        <time>2024-05-12T07:25:53Z</time>
      </trkpt>
      <trkpt lat="42.85109" lon="1.20286">
        <ele>914</ele>
        <time>2024-05-12T07:25:54Z</time>
      </trkpt>
      <trkpt lat="42.85104" lon="1.20281">
        <ele>913.4</ele>
        <time>2024-05-12T07:25:55Z</time>
      </trkpt>
      <trkpt lat="42.85099" lon="1.20279">
        <ele>912.8</ele>
        <time>2024-05-12T07:25:56Z</time>
      </trkpt>
      <trkpt lat="42.85097" lon="1.20279">
        <ele>912.8</ele>
        <time>2024-05-12T07:25:57Z</time>
      </trkpt>
      <trkpt lat="42.85094" lon="1.2028">
        <ele>912.4</ele>
        <time>2024-05-12T07:25:58Z</time>
      </trkpt>
      <trkpt lat="42.85091" lon="1.20282">
        <ele>912</ele>
        <time>2024-05-12T07:25:59Z</time>
      </trkpt>
      <trkpt lat="42.85089" lon="1.20282">
        <ele>911.6</ele>
        <time>2024-05-12T07:26:00Z</time>
      </trkpt>
      <trkpt lat="42.8509" lon="1.20284">
        <ele>911.2</ele>
        <time>2024-05-12T07:26:01Z</time>
      </trkpt>
      <trkpt lat="42.8509" lon="1.20285">
        <ele>910.6</ele>
        <time>2024-05-12T07:26:02Z</time>
      </trkpt>
      <trkpt lat="42.85089" lon="1.20289">
        <ele>910.6</ele>
        <time>2024-05-12T07:26:04Z</time>
      </trkpt>
      <trkpt lat="42.85087" lon="1.20294">
        <ele>910.2</ele>
        <time>2024-05-12T07:26:06Z</time>
      </trkpt>
      <trkpt lat="42.85085" lon="1.20297">
        <ele>909.8</ele>
        <time>2024-05-12T07:26:07Z</time>
      </trkpt>
      <trkpt lat="42.85082" lon="1.20301">
        <ele>909.4</ele>
        <time>2024-05-12T07:26:08Z</time>
      </trkpt>
      <trkpt lat="42.8508" lon="1.20306">
        <ele>909</ele>
        <time>2024-05-12T07:26:09Z</time>
      </trkpt>
      <trkpt lat="42.85076" lon="1.2031">
        <ele>908.6</ele>
        <time>2024-05-12T07:26:10Z</time>
      </trkpt>
      <trkpt lat="42.85071" lon="1.20315">
        <ele>908.2</ele>
        <time>2024-05-12T07:26:11Z</time>
      </trkpt>
      <trkpt lat="42.85066" lon="1.20319">
        <ele>907.6</ele>
        <time>2024-05-12T07:26:12Z</time>
      </trkpt>
      <trkpt lat="42.85061" lon="1.20323">
        <ele>907.2</ele>
        <time>2024-05-12T07:26:13Z</time>
      </trkpt>
      <trkpt lat="42.85056" lon="1.20327">
        <ele>906.8</ele>
        <time>2024-05-12T07:26:14Z</time>
      </trkpt>
      <trkpt lat="42.85052" lon="1.20331">
        <ele>906.2</ele>
        <time>2024-05-12T07:26:15Z</time>
      </trkpt>
      <trkpt lat="42.85048" lon="1.20334">
        <ele>905.6</ele>
        <time>2024-05-12T07:26:16Z</time>
      </trkpt>
      <trkpt lat="42.85045" lon="1.20337">
        <ele>905</ele>
        <time>2024-05-12T07:26:17Z</time>
      </trkpt>
      <trkpt lat="42.85042" lon="1.2034">
        <ele>904.6</ele>
        <time>2024-05-12T07:26:18Z</time>
      </trkpt>
      <trkpt lat="42.85039" lon="1.20343">
        <ele>904</ele>
        <time>2024-05-12T07:26:19Z</time>
      </trkpt>
      <trkpt lat="42.85035" lon="1.20347">
        <ele>903.4</ele>
        <time>2024-05-12T07:26:20Z</time>
      </trkpt>
      <trkpt lat="42.85033" lon="1.2035">
        <ele>902.8</ele>
        <time>2024-05-12T07:26:21Z</time>
      </trkpt>
      <trkpt lat="42.85031" lon="1.20353">
        <ele>902.4</ele>
        <time>2024-05-12T07:26:22Z</time>
      </trkpt>
      <trkpt lat="42.85028" lon="1.20356">
        <ele>901.8</ele>
        <time>2024-05-12T07:26:23Z</time>
      </trkpt>
      <trkpt lat="42.85027" lon="1.20358">
        <ele>901.4</ele>
        <time>2024-05-12T07:26:24Z</time>
      </trkpt>
      <trkpt lat="42.85026" lon="1.20362">
        <ele>901</ele>
        <time>2024-05-12T07:26:25Z</time>
      </trkpt>
      <trkpt lat="42.85023" lon="1.20365">
        <ele>900.6</ele>
        <time>2024-05-12T07:26:26Z</time>
      </trkpt>
      <trkpt lat="42.8502" lon="1.20369">
        <ele>900.2</ele>
        <time>2024-05-12T07:26:27Z</time>
      </trkpt>
      <trkpt lat="42.85016" lon="1.20372">
        <ele>899.4</ele>
        <time>2024-05-12T07:26:28Z</time>
      </trkpt>
      <trkpt lat="42.85012" lon="1.20376">
        <ele>899</ele>
        <time>2024-05-12T07:26:29Z</time>
      </trkpt>
      <trkpt lat="42.85009" lon="1.20381">
        <ele>898.6</ele>
        <time>2024-05-12T07:26:30Z</time>
      </trkpt>
      <trkpt lat="42.85007" lon="1.20385">
        <ele>898.2</ele>
        <time>2024-05-12T07:26:31Z</time>
      </trkpt>
      <trkpt lat="42.85004" lon="1.20387">
        <ele>897.6</ele>
        <time>2024-05-12T07:26:32Z</time>
      </trkpt>
      <trkpt lat="42.85001" lon="1.20391">
        <ele>897</ele>
        <time>2024-05-12T07:26:33Z</time>
      </trkpt>
      <trkpt lat="42.84999" lon="1.20396">
        <ele>896.6</ele>
        <time>2024-05-12T07:26:34Z</time>
      </trkpt>
      <trkpt lat="42.84997" lon="1.204">
        <ele>896</ele>
        <time>2024-05-12T07:26:35Z</time>
      </trkpt>
      <trkpt lat="42.84995" lon="1.20404">
        <ele>895.4</ele>
        <time>2024-05-12T07:26:36Z</time>
      </trkpt>
      <trkpt lat="42.8499" lon="1.20413">
        <ele>895</ele>
        <time>2024-05-12T07:26:38Z</time>
      </trkpt>
      <trkpt lat="42.84988" lon="1.20418">
        <ele>894.6</ele>
        <time>2024-05-12T07:26:39Z</time>
      </trkpt>
      <trkpt lat="42.84986" lon="1.20422">
        <ele>894.2</ele>
        <time>2024-05-12T07:26:40Z</time>
      </trkpt>
      <trkpt lat="42.84984" lon="1.20426">
        <ele>893.6</ele>
        <time>2024-05-12T07:26:41Z</time>
      </trkpt>
      <trkpt lat="42.84982" lon="1.20429">
        <ele>893.2</ele>
        <time>2024-05-12T07:26:42Z</time>
      </trkpt>
      <trkpt lat="42.84976" lon="1.20438">
        <ele>892.8</ele>
        <time>2024-05-12T07:26:44Z</time>
      </trkpt>
      <trkpt lat="42.84974" lon="1.20441">
        <ele>892.4</ele>
        <time>2024-05-12T07:26:45Z</time>
      </trkpt>
      <trkpt lat="42.84972" lon="1.20444">
        <ele>891.8</ele>
        <time>2024-05-12T07:26:46Z</time>
      </trkpt>
      <trkpt lat="42.8497" lon="1.20447">
        <ele>891.4</ele>
        <time>2024-05-12T07:26:47Z</time>
      </trkpt>
      <trkpt lat="42.84969" lon="1.20451">
        <ele>891</ele>
        <time>2024-05-12T07:26:48Z</time>
      </trkpt>
      <trkpt lat="42.84967" lon="1.20453">
        <ele>890.6</ele>
        <time>2024-05-12T07:26:49Z</time>
      </trkpt>
      <trkpt lat="42.84967" lon="1.20455">
        <ele>890</ele>
        <time>2024-05-12T07:26:50Z</time>
      </trkpt>
      <trkpt lat="42.84967" lon="1.20457">
        <ele>889.6</ele>
        <time>2024-05-12T07:26:51Z</time>
      </trkpt>
      <trkpt lat="42.84966" lon="1.20459">
        <ele>889.2</ele>
        <time>2024-05-12T07:26:52Z</time>
      </trkpt>
      <trkpt lat="42.84965" lon="1.20459">
        <ele>888.8</ele>
        <time>2024-05-12T07:26:53Z</time>
      </trkpt>
      <trkpt lat="42.84959" lon="1.20464">
        <ele>888.8</ele>
        <time>2024-05-12T07:27:01Z</time>
      </trkpt>
      <trkpt lat="42.84957" lon="1.20467">
        <ele>888.8</ele>
        <time>2024-05-12T07:27:02Z</time>
      </trkpt>
      <trkpt lat="42.84955" lon="1.2047">
        <ele>888.2</ele>
        <time>2024-05-12T07:27:04Z</time>
      </trkpt>
      <trkpt lat="42.84954" lon="1.20471">
        <ele>887.8</ele>
        <time>2024-05-12T07:27:05Z</time>
      </trkpt>
      <trkpt lat="42.84953" lon="1.20472">
        <ele>887.4</ele>
        <time>2024-05-12T07:27:06Z</time>
      </trkpt>
      <trkpt lat="42.84952" lon="1.20473">
        <ele>887</ele>
        <time>2024-05-12T07:27:07Z</time>
      </trkpt>
      <trkpt lat="42.84951" lon="1.20475">
        <ele>886.6</ele>
        <time>2024-05-12T07:27:08Z</time>
      </trkpt>
      <trkpt lat="42.84943" lon="1.20482">
        <ele>886.6</ele>
        <time>2024-05-12T07:27:11Z</time>
      </trkpt>
      <trkpt lat="42.8493" lon="1.20501">
        <ele>886.2</ele>
        <time>2024-05-12T07:27:16Z</time>
      </trkpt>
      <trkpt lat="42.84925" lon="1.20506">
        <ele>885.6</ele>
        <time>2024-05-12T07:27:17Z</time>
      </trkpt>
      <trkpt lat="42.84921" lon="1.20509">
        <ele>884.8</ele>
        <time>2024-05-12T07:27:18Z</time>
      </trkpt>
      <trkpt lat="42.84918" lon="1.20511">
        <ele>884.4</ele>
        <time>2024-05-12T07:27:19Z</time>
      </trkpt>
      <trkpt lat="42.84914" lon="1.20514">
        <ele>883.8</ele>
        <time>2024-05-12T07:27:20Z</time>
      </trkpt>
      <trkpt lat="42.84911" lon="1.20517">
        <ele>883.4</ele>
        <time>2024-05-12T07:27:21Z</time>
      </trkpt>
      <trkpt lat="42.84906" lon="1.20519">
        <ele>883</ele>
        <time>2024-05-12T07:27:22Z</time>
      </trkpt>
      <trkpt lat="42.84901" lon="1.20523">
        <ele>882.4</ele>
        <time>2024-05-12T07:27:23Z</time>
      </trkpt>
      <trkpt lat="42.84896" lon="1.20526">
        <ele>882</ele>
        <time>2024-05-12T07:27:24Z</time>
      </trkpt>
      <trkpt lat="42.84892" lon="1.20529">
        <ele>881.4</ele>
        <time>2024-05-12T07:27:25Z</time>
      </trkpt>
      <trkpt lat="42.84888" lon="1.20532">
        <ele>881</ele>
        <time>2024-05-12T07:27:26Z</time>
      </trkpt>
      <trkpt lat="42.84884" lon="1.20534">
        <ele>880.6</ele>
        <time>2024-05-12T07:27:27Z</time>
      </trkpt>
      <trkpt lat="42.84881" lon="1.20539">
        <ele>880</ele>
        <time>2024-05-12T07:27:28Z</time>
      </trkpt>
      <trkpt lat="42.84878" lon="1.20543">
        <ele>879.4</ele>
        <time>2024-05-12T07:27:29Z</time>
      </trkpt>
      <trkpt lat="42.84873" lon="1.20545">
        <ele>879</ele>
        <time>2024-05-12T07:27:30Z</time>
      </trkpt>
      <trkpt lat="42.8487" lon="1.20548">
        <ele>878.4</ele>
        <time>2024-05-12T07:27:31Z</time>
      </trkpt>
      <trkpt lat="42.84866" lon="1.20552">
        <ele>877.8</ele>
        <time>2024-05-12T07:27:32Z</time>
      </trkpt>
      <trkpt lat="42.84861" lon="1.20555">
        <ele>877.4</ele>
        <time>2024-05-12T07:27:33Z</time>
      </trkpt>
      <trkpt lat="42.84858" lon="1.20559">
        <ele>876.8</ele>
        <time>2024-05-12T07:27:34Z</time>
      </trkpt>
      <trkpt lat="42.84855" lon="1.20563">
        <ele>876.4</ele>
        <time>2024-05-12T07:27:35Z</time>
      </trkpt>
      <trkpt lat="42.84852" lon="1.20566">
        <ele>876</ele>
        <time>2024-05-12T07:27:36Z</time>
      </trkpt>
      <trkpt lat="42.84849" lon="1.20568">
        <ele>875.6</ele>
        <time>2024-05-12T07:27:37Z</time>
      </trkpt>
      <trkpt lat="42.84844" lon="1.20571">
        <ele>875.2</ele>
        <time>2024-05-12T07:27:38Z</time>
      </trkpt>
      <trkpt lat="42.84839" lon="1.20573">
        <ele>874.8</ele>
        <time>2024-05-12T07:27:39Z</time>
      </trkpt>
      <trkpt lat="42.84834" lon="1.20575">
        <ele>874.2</ele>
        <time>2024-05-12T07:27:40Z</time>
      </trkpt>
      <trkpt lat="42.84829" lon="1.20577">
        <ele>873.8</ele>
        <time>2024-05-12T07:27:41Z</time>
      </trkpt>
      <trkpt lat="42.84824" lon="1.20579">
        <ele>873.2</ele>
        <time>2024-05-12T07:27:42Z</time>
      </trkpt>
      <trkpt lat="42.8482" lon="1.20581">
        <ele>872</ele>
        <time>2024-05-12T07:27:43Z</time>
      </trkpt>
      <trkpt lat="42.84818" lon="1.20582">
        <ele>871.4</ele>
        <time>2024-05-12T07:27:44Z</time>
      </trkpt>
      <trkpt lat="42.84815" lon="1.20583">
        <ele>870.8</ele>
        <time>2024-05-12T07:27:45Z</time>
      </trkpt>
      <trkpt lat="42.84814" lon="1.20585">
        <ele>870.2</ele>
        <time>2024-05-12T07:27:46Z</time>
      </trkpt>
      <trkpt lat="42.84813" lon="1.20586">
        <ele>870.2</ele>
        <time>2024-05-12T07:27:48Z</time>
      </trkpt>
      <trkpt lat="42.8481" lon="1.20586">
        <ele>870.2</ele>
        <time>2024-05-12T07:27:51Z</time>
      </trkpt>
      <trkpt lat="42.84808" lon="1.20587">
        <ele>869.8</ele>
        <time>2024-05-12T07:27:53Z</time>
      </trkpt>
      <trkpt lat="42.84804" lon="1.20587">
        <ele>869.4</ele>
        <time>2024-05-12T07:27:54Z</time>
      </trkpt>
      <trkpt lat="42.848" lon="1.20584">
        <ele>869</ele>
        <time>2024-05-12T07:27:55Z</time>
      </trkpt>
      <trkpt lat="42.84797" lon="1.2058">
        <ele>868.6</ele>
        <time>2024-05-12T07:27:56Z</time>
      </trkpt>
      <trkpt lat="42.84793" lon="1.20578">
        <ele>868</ele>
        <time>2024-05-12T07:27:57Z</time>
      </trkpt>
      <trkpt lat="42.84789" lon="1.20578">
        <ele>867.4</ele>
        <time>2024-05-12T07:27:58Z</time>
      </trkpt>
      <trkpt lat="42.84785" lon="1.20577">
        <ele>867</ele>
        <time>2024-05-12T07:27:59Z</time>
      </trkpt>
      <trkpt lat="42.84781" lon="1.20575">
        <ele>866.4</ele>
        <time>2024-05-12T07:28:00Z</time>
      </trkpt>
      <trkpt lat="42.84776" lon="1.2057">
        <ele>866</ele>
        <time>2024-05-12T07:28:01Z</time>
      </trkpt>
      <trkpt lat="42.84773" lon="1.20566">
        <ele>865.4</ele>
        <time>2024-05-12T07:28:02Z</time>
      </trkpt>
      <trkpt lat="42.84771" lon="1.20561">
        <ele>865</ele>
        <time>2024-05-12T07:28:03Z</time>
      </trkpt>
      <trkpt lat="42.84767" lon="1.20558">
        <ele>864.6</ele>
        <time>2024-05-12T07:28:04Z</time>
      </trkpt>
      <trkpt lat="42.84763" lon="1.20555">
        <ele>864</ele>
        <time>2024-05-12T07:28:05Z</time>
      </trkpt>
      <trkpt lat="42.8476" lon="1.20549">
        <ele>863.6</ele>
        <time>2024-05-12T07:28:06Z</time>
      </trkpt>
      <trkpt lat="42.84758" lon="1.20543">
        <ele>863</ele>
        <time>2024-05-12T07:28:07Z</time>
      </trkpt>
      <trkpt lat="42.84756" lon="1.20537">
        <ele>861.8</ele>
        <time>2024-05-12T07:28:08Z</time>
      </trkpt>
      <trkpt lat="42.84753" lon="1.20536">
        <ele>861.2</ele>
        <time>2024-05-12T07:28:09Z</time>
      </trkpt>
      <trkpt lat="42.84752" lon="1.20538">
        <ele>860.6</ele>
        <time>2024-05-12T07:28:10Z</time>
      </trkpt>
      <trkpt lat="42.84752" lon="1.20541">
        <ele>859.8</ele>
        <time>2024-05-12T07:28:11Z</time>
      </trkpt>
      <trkpt lat="42.84751" lon="1.20543">
        <ele>859.2</ele>
        <time>2024-05-12T07:28:12Z</time>
      </trkpt>
      <trkpt lat="42.8475" lon="1.20546">
        <ele>859.2</ele>
        <time>2024-05-12T07:28:13Z</time>
      </trkpt>
      <trkpt lat="42.8474" lon="1.2055">
        <ele>858.8</ele>
        <time>2024-05-12T07:28:17Z</time>
      </trkpt>
      <trkpt lat="42.84738" lon="1.20551">
        <ele>858.4</ele>
        <time>2024-05-12T07:28:18Z</time>
      </trkpt>
      <trkpt lat="42.84734" lon="1.20552">
        <ele>858</ele>
        <time>2024-05-12T07:28:19Z</time>
      </trkpt>
      <trkpt lat="42.84731" lon="1.20553">
        <ele>857.6</ele>
        <time>2024-05-12T07:28:20Z</time>
      </trkpt>
      <trkpt lat="42.84728" lon="1.20553">
        <ele>857.2</ele>
        <time>2024-05-12T07:28:21Z</time>
      </trkpt>
      <trkpt lat="42.84727" lon="1.20556">
        <ele>857.2</ele>
        <time>2024-05-12T07:28:22Z</time>
      </trkpt>
      <trkpt lat="42.84725" lon="1.20557">
        <ele>857.2</ele>
        <time>2024-05-12T07:28:23Z</time>
      </trkpt>
      <trkpt lat="42.84717" lon="1.20561">
        <ele>857.2</ele>
        <time>2024-05-12T07:28:26Z</time>
      </trkpt>
      <trkpt lat="42.84706" lon="1.20561">
        <ele>857.2</ele>
        <time>2024-05-12T07:28:29Z</time>
      </trkpt>
      <trkpt lat="42.84697" lon="1.20554">
        <ele>857.2</ele>
        <time>2024-05-12T07:28:31Z</time>
      </trkpt>
      <trkpt lat="42.84692" lon="1.2055">
        <ele>856.2</ele>
        <time>2024-05-12T07:28:32Z</time>
      </trkpt>
      <trkpt lat="42.84686" lon="1.20546">
        <ele>855.8</ele>
        <time>2024-05-12T07:28:33Z</time>
      </trkpt>
      <trkpt lat="42.84683" lon="1.20541">
        <ele>855.4</ele>
        <time>2024-05-12T07:28:34Z</time>
      </trkpt>
      <trkpt lat="42.84682" lon="1.20535">
        <ele>854.8</ele>
        <time>2024-05-12T07:28:35Z</time>
      </trkpt>
      <trkpt lat="42.84685" lon="1.20528">
        <ele>854.2</ele>
        <time>2024-05-12T07:28:36Z</time>
      </trkpt>
      <trkpt lat="42.84685" lon="1.20521">
        <ele>853.6</ele>
        <time>2024-05-12T07:28:37Z</time>
      </trkpt>
      <trkpt lat="42.84685" lon="1.20515">
        <ele>852.8</ele>
        <time>2024-05-12T07:28:38Z</time>
      </trkpt>
      <trkpt lat="42.84685" lon="1.20509">
        <ele>852.2</ele>
        <time>2024-05-12T07:28:39Z</time>
      </trkpt>
      <trkpt lat="42.84686" lon="1.20505">
        <ele>851.8</ele>
        <time>2024-05-12T07:28:40Z</time>
      </trkpt>
      <trkpt lat="42.84687" lon="1.20498">
        <ele>851.4</ele>
        <time>2024-05-12T07:28:41Z</time>
      </trkpt>
      <trkpt lat="42.84687" lon="1.20492">
        <ele>851</ele>
        <time>2024-05-12T07:28:42Z</time>
      </trkpt>
      <trkpt lat="42.84687" lon="1.20484">
        <ele>850.6</ele>
        <time>2024-05-12T07:28:43Z</time>
      </trkpt>
      <trkpt lat="42.84687" lon="1.20476">
        <ele>850</ele>
        <time>2024-05-12T07:28:44Z</time>
      </trkpt>
      <trkpt lat="42.84686" lon="1.20472">
        <ele>849.4</ele>
        <time>2024-05-12T07:28:45Z</time>
      </trkpt>
      <trkpt lat="42.84683" lon="1.20469">
        <ele>849</ele>
        <time>2024-05-12T07:28:46Z</time>
      </trkpt>
      <trkpt lat="42.84681" lon="1.20466">
        <ele>848.4</ele>
        <time>2024-05-12T07:28:47Z</time>
      </trkpt>
      <trkpt lat="42.84682" lon="1.20462">
        <ele>847.8</ele>
        <time>2024-05-12T07:28:48Z</time>
      </trkpt>
      <trkpt lat="42.84687" lon="1.20449">
        <ele>847.8</ele>
        <time>2024-05-12T07:28:50Z</time>
      </trkpt>
      <trkpt lat="42.84687" lon="1.20437">
        <ele>847.4</ele>
        <time>2024-05-12T07:28:52Z</time>
      </trkpt>
      <trkpt lat="42.84687" lon="1.20432">
        <ele>847</ele>
        <time>2024-05-12T07:28:53Z</time>
      </trkpt>
      <trkpt lat="42.84686" lon="1.20429">
        <ele>846.6</ele>
        <time>2024-05-12T07:28:54Z</time>
      </trkpt>
      <trkpt lat="42.84684" lon="1.20425">
        <ele>846.2</ele>
        <time>2024-05-12T07:28:55Z</time>
      </trkpt>
      <trkpt lat="42.84684" lon="1.20421">
        <ele>845.6</ele>
        <time>2024-05-12T07:28:56Z</time>
      </trkpt>
      <trkpt lat="42.84684" lon="1.20414">
        <ele>845.2</ele>
        <time>2024-05-12T07:28:57Z</time>
      </trkpt>
      <trkpt lat="42.84683" lon="1.20407">
        <ele>844.8</ele>
        <time>2024-05-12T07:28:58Z</time>
      </trkpt>
      <trkpt lat="42.84684" lon="1.20402">
        <ele>844.4</ele>
        <time>2024-05-12T07:28:59Z</time>
      </trkpt>
      <trkpt lat="42.84685" lon="1.20396">
        <ele>844</ele>
        <time>2024-05-12T07:29:00Z</time>
      </trkpt>
      <trkpt lat="42.84685" lon="1.20389">
        <ele>843.4</ele>
        <time>2024-05-12T07:29:01Z</time>
      </trkpt>
      <trkpt lat="42.84686" lon="1.20382">
        <ele>843.4</ele>
        <time>2024-05-12T07:29:02Z</time>
      </trkpt>
      <trkpt lat="42.84687" lon="1.20373">
        <ele>843</ele>
        <time>2024-05-12T07:29:03Z</time>
      </trkpt>
      <trkpt lat="42.84688" lon="1.20363">
        <ele>842.6</ele>
        <time>2024-05-12T07:29:04Z</time>
      </trkpt>
      <trkpt lat="42.84689" lon="1.20352">
        <ele>842.2</ele>
        <time>2024-05-12T07:29:05Z</time>
      </trkpt>
      <trkpt lat="42.8469" lon="1.20341">
        <ele>841.4</ele>
        <time>2024-05-12T07:29:06Z</time>
      </trkpt>
      <trkpt lat="42.84691" lon="1.2033">
        <ele>840.8</ele>
        <time>2024-05-12T07:29:07Z</time>
      </trkpt>
      <trkpt lat="42.84694" lon="1.20321">
        <ele>840.2</ele>
        <time>2024-05-12T07:29:08Z</time>
      </trkpt>
      <trkpt lat="42.84696" lon="1.20312">
        <ele>839.4</ele>
        <time>2024-05-12T07:29:09Z</time>
      </trkpt>
      <trkpt lat="42.84696" lon="1.20302">
        <ele>838.6</ele>
        <time>2024-05-12T07:29:10Z</time>
      </trkpt>
      <trkpt lat="42.84697" lon="1.20293">
        <ele>837.8</ele>
        <time>2024-05-12T07:29:11Z</time>
      </trkpt>
      <trkpt lat="42.84698" lon="1.20287">
        <ele>837</ele>
        <time>2024-05-12T07:29:12Z</time>
      </trkpt>
      <trkpt lat="42.847" lon="1.20279">
        <ele>836.2</ele>
        <time>2024-05-12T07:29:13Z</time>
      </trkpt>
      <trkpt lat="42.84701" lon="1.2027">
        <ele>835.4</ele>
        <time>2024-05-12T07:29:14Z</time>
      </trkpt>
      <trkpt lat="42.84702" lon="1.20261">
        <ele>834.6</ele>
        <time>2024-05-12T07:29:15Z</time>
      </trkpt>
      <trkpt lat="42.84703" lon="1.20252">
        <ele>834</ele>
        <time>2024-05-12T07:29:16Z</time>
      </trkpt>
      <trkpt lat="42.84703" lon="1.20242">
        <ele>833.2</ele>
        <time>2024-05-12T07:29:17Z</time>
      </trkpt>
      <trkpt lat="42.84703" lon="1.20234">
        <ele>832.4</ele>
        <time>2024-05-12T07:29:18Z</time>
      </trkpt>
      <trkpt lat="42.84702" lon="1.20226">
        <ele>831.6</ele>
        <time>2024-05-12T07:29:19Z</time>
      </trkpt>
      <trkpt lat="42.84698" lon="1.20217">
        <ele>830.8</ele>
        <time>2024-05-12T07:29:20Z</time>
      </trkpt>
      <trkpt lat="42.84697" lon="1.2021">
        <ele>830</ele>
        <time>2024-05-12T07:29:21Z</time>
      </trkpt>
      <trkpt lat="42.84696" lon="1.20202">
        <ele>828.4</ele>
        <time>2024-05-12T07:29:22Z</time>
      </trkpt>
      <trkpt lat="42.84694" lon="1.20195">
        <ele>827.6</ele>
        <time>2024-05-12T07:29:23Z</time>
      </trkpt>
      <trkpt lat="42.84693" lon="1.20192">
        <ele>827</ele>
        <time>2024-05-12T07:29:24Z</time>
      </trkpt>
      <trkpt lat="42.8469" lon="1.20187">
        <ele>826.4</ele>
        <time>2024-05-12T07:29:25Z</time>
      </trkpt>
      <trkpt lat="42.84687" lon="1.20181">
        <ele>825.8</ele>
        <time>2024-05-12T07:29:26Z</time>
      </trkpt>
      <trkpt lat="42.84684" lon="1.20175">
        <ele>825</ele>
        <time>2024-05-12T07:29:27Z</time>
      </trkpt>
      <trkpt lat="42.84681" lon="1.2017">
        <ele>824.2</ele>
        <time>2024-05-12T07:29:28Z</time>
      </trkpt>
      <trkpt lat="42.84679" lon="1.20166">
        <ele>823.6</ele>
        <time>2024-05-12T07:29:29Z</time>
      </trkpt>
      <trkpt lat="42.84676" lon="1.20163">
        <ele>822.8</ele>
        <time>2024-05-12T07:29:30Z</time>
      </trkpt>
      <trkpt lat="42.84674" lon="1.20159">
        <ele>822</ele>
        <time>2024-05-12T07:29:31Z</time>
      </trkpt>
      <trkpt lat="42.84671" lon="1.20155">
        <ele>821.4</ele>
        <time>2024-05-12T07:29:32Z</time>
      </trkpt>
      <trkpt lat="42.84668" lon="1.20152">
        <ele>820.6</ele>
        <time>2024-05-12T07:29:33Z</time>
      </trkpt>
      <trkpt lat="42.84665" lon="1.20149">
        <ele>819.8</ele>
        <time>2024-05-12T07:29:34Z</time>
      </trkpt>
      <trkpt lat="42.84662" lon="1.20145">
        <ele>819.4</ele>
        <time>2024-05-12T07:29:35Z</time>
      </trkpt>
      <trkpt lat="42.8466" lon="1.20141">
        <ele>819</ele>
        <time>2024-05-12T07:29:36Z</time>
      </trkpt>
      <trkpt lat="42.84658" lon="1.20137">
        <ele>818.4</ele>
        <time>2024-05-12T07:29:37Z</time>
      </trkpt>
      <trkpt lat="42.84655" lon="1.20132">
        <ele>818</ele>
        <time>2024-05-12T07:29:38Z</time>
      </trkpt>
      <trkpt lat="42.84653" lon="1.20128">
        <ele>817.6</ele>
        <time>2024-05-12T07:29:39Z</time>
      </trkpt>
      <trkpt lat="42.84651" lon="1.20122">
        <ele>817.2</ele>
        <time>2024-05-12T07:29:40Z</time>
      </trkpt>
      <trkpt lat="42.84648" lon="1.20118">
        <ele>816.6</ele>
        <time>2024-05-12T07:29:41Z</time>
      </trkpt>
      <trkpt lat="42.84647" lon="1.20114">
        <ele>816.2</ele>
        <time>2024-05-12T07:29:42Z</time>
      </trkpt>
      <trkpt lat="42.84646" lon="1.2011">
        <ele>815.8</ele>
        <time>2024-05-12T07:29:43Z</time>
      </trkpt>
      <trkpt lat="42.84642" lon="1.20105">
        <ele>815.4</ele>
        <time>2024-05-12T07:29:44Z</time>
      </trkpt>
      <trkpt lat="42.84641" lon="1.20097">
        <ele>814.8</ele>
        <time>2024-05-12T07:29:45Z</time>
      </trkpt>
      <trkpt lat="42.84642" lon="1.20089">
        <ele>814.4</ele>
        <time>2024-05-12T07:29:46Z</time>
      </trkpt>
      <trkpt lat="42.84644" lon="1.20081">
        <ele>813</ele>
        <time>2024-05-12T07:29:47Z</time>
      </trkpt>
      <trkpt lat="42.84647" lon="1.20071">
        <ele>812.4</ele>
        <time>2024-05-12T07:29:48Z</time>
      </trkpt>
      <trkpt lat="42.84649" lon="1.20059">
        <ele>811.6</ele>
        <time>2024-05-12T07:29:49Z</time>
      </trkpt>
      <trkpt lat="42.8465" lon="1.20048">
        <ele>810.8</ele>
        <time>2024-05-12T07:29:50Z</time>
      </trkpt>
      <trkpt lat="42.84652" lon="1.20036">
        <ele>810.2</ele>
        <time>2024-05-12T07:29:51Z</time>
      </trkpt>
      <trkpt lat="42.84655" lon="1.20025">
        <ele>809.4</ele>
        <time>2024-05-12T07:29:52Z</time>
      </trkpt>
      <trkpt lat="42.84658" lon="1.20013">
        <ele>808.6</ele>
        <time>2024-05-12T07:29:53Z</time>
      </trkpt>
      <trkpt lat="42.8466" lon="1.20003">
        <ele>808</ele>
        <time>2024-05-12T07:29:54Z</time>
      </trkpt>
      <trkpt lat="42.84661" lon="1.19997">
        <ele>807.2</ele>
        <time>2024-05-12T07:29:55Z</time>
      </trkpt>
      <trkpt lat="42.84661" lon="1.19995">
        <ele>806.4</ele>
        <time>2024-05-12T07:29:56Z</time>
      </trkpt>
      <trkpt lat="42.84663" lon="1.19995">
        <ele>805.6</ele>
        <time>2024-05-12T07:29:57Z</time>
      </trkpt>
      <trkpt lat="42.84663" lon="1.19995">
        <ele>805</ele>
        <time>2024-05-12T07:29:58Z</time>
      </trkpt>
      <trkpt lat="42.84659" lon="1.19995">
        <ele>812.4</ele>
        <time>2024-05-12T07:37:10Z</time>
      </trkpt>
      <trkpt lat="42.84658" lon="1.20001">
        <ele>812.4</ele>
        <time>2024-05-12T07:37:12Z</time>
      </trkpt>
      <trkpt lat="42.84659" lon="1.20005">
        <ele>812.4</ele>
        <time>2024-05-12T07:37:13Z</time>
      </trkpt>
      <trkpt lat="42.84661" lon="1.20015">
        <ele>812.4</ele>
        <time>2024-05-12T07:37:15Z</time>
      </trkpt>
      <trkpt lat="42.84659" lon="1.2004">
        <ele>812</ele>
        <time>2024-05-12T07:37:19Z</time>
      </trkpt>
      <trkpt lat="42.84658" lon="1.20046">
        <ele>811.6</ele>
        <time>2024-05-12T07:37:20Z</time>
      </trkpt>
      <trkpt lat="42.84658" lon="1.20051">
        <ele>811.2</ele>
        <time>2024-05-12T07:37:21Z</time>
      </trkpt>
      <trkpt lat="42.84658" lon="1.20055">
        <ele>810.8</ele>
        <time>2024-05-12T07:37:22Z</time>
      </trkpt>
      <trkpt lat="42.84657" lon="1.20058">
        <ele>810.4</ele>
        <time>2024-05-12T07:37:23Z</time>
      </trkpt>
      <trkpt lat="42.84655" lon="1.2006">
        <ele>809.8</ele>
        <time>2024-05-12T07:37:24Z</time>
      </trkpt>
      <trkpt lat="42.84654" lon="1.20062">
        <ele>809.4</ele>
        <time>2024-05-12T07:37:25Z</time>
      </trkpt>
      <trkpt lat="42.84653" lon="1.20065">
        <ele>809</ele>
        <time>2024-05-12T07:37:26Z</time>
      </trkpt>
      <trkpt lat="42.84652" lon="1.20066">
        <ele>808.6</ele>
        <time>2024-05-12T07:37:27Z</time>
      </trkpt>
      <trkpt lat="42.84652" lon="1.20068">
        <ele>808.2</ele>
        <time>2024-05-12T07:37:28Z</time>
      </trkpt>
      <trkpt lat="42.84651" lon="1.20069">
        <ele>808.2</ele>
        <time>2024-05-12T07:37:29Z</time>
      </trkpt>
      <trkpt lat="42.84651" lon="1.2007">
        <ele>808.2</ele>
        <time>2024-05-12T07:37:30Z</time>
      </trkpt>
      <trkpt lat="42.84654" lon="1.20071">
        <ele>806.8</ele>
        <time>2024-05-12T07:37:33Z</time>
      </trkpt>
      <trkpt lat="42.84656" lon="1.20071">
        <ele>806.4</ele>
        <time>2024-05-12T07:37:34Z</time>
      </trkpt>
      <trkpt lat="42.84661" lon="1.20073">
        <ele>805.8</ele>
        <time>2024-05-12T07:37:35Z</time>
      </trkpt>
      <trkpt lat="42.84667" lon="1.20075">
        <ele>804.8</ele>
        <time>2024-05-12T07:37:36Z</time>
      </trkpt>
      <trkpt lat="42.84673" lon="1.20076">
        <ele>804.2</ele>
        <time>2024-05-12T07:37:37Z</time>
      </trkpt>
      <trkpt lat="42.8468" lon="1.20078">
        <ele>803.4</ele>
        <time>2024-05-12T07:37:38Z</time>
      </trkpt>
      <trkpt lat="42.84686" lon="1.2008">
        <ele>802.8</ele>
        <time>2024-05-12T07:37:39Z</time>
      </trkpt>
      <trkpt lat="42.84693" lon="1.20083">
        <ele>802</ele>
        <time>2024-05-12T07:37:40Z</time>
      </trkpt>
      <trkpt lat="42.84702" lon="1.20086">
        <ele>801.4</ele>
        <time>2024-05-12T07:37:41Z</time>
      </trkpt>
      <trkpt lat="42.84709" lon="1.20088">
        <ele>800.6</ele>
        <time>2024-05-12T07:37:42Z</time>
      </trkpt>
      <trkpt lat="42.84717" lon="1.2009">
        <ele>799.8</ele>
        <time>2024-05-12T07:37:43Z</time>
      </trkpt>
      <trkpt lat="42.84725" lon="1.20091">
        <ele>799</ele>
        <time>2024-05-12T07:37:44Z</time>
      </trkpt>
      <trkpt lat="42.84732" lon="1.20093">
        <ele>798.2</ele>
        <time>2024-05-12T07:37:45Z</time>
      </trkpt>
      <trkpt lat="42.84739" lon="1.20094">
        <ele>797.4</ele>
        <time>2024-05-12T07:37:46Z</time>
      </trkpt>
      <trkpt lat="42.84745" lon="1.20097">
        <ele>796.6</ele>
        <time>2024-05-12T07:37:47Z</time>
      </trkpt>
      <trkpt lat="42.84751" lon="1.20102">
        <ele>795.6</ele>
        <time>2024-05-12T07:37:48Z</time>
      </trkpt>
      <trkpt lat="42.84756" lon="1.20106">
        <ele>794.8</ele>
        <time>2024-05-12T07:37:49Z</time>
      </trkpt>
      <trkpt lat="42.8476" lon="1.20111">
        <ele>794.2</ele>
        <time>2024-05-12T07:37:50Z</time>
      </trkpt>
      <trkpt lat="42.84763" lon="1.20117">
        <ele>793.4</ele>
        <time>2024-05-12T07:37:51Z</time>
      </trkpt>
      <trkpt lat="42.84767" lon="1.20124">
        <ele>792.6</ele>
        <time>2024-05-12T07:37:52Z</time>
      </trkpt>
      <trkpt lat="42.8477" lon="1.20131">
        <ele>792</ele>
        <time>2024-05-12T07:37:53Z</time>
      </trkpt>
      <trkpt lat="42.84774" lon="1.20138">
        <ele>791.4</ele>
        <time>2024-05-12T07:37:54Z</time>
      </trkpt>
      <trkpt lat="42.84778" lon="1.20146">
        <ele>790.8</ele>
        <time>2024-05-12T07:37:55Z</time>
      </trkpt>
      <trkpt lat="42.84782" lon="1.20155">
        <ele>790.2</ele>
        <time>2024-05-12T07:37:56Z</time>
      </trkpt>
      <trkpt lat="42.84786" lon="1.20164">
        <ele>789.6</ele>
        <time>2024-05-12T07:37:57Z</time>
      </trkpt>
      <trkpt lat="42.84789" lon="1.20174">
        <ele>789</ele>
        <time>2024-05-12T07:37:58Z</time>
      </trkpt>
      <trkpt lat="42.84793" lon="1.20183">
        <ele>788.6</ele>
        <time>2024-05-12T07:37:59Z</time>
      </trkpt>
      <trkpt lat="42.84797" lon="1.20192">
        <ele>788</ele>
        <time>2024-05-12T07:38:00Z</time>
      </trkpt>
      <trkpt lat="42.848" lon="1.202">
        <ele>786.8</ele>
        <time>2024-05-12T07:38:01Z</time>
      </trkpt>
      <trkpt lat="42.84804" lon="1.20208">
        <ele>786.4</ele>
        <time>2024-05-12T07:38:02Z</time>
      </trkpt>
      <trkpt lat="42.84807" lon="1.20214">
        <ele>785.8</ele>
        <time>2024-05-12T07:38:03Z</time>
      </trkpt>
      <trkpt lat="42.8481" lon="1.20217">
        <ele>785.2</ele>
        <time>2024-05-12T07:38:04Z</time>
      </trkpt>
      <trkpt lat="42.84811" lon="1.20219">
        <ele>784.6</ele>
        <time>2024-05-12T07:38:05Z</time>
      </trkpt>
      <trkpt lat="42.84813" lon="1.2022">
        <ele>784.2</ele>
        <time>2024-05-12T07:38:06Z</time>
      </trkpt>
      <trkpt lat="42.84814" lon="1.20222">
        <ele>783.6</ele>
        <time>2024-05-12T07:38:07Z</time>
      </trkpt>
      <trkpt lat="42.84815" lon="1.2022">
        <ele>783</ele>
        <time>2024-05-12T07:38:08Z</time>
      </trkpt>
      <trkpt lat="42.84816" lon="1.20217">
        <ele>783</ele>
        <time>2024-05-12T07:38:09Z</time>
      </trkpt>
      <trkpt lat="42.84816" lon="1.20212">
        <ele>782.6</ele>
        <time>2024-05-12T07:38:10Z</time>
      </trkpt>
      <trkpt lat="42.84817" lon="1.20207">
        <ele>782.2</ele>
        <time>2024-05-12T07:38:11Z</time>
      </trkpt>
      <trkpt lat="42.84817" lon="1.20201">
        <ele>781.6</ele>
        <time>2024-05-12T07:38:12Z</time>
      </trkpt>
      <trkpt lat="42.84817" lon="1.20196">
        <ele>781.2</ele>
        <time>2024-05-12T07:38:13Z</time>
      </trkpt>
      <trkpt lat="42.84816" lon="1.20189">
        <ele>780.8</ele>
        <time>2024-05-12T07:38:14Z</time>
      </trkpt>
      <trkpt lat="42.84815" lon="1.2018">
        <ele>780.4</ele>
        <time>2024-05-12T07:38:15Z</time>
      </trkpt>
      <trkpt lat="42.84814" lon="1.20172">
        <ele>780</ele>
        <time>2024-05-12T07:38:16Z</time>
      </trkpt>
      <trkpt lat="42.84814" lon="1.20163">
        <ele>779.6</ele>
        <time>2024-05-12T07:38:17Z</time>
      </trkpt>
      <trkpt lat="42.84814" lon="1.20155">
        <ele>779</ele>
        <time>2024-05-12T07:38:18Z</time>
      </trkpt>
      <trkpt lat="42.84813" lon="1.20148">
        <ele>778.4</ele>
        <time>2024-05-12T07:38:19Z</time>
      </trkpt>
      <trkpt lat="42.84813" lon="1.20142">
        <ele>777.8</ele>
        <time>2024-05-12T07:38:20Z</time>
      </trkpt>
      <trkpt lat="42.84813" lon="1.20138">
        <ele>777.2</ele>
        <time>2024-05-12T07:38:21Z</time>
      </trkpt>
      <trkpt lat="42.84813" lon="1.20136">
        <ele>776.6</ele>
        <time>2024-05-12T07:38:22Z</time>
      </trkpt>
      <trkpt lat="42.84812" lon="1.20136">
        <ele>776</ele>
        <time>2024-05-12T07:38:23Z</time>
      </trkpt>
      <trkpt lat="42.84801" lon="1.20127">
        <ele>774.2</ele>
        <time>2024-05-12T07:39:34Z</time>
      </trkpt>
      <trkpt lat="42.848" lon="1.20125">
        <ele>774.2</ele>
        <time>2024-05-12T07:39:35Z</time>
      </trkpt>
      <trkpt lat="42.84798" lon="1.20111">
        <ele>774.2</ele>
        <time>2024-05-12T07:39:38Z</time>
      </trkpt>
      <trkpt lat="42.84796" lon="1.20104">
        <ele>774.2</ele>
        <time>2024-05-12T07:39:39Z</time>
      </trkpt>
      <trkpt lat="42.84794" lon="1.20097">
        <ele>774.2</ele>
        <time>2024-05-12T07:39:40Z</time>
      </trkpt>
      <trkpt lat="42.84791" lon="1.20092">
        <ele>773.6</ele>
        <time>2024-05-12T07:39:41Z</time>
      </trkpt>
      <trkpt lat="42.84789" lon="1.20088">
        <ele>773.2</ele>
        <time>2024-05-12T07:39:42Z</time>
      </trkpt>
      <trkpt lat="42.84787" lon="1.20084">
        <ele>772.8</ele>
        <time>2024-05-12T07:39:43Z</time>
      </trkpt>
      <trkpt lat="42.84785" lon="1.2008">
        <ele>772.2</ele>
        <time>2024-05-12T07:39:44Z</time>
      </trkpt>
      <trkpt lat="42.84783" lon="1.20076">
        <ele>771.8</ele>
        <time>2024-05-12T07:39:45Z</time>
      </trkpt>
      <trkpt lat="42.84781" lon="1.20074">
        <ele>771.4</ele>
        <time>2024-05-12T07:39:46Z</time>
      </trkpt>
      <trkpt lat="42.84778" lon="1.20072">
        <ele>771</ele>
        <time>2024-05-12T07:39:47Z</time>
      </trkpt>
      <trkpt lat="42.84776" lon="1.2007">
        <ele>770.4</ele>
        <time>2024-05-12T07:39:48Z</time>
      </trkpt>
      <trkpt lat="42.84773" lon="1.20068">
        <ele>770</ele>
        <time>2024-05-12T07:39:49Z</time>
      </trkpt>
      <trkpt lat="42.84771" lon="1.20066">
        <ele>769.6</ele>
        <time>2024-05-12T07:39:50Z</time>
      </trkpt>
      <trkpt lat="42.84766" lon="1.20063">
        <ele>769.2</ele>
        <time>2024-05-12T07:39:52Z</time>
      </trkpt>
      <trkpt lat="42.84764" lon="1.20062">
        <ele>768.6</ele>
        <time>2024-05-12T07:39:53Z</time>
      </trkpt>
      <trkpt lat="42.84762" lon="1.20061">
        <ele>768.2</ele>
        <time>2024-05-12T07:39:54Z</time>
      </trkpt>
      <trkpt lat="42.8476" lon="1.2006">
        <ele>767.8</ele>
        <time>2024-05-12T07:39:55Z</time>
      </trkpt>
      <trkpt lat="42.84759" lon="1.20059">
        <ele>767.2</ele>
        <time>2024-05-12T07:39:56Z</time>
      </trkpt>
      <trkpt lat="42.84754" lon="1.20056">
        <ele>766.8</ele>
        <time>2024-05-12T07:39:59Z</time>
      </trkpt>
      <trkpt lat="42.84754" lon="1.20056">
        <ele>766.4</ele>
        <time>2024-05-12T07:40:00Z</time>
      </trkpt>
      <trkpt lat="42.84752" lon="1.20053">
        <ele>766</ele>
        <time>2024-05-12T07:40:01Z</time>
      </trkpt>
      <trkpt lat="42.84752" lon="1.2005">
        <ele>765.6</ele>
        <time>2024-05-12T07:40:02Z</time>
      </trkpt>
      <trkpt lat="42.84751" lon="1.20048">
        <ele>765.2</ele>
        <time>2024-05-12T07:40:03Z</time>
      </trkpt>
      <trkpt lat="42.84746" lon="1.20038">
        <ele>764.8</ele>
        <time>2024-05-12T07:40:06Z</time>
      </trkpt>
      <trkpt lat="42.84743" lon="1.20034">
        <ele>764.4</ele>
        <time>2024-05-12T07:40:07Z</time>
      </trkpt>
      <trkpt lat="42.84741" lon="1.20032">
        <ele>764</ele>
        <time>2024-05-12T07:40:08Z</time>
      </trkpt>
      <trkpt lat="42.84739" lon="1.20031">
        <ele>763.6</ele>
        <time>2024-05-12T07:40:09Z</time>
      </trkpt>
      <trkpt lat="42.84739" lon="1.20029">
        <ele>763.2</ele>
        <time>2024-05-12T07:40:10Z</time>
      </trkpt>
      <trkpt lat="42.8474" lon="1.20027">
        <ele>763.2</ele>
        <time>2024-05-12T07:40:11Z</time>
      </trkpt>
      <trkpt lat="42.84742" lon="1.20012">
        <ele>763.2</ele>
        <time>2024-05-12T07:40:13Z</time>
      </trkpt>
      <trkpt lat="42.84745" lon="1.20005">
        <ele>762.6</ele>
        <time>2024-05-12T07:40:14Z</time>
      </trkpt>
      <trkpt lat="42.84747" lon="1.19996">
        <ele>762.2</ele>
        <time>2024-05-12T07:40:15Z</time>
      </trkpt>
      <trkpt lat="42.84748" lon="1.19987">
        <ele>761.8</ele>
        <time>2024-05-12T07:40:16Z</time>
      </trkpt>
      <trkpt lat="42.84751" lon="1.19978">
        <ele>761.4</ele>
        <time>2024-05-12T07:40:17Z</time>
      </trkpt>
      <trkpt lat="42.84753" lon="1.19968">
        <ele>760.8</ele>
        <time>2024-05-12T07:40:18Z</time>
      </trkpt>
      <trkpt lat="42.84756" lon="1.19958">
        <ele>760.4</ele>
        <time>2024-05-12T07:40:19Z</time>
      </trkpt>
      <trkpt lat="42.84758" lon="1.1995">
        <ele>759.8</ele>
        <time>2024-05-12T07:40:20Z</time>
      </trkpt>
      <trkpt lat="42.84759" lon="1.19942">
        <ele>759.2</ele>
        <time>2024-05-12T07:40:21Z</time>
      </trkpt>
      <trkpt lat="42.84758" lon="1.19933">
        <ele>758.6</ele>
        <time>2024-05-12T07:40:22Z</time>
      </trkpt>
      <trkpt lat="42.84755" lon="1.19925">
        <ele>758</ele>
        <time>2024-05-12T07:40:23Z</time>
      </trkpt>
      <trkpt lat="42.84752" lon="1.19916">
        <ele>757.2</ele>
        <time>2024-05-12T07:40:24Z</time>
      </trkpt>
      <trkpt lat="42.84749" lon="1.19907">
        <ele>756.6</ele>
        <time>2024-05-12T07:40:25Z</time>
      </trkpt>
      <trkpt lat="42.84745" lon="1.19898">
        <ele>756</ele>
        <time>2024-05-12T07:40:26Z</time>
      </trkpt>
      <trkpt lat="42.84741" lon="1.19889">
        <ele>755.2</ele>
        <time>2024-05-12T07:40:27Z</time>
      </trkpt>
      <trkpt lat="42.84736" lon="1.1988">
        <ele>754.4</ele>
        <time>2024-05-12T07:40:28Z</time>
      </trkpt>
      <trkpt lat="42.84732" lon="1.19871">
        <ele>753</ele>
        <time>2024-05-12T07:40:29Z</time>
      </trkpt>
      <trkpt lat="42.84726" lon="1.19863">
        <ele>752.2</ele>
        <time>2024-05-12T07:40:30Z</time>
      </trkpt>
      <trkpt lat="42.84721" lon="1.19855">
        <ele>751.6</ele>
        <time>2024-05-12T07:40:31Z</time>
      </trkpt>
      <trkpt lat="42.84715" lon="1.19847">
        <ele>750.8</ele>
        <time>2024-05-12T07:40:32Z</time>
      </trkpt>
      <trkpt lat="42.8471" lon="1.1984">
        <ele>750.2</ele>
        <time>2024-05-12T07:40:33Z</time>
      </trkpt>
      <trkpt lat="42.84705" lon="1.19835">
        <ele>749.8</ele>
        <time>2024-05-12T07:40:34Z</time>
      </trkpt>
      <trkpt lat="42.847" lon="1.19829">
        <ele>749.2</ele>
        <time>2024-05-12T07:40:35Z</time>
      </trkpt>
      <trkpt lat="42.84694" lon="1.19823">
        <ele>748.6</ele>
        <time>2024-05-12T07:40:36Z</time>
      </trkpt>
      <trkpt lat="42.84689" lon="1.19818">
        <ele>748</ele>
        <time>2024-05-12T07:40:37Z</time>
      </trkpt>
      <trkpt lat="42.84685" lon="1.19811">
        <ele>748</ele>
        <time>2024-05-12T07:40:38Z</time>
      </trkpt>
      <trkpt lat="42.84677" lon="1.19798">
        <ele>748</ele>
        <time>2024-05-12T07:40:41Z</time>
      </trkpt>
      <trkpt lat="42.84671" lon="1.19793">
        <ele>748</ele>
        <time>2024-05-12T07:40:46Z</time>
      </trkpt>
      <trkpt lat="42.84663" lon="1.19789">
        <ele>748</ele>
        <time>2024-05-12T07:41:09Z</time>
      </trkpt>
      <trkpt lat="42.84662" lon="1.19785">
        <ele>748</ele>
        <time>2024-05-12T07:41:11Z</time>
      </trkpt>
      <trkpt lat="42.84658" lon="1.19774">
        <ele>748</ele>
        <time>2024-05-12T07:41:14Z</time>
      </trkpt>
      <trkpt lat="42.84656" lon="1.19767">
        <ele>748</ele>
        <time>2024-05-12T07:41:16Z</time>
      </trkpt>
      <trkpt lat="42.84654" lon="1.1975">
        <ele>748</ele>
        <time>2024-05-12T07:41:19Z</time>
      </trkpt>
      <trkpt lat="42.84651" lon="1.19719">
        <ele>748</ele>
        <time>2024-05-12T07:41:24Z</time>
      </trkpt>
      <trkpt lat="42.84654" lon="1.19706">
        <ele>748</ele>
        <time>2024-05-12T07:41:26Z</time>
      </trkpt>
      <trkpt lat="42.84657" lon="1.19691">
        <ele>748</ele>
        <time>2024-05-12T07:41:28Z</time>
      </trkpt>
      <trkpt lat="42.84664" lon="1.19654">
        <ele>747.6</ele>
        <time>2024-05-12T07:41:33Z</time>
      </trkpt>
      <trkpt lat="42.84663" lon="1.1965">
        <ele>747.2</ele>
        <time>2024-05-12T07:41:34Z</time>
      </trkpt>
      <trkpt lat="42.84661" lon="1.19648">
        <ele>746.6</ele>
        <time>2024-05-12T07:41:35Z</time>
      </trkpt>
      <trkpt lat="42.84659" lon="1.19646">
        <ele>746.2</ele>
        <time>2024-05-12T07:41:36Z</time>
      </trkpt>
      <trkpt lat="42.84658" lon="1.19646">
        <ele>745.8</ele>
        <time>2024-05-12T07:41:37Z</time>
      </trkpt>
      <trkpt lat="42.84656" lon="1.19644">
        <ele>745.2</ele>
        <time>2024-05-12T07:41:38Z</time>
      </trkpt>
      <trkpt lat="42.84655" lon="1.19642">
        <ele>744.8</ele>
        <time>2024-05-12T07:41:39Z</time>
      </trkpt>
      <trkpt lat="42.84653" lon="1.1964">
        <ele>744.4</ele>
        <time>2024-05-12T07:41:40Z</time>
      </trkpt>
      <trkpt lat="42.84651" lon="1.19639">
        <ele>744</ele>
        <time>2024-05-12T07:41:41Z</time>
      </trkpt>
      <trkpt lat="42.84648" lon="1.19638">
        <ele>743.4</ele>
        <time>2024-05-12T07:41:42Z</time>
      </trkpt>
      <trkpt lat="42.84645" lon="1.19636">
        <ele>742.6</ele>
        <time>2024-05-12T07:41:43Z</time>
      </trkpt>
      <trkpt lat="42.84643" lon="1.19634">
        <ele>741</ele>
        <time>2024-05-12T07:41:44Z</time>
      </trkpt>
      <trkpt lat="42.84641" lon="1.19633">
        <ele>740.2</ele>
        <time>2024-05-12T07:41:45Z</time>
      </trkpt>
      <trkpt lat="42.84635" lon="1.19627">
        <ele>739.2</ele>
        <time>2024-05-12T07:41:46Z</time>
      </trkpt>
      <trkpt lat="42.8463" lon="1.19622">
        <ele>738.2</ele>
        <time>2024-05-12T07:41:47Z</time>
      </trkpt>
      <trkpt lat="42.84624" lon="1.19616">
        <ele>737.2</ele>
        <time>2024-05-12T07:41:48Z</time>
      </trkpt>
      <trkpt lat="42.84618" lon="1.1961">
        <ele>736</ele>
        <time>2024-05-12T07:41:49Z</time>
      </trkpt>
      <trkpt lat="42.84612" lon="1.19608">
        <ele>734.8</ele>
        <time>2024-05-12T07:41:50Z</time>
      </trkpt>
      <trkpt lat="42.84606" lon="1.19605">
        <ele>733.6</ele>
        <time>2024-05-12T07:41:51Z</time>
      </trkpt>
      <trkpt lat="42.846" lon="1.19604">
        <ele>732.6</ele>
        <time>2024-05-12T07:41:52Z</time>
      </trkpt>
      <trkpt lat="42.84595" lon="1.19602">
        <ele>731.4</ele>
        <time>2024-05-12T07:41:53Z</time>
      </trkpt>
      <trkpt lat="42.8459" lon="1.19601">
        <ele>730.4</ele>
        <time>2024-05-12T07:41:54Z</time>
      </trkpt>
      <trkpt lat="42.84585" lon="1.19598">
        <ele>729.2</ele>
        <time>2024-05-12T07:41:55Z</time>
      </trkpt>
      <trkpt lat="42.8458" lon="1.19595">
        <ele>728.2</ele>
        <time>2024-05-12T07:41:56Z</time>
      </trkpt>
      <trkpt lat="42.84578" lon="1.19594">
        <ele>727.2</ele>
        <time>2024-05-12T07:41:57Z</time>
      </trkpt>
      <trkpt lat="42.84576" lon="1.19591">
        <ele>726.2</ele>
        <time>2024-05-12T07:41:58Z</time>
      </trkpt>
      <trkpt lat="42.84573" lon="1.19588">
        <ele>725.2</ele>
        <time>2024-05-12T07:41:59Z</time>
      </trkpt>
      <trkpt lat="42.84569" lon="1.19583">
        <ele>724.2</ele>
        <time>2024-05-12T07:42:00Z</time>
      </trkpt>
      <trkpt lat="42.84566" lon="1.19579">
        <ele>723.2</ele>
        <time>2024-05-12T07:42:01Z</time>
      </trkpt>
      <trkpt lat="42.84563" lon="1.19577">
        <ele>722.2</ele>
        <time>2024-05-12T07:42:02Z</time>
      </trkpt>
      <trkpt lat="42.84558" lon="1.19576">
        <ele>721.2</ele>
        <time>2024-05-12T07:42:03Z</time>
      </trkpt>
      <trkpt lat="42.84552" lon="1.19573">
        <ele>720.2</ele>
        <time>2024-05-12T07:42:04Z</time>
      </trkpt>
      <trkpt lat="42.84546" lon="1.1957">
        <ele>719.2</ele>
        <time>2024-05-12T07:42:05Z</time>
      </trkpt>
      <trkpt lat="42.84539" lon="1.19573">
        <ele>718.2</ele>
        <time>2024-05-12T07:42:06Z</time>
      </trkpt>
      <trkpt lat="42.84533" lon="1.19573">
        <ele>717.2</ele>
        <time>2024-05-12T07:42:07Z</time>
      </trkpt>
      <trkpt lat="42.84528" lon="1.19573">
        <ele>715.4</ele>
        <time>2024-05-12T07:42:08Z</time>
      </trkpt>
      <trkpt lat="42.84523" lon="1.19573">
        <ele>714.6</ele>
        <time>2024-05-12T07:42:09Z</time>
      </trkpt>
      <trkpt lat="42.84518" lon="1.19571">
        <ele>714</ele>
        <time>2024-05-12T07:42:10Z</time>
      </trkpt>
      <trkpt lat="42.84514" lon="1.1957">
        <ele>713.4</ele>
        <time>2024-05-12T07:42:11Z</time>
      </trkpt>
      <trkpt lat="42.84509" lon="1.19568">
        <ele>712.8</ele>
        <time>2024-05-12T07:42:12Z</time>
      </trkpt>
      <trkpt lat="42.84504" lon="1.19567">
        <ele>712.2</ele>
        <time>2024-05-12T07:42:13Z</time>
      </trkpt>
      <trkpt lat="42.84499" lon="1.19567">
        <ele>711.6</ele>
        <time>2024-05-12T07:42:14Z</time>
      </trkpt>
      <trkpt lat="42.84494" lon="1.19566">
        <ele>711.6</ele>
        <time>2024-05-12T07:42:15Z</time>
      </trkpt>
      <trkpt lat="42.84485" lon="1.19562">
        <ele>711</ele>
        <time>2024-05-12T07:42:17Z</time>
      </trkpt>
      <trkpt lat="42.84481" lon="1.1956">
        <ele>710.6</ele>
        <time>2024-05-12T07:42:18Z</time>
      </trkpt>
      <trkpt lat="42.84477" lon="1.19558">
        <ele>710.2</ele>
        <time>2024-05-12T07:42:19Z</time>
      </trkpt>
      <trkpt lat="42.84473" lon="1.19557">
        <ele>709.6</ele>
        <time>2024-05-12T07:42:20Z</time>
      </trkpt>
      <trkpt lat="42.84469" lon="1.19555">
        <ele>709.2</ele>
        <time>2024-05-12T07:42:21Z</time>
      </trkpt>
      <trkpt lat="42.84465" lon="1.19553">
        <ele>708.8</ele>
        <time>2024-05-12T07:42:22Z</time>
      </trkpt>
      <trkpt lat="42.84461" lon="1.1955">
        <ele>708.4</ele>
        <time>2024-05-12T07:42:23Z</time>
      </trkpt>
      <trkpt lat="42.84458" lon="1.19547">
        <ele>708</ele>
        <time>2024-05-12T07:42:24Z</time>
      </trkpt>
      <trkpt lat="42.84455" lon="1.19545">
        <ele>707.4</ele>
        <time>2024-05-12T07:42:25Z</time>
      </trkpt>
      <trkpt lat="42.84453" lon="1.19543">
        <ele>706.8</ele>
        <time>2024-05-12T07:42:26Z</time>
      </trkpt>
      <trkpt lat="42.84449" lon="1.19541">
        <ele>706.2</ele>
        <time>2024-05-12T07:42:27Z</time>
      </trkpt>
      <trkpt lat="42.84445" lon="1.19539">
        <ele>705.6</ele>
        <time>2024-05-12T07:42:28Z</time>
      </trkpt>
      <trkpt lat="42.84441" lon="1.19537">
        <ele>705</ele>
        <time>2024-05-12T07:42:29Z</time>
      </trkpt>
      <trkpt lat="42.84438" lon="1.19536">
        <ele>704.4</ele>
        <time>2024-05-12T07:42:30Z</time>
      </trkpt>
      <trkpt lat="42.84435" lon="1.19534">
        <ele>704</ele>
        <time>2024-05-12T07:42:31Z</time>
      </trkpt>
      <trkpt lat="42.84432" lon="1.19532">
        <ele>703.4</ele>
        <time>2024-05-12T07:42:32Z</time>
      </trkpt>
      <trkpt lat="42.8443" lon="1.19531">
        <ele>702.4</ele>
        <time>2024-05-12T07:42:33Z</time>
      </trkpt>
      <trkpt lat="42.84428" lon="1.19529">
        <ele>702</ele>
        <time>2024-05-12T07:42:34Z</time>
      </trkpt>
      <trkpt lat="42.84424" lon="1.19527">
        <ele>701.6</ele>
        <time>2024-05-12T07:42:35Z</time>
      </trkpt>
      <trkpt lat="42.8442" lon="1.19526">
        <ele>701</ele>
        <time>2024-05-12T07:42:36Z</time>
      </trkpt>
      <trkpt lat="42.84417" lon="1.19525">
        <ele>700.6</ele>
        <time>2024-05-12T07:42:37Z</time>
      </trkpt>
      <trkpt lat="42.84412" lon="1.19524">
        <ele>700</ele>
        <time>2024-05-12T07:42:38Z</time>
      </trkpt>
      <trkpt lat="42.84408" lon="1.19522">
        <ele>699.6</ele>
        <time>2024-05-12T07:42:39Z</time>
      </trkpt>
      <trkpt lat="42.84402" lon="1.19521">
        <ele>699</ele>
        <time>2024-05-12T07:42:40Z</time>
      </trkpt>
      <trkpt lat="42.84396" lon="1.19519">
        <ele>698.6</ele>
        <time>2024-05-12T07:42:41Z</time>
      </trkpt>
      <trkpt lat="42.8439" lon="1.19517">
        <ele>698</ele>
        <time>2024-05-12T07:42:42Z</time>
      </trkpt>
      <trkpt lat="42.84384" lon="1.19516">
        <ele>697.6</ele>
        <time>2024-05-12T07:42:43Z</time>
      </trkpt>
      <trkpt lat="42.84377" lon="1.19517">
        <ele>697</ele>
        <time>2024-05-12T07:42:44Z</time>
      </trkpt>
      <trkpt lat="42.8437" lon="1.19518">
        <ele>696.6</ele>
        <time>2024-05-12T07:42:45Z</time>
      </trkpt>
      <trkpt lat="42.84364" lon="1.19519">
        <ele>696</ele>
        <time>2024-05-12T07:42:46Z</time>
      </trkpt>
      <trkpt lat="42.84357" lon="1.19519">
        <ele>696</ele>
        <time>2024-05-12T07:42:47Z</time>
      </trkpt>
      <trkpt lat="42.84329" lon="1.19519">
        <ele>696</ele>
        <time>2024-05-12T07:42:52Z</time>
      </trkpt>
      <trkpt lat="42.84312" lon="1.19519">
        <ele>696</ele>
        <time>2024-05-12T07:42:55Z</time>
      </trkpt>
      <trkpt lat="42.84309" lon="1.19519">
        <ele>695.2</ele>
        <time>2024-05-12T07:42:56Z</time>
      </trkpt>
      <trkpt lat="42.84305" lon="1.1952">
        <ele>694.8</ele>
        <time>2024-05-12T07:42:57Z</time>
      </trkpt>
      <trkpt lat="42.84301" lon="1.1952">
        <ele>694.4</ele>
        <time>2024-05-12T07:42:58Z</time>
      </trkpt>
      <trkpt lat="42.84298" lon="1.1952">
        <ele>694</ele>
        <time>2024-05-12T07:42:59Z</time>
      </trkpt>
      <trkpt lat="42.8429" lon="1.1952">
        <ele>694</ele>
        <time>2024-05-12T07:43:02Z</time>
      </trkpt>
      <trkpt lat="42.84288" lon="1.19522">
        <ele>694</ele>
        <time>2024-05-12T07:43:03Z</time>
      </trkpt>
      <trkpt lat="42.84287" lon="1.19524">
        <ele>694</ele>
        <time>2024-05-12T07:43:05Z</time>
      </trkpt>
      <trkpt lat="42.84287" lon="1.19524">
        <ele>694</ele>
        <time>2024-05-12T07:43:08Z</time>
      </trkpt>
      <trkpt lat="42.84286" lon="1.19524">
        <ele>694</ele>
        <time>2024-05-12T07:43:09Z</time>
      </trkpt>
      <trkpt lat="42.84284" lon="1.19525">
        <ele>693.6</ele>
        <time>2024-05-12T07:43:10Z</time>
      </trkpt>
      <trkpt lat="42.84282" lon="1.19525">
        <ele>693.2</ele>
        <time>2024-05-12T07:43:11Z</time>
      </trkpt>
      <trkpt lat="42.84279" lon="1.19526">
        <ele>692.8</ele>
        <time>2024-05-12T07:43:12Z</time>
      </trkpt>
      <trkpt lat="42.84276" lon="1.19526">
        <ele>692.4</ele>
        <time>2024-05-12T07:43:13Z</time>
      </trkpt>
      <trkpt lat="42.84273" lon="1.19527">
        <ele>691.8</ele>
        <time>2024-05-12T07:43:14Z</time>
      </trkpt>
      <trkpt lat="42.84272" lon="1.19527">
        <ele>691.4</ele>
        <time>2024-05-12T07:43:15Z</time>
      </trkpt>
      <trkpt lat="42.8427" lon="1.19528">
        <ele>690.8</ele>
        <time>2024-05-12T07:43:16Z</time>
      </trkpt>
      <trkpt lat="42.84269" lon="1.19528">
        <ele>690.2</ele>
        <time>2024-05-12T07:43:17Z</time>
      </trkpt>
      <trkpt lat="42.84269" lon="1.19528">
        <ele>689.8</ele>
        <time>2024-05-12T07:43:18Z</time>
      </trkpt>
      <trkpt lat="42.84269" lon="1.19528">
        <ele>689.2</ele>
        <time>2024-05-12T07:43:19Z</time>
      </trkpt>
      <trkpt lat="42.84268" lon="1.19528">
        <ele>687.6</ele>
        <time>2024-05-12T07:43:21Z</time>
      </trkpt>
      <trkpt lat="42.84261" lon="1.19532">
        <ele>687.6</ele>
        <time>2024-05-12T07:43:23Z</time>
      </trkpt>
      <trkpt lat="42.84254" lon="1.19535">
        <ele>687.2</ele>
        <time>2024-05-12T07:43:25Z</time>
      </trkpt>
      <trkpt lat="42.8425" lon="1.19536">
        <ele>686.8</ele>
        <time>2024-05-12T07:43:26Z</time>
      </trkpt>
      <trkpt lat="42.84246" lon="1.19537">
        <ele>686</ele>
        <time>2024-05-12T07:43:27Z</time>
      </trkpt>
      <trkpt lat="42.84242" lon="1.19538">
        <ele>685.4</ele>
        <time>2024-05-12T07:43:28Z</time>
      </trkpt>
      <trkpt lat="42.84238" lon="1.19539">
        <ele>684.6</ele>
        <time>2024-05-12T07:43:29Z</time>
      </trkpt>
      <trkpt lat="42.84234" lon="1.1954">
        <ele>683.8</ele>
        <time>2024-05-12T07:43:30Z</time>
      </trkpt>
      <trkpt lat="42.8423" lon="1.19542">
        <ele>682.8</ele>
        <time>2024-05-12T07:43:31Z</time>
      </trkpt>
      <trkpt lat="42.84225" lon="1.19544">
        <ele>682</ele>
        <time>2024-05-12T07:43:32Z</time>
      </trkpt>
      <trkpt lat="42.84222" lon="1.19545">
        <ele>681</ele>
        <time>2024-05-12T07:43:33Z</time>
      </trkpt>
      <trkpt lat="42.84218" lon="1.19548">
        <ele>680</ele>
        <time>2024-05-12T07:43:34Z</time>
      </trkpt>
      <trkpt lat="42.84214" lon="1.19551">
        <ele>678.8</ele>
        <time>2024-05-12T07:43:35Z</time>
      </trkpt>
      <trkpt lat="42.8421" lon="1.19552">
        <ele>677.8</ele>
        <time>2024-05-12T07:43:36Z</time>
      </trkpt>
      <trkpt lat="42.84205" lon="1.19551">
        <ele>676.8</ele>
        <time>2024-05-12T07:43:37Z</time>
      </trkpt>
      <trkpt lat="42.84201" lon="1.1955">
        <ele>675.6</ele>
        <time>2024-05-12T07:43:38Z</time>
      </trkpt>
      <trkpt lat="42.842" lon="1.19549">
        <ele>674.6</ele>
        <time>2024-05-12T07:43:39Z</time>
      </trkpt>
      <trkpt lat="42.84199" lon="1.19549">
        <ele>673.8</ele>
        <time>2024-05-12T07:43:40Z</time>
      </trkpt>
      <trkpt lat="42.84199" lon="1.19549">
        <ele>672.8</ele>
        <time>2024-05-12T07:43:41Z</time>
      </trkpt>
      <trkpt lat="42.84199" lon="1.19548">
        <ele>672</ele>
        <time>2024-05-12T07:43:42Z</time>
      </trkpt>
      <trkpt lat="42.84199" lon="1.19547">
        <ele>671</ele>
        <time>2024-05-12T07:43:43Z</time>
      </trkpt>
      <trkpt lat="42.84199" lon="1.19546">
        <ele>670.2</ele>
        <time>2024-05-12T07:43:44Z</time>
      </trkpt>
      <trkpt lat="42.84199" lon="1.19546">
        <ele>670.2</ele>
        <time>2024-05-12T07:43:45Z</time>
      </trkpt>
      <trkpt lat="42.842" lon="1.19543">
        <ele>670.2</ele>
        <time>2024-05-12T07:44:11Z</time>
      </trkpt>
      <trkpt lat="42.84201" lon="1.19535">
        <ele>670.2</ele>
        <time>2024-05-12T07:44:13Z</time>
      </trkpt>
      <trkpt lat="42.84204" lon="1.19531">
        <ele>669.8</ele>
        <time>2024-05-12T07:44:14Z</time>
      </trkpt>
      <trkpt lat="42.84206" lon="1.19529">
        <ele>669.4</ele>
        <time>2024-05-12T07:44:15Z</time>
      </trkpt>
      <trkpt lat="42.84208" lon="1.19528">
        <ele>669</ele>
        <time>2024-05-12T07:44:16Z</time>
      </trkpt>
      <trkpt lat="42.8421" lon="1.19525">
        <ele>668.6</ele>
        <time>2024-05-12T07:44:17Z</time>
      </trkpt>
      <trkpt lat="42.84213" lon="1.19522">
        <ele>668</ele>
        <time>2024-05-12T07:44:18Z</time>
      </trkpt>
      <trkpt lat="42.84216" lon="1.19519">
        <ele>668</ele>
        <time>2024-05-12T07:44:19Z</time>
      </trkpt>
      <trkpt lat="42.8422" lon="1.19516">
        <ele>668</ele>
        <time>2024-05-12T07:44:20Z</time>
      </trkpt>
      <trkpt lat="42.84225" lon="1.19512">
        <ele>667.6</ele>
        <time>2024-05-12T07:44:22Z</time>
      </trkpt>
      <trkpt lat="42.84227" lon="1.1951">
        <ele>667.2</ele>
        <time>2024-05-12T07:44:23Z</time>
      </trkpt>
      <trkpt lat="42.84228" lon="1.19507">
        <ele>666.8</ele>
        <time>2024-05-12T07:44:24Z</time>
      </trkpt>
      <trkpt lat="42.8423" lon="1.19504">
        <ele>666.4</ele>
        <time>2024-05-12T07:44:25Z</time>
      </trkpt>
      <trkpt lat="42.84232" lon="1.195">
        <ele>666</ele>
        <time>2024-05-12T07:44:26Z</time>
      </trkpt>
      <trkpt lat="42.84236" lon="1.19491">
        <ele>666</ele>
        <time>2024-05-12T07:44:28Z</time>
      </trkpt>
      <trkpt lat="42.84238" lon="1.19481">
        <ele>665.6</ele>
        <time>2024-05-12T07:44:30Z</time>
      </trkpt>
      <trkpt lat="42.84239" lon="1.19477">
        <ele>665.2</ele>
        <time>2024-05-12T07:44:31Z</time>
      </trkpt>
      <trkpt lat="42.8424" lon="1.19472">
        <ele>664.8</ele>
        <time>2024-05-12T07:44:32Z</time>
      </trkpt>
      <trkpt lat="42.84242" lon="1.19469">
        <ele>664.4</ele>
        <time>2024-05-12T07:44:33Z</time>
      </trkpt>
      <trkpt lat="42.84244" lon="1.19465">
        <ele>664</ele>
        <time>2024-05-12T07:44:34Z</time>
      </trkpt>
      <trkpt lat="42.84247" lon="1.19462">
        <ele>663.6</ele>
        <time>2024-05-12T07:44:35Z</time>
      </trkpt>
      <trkpt lat="42.8425" lon="1.1946">
        <ele>663.2</ele>
        <time>2024-05-12T07:44:36Z</time>
      </trkpt>
      <trkpt lat="42.84253" lon="1.19458">
        <ele>662.6</ele>
        <time>2024-05-12T07:44:37Z</time>
      </trkpt>
      <trkpt lat="42.84255" lon="1.19457">
        <ele>662.2</ele>
        <time>2024-05-12T07:44:38Z</time>
      </trkpt>
      <trkpt lat="42.84258" lon="1.19456">
        <ele>661.8</ele>
        <time>2024-05-12T07:44:39Z</time>
      </trkpt>
      <trkpt lat="42.84266" lon="1.19453">
        <ele>661.8</ele>
        <time>2024-05-12T07:44:43Z</time>
      </trkpt>
      <trkpt lat="42.84267" lon="1.19452">
        <ele>661.2</ele>
        <time>2024-05-12T07:44:44Z</time>
      </trkpt>
      <trkpt lat="42.84266" lon="1.19451">
        <ele>660.8</ele>
        <time>2024-05-12T07:44:45Z</time>
      </trkpt>
      <trkpt lat="42.84265" lon="1.1945">
        <ele>660.4</ele>
        <time>2024-05-12T07:44:46Z</time>
      </trkpt>
      <trkpt lat="42.84264" lon="1.19449">
        <ele>660</ele>
        <time>2024-05-12T07:44:47Z</time>
      </trkpt>
      <trkpt lat="42.84262" lon="1.19448">
        <ele>659.6</ele>
        <time>2024-05-12T07:44:48Z</time>
      </trkpt>
      <trkpt lat="42.84257" lon="1.19447">
        <ele>659.2</ele>
        <time>2024-05-12T07:44:50Z</time>
      </trkpt>
      <trkpt lat="42.84256" lon="1.19446">
        <ele>658.6</ele>
        <time>2024-05-12T07:44:51Z</time>
      </trkpt>
      <trkpt lat="42.84256" lon="1.19445">
        <ele>658.2</ele>
        <time>2024-05-12T07:44:52Z</time>
      </trkpt>
      <trkpt lat="42.84256" lon="1.19445">
        <ele>657.6</ele>
        <time>2024-05-12T07:44:53Z</time>
      </trkpt>
      <trkpt lat="42.84256" lon="1.19443">
        <ele>657.2</ele>
        <time>2024-05-12T07:44:54Z</time>
      </trkpt>
      <trkpt lat="42.84257" lon="1.19441">
        <ele>656.8</ele>
        <time>2024-05-12T07:44:55Z</time>
      </trkpt>
      <trkpt lat="42.84257" lon="1.19438">
        <ele>656.2</ele>
        <time>2024-05-12T07:44:56Z</time>
      </trkpt>
      <trkpt lat="42.84256" lon="1.19434">
        <ele>655.4</ele>
        <time>2024-05-12T07:44:57Z</time>
      </trkpt>
      <trkpt lat="42.84256" lon="1.1943">
        <ele>654.8</ele>
        <time>2024-05-12T07:44:58Z</time>
      </trkpt>
      <trkpt lat="42.84256" lon="1.19424">
        <ele>654</ele>
        <time>2024-05-12T07:44:59Z</time>
      </trkpt>
      <trkpt lat="42.84256" lon="1.19419">
        <ele>652</ele>
        <time>2024-05-12T07:45:00Z</time>
      </trkpt>
      <trkpt lat="42.84256" lon="1.19415">
        <ele>651</ele>
        <time>2024-05-12T07:45:01Z</time>
      </trkpt>
      <trkpt lat="42.84256" lon="1.1941">
        <ele>650</ele>
        <time>2024-05-12T07:45:02Z</time>
      </trkpt>
      <trkpt lat="42.84256" lon="1.19406">
        <ele>649</ele>
        <time>2024-05-12T07:45:03Z</time>
      </trkpt>
      <trkpt lat="42.84253" lon="1.19403">
        <ele>648</ele>
        <time>2024-05-12T07:45:04Z</time>
      </trkpt>
      <trkpt lat="42.8425" lon="1.19403">
        <ele>647.2</ele>
        <time>2024-05-12T07:45:05Z</time>
      </trkpt>
      <trkpt lat="42.84247" lon="1.19403">
        <ele>646.2</ele>
        <time>2024-05-12T07:45:06Z</time>
      </trkpt>
      <trkpt lat="42.84243" lon="1.19402">
        <ele>645.4</ele>
        <time>2024-05-12T07:45:07Z</time>
      </trkpt>
      <trkpt lat="42.84241" lon="1.19399">
        <ele>644.6</ele>
        <time>2024-05-12T07:45:08Z</time>
      </trkpt>
      <trkpt lat="42.84241" lon="1.19396">
        <ele>643.6</ele>
        <time>2024-05-12T07:45:09Z</time>
      </trkpt>
      <trkpt lat="42.84243" lon="1.1939">
        <ele>643.6</ele>
        <time>2024-05-12T07:45:12Z</time>
      </trkpt>
      <trkpt lat="42.84244" lon="1.19388">
        <ele>643.6</ele>
        <time>2024-05-12T07:45:13Z</time>
      </trkpt>
      <trkpt lat="42.84247" lon="1.19382">
        <ele>643.6</ele>
        <time>2024-05-12T07:45:18Z</time>
      </trkpt>
      <trkpt lat="42.84249" lon="1.1938">
        <ele>641.6</ele>
        <time>2024-05-12T07:45:57Z</time>
      </trkpt>
      <trkpt lat="42.84254" lon="1.19377">
        <ele>641.6</ele>
        <time>2024-05-12T07:46:00Z</time>
      </trkpt>
      <trkpt lat="42.84256" lon="1.19373">
        <ele>641.2</ele>
        <time>2024-05-12T07:46:02Z</time>
      </trkpt>
      <trkpt lat="42.84256" lon="1.19373">
        <ele>640.8</ele>
        <time>2024-05-12T07:46:03Z</time>
      </trkpt>
      <trkpt lat="42.84257" lon="1.19372">
        <ele>640.4</ele>
        <time>2024-05-12T07:46:04Z</time>
      </trkpt>
      <trkpt lat="42.8425" lon="1.19369">
        <ele>639.2</ele>
        <time>2024-05-12T07:46:26Z</time>
      </trkpt>
      <trkpt lat="42.84249" lon="1.19366">
        <ele>638.8</ele>
        <time>2024-05-12T07:46:27Z</time>
      </trkpt>
      <trkpt lat="42.84249" lon="1.19364">
        <ele>638.4</ele>
        <time>2024-05-12T07:46:28Z</time>
      </trkpt>
      <trkpt lat="42.84249" lon="1.19364">
        <ele>638</ele>
        <time>2024-05-12T07:46:29Z</time>
      </trkpt>
      <trkpt lat="42.84249" lon="1.19362">
        <ele>637.4</ele>
        <time>2024-05-12T07:46:30Z</time>
      </trkpt>
      <trkpt lat="42.8425" lon="1.19358">
        <ele>637.4</ele>
        <time>2024-05-12T07:46:32Z</time>
      </trkpt>
      <trkpt lat="42.84247" lon="1.19345">
        <ele>637</ele>
        <time>2024-05-12T07:46:36Z</time>
      </trkpt>
      <trkpt lat="42.84246" lon="1.1934">
        <ele>636.6</ele>
        <time>2024-05-12T07:46:37Z</time>
      </trkpt>
      <trkpt lat="42.84246" lon="1.19337">
        <ele>636</ele>
        <time>2024-05-12T07:46:38Z</time>
      </trkpt>
      <trkpt lat="42.84245" lon="1.19334">
        <ele>635</ele>
        <time>2024-05-12T07:46:39Z</time>
      </trkpt>
      <trkpt lat="42.84245" lon="1.1933">
        <ele>634.4</ele>
        <time>2024-05-12T07:46:40Z</time>
      </trkpt>
      <trkpt lat="42.84246" lon="1.19326">
        <ele>634</ele>
        <time>2024-05-12T07:46:41Z</time>
      </trkpt>
      <trkpt lat="42.84246" lon="1.19321">
        <ele>633.2</ele>
        <time>2024-05-12T07:46:42Z</time>
      </trkpt>
      <trkpt lat="42.84246" lon="1.19317">
        <ele>632.6</ele>
        <time>2024-05-12T07:46:43Z</time>
      </trkpt>
      <trkpt lat="42.84246" lon="1.19313">
        <ele>631.6</ele>
        <time>2024-05-12T07:46:44Z</time>
      </trkpt>
      <trkpt lat="42.84246" lon="1.19308">
        <ele>630.8</ele>
        <time>2024-05-12T07:46:45Z</time>
      </trkpt>
      <trkpt lat="42.84248" lon="1.19304">
        <ele>630</ele>
        <time>2024-05-12T07:46:46Z</time>
      </trkpt>
      <trkpt lat="42.84249" lon="1.193">
        <ele>629</ele>
        <time>2024-05-12T07:46:47Z</time>
      </trkpt>
      <trkpt lat="42.84251" lon="1.19297">
        <ele>628.2</ele>
        <time>2024-05-12T07:46:48Z</time>
      </trkpt>
      <trkpt lat="42.84252" lon="1.19293">
        <ele>627.2</ele>
        <time>2024-05-12T07:46:49Z</time>
      </trkpt>
      <trkpt lat="42.84254" lon="1.1929">
        <ele>626.4</ele>
        <time>2024-05-12T07:46:50Z</time>
      </trkpt>
      <trkpt lat="42.84255" lon="1.19286">
        <ele>625.6</ele>
        <time>2024-05-12T07:46:51Z</time>
      </trkpt>
      <trkpt lat="42.84257" lon="1.19283">
        <ele>624.8</ele>
        <time>2024-05-12T07:46:52Z</time>
      </trkpt>
      <trkpt lat="42.84259" lon="1.19279">
        <ele>624</ele>
        <time>2024-05-12T07:46:53Z</time>
      </trkpt>
      <trkpt lat="42.8426" lon="1.19276">
        <ele>623.2</ele>
        <time>2024-05-12T07:46:54Z</time>
      </trkpt>
      <trkpt lat="42.84261" lon="1.19273">
        <ele>622.2</ele>
        <time>2024-05-12T07:46:55Z</time>
      </trkpt>
      <trkpt lat="42.84263" lon="1.19271">
        <ele>621.6</ele>
        <time>2024-05-12T07:46:56Z</time>
      </trkpt>
      <trkpt lat="42.84263" lon="1.19269">
        <ele>620.8</ele>
        <time>2024-05-12T07:46:57Z</time>
      </trkpt>
      <trkpt lat="42.84264" lon="1.19267">
        <ele>620.2</ele>
        <time>2024-05-12T07:46:58Z</time>
      </trkpt>
      <trkpt lat="42.84265" lon="1.19266">
        <ele>619.4</ele>
        <time>2024-05-12T07:46:59Z</time>
      </trkpt>
      <trkpt lat="42.84266" lon="1.19263">
        <ele>618.6</ele>
        <time>2024-05-12T07:47:00Z</time>
      </trkpt>
      <trkpt lat="42.84265" lon="1.1926">
        <ele>617.8</ele>
        <time>2024-05-12T07:47:01Z</time>
      </trkpt>
      <trkpt lat="42.84265" lon="1.19258">
        <ele>617</ele>
        <time>2024-05-12T07:47:02Z</time>
      </trkpt>
      <trkpt lat="42.84265" lon="1.19254">
        <ele>615.2</ele>
        <time>2024-05-12T07:47:03Z</time>
      </trkpt>
      <trkpt lat="42.84265" lon="1.19251">
        <ele>614.4</ele>
        <time>2024-05-12T07:47:04Z</time>
      </trkpt>
      <trkpt lat="42.84265" lon="1.19247">
        <ele>613.6</ele>
        <time>2024-05-12T07:47:05Z</time>
      </trkpt>
      <trkpt lat="42.84265" lon="1.19244">
        <ele>612.8</ele>
        <time>2024-05-12T07:47:06Z</time>
      </trkpt>
      <trkpt lat="42.84266" lon="1.19241">
        <ele>612</ele>
        <time>2024-05-12T07:47:07Z</time>
      </trkpt>
      <trkpt lat="42.84266" lon="1.19238">
        <ele>611.2</ele>
        <time>2024-05-12T07:47:08Z</time>
      </trkpt>
      <trkpt lat="42.84266" lon="1.19235">
        <ele>610.4</ele>
        <time>2024-05-12T07:47:09Z</time>
      </trkpt>
      <trkpt lat="42.84266" lon="1.19234">
        <ele>609.8</ele>
        <time>2024-05-12T07:47:10Z</time>
      </trkpt>
      <trkpt lat="42.84265" lon="1.1923">
        <ele>609</ele>
        <time>2024-05-12T07:47:11Z</time>
      </trkpt>
      <trkpt lat="42.84264" lon="1.19227">
        <ele>608.4</ele>
        <time>2024-05-12T07:47:12Z</time>
      </trkpt>
      <trkpt lat="42.84264" lon="1.19224">
        <ele>607.8</ele>
        <time>2024-05-12T07:47:13Z</time>
      </trkpt>
      <trkpt lat="42.84264" lon="1.19222">
        <ele>607.2</ele>
        <time>2024-05-12T07:47:14Z</time>
      </trkpt>
      <trkpt lat="42.84264" lon="1.19218">
        <ele>606.6</ele>
        <time>2024-05-12T07:47:15Z</time>
      </trkpt>
      <trkpt lat="42.84264" lon="1.19215">
        <ele>606.2</ele>
        <time>2024-05-12T07:47:16Z</time>
      </trkpt>
      <trkpt lat="42.84264" lon="1.19213">
        <ele>605.8</ele>
        <time>2024-05-12T07:47:17Z</time>
      </trkpt>
      <trkpt lat="42.84265" lon="1.1921">
        <ele>605.4</ele>
        <time>2024-05-12T07:47:18Z</time>
      </trkpt>
      <trkpt lat="42.84264" lon="1.19207">
        <ele>604.8</ele>
        <time>2024-05-12T07:47:19Z</time>
      </trkpt>
      <trkpt lat="42.84264" lon="1.19204">
        <ele>604.2</ele>
        <time>2024-05-12T07:47:20Z</time>
      </trkpt>
      <trkpt lat="42.84264" lon="1.19201">
        <ele>603.6</ele>
        <time>2024-05-12T07:47:21Z</time>
      </trkpt>
      <trkpt lat="42.84263" lon="1.19199">
        <ele>603</ele>
        <time>2024-05-12T07:47:22Z</time>
      </trkpt>
      <trkpt lat="42.84263" lon="1.19198">
        <ele>602.4</ele>
        <time>2024-05-12T07:47:23Z</time>
      </trkpt>
      <trkpt lat="42.84263" lon="1.19196">
        <ele>601.8</ele>
        <time>2024-05-12T07:47:24Z</time>
      </trkpt>
      <trkpt lat="42.84264" lon="1.19194">
        <ele>601.2</ele>
        <time>2024-05-12T07:47:25Z</time>
      </trkpt>
      <trkpt lat="42.84265" lon="1.19192">
        <ele>600.6</ele>
        <time>2024-05-12T07:47:26Z</time>
      </trkpt>
      <trkpt lat="42.84267" lon="1.19193">
        <ele>600</ele>
        <time>2024-05-12T07:47:27Z</time>
      </trkpt>
      <trkpt lat="42.84268" lon="1.19193">
        <ele>599.6</ele>
        <time>2024-05-12T07:47:28Z</time>
      </trkpt>
      <trkpt lat="42.84269" lon="1.19194">
        <ele>599.2</ele>
        <time>2024-05-12T07:47:29Z</time>
      </trkpt>
      <trkpt lat="42.84272" lon="1.19195">
        <ele>598.8</ele>
        <time>2024-05-12T07:47:30Z</time>
      </trkpt>
      <trkpt lat="42.84273" lon="1.19197">
        <ele>598.4</ele>
        <time>2024-05-12T07:47:31Z</time>
      </trkpt>
      <trkpt lat="42.84275" lon="1.19199">
        <ele>598</ele>
        <time>2024-05-12T07:47:32Z</time>
      </trkpt>
      <trkpt lat="42.84277" lon="1.19202">
        <ele>598</ele>
        <time>2024-05-12T07:47:34Z</time>
      </trkpt>
      <trkpt lat="42.84281" lon="1.19206">
        <ele>598</ele>
        <time>2024-05-12T07:47:37Z</time>
      </trkpt>
      <trkpt lat="42.84283" lon="1.19206">
        <ele>598</ele>
        <time>2024-05-12T07:47:38Z</time>
      </trkpt>
      <trkpt lat="42.84292" lon="1.19207">
        <ele>598</ele>
        <time>2024-05-12T07:47:41Z</time>
      </trkpt>
      <trkpt lat="42.84293" lon="1.19207">
        <ele>598</ele>
        <time>2024-05-12T07:47:43Z</time>
      </trkpt>
      <trkpt lat="42.84296" lon="1.19203">
        <ele>596</ele>
        <time>2024-05-12T07:48:23Z</time>
      </trkpt>
      <trkpt lat="42.843" lon="1.19205">
        <ele>596</ele>
        <time>2024-05-12T07:48:26Z</time>
      </trkpt>
      <trkpt lat="42.843" lon="1.19205">
        <ele>596</ele>
        <time>2024-05-12T07:48:27Z</time>
      </trkpt>
      <trkpt lat="42.84305" lon="1.19201">
        <ele>592.2</ele>
        <time>2024-05-12T07:54:14Z</time>
      </trkpt>
      <trkpt lat="42.84308" lon="1.19203">
        <ele>592.2</ele>
        <time>2024-05-12T07:54:15Z</time>
      </trkpt>
      <trkpt lat="42.84322" lon="1.19219">
        <ele>592.2</ele>
        <time>2024-05-12T07:54:18Z</time>
      </trkpt>
      <trkpt lat="42.84335" lon="1.19231">
        <ele>591.6</ele>
        <time>2024-05-12T07:54:20Z</time>
      </trkpt>
      <trkpt lat="42.84341" lon="1.19237">
        <ele>591.2</ele>
        <time>2024-05-12T07:54:21Z</time>
      </trkpt>
      <trkpt lat="42.84348" lon="1.19244">
        <ele>590.6</ele>
        <time>2024-05-12T07:54:22Z</time>
      </trkpt>
      <trkpt lat="42.84355" lon="1.19252">
        <ele>590</ele>
        <time>2024-05-12T07:54:23Z</time>
      </trkpt>
      <trkpt lat="42.84363" lon="1.19259">
        <ele>589.4</ele>
        <time>2024-05-12T07:54:24Z</time>
      </trkpt>
      <trkpt lat="42.84372" lon="1.19266">
        <ele>588.6</ele>
        <time>2024-05-12T07:54:25Z</time>
      </trkpt>
      <trkpt lat="42.84381" lon="1.19271">
        <ele>587.8</ele>
        <time>2024-05-12T07:54:26Z</time>
      </trkpt>
      <trkpt lat="42.84391" lon="1.19275">
        <ele>587</ele>
        <time>2024-05-12T07:54:27Z</time>
      </trkpt>
      <trkpt lat="42.84401" lon="1.19276">
        <ele>586</ele>
        <time>2024-05-12T07:54:28Z</time>
      </trkpt>
      <trkpt lat="42.84412" lon="1.19276">
        <ele>585</ele>
        <time>2024-05-12T07:54:29Z</time>
      </trkpt>
      <trkpt lat="42.84422" lon="1.19274">
        <ele>584</ele>
        <time>2024-05-12T07:54:30Z</time>
      </trkpt>
      <trkpt lat="42.84432" lon="1.19269">
        <ele>582.8</ele>
        <time>2024-05-12T07:54:31Z</time>
      </trkpt>
      <trkpt lat="42.84442" lon="1.19259">
        <ele>581.8</ele>
        <time>2024-05-12T07:54:32Z</time>
      </trkpt>
      <trkpt lat="42.84451" lon="1.19248">
        <ele>580.6</ele>
        <time>2024-05-12T07:54:33Z</time>
      </trkpt>
      <trkpt lat="42.8446" lon="1.19238">
        <ele>579.4</ele>
        <time>2024-05-12T07:54:34Z</time>
      </trkpt>
      <trkpt lat="42.84469" lon="1.19229">
        <ele>578.2</ele>
        <time>2024-05-12T07:54:35Z</time>
      </trkpt>
      <trkpt lat="42.84476" lon="1.19221">
        <ele>576.8</ele>
        <time>2024-05-12T07:54:36Z</time>
      </trkpt>
      <trkpt lat="42.84484" lon="1.19216">
        <ele>575.6</ele>
        <time>2024-05-12T07:54:37Z</time>
      </trkpt>
      <trkpt lat="42.84492" lon="1.19213">
        <ele>574.2</ele>
        <time>2024-05-12T07:54:38Z</time>
      </trkpt>
      <trkpt lat="42.845" lon="1.19212">
        <ele>573</ele>
        <time>2024-05-12T07:54:39Z</time>
      </trkpt>
      <trkpt lat="42.84509" lon="1.19211">
        <ele>570.4</ele>
        <time>2024-05-12T07:54:40Z</time>
      </trkpt>
      <trkpt lat="42.84517" lon="1.19211">
        <ele>569.2</ele>
        <time>2024-05-12T07:54:41Z</time>
      </trkpt>
      <trkpt lat="42.84524" lon="1.1921">
        <ele>567.8</ele>
        <time>2024-05-12T07:54:42Z</time>
      </trkpt>
      <trkpt lat="42.8453" lon="1.19209">
        <ele>566.6</ele>
        <time>2024-05-12T07:54:43Z</time>
      </trkpt>
      <trkpt lat="42.84534" lon="1.19207">
        <ele>565.6</ele>
        <time>2024-05-12T07:54:44Z</time>
      </trkpt>
      <trkpt lat="42.84538" lon="1.19206">
        <ele>564.6</ele>
        <time>2024-05-12T07:54:45Z</time>
      </trkpt>
      <trkpt lat="42.8454" lon="1.19206">
        <ele>563.6</ele>
        <time>2024-05-12T07:54:46Z</time>
      </trkpt>
      <trkpt lat="42.84543" lon="1.19205">
        <ele>562.6</ele>
        <time>2024-05-12T07:54:47Z</time>
      </trkpt>
      <trkpt lat="42.84546" lon="1.19204">
        <ele>561.6</ele>
        <time>2024-05-12T07:54:48Z</time>
      </trkpt>
      <trkpt lat="42.8455" lon="1.19204">
        <ele>561.6</ele>
        <time>2024-05-12T07:54:49Z</time>
      </trkpt>
      <trkpt lat="42.8457" lon="1.19207">
        <ele>561.6</ele>
        <time>2024-05-12T07:54:54Z</time>
      </trkpt>
      <trkpt lat="42.84582" lon="1.19212">
        <ele>561.6</ele>
        <time>2024-05-12T07:54:57Z</time>
      </trkpt>
      <trkpt lat="42.84587" lon="1.19213">
        <ele>561.6</ele>
        <time>2024-05-12T07:54:58Z</time>
      </trkpt>
      <trkpt lat="42.84597" lon="1.19217">
        <ele>561.2</ele>
        <time>2024-05-12T07:55:00Z</time>
      </trkpt>
      <trkpt lat="42.84602" lon="1.19219">
        <ele>560.8</ele>
        <time>2024-05-12T07:55:01Z</time>
      </trkpt>
      <trkpt lat="42.84607" lon="1.19221">
        <ele>560.4</ele>
        <time>2024-05-12T07:55:02Z</time>
      </trkpt>
      <trkpt lat="42.84612" lon="1.19223">
        <ele>560</ele>
        <time>2024-05-12T07:55:03Z</time>
      </trkpt>
      <trkpt lat="42.84618" lon="1.19225">
        <ele>559.4</ele>
        <time>2024-05-12T07:55:04Z</time>
      </trkpt>
      <trkpt lat="42.84647" lon="1.19243">
        <ele>559.4</ele>
        <time>2024-05-12T07:55:10Z</time>
      </trkpt>
      <trkpt lat="42.84651" lon="1.19246">
        <ele>559.4</ele>
        <time>2024-05-12T07:55:11Z</time>
      </trkpt>
      <trkpt lat="42.84668" lon="1.19257">
        <ele>559.4</ele>
        <time>2024-05-12T07:55:15Z</time>
      </trkpt>
      <trkpt lat="42.84679" lon="1.19262">
        <ele>559.4</ele>
        <time>2024-05-12T07:55:17Z</time>
      </trkpt>
      <trkpt lat="42.84695" lon="1.19269">
        <ele>559.4</ele>
        <time>2024-05-12T07:55:20Z</time>
      </trkpt>
      <trkpt lat="42.847" lon="1.1927">
        <ele>559.4</ele>
        <time>2024-05-12T07:55:21Z</time>
      </trkpt>
      <trkpt lat="42.84721" lon="1.1927">
        <ele>559.4</ele>
        <time>2024-05-12T07:55:25Z</time>
      </trkpt>
      <trkpt lat="42.84735" lon="1.19266">
        <ele>559.4</ele>
        <time>2024-05-12T07:55:28Z</time>
      </trkpt>
      <trkpt lat="42.84739" lon="1.19263">
        <ele>559.4</ele>
        <time>2024-05-12T07:55:29Z</time>
      </trkpt>
      <trkpt lat="42.84751" lon="1.19251">
        <ele>559.4</ele>
        <time>2024-05-12T07:55:33Z</time>
      </trkpt>
      <trkpt lat="42.8475" lon="1.19246">
        <ele>559.4</ele>
        <time>2024-05-12T07:55:34Z</time>
      </trkpt>
      <trkpt lat="42.8474" lon="1.19233">
        <ele>559.4</ele>
        <time>2024-05-12T07:55:37Z</time>
      </trkpt>
      <trkpt lat="42.84738" lon="1.19228">
        <ele>559.4</ele>
        <time>2024-05-12T07:55:38Z</time>
      </trkpt>
      <trkpt lat="42.84726" lon="1.19199">
        <ele>559.4</ele>
        <time>2024-05-12T07:55:45Z</time>
      </trkpt>
      <trkpt lat="42.84721" lon="1.19178">
        <ele>559.4</ele>
        <time>2024-05-12T07:55:52Z</time>
      </trkpt>
      <trkpt lat="42.84713" lon="1.19159">
        <ele>560</ele>
        <time>2024-05-12T07:55:59Z</time>
      </trkpt>
      <trkpt lat="42.84711" lon="1.19156">
        <ele>560.4</ele>
        <time>2024-05-12T07:56:00Z</time>
      </trkpt>
      <trkpt lat="42.8471" lon="1.19153">
        <ele>560.8</ele>
        <time>2024-05-12T07:56:01Z</time>
      </trkpt>
      <trkpt lat="42.84709" lon="1.1915">
        <ele>561.2</ele>
        <time>2024-05-12T07:56:02Z</time>
      </trkpt>
      <trkpt lat="42.84708" lon="1.19147">
        <ele>561.6</ele>
        <time>2024-05-12T07:56:03Z</time>
      </trkpt>
      <trkpt lat="42.84705" lon="1.19136">
        <ele>561.6</ele>
        <time>2024-05-12T07:56:07Z</time>
      </trkpt>
      <trkpt lat="42.84704" lon="1.19132">
        <ele>562</ele>
        <time>2024-05-12T07:56:08Z</time>
      </trkpt>
      <trkpt lat="42.84703" lon="1.1913">
        <ele>562.4</ele>
        <time>2024-05-12T07:56:09Z</time>
      </trkpt>
      <trkpt lat="42.84702" lon="1.19126">
        <ele>563</ele>
        <time>2024-05-12T07:56:10Z</time>
      </trkpt>
      <trkpt lat="42.847" lon="1.19123">
        <ele>563.4</ele>
        <time>2024-05-12T07:56:11Z</time>
      </trkpt>
      <trkpt lat="42.847" lon="1.1912">
        <ele>563.8</ele>
        <time>2024-05-12T07:56:12Z</time>
      </trkpt>
      <trkpt lat="42.847" lon="1.19109">
        <ele>564.2</ele>
        <time>2024-05-12T07:56:15Z</time>
      </trkpt>
      <trkpt lat="42.84701" lon="1.19105">
        <ele>564.8</ele>
        <time>2024-05-12T07:56:16Z</time>
      </trkpt>
      <trkpt lat="42.84702" lon="1.19102">
        <ele>565.2</ele>
        <time>2024-05-12T07:56:17Z</time>
      </trkpt>
      <trkpt lat="42.84702" lon="1.19099">
        <ele>565.6</ele>
        <time>2024-05-12T07:56:18Z</time>
      </trkpt>
      <trkpt lat="42.84703" lon="1.19096">
        <ele>566</ele>
        <time>2024-05-12T07:56:19Z</time>
      </trkpt>
      <trkpt lat="42.84706" lon="1.19091">
        <ele>566.4</ele>
        <time>2024-05-12T07:56:21Z</time>
      </trkpt>
      <trkpt lat="42.84707" lon="1.19088">
        <ele>567</ele>
        <time>2024-05-12T07:56:22Z</time>
      </trkpt>
      <trkpt lat="42.84708" lon="1.19086">
        <ele>567.4</ele>
        <time>2024-05-12T07:56:23Z</time>
      </trkpt>
      <trkpt lat="42.8471" lon="1.19084">
        <ele>567.8</ele>
        <time>2024-05-12T07:56:24Z</time>
      </trkpt>
      <trkpt lat="42.84711" lon="1.19082">
        <ele>568.2</ele>
        <time>2024-05-12T07:56:25Z</time>
      </trkpt>
      <trkpt lat="42.84714" lon="1.1907">
        <ele>568.6</ele>
        <time>2024-05-12T07:56:30Z</time>
      </trkpt>
      <trkpt lat="42.84714" lon="1.19068">
        <ele>569</ele>
        <time>2024-05-12T07:56:31Z</time>
      </trkpt>
      <trkpt lat="42.84715" lon="1.19065">
        <ele>569.4</ele>
        <time>2024-05-12T07:56:32Z</time>
      </trkpt>
      <trkpt lat="42.84716" lon="1.19062">
        <ele>569.8</ele>
        <time>2024-05-12T07:56:33Z</time>
      </trkpt>
      <trkpt lat="42.84716" lon="1.19059">
        <ele>570.2</ele>
        <time>2024-05-12T07:56:34Z</time>
      </trkpt>
      <trkpt lat="42.84718" lon="1.19047">
        <ele>570.2</ele>
        <time>2024-05-12T07:56:38Z</time>
      </trkpt>
      <trkpt lat="42.84718" lon="1.19044">
        <ele>570.6</ele>
        <time>2024-05-12T07:56:39Z</time>
      </trkpt>
      <trkpt lat="42.84718" lon="1.19042">
        <ele>571.2</ele>
        <time>2024-05-12T07:56:40Z</time>
      </trkpt>
      <trkpt lat="42.84718" lon="1.19039">
        <ele>571.6</ele>
        <time>2024-05-12T07:56:41Z</time>
      </trkpt>
      <trkpt lat="42.84719" lon="1.19036">
        <ele>572</ele>
        <time>2024-05-12T07:56:42Z</time>
      </trkpt>
      <trkpt lat="42.84719" lon="1.19034">
        <ele>572.4</ele>
        <time>2024-05-12T07:56:43Z</time>
      </trkpt>
      <trkpt lat="42.84719" lon="1.19032">
        <ele>572.4</ele>
        <time>2024-05-12T07:56:44Z</time>
      </trkpt>
      <trkpt lat="42.8472" lon="1.19024">
        <ele>572.8</ele>
        <time>2024-05-12T07:56:47Z</time>
      </trkpt>
      <trkpt lat="42.84721" lon="1.19022">
        <ele>573.2</ele>
        <time>2024-05-12T07:56:48Z</time>
      </trkpt>
      <trkpt lat="42.84721" lon="1.19019">
        <ele>573.6</ele>
        <time>2024-05-12T07:56:49Z</time>
      </trkpt>
      <trkpt lat="42.84721" lon="1.19017">
        <ele>574</ele>
        <time>2024-05-12T07:56:50Z</time>
      </trkpt>
      <trkpt lat="42.84722" lon="1.19014">
        <ele>574.4</ele>
        <time>2024-05-12T07:56:51Z</time>
      </trkpt>
      <trkpt lat="42.84723" lon="1.1901">
        <ele>574.4</ele>
        <time>2024-05-12T07:56:52Z</time>
      </trkpt>
      <trkpt lat="42.84725" lon="1.18999">
        <ele>575</ele>
        <time>2024-05-12T07:56:56Z</time>
      </trkpt>
      <trkpt lat="42.84725" lon="1.18997">
        <ele>575.4</ele>
        <time>2024-05-12T07:56:57Z</time>
      </trkpt>
      <trkpt lat="42.84726" lon="1.18995">
        <ele>575.8</ele>
        <time>2024-05-12T07:56:58Z</time>
      </trkpt>
      <trkpt lat="42.84726" lon="1.18992">
        <ele>576.2</ele>
        <time>2024-05-12T07:56:59Z</time>
      </trkpt>
      <trkpt lat="42.84727" lon="1.18989">
        <ele>576.6</ele>
        <time>2024-05-12T07:57:00Z</time>
      </trkpt>
      <trkpt lat="42.84728" lon="1.18979">
        <ele>577.2</ele>
        <time>2024-05-12T07:57:03Z</time>
      </trkpt>
      <trkpt lat="42.84729" lon="1.18976">
        <ele>577.6</ele>
        <time>2024-05-12T07:57:04Z</time>
      </trkpt>
      <trkpt lat="42.84729" lon="1.18973">
        <ele>578</ele>
        <time>2024-05-12T07:57:05Z</time>
      </trkpt>
      <trkpt lat="42.84729" lon="1.18971">
        <ele>578.4</ele>
        <time>2024-05-12T07:57:06Z</time>
      </trkpt>
      <trkpt lat="42.84729" lon="1.18969">
        <ele>579</ele>
        <time>2024-05-12T07:57:07Z</time>
      </trkpt>
      <trkpt lat="42.84729" lon="1.18962">
        <ele>579.4</ele>
        <time>2024-05-12T07:57:09Z</time>
      </trkpt>
      <trkpt lat="42.8473" lon="1.18957">
        <ele>579.8</ele>
        <time>2024-05-12T07:57:10Z</time>
      </trkpt>
      <trkpt lat="42.8473" lon="1.18953">
        <ele>580.2</ele>
        <time>2024-05-12T07:57:11Z</time>
      </trkpt>
      <trkpt lat="42.8473" lon="1.1895">
        <ele>580.6</ele>
        <time>2024-05-12T07:57:12Z</time>
      </trkpt>
      <trkpt lat="42.84731" lon="1.18946">
        <ele>581</ele>
        <time>2024-05-12T07:57:13Z</time>
      </trkpt>
      <trkpt lat="42.84731" lon="1.18943">
        <ele>581.4</ele>
        <time>2024-05-12T07:57:14Z</time>
      </trkpt>
      <trkpt lat="42.84732" lon="1.1894">
        <ele>581.8</ele>
        <time>2024-05-12T07:57:15Z</time>
      </trkpt>
      <trkpt lat="42.84733" lon="1.18937">
        <ele>582.2</ele>
        <time>2024-05-12T07:57:16Z</time>
      </trkpt>
      <trkpt lat="42.84734" lon="1.18933">
        <ele>582.6</ele>
        <time>2024-05-12T07:57:17Z</time>
      </trkpt>
      <trkpt lat="42.84735" lon="1.1893">
        <ele>583</ele>
        <time>2024-05-12T07:57:18Z</time>
      </trkpt>
      <trkpt lat="42.84738" lon="1.18919">
        <ele>583.4</ele>
        <time>2024-05-12T07:57:21Z</time>
      </trkpt>
      <trkpt lat="42.84739" lon="1.18916">
        <ele>583.8</ele>
        <time>2024-05-12T07:57:22Z</time>
      </trkpt>
      <trkpt lat="42.8474" lon="1.18912">
        <ele>584.2</ele>
        <time>2024-05-12T07:57:23Z</time>
      </trkpt>
      <trkpt lat="42.8474" lon="1.18909">
        <ele>584.8</ele>
        <time>2024-05-12T07:57:24Z</time>
      </trkpt>
      <trkpt lat="42.84741" lon="1.18906">
        <ele>585.2</ele>
        <time>2024-05-12T07:57:25Z</time>
      </trkpt>
      <trkpt lat="42.84743" lon="1.18895">
        <ele>585.6</ele>
        <time>2024-05-12T07:57:28Z</time>
      </trkpt>
      <trkpt lat="42.84744" lon="1.18893">
        <ele>586</ele>
        <time>2024-05-12T07:57:29Z</time>
      </trkpt>
      <trkpt lat="42.84745" lon="1.1889">
        <ele>586.4</ele>
        <time>2024-05-12T07:57:30Z</time>
      </trkpt>
      <trkpt lat="42.84745" lon="1.18887">
        <ele>586.8</ele>
        <time>2024-05-12T07:57:31Z</time>
      </trkpt>
      <trkpt lat="42.84746" lon="1.18883">
        <ele>587.2</ele>
        <time>2024-05-12T07:57:32Z</time>
      </trkpt>
      <trkpt lat="42.84749" lon="1.18872">
        <ele>587.6</ele>
        <time>2024-05-12T07:57:36Z</time>
      </trkpt>
      <trkpt lat="42.8475" lon="1.18869">
        <ele>588.2</ele>
        <time>2024-05-12T07:57:37Z</time>
      </trkpt>
      <trkpt lat="42.8475" lon="1.18867">
        <ele>588.6</ele>
        <time>2024-05-12T07:57:38Z</time>
      </trkpt>
      <trkpt lat="42.84751" lon="1.18863">
        <ele>589</ele>
        <time>2024-05-12T07:57:39Z</time>
      </trkpt>
      <trkpt lat="42.84752" lon="1.1886">
        <ele>589.6</ele>
        <time>2024-05-12T07:57:40Z</time>
      </trkpt>
      <trkpt lat="42.84755" lon="1.1885">
        <ele>589.6</ele>
        <time>2024-05-12T07:57:43Z</time>
      </trkpt>
      <trkpt lat="42.84755" lon="1.18847">
        <ele>590</ele>
        <time>2024-05-12T07:57:44Z</time>
      </trkpt>
      <trkpt lat="42.84756" lon="1.18844">
        <ele>590.4</ele>
        <time>2024-05-12T07:57:45Z</time>
      </trkpt>
      <trkpt lat="42.84757" lon="1.18841">
        <ele>590.8</ele>
        <time>2024-05-12T07:57:46Z</time>
      </trkpt>
      <trkpt lat="42.84757" lon="1.18838">
        <ele>591.2</ele>
        <time>2024-05-12T07:57:47Z</time>
      </trkpt>
      <trkpt lat="42.84758" lon="1.18835">
        <ele>591.6</ele>
        <time>2024-05-12T07:57:48Z</time>
      </trkpt>
      <trkpt lat="42.84759" lon="1.18832">
        <ele>591.6</ele>
        <time>2024-05-12T07:57:49Z</time>
      </trkpt>
      <trkpt lat="42.84762" lon="1.18823">
        <ele>592</ele>
        <time>2024-05-12T07:57:52Z</time>
      </trkpt>
      <trkpt lat="42.84763" lon="1.18821">
        <ele>592.4</ele>
        <time>2024-05-12T07:57:53Z</time>
      </trkpt>
      <trkpt lat="42.84764" lon="1.18818">
        <ele>593</ele>
        <time>2024-05-12T07:57:54Z</time>
      </trkpt>
      <trkpt lat="42.84765" lon="1.18815">
        <ele>593.4</ele>
        <time>2024-05-12T07:57:55Z</time>
      </trkpt>
      <trkpt lat="42.84766" lon="1.18813">
        <ele>593.8</ele>
        <time>2024-05-12T07:57:56Z</time>
      </trkpt>
      <trkpt lat="42.8477" lon="1.18805">
        <ele>594.2</ele>
        <time>2024-05-12T07:57:59Z</time>
      </trkpt>
      <trkpt lat="42.84771" lon="1.18802">
        <ele>594.8</ele>
        <time>2024-05-12T07:58:00Z</time>
      </trkpt>
      <trkpt lat="42.84772" lon="1.188">
        <ele>595.2</ele>
        <time>2024-05-12T07:58:01Z</time>
      </trkpt>
      <trkpt lat="42.84773" lon="1.18797">
        <ele>595.6</ele>
        <time>2024-05-12T07:58:02Z</time>
      </trkpt>
      <trkpt lat="42.84774" lon="1.18795">
        <ele>596</ele>
        <time>2024-05-12T07:58:03Z</time>
      </trkpt>
      <trkpt lat="42.84777" lon="1.18787">
        <ele>596.4</ele>
        <time>2024-05-12T07:58:06Z</time>
      </trkpt>
      <trkpt lat="42.84778" lon="1.18784">
        <ele>597</ele>
        <time>2024-05-12T07:58:07Z</time>
      </trkpt>
      <trkpt lat="42.84779" lon="1.18781">
        <ele>597.4</ele>
        <time>2024-05-12T07:58:08Z</time>
      </trkpt>
      <trkpt lat="42.8478" lon="1.18778">
        <ele>597.8</ele>
        <time>2024-05-12T07:58:09Z</time>
      </trkpt>
      <trkpt lat="42.8478" lon="1.18775">
        <ele>598.2</ele>
        <time>2024-05-12T07:58:10Z</time>
      </trkpt>
      <trkpt lat="42.84783" lon="1.18766">
        <ele>598.8</ele>
        <time>2024-05-12T07:58:13Z</time>
      </trkpt>
      <trkpt lat="42.84783" lon="1.18763">
        <ele>599.2</ele>
        <time>2024-05-12T07:58:14Z</time>
      </trkpt>
      <trkpt lat="42.84784" lon="1.18761">
        <ele>599.6</ele>
        <time>2024-05-12T07:58:15Z</time>
      </trkpt>
      <trkpt lat="42.84784" lon="1.18758">
        <ele>600</ele>
        <time>2024-05-12T07:58:16Z</time>
      </trkpt>
      <trkpt lat="42.84784" lon="1.18756">
        <ele>600.6</ele>
        <time>2024-05-12T07:58:17Z</time>
      </trkpt>
      <trkpt lat="42.84786" lon="1.18745">
        <ele>601</ele>
        <time>2024-05-12T07:58:21Z</time>
      </trkpt>
      <trkpt lat="42.84786" lon="1.18742">
        <ele>601.4</ele>
        <time>2024-05-12T07:58:22Z</time>
      </trkpt>
      <trkpt lat="42.84787" lon="1.1874">
        <ele>602.2</ele>
        <time>2024-05-12T07:58:23Z</time>
      </trkpt>
      <trkpt lat="42.84788" lon="1.18737">
        <ele>602.6</ele>
        <time>2024-05-12T07:58:24Z</time>
      </trkpt>
      <trkpt lat="42.8479" lon="1.18727">
        <ele>603</ele>
        <time>2024-05-12T07:58:28Z</time>
      </trkpt>
      <trkpt lat="42.84791" lon="1.18724">
        <ele>603.6</ele>
        <time>2024-05-12T07:58:29Z</time>
      </trkpt>
      <trkpt lat="42.84791" lon="1.18722">
        <ele>604</ele>
        <time>2024-05-12T07:58:30Z</time>
      </trkpt>
      <trkpt lat="42.84792" lon="1.18719">
        <ele>604.4</ele>
        <time>2024-05-12T07:58:31Z</time>
      </trkpt>
      <trkpt lat="42.84793" lon="1.18717">
        <ele>604.8</ele>
        <time>2024-05-12T07:58:32Z</time>
      </trkpt>
      <trkpt lat="42.84798" lon="1.18703">
        <ele>605.2</ele>
        <time>2024-05-12T07:58:37Z</time>
      </trkpt>
      <trkpt lat="42.84798" lon="1.18701">
        <ele>605.6</ele>
        <time>2024-05-12T07:58:38Z</time>
      </trkpt>
      <trkpt lat="42.84798" lon="1.18698">
        <ele>606</ele>
        <time>2024-05-12T07:58:39Z</time>
      </trkpt>
      <trkpt lat="42.84798" lon="1.18695">
        <ele>606.4</ele>
        <time>2024-05-12T07:58:40Z</time>
      </trkpt>
      <trkpt lat="42.84799" lon="1.18692">
        <ele>606.8</ele>
        <time>2024-05-12T07:58:41Z</time>
      </trkpt>
      <trkpt lat="42.84799" lon="1.18686">
        <ele>606.8</ele>
        <time>2024-05-12T07:58:43Z</time>
      </trkpt>
      <trkpt lat="42.84799" lon="1.18681">
        <ele>607.4</ele>
        <time>2024-05-12T07:58:45Z</time>
      </trkpt>
      <trkpt lat="42.84799" lon="1.18678">
        <ele>607.8</ele>
        <time>2024-05-12T07:58:46Z</time>
      </trkpt>
      <trkpt lat="42.84798" lon="1.18675">
        <ele>608.8</ele>
        <time>2024-05-12T07:58:47Z</time>
      </trkpt>
      <trkpt lat="42.84797" lon="1.18673">
        <ele>609.2</ele>
        <time>2024-05-12T07:58:48Z</time>
      </trkpt>
      <trkpt lat="42.84796" lon="1.1867">
        <ele>609.2</ele>
        <time>2024-05-12T07:58:50Z</time>
      </trkpt>
      <trkpt lat="42.84794" lon="1.18668">
        <ele>609.6</ele>
        <time>2024-05-12T07:58:54Z</time>
      </trkpt>
      <trkpt lat="42.84794" lon="1.18668">
        <ele>610</ele>
        <time>2024-05-12T07:58:55Z</time>
      </trkpt>
      <trkpt lat="42.84794" lon="1.18671">
        <ele>611.2</ele>
        <time>2024-05-12T07:58:58Z</time>
      </trkpt>
      <trkpt lat="42.84793" lon="1.18677">
        <ele>611.2</ele>
        <time>2024-05-12T07:59:00Z</time>
      </trkpt>
      <trkpt lat="42.84794" lon="1.18685">
        <ele>611.2</ele>
        <time>2024-05-12T07:59:04Z</time>
      </trkpt>
      <trkpt lat="42.84795" lon="1.18686">
        <ele>611.2</ele>
        <time>2024-05-12T07:59:05Z</time>
      </trkpt>
      <trkpt lat="42.848" lon="1.18697">
        <ele>611.2</ele>
        <time>2024-05-12T07:59:09Z</time>
      </trkpt>
      <trkpt lat="42.84803" lon="1.18701">
        <ele>611.2</ele>
        <time>2024-05-12T07:59:11Z</time>
      </trkpt>
      <trkpt lat="42.84805" lon="1.18707">
        <ele>611.6</ele>
        <time>2024-05-12T07:59:14Z</time>
      </trkpt>
      <trkpt lat="42.84805" lon="1.18709">
        <ele>612.2</ele>
        <time>2024-05-12T07:59:15Z</time>
      </trkpt>
      <trkpt lat="42.84805" lon="1.18711">
        <ele>612.6</ele>
        <time>2024-05-12T07:59:16Z</time>
      </trkpt>
      <trkpt lat="42.84804" lon="1.18713">
        <ele>613</ele>
        <time>2024-05-12T07:59:17Z</time>
      </trkpt>
      <trkpt lat="42.84804" lon="1.18716">
        <ele>613.6</ele>
        <time>2024-05-12T07:59:18Z</time>
      </trkpt>
      <trkpt lat="42.84804" lon="1.18721">
        <ele>613.6</ele>
        <time>2024-05-12T07:59:20Z</time>
      </trkpt>
      <trkpt lat="42.84803" lon="1.18738">
        <ele>613.6</ele>
        <time>2024-05-12T07:59:26Z</time>
      </trkpt>
      <trkpt lat="42.84806" lon="1.18757">
        <ele>614</ele>
        <time>2024-05-12T07:59:31Z</time>
      </trkpt>
      <trkpt lat="42.84807" lon="1.18761">
        <ele>614.4</ele>
        <time>2024-05-12T07:59:32Z</time>
      </trkpt>
      <trkpt lat="42.84808" lon="1.18765">
        <ele>614.8</ele>
        <time>2024-05-12T07:59:33Z</time>
      </trkpt>
      <trkpt lat="42.84808" lon="1.18768">
        <ele>615.2</ele>
        <time>2024-05-12T07:59:34Z</time>
      </trkpt>
      <trkpt lat="42.84808" lon="1.18771">
        <ele>615.6</ele>
        <time>2024-05-12T07:59:35Z</time>
      </trkpt>
      <trkpt lat="42.84809" lon="1.18774">
        <ele>616</ele>
        <time>2024-05-12T07:59:36Z</time>
      </trkpt>
      <trkpt lat="42.8481" lon="1.18778">
        <ele>616.8</ele>
        <time>2024-05-12T07:59:37Z</time>
      </trkpt>
      <trkpt lat="42.8481" lon="1.18781">
        <ele>617.2</ele>
        <time>2024-05-12T07:59:38Z</time>
      </trkpt>
      <trkpt lat="42.84811" lon="1.18785">
        <ele>617.6</ele>
        <time>2024-05-12T07:59:39Z</time>
      </trkpt>
      <trkpt lat="42.84811" lon="1.18788">
        <ele>618</ele>
        <time>2024-05-12T07:59:40Z</time>
      </trkpt>
      <trkpt lat="42.84811" lon="1.18792">
        <ele>618.4</ele>
        <time>2024-05-12T07:59:41Z</time>
      </trkpt>
      <trkpt lat="42.84811" lon="1.18795">
        <ele>618.8</ele>
        <time>2024-05-12T07:59:42Z</time>
      </trkpt>
      <trkpt lat="42.84811" lon="1.18798">
        <ele>619.4</ele>
        <time>2024-05-12T07:59:43Z</time>
      </trkpt>
      <trkpt lat="42.84811" lon="1.18801">
        <ele>619.8</ele>
        <time>2024-05-12T07:59:44Z</time>
      </trkpt>
      <trkpt lat="42.8481" lon="1.18806">
        <ele>620.2</ele>
        <time>2024-05-12T07:59:46Z</time>
      </trkpt>
      <trkpt lat="42.8481" lon="1.18809">
        <ele>620.6</ele>
        <time>2024-05-12T07:59:47Z</time>
      </trkpt>
      <trkpt lat="42.8481" lon="1.18811">
        <ele>621</ele>
        <time>2024-05-12T07:59:48Z</time>
      </trkpt>
      <trkpt lat="42.84811" lon="1.18815">
        <ele>621.4</ele>
        <time>2024-05-12T07:59:49Z</time>
      </trkpt>
      <trkpt lat="42.84812" lon="1.18817">
        <ele>621.8</ele>
        <time>2024-05-12T07:59:50Z</time>
      </trkpt>
      <trkpt lat="42.84811" lon="1.18821">
        <ele>621.8</ele>
        <time>2024-05-12T07:59:51Z</time>
      </trkpt>
      <trkpt lat="42.84811" lon="1.18825">
        <ele>621.8</ele>
        <time>2024-05-12T07:59:52Z</time>
      </trkpt>
      <trkpt lat="42.8481" lon="1.18835">
        <ele>621.8</ele>
        <time>2024-05-12T07:59:55Z</time>
      </trkpt>
      <trkpt lat="42.84808" lon="1.1884">
        <ele>621.8</ele>
        <time>2024-05-12T07:59:57Z</time>
      </trkpt>
      <trkpt lat="42.84809" lon="1.18849">
        <ele>621.8</ele>
        <time>2024-05-12T08:00:01Z</time>
      </trkpt>
      <trkpt lat="42.84809" lon="1.18851">
        <ele>621.8</ele>
        <time>2024-05-12T08:00:02Z</time>
      </trkpt>
      <trkpt lat="42.84808" lon="1.18853">
        <ele>621.8</ele>
        <time>2024-05-12T08:00:05Z</time>
      </trkpt>
      <trkpt lat="42.84806" lon="1.18864">
        <ele>621.8</ele>
        <time>2024-05-12T08:02:52Z</time>
      </trkpt>
      <trkpt lat="42.84806" lon="1.18866">
        <ele>621.8</ele>
        <time>2024-05-12T08:02:53Z</time>
      </trkpt>
      <trkpt lat="42.84806" lon="1.18869">
        <ele>621.8</ele>
        <time>2024-05-12T08:02:56Z</time>
      </trkpt>
      <trkpt lat="42.84804" lon="1.18885">
        <ele>621.8</ele>
        <time>2024-05-12T08:03:43Z</time>
      </trkpt>
      <trkpt lat="42.84804" lon="1.18904">
        <ele>621.8</ele>
        <time>2024-05-12T08:03:49Z</time>
      </trkpt>
      <trkpt lat="42.84803" lon="1.18927">
        <ele>621.8</ele>
        <time>2024-05-12T08:03:55Z</time>
      </trkpt>
      <trkpt lat="42.84801" lon="1.18946">
        <ele>621.4</ele>
        <time>2024-05-12T08:04:00Z</time>
      </trkpt>
      <trkpt lat="42.84802" lon="1.18948">
        <ele>621</ele>
        <time>2024-05-12T08:04:01Z</time>
      </trkpt>
      <trkpt lat="42.84802" lon="1.18951">
        <ele>620.6</ele>
        <time>2024-05-12T08:04:02Z</time>
      </trkpt>
      <trkpt lat="42.84802" lon="1.18953">
        <ele>620.2</ele>
        <time>2024-05-12T08:04:03Z</time>
      </trkpt>
      <trkpt lat="42.84803" lon="1.18956">
        <ele>619.8</ele>
        <time>2024-05-12T08:04:04Z</time>
      </trkpt>
      <trkpt lat="42.84803" lon="1.1896">
        <ele>619.8</ele>
        <time>2024-05-12T08:04:06Z</time>
      </trkpt>
      <trkpt lat="42.84802" lon="1.18976">
        <ele>619.8</ele>
        <time>2024-05-12T08:04:12Z</time>
      </trkpt>
      <trkpt lat="42.84801" lon="1.18981">
        <ele>619.8</ele>
        <time>2024-05-12T08:04:14Z</time>
      </trkpt>
      <trkpt lat="42.84799" lon="1.18984">
        <ele>619.8</ele>
        <time>2024-05-12T08:04:16Z</time>
      </trkpt>
      <trkpt lat="42.84799" lon="1.18989">
        <ele>619.4</ele>
        <time>2024-05-12T08:04:18Z</time>
      </trkpt>
      <trkpt lat="42.84799" lon="1.18994">
        <ele>619</ele>
        <time>2024-05-12T08:04:19Z</time>
      </trkpt>
      <trkpt lat="42.84798" lon="1.18996">
        <ele>618.4</ele>
        <time>2024-05-12T08:04:20Z</time>
      </trkpt>
      <trkpt lat="42.84796" lon="1.19">
        <ele>618</ele>
        <time>2024-05-12T08:04:21Z</time>
      </trkpt>
      <trkpt lat="42.84794" lon="1.19004">
        <ele>617.6</ele>
        <time>2024-05-12T08:04:22Z</time>
      </trkpt>
      <trkpt lat="42.84794" lon="1.19009">
        <ele>617.2</ele>
        <time>2024-05-12T08:04:23Z</time>
      </trkpt>
      <trkpt lat="42.84794" lon="1.19013">
        <ele>616.6</ele>
        <time>2024-05-12T08:04:24Z</time>
      </trkpt>
      <trkpt lat="42.84796" lon="1.19017">
        <ele>616.2</ele>
        <time>2024-05-12T08:04:25Z</time>
      </trkpt>
      <trkpt lat="42.84798" lon="1.1902">
        <ele>615.8</ele>
        <time>2024-05-12T08:04:26Z</time>
      </trkpt>
      <trkpt lat="42.848" lon="1.19022">
        <ele>615.2</ele>
        <time>2024-05-12T08:04:27Z</time>
      </trkpt>
      <trkpt lat="42.84802" lon="1.19023">
        <ele>614.8</ele>
        <time>2024-05-12T08:04:28Z</time>
      </trkpt>
      <trkpt lat="42.84804" lon="1.19025">
        <ele>614.4</ele>
        <time>2024-05-12T08:04:29Z</time>
      </trkpt>
      <trkpt lat="42.84806" lon="1.19025">
        <ele>614</ele>
        <time>2024-05-12T08:04:30Z</time>
      </trkpt>
      <trkpt lat="42.84807" lon="1.19027">
        <ele>613.6</ele>
        <time>2024-05-12T08:04:31Z</time>
      </trkpt>
      <trkpt lat="42.84809" lon="1.19028">
        <ele>613.2</ele>
        <time>2024-05-12T08:04:32Z</time>
      </trkpt>
      <trkpt lat="42.84811" lon="1.19029">
        <ele>613.2</ele>
        <time>2024-05-12T08:04:35Z</time>
      </trkpt>
      <trkpt lat="42.84821" lon="1.19033">
        <ele>613.2</ele>
        <time>2024-05-12T08:04:41Z</time>
      </trkpt>
      <trkpt lat="42.84828" lon="1.19036">
        <ele>613.2</ele>
        <time>2024-05-12T08:04:46Z</time>
      </trkpt>
      <trkpt lat="42.84834" lon="1.19037">
        <ele>613.2</ele>
        <time>2024-05-12T08:05:07Z</time>
      </trkpt>
      <trkpt lat="42.84838" lon="1.19037">
        <ele>613.2</ele>
        <time>2024-05-12T08:05:09Z</time>
      </trkpt>
      <trkpt lat="42.84847" lon="1.19034">
        <ele>612.6</ele>
        <time>2024-05-12T08:05:12Z</time>
      </trkpt>
      <trkpt lat="42.8485" lon="1.19033">
        <ele>612.2</ele>
        <time>2024-05-12T08:05:13Z</time>
      </trkpt>
      <trkpt lat="42.84852" lon="1.19032">
        <ele>611.8</ele>
        <time>2024-05-12T08:05:14Z</time>
      </trkpt>
      <trkpt lat="42.84855" lon="1.19031">
        <ele>611.4</ele>
        <time>2024-05-12T08:05:15Z</time>
      </trkpt>
      <trkpt lat="42.84858" lon="1.1903">
        <ele>610.8</ele>
        <time>2024-05-12T08:05:16Z</time>
      </trkpt>
      <trkpt lat="42.84867" lon="1.19026">
        <ele>610.8</ele>
        <time>2024-05-12T08:05:19Z</time>
      </trkpt>
      <trkpt lat="42.84878" lon="1.19019">
        <ele>610.8</ele>
        <time>2024-05-12T08:05:24Z</time>
      </trkpt>
      <trkpt lat="42.84891" lon="1.19011">
        <ele>610.8</ele>
        <time>2024-05-12T08:05:30Z</time>
      </trkpt>
      <trkpt lat="42.849" lon="1.19007">
        <ele>611.2</ele>
        <time>2024-05-12T08:05:34Z</time>
      </trkpt>
      <trkpt lat="42.84903" lon="1.19006">
        <ele>611.6</ele>
        <time>2024-05-12T08:05:35Z</time>
      </trkpt>
      <trkpt lat="42.84905" lon="1.19005">
        <ele>612</ele>
        <time>2024-05-12T08:05:36Z</time>
      </trkpt>
      <trkpt lat="42.84908" lon="1.19006">
        <ele>612.4</ele>
        <time>2024-05-12T08:05:37Z</time>
      </trkpt>
      <trkpt lat="42.84911" lon="1.19007">
        <ele>613</ele>
        <time>2024-05-12T08:05:38Z</time>
      </trkpt>
      <trkpt lat="42.84923" lon="1.19009">
        <ele>613</ele>
        <time>2024-05-12T08:05:43Z</time>
      </trkpt>
      <trkpt lat="42.84926" lon="1.19007">
        <ele>613</ele>
        <time>2024-05-12T08:05:45Z</time>
      </trkpt>
      <trkpt lat="42.8493" lon="1.19006">
        <ele>613</ele>
        <time>2024-05-12T08:05:47Z</time>
      </trkpt>
      <trkpt lat="42.84931" lon="1.19006">
        <ele>613.4</ele>
        <time>2024-05-12T08:05:48Z</time>
      </trkpt>
      <trkpt lat="42.84933" lon="1.19004">
        <ele>614.2</ele>
        <time>2024-05-12T08:05:49Z</time>
      </trkpt>
      <trkpt lat="42.84935" lon="1.19003">
        <ele>614.6</ele>
        <time>2024-05-12T08:05:50Z</time>
      </trkpt>
      <trkpt lat="42.84936" lon="1.19003">
        <ele>615</ele>
        <time>2024-05-12T08:05:51Z</time>
      </trkpt>
      <trkpt lat="42.8494" lon="1.19">
        <ele>615</ele>
        <time>2024-05-12T08:05:53Z</time>
      </trkpt>
      <trkpt lat="42.84956" lon="1.18994">
        <ele>615</ele>
        <time>2024-05-12T08:05:59Z</time>
      </trkpt>
      <trkpt lat="42.84969" lon="1.19004">
        <ele>615</ele>
        <time>2024-05-12T08:06:03Z</time>
      </trkpt>
      <trkpt lat="42.84971" lon="1.19009">
        <ele>614.4</ele>
        <time>2024-05-12T08:06:04Z</time>
      </trkpt>
      <trkpt lat="42.84972" lon="1.19013">
        <ele>614</ele>
        <time>2024-05-12T08:06:05Z</time>
      </trkpt>
      <trkpt lat="42.84974" lon="1.19017">
        <ele>613.4</ele>
        <time>2024-05-12T08:06:06Z</time>
      </trkpt>
      <trkpt lat="42.84975" lon="1.1902">
        <ele>612.8</ele>
        <time>2024-05-12T08:06:07Z</time>
      </trkpt>
      <trkpt lat="42.84978" lon="1.19025">
        <ele>612.4</ele>
        <time>2024-05-12T08:06:08Z</time>
      </trkpt>
      <trkpt lat="42.8498" lon="1.19027">
        <ele>611.8</ele>
        <time>2024-05-12T08:06:09Z</time>
      </trkpt>
      <trkpt lat="42.84983" lon="1.19029">
        <ele>611.4</ele>
        <time>2024-05-12T08:06:10Z</time>
      </trkpt>
      <trkpt lat="42.84986" lon="1.1903">
        <ele>611</ele>
        <time>2024-05-12T08:06:11Z</time>
      </trkpt>
      <trkpt lat="42.84987" lon="1.19033">
        <ele>610.6</ele>
        <time>2024-05-12T08:06:12Z</time>
      </trkpt>
      <trkpt lat="42.84989" lon="1.19038">
        <ele>609.4</ele>
        <time>2024-05-12T08:06:13Z</time>
      </trkpt>
      <trkpt lat="42.8499" lon="1.19042">
        <ele>608.8</ele>
        <time>2024-05-12T08:06:14Z</time>
      </trkpt>
      <trkpt lat="42.84991" lon="1.19047">
        <ele>608.4</ele>
        <time>2024-05-12T08:06:15Z</time>
      </trkpt>
      <trkpt lat="42.84991" lon="1.19052">
        <ele>607.8</ele>
        <time>2024-05-12T08:06:16Z</time>
      </trkpt>
      <trkpt lat="42.84991" lon="1.19055">
        <ele>607.2</ele>
        <time>2024-05-12T08:06:17Z</time>
      </trkpt>
      <trkpt lat="42.84991" lon="1.19061">
        <ele>606.6</ele>
        <time>2024-05-12T08:06:18Z</time>
      </trkpt>
      <trkpt lat="42.84993" lon="1.19067">
        <ele>606</ele>
        <time>2024-05-12T08:06:19Z</time>
      </trkpt>
      <trkpt lat="42.84994" lon="1.19073">
        <ele>605.2</ele>
        <time>2024-05-12T08:06:20Z</time>
      </trkpt>
      <trkpt lat="42.84996" lon="1.19081">
        <ele>604.6</ele>
        <time>2024-05-12T08:06:21Z</time>
      </trkpt>
      <trkpt lat="42.85" lon="1.19088">
        <ele>603.8</ele>
        <time>2024-05-12T08:06:22Z</time>
      </trkpt>
      <trkpt lat="42.85003" lon="1.19091">
        <ele>603.2</ele>
        <time>2024-05-12T08:06:23Z</time>
      </trkpt>
      <trkpt lat="42.85006" lon="1.19094">
        <ele>602.4</ele>
        <time>2024-05-12T08:06:24Z</time>
      </trkpt>
      <trkpt lat="42.85007" lon="1.19097">
        <ele>601.6</ele>
        <time>2024-05-12T08:06:25Z</time>
      </trkpt>
      <trkpt lat="42.85009" lon="1.19099">
        <ele>601</ele>
        <time>2024-05-12T08:06:26Z</time>
      </trkpt>
      <trkpt lat="42.85011" lon="1.191">
        <ele>601</ele>
        <time>2024-05-12T08:06:27Z</time>
      </trkpt>
      <trkpt lat="42.85017" lon="1.19108">
        <ele>601</ele>
        <time>2024-05-12T08:06:32Z</time>
      </trkpt>
      <trkpt lat="42.85021" lon="1.19112">
        <ele>600.6</ele>
        <time>2024-05-12T08:06:35Z</time>
      </trkpt>
      <trkpt lat="42.85023" lon="1.19114">
        <ele>600</ele>
        <time>2024-05-12T08:06:36Z</time>
      </trkpt>
      <trkpt lat="42.85025" lon="1.19117">
        <ele>599.6</ele>
        <time>2024-05-12T08:06:37Z</time>
      </trkpt>
      <trkpt lat="42.85026" lon="1.19119">
        <ele>598.8</ele>
        <time>2024-05-12T08:06:38Z</time>
      </trkpt>
      <trkpt lat="42.85035" lon="1.19125">
        <ele>598.4</ele>
        <time>2024-05-12T08:06:43Z</time>
      </trkpt>
      <trkpt lat="42.85038" lon="1.19126">
        <ele>598</ele>
        <time>2024-05-12T08:06:44Z</time>
      </trkpt>
      <trkpt lat="42.85041" lon="1.19126">
        <ele>597.6</ele>
        <time>2024-05-12T08:06:45Z</time>
      </trkpt>
      <trkpt lat="42.85043" lon="1.19126">
        <ele>597</ele>
        <time>2024-05-12T08:06:46Z</time>
      </trkpt>
      <trkpt lat="42.85045" lon="1.19127">
        <ele>596.6</ele>
        <time>2024-05-12T08:06:47Z</time>
      </trkpt>
      <trkpt lat="42.85047" lon="1.19129">
        <ele>596.6</ele>
        <time>2024-05-12T08:06:49Z</time>
      </trkpt>
      <trkpt lat="42.85054" lon="1.19134">
        <ele>596.2</ele>
        <time>2024-05-12T08:06:51Z</time>
      </trkpt>
      <trkpt lat="42.85057" lon="1.19137">
        <ele>595.8</ele>
        <time>2024-05-12T08:06:52Z</time>
      </trkpt>
      <trkpt lat="42.8506" lon="1.19139">
        <ele>595.4</ele>
        <time>2024-05-12T08:06:53Z</time>
      </trkpt>
      <trkpt lat="42.85064" lon="1.19141">
        <ele>595</ele>
        <time>2024-05-12T08:06:54Z</time>
      </trkpt>
      <trkpt lat="42.85067" lon="1.19143">
        <ele>594.6</ele>
        <time>2024-05-12T08:06:55Z</time>
      </trkpt>
      <trkpt lat="42.85074" lon="1.19146">
        <ele>594.2</ele>
        <time>2024-05-12T08:06:57Z</time>
      </trkpt>
      <trkpt lat="42.85078" lon="1.1915">
        <ele>593.8</ele>
        <time>2024-05-12T08:06:58Z</time>
      </trkpt>
      <trkpt lat="42.85082" lon="1.19152">
        <ele>593.2</ele>
        <time>2024-05-12T08:06:59Z</time>
      </trkpt>
      <trkpt lat="42.85086" lon="1.19155">
        <ele>592.8</ele>
        <time>2024-05-12T08:07:00Z</time>
      </trkpt>
      <trkpt lat="42.85091" lon="1.19156">
        <ele>592.4</ele>
        <time>2024-05-12T08:07:01Z</time>
      </trkpt>
      <trkpt lat="42.85095" lon="1.19156">
        <ele>592</ele>
        <time>2024-05-12T08:07:02Z</time>
      </trkpt>
      <trkpt lat="42.85097" lon="1.19155">
        <ele>591</ele>
        <time>2024-05-12T08:07:03Z</time>
      </trkpt>
      <trkpt lat="42.85098" lon="1.19156">
        <ele>590.6</ele>
        <time>2024-05-12T08:07:04Z</time>
      </trkpt>
      <trkpt lat="42.851" lon="1.19156">
        <ele>590.2</ele>
        <time>2024-05-12T08:07:05Z</time>
      </trkpt>
      <trkpt lat="42.85101" lon="1.19156">
        <ele>590.2</ele>
        <time>2024-05-12T08:07:06Z</time>
      </trkpt>
      <trkpt lat="42.85102" lon="1.19156">
        <ele>590.2</ele>
        <time>2024-05-12T08:07:07Z</time>
      </trkpt>
      <trkpt lat="42.85115" lon="1.19163">
        <ele>590.2</ele>
        <time>2024-05-12T08:07:12Z</time>
      </trkpt>
      <trkpt lat="42.85131" lon="1.19173">
        <ele>589.6</ele>
        <time>2024-05-12T08:07:17Z</time>
      </trkpt>
      <trkpt lat="42.85133" lon="1.19176">
        <ele>589.2</ele>
        <time>2024-05-12T08:07:18Z</time>
      </trkpt>
      <trkpt lat="42.85137" lon="1.1918">
        <ele>588.8</ele>
        <time>2024-05-12T08:07:19Z</time>
      </trkpt>
      <trkpt lat="42.8514" lon="1.19184">
        <ele>588.2</ele>
        <time>2024-05-12T08:07:20Z</time>
      </trkpt>
      <trkpt lat="42.85142" lon="1.19188">
        <ele>587.6</ele>
        <time>2024-05-12T08:07:21Z</time>
      </trkpt>
      <trkpt lat="42.85144" lon="1.1919">
        <ele>587</ele>
        <time>2024-05-12T08:07:22Z</time>
      </trkpt>
      <trkpt lat="42.85145" lon="1.19191">
        <ele>586.4</ele>
        <time>2024-05-12T08:07:23Z</time>
      </trkpt>
      <trkpt lat="42.85146" lon="1.19192">
        <ele>585.8</ele>
        <time>2024-05-12T08:07:24Z</time>
      </trkpt>
      <trkpt lat="42.85148" lon="1.19192">
        <ele>585</ele>
        <time>2024-05-12T08:07:25Z</time>
      </trkpt>
      <trkpt lat="42.85148" lon="1.19192">
        <ele>584.4</ele>
        <time>2024-05-12T08:07:26Z</time>
      </trkpt>
      <trkpt lat="42.85149" lon="1.19192">
        <ele>583</ele>
        <time>2024-05-12T08:07:27Z</time>
      </trkpt>
      <trkpt lat="42.85152" lon="1.19191">
        <ele>582.4</ele>
        <time>2024-05-12T08:07:28Z</time>
      </trkpt>
      <trkpt lat="42.85154" lon="1.1919">
        <ele>581.8</ele>
        <time>2024-05-12T08:07:29Z</time>
      </trkpt>
      <trkpt lat="42.85158" lon="1.19185">
        <ele>581.2</ele>
        <time>2024-05-12T08:07:30Z</time>
      </trkpt>
      <trkpt lat="42.85162" lon="1.19182">
        <ele>580.6</ele>
        <time>2024-05-12T08:07:31Z</time>
      </trkpt>
      <trkpt lat="42.85167" lon="1.19179">
        <ele>580</ele>
        <time>2024-05-12T08:07:32Z</time>
      </trkpt>
      <trkpt lat="42.85171" lon="1.19177">
        <ele>579.4</ele>
        <time>2024-05-12T08:07:33Z</time>
      </trkpt>
      <trkpt lat="42.85175" lon="1.19175">
        <ele>578.8</ele>
        <time>2024-05-12T08:07:34Z</time>
      </trkpt>
      <trkpt lat="42.85181" lon="1.19176">
        <ele>578.2</ele>
        <time>2024-05-12T08:07:35Z</time>
      </trkpt>
      <trkpt lat="42.85193" lon="1.19178">
        <ele>577.8</ele>
        <time>2024-05-12T08:07:37Z</time>
      </trkpt>
      <trkpt lat="42.85198" lon="1.19179">
        <ele>577.2</ele>
        <time>2024-05-12T08:07:38Z</time>
      </trkpt>
      <trkpt lat="42.85203" lon="1.19182">
        <ele>576.8</ele>
        <time>2024-05-12T08:07:39Z</time>
      </trkpt>
      <trkpt lat="42.85208" lon="1.19183">
        <ele>576.4</ele>
        <time>2024-05-12T08:07:40Z</time>
      </trkpt>
      <trkpt lat="42.85213" lon="1.19186">
        <ele>575.8</ele>
        <time>2024-05-12T08:07:41Z</time>
      </trkpt>
      <trkpt lat="42.85236" lon="1.1919">
        <ele>575.4</ele>
        <time>2024-05-12T08:07:46Z</time>
      </trkpt>
      <trkpt lat="42.85241" lon="1.19189">
        <ele>575</ele>
        <time>2024-05-12T08:07:47Z</time>
      </trkpt>
      <trkpt lat="42.85246" lon="1.19188">
        <ele>574.4</ele>
        <time>2024-05-12T08:07:48Z</time>
      </trkpt>
      <trkpt lat="42.85249" lon="1.19187">
        <ele>574</ele>
        <time>2024-05-12T08:07:49Z</time>
      </trkpt>
      <trkpt lat="42.85253" lon="1.19187">
        <ele>573.4</ele>
        <time>2024-05-12T08:07:50Z</time>
      </trkpt>
      <trkpt lat="42.85258" lon="1.19189">
        <ele>572.8</ele>
        <time>2024-05-12T08:07:51Z</time>
      </trkpt>
      <trkpt lat="42.85262" lon="1.19192">
        <ele>571.4</ele>
        <time>2024-05-12T08:07:52Z</time>
      </trkpt>
      <trkpt lat="42.85265" lon="1.19195">
        <ele>570.8</ele>
        <time>2024-05-12T08:07:53Z</time>
      </trkpt>
      <trkpt lat="42.85267" lon="1.19198">
        <ele>570.2</ele>
        <time>2024-05-12T08:07:54Z</time>
      </trkpt>
      <trkpt lat="42.8527" lon="1.19202">
        <ele>569.4</ele>
        <time>2024-05-12T08:07:55Z</time>
      </trkpt>
      <trkpt lat="42.85271" lon="1.19207">
        <ele>568.6</ele>
        <time>2024-05-12T08:07:56Z</time>
      </trkpt>
      <trkpt lat="42.85272" lon="1.19211">
        <ele>567.8</ele>
        <time>2024-05-12T08:07:57Z</time>
      </trkpt>
      <trkpt lat="42.85274" lon="1.19215">
        <ele>567</ele>
        <time>2024-05-12T08:07:58Z</time>
      </trkpt>
      <trkpt lat="42.85275" lon="1.1922">
        <ele>566.2</ele>
        <time>2024-05-12T08:07:59Z</time>
      </trkpt>
      <trkpt lat="42.85277" lon="1.19224">
        <ele>565.6</ele>
        <time>2024-05-12T08:08:00Z</time>
      </trkpt>
      <trkpt lat="42.85278" lon="1.1923">
        <ele>564.8</ele>
        <time>2024-05-12T08:08:01Z</time>
      </trkpt>
      <trkpt lat="42.85278" lon="1.19235">
        <ele>564</ele>
        <time>2024-05-12T08:08:02Z</time>
      </trkpt>
      <trkpt lat="42.85277" lon="1.19241">
        <ele>563.4</ele>
        <time>2024-05-12T08:08:03Z</time>
      </trkpt>
      <trkpt lat="42.85276" lon="1.19246">
        <ele>562.8</ele>
        <time>2024-05-12T08:08:04Z</time>
      </trkpt>
      <trkpt lat="42.85274" lon="1.1925">
        <ele>562</ele>
        <time>2024-05-12T08:08:05Z</time>
      </trkpt>
      <trkpt lat="42.85275" lon="1.19254">
        <ele>561.4</ele>
        <time>2024-05-12T08:08:06Z</time>
      </trkpt>
      <trkpt lat="42.85275" lon="1.1926">
        <ele>560.6</ele>
        <time>2024-05-12T08:08:07Z</time>
      </trkpt>
      <trkpt lat="42.85276" lon="1.19264">
        <ele>559.8</ele>
        <time>2024-05-12T08:08:08Z</time>
      </trkpt>
      <trkpt lat="42.85277" lon="1.19265">
        <ele>559</ele>
        <time>2024-05-12T08:08:09Z</time>
      </trkpt>
      <trkpt lat="42.85278" lon="1.19269">
        <ele>558.2</ele>
        <time>2024-05-12T08:08:10Z</time>
      </trkpt>
      <trkpt lat="42.85281" lon="1.19273">
        <ele>557.4</ele>
        <time>2024-05-12T08:08:11Z</time>
      </trkpt>
      <trkpt lat="42.85283" lon="1.19277">
        <ele>556.6</ele>
        <time>2024-05-12T08:08:12Z</time>
      </trkpt>
      <trkpt lat="42.85286" lon="1.19281">
        <ele>556.2</ele>
        <time>2024-05-12T08:08:13Z</time>
      </trkpt>
      <trkpt lat="42.85288" lon="1.19285">
        <ele>555.8</ele>
        <time>2024-05-12T08:08:14Z</time>
      </trkpt>
      <trkpt lat="42.85291" lon="1.19289">
        <ele>555.4</ele>
        <time>2024-05-12T08:08:15Z</time>
      </trkpt>
      <trkpt lat="42.85295" lon="1.19294">
        <ele>555</ele>
        <time>2024-05-12T08:08:16Z</time>
      </trkpt>
      <trkpt lat="42.85299" lon="1.19298">
        <ele>554</ele>
        <time>2024-05-12T08:08:17Z</time>
      </trkpt>
      <trkpt lat="42.85302" lon="1.19302">
        <ele>553.4</ele>
        <time>2024-05-12T08:08:18Z</time>
      </trkpt>
      <trkpt lat="42.85305" lon="1.19307">
        <ele>553</ele>
        <time>2024-05-12T08:08:19Z</time>
      </trkpt>
      <trkpt lat="42.85309" lon="1.19311">
        <ele>552.4</ele>
        <time>2024-05-12T08:08:20Z</time>
      </trkpt>
      <trkpt lat="42.85311" lon="1.19315">
        <ele>552.4</ele>
        <time>2024-05-12T08:08:21Z</time>
      </trkpt>
      <trkpt lat="42.85314" lon="1.1932">
        <ele>552</ele>
        <time>2024-05-12T08:08:22Z</time>
      </trkpt>
      <trkpt lat="42.85317" lon="1.19325">
        <ele>551.6</ele>
        <time>2024-05-12T08:08:23Z</time>
      </trkpt>
      <trkpt lat="42.85321" lon="1.19331">
        <ele>551.2</ele>
        <time>2024-05-12T08:08:24Z</time>
      </trkpt>
      <trkpt lat="42.85324" lon="1.19337">
        <ele>550.8</ele>
        <time>2024-05-12T08:08:25Z</time>
      </trkpt>
      <trkpt lat="42.85329" lon="1.19342">
        <ele>550.4</ele>
        <time>2024-05-12T08:08:26Z</time>
      </trkpt>
      <trkpt lat="42.85333" lon="1.19347">
        <ele>550</ele>
        <time>2024-05-12T08:08:27Z</time>
      </trkpt>
      <trkpt lat="42.85337" lon="1.19352">
        <ele>549.6</ele>
        <time>2024-05-12T08:08:28Z</time>
      </trkpt>
      <trkpt lat="42.85341" lon="1.19357">
        <ele>549</ele>
        <time>2024-05-12T08:08:29Z</time>
      </trkpt>
      <trkpt lat="42.85344" lon="1.1936">
        <ele>548.6</ele>
        <time>2024-05-12T08:08:30Z</time>
      </trkpt>
      <trkpt lat="42.85347" lon="1.19363">
        <ele>548.2</ele>
        <time>2024-05-12T08:08:31Z</time>
      </trkpt>
      <trkpt lat="42.85354" lon="1.19372">
        <ele>548.2</ele>
        <time>2024-05-12T08:08:34Z</time>
      </trkpt>
      <trkpt lat="42.85366" lon="1.19387">
        <ele>548.2</ele>
        <time>2024-05-12T08:08:39Z</time>
      </trkpt>
      <trkpt lat="42.85375" lon="1.1941">
        <ele>548.2</ele>
        <time>2024-05-12T08:08:43Z</time>
      </trkpt>
      <trkpt lat="42.8538" lon="1.19425">
        <ele>548.2</ele>
        <time>2024-05-12T08:08:46Z</time>
      </trkpt>
      <trkpt lat="42.85385" lon="1.19434">
        <ele>548.2</ele>
        <time>2024-05-12T08:08:48Z</time>
      </trkpt>
      <trkpt lat="42.85389" lon="1.19449">
        <ele>548.2</ele>
        <time>2024-05-12T08:08:52Z</time>
      </trkpt>
      <trkpt lat="42.8539" lon="1.19456">
        <ele>548.2</ele>
        <time>2024-05-12T08:08:53Z</time>
      </trkpt>
      <trkpt lat="42.85396" lon="1.19473">
        <ele>548.2</ele>
        <time>2024-05-12T08:08:56Z</time>
      </trkpt>
      <trkpt lat="42.85399" lon="1.19478">
        <ele>548.2</ele>
        <time>2024-05-12T08:08:57Z</time>
      </trkpt>
      <trkpt lat="42.85401" lon="1.19488">
        <ele>548.2</ele>
        <time>2024-05-12T08:08:59Z</time>
      </trkpt>
      <trkpt lat="42.85405" lon="1.19498">
        <ele>548.2</ele>
        <time>2024-05-12T08:09:01Z</time>
      </trkpt>
      <trkpt lat="42.85409" lon="1.1951">
        <ele>548.2</ele>
        <time>2024-05-12T08:09:05Z</time>
      </trkpt>
      <trkpt lat="42.85414" lon="1.19524">
        <ele>548.2</ele>
        <time>2024-05-12T08:09:09Z</time>
      </trkpt>
      <trkpt lat="42.85415" lon="1.19527">
        <ele>548.2</ele>
        <time>2024-05-12T08:09:10Z</time>
      </trkpt>
      <trkpt lat="42.85421" lon="1.19546">
        <ele>548.2</ele>
        <time>2024-05-12T08:09:15Z</time>
      </trkpt>
      <trkpt lat="42.85425" lon="1.19558">
        <ele>548.2</ele>
        <time>2024-05-12T08:09:18Z</time>
      </trkpt>
      <trkpt lat="42.85427" lon="1.19561">
        <ele>548.2</ele>
        <time>2024-05-12T08:09:19Z</time>
      </trkpt>
      <trkpt lat="42.85437" lon="1.19574">
        <ele>548.2</ele>
        <time>2024-05-12T08:09:23Z</time>
      </trkpt>
      <trkpt lat="42.85442" lon="1.19582">
        <ele>548.2</ele>
        <time>2024-05-12T08:09:26Z</time>
      </trkpt>
      <trkpt lat="42.85451" lon="1.19594">
        <ele>548.2</ele>
        <time>2024-05-12T08:09:30Z</time>
      </trkpt>
      <trkpt lat="42.85454" lon="1.19599">
        <ele>547.2</ele>
        <time>2024-05-12T08:09:31Z</time>
      </trkpt>
      <trkpt lat="42.85457" lon="1.19603">
        <ele>546.8</ele>
        <time>2024-05-12T08:09:32Z</time>
      </trkpt>
      <trkpt lat="42.8546" lon="1.19608">
        <ele>546.4</ele>
        <time>2024-05-12T08:09:33Z</time>
      </trkpt>
      <trkpt lat="42.85463" lon="1.19612">
        <ele>545.8</ele>
        <time>2024-05-12T08:09:34Z</time>
      </trkpt>
      <trkpt lat="42.85469" lon="1.19616">
        <ele>545.4</ele>
        <time>2024-05-12T08:09:37Z</time>
      </trkpt>
      <trkpt lat="42.85472" lon="1.19618">
        <ele>545</ele>
        <time>2024-05-12T08:09:38Z</time>
      </trkpt>
      <trkpt lat="42.85474" lon="1.1962">
        <ele>544.6</ele>
        <time>2024-05-12T08:09:39Z</time>
      </trkpt>
      <trkpt lat="42.85477" lon="1.1962">
        <ele>544.2</ele>
        <time>2024-05-12T08:09:40Z</time>
      </trkpt>
      <trkpt lat="42.8548" lon="1.1962">
        <ele>543.8</ele>
        <time>2024-05-12T08:09:41Z</time>
      </trkpt>
      <trkpt lat="42.85484" lon="1.1962">
        <ele>543.8</ele>
        <time>2024-05-12T08:09:42Z</time>
      </trkpt>
      <trkpt lat="42.85502" lon="1.19624">
        <ele>543.8</ele>
        <time>2024-05-12T08:09:47Z</time>
      </trkpt>
      <trkpt lat="42.85507" lon="1.19625">
        <ele>543.4</ele>
        <time>2024-05-12T08:09:48Z</time>
      </trkpt>
      <trkpt lat="42.8551" lon="1.19626">
        <ele>543</ele>
        <time>2024-05-12T08:09:49Z</time>
      </trkpt>
      <trkpt lat="42.85514" lon="1.19628">
        <ele>542.4</ele>
        <time>2024-05-12T08:09:50Z</time>
      </trkpt>
      <trkpt lat="42.85519" lon="1.19629">
        <ele>542</ele>
        <time>2024-05-12T08:09:51Z</time>
      </trkpt>
      <trkpt lat="42.85524" lon="1.19631">
        <ele>541.6</ele>
        <time>2024-05-12T08:09:52Z</time>
      </trkpt>
      <trkpt lat="42.8554" lon="1.19638">
        <ele>541.2</ele>
        <time>2024-05-12T08:09:55Z</time>
      </trkpt>
      <trkpt lat="42.85546" lon="1.1964">
        <ele>540.8</ele>
        <time>2024-05-12T08:09:56Z</time>
      </trkpt>
      <trkpt lat="42.85551" lon="1.19642">
        <ele>540.2</ele>
        <time>2024-05-12T08:09:57Z</time>
      </trkpt>
      <trkpt lat="42.85558" lon="1.19643">
        <ele>539.8</ele>
        <time>2024-05-12T08:09:58Z</time>
      </trkpt>
      <trkpt lat="42.85565" lon="1.19643">
        <ele>539.4</ele>
        <time>2024-05-12T08:09:59Z</time>
      </trkpt>
      <trkpt lat="42.85573" lon="1.19646">
        <ele>538.8</ele>
        <time>2024-05-12T08:10:01Z</time>
      </trkpt>
      <trkpt lat="42.85577" lon="1.19648">
        <ele>538.4</ele>
        <time>2024-05-12T08:10:02Z</time>
      </trkpt>
      <trkpt lat="42.85581" lon="1.19649">
        <ele>538</ele>
        <time>2024-05-12T08:10:03Z</time>
      </trkpt>
      <trkpt lat="42.85584" lon="1.19651">
        <ele>537.6</ele>
        <time>2024-05-12T08:10:04Z</time>
      </trkpt>
      <trkpt lat="42.85585" lon="1.19652">
        <ele>537.2</ele>
        <time>2024-05-12T08:10:05Z</time>
      </trkpt>
      <trkpt lat="42.85589" lon="1.19652">
        <ele>537.2</ele>
        <time>2024-05-12T08:10:06Z</time>
      </trkpt>
      <trkpt lat="42.85605" lon="1.19654">
        <ele>537.2</ele>
        <time>2024-05-12T08:10:12Z</time>
      </trkpt>
      <trkpt lat="42.85617" lon="1.19659">
        <ele>537.2</ele>
        <time>2024-05-12T08:10:16Z</time>
      </trkpt>
      <trkpt lat="42.85628" lon="1.19658">
        <ele>537.2</ele>
        <time>2024-05-12T08:10:20Z</time>
      </trkpt>
      <trkpt lat="42.85644" lon="1.19662">
        <ele>537.2</ele>
        <time>2024-05-12T08:10:25Z</time>
      </trkpt>
      <trkpt lat="42.85654" lon="1.19665">
        <ele>536.8</ele>
        <time>2024-05-12T08:10:30Z</time>
      </trkpt>
      <trkpt lat="42.85655" lon="1.19665">
        <ele>536.4</ele>
        <time>2024-05-12T08:10:31Z</time>
      </trkpt>
      <trkpt lat="42.85657" lon="1.19666">
        <ele>536</ele>
        <time>2024-05-12T08:10:32Z</time>
      </trkpt>
      <trkpt lat="42.85659" lon="1.19666">
        <ele>535.6</ele>
        <time>2024-05-12T08:10:33Z</time>
      </trkpt>
      <trkpt lat="42.8566" lon="1.19666">
        <ele>535.2</ele>
        <time>2024-05-12T08:10:34Z</time>
      </trkpt>
      <trkpt lat="42.85666" lon="1.19668">
        <ele>535.2</ele>
        <time>2024-05-12T08:10:39Z</time>
      </trkpt>
      <trkpt lat="42.8567" lon="1.19668">
        <ele>535.2</ele>
        <time>2024-05-12T08:11:36Z</time>
      </trkpt>
      <trkpt lat="42.85673" lon="1.19669">
        <ele>535.2</ele>
        <time>2024-05-12T08:11:37Z</time>
      </trkpt>
      <trkpt lat="42.85675" lon="1.1967">
        <ele>535.2</ele>
        <time>2024-05-12T08:11:38Z</time>
      </trkpt>
      <trkpt lat="42.85678" lon="1.1967">
        <ele>535.2</ele>
        <time>2024-05-12T08:11:40Z</time>
      </trkpt>
      <trkpt lat="42.85684" lon="1.19672">
        <ele>535.2</ele>
        <time>2024-05-12T08:11:42Z</time>
      </trkpt>
      <trkpt lat="42.85696" lon="1.19675">
        <ele>535.2</ele>
        <time>2024-05-12T08:11:46Z</time>
      </trkpt>
      <trkpt lat="42.85698" lon="1.19675">
        <ele>535.2</ele>
        <time>2024-05-12T08:11:47Z</time>
      </trkpt>
      <trkpt lat="42.85704" lon="1.19678">
        <ele>535.2</ele>
        <time>2024-05-12T08:11:49Z</time>
      </trkpt>
      <trkpt lat="42.85706" lon="1.19678">
        <ele>535.2</ele>
        <time>2024-05-12T08:11:50Z</time>
      </trkpt>
      <trkpt lat="42.8571" lon="1.1968">
        <ele>535.2</ele>
        <time>2024-05-12T08:11:53Z</time>
      </trkpt>
      <trkpt lat="42.85714" lon="1.19683">
        <ele>535.2</ele>
        <time>2024-05-12T08:11:55Z</time>
      </trkpt>
      <trkpt lat="42.85724" lon="1.19688">
        <ele>535.2</ele>
        <time>2024-05-12T08:11:57Z</time>
      </trkpt>
      <trkpt lat="42.85728" lon="1.19691">
        <ele>535.2</ele>
        <time>2024-05-12T08:11:58Z</time>
      </trkpt>
      <trkpt lat="42.85743" lon="1.19699">
        <ele>535.2</ele>
        <time>2024-05-12T08:12:02Z</time>
      </trkpt>
      <trkpt lat="42.85747" lon="1.19701">
        <ele>535.2</ele>
        <time>2024-05-12T08:12:03Z</time>
      </trkpt>
      <trkpt lat="42.85756" lon="1.19704">
        <ele>535.2</ele>
        <time>2024-05-12T08:12:05Z</time>
      </trkpt>
      <trkpt lat="42.85766" lon="1.19708">
        <ele>535.2</ele>
        <time>2024-05-12T08:12:07Z</time>
      </trkpt>
      <trkpt lat="42.85778" lon="1.19711">
        <ele>535.2</ele>
        <time>2024-05-12T08:12:09Z</time>
      </trkpt>
      <trkpt lat="42.85804" lon="1.19718">
        <ele>535.2</ele>
        <time>2024-05-12T08:12:13Z</time>
      </trkpt>
      <trkpt lat="42.85828" lon="1.19724">
        <ele>535.2</ele>
        <time>2024-05-12T08:12:17Z</time>
      </trkpt>
      <trkpt lat="42.85834" lon="1.19726">
        <ele>535.2</ele>
        <time>2024-05-12T08:12:18Z</time>
      </trkpt>
      <trkpt lat="42.85857" lon="1.19732">
        <ele>535.2</ele>
        <time>2024-05-12T08:12:22Z</time>
      </trkpt>
      <trkpt lat="42.85863" lon="1.19732">
        <ele>535.2</ele>
        <time>2024-05-12T08:12:23Z</time>
      </trkpt>
      <trkpt lat="42.85886" lon="1.1973">
        <ele>535.6</ele>
        <time>2024-05-12T08:12:27Z</time>
      </trkpt>
      <trkpt lat="42.85892" lon="1.19731">
        <ele>536</ele>
        <time>2024-05-12T08:12:28Z</time>
      </trkpt>
      <trkpt lat="42.85897" lon="1.19732">
        <ele>536.4</ele>
        <time>2024-05-12T08:12:29Z</time>
      </trkpt>
      <trkpt lat="42.85902" lon="1.19733">
        <ele>536.8</ele>
        <time>2024-05-12T08:12:30Z</time>
      </trkpt>
      <trkpt lat="42.85908" lon="1.19734">
        <ele>537.2</ele>
        <time>2024-05-12T08:12:31Z</time>
      </trkpt>
      <trkpt lat="42.85913" lon="1.19736">
        <ele>537.2</ele>
        <time>2024-05-12T08:12:32Z</time>
      </trkpt>
      <trkpt lat="42.85928" lon="1.19742">
        <ele>537.2</ele>
        <time>2024-05-12T08:12:35Z</time>
      </trkpt>
      <trkpt lat="42.85932" lon="1.19744">
        <ele>537.2</ele>
        <time>2024-05-12T08:12:36Z</time>
      </trkpt>
      <trkpt lat="42.85954" lon="1.19749">
        <ele>537.2</ele>
        <time>2024-05-12T08:12:41Z</time>
      </trkpt>
      <trkpt lat="42.85985" lon="1.19759">
        <ele>537.2</ele>
        <time>2024-05-12T08:12:47Z</time>
      </trkpt>
      <trkpt lat="42.86007" lon="1.19776">
        <ele>537.2</ele>
        <time>2024-05-12T08:12:52Z</time>
      </trkpt>
      <trkpt lat="42.86015" lon="1.19784">
        <ele>537.2</ele>
        <time>2024-05-12T08:12:54Z</time>
      </trkpt>
      <trkpt lat="42.86031" lon="1.19796">
        <ele>537.2</ele>
        <time>2024-05-12T08:12:58Z</time>
      </trkpt>
      <trkpt lat="42.86039" lon="1.19801">
        <ele>537.2</ele>
        <time>2024-05-12T08:13:00Z</time>
      </trkpt>
      <trkpt lat="42.86053" lon="1.1981">
        <ele>537.2</ele>
        <time>2024-05-12T08:13:03Z</time>
      </trkpt>
      <trkpt lat="42.8608" lon="1.19825">
        <ele>537.2</ele>
        <time>2024-05-12T08:13:09Z</time>
      </trkpt>
      <trkpt lat="42.86102" lon="1.19839">
        <ele>537.2</ele>
        <time>2024-05-12T08:13:14Z</time>
      </trkpt>
      <trkpt lat="42.86107" lon="1.19841">
        <ele>537.2</ele>
        <time>2024-05-12T08:13:15Z</time>
      </trkpt>
      <trkpt lat="42.86112" lon="1.19842">
        <ele>537.2</ele>
        <time>2024-05-12T08:13:16Z</time>
      </trkpt>
      <trkpt lat="42.86136" lon="1.19849">
        <ele>537.2</ele>
        <time>2024-05-12T08:13:21Z</time>
      </trkpt>
      <trkpt lat="42.86156" lon="1.19854">
        <ele>537.2</ele>
        <time>2024-05-12T08:13:25Z</time>
      </trkpt>
      <trkpt lat="42.86166" lon="1.19857">
        <ele>537.2</ele>
        <time>2024-05-12T08:13:27Z</time>
      </trkpt>
      <trkpt lat="42.86208" lon="1.19869">
        <ele>537.2</ele>
        <time>2024-05-12T08:13:35Z</time>
      </trkpt>
      <trkpt lat="42.86242" lon="1.19879">
        <ele>537.2</ele>
        <time>2024-05-12T08:13:42Z</time>
      </trkpt>
      <trkpt lat="42.86282" lon="1.19892">
        <ele>537.2</ele>
        <time>2024-05-12T08:13:51Z</time>
      </trkpt>
      <trkpt lat="42.86316" lon="1.19903">
        <ele>537.2</ele>
        <time>2024-05-12T08:13:59Z</time>
      </trkpt>
      <trkpt lat="42.86321" lon="1.19904">
        <ele>537.2</ele>
        <time>2024-05-12T08:14:00Z</time>
      </trkpt>
      <trkpt lat="42.86347" lon="1.19908">
        <ele>537.2</ele>
        <time>2024-05-12T08:14:06Z</time>
      </trkpt>
      <trkpt lat="42.8635" lon="1.19908">
        <ele>537.2</ele>
        <time>2024-05-12T08:14:07Z</time>
      </trkpt>
      <trkpt lat="42.86362" lon="1.19909">
        <ele>537.2</ele>
        <time>2024-05-12T08:14:10Z</time>
      </trkpt>
      <trkpt lat="42.8637" lon="1.19913">
        <ele>537.2</ele>
        <time>2024-05-12T08:14:12Z</time>
      </trkpt>
      <trkpt lat="42.86384" lon="1.19911">
        <ele>537.2</ele>
        <time>2024-05-12T08:14:15Z</time>
      </trkpt>
      <trkpt lat="42.86389" lon="1.19908">
        <ele>537.2</ele>
        <time>2024-05-12T08:14:16Z</time>
      </trkpt>
      <trkpt lat="42.86419" lon="1.19894">
        <ele>537.2</ele>
        <time>2024-05-12T08:14:22Z</time>
      </trkpt>
      <trkpt lat="42.86431" lon="1.19891">
        <ele>537.2</ele>
        <time>2024-05-12T08:14:25Z</time>
      </trkpt>
      <trkpt lat="42.86435" lon="1.19891">
        <ele>537.2</ele>
        <time>2024-05-12T08:14:26Z</time>
      </trkpt>
      <trkpt lat="42.86459" lon="1.19894">
        <ele>537.2</ele>
        <time>2024-05-12T08:14:32Z</time>
      </trkpt>
      <trkpt lat="42.86462" lon="1.19896">
        <ele>536.8</ele>
        <time>2024-05-12T08:14:33Z</time>
      </trkpt>
      <trkpt lat="42.86464" lon="1.19899">
        <ele>536.4</ele>
        <time>2024-05-12T08:14:34Z</time>
      </trkpt>
      <trkpt lat="42.86464" lon="1.19902">
        <ele>535.8</ele>
        <time>2024-05-12T08:14:35Z</time>
      </trkpt>
      <trkpt lat="42.86463" lon="1.19905">
        <ele>535.4</ele>
        <time>2024-05-12T08:14:36Z</time>
      </trkpt>
      <trkpt lat="42.86462" lon="1.19908">
        <ele>535</ele>
        <time>2024-05-12T08:14:37Z</time>
      </trkpt>
      <trkpt lat="42.86461" lon="1.19913">
        <ele>535</ele>
        <time>2024-05-12T08:14:38Z</time>
      </trkpt>
      <trkpt lat="42.86461" lon="1.19919">
        <ele>535</ele>
        <time>2024-05-12T08:14:39Z</time>
      </trkpt>
      <trkpt lat="42.86458" lon="1.19932">
        <ele>535</ele>
        <time>2024-05-12T08:14:41Z</time>
      </trkpt>
      <trkpt lat="42.86455" lon="1.19945">
        <ele>535</ele>
        <time>2024-05-12T08:14:43Z</time>
      </trkpt>
      <trkpt lat="42.86454" lon="1.19952">
        <ele>535</ele>
        <time>2024-05-12T08:14:44Z</time>
      </trkpt>
      <trkpt lat="42.86447" lon="1.19971">
        <ele>535</ele>
        <time>2024-05-12T08:14:47Z</time>
      </trkpt>
      <trkpt lat="42.86442" lon="1.19983">
        <ele>535</ele>
        <time>2024-05-12T08:14:49Z</time>
      </trkpt>
      <trkpt lat="42.86433" lon="1.19999">
        <ele>534.2</ele>
        <time>2024-05-12T08:14:52Z</time>
      </trkpt>
      <trkpt lat="42.8643" lon="1.20004">
        <ele>533.8</ele>
        <time>2024-05-12T08:14:53Z</time>
      </trkpt>
      <trkpt lat="42.86427" lon="1.20009">
        <ele>533.2</ele>
        <time>2024-05-12T08:14:54Z</time>
      </trkpt>
      <trkpt lat="42.86424" lon="1.20014">
        <ele>532.8</ele>
        <time>2024-05-12T08:14:55Z</time>
      </trkpt>
      <trkpt lat="42.8642" lon="1.20019">
        <ele>532.8</ele>
        <time>2024-05-12T08:14:56Z</time>
      </trkpt>
      <trkpt lat="42.86405" lon="1.20044">
        <ele>532.4</ele>
        <time>2024-05-12T08:15:01Z</time>
      </trkpt>
      <trkpt lat="42.86403" lon="1.20048">
        <ele>532</ele>
        <time>2024-05-12T08:15:02Z</time>
      </trkpt>
      <trkpt lat="42.86401" lon="1.20052">
        <ele>531.6</ele>
        <time>2024-05-12T08:15:03Z</time>
      </trkpt>
      <trkpt lat="42.86399" lon="1.20056">
        <ele>531.2</ele>
        <time>2024-05-12T08:15:04Z</time>
      </trkpt>
      <trkpt lat="42.86398" lon="1.20061">
        <ele>530.6</ele>
        <time>2024-05-12T08:15:05Z</time>
      </trkpt>
      <trkpt lat="42.86395" lon="1.20072">
        <ele>530.6</ele>
        <time>2024-05-12T08:15:07Z</time>
      </trkpt>
      <trkpt lat="42.86393" lon="1.20094">
        <ele>530.6</ele>
        <time>2024-05-12T08:15:12Z</time>
      </trkpt>
      <trkpt lat="42.86394" lon="1.20098">
        <ele>530.6</ele>
        <time>2024-05-12T08:15:13Z</time>
      </trkpt>
      <trkpt lat="42.86399" lon="1.2011">
        <ele>530.6</ele>
        <time>2024-05-12T08:15:16Z</time>
      </trkpt>
      <trkpt lat="42.86399" lon="1.20126">
        <ele>530.6</ele>
        <time>2024-05-12T08:15:20Z</time>
      </trkpt>
      <trkpt lat="42.86399" lon="1.20128">
        <ele>530.6</ele>
        <time>2024-05-12T08:15:21Z</time>
      </trkpt>
      <trkpt lat="42.86395" lon="1.2013">
        <ele>530.6</ele>
        <time>2024-05-12T08:15:23Z</time>
      </trkpt>
      <trkpt lat="42.86392" lon="1.20131">
        <ele>530.6</ele>
        <time>2024-05-12T08:15:24Z</time>
      </trkpt>
      <trkpt lat="42.8638" lon="1.20135">
        <ele>530.6</ele>
        <time>2024-05-12T08:15:28Z</time>
      </trkpt>
      <trkpt lat="42.86375" lon="1.2014">
        <ele>530.6</ele>
        <time>2024-05-12T08:15:30Z</time>
      </trkpt>
      <trkpt lat="42.86366" lon="1.2015">
        <ele>530.6</ele>
        <time>2024-05-12T08:15:34Z</time>
      </trkpt>
      <trkpt lat="42.86353" lon="1.2016">
        <ele>530.6</ele>
        <time>2024-05-12T08:15:41Z</time>
      </trkpt>
      <trkpt lat="42.86353" lon="1.2016">
        <ele>530.6</ele>
        <time>2024-05-12T08:15:42Z</time>
      </trkpt>
      <trkpt lat="42.8635" lon="1.20162">
        <ele>530.6</ele>
        <time>2024-05-12T08:16:01Z</time>
      </trkpt>
      <trkpt lat="42.86349" lon="1.20163">
        <ele>530.6</ele>
        <time>2024-05-12T08:16:02Z</time>
      </trkpt>
      <trkpt lat="42.86351" lon="1.20167">
        <ele>530.6</ele>
        <time>2024-05-12T08:16:05Z</time>
      </trkpt>
      <trkpt lat="42.86358" lon="1.20159">
        <ele>530.6</ele>
        <time>2024-05-12T08:16:08Z</time>
      </trkpt>
      <trkpt lat="42.8637" lon="1.20149">
        <ele>530.6</ele>
        <time>2024-05-12T08:16:12Z</time>
      </trkpt>
      <trkpt lat="42.86382" lon="1.20137">
        <ele>530.6</ele>
        <time>2024-05-12T08:16:17Z</time>
      </trkpt>
      <trkpt lat="42.86394" lon="1.20133">
        <ele>530.6</ele>
        <time>2024-05-12T08:16:22Z</time>
      </trkpt>
      <trkpt lat="42.86406" lon="1.20129">
        <ele>530.6</ele>
        <time>2024-05-12T08:16:27Z</time>
      </trkpt>
      <trkpt lat="42.86418" lon="1.2013">
        <ele>530.6</ele>
        <time>2024-05-12T08:16:31Z</time>
      </trkpt>
      <trkpt lat="42.86429" lon="1.20132">
        <ele>530.6</ele>
        <time>2024-05-12T08:16:35Z</time>
      </trkpt>
      <trkpt lat="42.8643" lon="1.20132">
        <ele>530.6</ele>
        <time>2024-05-12T08:16:36Z</time>
      </trkpt>
      <trkpt lat="42.8643" lon="1.20131">
        <ele>530.6</ele>
        <time>2024-05-12T08:16:38Z</time>
      </trkpt>
      <trkpt lat="42.86427" lon="1.20131">
        <ele>530.6</ele>
        <time>2024-05-12T08:17:12Z</time>
      </trkpt>
      <trkpt lat="42.86427" lon="1.20132">
        <ele>530.6</ele>
        <time>2024-05-12T08:17:14Z</time>
      </trkpt>
      <trkpt lat="42.86423" lon="1.20132">
        <ele>530.6</ele>
        <time>2024-05-12T08:17:40Z</time>
      </trkpt>
      <trkpt lat="42.86415" lon="1.2013">
        <ele>530.2</ele>
        <time>2024-05-12T08:17:43Z</time>
      </trkpt>
      <trkpt lat="42.86412" lon="1.2013">
        <ele>529.8</ele>
        <time>2024-05-12T08:17:44Z</time>
      </trkpt>
      <trkpt lat="42.86408" lon="1.2013">
        <ele>529</ele>
        <time>2024-05-12T08:17:45Z</time>
      </trkpt>
      <trkpt lat="42.86405" lon="1.20131">
        <ele>528.6</ele>
        <time>2024-05-12T08:17:46Z</time>
      </trkpt>
      <trkpt lat="42.86386" lon="1.20135">
        <ele>528.6</ele>
        <time>2024-05-12T08:17:51Z</time>
      </trkpt>
      <trkpt lat="42.86373" lon="1.20143">
        <ele>528.6</ele>
        <time>2024-05-12T08:17:56Z</time>
      </trkpt>
      <trkpt lat="42.86371" lon="1.20145">
        <ele>528.6</ele>
        <time>2024-05-12T08:17:59Z</time>
      </trkpt>
      <trkpt lat="42.8637" lon="1.20147">
        <ele>528.6</ele>
        <time>2024-05-12T08:18:08Z</time>
      </trkpt>
      <trkpt lat="42.86368" lon="1.20149">
        <ele>528.6</ele>
        <time>2024-05-12T08:18:09Z</time>
      </trkpt>
      <trkpt lat="42.86362" lon="1.20154">
        <ele>528.6</ele>
        <time>2024-05-12T08:18:11Z</time>
      </trkpt>
      <trkpt lat="42.86344" lon="1.20166">
        <ele>528.6</ele>
        <time>2024-05-12T08:18:18Z</time>
      </trkpt>
      <trkpt lat="42.86331" lon="1.2017">
        <ele>528.6</ele>
        <time>2024-05-12T08:18:23Z</time>
      </trkpt>
      <trkpt lat="42.86323" lon="1.20179">
        <ele>528.6</ele>
        <time>2024-05-12T08:18:29Z</time>
      </trkpt>
      <trkpt lat="42.8632" lon="1.20179">
        <ele>528.6</ele>
        <time>2024-05-12T08:18:34Z</time>
      </trkpt>
      <trkpt lat="42.8632" lon="1.20182">
        <ele>526.6</ele>
        <time>2024-05-12T08:33:35Z</time>
      </trkpt>
      <trkpt lat="42.86316" lon="1.20184">
        <ele>526.6</ele>
        <time>2024-05-12T08:33:39Z</time>
      </trkpt>
      <trkpt lat="42.86312" lon="1.20187">
        <ele>526.6</ele>
        <time>2024-05-12T08:33:41Z</time>
      </trkpt>
      <trkpt lat="42.86299" lon="1.202">
        <ele>526.6</ele>
        <time>2024-05-12T08:33:47Z</time>
      </trkpt>
      <trkpt lat="42.86284" lon="1.20205">
        <ele>526.6</ele>
        <time>2024-05-12T08:33:53Z</time>
      </trkpt>
      <trkpt lat="42.86276" lon="1.20201">
        <ele>526.6</ele>
        <time>2024-05-12T08:33:57Z</time>
      </trkpt>
      <trkpt lat="42.86275" lon="1.20201">
        <ele>526.6</ele>
        <time>2024-05-12T08:33:58Z</time>
      </trkpt>
      <trkpt lat="42.86262" lon="1.20199">
        <ele>526.6</ele>
        <time>2024-05-12T08:34:03Z</time>
      </trkpt>
      <trkpt lat="42.86254" lon="1.20199">
        <ele>526.6</ele>
        <time>2024-05-12T08:34:08Z</time>
      </trkpt>
      <trkpt lat="42.86253" lon="1.20199">
        <ele>526.6</ele>
        <time>2024-05-12T08:34:09Z</time>
      </trkpt>
      <trkpt lat="42.86249" lon="1.20201">
        <ele>526.6</ele>
        <time>2024-05-12T08:34:14Z</time>
      </trkpt>
      <trkpt lat="42.86248" lon="1.20202">
        <ele>526.6</ele>
        <time>2024-05-12T08:34:15Z</time>
      </trkpt>
      <trkpt lat="42.86239" lon="1.20209">
        <ele>526.6</ele>
        <time>2024-05-12T08:34:20Z</time>
      </trkpt>
      <trkpt lat="42.86231" lon="1.20213">
        <ele>526.6</ele>
        <time>2024-05-12T08:34:26Z</time>
      </trkpt>
      <trkpt lat="42.86227" lon="1.20214">
        <ele>527</ele>
        <time>2024-05-12T08:34:29Z</time>
      </trkpt>
      <trkpt lat="42.86226" lon="1.20214">
        <ele>527.4</ele>
        <time>2024-05-12T08:34:30Z</time>
      </trkpt>
      <trkpt lat="42.86224" lon="1.20216">
        <ele>527.8</ele>
        <time>2024-05-12T08:34:31Z</time>
      </trkpt>
      <trkpt lat="42.86223" lon="1.20217">
        <ele>528.4</ele>
        <time>2024-05-12T08:34:32Z</time>
      </trkpt>
      <trkpt lat="42.86223" lon="1.20219">
        <ele>528.8</ele>
        <time>2024-05-12T08:34:33Z</time>
      </trkpt>
      <trkpt lat="42.86228" lon="1.2022">
        <ele>528.8</ele>
        <time>2024-05-12T08:34:35Z</time>
      </trkpt>
      <trkpt lat="42.86243" lon="1.20209">
        <ele>528.8</ele>
        <time>2024-05-12T08:34:39Z</time>
      </trkpt>
      <trkpt lat="42.86255" lon="1.20202">
        <ele>528.8</ele>
        <time>2024-05-12T08:34:42Z</time>
      </trkpt>
      <trkpt lat="42.86264" lon="1.20201">
        <ele>528.8</ele>
        <time>2024-05-12T08:34:44Z</time>
      </trkpt>
      <trkpt lat="42.86272" lon="1.20203">
        <ele>528.8</ele>
        <time>2024-05-12T08:34:46Z</time>
      </trkpt>
      <trkpt lat="42.86279" lon="1.20206">
        <ele>528.2</ele>
        <time>2024-05-12T08:34:48Z</time>
      </trkpt>
      <trkpt lat="42.86283" lon="1.20207">
        <ele>527.8</ele>
        <time>2024-05-12T08:34:49Z</time>
      </trkpt>
      <trkpt lat="42.86286" lon="1.20208">
        <ele>527.4</ele>
        <time>2024-05-12T08:34:50Z</time>
      </trkpt>
      <trkpt lat="42.8629" lon="1.20207">
        <ele>526.8</ele>
        <time>2024-05-12T08:34:51Z</time>
      </trkpt>
      <trkpt lat="42.86294" lon="1.20204">
        <ele>526.4</ele>
        <time>2024-05-12T08:34:52Z</time>
      </trkpt>
      <trkpt lat="42.86301" lon="1.20197">
        <ele>526.4</ele>
        <time>2024-05-12T08:34:54Z</time>
      </trkpt>
      <trkpt lat="42.86312" lon="1.20186">
        <ele>526.4</ele>
        <time>2024-05-12T08:34:58Z</time>
      </trkpt>
      <trkpt lat="42.86325" lon="1.20175">
        <ele>526.4</ele>
        <time>2024-05-12T08:35:02Z</time>
      </trkpt>
      <trkpt lat="42.86341" lon="1.20162">
        <ele>526.4</ele>
        <time>2024-05-12T08:35:07Z</time>
      </trkpt>
      <trkpt lat="42.86344" lon="1.20162">
        <ele>526</ele>
        <time>2024-05-12T08:35:08Z</time>
      </trkpt>
      <trkpt lat="42.86347" lon="1.20162">
        <ele>525.6</ele>
        <time>2024-05-12T08:35:09Z</time>
      </trkpt>
      <trkpt lat="42.86351" lon="1.20162">
        <ele>525.2</ele>
        <time>2024-05-12T08:35:10Z</time>
      </trkpt>
      <trkpt lat="42.86354" lon="1.20162">
        <ele>524.8</ele>
        <time>2024-05-12T08:35:11Z</time>
      </trkpt>
      <trkpt lat="42.86356" lon="1.20161">
        <ele>524.4</ele>
        <time>2024-05-12T08:35:12Z</time>
      </trkpt>
      <trkpt lat="42.86365" lon="1.20155">
        <ele>524.8</ele>
        <time>2024-05-12T08:35:17Z</time>
      </trkpt>
      <trkpt lat="42.86364" lon="1.20155">
        <ele>525.2</ele>
        <time>2024-05-12T08:35:18Z</time>
      </trkpt>
      <trkpt lat="42.86367" lon="1.20153">
        <ele>526.4</ele>
        <time>2024-05-12T08:35:27Z</time>
      </trkpt>
      <trkpt lat="42.86372" lon="1.20149">
        <ele>526.4</ele>
        <time>2024-05-12T08:35:29Z</time>
      </trkpt>
      <trkpt lat="42.8638" lon="1.2014">
        <ele>526.4</ele>
        <time>2024-05-12T08:35:33Z</time>
      </trkpt>
      <trkpt lat="42.8638" lon="1.20135">
        <ele>526.4</ele>
        <time>2024-05-12T08:35:34Z</time>
      </trkpt>
      <trkpt lat="42.86376" lon="1.20124">
        <ele>526.4</ele>
        <time>2024-05-12T08:35:37Z</time>
      </trkpt>
      <trkpt lat="42.86365" lon="1.20104">
        <ele>526.4</ele>
        <time>2024-05-12T08:35:42Z</time>
      </trkpt>
      <trkpt lat="42.8637" lon="1.20092">
        <ele>526.4</ele>
        <time>2024-05-12T08:35:45Z</time>
      </trkpt>
      <trkpt lat="42.86379" lon="1.2009">
        <ele>526.4</ele>
        <time>2024-05-12T08:35:48Z</time>
      </trkpt>
      <trkpt lat="42.86393" lon="1.20087">
        <ele>526.4</ele>
        <time>2024-05-12T08:35:53Z</time>
      </trkpt>
      <trkpt lat="42.86395" lon="1.20078">
        <ele>526.4</ele>
        <time>2024-05-12T08:35:56Z</time>
      </trkpt>
      <trkpt lat="42.86395" lon="1.20077">
        <ele>526.4</ele>
        <time>2024-05-12T08:35:57Z</time>
      </trkpt>
      <trkpt lat="42.86397" lon="1.20073">
        <ele>526.4</ele>
        <time>2024-05-12T08:36:20Z</time>
      </trkpt>
      <trkpt lat="42.86398" lon="1.2007">
        <ele>526.4</ele>
        <time>2024-05-12T08:36:22Z</time>
      </trkpt>
      <trkpt lat="42.86401" lon="1.20064">
        <ele>526.4</ele>
        <time>2024-05-12T08:36:26Z</time>
      </trkpt>
      <trkpt lat="42.86404" lon="1.2006">
        <ele>526.4</ele>
        <time>2024-05-12T08:36:28Z</time>
      </trkpt>
      <trkpt lat="42.86406" lon="1.20051">
        <ele>526.4</ele>
        <time>2024-05-12T08:36:31Z</time>
      </trkpt>
      <trkpt lat="42.86411" lon="1.20041">
        <ele>526.4</ele>
        <time>2024-05-12T08:36:34Z</time>
      </trkpt>
      <trkpt lat="42.86416" lon="1.20034">
        <ele>526.4</ele>
        <time>2024-05-12T08:36:38Z</time>
      </trkpt>
      <trkpt lat="42.86421" lon="1.20018">
        <ele>526.4</ele>
        <time>2024-05-12T08:36:43Z</time>
      </trkpt>
      <trkpt lat="42.86435" lon="1.19999">
        <ele>526.4</ele>
        <time>2024-05-12T08:36:49Z</time>
      </trkpt>
      <trkpt lat="42.86445" lon="1.19974">
        <ele>526.4</ele>
        <time>2024-05-12T08:36:55Z</time>
      </trkpt>
      <trkpt lat="42.86448" lon="1.19965">
        <ele>526.8</ele>
        <time>2024-05-12T08:36:57Z</time>
      </trkpt>
      <trkpt lat="42.86449" lon="1.19962">
        <ele>527.2</ele>
        <time>2024-05-12T08:36:58Z</time>
      </trkpt>
      <trkpt lat="42.86451" lon="1.19958">
        <ele>527.6</ele>
        <time>2024-05-12T08:36:59Z</time>
      </trkpt>
      <trkpt lat="42.86453" lon="1.19954">
        <ele>528</ele>
        <time>2024-05-12T08:37:00Z</time>
      </trkpt>
      <trkpt lat="42.86455" lon="1.1995">
        <ele>528.4</ele>
        <time>2024-05-12T08:37:01Z</time>
      </trkpt>
      <trkpt lat="42.86458" lon="1.19932">
        <ele>528.4</ele>
        <time>2024-05-12T08:37:05Z</time>
      </trkpt>
      <trkpt lat="42.86463" lon="1.19906">
        <ele>528.4</ele>
        <time>2024-05-12T08:37:11Z</time>
      </trkpt>
      <trkpt lat="42.86465" lon="1.19874">
        <ele>528.4</ele>
        <time>2024-05-12T08:37:18Z</time>
      </trkpt>
      <trkpt lat="42.8647" lon="1.19846">
        <ele>528.4</ele>
        <time>2024-05-12T08:37:24Z</time>
      </trkpt>
      <trkpt lat="42.86476" lon="1.19813">
        <ele>529.4</ele>
        <time>2024-05-12T08:37:31Z</time>
      </trkpt>
      <trkpt lat="42.86477" lon="1.19809">
        <ele>529.8</ele>
        <time>2024-05-12T08:37:32Z</time>
      </trkpt>
      <trkpt lat="42.86478" lon="1.19806">
        <ele>530.2</ele>
        <time>2024-05-12T08:37:33Z</time>
      </trkpt>
      <trkpt lat="42.86479" lon="1.19802">
        <ele>530.6</ele>
        <time>2024-05-12T08:37:34Z</time>
      </trkpt>
      <trkpt lat="42.86483" lon="1.19787">
        <ele>530.6</ele>
        <time>2024-05-12T08:37:38Z</time>
      </trkpt>
      <trkpt lat="42.86485" lon="1.1976">
        <ele>530.6</ele>
        <time>2024-05-12T08:37:45Z</time>
      </trkpt>
      <trkpt lat="42.86484" lon="1.19756">
        <ele>531</ele>
        <time>2024-05-12T08:37:46Z</time>
      </trkpt>
      <trkpt lat="42.86483" lon="1.19752">
        <ele>531.4</ele>
        <time>2024-05-12T08:37:47Z</time>
      </trkpt>
      <trkpt lat="42.86483" lon="1.19748">
        <ele>531.8</ele>
        <time>2024-05-12T08:37:48Z</time>
      </trkpt>
      <trkpt lat="42.86482" lon="1.19744">
        <ele>532.2</ele>
        <time>2024-05-12T08:37:49Z</time>
      </trkpt>
      <trkpt lat="42.86482" lon="1.1974">
        <ele>532.6</ele>
        <time>2024-05-12T08:37:50Z</time>
      </trkpt>
      <trkpt lat="42.86483" lon="1.19737">
        <ele>532.6</ele>
        <time>2024-05-12T08:37:51Z</time>
      </trkpt>
      <trkpt lat="42.86484" lon="1.19716">
        <ele>533.6</ele>
        <time>2024-05-12T08:37:56Z</time>
      </trkpt>
      <trkpt lat="42.86484" lon="1.19712">
        <ele>534</ele>
        <time>2024-05-12T08:37:57Z</time>
      </trkpt>
      <trkpt lat="42.86485" lon="1.19708">
        <ele>534.4</ele>
        <time>2024-05-12T08:37:58Z</time>
      </trkpt>
      <trkpt lat="42.86485" lon="1.19704">
        <ele>534.8</ele>
        <time>2024-05-12T08:37:59Z</time>
      </trkpt>
      <trkpt lat="42.86486" lon="1.19683">
        <ele>534.8</ele>
        <time>2024-05-12T08:38:05Z</time>
      </trkpt>
      <trkpt lat="42.86488" lon="1.19678">
        <ele>534.8</ele>
        <time>2024-05-12T08:38:07Z</time>
      </trkpt>
      <trkpt lat="42.86496" lon="1.19673">
        <ele>534.8</ele>
        <time>2024-05-12T08:38:10Z</time>
      </trkpt>
      <trkpt lat="42.86506" lon="1.19671">
        <ele>534.8</ele>
        <time>2024-05-12T08:38:13Z</time>
      </trkpt>
      <trkpt lat="42.86513" lon="1.1967">
        <ele>534.8</ele>
        <time>2024-05-12T08:38:15Z</time>
      </trkpt>
      <trkpt lat="42.86525" lon="1.19672">
        <ele>534.8</ele>
        <time>2024-05-12T08:38:18Z</time>
      </trkpt>
      <trkpt lat="42.86534" lon="1.19676">
        <ele>534.8</ele>
        <time>2024-05-12T08:38:20Z</time>
      </trkpt>
      <trkpt lat="42.86538" lon="1.19681">
        <ele>534.8</ele>
        <time>2024-05-12T08:38:21Z</time>
      </trkpt>
      <trkpt lat="42.86539" lon="1.19691">
        <ele>534.8</ele>
        <time>2024-05-12T08:38:23Z</time>
      </trkpt>
      <trkpt lat="42.86545" lon="1.19711">
        <ele>534.8</ele>
        <time>2024-05-12T08:38:27Z</time>
      </trkpt>
      <trkpt lat="42.86554" lon="1.1972">
        <ele>534.8</ele>
        <time>2024-05-12T08:38:31Z</time>
      </trkpt>
      <trkpt lat="42.86556" lon="1.19722">
        <ele>535.2</ele>
        <time>2024-05-12T08:38:32Z</time>
      </trkpt>
      <trkpt lat="42.86558" lon="1.19723">
        <ele>535.6</ele>
        <time>2024-05-12T08:38:33Z</time>
      </trkpt>
      <trkpt lat="42.8656" lon="1.19724">
        <ele>536</ele>
        <time>2024-05-12T08:38:34Z</time>
      </trkpt>
      <trkpt lat="42.86561" lon="1.19725">
        <ele>536.4</ele>
        <time>2024-05-12T08:38:35Z</time>
      </trkpt>
      <trkpt lat="42.86562" lon="1.19725">
        <ele>536.8</ele>
        <time>2024-05-12T08:38:36Z</time>
      </trkpt>
      <trkpt lat="42.86565" lon="1.19727">
        <ele>536.8</ele>
        <time>2024-05-12T08:38:38Z</time>
      </trkpt>
      <trkpt lat="42.86567" lon="1.19726">
        <ele>536.8</ele>
        <time>2024-05-12T08:38:39Z</time>
      </trkpt>
      <trkpt lat="42.86569" lon="1.19719">
        <ele>536.8</ele>
        <time>2024-05-12T08:38:41Z</time>
      </trkpt>
      <trkpt lat="42.86569" lon="1.19706">
        <ele>536.8</ele>
        <time>2024-05-12T08:38:45Z</time>
      </trkpt>
      <trkpt lat="42.86569" lon="1.19702">
        <ele>536.8</ele>
        <time>2024-05-12T08:38:46Z</time>
      </trkpt>
      <trkpt lat="42.86571" lon="1.19668">
        <ele>536.8</ele>
        <time>2024-05-12T08:38:53Z</time>
      </trkpt>
      <trkpt lat="42.86571" lon="1.1965">
        <ele>536.8</ele>
        <time>2024-05-12T08:38:58Z</time>
      </trkpt>
      <trkpt lat="42.86572" lon="1.19647">
        <ele>536.8</ele>
        <time>2024-05-12T08:38:59Z</time>
      </trkpt>
      <trkpt lat="42.86574" lon="1.19627">
        <ele>536.8</ele>
        <time>2024-05-12T08:39:05Z</time>
      </trkpt>
      <trkpt lat="42.86577" lon="1.19608">
        <ele>536.8</ele>
        <time>2024-05-12T08:39:11Z</time>
      </trkpt>
      <trkpt lat="42.86584" lon="1.19579">
        <ele>536.8</ele>
        <time>2024-05-12T08:39:19Z</time>
      </trkpt>
      <trkpt lat="42.86591" lon="1.19554">
        <ele>536.8</ele>
        <time>2024-05-12T08:39:27Z</time>
      </trkpt>
      <trkpt lat="42.866" lon="1.19535">
        <ele>536.8</ele>
        <time>2024-05-12T08:39:33Z</time>
      </trkpt>
      <trkpt lat="42.86608" lon="1.19514">
        <ele>536.8</ele>
        <time>2024-05-12T08:39:39Z</time>
      </trkpt>
      <trkpt lat="42.86616" lon="1.19497">
        <ele>537.2</ele>
        <time>2024-05-12T08:39:44Z</time>
      </trkpt>
      <trkpt lat="42.86617" lon="1.19494">
        <ele>537.6</ele>
        <time>2024-05-12T08:39:45Z</time>
      </trkpt>
      <trkpt lat="42.86618" lon="1.19491">
        <ele>538</ele>
        <time>2024-05-12T08:39:46Z</time>
      </trkpt>
      <trkpt lat="42.8662" lon="1.19487">
        <ele>538.4</ele>
        <time>2024-05-12T08:39:47Z</time>
      </trkpt>
      <trkpt lat="42.86621" lon="1.19484">
        <ele>539</ele>
        <time>2024-05-12T08:39:48Z</time>
      </trkpt>
      <trkpt lat="42.86627" lon="1.19471">
        <ele>539</ele>
        <time>2024-05-12T08:39:51Z</time>
      </trkpt>
      <trkpt lat="42.86637" lon="1.19449">
        <ele>539</ele>
        <time>2024-05-12T08:39:58Z</time>
      </trkpt>
      <trkpt lat="42.86643" lon="1.19436">
        <ele>539.4</ele>
        <time>2024-05-12T08:40:02Z</time>
      </trkpt>
      <trkpt lat="42.86645" lon="1.19432">
        <ele>539.8</ele>
        <time>2024-05-12T08:40:03Z</time>
      </trkpt>
      <trkpt lat="42.86647" lon="1.19429">
        <ele>540.2</ele>
        <time>2024-05-12T08:40:04Z</time>
      </trkpt>
      <trkpt lat="42.86648" lon="1.19426">
        <ele>540.8</ele>
        <time>2024-05-12T08:40:05Z</time>
      </trkpt>
      <trkpt lat="42.8665" lon="1.19423">
        <ele>541.2</ele>
        <time>2024-05-12T08:40:06Z</time>
      </trkpt>
      <trkpt lat="42.86661" lon="1.194">
        <ele>541.6</ele>
        <time>2024-05-12T08:40:13Z</time>
      </trkpt>
      <trkpt lat="42.86663" lon="1.19397">
        <ele>542</ele>
        <time>2024-05-12T08:40:14Z</time>
      </trkpt>
      <trkpt lat="42.86665" lon="1.19394">
        <ele>542.4</ele>
        <time>2024-05-12T08:40:15Z</time>
      </trkpt>
      <trkpt lat="42.86667" lon="1.19391">
        <ele>542.8</ele>
        <time>2024-05-12T08:40:16Z</time>
      </trkpt>
      <trkpt lat="42.86669" lon="1.19388">
        <ele>543.2</ele>
        <time>2024-05-12T08:40:17Z</time>
      </trkpt>
      <trkpt lat="42.86673" lon="1.19378">
        <ele>543.2</ele>
        <time>2024-05-12T08:40:20Z</time>
      </trkpt>
      <trkpt lat="42.86677" lon="1.19371">
        <ele>543.6</ele>
        <time>2024-05-12T08:40:22Z</time>
      </trkpt>
      <trkpt lat="42.86678" lon="1.19368">
        <ele>544.2</ele>
        <time>2024-05-12T08:40:23Z</time>
      </trkpt>
      <trkpt lat="42.8668" lon="1.19365">
        <ele>545</ele>
        <time>2024-05-12T08:40:24Z</time>
      </trkpt>
      <trkpt lat="42.86682" lon="1.19362">
        <ele>545.4</ele>
        <time>2024-05-12T08:40:25Z</time>
      </trkpt>
      <trkpt lat="42.86683" lon="1.19359">
        <ele>545.4</ele>
        <time>2024-05-12T08:40:26Z</time>
      </trkpt>
      <trkpt lat="42.8669" lon="1.19349">
        <ele>545.8</ele>
        <time>2024-05-12T08:40:30Z</time>
      </trkpt>
      <trkpt lat="42.86691" lon="1.19346">
        <ele>546.2</ele>
        <time>2024-05-12T08:40:31Z</time>
      </trkpt>
      <trkpt lat="42.86693" lon="1.19344">
        <ele>546.6</ele>
        <time>2024-05-12T08:40:32Z</time>
      </trkpt>
      <trkpt lat="42.86694" lon="1.19341">
        <ele>547</ele>
        <time>2024-05-12T08:40:33Z</time>
      </trkpt>
      <trkpt lat="42.86696" lon="1.19338">
        <ele>547.6</ele>
        <time>2024-05-12T08:40:34Z</time>
      </trkpt>
      <trkpt lat="42.86705" lon="1.19324">
        <ele>548</ele>
        <time>2024-05-12T08:40:39Z</time>
      </trkpt>
      <trkpt lat="42.86707" lon="1.19321">
        <ele>548.4</ele>
        <time>2024-05-12T08:40:40Z</time>
      </trkpt>
      <trkpt lat="42.86709" lon="1.19318">
        <ele>548.8</ele>
        <time>2024-05-12T08:40:41Z</time>
      </trkpt>
      <trkpt lat="42.86711" lon="1.19315">
        <ele>549.2</ele>
        <time>2024-05-12T08:40:42Z</time>
      </trkpt>
      <trkpt lat="42.86713" lon="1.19312">
        <ele>549.6</ele>
        <time>2024-05-12T08:40:43Z</time>
      </trkpt>
      <trkpt lat="42.86721" lon="1.19298">
        <ele>550.2</ele>
        <time>2024-05-12T08:40:48Z</time>
      </trkpt>
      <trkpt lat="42.86723" lon="1.19295">
        <ele>551</ele>
        <time>2024-05-12T08:40:49Z</time>
      </trkpt>
      <trkpt lat="42.86724" lon="1.19291">
        <ele>551.4</ele>
        <time>2024-05-12T08:40:50Z</time>
      </trkpt>
      <trkpt lat="42.86725" lon="1.19288">
        <ele>552</ele>
        <time>2024-05-12T08:40:51Z</time>
      </trkpt>
      <trkpt lat="42.86733" lon="1.19271">
        <ele>552.4</ele>
        <time>2024-05-12T08:40:56Z</time>
      </trkpt>
      <trkpt lat="42.86734" lon="1.19267">
        <ele>552.8</ele>
        <time>2024-05-12T08:40:57Z</time>
      </trkpt>
      <trkpt lat="42.86735" lon="1.19263">
        <ele>553.2</ele>
        <time>2024-05-12T08:40:58Z</time>
      </trkpt>
      <trkpt lat="42.86736" lon="1.1926">
        <ele>553.6</ele>
        <time>2024-05-12T08:40:59Z</time>
      </trkpt>
      <trkpt lat="42.86738" lon="1.19256">
        <ele>554.2</ele>
        <time>2024-05-12T08:41:00Z</time>
      </trkpt>
      <trkpt lat="42.8674" lon="1.19242">
        <ele>554.2</ele>
        <time>2024-05-12T08:41:04Z</time>
      </trkpt>
      <trkpt lat="42.86734" lon="1.19229">
        <ele>554.2</ele>
        <time>2024-05-12T08:41:08Z</time>
      </trkpt>
      <trkpt lat="42.86726" lon="1.1922">
        <ele>554.6</ele>
        <time>2024-05-12T08:41:11Z</time>
      </trkpt>
      <trkpt lat="42.86723" lon="1.19218">
        <ele>555</ele>
        <time>2024-05-12T08:41:12Z</time>
      </trkpt>
      <trkpt lat="42.86721" lon="1.19214">
        <ele>555.8</ele>
        <time>2024-05-12T08:41:13Z</time>
      </trkpt>
      <trkpt lat="42.86717" lon="1.19211">
        <ele>556.2</ele>
        <time>2024-05-12T08:41:14Z</time>
      </trkpt>
      <trkpt lat="42.86714" lon="1.19208">
        <ele>556.2</ele>
        <time>2024-05-12T08:41:15Z</time>
      </trkpt>
      <trkpt lat="42.8669" lon="1.19181">
        <ele>556.2</ele>
        <time>2024-05-12T08:41:22Z</time>
      </trkpt>
      <trkpt lat="42.86666" lon="1.19149">
        <ele>556.2</ele>
        <time>2024-05-12T08:41:29Z</time>
      </trkpt>
      <trkpt lat="42.86664" lon="1.19143">
        <ele>556.2</ele>
        <time>2024-05-12T08:41:30Z</time>
      </trkpt>
      <trkpt lat="42.86657" lon="1.19118">
        <ele>556.2</ele>
        <time>2024-05-12T08:41:34Z</time>
      </trkpt>
      <trkpt lat="42.86654" lon="1.19106">
        <ele>556.2</ele>
        <time>2024-05-12T08:41:36Z</time>
      </trkpt>
      <trkpt lat="42.86646" lon="1.19082">
        <ele>556.6</ele>
        <time>2024-05-12T08:41:40Z</time>
      </trkpt>
      <trkpt lat="42.86645" lon="1.19076">
        <ele>557</ele>
        <time>2024-05-12T08:41:41Z</time>
      </trkpt>
      <trkpt lat="42.86644" lon="1.19071">
        <ele>557.4</ele>
        <time>2024-05-12T08:41:42Z</time>
      </trkpt>
      <trkpt lat="42.86643" lon="1.19065">
        <ele>557.8</ele>
        <time>2024-05-12T08:41:43Z</time>
      </trkpt>
      <trkpt lat="42.86641" lon="1.19059">
        <ele>558.2</ele>
        <time>2024-05-12T08:41:44Z</time>
      </trkpt>
      <trkpt lat="42.86638" lon="1.19041">
        <ele>558.2</ele>
        <time>2024-05-12T08:41:47Z</time>
      </trkpt>
      <trkpt lat="42.86637" lon="1.19034">
        <ele>558.2</ele>
        <time>2024-05-12T08:41:48Z</time>
      </trkpt>
      <trkpt lat="42.86635" lon="1.1903">
        <ele>558.2</ele>
        <time>2024-05-12T08:41:49Z</time>
      </trkpt>
      <trkpt lat="42.86631" lon="1.19015">
        <ele>558.2</ele>
        <time>2024-05-12T08:41:52Z</time>
      </trkpt>
      <trkpt lat="42.86625" lon="1.1898">
        <ele>558.2</ele>
        <time>2024-05-12T08:41:59Z</time>
      </trkpt>
      <trkpt lat="42.86623" lon="1.18946">
        <ele>558.2</ele>
        <time>2024-05-12T08:42:06Z</time>
      </trkpt>
      <trkpt lat="42.86623" lon="1.18942">
        <ele>558.8</ele>
        <time>2024-05-12T08:42:07Z</time>
      </trkpt>
      <trkpt lat="42.86623" lon="1.18937">
        <ele>559.2</ele>
        <time>2024-05-12T08:42:08Z</time>
      </trkpt>
      <trkpt lat="42.86623" lon="1.18932">
        <ele>559.6</ele>
        <time>2024-05-12T08:42:09Z</time>
      </trkpt>
      <trkpt lat="42.86622" lon="1.18927">
        <ele>560</ele>
        <time>2024-05-12T08:42:10Z</time>
      </trkpt>
      <trkpt lat="42.86621" lon="1.18922">
        <ele>560.4</ele>
        <time>2024-05-12T08:42:11Z</time>
      </trkpt>
      <trkpt lat="42.86621" lon="1.18917">
        <ele>560.4</ele>
        <time>2024-05-12T08:42:12Z</time>
      </trkpt>
      <trkpt lat="42.86625" lon="1.18886">
        <ele>560.4</ele>
        <time>2024-05-12T08:42:18Z</time>
      </trkpt>
      <trkpt lat="42.86627" lon="1.18863">
        <ele>560.4</ele>
        <time>2024-05-12T08:42:23Z</time>
      </trkpt>
      <trkpt lat="42.86626" lon="1.18844">
        <ele>560.4</ele>
        <time>2024-05-12T08:42:27Z</time>
      </trkpt>
      <trkpt lat="42.86626" lon="1.18832">
        <ele>560.4</ele>
        <time>2024-05-12T08:42:31Z</time>
      </trkpt>
      <trkpt lat="42.86625" lon="1.18826">
        <ele>560.4</ele>
        <time>2024-05-12T08:42:34Z</time>
      </trkpt>
      <trkpt lat="42.86623" lon="1.18825">
        <ele>560.4</ele>
        <time>2024-05-12T08:42:35Z</time>
      </trkpt>
      <trkpt lat="42.86614" lon="1.18829">
        <ele>560.4</ele>
        <time>2024-05-12T08:42:38Z</time>
      </trkpt>
      <trkpt lat="42.8661" lon="1.1883">
        <ele>560.4</ele>
        <time>2024-05-12T08:42:39Z</time>
      </trkpt>
      <trkpt lat="42.86595" lon="1.18835">
        <ele>560.4</ele>
        <time>2024-05-12T08:42:43Z</time>
      </trkpt>
      <trkpt lat="42.8659" lon="1.18834">
        <ele>560.4</ele>
        <time>2024-05-12T08:42:45Z</time>
      </trkpt>
      <trkpt lat="42.86585" lon="1.18826">
        <ele>560.4</ele>
        <time>2024-05-12T08:42:47Z</time>
      </trkpt>
      <trkpt lat="42.86582" lon="1.1882">
        <ele>560</ele>
        <time>2024-05-12T08:42:48Z</time>
      </trkpt>
      <trkpt lat="42.86579" lon="1.18814">
        <ele>559.4</ele>
        <time>2024-05-12T08:42:49Z</time>
      </trkpt>
      <trkpt lat="42.86577" lon="1.18808">
        <ele>559</ele>
        <time>2024-05-12T08:42:50Z</time>
      </trkpt>
      <trkpt lat="42.86574" lon="1.18803">
        <ele>558.6</ele>
        <time>2024-05-12T08:42:51Z</time>
      </trkpt>
      <trkpt lat="42.86571" lon="1.18798">
        <ele>558.2</ele>
        <time>2024-05-12T08:42:52Z</time>
      </trkpt>
      <trkpt lat="42.86566" lon="1.18787">
        <ele>558.2</ele>
        <time>2024-05-12T08:42:56Z</time>
      </trkpt>
      <trkpt lat="42.86561" lon="1.18777">
        <ele>558.2</ele>
        <time>2024-05-12T08:43:01Z</time>
      </trkpt>
      <trkpt lat="42.86556" lon="1.18767">
        <ele>558.2</ele>
        <time>2024-05-12T08:43:06Z</time>
      </trkpt>
      <trkpt lat="42.86549" lon="1.18754">
        <ele>558.6</ele>
        <time>2024-05-12T08:43:11Z</time>
      </trkpt>
      <trkpt lat="42.86546" lon="1.18753">
        <ele>559</ele>
        <time>2024-05-12T08:43:12Z</time>
      </trkpt>
      <trkpt lat="42.86544" lon="1.18752">
        <ele>559.4</ele>
        <time>2024-05-12T08:43:13Z</time>
      </trkpt>
      <trkpt lat="42.86543" lon="1.18751">
        <ele>559.8</ele>
        <time>2024-05-12T08:43:14Z</time>
      </trkpt>
      <trkpt lat="42.86542" lon="1.18748">
        <ele>560.2</ele>
        <time>2024-05-12T08:43:15Z</time>
      </trkpt>
      <trkpt lat="42.8654" lon="1.18745">
        <ele>561</ele>
        <time>2024-05-12T08:43:17Z</time>
      </trkpt>
      <trkpt lat="42.86539" lon="1.18743">
        <ele>561.4</ele>
        <time>2024-05-12T08:43:18Z</time>
      </trkpt>
      <trkpt lat="42.86537" lon="1.18741">
        <ele>561.8</ele>
        <time>2024-05-12T08:43:19Z</time>
      </trkpt>
      <trkpt lat="42.86535" lon="1.18738">
        <ele>562.2</ele>
        <time>2024-05-12T08:43:20Z</time>
      </trkpt>
      <trkpt lat="42.86533" lon="1.18736">
        <ele>562.2</ele>
        <time>2024-05-12T08:43:21Z</time>
      </trkpt>
      <trkpt lat="42.86532" lon="1.18734">
        <ele>562.6</ele>
        <time>2024-05-12T08:43:22Z</time>
      </trkpt>
      <trkpt lat="42.86531" lon="1.18731">
        <ele>563</ele>
        <time>2024-05-12T08:43:23Z</time>
      </trkpt>
      <trkpt lat="42.86531" lon="1.18729">
        <ele>563.6</ele>
        <time>2024-05-12T08:43:24Z</time>
      </trkpt>
      <trkpt lat="42.8653" lon="1.18727">
        <ele>564</ele>
        <time>2024-05-12T08:43:25Z</time>
      </trkpt>
      <trkpt lat="42.8653" lon="1.18724">
        <ele>564.4</ele>
        <time>2024-05-12T08:43:26Z</time>
      </trkpt>
      <trkpt lat="42.86529" lon="1.18722">
        <ele>564.4</ele>
        <time>2024-05-12T08:43:27Z</time>
      </trkpt>
      <trkpt lat="42.86529" lon="1.18716">
        <ele>564.4</ele>
        <time>2024-05-12T08:43:29Z</time>
      </trkpt>
      <trkpt lat="42.8653" lon="1.18708">
        <ele>564.4</ele>
        <time>2024-05-12T08:43:32Z</time>
      </trkpt>
      <trkpt lat="42.8653" lon="1.18705">
        <ele>565</ele>
        <time>2024-05-12T08:43:33Z</time>
      </trkpt>
      <trkpt lat="42.8653" lon="1.18703">
        <ele>565.4</ele>
        <time>2024-05-12T08:43:34Z</time>
      </trkpt>
      <trkpt lat="42.8653" lon="1.187">
        <ele>565.8</ele>
        <time>2024-05-12T08:43:35Z</time>
      </trkpt>
      <trkpt lat="42.8653" lon="1.18696">
        <ele>566.2</ele>
        <time>2024-05-12T08:43:36Z</time>
      </trkpt>
      <trkpt lat="42.86531" lon="1.18694">
        <ele>566.8</ele>
        <time>2024-05-12T08:43:37Z</time>
      </trkpt>
      <trkpt lat="42.86531" lon="1.18691">
        <ele>566.8</ele>
        <time>2024-05-12T08:43:38Z</time>
      </trkpt>
      <trkpt lat="42.86532" lon="1.18679">
        <ele>567.2</ele>
        <time>2024-05-12T08:43:42Z</time>
      </trkpt>
      <trkpt lat="42.86533" lon="1.18675">
        <ele>567.6</ele>
        <time>2024-05-12T08:43:43Z</time>
      </trkpt>
      <trkpt lat="42.86533" lon="1.18673">
        <ele>568</ele>
        <time>2024-05-12T08:43:44Z</time>
      </trkpt>
      <trkpt lat="42.86533" lon="1.18669">
        <ele>568.4</ele>
        <time>2024-05-12T08:43:45Z</time>
      </trkpt>
      <trkpt lat="42.86533" lon="1.18664">
        <ele>568.8</ele>
        <time>2024-05-12T08:43:46Z</time>
      </trkpt>
      <trkpt lat="42.86534" lon="1.18655">
        <ele>568.8</ele>
        <time>2024-05-12T08:43:49Z</time>
      </trkpt>
      <trkpt lat="42.86536" lon="1.18641">
        <ele>568.8</ele>
        <time>2024-05-12T08:43:54Z</time>
      </trkpt>
      <trkpt lat="42.86537" lon="1.1863">
        <ele>569.2</ele>
        <time>2024-05-12T08:43:59Z</time>
      </trkpt>
      <trkpt lat="42.86538" lon="1.18627">
        <ele>569.6</ele>
        <time>2024-05-12T08:44:00Z</time>
      </trkpt>
      <trkpt lat="42.86538" lon="1.18625">
        <ele>570</ele>
        <time>2024-05-12T08:44:01Z</time>
      </trkpt>
      <trkpt lat="42.8654" lon="1.18622">
        <ele>570.4</ele>
        <time>2024-05-12T08:44:02Z</time>
      </trkpt>
      <trkpt lat="42.8654" lon="1.18619">
        <ele>570.8</ele>
        <time>2024-05-12T08:44:03Z</time>
      </trkpt>
      <trkpt lat="42.86542" lon="1.18614">
        <ele>570.8</ele>
        <time>2024-05-12T08:44:05Z</time>
      </trkpt>
      <trkpt lat="42.86542" lon="1.18612">
        <ele>570.8</ele>
        <time>2024-05-12T08:44:06Z</time>
      </trkpt>
      <trkpt lat="42.86545" lon="1.18607">
        <ele>570.8</ele>
        <time>2024-05-12T08:44:10Z</time>
      </trkpt>
      <trkpt lat="42.86546" lon="1.18597">
        <ele>570.8</ele>
        <time>2024-05-12T08:44:26Z</time>
      </trkpt>
      <trkpt lat="42.86548" lon="1.1859">
        <ele>570.8</ele>
        <time>2024-05-12T08:44:28Z</time>
      </trkpt>
      <trkpt lat="42.86551" lon="1.18583">
        <ele>571.2</ele>
        <time>2024-05-12T08:44:30Z</time>
      </trkpt>
      <trkpt lat="42.86552" lon="1.1858">
        <ele>572.2</ele>
        <time>2024-05-12T08:44:31Z</time>
      </trkpt>
      <trkpt lat="42.86552" lon="1.18577">
        <ele>572.6</ele>
        <time>2024-05-12T08:44:32Z</time>
      </trkpt>
      <trkpt lat="42.86552" lon="1.18574">
        <ele>573</ele>
        <time>2024-05-12T08:44:33Z</time>
      </trkpt>
      <trkpt lat="42.86552" lon="1.1857">
        <ele>573</ele>
        <time>2024-05-12T08:44:34Z</time>
      </trkpt>
      <trkpt lat="42.86553" lon="1.18556">
        <ele>573</ele>
        <time>2024-05-12T08:44:39Z</time>
      </trkpt>
      <trkpt lat="42.86554" lon="1.18554">
        <ele>573</ele>
        <time>2024-05-12T08:44:40Z</time>
      </trkpt>
      <trkpt lat="42.86554" lon="1.18551">
        <ele>573.4</ele>
        <time>2024-05-12T08:44:41Z</time>
      </trkpt>
      <trkpt lat="42.86555" lon="1.18548">
        <ele>573.8</ele>
        <time>2024-05-12T08:44:42Z</time>
      </trkpt>
      <trkpt lat="42.86555" lon="1.18546">
        <ele>574.2</ele>
        <time>2024-05-12T08:44:43Z</time>
      </trkpt>
      <trkpt lat="42.86555" lon="1.18543">
        <ele>574.6</ele>
        <time>2024-05-12T08:44:44Z</time>
      </trkpt>
      <trkpt lat="42.86555" lon="1.18541">
        <ele>575</ele>
        <time>2024-05-12T08:44:45Z</time>
      </trkpt>
      <trkpt lat="42.86554" lon="1.18529">
        <ele>575.4</ele>
        <time>2024-05-12T08:44:49Z</time>
      </trkpt>
      <trkpt lat="42.86554" lon="1.18527">
        <ele>575.8</ele>
        <time>2024-05-12T08:44:50Z</time>
      </trkpt>
      <trkpt lat="42.86554" lon="1.18524">
        <ele>576.2</ele>
        <time>2024-05-12T08:44:51Z</time>
      </trkpt>
      <trkpt lat="42.86554" lon="1.18522">
        <ele>576.6</ele>
        <time>2024-05-12T08:44:52Z</time>
      </trkpt>
      <trkpt lat="42.86554" lon="1.1852">
        <ele>577</ele>
        <time>2024-05-12T08:44:53Z</time>
      </trkpt>
      <trkpt lat="42.86553" lon="1.18513">
        <ele>577</ele>
        <time>2024-05-12T08:44:55Z</time>
      </trkpt>
      <trkpt lat="42.86554" lon="1.1851">
        <ele>577</ele>
        <time>2024-05-12T08:44:56Z</time>
      </trkpt>
      <trkpt lat="42.86553" lon="1.18507">
        <ele>577.6</ele>
        <time>2024-05-12T08:44:57Z</time>
      </trkpt>
      <trkpt lat="42.86553" lon="1.18505">
        <ele>578</ele>
        <time>2024-05-12T08:44:58Z</time>
      </trkpt>
      <trkpt lat="42.86553" lon="1.18502">
        <ele>578.4</ele>
        <time>2024-05-12T08:44:59Z</time>
      </trkpt>
      <trkpt lat="42.86553" lon="1.18499">
        <ele>578.8</ele>
        <time>2024-05-12T08:45:00Z</time>
      </trkpt>
      <trkpt lat="42.86553" lon="1.18497">
        <ele>579.2</ele>
        <time>2024-05-12T08:45:01Z</time>
      </trkpt>
      <trkpt lat="42.86552" lon="1.18489">
        <ele>579.6</ele>
        <time>2024-05-12T08:45:04Z</time>
      </trkpt>
      <trkpt lat="42.86551" lon="1.18486">
        <ele>580</ele>
        <time>2024-05-12T08:45:05Z</time>
      </trkpt>
      <trkpt lat="42.86551" lon="1.18483">
        <ele>580.4</ele>
        <time>2024-05-12T08:45:06Z</time>
      </trkpt>
      <trkpt lat="42.8655" lon="1.18481">
        <ele>580.8</ele>
        <time>2024-05-12T08:45:07Z</time>
      </trkpt>
      <trkpt lat="42.86551" lon="1.18478">
        <ele>581.2</ele>
        <time>2024-05-12T08:45:08Z</time>
      </trkpt>
      <trkpt lat="42.86551" lon="1.18476">
        <ele>581.2</ele>
        <time>2024-05-12T08:45:09Z</time>
      </trkpt>
      <trkpt lat="42.86549" lon="1.18466">
        <ele>581.2</ele>
        <time>2024-05-12T08:45:13Z</time>
      </trkpt>
      <trkpt lat="42.86549" lon="1.18463">
        <ele>581.8</ele>
        <time>2024-05-12T08:45:14Z</time>
      </trkpt>
      <trkpt lat="42.86548" lon="1.1846">
        <ele>582.2</ele>
        <time>2024-05-12T08:45:15Z</time>
      </trkpt>
      <trkpt lat="42.86547" lon="1.18457">
        <ele>582.6</ele>
        <time>2024-05-12T08:45:16Z</time>
      </trkpt>
      <trkpt lat="42.86547" lon="1.18455">
        <ele>583.2</ele>
        <time>2024-05-12T08:45:17Z</time>
      </trkpt>
      <trkpt lat="42.86546" lon="1.18452">
        <ele>583.6</ele>
        <time>2024-05-12T08:45:18Z</time>
      </trkpt>
      <trkpt lat="42.86546" lon="1.18447">
        <ele>584</ele>
        <time>2024-05-12T08:45:20Z</time>
      </trkpt>
      <trkpt lat="42.86546" lon="1.18444">
        <ele>584.4</ele>
        <time>2024-05-12T08:45:21Z</time>
      </trkpt>
      <trkpt lat="42.86545" lon="1.18441">
        <ele>584.8</ele>
        <time>2024-05-12T08:45:22Z</time>
      </trkpt>
      <trkpt lat="42.86544" lon="1.18438">
        <ele>585.4</ele>
        <time>2024-05-12T08:45:23Z</time>
      </trkpt>
      <trkpt lat="42.86543" lon="1.18434">
        <ele>585.8</ele>
        <time>2024-05-12T08:45:24Z</time>
      </trkpt>
      <trkpt lat="42.86542" lon="1.18432">
        <ele>585.8</ele>
        <time>2024-05-12T08:45:25Z</time>
      </trkpt>
      <trkpt lat="42.8654" lon="1.18422">
        <ele>586.2</ele>
        <time>2024-05-12T08:45:29Z</time>
      </trkpt>
      <trkpt lat="42.86539" lon="1.18419">
        <ele>586.6</ele>
        <time>2024-05-12T08:45:30Z</time>
      </trkpt>
      <trkpt lat="42.86538" lon="1.18416">
        <ele>587</ele>
        <time>2024-05-12T08:45:31Z</time>
      </trkpt>
      <trkpt lat="42.86537" lon="1.18413">
        <ele>587.6</ele>
        <time>2024-05-12T08:45:32Z</time>
      </trkpt>
      <trkpt lat="42.86537" lon="1.18411">
        <ele>588</ele>
        <time>2024-05-12T08:45:33Z</time>
      </trkpt>
      <trkpt lat="42.86535" lon="1.18405">
        <ele>588</ele>
        <time>2024-05-12T08:45:35Z</time>
      </trkpt>
      <trkpt lat="42.86534" lon="1.18402">
        <ele>588.4</ele>
        <time>2024-05-12T08:45:36Z</time>
      </trkpt>
      <trkpt lat="42.86534" lon="1.18399">
        <ele>588.8</ele>
        <time>2024-05-12T08:45:37Z</time>
      </trkpt>
      <trkpt lat="42.86534" lon="1.18397">
        <ele>589.2</ele>
        <time>2024-05-12T08:45:38Z</time>
      </trkpt>
      <trkpt lat="42.86533" lon="1.18394">
        <ele>589.6</ele>
        <time>2024-05-12T08:45:39Z</time>
      </trkpt>
      <trkpt lat="42.86532" lon="1.18392">
        <ele>590</ele>
        <time>2024-05-12T08:45:40Z</time>
      </trkpt>
      <trkpt lat="42.8653" lon="1.18387">
        <ele>590</ele>
        <time>2024-05-12T08:45:42Z</time>
      </trkpt>
      <trkpt lat="42.86529" lon="1.18384">
        <ele>590.4</ele>
        <time>2024-05-12T08:45:43Z</time>
      </trkpt>
      <trkpt lat="42.86529" lon="1.18379">
        <ele>591</ele>
        <time>2024-05-12T08:45:44Z</time>
      </trkpt>
      <trkpt lat="42.86528" lon="1.18375">
        <ele>591.8</ele>
        <time>2024-05-12T08:45:45Z</time>
      </trkpt>
      <trkpt lat="42.86527" lon="1.18371">
        <ele>592.4</ele>
        <time>2024-05-12T08:45:46Z</time>
      </trkpt>
      <trkpt lat="42.86527" lon="1.18369">
        <ele>592.4</ele>
        <time>2024-05-12T08:45:47Z</time>
      </trkpt>
      <trkpt lat="42.86525" lon="1.18364">
        <ele>592.8</ele>
        <time>2024-05-12T08:45:49Z</time>
      </trkpt>
      <trkpt lat="42.86525" lon="1.18362">
        <ele>593.2</ele>
        <time>2024-05-12T08:45:50Z</time>
      </trkpt>
      <trkpt lat="42.86525" lon="1.18361">
        <ele>593.6</ele>
        <time>2024-05-12T08:45:51Z</time>
      </trkpt>
      <trkpt lat="42.86524" lon="1.1836">
        <ele>594</ele>
        <time>2024-05-12T08:45:52Z</time>
      </trkpt>
      <trkpt lat="42.86524" lon="1.18357">
        <ele>594.4</ele>
        <time>2024-05-12T08:45:53Z</time>
      </trkpt>
      <trkpt lat="42.86524" lon="1.18357">
        <ele>594.4</ele>
        <time>2024-05-12T08:45:54Z</time>
      </trkpt>
      <trkpt lat="42.86517" lon="1.18355">
        <ele>598.2</ele>
        <time>2024-05-12T08:46:15Z</time>
      </trkpt>
      <trkpt lat="42.86516" lon="1.18354">
        <ele>598.6</ele>
        <time>2024-05-12T08:46:16Z</time>
      </trkpt>
      <trkpt lat="42.86516" lon="1.18355">
        <ele>598.6</ele>
        <time>2024-05-12T08:46:17Z</time>
      </trkpt>
      <trkpt lat="42.86517" lon="1.1836">
        <ele>598.6</ele>
        <time>2024-05-12T08:46:20Z</time>
      </trkpt>
      <trkpt lat="42.86517" lon="1.18363">
        <ele>598.6</ele>
        <time>2024-05-12T08:46:21Z</time>
      </trkpt>
      <trkpt lat="42.86516" lon="1.1838">
        <ele>599.2</ele>
        <time>2024-05-12T08:46:26Z</time>
      </trkpt>
      <trkpt lat="42.86516" lon="1.18382">
        <ele>599.6</ele>
        <time>2024-05-12T08:46:27Z</time>
      </trkpt>
      <trkpt lat="42.86516" lon="1.18385">
        <ele>600</ele>
        <time>2024-05-12T08:46:28Z</time>
      </trkpt>
      <trkpt lat="42.86516" lon="1.18389">
        <ele>600.4</ele>
        <time>2024-05-12T08:46:29Z</time>
      </trkpt>
      <trkpt lat="42.86516" lon="1.18391">
        <ele>600.8</ele>
        <time>2024-05-12T08:46:30Z</time>
      </trkpt>
      <trkpt lat="42.86515" lon="1.18398">
        <ele>601.4</ele>
        <time>2024-05-12T08:46:33Z</time>
      </trkpt>
      <trkpt lat="42.86515" lon="1.18401">
        <ele>602.2</ele>
        <time>2024-05-12T08:46:34Z</time>
      </trkpt>
      <trkpt lat="42.86515" lon="1.18403">
        <ele>602.8</ele>
        <time>2024-05-12T08:46:35Z</time>
      </trkpt>
      <trkpt lat="42.86515" lon="1.18406">
        <ele>603.2</ele>
        <time>2024-05-12T08:46:36Z</time>
      </trkpt>
      <trkpt lat="42.86514" lon="1.18415">
        <ele>603.2</ele>
        <time>2024-05-12T08:46:40Z</time>
      </trkpt>
      <trkpt lat="42.86514" lon="1.18419">
        <ele>603.6</ele>
        <time>2024-05-12T08:46:42Z</time>
      </trkpt>
      <trkpt lat="42.86514" lon="1.18421">
        <ele>604</ele>
        <time>2024-05-12T08:46:43Z</time>
      </trkpt>
      <trkpt lat="42.86514" lon="1.18423">
        <ele>604.6</ele>
        <time>2024-05-12T08:46:44Z</time>
      </trkpt>
      <trkpt lat="42.86514" lon="1.18426">
        <ele>605</ele>
        <time>2024-05-12T08:46:45Z</time>
      </trkpt>
      <trkpt lat="42.86514" lon="1.18428">
        <ele>605.4</ele>
        <time>2024-05-12T08:46:46Z</time>
      </trkpt>
      <trkpt lat="42.86512" lon="1.18438">
        <ele>605.4</ele>
        <time>2024-05-12T08:46:51Z</time>
      </trkpt>
      <trkpt lat="42.86511" lon="1.1844">
        <ele>605.8</ele>
        <time>2024-05-12T08:46:52Z</time>
      </trkpt>
      <trkpt lat="42.86511" lon="1.18442">
        <ele>606.2</ele>
        <time>2024-05-12T08:46:53Z</time>
      </trkpt>
      <trkpt lat="42.8651" lon="1.18443">
        <ele>606.6</ele>
        <time>2024-05-12T08:46:54Z</time>
      </trkpt>
      <trkpt lat="42.86509" lon="1.18445">
        <ele>607</ele>
        <time>2024-05-12T08:46:55Z</time>
      </trkpt>
      <trkpt lat="42.86508" lon="1.18446">
        <ele>607.6</ele>
        <time>2024-05-12T08:46:56Z</time>
      </trkpt>
      <trkpt lat="42.86507" lon="1.18459">
        <ele>608</ele>
        <time>2024-05-12T08:47:01Z</time>
      </trkpt>
      <trkpt lat="42.86507" lon="1.18462">
        <ele>608.4</ele>
        <time>2024-05-12T08:47:02Z</time>
      </trkpt>
      <trkpt lat="42.86507" lon="1.18465">
        <ele>608.8</ele>
        <time>2024-05-12T08:47:03Z</time>
      </trkpt>
      <trkpt lat="42.86506" lon="1.18468">
        <ele>609.4</ele>
        <time>2024-05-12T08:47:04Z</time>
      </trkpt>
      <trkpt lat="42.86506" lon="1.18471">
        <ele>609.8</ele>
        <time>2024-05-12T08:47:05Z</time>
      </trkpt>
      <trkpt lat="42.86505" lon="1.18477">
        <ele>609.8</ele>
        <time>2024-05-12T08:47:07Z</time>
      </trkpt>
      <trkpt lat="42.86503" lon="1.18482">
        <ele>610.2</ele>
        <time>2024-05-12T08:47:09Z</time>
      </trkpt>
      <trkpt lat="42.86502" lon="1.18484">
        <ele>610.6</ele>
        <time>2024-05-12T08:47:10Z</time>
      </trkpt>
      <trkpt lat="42.86502" lon="1.18486">
        <ele>611</ele>
        <time>2024-05-12T08:47:11Z</time>
      </trkpt>
      <trkpt lat="42.86501" lon="1.18489">
        <ele>611.4</ele>
        <time>2024-05-12T08:47:12Z</time>
      </trkpt>
      <trkpt lat="42.86501" lon="1.1849">
        <ele>611.8</ele>
        <time>2024-05-12T08:47:13Z</time>
      </trkpt>
      <trkpt lat="42.86498" lon="1.18502">
        <ele>612.2</ele>
        <time>2024-05-12T08:47:17Z</time>
      </trkpt>
      <trkpt lat="42.86497" lon="1.18505">
        <ele>612.6</ele>
        <time>2024-05-12T08:47:18Z</time>
      </trkpt>
      <trkpt lat="42.86496" lon="1.18508">
        <ele>613</ele>
        <time>2024-05-12T08:47:19Z</time>
      </trkpt>
      <trkpt lat="42.86496" lon="1.1851">
        <ele>613.6</ele>
        <time>2024-05-12T08:47:20Z</time>
      </trkpt>
      <trkpt lat="42.86495" lon="1.18513">
        <ele>614</ele>
        <time>2024-05-12T08:47:21Z</time>
      </trkpt>
      <trkpt lat="42.86494" lon="1.18519">
        <ele>614</ele>
        <time>2024-05-12T08:47:23Z</time>
      </trkpt>
      <trkpt lat="42.86493" lon="1.18521">
        <ele>614.4</ele>
        <time>2024-05-12T08:47:24Z</time>
      </trkpt>
      <trkpt lat="42.86492" lon="1.18522">
        <ele>614.8</ele>
        <time>2024-05-12T08:47:25Z</time>
      </trkpt>
      <trkpt lat="42.86491" lon="1.18523">
        <ele>615.2</ele>
        <time>2024-05-12T08:47:26Z</time>
      </trkpt>
      <trkpt lat="42.86489" lon="1.18524">
        <ele>615.6</ele>
        <time>2024-05-12T08:47:27Z</time>
      </trkpt>
      <trkpt lat="42.86488" lon="1.18523">
        <ele>616.2</ele>
        <time>2024-05-12T08:47:28Z</time>
      </trkpt>
      <trkpt lat="42.86488" lon="1.18522">
        <ele>616.2</ele>
        <time>2024-05-12T08:47:29Z</time>
      </trkpt>
      <trkpt lat="42.8649" lon="1.18514">
        <ele>616.6</ele>
        <time>2024-05-12T08:47:33Z</time>
      </trkpt>
      <trkpt lat="42.86492" lon="1.18513">
        <ele>617</ele>
        <time>2024-05-12T08:47:34Z</time>
      </trkpt>
      <trkpt lat="42.86493" lon="1.18512">
        <ele>617.4</ele>
        <time>2024-05-12T08:47:35Z</time>
      </trkpt>
      <trkpt lat="42.86493" lon="1.1851">
        <ele>617.8</ele>
        <time>2024-05-12T08:47:36Z</time>
      </trkpt>
      <trkpt lat="42.86493" lon="1.18508">
        <ele>618.2</ele>
        <time>2024-05-12T08:47:37Z</time>
      </trkpt>
      <trkpt lat="42.86492" lon="1.18504">
        <ele>618.2</ele>
        <time>2024-05-12T08:47:39Z</time>
      </trkpt>
      <trkpt lat="42.86492" lon="1.18498">
        <ele>618.2</ele>
        <time>2024-05-12T08:47:42Z</time>
      </trkpt>
      <trkpt lat="42.86491" lon="1.18496">
        <ele>618.2</ele>
        <time>2024-05-12T08:47:43Z</time>
      </trkpt>
      <trkpt lat="42.86491" lon="1.18494">
        <ele>618.6</ele>
        <time>2024-05-12T08:47:44Z</time>
      </trkpt>
      <trkpt lat="42.8649" lon="1.18493">
        <ele>619</ele>
        <time>2024-05-12T08:47:45Z</time>
      </trkpt>
      <trkpt lat="42.86489" lon="1.18492">
        <ele>619.4</ele>
        <time>2024-05-12T08:47:46Z</time>
      </trkpt>
      <trkpt lat="42.86489" lon="1.18492">
        <ele>619.8</ele>
        <time>2024-05-12T08:47:47Z</time>
      </trkpt>
      <trkpt lat="42.8649" lon="1.18484">
        <ele>620.2</ele>
        <time>2024-05-12T08:47:51Z</time>
      </trkpt>
      <trkpt lat="42.8649" lon="1.1847">
        <ele>620.8</ele>
        <time>2024-05-12T08:47:56Z</time>
      </trkpt>
      <trkpt lat="42.86489" lon="1.18469">
        <ele>621.2</ele>
        <time>2024-05-12T08:47:57Z</time>
      </trkpt>
      <trkpt lat="42.86489" lon="1.18466">
        <ele>621.6</ele>
        <time>2024-05-12T08:47:58Z</time>
      </trkpt>
      <trkpt lat="42.86488" lon="1.18464">
        <ele>622</ele>
        <time>2024-05-12T08:47:59Z</time>
      </trkpt>
      <trkpt lat="42.86487" lon="1.18461">
        <ele>622.4</ele>
        <time>2024-05-12T08:48:00Z</time>
      </trkpt>
      <trkpt lat="42.86482" lon="1.18443">
        <ele>622.4</ele>
        <time>2024-05-12T08:48:05Z</time>
      </trkpt>
      <trkpt lat="42.86481" lon="1.18439">
        <ele>622.8</ele>
        <time>2024-05-12T08:48:06Z</time>
      </trkpt>
      <trkpt lat="42.8648" lon="1.18435">
        <ele>623.2</ele>
        <time>2024-05-12T08:48:07Z</time>
      </trkpt>
      <trkpt lat="42.8648" lon="1.18431">
        <ele>623.6</ele>
        <time>2024-05-12T08:48:08Z</time>
      </trkpt>
      <trkpt lat="42.8648" lon="1.18428">
        <ele>624</ele>
        <time>2024-05-12T08:48:09Z</time>
      </trkpt>
      <trkpt lat="42.8648" lon="1.18424">
        <ele>624.4</ele>
        <time>2024-05-12T08:48:10Z</time>
      </trkpt>
      <trkpt lat="42.8648" lon="1.18421">
        <ele>624.4</ele>
        <time>2024-05-12T08:48:11Z</time>
      </trkpt>
      <trkpt lat="42.86479" lon="1.18407">
        <ele>624.8</ele>
        <time>2024-05-12T08:48:16Z</time>
      </trkpt>
      <trkpt lat="42.86478" lon="1.18404">
        <ele>625.4</ele>
        <time>2024-05-12T08:48:17Z</time>
      </trkpt>
      <trkpt lat="42.86477" lon="1.184">
        <ele>625.8</ele>
        <time>2024-05-12T08:48:18Z</time>
      </trkpt>
      <trkpt lat="42.86477" lon="1.18397">
        <ele>626.2</ele>
        <time>2024-05-12T08:48:19Z</time>
      </trkpt>
      <trkpt lat="42.86477" lon="1.18394">
        <ele>626.6</ele>
        <time>2024-05-12T08:48:20Z</time>
      </trkpt>
      <trkpt lat="42.86477" lon="1.18388">
        <ele>626.6</ele>
        <time>2024-05-12T08:48:22Z</time>
      </trkpt>
      <trkpt lat="42.86478" lon="1.18386">
        <ele>626.6</ele>
        <time>2024-05-12T08:48:23Z</time>
      </trkpt>
      <trkpt lat="42.86478" lon="1.18378">
        <ele>627</ele>
        <time>2024-05-12T08:48:25Z</time>
      </trkpt>
      <trkpt lat="42.86478" lon="1.18375">
        <ele>627.4</ele>
        <time>2024-05-12T08:48:26Z</time>
      </trkpt>
      <trkpt lat="42.86477" lon="1.18371">
        <ele>628</ele>
        <time>2024-05-12T08:48:27Z</time>
      </trkpt>
      <trkpt lat="42.86476" lon="1.18367">
        <ele>628.4</ele>
        <time>2024-05-12T08:48:28Z</time>
      </trkpt>
      <trkpt lat="42.86476" lon="1.18365">
        <ele>628.8</ele>
        <time>2024-05-12T08:48:29Z</time>
      </trkpt>
      <trkpt lat="42.86475" lon="1.18351">
        <ele>629.2</ele>
        <time>2024-05-12T08:48:34Z</time>
      </trkpt>
      <trkpt lat="42.86474" lon="1.18348">
        <ele>629.6</ele>
        <time>2024-05-12T08:48:35Z</time>
      </trkpt>
      <trkpt lat="42.86474" lon="1.18346">
        <ele>630</ele>
        <time>2024-05-12T08:48:36Z</time>
      </trkpt>
      <trkpt lat="42.86475" lon="1.18341">
        <ele>630.4</ele>
        <time>2024-05-12T08:48:37Z</time>
      </trkpt>
      <trkpt lat="42.86475" lon="1.18337">
        <ele>630.8</ele>
        <time>2024-05-12T08:48:38Z</time>
      </trkpt>
      <trkpt lat="42.86475" lon="1.18333">
        <ele>630.8</ele>
        <time>2024-05-12T08:48:39Z</time>
      </trkpt>
      <trkpt lat="42.86475" lon="1.18325">
        <ele>631.2</ele>
        <time>2024-05-12T08:48:41Z</time>
      </trkpt>
      <trkpt lat="42.86476" lon="1.18321">
        <ele>631.8</ele>
        <time>2024-05-12T08:48:42Z</time>
      </trkpt>
      <trkpt lat="42.86475" lon="1.18317">
        <ele>632.2</ele>
        <time>2024-05-12T08:48:43Z</time>
      </trkpt>
      <trkpt lat="42.86475" lon="1.18314">
        <ele>632.6</ele>
        <time>2024-05-12T08:48:44Z</time>
      </trkpt>
      <trkpt lat="42.86475" lon="1.18311">
        <ele>633</ele>
        <time>2024-05-12T08:48:45Z</time>
      </trkpt>
      <trkpt lat="42.86474" lon="1.18297">
        <ele>633.4</ele>
        <time>2024-05-12T08:48:49Z</time>
      </trkpt>
      <trkpt lat="42.86474" lon="1.18294">
        <ele>633.8</ele>
        <time>2024-05-12T08:48:50Z</time>
      </trkpt>
      <trkpt lat="42.86473" lon="1.18292">
        <ele>634.4</ele>
        <time>2024-05-12T08:48:51Z</time>
      </trkpt>
      <trkpt lat="42.86472" lon="1.18289">
        <ele>634.8</ele>
        <time>2024-05-12T08:48:52Z</time>
      </trkpt>
      <trkpt lat="42.8647" lon="1.18285">
        <ele>635.2</ele>
        <time>2024-05-12T08:48:53Z</time>
      </trkpt>
      <trkpt lat="42.86465" lon="1.18276">
        <ele>635.6</ele>
        <time>2024-05-12T08:48:56Z</time>
      </trkpt>
      <trkpt lat="42.86463" lon="1.18273">
        <ele>636</ele>
        <time>2024-05-12T08:48:57Z</time>
      </trkpt>
      <trkpt lat="42.86461" lon="1.18272">
        <ele>636.4</ele>
        <time>2024-05-12T08:48:58Z</time>
      </trkpt>
      <trkpt lat="42.86459" lon="1.18269">
        <ele>637</ele>
        <time>2024-05-12T08:48:59Z</time>
      </trkpt>
      <trkpt lat="42.86456" lon="1.18267">
        <ele>637.4</ele>
        <time>2024-05-12T08:49:00Z</time>
      </trkpt>
      <trkpt lat="42.86455" lon="1.18265">
        <ele>637.4</ele>
        <time>2024-05-12T08:49:01Z</time>
      </trkpt>
      <trkpt lat="42.86452" lon="1.1826">
        <ele>637.8</ele>
        <time>2024-05-12T08:49:03Z</time>
      </trkpt>
      <trkpt lat="42.86451" lon="1.18258">
        <ele>638.2</ele>
        <time>2024-05-12T08:49:04Z</time>
      </trkpt>
      <trkpt lat="42.86449" lon="1.18256">
        <ele>638.8</ele>
        <time>2024-05-12T08:49:05Z</time>
      </trkpt>
      <trkpt lat="42.86448" lon="1.18254">
        <ele>639.2</ele>
        <time>2024-05-12T08:49:06Z</time>
      </trkpt>
      <trkpt lat="42.86447" lon="1.18252">
        <ele>639.6</ele>
        <time>2024-05-12T08:49:07Z</time>
      </trkpt>
      <trkpt lat="42.86445" lon="1.18249">
        <ele>639.6</ele>
        <time>2024-05-12T08:49:08Z</time>
      </trkpt>
      <trkpt lat="42.86441" lon="1.18241">
        <ele>640</ele>
        <time>2024-05-12T08:49:11Z</time>
      </trkpt>
      <trkpt lat="42.86439" lon="1.18237">
        <ele>640.6</ele>
        <time>2024-05-12T08:49:12Z</time>
      </trkpt>
      <trkpt lat="42.86437" lon="1.18233">
        <ele>641</ele>
        <time>2024-05-12T08:49:13Z</time>
      </trkpt>
      <trkpt lat="42.86435" lon="1.1823">
        <ele>641.4</ele>
        <time>2024-05-12T08:49:14Z</time>
      </trkpt>
      <trkpt lat="42.86434" lon="1.18227">
        <ele>642</ele>
        <time>2024-05-12T08:49:15Z</time>
      </trkpt>
      <trkpt lat="42.86432" lon="1.18222">
        <ele>642</ele>
        <time>2024-05-12T08:49:17Z</time>
      </trkpt>
      <trkpt lat="42.86432" lon="1.1822">
        <ele>642</ele>
        <time>2024-05-12T08:49:18Z</time>
      </trkpt>
      <trkpt lat="42.86431" lon="1.18216">
        <ele>642.4</ele>
        <time>2024-05-12T08:49:19Z</time>
      </trkpt>
      <trkpt lat="42.8643" lon="1.18212">
        <ele>642.8</ele>
        <time>2024-05-12T08:49:20Z</time>
      </trkpt>
      <trkpt lat="42.86429" lon="1.18209">
        <ele>643.2</ele>
        <time>2024-05-12T08:49:21Z</time>
      </trkpt>
      <trkpt lat="42.86428" lon="1.18207">
        <ele>643.6</ele>
        <time>2024-05-12T08:49:22Z</time>
      </trkpt>
      <trkpt lat="42.86428" lon="1.18203">
        <ele>644</ele>
        <time>2024-05-12T08:49:23Z</time>
      </trkpt>
      <trkpt lat="42.86427" lon="1.182">
        <ele>644</ele>
        <time>2024-05-12T08:49:24Z</time>
      </trkpt>
      <trkpt lat="42.86425" lon="1.18194">
        <ele>644.6</ele>
        <time>2024-05-12T08:49:26Z</time>
      </trkpt>
      <trkpt lat="42.86423" lon="1.18191">
        <ele>645</ele>
        <time>2024-05-12T08:49:27Z</time>
      </trkpt>
      <trkpt lat="42.86422" lon="1.18188">
        <ele>645.8</ele>
        <time>2024-05-12T08:49:28Z</time>
      </trkpt>
      <trkpt lat="42.86421" lon="1.18185">
        <ele>646.2</ele>
        <time>2024-05-12T08:49:29Z</time>
      </trkpt>
      <trkpt lat="42.86419" lon="1.18178">
        <ele>646.2</ele>
        <time>2024-05-12T08:49:31Z</time>
      </trkpt>
      <trkpt lat="42.86418" lon="1.18176">
        <ele>646.6</ele>
        <time>2024-05-12T08:49:32Z</time>
      </trkpt>
      <trkpt lat="42.86417" lon="1.18172">
        <ele>647</ele>
        <time>2024-05-12T08:49:33Z</time>
      </trkpt>
      <trkpt lat="42.86416" lon="1.1817">
        <ele>647.4</ele>
        <time>2024-05-12T08:49:34Z</time>
      </trkpt>
      <trkpt lat="42.86415" lon="1.18167">
        <ele>647.8</ele>
        <time>2024-05-12T08:49:35Z</time>
      </trkpt>
      <trkpt lat="42.86414" lon="1.18164">
        <ele>648.2</ele>
        <time>2024-05-12T08:49:36Z</time>
      </trkpt>
      <trkpt lat="42.86413" lon="1.18161">
        <ele>648.2</ele>
        <time>2024-05-12T08:49:37Z</time>
      </trkpt>
      <trkpt lat="42.86412" lon="1.18154">
        <ele>648.6</ele>
        <time>2024-05-12T08:49:40Z</time>
      </trkpt>
      <trkpt lat="42.86411" lon="1.18152">
        <ele>649</ele>
        <time>2024-05-12T08:49:41Z</time>
      </trkpt>
      <trkpt lat="42.8641" lon="1.18149">
        <ele>649.4</ele>
        <time>2024-05-12T08:49:42Z</time>
      </trkpt>
      <trkpt lat="42.86409" lon="1.18147">
        <ele>649.8</ele>
        <time>2024-05-12T08:49:43Z</time>
      </trkpt>
      <trkpt lat="42.86409" lon="1.18144">
        <ele>650.2</ele>
        <time>2024-05-12T08:49:44Z</time>
      </trkpt>
      <trkpt lat="42.86407" lon="1.18134">
        <ele>650.8</ele>
        <time>2024-05-12T08:49:48Z</time>
      </trkpt>
      <trkpt lat="42.86406" lon="1.18131">
        <ele>651.2</ele>
        <time>2024-05-12T08:49:49Z</time>
      </trkpt>
      <trkpt lat="42.86405" lon="1.18129">
        <ele>651.6</ele>
        <time>2024-05-12T08:49:50Z</time>
      </trkpt>
      <trkpt lat="42.86405" lon="1.18127">
        <ele>652.2</ele>
        <time>2024-05-12T08:49:51Z</time>
      </trkpt>
      <trkpt lat="42.86404" lon="1.18125">
        <ele>652.6</ele>
        <time>2024-05-12T08:49:52Z</time>
      </trkpt>
      <trkpt lat="42.86404" lon="1.18123">
        <ele>652.6</ele>
        <time>2024-05-12T08:49:53Z</time>
      </trkpt>
      <trkpt lat="42.86403" lon="1.18121">
        <ele>652.6</ele>
        <time>2024-05-12T08:49:54Z</time>
      </trkpt>
      <trkpt lat="42.86403" lon="1.18119">
        <ele>653</ele>
        <time>2024-05-12T08:49:55Z</time>
      </trkpt>
      <trkpt lat="42.86402" lon="1.18116">
        <ele>653.4</ele>
        <time>2024-05-12T08:49:56Z</time>
      </trkpt>
      <trkpt lat="42.86401" lon="1.18114">
        <ele>654</ele>
        <time>2024-05-12T08:49:57Z</time>
      </trkpt>
      <trkpt lat="42.864" lon="1.18111">
        <ele>654.4</ele>
        <time>2024-05-12T08:49:58Z</time>
      </trkpt>
      <trkpt lat="42.86399" lon="1.18108">
        <ele>654.8</ele>
        <time>2024-05-12T08:49:59Z</time>
      </trkpt>
      <trkpt lat="42.86398" lon="1.18105">
        <ele>654.8</ele>
        <time>2024-05-12T08:50:00Z</time>
      </trkpt>
      <trkpt lat="42.86396" lon="1.18097">
        <ele>655.2</ele>
        <time>2024-05-12T08:50:03Z</time>
      </trkpt>
      <trkpt lat="42.86396" lon="1.18094">
        <ele>655.8</ele>
        <time>2024-05-12T08:50:04Z</time>
      </trkpt>
      <trkpt lat="42.86395" lon="1.18091">
        <ele>656.2</ele>
        <time>2024-05-12T08:50:05Z</time>
      </trkpt>
      <trkpt lat="42.86394" lon="1.18089">
        <ele>656.6</ele>
        <time>2024-05-12T08:50:06Z</time>
      </trkpt>
      <trkpt lat="42.86393" lon="1.18087">
        <ele>657</ele>
        <time>2024-05-12T08:50:07Z</time>
      </trkpt>
      <trkpt lat="42.86389" lon="1.18077">
        <ele>657.4</ele>
        <time>2024-05-12T08:50:11Z</time>
      </trkpt>
      <trkpt lat="42.86388" lon="1.18074">
        <ele>658</ele>
        <time>2024-05-12T08:50:12Z</time>
      </trkpt>
      <trkpt lat="42.86387" lon="1.18071">
        <ele>658.4</ele>
        <time>2024-05-12T08:50:13Z</time>
      </trkpt>
      <trkpt lat="42.86386" lon="1.18068">
        <ele>658.8</ele>
        <time>2024-05-12T08:50:14Z</time>
      </trkpt>
      <trkpt lat="42.86384" lon="1.18065">
        <ele>659.4</ele>
        <time>2024-05-12T08:50:15Z</time>
      </trkpt>
      <trkpt lat="42.8638" lon="1.18058">
        <ele>659.8</ele>
        <time>2024-05-12T08:50:18Z</time>
      </trkpt>
      <trkpt lat="42.86379" lon="1.18055">
        <ele>660.2</ele>
        <time>2024-05-12T08:50:19Z</time>
      </trkpt>
      <trkpt lat="42.86378" lon="1.18053">
        <ele>660.8</ele>
        <time>2024-05-12T08:50:20Z</time>
      </trkpt>
      <trkpt lat="42.86378" lon="1.18051">
        <ele>661.2</ele>
        <time>2024-05-12T08:50:21Z</time>
      </trkpt>
      <trkpt lat="42.86376" lon="1.18048">
        <ele>661.6</ele>
        <time>2024-05-12T08:50:22Z</time>
      </trkpt>
      <trkpt lat="42.86373" lon="1.18045">
        <ele>661.6</ele>
        <time>2024-05-12T08:50:24Z</time>
      </trkpt>
      <trkpt lat="42.86372" lon="1.18044">
        <ele>662</ele>
        <time>2024-05-12T08:50:25Z</time>
      </trkpt>
      <trkpt lat="42.8637" lon="1.18041">
        <ele>662.6</ele>
        <time>2024-05-12T08:50:26Z</time>
      </trkpt>
      <trkpt lat="42.86367" lon="1.18039">
        <ele>663</ele>
        <time>2024-05-12T08:50:27Z</time>
      </trkpt>
      <trkpt lat="42.86365" lon="1.18038">
        <ele>663.4</ele>
        <time>2024-05-12T08:50:28Z</time>
      </trkpt>
      <trkpt lat="42.86364" lon="1.18037">
        <ele>663.8</ele>
        <time>2024-05-12T08:50:29Z</time>
      </trkpt>
      <trkpt lat="42.86358" lon="1.18032">
        <ele>664.2</ele>
        <time>2024-05-12T08:50:32Z</time>
      </trkpt>
      <trkpt lat="42.86357" lon="1.1803">
        <ele>664.6</ele>
        <time>2024-05-12T08:50:33Z</time>
      </trkpt>
      <trkpt lat="42.86356" lon="1.18027">
        <ele>665</ele>
        <time>2024-05-12T08:50:34Z</time>
      </trkpt>
      <trkpt lat="42.86356" lon="1.18026">
        <ele>665.4</ele>
        <time>2024-05-12T08:50:35Z</time>
      </trkpt>
      <trkpt lat="42.86353" lon="1.18025">
        <ele>665.8</ele>
        <time>2024-05-12T08:50:36Z</time>
      </trkpt>
      <trkpt lat="42.86347" lon="1.18019">
        <ele>665.8</ele>
        <time>2024-05-12T08:50:39Z</time>
      </trkpt>
      <trkpt lat="42.86345" lon="1.18016">
        <ele>666.2</ele>
        <time>2024-05-12T08:50:40Z</time>
      </trkpt>
      <trkpt lat="42.86344" lon="1.18014">
        <ele>666.6</ele>
        <time>2024-05-12T08:50:41Z</time>
      </trkpt>
      <trkpt lat="42.86342" lon="1.18011">
        <ele>667.6</ele>
        <time>2024-05-12T08:50:42Z</time>
      </trkpt>
      <trkpt lat="42.8634" lon="1.18008">
        <ele>668</ele>
        <time>2024-05-12T08:50:43Z</time>
      </trkpt>
      <trkpt lat="42.86337" lon="1.18006">
        <ele>668</ele>
        <time>2024-05-12T08:50:45Z</time>
      </trkpt>
      <trkpt lat="42.86336" lon="1.18005">
        <ele>668.4</ele>
        <time>2024-05-12T08:50:46Z</time>
      </trkpt>
      <trkpt lat="42.86335" lon="1.18003">
        <ele>668.8</ele>
        <time>2024-05-12T08:50:47Z</time>
      </trkpt>
      <trkpt lat="42.86334" lon="1.18001">
        <ele>669.4</ele>
        <time>2024-05-12T08:50:48Z</time>
      </trkpt>
      <trkpt lat="42.86333" lon="1.17999">
        <ele>669.8</ele>
        <time>2024-05-12T08:50:49Z</time>
      </trkpt>
      <trkpt lat="42.86332" lon="1.17998">
        <ele>670.2</ele>
        <time>2024-05-12T08:50:50Z</time>
      </trkpt>
      <trkpt lat="42.8633" lon="1.17996">
        <ele>670.2</ele>
        <time>2024-05-12T08:50:51Z</time>
      </trkpt>
      <trkpt lat="42.86327" lon="1.17993">
        <ele>670.2</ele>
        <time>2024-05-12T08:50:53Z</time>
      </trkpt>
      <trkpt lat="42.86325" lon="1.17991">
        <ele>670.6</ele>
        <time>2024-05-12T08:50:54Z</time>
      </trkpt>
      <trkpt lat="42.86323" lon="1.17989">
        <ele>671</ele>
        <time>2024-05-12T08:50:55Z</time>
      </trkpt>
      <trkpt lat="42.86321" lon="1.17987">
        <ele>671.4</ele>
        <time>2024-05-12T08:50:56Z</time>
      </trkpt>
      <trkpt lat="42.86319" lon="1.17985">
        <ele>672</ele>
        <time>2024-05-12T08:50:57Z</time>
      </trkpt>
      <trkpt lat="42.86317" lon="1.17982">
        <ele>672.4</ele>
        <time>2024-05-12T08:50:58Z</time>
      </trkpt>
      <trkpt lat="42.86314" lon="1.17975">
        <ele>672.8</ele>
        <time>2024-05-12T08:51:01Z</time>
      </trkpt>
      <trkpt lat="42.86311" lon="1.17973">
        <ele>673.2</ele>
        <time>2024-05-12T08:51:02Z</time>
      </trkpt>
      <trkpt lat="42.86309" lon="1.17971">
        <ele>673.6</ele>
        <time>2024-05-12T08:51:03Z</time>
      </trkpt>
      <trkpt lat="42.86308" lon="1.17969">
        <ele>674</ele>
        <time>2024-05-12T08:51:04Z</time>
      </trkpt>
      <trkpt lat="42.86306" lon="1.17967">
        <ele>674.4</ele>
        <time>2024-05-12T08:51:05Z</time>
      </trkpt>
      <trkpt lat="42.863" lon="1.17961">
        <ele>674.8</ele>
        <time>2024-05-12T08:51:08Z</time>
      </trkpt>
      <trkpt lat="42.86298" lon="1.17959">
        <ele>675.4</ele>
        <time>2024-05-12T08:51:09Z</time>
      </trkpt>
      <trkpt lat="42.86297" lon="1.17957">
        <ele>675.8</ele>
        <time>2024-05-12T08:51:10Z</time>
      </trkpt>
      <trkpt lat="42.86295" lon="1.17955">
        <ele>676.2</ele>
        <time>2024-05-12T08:51:11Z</time>
      </trkpt>
      <trkpt lat="42.86293" lon="1.17953">
        <ele>676.6</ele>
        <time>2024-05-12T08:51:12Z</time>
      </trkpt>
      <trkpt lat="42.8629" lon="1.17947">
        <ele>676.6</ele>
        <time>2024-05-12T08:51:14Z</time>
      </trkpt>
      <trkpt lat="42.86288" lon="1.17944">
        <ele>677.2</ele>
        <time>2024-05-12T08:51:15Z</time>
      </trkpt>
      <trkpt lat="42.86288" lon="1.17941">
        <ele>677.6</ele>
        <time>2024-05-12T08:51:16Z</time>
      </trkpt>
      <trkpt lat="42.86287" lon="1.1794">
        <ele>678</ele>
        <time>2024-05-12T08:51:17Z</time>
      </trkpt>
      <trkpt lat="42.86285" lon="1.17937">
        <ele>678.6</ele>
        <time>2024-05-12T08:51:18Z</time>
      </trkpt>
      <trkpt lat="42.86284" lon="1.17935">
        <ele>679</ele>
        <time>2024-05-12T08:51:19Z</time>
      </trkpt>
      <trkpt lat="42.86282" lon="1.17932">
        <ele>679</ele>
        <time>2024-05-12T08:51:20Z</time>
      </trkpt>
      <trkpt lat="42.86277" lon="1.17926">
        <ele>679.4</ele>
        <time>2024-05-12T08:51:23Z</time>
      </trkpt>
      <trkpt lat="42.86274" lon="1.17923">
        <ele>679.8</ele>
        <time>2024-05-12T08:51:24Z</time>
      </trkpt>
      <trkpt lat="42.86272" lon="1.17921">
        <ele>680.2</ele>
        <time>2024-05-12T08:51:25Z</time>
      </trkpt>
      <trkpt lat="42.86269" lon="1.17918">
        <ele>680.6</ele>
        <time>2024-05-12T08:51:26Z</time>
      </trkpt>
      <trkpt lat="42.86267" lon="1.17916">
        <ele>681</ele>
        <time>2024-05-12T08:51:27Z</time>
      </trkpt>
      <trkpt lat="42.86258" lon="1.1791">
        <ele>682</ele>
        <time>2024-05-12T08:51:31Z</time>
      </trkpt>
      <trkpt lat="42.86256" lon="1.17909">
        <ele>682.4</ele>
        <time>2024-05-12T08:51:32Z</time>
      </trkpt>
      <trkpt lat="42.86254" lon="1.17907">
        <ele>682.8</ele>
        <time>2024-05-12T08:51:33Z</time>
      </trkpt>
      <trkpt lat="42.86252" lon="1.17904">
        <ele>683.2</ele>
        <time>2024-05-12T08:51:34Z</time>
      </trkpt>
      <trkpt lat="42.86251" lon="1.17902">
        <ele>683.2</ele>
        <time>2024-05-12T08:51:35Z</time>
      </trkpt>
      <trkpt lat="42.86249" lon="1.17899">
        <ele>683.2</ele>
        <time>2024-05-12T08:51:37Z</time>
      </trkpt>
      <trkpt lat="42.86247" lon="1.17896">
        <ele>683.6</ele>
        <time>2024-05-12T08:51:38Z</time>
      </trkpt>
      <trkpt lat="42.86246" lon="1.17892">
        <ele>684</ele>
        <time>2024-05-12T08:51:39Z</time>
      </trkpt>
      <trkpt lat="42.86244" lon="1.1789">
        <ele>684.4</ele>
        <time>2024-05-12T08:51:40Z</time>
      </trkpt>
      <trkpt lat="42.86243" lon="1.17888">
        <ele>685</ele>
        <time>2024-05-12T08:51:41Z</time>
      </trkpt>
      <trkpt lat="42.86241" lon="1.17886">
        <ele>685.4</ele>
        <time>2024-05-12T08:51:42Z</time>
      </trkpt>
      <trkpt lat="42.86239" lon="1.17884">
        <ele>685.4</ele>
        <time>2024-05-12T08:51:43Z</time>
      </trkpt>
      <trkpt lat="42.86233" lon="1.17878">
        <ele>685.8</ele>
        <time>2024-05-12T08:51:46Z</time>
      </trkpt>
      <trkpt lat="42.86232" lon="1.17876">
        <ele>686.2</ele>
        <time>2024-05-12T08:51:47Z</time>
      </trkpt>
      <trkpt lat="42.86231" lon="1.17874">
        <ele>686.6</ele>
        <time>2024-05-12T08:51:48Z</time>
      </trkpt>
      <trkpt lat="42.8623" lon="1.17872">
        <ele>687</ele>
        <time>2024-05-12T08:51:49Z</time>
      </trkpt>
      <trkpt lat="42.86229" lon="1.17869">
        <ele>687.4</ele>
        <time>2024-05-12T08:51:50Z</time>
      </trkpt>
      <trkpt lat="42.86224" lon="1.17863">
        <ele>687.4</ele>
        <time>2024-05-12T08:51:53Z</time>
      </trkpt>
      <trkpt lat="42.86223" lon="1.17861">
        <ele>687.4</ele>
        <time>2024-05-12T08:51:54Z</time>
      </trkpt>
      <trkpt lat="42.8622" lon="1.17857">
        <ele>688.2</ele>
        <time>2024-05-12T08:51:56Z</time>
      </trkpt>
      <trkpt lat="42.86219" lon="1.17855">
        <ele>688.8</ele>
        <time>2024-05-12T08:51:57Z</time>
      </trkpt>
      <trkpt lat="42.86217" lon="1.17854">
        <ele>689.2</ele>
        <time>2024-05-12T08:51:58Z</time>
      </trkpt>
      <trkpt lat="42.86215" lon="1.17853">
        <ele>689.6</ele>
        <time>2024-05-12T08:51:59Z</time>
      </trkpt>
      <trkpt lat="42.86211" lon="1.1785">
        <ele>689.6</ele>
        <time>2024-05-12T08:52:01Z</time>
      </trkpt>
      <trkpt lat="42.86208" lon="1.17848">
        <ele>690</ele>
        <time>2024-05-12T08:52:02Z</time>
      </trkpt>
      <trkpt lat="42.86206" lon="1.17846">
        <ele>690.4</ele>
        <time>2024-05-12T08:52:03Z</time>
      </trkpt>
      <trkpt lat="42.86204" lon="1.17844">
        <ele>690.8</ele>
        <time>2024-05-12T08:52:04Z</time>
      </trkpt>
      <trkpt lat="42.86202" lon="1.17843">
        <ele>691.4</ele>
        <time>2024-05-12T08:52:05Z</time>
      </trkpt>
      <trkpt lat="42.862" lon="1.17842">
        <ele>691.8</ele>
        <time>2024-05-12T08:52:06Z</time>
      </trkpt>
      <trkpt lat="42.86199" lon="1.17841">
        <ele>691.8</ele>
        <time>2024-05-12T08:52:07Z</time>
      </trkpt>
      <trkpt lat="42.86195" lon="1.17837">
        <ele>692.2</ele>
        <time>2024-05-12T08:52:10Z</time>
      </trkpt>
      <trkpt lat="42.86194" lon="1.17836">
        <ele>692.6</ele>
        <time>2024-05-12T08:52:11Z</time>
      </trkpt>
      <trkpt lat="42.86193" lon="1.17833">
        <ele>693</ele>
        <time>2024-05-12T08:52:12Z</time>
      </trkpt>
      <trkpt lat="42.86192" lon="1.17831">
        <ele>693.4</ele>
        <time>2024-05-12T08:52:13Z</time>
      </trkpt>
      <trkpt lat="42.86191" lon="1.1783">
        <ele>693.8</ele>
        <time>2024-05-12T08:52:14Z</time>
      </trkpt>
      <trkpt lat="42.86185" lon="1.17824">
        <ele>693.8</ele>
        <time>2024-05-12T08:52:18Z</time>
      </trkpt>
      <trkpt lat="42.8618" lon="1.17822">
        <ele>694.2</ele>
        <time>2024-05-12T08:52:20Z</time>
      </trkpt>
      <trkpt lat="42.86178" lon="1.1782">
        <ele>695</ele>
        <time>2024-05-12T08:52:21Z</time>
      </trkpt>
      <trkpt lat="42.86175" lon="1.17819">
        <ele>695.6</ele>
        <time>2024-05-12T08:52:22Z</time>
      </trkpt>
      <trkpt lat="42.86173" lon="1.17817">
        <ele>696</ele>
        <time>2024-05-12T08:52:23Z</time>
      </trkpt>
      <trkpt lat="42.86166" lon="1.17814">
        <ele>696</ele>
        <time>2024-05-12T08:52:25Z</time>
      </trkpt>
      <trkpt lat="42.86155" lon="1.17808">
        <ele>696</ele>
        <time>2024-05-12T08:52:30Z</time>
      </trkpt>
      <trkpt lat="42.86153" lon="1.17807">
        <ele>696.4</ele>
        <time>2024-05-12T08:52:31Z</time>
      </trkpt>
      <trkpt lat="42.86151" lon="1.17805">
        <ele>696.8</ele>
        <time>2024-05-12T08:52:32Z</time>
      </trkpt>
      <trkpt lat="42.86148" lon="1.17805">
        <ele>697.2</ele>
        <time>2024-05-12T08:52:33Z</time>
      </trkpt>
      <trkpt lat="42.86146" lon="1.17804">
        <ele>697.6</ele>
        <time>2024-05-12T08:52:34Z</time>
      </trkpt>
      <trkpt lat="42.86143" lon="1.17803">
        <ele>698</ele>
        <time>2024-05-12T08:52:35Z</time>
      </trkpt>
      <trkpt lat="42.86128" lon="1.17795">
        <ele>698</ele>
        <time>2024-05-12T08:52:41Z</time>
      </trkpt>
      <trkpt lat="42.86125" lon="1.17793">
        <ele>698.4</ele>
        <time>2024-05-12T08:52:42Z</time>
      </trkpt>
      <trkpt lat="42.86123" lon="1.17792">
        <ele>698.8</ele>
        <time>2024-05-12T08:52:43Z</time>
      </trkpt>
      <trkpt lat="42.86121" lon="1.17792">
        <ele>699.4</ele>
        <time>2024-05-12T08:52:44Z</time>
      </trkpt>
      <trkpt lat="42.86119" lon="1.17792">
        <ele>700.2</ele>
        <time>2024-05-12T08:52:45Z</time>
      </trkpt>
      <trkpt lat="42.86104" lon="1.17792">
        <ele>700.2</ele>
        <time>2024-05-12T08:52:51Z</time>
      </trkpt>
      <trkpt lat="42.86102" lon="1.1779">
        <ele>700.6</ele>
        <time>2024-05-12T08:52:52Z</time>
      </trkpt>
      <trkpt lat="42.86099" lon="1.1779">
        <ele>701</ele>
        <time>2024-05-12T08:52:53Z</time>
      </trkpt>
      <trkpt lat="42.86097" lon="1.1779">
        <ele>701.4</ele>
        <time>2024-05-12T08:52:54Z</time>
      </trkpt>
      <trkpt lat="42.86094" lon="1.1779">
        <ele>701.8</ele>
        <time>2024-05-12T08:52:55Z</time>
      </trkpt>
      <trkpt lat="42.86092" lon="1.17789">
        <ele>702.2</ele>
        <time>2024-05-12T08:52:56Z</time>
      </trkpt>
      <trkpt lat="42.86082" lon="1.17785">
        <ele>702.2</ele>
        <time>2024-05-12T08:53:01Z</time>
      </trkpt>
      <trkpt lat="42.86073" lon="1.1778">
        <ele>702.6</ele>
        <time>2024-05-12T08:53:06Z</time>
      </trkpt>
      <trkpt lat="42.86072" lon="1.17778">
        <ele>703</ele>
        <time>2024-05-12T08:53:07Z</time>
      </trkpt>
      <trkpt lat="42.86071" lon="1.17776">
        <ele>703.4</ele>
        <time>2024-05-12T08:53:08Z</time>
      </trkpt>
      <trkpt lat="42.86071" lon="1.17775">
        <ele>703.8</ele>
        <time>2024-05-12T08:53:09Z</time>
      </trkpt>
      <trkpt lat="42.8607" lon="1.17772">
        <ele>704.4</ele>
        <time>2024-05-12T08:53:10Z</time>
      </trkpt>
      <trkpt lat="42.86068" lon="1.17767">
        <ele>704.4</ele>
        <time>2024-05-12T08:53:12Z</time>
      </trkpt>
      <trkpt lat="42.86066" lon="1.1776">
        <ele>704.8</ele>
        <time>2024-05-12T08:53:14Z</time>
      </trkpt>
      <trkpt lat="42.86064" lon="1.17756">
        <ele>705.2</ele>
        <time>2024-05-12T08:53:15Z</time>
      </trkpt>
      <trkpt lat="42.86062" lon="1.17754">
        <ele>705.6</ele>
        <time>2024-05-12T08:53:16Z</time>
      </trkpt>
      <trkpt lat="42.8606" lon="1.17751">
        <ele>706</ele>
        <time>2024-05-12T08:53:17Z</time>
      </trkpt>
      <trkpt lat="42.86059" lon="1.17749">
        <ele>706.4</ele>
        <time>2024-05-12T08:53:18Z</time>
      </trkpt>
      <trkpt lat="42.86057" lon="1.17746">
        <ele>706.4</ele>
        <time>2024-05-12T08:53:20Z</time>
      </trkpt>
      <trkpt lat="42.86054" lon="1.17742">
        <ele>706.4</ele>
        <time>2024-05-12T08:53:22Z</time>
      </trkpt>
      <trkpt lat="42.86051" lon="1.17739">
        <ele>706.8</ele>
        <time>2024-05-12T08:53:24Z</time>
      </trkpt>
      <trkpt lat="42.86049" lon="1.17737">
        <ele>707.2</ele>
        <time>2024-05-12T08:53:25Z</time>
      </trkpt>
      <trkpt lat="42.86048" lon="1.17735">
        <ele>707.6</ele>
        <time>2024-05-12T08:53:26Z</time>
      </trkpt>
      <trkpt lat="42.86045" lon="1.17732">
        <ele>708</ele>
        <time>2024-05-12T08:53:27Z</time>
      </trkpt>
      <trkpt lat="42.86042" lon="1.1773">
        <ele>708.6</ele>
        <time>2024-05-12T08:53:28Z</time>
      </trkpt>
      <trkpt lat="42.8604" lon="1.17729">
        <ele>708.6</ele>
        <time>2024-05-12T08:53:29Z</time>
      </trkpt>
      <trkpt lat="42.8603" lon="1.17724">
        <ele>709</ele>
        <time>2024-05-12T08:53:33Z</time>
      </trkpt>
      <trkpt lat="42.86028" lon="1.17723">
        <ele>709.4</ele>
        <time>2024-05-12T08:53:34Z</time>
      </trkpt>
      <trkpt lat="42.86025" lon="1.17722">
        <ele>710.2</ele>
        <time>2024-05-12T08:53:35Z</time>
      </trkpt>
      <trkpt lat="42.86024" lon="1.17719">
        <ele>710.6</ele>
        <time>2024-05-12T08:53:36Z</time>
      </trkpt>
      <trkpt lat="42.86021" lon="1.17718">
        <ele>710.6</ele>
        <time>2024-05-12T08:53:37Z</time>
      </trkpt>
      <trkpt lat="42.86018" lon="1.17716">
        <ele>710.6</ele>
        <time>2024-05-12T08:53:39Z</time>
      </trkpt>
      <trkpt lat="42.86008" lon="1.17711">
        <ele>711</ele>
        <time>2024-05-12T08:53:43Z</time>
      </trkpt>
      <trkpt lat="42.86007" lon="1.1771">
        <ele>711.4</ele>
        <time>2024-05-12T08:53:44Z</time>
      </trkpt>
      <trkpt lat="42.86005" lon="1.17709">
        <ele>711.8</ele>
        <time>2024-05-12T08:53:45Z</time>
      </trkpt>
      <trkpt lat="42.86002" lon="1.17708">
        <ele>712.2</ele>
        <time>2024-05-12T08:53:46Z</time>
      </trkpt>
      <trkpt lat="42.85999" lon="1.17707">
        <ele>712.6</ele>
        <time>2024-05-12T08:53:47Z</time>
      </trkpt>
      <trkpt lat="42.85994" lon="1.17704">
        <ele>712.6</ele>
        <time>2024-05-12T08:53:50Z</time>
      </trkpt>
      <trkpt lat="42.85991" lon="1.17702">
        <ele>713.2</ele>
        <time>2024-05-12T08:53:52Z</time>
      </trkpt>
      <trkpt lat="42.85989" lon="1.17702">
        <ele>713.6</ele>
        <time>2024-05-12T08:53:53Z</time>
      </trkpt>
      <trkpt lat="42.85987" lon="1.177">
        <ele>714</ele>
        <time>2024-05-12T08:53:54Z</time>
      </trkpt>
      <trkpt lat="42.85986" lon="1.177">
        <ele>714.4</ele>
        <time>2024-05-12T08:53:55Z</time>
      </trkpt>
      <trkpt lat="42.85985" lon="1.17698">
        <ele>714.8</ele>
        <time>2024-05-12T08:53:56Z</time>
      </trkpt>
      <trkpt lat="42.85973" lon="1.17689">
        <ele>715.2</ele>
        <time>2024-05-12T08:54:01Z</time>
      </trkpt>
      <trkpt lat="42.8597" lon="1.17688">
        <ele>715.6</ele>
        <time>2024-05-12T08:54:02Z</time>
      </trkpt>
      <trkpt lat="42.85969" lon="1.17687">
        <ele>716</ele>
        <time>2024-05-12T08:54:03Z</time>
      </trkpt>
      <trkpt lat="42.85967" lon="1.17686">
        <ele>716.6</ele>
        <time>2024-05-12T08:54:04Z</time>
      </trkpt>
      <trkpt lat="42.85965" lon="1.17686">
        <ele>717</ele>
        <time>2024-05-12T08:54:05Z</time>
      </trkpt>
      <trkpt lat="42.85957" lon="1.17681">
        <ele>717</ele>
        <time>2024-05-12T08:54:09Z</time>
      </trkpt>
      <trkpt lat="42.85955" lon="1.17679">
        <ele>717</ele>
        <time>2024-05-12T08:54:10Z</time>
      </trkpt>
      <trkpt lat="42.85946" lon="1.17668">
        <ele>717.4</ele>
        <time>2024-05-12T08:54:14Z</time>
      </trkpt>
      <trkpt lat="42.85944" lon="1.17666">
        <ele>717.8</ele>
        <time>2024-05-12T08:54:15Z</time>
      </trkpt>
      <trkpt lat="42.85941" lon="1.17664">
        <ele>718.2</ele>
        <time>2024-05-12T08:54:16Z</time>
      </trkpt>
      <trkpt lat="42.85939" lon="1.17662">
        <ele>718.6</ele>
        <time>2024-05-12T08:54:17Z</time>
      </trkpt>
      <trkpt lat="42.85937" lon="1.1766">
        <ele>719</ele>
        <time>2024-05-12T08:54:18Z</time>
      </trkpt>
      <trkpt lat="42.85934" lon="1.17656">
        <ele>719</ele>
        <time>2024-05-12T08:54:20Z</time>
      </trkpt>
      <trkpt lat="42.85927" lon="1.17647">
        <ele>719.8</ele>
        <time>2024-05-12T08:54:24Z</time>
      </trkpt>
      <trkpt lat="42.85925" lon="1.17645">
        <ele>720.2</ele>
        <time>2024-05-12T08:54:25Z</time>
      </trkpt>
      <trkpt lat="42.85923" lon="1.17643">
        <ele>720.6</ele>
        <time>2024-05-12T08:54:26Z</time>
      </trkpt>
      <trkpt lat="42.85921" lon="1.1764">
        <ele>721</ele>
        <time>2024-05-12T08:54:27Z</time>
      </trkpt>
      <trkpt lat="42.85915" lon="1.17634">
        <ele>721.4</ele>
        <time>2024-05-12T08:54:30Z</time>
      </trkpt>
      <trkpt lat="42.85913" lon="1.17633">
        <ele>721.8</ele>
        <time>2024-05-12T08:54:31Z</time>
      </trkpt>
      <trkpt lat="42.85912" lon="1.17633">
        <ele>722.2</ele>
        <time>2024-05-12T08:54:32Z</time>
      </trkpt>
      <trkpt lat="42.85911" lon="1.17632">
        <ele>722.6</ele>
        <time>2024-05-12T08:54:33Z</time>
      </trkpt>
      <trkpt lat="42.85908" lon="1.1763">
        <ele>723</ele>
        <time>2024-05-12T08:54:34Z</time>
      </trkpt>
      <trkpt lat="42.85898" lon="1.17627">
        <ele>723.6</ele>
        <time>2024-05-12T08:54:37Z</time>
      </trkpt>
      <trkpt lat="42.85895" lon="1.17625">
        <ele>724</ele>
        <time>2024-05-12T08:54:38Z</time>
      </trkpt>
      <trkpt lat="42.85893" lon="1.17625">
        <ele>724.4</ele>
        <time>2024-05-12T08:54:39Z</time>
      </trkpt>
      <trkpt lat="42.85891" lon="1.17624">
        <ele>724.8</ele>
        <time>2024-05-12T08:54:40Z</time>
      </trkpt>
      <trkpt lat="42.85889" lon="1.17624">
        <ele>725.2</ele>
        <time>2024-05-12T08:54:41Z</time>
      </trkpt>
      <trkpt lat="42.85884" lon="1.17625">
        <ele>725.2</ele>
        <time>2024-05-12T08:54:44Z</time>
      </trkpt>
      <trkpt lat="42.8588" lon="1.17627">
        <ele>725.8</ele>
        <time>2024-05-12T08:54:46Z</time>
      </trkpt>
      <trkpt lat="42.85878" lon="1.17629">
        <ele>726.2</ele>
        <time>2024-05-12T08:54:47Z</time>
      </trkpt>
      <trkpt lat="42.85876" lon="1.1763">
        <ele>727</ele>
        <time>2024-05-12T08:54:48Z</time>
      </trkpt>
      <trkpt lat="42.85874" lon="1.1763">
        <ele>727.4</ele>
        <time>2024-05-12T08:54:49Z</time>
      </trkpt>
      <trkpt lat="42.85872" lon="1.17631">
        <ele>727.4</ele>
        <time>2024-05-12T08:54:50Z</time>
      </trkpt>
      <trkpt lat="42.85861" lon="1.17633">
        <ele>727.8</ele>
        <time>2024-05-12T08:54:54Z</time>
      </trkpt>
      <trkpt lat="42.85858" lon="1.17635">
        <ele>728.2</ele>
        <time>2024-05-12T08:54:55Z</time>
      </trkpt>
      <trkpt lat="42.85856" lon="1.17635">
        <ele>728.8</ele>
        <time>2024-05-12T08:54:56Z</time>
      </trkpt>
      <trkpt lat="42.85853" lon="1.17636">
        <ele>729.2</ele>
        <time>2024-05-12T08:54:57Z</time>
      </trkpt>
      <trkpt lat="42.85851" lon="1.17635">
        <ele>729.6</ele>
        <time>2024-05-12T08:54:58Z</time>
      </trkpt>
      <trkpt lat="42.85838" lon="1.17634">
        <ele>730</ele>
        <time>2024-05-12T08:55:02Z</time>
      </trkpt>
      <trkpt lat="42.85836" lon="1.17635">
        <ele>730.6</ele>
        <time>2024-05-12T08:55:03Z</time>
      </trkpt>
      <trkpt lat="42.85833" lon="1.17635">
        <ele>731</ele>
        <time>2024-05-12T08:55:04Z</time>
      </trkpt>
      <trkpt lat="42.85832" lon="1.17635">
        <ele>731.4</ele>
        <time>2024-05-12T08:55:05Z</time>
      </trkpt>
      <trkpt lat="42.85829" lon="1.17634">
        <ele>732</ele>
        <time>2024-05-12T08:55:06Z</time>
      </trkpt>
      <trkpt lat="42.85821" lon="1.17632">
        <ele>732</ele>
        <time>2024-05-12T08:55:09Z</time>
      </trkpt>
      <trkpt lat="42.85819" lon="1.17631">
        <ele>732.4</ele>
        <time>2024-05-12T08:55:10Z</time>
      </trkpt>
      <trkpt lat="42.85816" lon="1.1763">
        <ele>732.8</ele>
        <time>2024-05-12T08:55:11Z</time>
      </trkpt>
      <trkpt lat="42.85814" lon="1.1763">
        <ele>733.2</ele>
        <time>2024-05-12T08:55:12Z</time>
      </trkpt>
      <trkpt lat="42.85812" lon="1.17629">
        <ele>734</ele>
        <time>2024-05-12T08:55:13Z</time>
      </trkpt>
      <trkpt lat="42.85805" lon="1.17628">
        <ele>734</ele>
        <time>2024-05-12T08:55:15Z</time>
      </trkpt>
      <trkpt lat="42.85798" lon="1.17628">
        <ele>734.4</ele>
        <time>2024-05-12T08:55:18Z</time>
      </trkpt>
      <trkpt lat="42.85795" lon="1.17628">
        <ele>734.8</ele>
        <time>2024-05-12T08:55:19Z</time>
      </trkpt>
      <trkpt lat="42.85793" lon="1.17628">
        <ele>735.4</ele>
        <time>2024-05-12T08:55:20Z</time>
      </trkpt>
      <trkpt lat="42.8579" lon="1.17627">
        <ele>735.8</ele>
        <time>2024-05-12T08:55:21Z</time>
      </trkpt>
      <trkpt lat="42.85788" lon="1.17627">
        <ele>736.2</ele>
        <time>2024-05-12T08:55:22Z</time>
      </trkpt>
      <trkpt lat="42.85784" lon="1.17626">
        <ele>736.6</ele>
        <time>2024-05-12T08:55:24Z</time>
      </trkpt>
      <trkpt lat="42.85782" lon="1.17624">
        <ele>737.2</ele>
        <time>2024-05-12T08:55:25Z</time>
      </trkpt>
      <trkpt lat="42.8578" lon="1.17623">
        <ele>737.6</ele>
        <time>2024-05-12T08:55:26Z</time>
      </trkpt>
      <trkpt lat="42.85778" lon="1.17622">
        <ele>738</ele>
        <time>2024-05-12T08:55:27Z</time>
      </trkpt>
      <trkpt lat="42.85775" lon="1.17621">
        <ele>738.4</ele>
        <time>2024-05-12T08:55:28Z</time>
      </trkpt>
      <trkpt lat="42.85765" lon="1.17621">
        <ele>739</ele>
        <time>2024-05-12T08:55:32Z</time>
      </trkpt>
      <trkpt lat="42.85762" lon="1.17621">
        <ele>739.4</ele>
        <time>2024-05-12T08:55:33Z</time>
      </trkpt>
      <trkpt lat="42.85759" lon="1.17621">
        <ele>739.8</ele>
        <time>2024-05-12T08:55:34Z</time>
      </trkpt>
      <trkpt lat="42.85756" lon="1.17621">
        <ele>740.2</ele>
        <time>2024-05-12T08:55:35Z</time>
      </trkpt>
      <trkpt lat="42.85754" lon="1.17621">
        <ele>740.8</ele>
        <time>2024-05-12T08:55:36Z</time>
      </trkpt>
      <trkpt lat="42.85747" lon="1.17622">
        <ele>741.2</ele>
        <time>2024-05-12T08:55:39Z</time>
      </trkpt>
      <trkpt lat="42.85743" lon="1.17622">
        <ele>741.6</ele>
        <time>2024-05-12T08:55:40Z</time>
      </trkpt>
      <trkpt lat="42.8574" lon="1.17623">
        <ele>742</ele>
        <time>2024-05-12T08:55:41Z</time>
      </trkpt>
      <trkpt lat="42.85738" lon="1.17624">
        <ele>742.6</ele>
        <time>2024-05-12T08:55:42Z</time>
      </trkpt>
      <trkpt lat="42.85735" lon="1.17624">
        <ele>743</ele>
        <time>2024-05-12T08:55:43Z</time>
      </trkpt>
      <trkpt lat="42.85729" lon="1.17627">
        <ele>743.4</ele>
        <time>2024-05-12T08:55:46Z</time>
      </trkpt>
      <trkpt lat="42.85727" lon="1.17627">
        <ele>743.8</ele>
        <time>2024-05-12T08:55:47Z</time>
      </trkpt>
      <trkpt lat="42.85724" lon="1.17629">
        <ele>744.2</ele>
        <time>2024-05-12T08:55:48Z</time>
      </trkpt>
      <trkpt lat="42.85722" lon="1.1763">
        <ele>744.6</ele>
        <time>2024-05-12T08:55:49Z</time>
      </trkpt>
      <trkpt lat="42.8572" lon="1.1763">
        <ele>745</ele>
        <time>2024-05-12T08:55:50Z</time>
      </trkpt>
      <trkpt lat="42.85708" lon="1.17635">
        <ele>745.4</ele>
        <time>2024-05-12T08:55:55Z</time>
      </trkpt>
      <trkpt lat="42.85705" lon="1.17636">
        <ele>746</ele>
        <time>2024-05-12T08:55:56Z</time>
      </trkpt>
      <trkpt lat="42.85703" lon="1.17637">
        <ele>746.4</ele>
        <time>2024-05-12T08:55:57Z</time>
      </trkpt>
      <trkpt lat="42.85701" lon="1.17637">
        <ele>746.8</ele>
        <time>2024-05-12T08:55:58Z</time>
      </trkpt>
      <trkpt lat="42.85699" lon="1.17637">
        <ele>747.2</ele>
        <time>2024-05-12T08:55:59Z</time>
      </trkpt>
      <trkpt lat="42.85696" lon="1.17638">
        <ele>747.2</ele>
        <time>2024-05-12T08:56:01Z</time>
      </trkpt>
      <trkpt lat="42.85692" lon="1.1764">
        <ele>747.6</ele>
        <time>2024-05-12T08:56:03Z</time>
      </trkpt>
      <trkpt lat="42.8569" lon="1.1764">
        <ele>748</ele>
        <time>2024-05-12T08:56:04Z</time>
      </trkpt>
      <trkpt lat="42.85688" lon="1.17641">
        <ele>748.6</ele>
        <time>2024-05-12T08:56:05Z</time>
      </trkpt>
      <trkpt lat="42.85686" lon="1.17642">
        <ele>749</ele>
        <time>2024-05-12T08:56:06Z</time>
      </trkpt>
      <trkpt lat="42.85684" lon="1.17642">
        <ele>749.4</ele>
        <time>2024-05-12T08:56:07Z</time>
      </trkpt>
      <trkpt lat="42.8567" lon="1.17647">
        <ele>749.8</ele>
        <time>2024-05-12T08:56:13Z</time>
      </trkpt>
      <trkpt lat="42.85668" lon="1.17648">
        <ele>750.2</ele>
        <time>2024-05-12T08:56:14Z</time>
      </trkpt>
      <trkpt lat="42.85666" lon="1.17648">
        <ele>750.6</ele>
        <time>2024-05-12T08:56:15Z</time>
      </trkpt>
      <trkpt lat="42.85664" lon="1.17649">
        <ele>751</ele>
        <time>2024-05-12T08:56:16Z</time>
      </trkpt>
      <trkpt lat="42.85662" lon="1.1765">
        <ele>751.6</ele>
        <time>2024-05-12T08:56:17Z</time>
      </trkpt>
      <trkpt lat="42.85655" lon="1.17654">
        <ele>751.6</ele>
        <time>2024-05-12T08:56:20Z</time>
      </trkpt>
      <trkpt lat="42.85646" lon="1.17659">
        <ele>752</ele>
        <time>2024-05-12T08:56:24Z</time>
      </trkpt>
      <trkpt lat="42.85644" lon="1.17661">
        <ele>752.4</ele>
        <time>2024-05-12T08:56:25Z</time>
      </trkpt>
      <trkpt lat="42.85643" lon="1.17662">
        <ele>752.8</ele>
        <time>2024-05-12T08:56:26Z</time>
      </trkpt>
      <trkpt lat="42.8564" lon="1.17664">
        <ele>753.2</ele>
        <time>2024-05-12T08:56:27Z</time>
      </trkpt>
      <trkpt lat="42.85638" lon="1.17667">
        <ele>753.6</ele>
        <time>2024-05-12T08:56:28Z</time>
      </trkpt>
      <trkpt lat="42.85631" lon="1.17675">
        <ele>753.6</ele>
        <time>2024-05-12T08:56:32Z</time>
      </trkpt>
      <trkpt lat="42.85628" lon="1.17678">
        <ele>754</ele>
        <time>2024-05-12T08:56:34Z</time>
      </trkpt>
      <trkpt lat="42.85627" lon="1.17679">
        <ele>754.4</ele>
        <time>2024-05-12T08:56:35Z</time>
      </trkpt>
      <trkpt lat="42.85626" lon="1.17681">
        <ele>755</ele>
        <time>2024-05-12T08:56:36Z</time>
      </trkpt>
      <trkpt lat="42.85624" lon="1.17683">
        <ele>755.4</ele>
        <time>2024-05-12T08:56:37Z</time>
      </trkpt>
      <trkpt lat="42.85623" lon="1.17685">
        <ele>755.8</ele>
        <time>2024-05-12T08:56:38Z</time>
      </trkpt>
      <trkpt lat="42.85617" lon="1.17696">
        <ele>755.8</ele>
        <time>2024-05-12T08:56:42Z</time>
      </trkpt>
      <trkpt lat="42.85611" lon="1.17705">
        <ele>756.2</ele>
        <time>2024-05-12T08:56:46Z</time>
      </trkpt>
      <trkpt lat="42.8561" lon="1.17708">
        <ele>756.6</ele>
        <time>2024-05-12T08:56:47Z</time>
      </trkpt>
      <trkpt lat="42.85608" lon="1.1771">
        <ele>757</ele>
        <time>2024-05-12T08:56:48Z</time>
      </trkpt>
      <trkpt lat="42.85607" lon="1.17713">
        <ele>757.4</ele>
        <time>2024-05-12T08:56:49Z</time>
      </trkpt>
      <trkpt lat="42.85605" lon="1.17716">
        <ele>757.8</ele>
        <time>2024-05-12T08:56:50Z</time>
      </trkpt>
      <trkpt lat="42.85599" lon="1.17727">
        <ele>757.8</ele>
        <time>2024-05-12T08:56:54Z</time>
      </trkpt>
      <trkpt lat="42.85595" lon="1.17732">
        <ele>758.4</ele>
        <time>2024-05-12T08:56:56Z</time>
      </trkpt>
      <trkpt lat="42.85594" lon="1.17734">
        <ele>758.8</ele>
        <time>2024-05-12T08:56:57Z</time>
      </trkpt>
      <trkpt lat="42.85593" lon="1.17737">
        <ele>759.2</ele>
        <time>2024-05-12T08:56:58Z</time>
      </trkpt>
      <trkpt lat="42.85591" lon="1.17739">
        <ele>759.6</ele>
        <time>2024-05-12T08:56:59Z</time>
      </trkpt>
      <trkpt lat="42.8559" lon="1.17741">
        <ele>760</ele>
        <time>2024-05-12T08:57:00Z</time>
      </trkpt>
      <trkpt lat="42.85577" lon="1.17757">
        <ele>760</ele>
        <time>2024-05-12T08:57:07Z</time>
      </trkpt>
      <trkpt lat="42.85575" lon="1.1776">
        <ele>760.4</ele>
        <time>2024-05-12T08:57:08Z</time>
      </trkpt>
      <trkpt lat="42.85573" lon="1.17762">
        <ele>761</ele>
        <time>2024-05-12T08:57:09Z</time>
      </trkpt>
      <trkpt lat="42.85572" lon="1.17765">
        <ele>761.4</ele>
        <time>2024-05-12T08:57:10Z</time>
      </trkpt>
      <trkpt lat="42.85571" lon="1.17767">
        <ele>761.8</ele>
        <time>2024-05-12T08:57:11Z</time>
      </trkpt>
      <trkpt lat="42.8557" lon="1.17769">
        <ele>762.2</ele>
        <time>2024-05-12T08:57:12Z</time>
      </trkpt>
      <trkpt lat="42.85567" lon="1.17773">
        <ele>762.2</ele>
        <time>2024-05-12T08:57:14Z</time>
      </trkpt>
      <trkpt lat="42.85559" lon="1.17779">
        <ele>762.2</ele>
        <time>2024-05-12T08:57:18Z</time>
      </trkpt>
      <trkpt lat="42.85556" lon="1.17779">
        <ele>762.2</ele>
        <time>2024-05-12T08:57:19Z</time>
      </trkpt>
      <trkpt lat="42.85539" lon="1.17779">
        <ele>762.2</ele>
        <time>2024-05-12T08:57:23Z</time>
      </trkpt>
      <trkpt lat="42.8552" lon="1.17774">
        <ele>761.6</ele>
        <time>2024-05-12T08:57:26Z</time>
      </trkpt>
      <trkpt lat="42.85513" lon="1.17771">
        <ele>761.2</ele>
        <time>2024-05-12T08:57:27Z</time>
      </trkpt>
      <trkpt lat="42.85506" lon="1.17767">
        <ele>760.8</ele>
        <time>2024-05-12T08:57:28Z</time>
      </trkpt>
      <trkpt lat="42.855" lon="1.17763">
        <ele>760.2</ele>
        <time>2024-05-12T08:57:29Z</time>
      </trkpt>
      <trkpt lat="42.85495" lon="1.17759">
        <ele>759.4</ele>
        <time>2024-05-12T08:57:30Z</time>
      </trkpt>
      <trkpt lat="42.85491" lon="1.17754">
        <ele>758.8</ele>
        <time>2024-05-12T08:57:31Z</time>
      </trkpt>
      <trkpt lat="42.85488" lon="1.1775">
        <ele>758.2</ele>
        <time>2024-05-12T08:57:32Z</time>
      </trkpt>
      <trkpt lat="42.85484" lon="1.17747">
        <ele>757.6</ele>
        <time>2024-05-12T08:57:33Z</time>
      </trkpt>
      <trkpt lat="42.85481" lon="1.17747">
        <ele>757</ele>
        <time>2024-05-12T08:57:34Z</time>
      </trkpt>
      <trkpt lat="42.85478" lon="1.17748">
        <ele>756.2</ele>
        <time>2024-05-12T08:57:35Z</time>
      </trkpt>
      <trkpt lat="42.85475" lon="1.1775">
        <ele>755.6</ele>
        <time>2024-05-12T08:57:36Z</time>
      </trkpt>
      <trkpt lat="42.85469" lon="1.17756">
        <ele>755.6</ele>
        <time>2024-05-12T08:57:38Z</time>
      </trkpt>
      <trkpt lat="42.85454" lon="1.17768">
        <ele>755.6</ele>
        <time>2024-05-12T08:57:44Z</time>
      </trkpt>
      <trkpt lat="42.8545" lon="1.17773">
        <ele>756</ele>
        <time>2024-05-12T08:57:46Z</time>
      </trkpt>
      <trkpt lat="42.85447" lon="1.17775">
        <ele>756.4</ele>
        <time>2024-05-12T08:57:47Z</time>
      </trkpt>
      <trkpt lat="42.85445" lon="1.17777">
        <ele>756.8</ele>
        <time>2024-05-12T08:57:48Z</time>
      </trkpt>
      <trkpt lat="42.85443" lon="1.1778">
        <ele>757.2</ele>
        <time>2024-05-12T08:57:49Z</time>
      </trkpt>
      <trkpt lat="42.85441" lon="1.17783">
        <ele>757.8</ele>
        <time>2024-05-12T08:57:50Z</time>
      </trkpt>
      <trkpt lat="42.85431" lon="1.17797">
        <ele>758.2</ele>
        <time>2024-05-12T08:57:56Z</time>
      </trkpt>
      <trkpt lat="42.8543" lon="1.178">
        <ele>758.6</ele>
        <time>2024-05-12T08:57:57Z</time>
      </trkpt>
      <trkpt lat="42.85428" lon="1.17802">
        <ele>759</ele>
        <time>2024-05-12T08:57:58Z</time>
      </trkpt>
      <trkpt lat="42.85426" lon="1.17804">
        <ele>759.4</ele>
        <time>2024-05-12T08:57:59Z</time>
      </trkpt>
      <trkpt lat="42.85425" lon="1.17807">
        <ele>759.8</ele>
        <time>2024-05-12T08:58:00Z</time>
      </trkpt>
      <trkpt lat="42.85419" lon="1.17813">
        <ele>759.8</ele>
        <time>2024-05-12T08:58:03Z</time>
      </trkpt>
      <trkpt lat="42.85409" lon="1.17823">
        <ele>759.8</ele>
        <time>2024-05-12T08:58:08Z</time>
      </trkpt>
      <trkpt lat="42.85403" lon="1.17828">
        <ele>760.2</ele>
        <time>2024-05-12T08:58:11Z</time>
      </trkpt>
      <trkpt lat="42.85401" lon="1.1783">
        <ele>760.6</ele>
        <time>2024-05-12T08:58:12Z</time>
      </trkpt>
      <trkpt lat="42.85399" lon="1.17831">
        <ele>761.2</ele>
        <time>2024-05-12T08:58:13Z</time>
      </trkpt>
      <trkpt lat="42.85397" lon="1.17833">
        <ele>761.6</ele>
        <time>2024-05-12T08:58:14Z</time>
      </trkpt>
      <trkpt lat="42.85395" lon="1.17835">
        <ele>762</ele>
        <time>2024-05-12T08:58:15Z</time>
      </trkpt>
      <trkpt lat="42.85391" lon="1.17837">
        <ele>762</ele>
        <time>2024-05-12T08:58:17Z</time>
      </trkpt>
      <trkpt lat="42.85387" lon="1.1784">
        <ele>762</ele>
        <time>2024-05-12T08:58:19Z</time>
      </trkpt>
      <trkpt lat="42.85374" lon="1.17849">
        <ele>762</ele>
        <time>2024-05-12T08:58:25Z</time>
      </trkpt>
      <trkpt lat="42.85368" lon="1.17854">
        <ele>762.4</ele>
        <time>2024-05-12T08:58:28Z</time>
      </trkpt>
      <trkpt lat="42.85366" lon="1.17855">
        <ele>762.8</ele>
        <time>2024-05-12T08:58:29Z</time>
      </trkpt>
      <trkpt lat="42.85364" lon="1.17856">
        <ele>763.2</ele>
        <time>2024-05-12T08:58:30Z</time>
      </trkpt>
      <trkpt lat="42.85362" lon="1.17857">
        <ele>764</ele>
        <time>2024-05-12T08:58:31Z</time>
      </trkpt>
      <trkpt lat="42.85348" lon="1.17859">
        <ele>764</ele>
        <time>2024-05-12T08:58:36Z</time>
      </trkpt>
      <trkpt lat="42.85336" lon="1.1786">
        <ele>764.4</ele>
        <time>2024-05-12T08:58:40Z</time>
      </trkpt>
      <trkpt lat="42.85333" lon="1.1786">
        <ele>764.8</ele>
        <time>2024-05-12T08:58:41Z</time>
      </trkpt>
      <trkpt lat="42.8533" lon="1.17861">
        <ele>765.2</ele>
        <time>2024-05-12T08:58:42Z</time>
      </trkpt>
      <trkpt lat="42.85327" lon="1.17861">
        <ele>765.6</ele>
        <time>2024-05-12T08:58:43Z</time>
      </trkpt>
      <trkpt lat="42.85324" lon="1.17862">
        <ele>766</ele>
        <time>2024-05-12T08:58:44Z</time>
      </trkpt>
      <trkpt lat="42.85304" lon="1.17866">
        <ele>766</ele>
        <time>2024-05-12T08:58:51Z</time>
      </trkpt>
      <trkpt lat="42.85297" lon="1.17867">
        <ele>766.4</ele>
        <time>2024-05-12T08:58:54Z</time>
      </trkpt>
      <trkpt lat="42.85295" lon="1.17867">
        <ele>766.8</ele>
        <time>2024-05-12T08:58:55Z</time>
      </trkpt>
      <trkpt lat="42.85293" lon="1.17867">
        <ele>767.6</ele>
        <time>2024-05-12T08:58:56Z</time>
      </trkpt>
      <trkpt lat="42.85292" lon="1.17867">
        <ele>768</ele>
        <time>2024-05-12T08:58:57Z</time>
      </trkpt>
      <trkpt lat="42.85282" lon="1.17869">
        <ele>768</ele>
        <time>2024-05-12T08:59:03Z</time>
      </trkpt>
      <trkpt lat="42.8527" lon="1.17872">
        <ele>768</ele>
        <time>2024-05-12T08:59:09Z</time>
      </trkpt>
      <trkpt lat="42.85266" lon="1.17873">
        <ele>768.4</ele>
        <time>2024-05-12T08:59:11Z</time>
      </trkpt>
      <trkpt lat="42.85265" lon="1.17874">
        <ele>768.8</ele>
        <time>2024-05-12T08:59:12Z</time>
      </trkpt>
      <trkpt lat="42.85264" lon="1.17875">
        <ele>769.2</ele>
        <time>2024-05-12T08:59:13Z</time>
      </trkpt>
      <trkpt lat="42.85265" lon="1.17877">
        <ele>769.6</ele>
        <time>2024-05-12T08:59:14Z</time>
      </trkpt>
      <trkpt lat="42.85265" lon="1.17878">
        <ele>770.2</ele>
        <time>2024-05-12T08:59:15Z</time>
      </trkpt>
      <trkpt lat="42.8527" lon="1.17883">
        <ele>770.2</ele>
        <time>2024-05-12T08:59:20Z</time>
      </trkpt>
      <trkpt lat="42.85269" lon="1.17888">
        <ele>770.6</ele>
        <time>2024-05-12T08:59:24Z</time>
      </trkpt>
      <trkpt lat="42.8527" lon="1.17891">
        <ele>771</ele>
        <time>2024-05-12T08:59:25Z</time>
      </trkpt>
      <trkpt lat="42.85269" lon="1.17892">
        <ele>771.4</ele>
        <time>2024-05-12T08:59:26Z</time>
      </trkpt>
      <trkpt lat="42.85269" lon="1.17895">
        <ele>771.8</ele>
        <time>2024-05-12T08:59:27Z</time>
      </trkpt>
      <trkpt lat="42.85269" lon="1.17897">
        <ele>772.2</ele>
        <time>2024-05-12T08:59:28Z</time>
      </trkpt>
      <trkpt lat="42.8527" lon="1.17898">
        <ele>772.2</ele>
        <time>2024-05-12T08:59:29Z</time>
      </trkpt>
      <trkpt lat="42.85271" lon="1.17902">
        <ele>772.6</ele>
        <time>2024-05-12T08:59:32Z</time>
      </trkpt>
      <trkpt lat="42.85271" lon="1.17904">
        <ele>773</ele>
        <time>2024-05-12T08:59:33Z</time>
      </trkpt>
      <trkpt lat="42.85271" lon="1.17905">
        <ele>773.4</ele>
        <time>2024-05-12T08:59:34Z</time>
      </trkpt>
      <trkpt lat="42.8527" lon="1.17907">
        <ele>773.8</ele>
        <time>2024-05-12T08:59:35Z</time>
      </trkpt>
      <trkpt lat="42.85269" lon="1.17908">
        <ele>774.2</ele>
        <time>2024-05-12T08:59:36Z</time>
      </trkpt>
      <trkpt lat="42.8527" lon="1.17916">
        <ele>774.6</ele>
        <time>2024-05-12T08:59:40Z</time>
      </trkpt>
      <trkpt lat="42.8527" lon="1.17917">
        <ele>775</ele>
        <time>2024-05-12T08:59:41Z</time>
      </trkpt>
      <trkpt lat="42.85271" lon="1.17919">
        <ele>775.4</ele>
        <time>2024-05-12T08:59:42Z</time>
      </trkpt>
      <trkpt lat="42.85271" lon="1.17921">
        <ele>775.8</ele>
        <time>2024-05-12T08:59:43Z</time>
      </trkpt>
      <trkpt lat="42.85271" lon="1.17923">
        <ele>776.2</ele>
        <time>2024-05-12T08:59:44Z</time>
      </trkpt>
      <trkpt lat="42.85273" lon="1.17926">
        <ele>776.2</ele>
        <time>2024-05-12T08:59:46Z</time>
      </trkpt>
      <trkpt lat="42.85274" lon="1.17927">
        <ele>776.6</ele>
        <time>2024-05-12T08:59:47Z</time>
      </trkpt>
      <trkpt lat="42.85275" lon="1.17929">
        <ele>777</ele>
        <time>2024-05-12T08:59:48Z</time>
      </trkpt>
      <trkpt lat="42.85275" lon="1.17931">
        <ele>777.4</ele>
        <time>2024-05-12T08:59:49Z</time>
      </trkpt>
      <trkpt lat="42.85275" lon="1.17933">
        <ele>777.8</ele>
        <time>2024-05-12T08:59:50Z</time>
      </trkpt>
      <trkpt lat="42.85276" lon="1.17935">
        <ele>778.4</ele>
        <time>2024-05-12T08:59:51Z</time>
      </trkpt>
      <trkpt lat="42.85277" lon="1.17936">
        <ele>778.4</ele>
        <time>2024-05-12T08:59:52Z</time>
      </trkpt>
      <trkpt lat="42.85277" lon="1.17938">
        <ele>778.8</ele>
        <time>2024-05-12T08:59:53Z</time>
      </trkpt>
      <trkpt lat="42.85278" lon="1.1794">
        <ele>779.2</ele>
        <time>2024-05-12T08:59:54Z</time>
      </trkpt>
      <trkpt lat="42.85279" lon="1.17942">
        <ele>779.6</ele>
        <time>2024-05-12T08:59:55Z</time>
      </trkpt>
      <trkpt lat="42.85279" lon="1.17944">
        <ele>780</ele>
        <time>2024-05-12T08:59:56Z</time>
      </trkpt>
      <trkpt lat="42.8528" lon="1.17946">
        <ele>780.4</ele>
        <time>2024-05-12T08:59:57Z</time>
      </trkpt>
      <trkpt lat="42.85281" lon="1.17947">
        <ele>780.4</ele>
        <time>2024-05-12T08:59:58Z</time>
      </trkpt>
      <trkpt lat="42.85283" lon="1.1795">
        <ele>780.8</ele>
        <time>2024-05-12T09:00:00Z</time>
      </trkpt>
      <trkpt lat="42.85284" lon="1.17952">
        <ele>781.2</ele>
        <time>2024-05-12T09:00:01Z</time>
      </trkpt>
      <trkpt lat="42.85285" lon="1.17953">
        <ele>781.6</ele>
        <time>2024-05-12T09:00:02Z</time>
      </trkpt>
      <trkpt lat="42.85286" lon="1.17954">
        <ele>782.2</ele>
        <time>2024-05-12T09:00:03Z</time>
      </trkpt>
      <trkpt lat="42.85287" lon="1.17955">
        <ele>782.6</ele>
        <time>2024-05-12T09:00:04Z</time>
      </trkpt>
      <trkpt lat="42.85288" lon="1.17957">
        <ele>782.6</ele>
        <time>2024-05-12T09:00:05Z</time>
      </trkpt>
      <trkpt lat="42.85289" lon="1.17958">
        <ele>783</ele>
        <time>2024-05-12T09:00:06Z</time>
      </trkpt>
      <trkpt lat="42.8529" lon="1.17959">
        <ele>783.4</ele>
        <time>2024-05-12T09:00:07Z</time>
      </trkpt>
      <trkpt lat="42.85291" lon="1.17961">
        <ele>783.8</ele>
        <time>2024-05-12T09:00:08Z</time>
      </trkpt>
      <trkpt lat="42.85292" lon="1.17962">
        <ele>784.2</ele>
        <time>2024-05-12T09:00:09Z</time>
      </trkpt>
      <trkpt lat="42.85293" lon="1.17963">
        <ele>784.6</ele>
        <time>2024-05-12T09:00:10Z</time>
      </trkpt>
      <trkpt lat="42.85294" lon="1.17966">
        <ele>785.2</ele>
        <time>2024-05-12T09:00:12Z</time>
      </trkpt>
      <trkpt lat="42.85294" lon="1.17968">
        <ele>785.6</ele>
        <time>2024-05-12T09:00:13Z</time>
      </trkpt>
      <trkpt lat="42.85294" lon="1.1797">
        <ele>786</ele>
        <time>2024-05-12T09:00:14Z</time>
      </trkpt>
      <trkpt lat="42.85294" lon="1.17972">
        <ele>786.4</ele>
        <time>2024-05-12T09:00:15Z</time>
      </trkpt>
      <trkpt lat="42.85293" lon="1.17974">
        <ele>786.8</ele>
        <time>2024-05-12T09:00:16Z</time>
      </trkpt>
      <trkpt lat="42.85292" lon="1.17983">
        <ele>787.2</ele>
        <time>2024-05-12T09:00:20Z</time>
      </trkpt>
      <trkpt lat="42.85292" lon="1.17985">
        <ele>787.8</ele>
        <time>2024-05-12T09:00:21Z</time>
      </trkpt>
      <trkpt lat="42.85292" lon="1.17987">
        <ele>788.2</ele>
        <time>2024-05-12T09:00:22Z</time>
      </trkpt>
      <trkpt lat="42.85292" lon="1.17989">
        <ele>788.6</ele>
        <time>2024-05-12T09:00:23Z</time>
      </trkpt>
      <trkpt lat="42.85291" lon="1.17991">
        <ele>789</ele>
        <time>2024-05-12T09:00:24Z</time>
      </trkpt>
      <trkpt lat="42.85291" lon="1.17994">
        <ele>789</ele>
        <time>2024-05-12T09:00:26Z</time>
      </trkpt>
      <trkpt lat="42.85292" lon="1.18">
        <ele>789.4</ele>
        <time>2024-05-12T09:00:29Z</time>
      </trkpt>
      <trkpt lat="42.85293" lon="1.18002">
        <ele>789.8</ele>
        <time>2024-05-12T09:00:30Z</time>
      </trkpt>
      <trkpt lat="42.85293" lon="1.18004">
        <ele>790.4</ele>
        <time>2024-05-12T09:00:31Z</time>
      </trkpt>
      <trkpt lat="42.85293" lon="1.18007">
        <ele>790.8</ele>
        <time>2024-05-12T09:00:32Z</time>
      </trkpt>
      <trkpt lat="42.85294" lon="1.18008">
        <ele>791.2</ele>
        <time>2024-05-12T09:00:33Z</time>
      </trkpt>
      <trkpt lat="42.85295" lon="1.18012">
        <ele>792.2</ele>
        <time>2024-05-12T09:00:35Z</time>
      </trkpt>
      <trkpt lat="42.85296" lon="1.18013">
        <ele>792.6</ele>
        <time>2024-05-12T09:00:36Z</time>
      </trkpt>
      <trkpt lat="42.85296" lon="1.18015">
        <ele>793</ele>
        <time>2024-05-12T09:00:37Z</time>
      </trkpt>
      <trkpt lat="42.85296" lon="1.18017">
        <ele>793.4</ele>
        <time>2024-05-12T09:00:38Z</time>
      </trkpt>
      <trkpt lat="42.85297" lon="1.18021">
        <ele>794</ele>
        <time>2024-05-12T09:00:40Z</time>
      </trkpt>
      <trkpt lat="42.85298" lon="1.18023">
        <ele>794.4</ele>
        <time>2024-05-12T09:00:41Z</time>
      </trkpt>
      <trkpt lat="42.85298" lon="1.18025">
        <ele>794.8</ele>
        <time>2024-05-12T09:00:42Z</time>
      </trkpt>
      <trkpt lat="42.85299" lon="1.18027">
        <ele>795.2</ele>
        <time>2024-05-12T09:00:43Z</time>
      </trkpt>
      <trkpt lat="42.853" lon="1.18029">
        <ele>795.6</ele>
        <time>2024-05-12T09:00:44Z</time>
      </trkpt>
      <trkpt lat="42.85301" lon="1.18034">
        <ele>796</ele>
        <time>2024-05-12T09:00:47Z</time>
      </trkpt>
      <trkpt lat="42.85302" lon="1.18036">
        <ele>796.4</ele>
        <time>2024-05-12T09:00:48Z</time>
      </trkpt>
      <trkpt lat="42.85303" lon="1.18037">
        <ele>796.8</ele>
        <time>2024-05-12T09:00:49Z</time>
      </trkpt>
      <trkpt lat="42.85304" lon="1.18039">
        <ele>797.2</ele>
        <time>2024-05-12T09:00:50Z</time>
      </trkpt>
      <trkpt lat="42.85306" lon="1.1804">
        <ele>797.6</ele>
        <time>2024-05-12T09:00:51Z</time>
      </trkpt>
      <trkpt lat="42.85309" lon="1.18043">
        <ele>798</ele>
        <time>2024-05-12T09:00:54Z</time>
      </trkpt>
      <trkpt lat="42.8531" lon="1.18044">
        <ele>798.4</ele>
        <time>2024-05-12T09:00:55Z</time>
      </trkpt>
      <trkpt lat="42.85311" lon="1.18044">
        <ele>798.8</ele>
        <time>2024-05-12T09:00:56Z</time>
      </trkpt>
      <trkpt lat="42.85313" lon="1.18044">
        <ele>799.2</ele>
        <time>2024-05-12T09:00:57Z</time>
      </trkpt>
      <trkpt lat="42.85314" lon="1.18043">
        <ele>799.6</ele>
        <time>2024-05-12T09:00:58Z</time>
      </trkpt>
      <trkpt lat="42.8532" lon="1.18043">
        <ele>799.6</ele>
        <time>2024-05-12T09:01:01Z</time>
      </trkpt>
      <trkpt lat="42.85324" lon="1.18042">
        <ele>799.6</ele>
        <time>2024-05-12T09:01:04Z</time>
      </trkpt>
      <trkpt lat="42.85329" lon="1.18037">
        <ele>799.6</ele>
        <time>2024-05-12T09:01:07Z</time>
      </trkpt>
      <trkpt lat="42.85335" lon="1.18035">
        <ele>800.2</ele>
        <time>2024-05-12T09:01:10Z</time>
      </trkpt>
      <trkpt lat="42.85337" lon="1.18035">
        <ele>800.6</ele>
        <time>2024-05-12T09:01:11Z</time>
      </trkpt>
      <trkpt lat="42.85338" lon="1.18035">
        <ele>801</ele>
        <time>2024-05-12T09:01:12Z</time>
      </trkpt>
      <trkpt lat="42.8534" lon="1.18034">
        <ele>801.4</ele>
        <time>2024-05-12T09:01:13Z</time>
      </trkpt>
      <trkpt lat="42.85342" lon="1.18034">
        <ele>802</ele>
        <time>2024-05-12T09:01:14Z</time>
      </trkpt>
      <trkpt lat="42.8535" lon="1.18029">
        <ele>802.4</ele>
        <time>2024-05-12T09:01:19Z</time>
      </trkpt>
      <trkpt lat="42.85352" lon="1.18029">
        <ele>802.8</ele>
        <time>2024-05-12T09:01:20Z</time>
      </trkpt>
      <trkpt lat="42.85354" lon="1.18028">
        <ele>803.2</ele>
        <time>2024-05-12T09:01:21Z</time>
      </trkpt>
      <trkpt lat="42.85356" lon="1.18028">
        <ele>803.6</ele>
        <time>2024-05-12T09:01:22Z</time>
      </trkpt>
      <trkpt lat="42.85358" lon="1.18028">
        <ele>804</ele>
        <time>2024-05-12T09:01:23Z</time>
      </trkpt>
      <trkpt lat="42.8536" lon="1.18027">
        <ele>804.4</ele>
        <time>2024-05-12T09:01:24Z</time>
      </trkpt>
      <trkpt lat="42.85361" lon="1.18027">
        <ele>804.8</ele>
        <time>2024-05-12T09:01:25Z</time>
      </trkpt>
      <trkpt lat="42.85363" lon="1.18026">
        <ele>805.2</ele>
        <time>2024-05-12T09:01:26Z</time>
      </trkpt>
      <trkpt lat="42.85363" lon="1.18026">
        <ele>805.6</ele>
        <time>2024-05-12T09:01:27Z</time>
      </trkpt>
      <trkpt lat="42.85365" lon="1.18026">
        <ele>806</ele>
        <time>2024-05-12T09:01:28Z</time>
      </trkpt>
      <trkpt lat="42.85367" lon="1.18026">
        <ele>806.4</ele>
        <time>2024-05-12T09:01:29Z</time>
      </trkpt>
      <trkpt lat="42.85369" lon="1.18025">
        <ele>806.8</ele>
        <time>2024-05-12T09:01:30Z</time>
      </trkpt>
      <trkpt lat="42.85371" lon="1.18024">
        <ele>807.2</ele>
        <time>2024-05-12T09:01:31Z</time>
      </trkpt>
      <trkpt lat="42.85373" lon="1.18024">
        <ele>807.6</ele>
        <time>2024-05-12T09:01:32Z</time>
      </trkpt>
      <trkpt lat="42.85374" lon="1.18024">
        <ele>808.2</ele>
        <time>2024-05-12T09:01:33Z</time>
      </trkpt>
      <trkpt lat="42.85377" lon="1.18025">
        <ele>808.6</ele>
        <time>2024-05-12T09:01:35Z</time>
      </trkpt>
      <trkpt lat="42.85378" lon="1.18025">
        <ele>809</ele>
        <time>2024-05-12T09:01:36Z</time>
      </trkpt>
      <trkpt lat="42.8538" lon="1.18025">
        <ele>809.6</ele>
        <time>2024-05-12T09:01:37Z</time>
      </trkpt>
      <trkpt lat="42.85382" lon="1.18024">
        <ele>810</ele>
        <time>2024-05-12T09:01:38Z</time>
      </trkpt>
      <trkpt lat="42.85383" lon="1.18024">
        <ele>810.4</ele>
        <time>2024-05-12T09:01:39Z</time>
      </trkpt>
      <trkpt lat="42.85385" lon="1.18023">
        <ele>810.4</ele>
        <time>2024-05-12T09:01:40Z</time>
      </trkpt>
      <trkpt lat="42.85387" lon="1.18023">
        <ele>811</ele>
        <time>2024-05-12T09:01:41Z</time>
      </trkpt>
      <trkpt lat="42.85389" lon="1.18023">
        <ele>811.4</ele>
        <time>2024-05-12T09:01:42Z</time>
      </trkpt>
      <trkpt lat="42.85391" lon="1.18023">
        <ele>812</ele>
        <time>2024-05-12T09:01:43Z</time>
      </trkpt>
      <trkpt lat="42.85393" lon="1.18023">
        <ele>812.4</ele>
        <time>2024-05-12T09:01:44Z</time>
      </trkpt>
      <trkpt lat="42.85395" lon="1.18022">
        <ele>812.8</ele>
        <time>2024-05-12T09:01:45Z</time>
      </trkpt>
      <trkpt lat="42.85401" lon="1.18022">
        <ele>813.4</ele>
        <time>2024-05-12T09:01:48Z</time>
      </trkpt>
      <trkpt lat="42.85403" lon="1.18022">
        <ele>814.2</ele>
        <time>2024-05-12T09:01:49Z</time>
      </trkpt>
      <trkpt lat="42.85404" lon="1.18022">
        <ele>814.6</ele>
        <time>2024-05-12T09:01:50Z</time>
      </trkpt>
      <trkpt lat="42.85406" lon="1.18022">
        <ele>815</ele>
        <time>2024-05-12T09:01:51Z</time>
      </trkpt>
      <trkpt lat="42.85409" lon="1.18021">
        <ele>815.4</ele>
        <time>2024-05-12T09:01:53Z</time>
      </trkpt>
      <trkpt lat="42.8541" lon="1.18021">
        <ele>816</ele>
        <time>2024-05-12T09:01:54Z</time>
      </trkpt>
      <trkpt lat="42.85412" lon="1.18021">
        <ele>816.4</ele>
        <time>2024-05-12T09:01:55Z</time>
      </trkpt>
      <trkpt lat="42.85414" lon="1.1802">
        <ele>816.8</ele>
        <time>2024-05-12T09:01:56Z</time>
      </trkpt>
      <trkpt lat="42.85415" lon="1.1802">
        <ele>817.2</ele>
        <time>2024-05-12T09:01:57Z</time>
      </trkpt>
      <trkpt lat="42.85422" lon="1.18023">
        <ele>817.2</ele>
        <time>2024-05-12T09:02:00Z</time>
      </trkpt>
      <trkpt lat="42.85427" lon="1.18025">
        <ele>817.6</ele>
        <time>2024-05-12T09:02:02Z</time>
      </trkpt>
      <trkpt lat="42.8543" lon="1.18026">
        <ele>818</ele>
        <time>2024-05-12T09:02:03Z</time>
      </trkpt>
      <trkpt lat="42.85432" lon="1.18027">
        <ele>818.4</ele>
        <time>2024-05-12T09:02:04Z</time>
      </trkpt>
      <trkpt lat="42.85434" lon="1.18027">
        <ele>818.8</ele>
        <time>2024-05-12T09:02:05Z</time>
      </trkpt>
      <trkpt lat="42.85436" lon="1.18028">
        <ele>819.4</ele>
        <time>2024-05-12T09:02:06Z</time>
      </trkpt>
      <trkpt lat="42.85438" lon="1.18028">
        <ele>820</ele>
        <time>2024-05-12T09:02:07Z</time>
      </trkpt>
      <trkpt lat="42.8544" lon="1.18028">
        <ele>820.6</ele>
        <time>2024-05-12T09:02:08Z</time>
      </trkpt>
      <trkpt lat="42.85442" lon="1.18028">
        <ele>821.2</ele>
        <time>2024-05-12T09:02:09Z</time>
      </trkpt>
      <trkpt lat="42.85444" lon="1.18029">
        <ele>821.6</ele>
        <time>2024-05-12T09:02:10Z</time>
      </trkpt>
      <trkpt lat="42.85445" lon="1.18029">
        <ele>822</ele>
        <time>2024-05-12T09:02:11Z</time>
      </trkpt>
      <trkpt lat="42.85447" lon="1.18029">
        <ele>822.4</ele>
        <time>2024-05-12T09:02:12Z</time>
      </trkpt>
      <trkpt lat="42.85449" lon="1.18029">
        <ele>822.8</ele>
        <time>2024-05-12T09:02:13Z</time>
      </trkpt>
      <trkpt lat="42.85451" lon="1.18028">
        <ele>823.6</ele>
        <time>2024-05-12T09:02:14Z</time>
      </trkpt>
      <trkpt lat="42.85459" lon="1.18028">
        <ele>824.2</ele>
        <time>2024-05-12T09:02:18Z</time>
      </trkpt>
      <trkpt lat="42.85461" lon="1.18027">
        <ele>824.6</ele>
        <time>2024-05-12T09:02:19Z</time>
      </trkpt>
      <trkpt lat="42.85463" lon="1.18027">
        <ele>825</ele>
        <time>2024-05-12T09:02:20Z</time>
      </trkpt>
      <trkpt lat="42.85465" lon="1.18027">
        <ele>825.4</ele>
        <time>2024-05-12T09:02:21Z</time>
      </trkpt>
      <trkpt lat="42.85467" lon="1.18028">
        <ele>826</ele>
        <time>2024-05-12T09:02:22Z</time>
      </trkpt>
      <trkpt lat="42.85471" lon="1.18028">
        <ele>826.4</ele>
        <time>2024-05-12T09:02:24Z</time>
      </trkpt>
      <trkpt lat="42.85473" lon="1.18029">
        <ele>826.8</ele>
        <time>2024-05-12T09:02:25Z</time>
      </trkpt>
      <trkpt lat="42.85476" lon="1.1803">
        <ele>827.2</ele>
        <time>2024-05-12T09:02:26Z</time>
      </trkpt>
      <trkpt lat="42.85478" lon="1.1803">
        <ele>827.8</ele>
        <time>2024-05-12T09:02:27Z</time>
      </trkpt>
      <trkpt lat="42.8548" lon="1.18031">
        <ele>828.2</ele>
        <time>2024-05-12T09:02:28Z</time>
      </trkpt>
      <trkpt lat="42.85482" lon="1.18031">
        <ele>828.8</ele>
        <time>2024-05-12T09:02:29Z</time>
      </trkpt>
      <trkpt lat="42.85483" lon="1.18032">
        <ele>829.2</ele>
        <time>2024-05-12T09:02:30Z</time>
      </trkpt>
      <trkpt lat="42.85485" lon="1.18033">
        <ele>829.8</ele>
        <time>2024-05-12T09:02:31Z</time>
      </trkpt>
      <trkpt lat="42.85487" lon="1.18035">
        <ele>830.4</ele>
        <time>2024-05-12T09:02:32Z</time>
      </trkpt>
      <trkpt lat="42.85491" lon="1.18036">
        <ele>830.8</ele>
        <time>2024-05-12T09:02:34Z</time>
      </trkpt>
      <trkpt lat="42.85493" lon="1.18036">
        <ele>831.2</ele>
        <time>2024-05-12T09:02:35Z</time>
      </trkpt>
      <trkpt lat="42.85496" lon="1.18037">
        <ele>831.8</ele>
        <time>2024-05-12T09:02:36Z</time>
      </trkpt>
      <trkpt lat="42.85498" lon="1.18038">
        <ele>832.2</ele>
        <time>2024-05-12T09:02:37Z</time>
      </trkpt>
      <trkpt lat="42.855" lon="1.18039">
        <ele>832.6</ele>
        <time>2024-05-12T09:02:38Z</time>
      </trkpt>
      <trkpt lat="42.85502" lon="1.18039">
        <ele>833.4</ele>
        <time>2024-05-12T09:02:39Z</time>
      </trkpt>
      <trkpt lat="42.85504" lon="1.1804">
        <ele>833.8</ele>
        <time>2024-05-12T09:02:40Z</time>
      </trkpt>
      <trkpt lat="42.85505" lon="1.18041">
        <ele>834.4</ele>
        <time>2024-05-12T09:02:41Z</time>
      </trkpt>
      <trkpt lat="42.85507" lon="1.18042">
        <ele>834.8</ele>
        <time>2024-05-12T09:02:42Z</time>
      </trkpt>
      <trkpt lat="42.85508" lon="1.18042">
        <ele>835.4</ele>
        <time>2024-05-12T09:02:43Z</time>
      </trkpt>
      <trkpt lat="42.85509" lon="1.18042">
        <ele>835.8</ele>
        <time>2024-05-12T09:02:44Z</time>
      </trkpt>
      <trkpt lat="42.8551" lon="1.18043">
        <ele>836.4</ele>
        <time>2024-05-12T09:02:45Z</time>
      </trkpt>
      <trkpt lat="42.85511" lon="1.18045">
        <ele>836.8</ele>
        <time>2024-05-12T09:02:46Z</time>
      </trkpt>
      <trkpt lat="42.85515" lon="1.18046">
        <ele>837.2</ele>
        <time>2024-05-12T09:02:49Z</time>
      </trkpt>
      <trkpt lat="42.85516" lon="1.18046">
        <ele>837.8</ele>
        <time>2024-05-12T09:02:50Z</time>
      </trkpt>
      <trkpt lat="42.85518" lon="1.18046">
        <ele>838.2</ele>
        <time>2024-05-12T09:02:51Z</time>
      </trkpt>
      <trkpt lat="42.85519" lon="1.18046">
        <ele>838.6</ele>
        <time>2024-05-12T09:02:52Z</time>
      </trkpt>
      <trkpt lat="42.8552" lon="1.18046">
        <ele>839</ele>
        <time>2024-05-12T09:02:53Z</time>
      </trkpt>
      <trkpt lat="42.85522" lon="1.18046">
        <ele>839.4</ele>
        <time>2024-05-12T09:02:54Z</time>
      </trkpt>
      <trkpt lat="42.85523" lon="1.18046">
        <ele>839.8</ele>
        <time>2024-05-12T09:02:55Z</time>
      </trkpt>
      <trkpt lat="42.85525" lon="1.18046">
        <ele>840.2</ele>
        <time>2024-05-12T09:02:56Z</time>
      </trkpt>
      <trkpt lat="42.85527" lon="1.18047">
        <ele>840.6</ele>
        <time>2024-05-12T09:02:57Z</time>
      </trkpt>
      <trkpt lat="42.85529" lon="1.18048">
        <ele>841</ele>
        <time>2024-05-12T09:02:58Z</time>
      </trkpt>
      <trkpt lat="42.85534" lon="1.18049">
        <ele>841.4</ele>
        <time>2024-05-12T09:03:00Z</time>
      </trkpt>
      <trkpt lat="42.85535" lon="1.18049">
        <ele>842</ele>
        <time>2024-05-12T09:03:01Z</time>
      </trkpt>
      <trkpt lat="42.85537" lon="1.1805">
        <ele>842.4</ele>
        <time>2024-05-12T09:03:02Z</time>
      </trkpt>
      <trkpt lat="42.85538" lon="1.1805">
        <ele>842.8</ele>
        <time>2024-05-12T09:03:03Z</time>
      </trkpt>
      <trkpt lat="42.85539" lon="1.1805">
        <ele>843.2</ele>
        <time>2024-05-12T09:03:04Z</time>
      </trkpt>
      <trkpt lat="42.85541" lon="1.18051">
        <ele>843.8</ele>
        <time>2024-05-12T09:03:05Z</time>
      </trkpt>
      <trkpt lat="42.85543" lon="1.18052">
        <ele>844.2</ele>
        <time>2024-05-12T09:03:06Z</time>
      </trkpt>
      <trkpt lat="42.85546" lon="1.18052">
        <ele>844.6</ele>
        <time>2024-05-12T09:03:07Z</time>
      </trkpt>
      <trkpt lat="42.85548" lon="1.18053">
        <ele>845.2</ele>
        <time>2024-05-12T09:03:08Z</time>
      </trkpt>
      <trkpt lat="42.85551" lon="1.18054">
        <ele>845.6</ele>
        <time>2024-05-12T09:03:09Z</time>
      </trkpt>
      <trkpt lat="42.85559" lon="1.18055">
        <ele>846</ele>
        <time>2024-05-12T09:03:13Z</time>
      </trkpt>
      <trkpt lat="42.85561" lon="1.18056">
        <ele>846.4</ele>
        <time>2024-05-12T09:03:14Z</time>
      </trkpt>
      <trkpt lat="42.85564" lon="1.18056">
        <ele>846.8</ele>
        <time>2024-05-12T09:03:15Z</time>
      </trkpt>
      <trkpt lat="42.85567" lon="1.18056">
        <ele>847.2</ele>
        <time>2024-05-12T09:03:16Z</time>
      </trkpt>
      <trkpt lat="42.85569" lon="1.18056">
        <ele>847.6</ele>
        <time>2024-05-12T09:03:17Z</time>
      </trkpt>
      <trkpt lat="42.85573" lon="1.18057">
        <ele>848</ele>
        <time>2024-05-12T09:03:19Z</time>
      </trkpt>
      <trkpt lat="42.85575" lon="1.18057">
        <ele>848.6</ele>
        <time>2024-05-12T09:03:20Z</time>
      </trkpt>
      <trkpt lat="42.85577" lon="1.18058">
        <ele>849</ele>
        <time>2024-05-12T09:03:21Z</time>
      </trkpt>
      <trkpt lat="42.85579" lon="1.1806">
        <ele>849.4</ele>
        <time>2024-05-12T09:03:22Z</time>
      </trkpt>
      <trkpt lat="42.85582" lon="1.1806">
        <ele>850</ele>
        <time>2024-05-12T09:03:23Z</time>
      </trkpt>
      <trkpt lat="42.85584" lon="1.1806">
        <ele>850.4</ele>
        <time>2024-05-12T09:03:24Z</time>
      </trkpt>
      <trkpt lat="42.85585" lon="1.18061">
        <ele>851</ele>
        <time>2024-05-12T09:03:25Z</time>
      </trkpt>
      <trkpt lat="42.85587" lon="1.18062">
        <ele>851.6</ele>
        <time>2024-05-12T09:03:26Z</time>
      </trkpt>
      <trkpt lat="42.85588" lon="1.18063">
        <ele>852</ele>
        <time>2024-05-12T09:03:27Z</time>
      </trkpt>
      <trkpt lat="42.85589" lon="1.18063">
        <ele>852.6</ele>
        <time>2024-05-12T09:03:28Z</time>
      </trkpt>
      <trkpt lat="42.85591" lon="1.18064">
        <ele>853</ele>
        <time>2024-05-12T09:03:29Z</time>
      </trkpt>
      <trkpt lat="42.85593" lon="1.18065">
        <ele>853.4</ele>
        <time>2024-05-12T09:03:30Z</time>
      </trkpt>
      <trkpt lat="42.85594" lon="1.18065">
        <ele>853.8</ele>
        <time>2024-05-12T09:03:31Z</time>
      </trkpt>
      <trkpt lat="42.85596" lon="1.18066">
        <ele>854.2</ele>
        <time>2024-05-12T09:03:32Z</time>
      </trkpt>
      <trkpt lat="42.85599" lon="1.18066">
        <ele>854.8</ele>
        <time>2024-05-12T09:03:33Z</time>
      </trkpt>
      <trkpt lat="42.85601" lon="1.18067">
        <ele>855.2</ele>
        <time>2024-05-12T09:03:34Z</time>
      </trkpt>
      <trkpt lat="42.85603" lon="1.18067">
        <ele>855.6</ele>
        <time>2024-05-12T09:03:35Z</time>
      </trkpt>
      <trkpt lat="42.85605" lon="1.18067">
        <ele>856</ele>
        <time>2024-05-12T09:03:36Z</time>
      </trkpt>
      <trkpt lat="42.85606" lon="1.18067">
        <ele>856.6</ele>
        <time>2024-05-12T09:03:37Z</time>
      </trkpt>
      <trkpt lat="42.85611" lon="1.18068">
        <ele>857</ele>
        <time>2024-05-12T09:03:40Z</time>
      </trkpt>
      <trkpt lat="42.85613" lon="1.18068">
        <ele>857.4</ele>
        <time>2024-05-12T09:03:41Z</time>
      </trkpt>
      <trkpt lat="42.85615" lon="1.18069">
        <ele>857.8</ele>
        <time>2024-05-12T09:03:42Z</time>
      </trkpt>
      <trkpt lat="42.85617" lon="1.18069">
        <ele>858.2</ele>
        <time>2024-05-12T09:03:43Z</time>
      </trkpt>
      <trkpt lat="42.85619" lon="1.1807">
        <ele>858.6</ele>
        <time>2024-05-12T09:03:44Z</time>
      </trkpt>
      <trkpt lat="42.85621" lon="1.1807">
        <ele>858.6</ele>
        <time>2024-05-12T09:03:45Z</time>
      </trkpt>
      <trkpt lat="42.85627" lon="1.18071">
        <ele>859</ele>
        <time>2024-05-12T09:03:48Z</time>
      </trkpt>
      <trkpt lat="42.85629" lon="1.18071">
        <ele>859.4</ele>
        <time>2024-05-12T09:03:49Z</time>
      </trkpt>
      <trkpt lat="42.8563" lon="1.18072">
        <ele>860</ele>
        <time>2024-05-12T09:03:50Z</time>
      </trkpt>
      <trkpt lat="42.85632" lon="1.18073">
        <ele>860.4</ele>
        <time>2024-05-12T09:03:51Z</time>
      </trkpt>
      <trkpt lat="42.85633" lon="1.18073">
        <ele>860.8</ele>
        <time>2024-05-12T09:03:52Z</time>
      </trkpt>
      <trkpt lat="42.85637" lon="1.18074">
        <ele>861.2</ele>
        <time>2024-05-12T09:03:54Z</time>
      </trkpt>
      <trkpt lat="42.85638" lon="1.18075">
        <ele>861.6</ele>
        <time>2024-05-12T09:03:55Z</time>
      </trkpt>
      <trkpt lat="42.85639" lon="1.18075">
        <ele>862</ele>
        <time>2024-05-12T09:03:56Z</time>
      </trkpt>
      <trkpt lat="42.8564" lon="1.18075">
        <ele>862.4</ele>
        <time>2024-05-12T09:03:57Z</time>
      </trkpt>
      <trkpt lat="42.85642" lon="1.18075">
        <ele>862.8</ele>
        <time>2024-05-12T09:03:58Z</time>
      </trkpt>
      <trkpt lat="42.85647" lon="1.18076">
        <ele>863.2</ele>
        <time>2024-05-12T09:04:01Z</time>
      </trkpt>
      <trkpt lat="42.8565" lon="1.18077">
        <ele>863.6</ele>
        <time>2024-05-12T09:04:02Z</time>
      </trkpt>
      <trkpt lat="42.85651" lon="1.18077">
        <ele>864</ele>
        <time>2024-05-12T09:04:03Z</time>
      </trkpt>
      <trkpt lat="42.85654" lon="1.18078">
        <ele>864.4</ele>
        <time>2024-05-12T09:04:04Z</time>
      </trkpt>
      <trkpt lat="42.85656" lon="1.18078">
        <ele>864.8</ele>
        <time>2024-05-12T09:04:05Z</time>
      </trkpt>
      <trkpt lat="42.85659" lon="1.18079">
        <ele>864.8</ele>
        <time>2024-05-12T09:04:07Z</time>
      </trkpt>
      <trkpt lat="42.85661" lon="1.18079">
        <ele>865.4</ele>
        <time>2024-05-12T09:04:08Z</time>
      </trkpt>
      <trkpt lat="42.85662" lon="1.1808">
        <ele>865.8</ele>
        <time>2024-05-12T09:04:09Z</time>
      </trkpt>
      <trkpt lat="42.85664" lon="1.18081">
        <ele>866.2</ele>
        <time>2024-05-12T09:04:10Z</time>
      </trkpt>
      <trkpt lat="42.85666" lon="1.18082">
        <ele>866.6</ele>
        <time>2024-05-12T09:04:11Z</time>
      </trkpt>
      <trkpt lat="42.85668" lon="1.18082">
        <ele>867</ele>
        <time>2024-05-12T09:04:12Z</time>
      </trkpt>
      <trkpt lat="42.8567" lon="1.18083">
        <ele>867</ele>
        <time>2024-05-12T09:04:13Z</time>
      </trkpt>
      <trkpt lat="42.85672" lon="1.18084">
        <ele>867.6</ele>
        <time>2024-05-12T09:04:14Z</time>
      </trkpt>
      <trkpt lat="42.85674" lon="1.18084">
        <ele>868</ele>
        <time>2024-05-12T09:04:15Z</time>
      </trkpt>
      <trkpt lat="42.85675" lon="1.18085">
        <ele>868.4</ele>
        <time>2024-05-12T09:04:16Z</time>
      </trkpt>
      <trkpt lat="42.85677" lon="1.18085">
        <ele>868.8</ele>
        <time>2024-05-12T09:04:17Z</time>
      </trkpt>
      <trkpt lat="42.85678" lon="1.18086">
        <ele>869.6</ele>
        <time>2024-05-12T09:04:18Z</time>
      </trkpt>
      <trkpt lat="42.8568" lon="1.18087">
        <ele>870.2</ele>
        <time>2024-05-12T09:04:19Z</time>
      </trkpt>
      <trkpt lat="42.85681" lon="1.18088">
        <ele>870.6</ele>
        <time>2024-05-12T09:04:20Z</time>
      </trkpt>
      <trkpt lat="42.85683" lon="1.18089">
        <ele>871</ele>
        <time>2024-05-12T09:04:21Z</time>
      </trkpt>
      <trkpt lat="42.85685" lon="1.1809">
        <ele>871.4</ele>
        <time>2024-05-12T09:04:22Z</time>
      </trkpt>
      <trkpt lat="42.85687" lon="1.18091">
        <ele>871.8</ele>
        <time>2024-05-12T09:04:23Z</time>
      </trkpt>
      <trkpt lat="42.85688" lon="1.18092">
        <ele>872.4</ele>
        <time>2024-05-12T09:04:24Z</time>
      </trkpt>
      <trkpt lat="42.85689" lon="1.18093">
        <ele>872.8</ele>
        <time>2024-05-12T09:04:25Z</time>
      </trkpt>
      <trkpt lat="42.8569" lon="1.18094">
        <ele>873.2</ele>
        <time>2024-05-12T09:04:26Z</time>
      </trkpt>
      <trkpt lat="42.85691" lon="1.18094">
        <ele>873.8</ele>
        <time>2024-05-12T09:04:27Z</time>
      </trkpt>
      <trkpt lat="42.85693" lon="1.18093">
        <ele>873.8</ele>
        <time>2024-05-12T09:04:52Z</time>
      </trkpt>
      <trkpt lat="42.85695" lon="1.18093">
        <ele>873.8</ele>
        <time>2024-05-12T09:04:53Z</time>
      </trkpt>
      <trkpt lat="42.85709" lon="1.1809">
        <ele>873.8</ele>
        <time>2024-05-12T09:04:57Z</time>
      </trkpt>
      <trkpt lat="42.85719" lon="1.18087">
        <ele>873.8</ele>
        <time>2024-05-12T09:05:01Z</time>
      </trkpt>
      <trkpt lat="42.85726" lon="1.18086">
        <ele>873.8</ele>
        <time>2024-05-12T09:05:04Z</time>
      </trkpt>
      <trkpt lat="42.85732" lon="1.18082">
        <ele>873.8</ele>
        <time>2024-05-12T09:05:09Z</time>
      </trkpt>
      <trkpt lat="42.85737" lon="1.1808">
        <ele>873.8</ele>
        <time>2024-05-12T09:05:12Z</time>
      </trkpt>
      <trkpt lat="42.85741" lon="1.18079">
        <ele>873.8</ele>
        <time>2024-05-12T09:05:14Z</time>
      </trkpt>
      <trkpt lat="42.85744" lon="1.18077">
        <ele>873.8</ele>
        <time>2024-05-12T09:05:17Z</time>
      </trkpt>
      <trkpt lat="42.85761" lon="1.18078">
        <ele>875.8</ele>
        <time>2024-05-12T09:05:59Z</time>
      </trkpt>
      <trkpt lat="42.85763" lon="1.18075">
        <ele>875.8</ele>
        <time>2024-05-12T09:06:00Z</time>
      </trkpt>
      <trkpt lat="42.85776" lon="1.18067">
        <ele>875.8</ele>
        <time>2024-05-12T09:06:04Z</time>
      </trkpt>
      <trkpt lat="42.85789" lon="1.18062">
        <ele>875.8</ele>
        <time>2024-05-12T09:06:09Z</time>
      </trkpt>
      <trkpt lat="42.85796" lon="1.18057">
        <ele>875.8</ele>
        <time>2024-05-12T09:06:12Z</time>
      </trkpt>
      <trkpt lat="42.85801" lon="1.18057">
        <ele>875.8</ele>
        <time>2024-05-12T09:06:14Z</time>
      </trkpt>
      <trkpt lat="42.85815" lon="1.1805">
        <ele>875.8</ele>
        <time>2024-05-12T09:06:19Z</time>
      </trkpt>
      <trkpt lat="42.85828" lon="1.18045">
        <ele>875.8</ele>
        <time>2024-05-12T09:06:24Z</time>
      </trkpt>
      <trkpt lat="42.85842" lon="1.18049">
        <ele>875.8</ele>
        <time>2024-05-12T09:06:29Z</time>
      </trkpt>
      <trkpt lat="42.85847" lon="1.18057">
        <ele>875.4</ele>
        <time>2024-05-12T09:06:34Z</time>
      </trkpt>
      <trkpt lat="42.85849" lon="1.1806">
        <ele>874.8</ele>
        <time>2024-05-12T09:06:35Z</time>
      </trkpt>
      <trkpt lat="42.85851" lon="1.18062">
        <ele>874.4</ele>
        <time>2024-05-12T09:06:36Z</time>
      </trkpt>
      <trkpt lat="42.85854" lon="1.18065">
        <ele>874</ele>
        <time>2024-05-12T09:06:37Z</time>
      </trkpt>
      <trkpt lat="42.85857" lon="1.18069">
        <ele>873.6</ele>
        <time>2024-05-12T09:06:38Z</time>
      </trkpt>
      <trkpt lat="42.85863" lon="1.18074">
        <ele>873.6</ele>
        <time>2024-05-12T09:06:39Z</time>
      </trkpt>
      <trkpt lat="42.85872" lon="1.18082">
        <ele>873.6</ele>
        <time>2024-05-12T09:06:41Z</time>
      </trkpt>
      <trkpt lat="42.85876" lon="1.18085">
        <ele>873.2</ele>
        <time>2024-05-12T09:06:42Z</time>
      </trkpt>
      <trkpt lat="42.8588" lon="1.18088">
        <ele>872.8</ele>
        <time>2024-05-12T09:06:43Z</time>
      </trkpt>
      <trkpt lat="42.85885" lon="1.18091">
        <ele>872.4</ele>
        <time>2024-05-12T09:06:44Z</time>
      </trkpt>
      <trkpt lat="42.8589" lon="1.18093">
        <ele>871.8</ele>
        <time>2024-05-12T09:06:45Z</time>
      </trkpt>
      <trkpt lat="42.85894" lon="1.18096">
        <ele>871.4</ele>
        <time>2024-05-12T09:06:46Z</time>
      </trkpt>
      <trkpt lat="42.85904" lon="1.18101">
        <ele>871.4</ele>
        <time>2024-05-12T09:06:49Z</time>
      </trkpt>
      <trkpt lat="42.8593" lon="1.18109">
        <ele>871.4</ele>
        <time>2024-05-12T09:06:57Z</time>
      </trkpt>
      <trkpt lat="42.85936" lon="1.1811">
        <ele>871</ele>
        <time>2024-05-12T09:06:58Z</time>
      </trkpt>
      <trkpt lat="42.85941" lon="1.18111">
        <ele>870.6</ele>
        <time>2024-05-12T09:06:59Z</time>
      </trkpt>
      <trkpt lat="42.8595" lon="1.18114">
        <ele>870.2</ele>
        <time>2024-05-12T09:07:00Z</time>
      </trkpt>
      <trkpt lat="42.85956" lon="1.18116">
        <ele>869.8</ele>
        <time>2024-05-12T09:07:01Z</time>
      </trkpt>
      <trkpt lat="42.85964" lon="1.18118">
        <ele>869.4</ele>
        <time>2024-05-12T09:07:02Z</time>
      </trkpt>
      <trkpt lat="42.85997" lon="1.18128">
        <ele>869.4</ele>
        <time>2024-05-12T09:07:08Z</time>
      </trkpt>
      <trkpt lat="42.86001" lon="1.18128">
        <ele>869</ele>
        <time>2024-05-12T09:07:09Z</time>
      </trkpt>
      <trkpt lat="42.86006" lon="1.18128">
        <ele>868.6</ele>
        <time>2024-05-12T09:07:10Z</time>
      </trkpt>
      <trkpt lat="42.86012" lon="1.18129">
        <ele>867.8</ele>
        <time>2024-05-12T09:07:11Z</time>
      </trkpt>
      <trkpt lat="42.86018" lon="1.18131">
        <ele>867.4</ele>
        <time>2024-05-12T09:07:12Z</time>
      </trkpt>
      <trkpt lat="42.86034" lon="1.18135">
        <ele>867.4</ele>
        <time>2024-05-12T09:07:15Z</time>
      </trkpt>
      <trkpt lat="42.86048" lon="1.18141">
        <ele>867.4</ele>
        <time>2024-05-12T09:07:19Z</time>
      </trkpt>
      <trkpt lat="42.86058" lon="1.18144">
        <ele>867</ele>
        <time>2024-05-12T09:07:22Z</time>
      </trkpt>
      <trkpt lat="42.86061" lon="1.18145">
        <ele>866.6</ele>
        <time>2024-05-12T09:07:23Z</time>
      </trkpt>
      <trkpt lat="42.86065" lon="1.18147">
        <ele>866.2</ele>
        <time>2024-05-12T09:07:24Z</time>
      </trkpt>
      <trkpt lat="42.8607" lon="1.18151">
        <ele>865.6</ele>
        <time>2024-05-12T09:07:25Z</time>
      </trkpt>
      <trkpt lat="42.86075" lon="1.18157">
        <ele>865.2</ele>
        <time>2024-05-12T09:07:26Z</time>
      </trkpt>
      <trkpt lat="42.8608" lon="1.18162">
        <ele>865.2</ele>
        <time>2024-05-12T09:07:27Z</time>
      </trkpt>
      <trkpt lat="42.86095" lon="1.1818">
        <ele>865.2</ele>
        <time>2024-05-12T09:07:32Z</time>
      </trkpt>
      <trkpt lat="42.86107" lon="1.18197">
        <ele>865.6</ele>
        <time>2024-05-12T09:07:37Z</time>
      </trkpt>
      <trkpt lat="42.86109" lon="1.182">
        <ele>866.2</ele>
        <time>2024-05-12T09:07:38Z</time>
      </trkpt>
      <trkpt lat="42.86113" lon="1.18204">
        <ele>866.6</ele>
        <time>2024-05-12T09:07:39Z</time>
      </trkpt>
      <trkpt lat="42.86117" lon="1.18208">
        <ele>867</ele>
        <time>2024-05-12T09:07:40Z</time>
      </trkpt>
      <trkpt lat="42.86118" lon="1.18211">
        <ele>867.4</ele>
        <time>2024-05-12T09:07:41Z</time>
      </trkpt>
      <trkpt lat="42.8612" lon="1.18214">
        <ele>867.8</ele>
        <time>2024-05-12T09:07:42Z</time>
      </trkpt>
      <trkpt lat="42.86121" lon="1.18217">
        <ele>868.4</ele>
        <time>2024-05-12T09:07:43Z</time>
      </trkpt>
      <trkpt lat="42.86123" lon="1.18221">
        <ele>868.8</ele>
        <time>2024-05-12T09:07:44Z</time>
      </trkpt>
      <trkpt lat="42.86124" lon="1.18224">
        <ele>869.2</ele>
        <time>2024-05-12T09:07:45Z</time>
      </trkpt>
      <trkpt lat="42.86125" lon="1.18227">
        <ele>869.6</ele>
        <time>2024-05-12T09:07:46Z</time>
      </trkpt>
      <trkpt lat="42.86126" lon="1.18229">
        <ele>869.6</ele>
        <time>2024-05-12T09:07:47Z</time>
      </trkpt>
      <trkpt lat="42.86129" lon="1.18239">
        <ele>869.6</ele>
        <time>2024-05-12T09:07:51Z</time>
      </trkpt>
      <trkpt lat="42.86134" lon="1.18249">
        <ele>870.2</ele>
        <time>2024-05-12T09:07:55Z</time>
      </trkpt>
      <trkpt lat="42.86136" lon="1.18252">
        <ele>870.6</ele>
        <time>2024-05-12T09:07:56Z</time>
      </trkpt>
      <trkpt lat="42.86137" lon="1.18255">
        <ele>871</ele>
        <time>2024-05-12T09:07:57Z</time>
      </trkpt>
      <trkpt lat="42.86139" lon="1.18258">
        <ele>871.4</ele>
        <time>2024-05-12T09:07:58Z</time>
      </trkpt>
      <trkpt lat="42.8614" lon="1.18263">
        <ele>871.8</ele>
        <time>2024-05-12T09:07:59Z</time>
      </trkpt>
      <trkpt lat="42.86147" lon="1.18276">
        <ele>871.8</ele>
        <time>2024-05-12T09:08:02Z</time>
      </trkpt>
      <trkpt lat="42.86149" lon="1.18287">
        <ele>871.8</ele>
        <time>2024-05-12T09:08:05Z</time>
      </trkpt>
      <trkpt lat="42.86152" lon="1.18298">
        <ele>871.8</ele>
        <time>2024-05-12T09:08:08Z</time>
      </trkpt>
      <trkpt lat="42.86154" lon="1.18304">
        <ele>871.8</ele>
        <time>2024-05-12T09:08:09Z</time>
      </trkpt>
      <trkpt lat="42.86157" lon="1.18318">
        <ele>871.8</ele>
        <time>2024-05-12T09:08:12Z</time>
      </trkpt>
      <trkpt lat="42.86157" lon="1.18322">
        <ele>871.8</ele>
        <time>2024-05-12T09:08:13Z</time>
      </trkpt>
      <trkpt lat="42.86157" lon="1.18332">
        <ele>872.2</ele>
        <time>2024-05-12T09:08:16Z</time>
      </trkpt>
      <trkpt lat="42.86155" lon="1.18336">
        <ele>872.6</ele>
        <time>2024-05-12T09:08:17Z</time>
      </trkpt>
      <trkpt lat="42.86155" lon="1.1834">
        <ele>873.2</ele>
        <time>2024-05-12T09:08:18Z</time>
      </trkpt>
      <trkpt lat="42.86154" lon="1.18345">
        <ele>873.6</ele>
        <time>2024-05-12T09:08:19Z</time>
      </trkpt>
      <trkpt lat="42.86154" lon="1.18348">
        <ele>874</ele>
        <time>2024-05-12T09:08:20Z</time>
      </trkpt>
      <trkpt lat="42.86152" lon="1.18355">
        <ele>874</ele>
        <time>2024-05-12T09:08:22Z</time>
      </trkpt>
      <trkpt lat="42.8615" lon="1.18374">
        <ele>873.6</ele>
        <time>2024-05-12T09:08:26Z</time>
      </trkpt>
      <trkpt lat="42.86149" lon="1.18378">
        <ele>873</ele>
        <time>2024-05-12T09:08:27Z</time>
      </trkpt>
      <trkpt lat="42.86148" lon="1.18383">
        <ele>872.4</ele>
        <time>2024-05-12T09:08:28Z</time>
      </trkpt>
      <trkpt lat="42.86147" lon="1.18387">
        <ele>872</ele>
        <time>2024-05-12T09:08:29Z</time>
      </trkpt>
      <trkpt lat="42.86145" lon="1.18394">
        <ele>871.4</ele>
        <time>2024-05-12T09:08:30Z</time>
      </trkpt>
      <trkpt lat="42.86143" lon="1.18406">
        <ele>871.4</ele>
        <time>2024-05-12T09:08:32Z</time>
      </trkpt>
      <trkpt lat="42.86154" lon="1.18452">
        <ele>871.4</ele>
        <time>2024-05-12T09:08:37Z</time>
      </trkpt>
      <trkpt lat="42.86153" lon="1.18457">
        <ele>871</ele>
        <time>2024-05-12T09:08:38Z</time>
      </trkpt>
      <trkpt lat="42.86152" lon="1.18462">
        <ele>870.4</ele>
        <time>2024-05-12T09:08:39Z</time>
      </trkpt>
      <trkpt lat="42.86152" lon="1.18467">
        <ele>870</ele>
        <time>2024-05-12T09:08:40Z</time>
      </trkpt>
      <trkpt lat="42.86153" lon="1.18477">
        <ele>869.4</ele>
        <time>2024-05-12T09:08:41Z</time>
      </trkpt>
      <trkpt lat="42.86153" lon="1.18483">
        <ele>869</ele>
        <time>2024-05-12T09:08:42Z</time>
      </trkpt>
      <trkpt lat="42.86151" lon="1.18509">
        <ele>869</ele>
        <time>2024-05-12T09:08:46Z</time>
      </trkpt>
      <trkpt lat="42.86152" lon="1.18524">
        <ele>868.6</ele>
        <time>2024-05-12T09:08:48Z</time>
      </trkpt>
      <trkpt lat="42.86152" lon="1.18533">
        <ele>868.2</ele>
        <time>2024-05-12T09:08:49Z</time>
      </trkpt>
      <trkpt lat="42.86151" lon="1.18541">
        <ele>867.2</ele>
        <time>2024-05-12T09:08:50Z</time>
      </trkpt>
      <trkpt lat="42.86149" lon="1.18549">
        <ele>866.6</ele>
        <time>2024-05-12T09:08:51Z</time>
      </trkpt>
      <trkpt lat="42.86148" lon="1.18557">
        <ele>866</ele>
        <time>2024-05-12T09:08:52Z</time>
      </trkpt>
      <trkpt lat="42.86146" lon="1.18564">
        <ele>865.4</ele>
        <time>2024-05-12T09:08:53Z</time>
      </trkpt>
      <trkpt lat="42.86145" lon="1.18571">
        <ele>864.8</ele>
        <time>2024-05-12T09:08:54Z</time>
      </trkpt>
      <trkpt lat="42.86144" lon="1.18577">
        <ele>864.2</ele>
        <time>2024-05-12T09:08:55Z</time>
      </trkpt>
      <trkpt lat="42.86142" lon="1.18583">
        <ele>863.8</ele>
        <time>2024-05-12T09:08:56Z</time>
      </trkpt>
      <trkpt lat="42.8614" lon="1.1859">
        <ele>863.2</ele>
        <time>2024-05-12T09:08:57Z</time>
      </trkpt>
      <trkpt lat="42.86139" lon="1.18595">
        <ele>862.6</ele>
        <time>2024-05-12T09:08:58Z</time>
      </trkpt>
      <trkpt lat="42.86137" lon="1.18601">
        <ele>862.2</ele>
        <time>2024-05-12T09:08:59Z</time>
      </trkpt>
      <trkpt lat="42.86135" lon="1.18606">
        <ele>861.8</ele>
        <time>2024-05-12T09:09:00Z</time>
      </trkpt>
      <trkpt lat="42.86132" lon="1.18611">
        <ele>861.2</ele>
        <time>2024-05-12T09:09:01Z</time>
      </trkpt>
      <trkpt lat="42.86128" lon="1.18617">
        <ele>860.6</ele>
        <time>2024-05-12T09:09:02Z</time>
      </trkpt>
      <trkpt lat="42.86124" lon="1.1862">
        <ele>859.8</ele>
        <time>2024-05-12T09:09:03Z</time>
      </trkpt>
      <trkpt lat="42.8612" lon="1.18624">
        <ele>859</ele>
        <time>2024-05-12T09:09:04Z</time>
      </trkpt>
      <trkpt lat="42.86116" lon="1.18627">
        <ele>858.4</ele>
        <time>2024-05-12T09:09:05Z</time>
      </trkpt>
      <trkpt lat="42.86112" lon="1.1863">
        <ele>857.6</ele>
        <time>2024-05-12T09:09:06Z</time>
      </trkpt>
      <trkpt lat="42.86109" lon="1.18634">
        <ele>857</ele>
        <time>2024-05-12T09:09:07Z</time>
      </trkpt>
      <trkpt lat="42.86106" lon="1.18638">
        <ele>856</ele>
        <time>2024-05-12T09:09:08Z</time>
      </trkpt>
      <trkpt lat="42.86103" lon="1.18643">
        <ele>855.2</ele>
        <time>2024-05-12T09:09:09Z</time>
      </trkpt>
      <trkpt lat="42.86101" lon="1.18647">
        <ele>854.2</ele>
        <time>2024-05-12T09:09:10Z</time>
      </trkpt>
      <trkpt lat="42.861" lon="1.18652">
        <ele>853.2</ele>
        <time>2024-05-12T09:09:11Z</time>
      </trkpt>
      <trkpt lat="42.86098" lon="1.18657">
        <ele>852</ele>
        <time>2024-05-12T09:09:12Z</time>
      </trkpt>
      <trkpt lat="42.86096" lon="1.18662">
        <ele>851</ele>
        <time>2024-05-12T09:09:13Z</time>
      </trkpt>
      <trkpt lat="42.86095" lon="1.18667">
        <ele>849.8</ele>
        <time>2024-05-12T09:09:14Z</time>
      </trkpt>
      <trkpt lat="42.86094" lon="1.18672">
        <ele>847.8</ele>
        <time>2024-05-12T09:09:15Z</time>
      </trkpt>
      <trkpt lat="42.86092" lon="1.18676">
        <ele>846.8</ele>
        <time>2024-05-12T09:09:16Z</time>
      </trkpt>
      <trkpt lat="42.8609" lon="1.1868">
        <ele>845.8</ele>
        <time>2024-05-12T09:09:17Z</time>
      </trkpt>
      <trkpt lat="42.86088" lon="1.18685">
        <ele>844.8</ele>
        <time>2024-05-12T09:09:18Z</time>
      </trkpt>
      <trkpt lat="42.86086" lon="1.1869">
        <ele>843.8</ele>
        <time>2024-05-12T09:09:19Z</time>
      </trkpt>
      <trkpt lat="42.86084" lon="1.18694">
        <ele>842.8</ele>
        <time>2024-05-12T09:09:20Z</time>
      </trkpt>
      <trkpt lat="42.86081" lon="1.18697">
        <ele>841.8</ele>
        <time>2024-05-12T09:09:21Z</time>
      </trkpt>
      <trkpt lat="42.86079" lon="1.18701">
        <ele>841</ele>
        <time>2024-05-12T09:09:22Z</time>
      </trkpt>
      <trkpt lat="42.86075" lon="1.18707">
        <ele>840</ele>
        <time>2024-05-12T09:09:23Z</time>
      </trkpt>
      <trkpt lat="42.86072" lon="1.18711">
        <ele>839.2</ele>
        <time>2024-05-12T09:09:24Z</time>
      </trkpt>
      <trkpt lat="42.86071" lon="1.18716">
        <ele>838.4</ele>
        <time>2024-05-12T09:09:25Z</time>
      </trkpt>
      <trkpt lat="42.86068" lon="1.18721">
        <ele>837.6</ele>
        <time>2024-05-12T09:09:26Z</time>
      </trkpt>
      <trkpt lat="42.86066" lon="1.18724">
        <ele>836.8</ele>
        <time>2024-05-12T09:09:27Z</time>
      </trkpt>
      <trkpt lat="42.86064" lon="1.18729">
        <ele>836</ele>
        <time>2024-05-12T09:09:28Z</time>
      </trkpt>
      <trkpt lat="42.86062" lon="1.18733">
        <ele>835.2</ele>
        <time>2024-05-12T09:09:29Z</time>
      </trkpt>
      <trkpt lat="42.8606" lon="1.18735">
        <ele>834.6</ele>
        <time>2024-05-12T09:09:30Z</time>
      </trkpt>
      <trkpt lat="42.86058" lon="1.18739">
        <ele>833.8</ele>
        <time>2024-05-12T09:09:31Z</time>
      </trkpt>
      <trkpt lat="42.86056" lon="1.18742">
        <ele>833</ele>
        <time>2024-05-12T09:09:32Z</time>
      </trkpt>
      <trkpt lat="42.86053" lon="1.18745">
        <ele>832.2</ele>
        <time>2024-05-12T09:09:33Z</time>
      </trkpt>
      <trkpt lat="42.8605" lon="1.18747">
        <ele>831.6</ele>
        <time>2024-05-12T09:09:34Z</time>
      </trkpt>
      <trkpt lat="42.86048" lon="1.1875">
        <ele>830.6</ele>
        <time>2024-05-12T09:09:35Z</time>
      </trkpt>
      <trkpt lat="42.86045" lon="1.18751">
        <ele>829.8</ele>
        <time>2024-05-12T09:09:36Z</time>
      </trkpt>
      <trkpt lat="42.86044" lon="1.18753">
        <ele>828.8</ele>
        <time>2024-05-12T09:09:37Z</time>
      </trkpt>
      <trkpt lat="42.86042" lon="1.18755">
        <ele>828.2</ele>
        <time>2024-05-12T09:09:38Z</time>
      </trkpt>
      <trkpt lat="42.86042" lon="1.18756">
        <ele>826.6</ele>
        <time>2024-05-12T09:09:39Z</time>
      </trkpt>
      <trkpt lat="42.86043" lon="1.18762">
        <ele>824.6</ele>
        <time>2024-05-12T09:09:42Z</time>
      </trkpt>
      <trkpt lat="42.86044" lon="1.18763">
        <ele>824.2</ele>
        <time>2024-05-12T09:09:43Z</time>
      </trkpt>
      <trkpt lat="42.86045" lon="1.18767">
        <ele>823.4</ele>
        <time>2024-05-12T09:09:44Z</time>
      </trkpt>
      <trkpt lat="42.86046" lon="1.1877">
        <ele>822.8</ele>
        <time>2024-05-12T09:09:45Z</time>
      </trkpt>
      <trkpt lat="42.86048" lon="1.18773">
        <ele>822</ele>
        <time>2024-05-12T09:09:46Z</time>
      </trkpt>
      <trkpt lat="42.86049" lon="1.18775">
        <ele>821</ele>
        <time>2024-05-12T09:09:47Z</time>
      </trkpt>
      <trkpt lat="42.86051" lon="1.18776">
        <ele>820.2</ele>
        <time>2024-05-12T09:09:48Z</time>
      </trkpt>
      <trkpt lat="42.86052" lon="1.18777">
        <ele>819.2</ele>
        <time>2024-05-12T09:09:49Z</time>
      </trkpt>
      <trkpt lat="42.86052" lon="1.18778">
        <ele>818.6</ele>
        <time>2024-05-12T09:09:50Z</time>
      </trkpt>
      <trkpt lat="42.86052" lon="1.1878">
        <ele>818</ele>
        <time>2024-05-12T09:09:51Z</time>
      </trkpt>
      <trkpt lat="42.86051" lon="1.18782">
        <ele>817.4</ele>
        <time>2024-05-12T09:09:52Z</time>
      </trkpt>
      <trkpt lat="42.8605" lon="1.18783">
        <ele>816.8</ele>
        <time>2024-05-12T09:09:53Z</time>
      </trkpt>
      <trkpt lat="42.86049" lon="1.18786">
        <ele>816.2</ele>
        <time>2024-05-12T09:09:54Z</time>
      </trkpt>
      <trkpt lat="42.86048" lon="1.18789">
        <ele>815.8</ele>
        <time>2024-05-12T09:09:55Z</time>
      </trkpt>
      <trkpt lat="42.86046" lon="1.18791">
        <ele>815.4</ele>
        <time>2024-05-12T09:09:56Z</time>
      </trkpt>
      <trkpt lat="42.86044" lon="1.18793">
        <ele>815</ele>
        <time>2024-05-12T09:09:57Z</time>
      </trkpt>
      <trkpt lat="42.86044" lon="1.18794">
        <ele>814.6</ele>
        <time>2024-05-12T09:09:58Z</time>
      </trkpt>
      <trkpt lat="42.86043" lon="1.18797">
        <ele>814.2</ele>
        <time>2024-05-12T09:09:59Z</time>
      </trkpt>
      <trkpt lat="42.86042" lon="1.18798">
        <ele>814.2</ele>
        <time>2024-05-12T09:10:00Z</time>
      </trkpt>
      <trkpt lat="42.86053" lon="1.18802">
        <ele>812.6</ele>
        <time>2024-05-12T09:13:15Z</time>
      </trkpt>
      <trkpt lat="42.86055" lon="1.18801">
        <ele>812.6</ele>
        <time>2024-05-12T09:13:16Z</time>
      </trkpt>
      <trkpt lat="42.86058" lon="1.188">
        <ele>812.6</ele>
        <time>2024-05-12T09:13:18Z</time>
      </trkpt>
      <trkpt lat="42.86069" lon="1.18803">
        <ele>811</ele>
        <time>2024-05-12T09:16:22Z</time>
      </trkpt>
      <trkpt lat="42.86072" lon="1.18802">
        <ele>811</ele>
        <time>2024-05-12T09:16:23Z</time>
      </trkpt>
      <trkpt lat="42.86077" lon="1.18799">
        <ele>810.6</ele>
        <time>2024-05-12T09:16:25Z</time>
      </trkpt>
      <trkpt lat="42.8608" lon="1.18797">
        <ele>810</ele>
        <time>2024-05-12T09:16:26Z</time>
      </trkpt>
      <trkpt lat="42.86083" lon="1.18794">
        <ele>809.6</ele>
        <time>2024-05-12T09:16:27Z</time>
      </trkpt>
      <trkpt lat="42.86087" lon="1.18792">
        <ele>809.2</ele>
        <time>2024-05-12T09:16:28Z</time>
      </trkpt>
      <trkpt lat="42.86091" lon="1.18788">
        <ele>808.8</ele>
        <time>2024-05-12T09:16:29Z</time>
      </trkpt>
      <trkpt lat="42.86097" lon="1.18783">
        <ele>808.8</ele>
        <time>2024-05-12T09:16:30Z</time>
      </trkpt>
      <trkpt lat="42.86101" lon="1.18781">
        <ele>808.2</ele>
        <time>2024-05-12T09:16:31Z</time>
      </trkpt>
      <trkpt lat="42.86105" lon="1.18779">
        <ele>807.8</ele>
        <time>2024-05-12T09:16:32Z</time>
      </trkpt>
      <trkpt lat="42.86109" lon="1.18776">
        <ele>807.4</ele>
        <time>2024-05-12T09:16:33Z</time>
      </trkpt>
      <trkpt lat="42.86112" lon="1.18774">
        <ele>807</ele>
        <time>2024-05-12T09:16:34Z</time>
      </trkpt>
      <trkpt lat="42.86116" lon="1.18769">
        <ele>806.6</ele>
        <time>2024-05-12T09:16:35Z</time>
      </trkpt>
      <trkpt lat="42.86118" lon="1.18767">
        <ele>806.6</ele>
        <time>2024-05-12T09:16:36Z</time>
      </trkpt>
      <trkpt lat="42.86122" lon="1.18763">
        <ele>805.6</ele>
        <time>2024-05-12T09:16:38Z</time>
      </trkpt>
      <trkpt lat="42.86124" lon="1.1876">
        <ele>805.2</ele>
        <time>2024-05-12T09:16:39Z</time>
      </trkpt>
      <trkpt lat="42.86126" lon="1.18758">
        <ele>804.8</ele>
        <time>2024-05-12T09:16:40Z</time>
      </trkpt>
      <trkpt lat="42.86128" lon="1.18755">
        <ele>804.2</ele>
        <time>2024-05-12T09:16:41Z</time>
      </trkpt>
      <trkpt lat="42.86133" lon="1.18754">
        <ele>803.8</ele>
        <time>2024-05-12T09:16:43Z</time>
      </trkpt>
      <trkpt lat="42.86137" lon="1.18753">
        <ele>803.2</ele>
        <time>2024-05-12T09:16:44Z</time>
      </trkpt>
      <trkpt lat="42.8614" lon="1.18753">
        <ele>802.6</ele>
        <time>2024-05-12T09:16:45Z</time>
      </trkpt>
      <trkpt lat="42.86143" lon="1.18753">
        <ele>802</ele>
        <time>2024-05-12T09:16:46Z</time>
      </trkpt>
      <trkpt lat="42.86144" lon="1.18753">
        <ele>801.2</ele>
        <time>2024-05-12T09:16:47Z</time>
      </trkpt>
      <trkpt lat="42.86145" lon="1.18752">
        <ele>800.6</ele>
        <time>2024-05-12T09:16:48Z</time>
      </trkpt>
      <trkpt lat="42.86147" lon="1.18752">
        <ele>800</ele>
        <time>2024-05-12T09:16:49Z</time>
      </trkpt>
      <trkpt lat="42.86148" lon="1.18752">
        <ele>799.2</ele>
        <time>2024-05-12T09:16:50Z</time>
      </trkpt>
      <trkpt lat="42.86151" lon="1.18753">
        <ele>799.2</ele>
        <time>2024-05-12T09:16:54Z</time>
      </trkpt>
      <trkpt lat="42.86149" lon="1.18754">
        <ele>797.2</ele>
        <time>2024-05-12T09:17:03Z</time>
      </trkpt>
      <trkpt lat="42.86148" lon="1.18756">
        <ele>797.2</ele>
        <time>2024-05-12T09:17:05Z</time>
      </trkpt>
      <trkpt lat="42.86147" lon="1.18758">
        <ele>796.6</ele>
        <time>2024-05-12T09:17:06Z</time>
      </trkpt>
      <trkpt lat="42.86147" lon="1.18758">
        <ele>796.2</ele>
        <time>2024-05-12T09:17:07Z</time>
      </trkpt>
      <trkpt lat="42.86147" lon="1.18759">
        <ele>795.8</ele>
        <time>2024-05-12T09:17:08Z</time>
      </trkpt>
      <trkpt lat="42.86147" lon="1.18763">
        <ele>794.8</ele>
        <time>2024-05-12T09:17:10Z</time>
      </trkpt>
      <trkpt lat="42.86147" lon="1.18767">
        <ele>794.8</ele>
        <time>2024-05-12T09:17:11Z</time>
      </trkpt>
      <trkpt lat="42.86143" lon="1.18778">
        <ele>794.4</ele>
        <time>2024-05-12T09:17:15Z</time>
      </trkpt>
      <trkpt lat="42.86142" lon="1.1878">
        <ele>794</ele>
        <time>2024-05-12T09:17:16Z</time>
      </trkpt>
      <trkpt lat="42.86142" lon="1.1878">
        <ele>793.6</ele>
        <time>2024-05-12T09:17:17Z</time>
      </trkpt>
      <trkpt lat="42.86142" lon="1.18785">
        <ele>792.8</ele>
        <time>2024-05-12T09:17:28Z</time>
      </trkpt>
      <trkpt lat="42.86142" lon="1.18786">
        <ele>792.8</ele>
        <time>2024-05-12T09:17:29Z</time>
      </trkpt>
      <trkpt lat="42.86142" lon="1.18787">
        <ele>792.4</ele>
        <time>2024-05-12T09:17:30Z</time>
      </trkpt>
      <trkpt lat="42.86142" lon="1.18788">
        <ele>792</ele>
        <time>2024-05-12T09:17:31Z</time>
      </trkpt>
      <trkpt lat="42.86145" lon="1.18786">
        <ele>790.6</ele>
        <time>2024-05-12T09:17:37Z</time>
      </trkpt>
      <trkpt lat="42.86147" lon="1.18783">
        <ele>790.6</ele>
        <time>2024-05-12T09:17:38Z</time>
      </trkpt>
      <trkpt lat="42.8615" lon="1.1878">
        <ele>790.2</ele>
        <time>2024-05-12T09:17:39Z</time>
      </trkpt>
      <trkpt lat="42.86154" lon="1.18775">
        <ele>789.8</ele>
        <time>2024-05-12T09:17:40Z</time>
      </trkpt>
      <trkpt lat="42.86158" lon="1.18773">
        <ele>789.4</ele>
        <time>2024-05-12T09:17:41Z</time>
      </trkpt>
      <trkpt lat="42.86161" lon="1.18774">
        <ele>789</ele>
        <time>2024-05-12T09:17:42Z</time>
      </trkpt>
      <trkpt lat="42.86163" lon="1.18776">
        <ele>788.4</ele>
        <time>2024-05-12T09:17:43Z</time>
      </trkpt>
      <trkpt lat="42.86166" lon="1.18777">
        <ele>788</ele>
        <time>2024-05-12T09:17:44Z</time>
      </trkpt>
      <trkpt lat="42.86168" lon="1.18778">
        <ele>787.4</ele>
        <time>2024-05-12T09:17:45Z</time>
      </trkpt>
      <trkpt lat="42.8617" lon="1.18778">
        <ele>786.8</ele>
        <time>2024-05-12T09:17:46Z</time>
      </trkpt>
      <trkpt lat="42.86172" lon="1.18778">
        <ele>786.2</ele>
        <time>2024-05-12T09:17:47Z</time>
      </trkpt>
      <trkpt lat="42.86176" lon="1.18776">
        <ele>785.6</ele>
        <time>2024-05-12T09:17:48Z</time>
      </trkpt>
      <trkpt lat="42.86179" lon="1.18774">
        <ele>784.6</ele>
        <time>2024-05-12T09:17:49Z</time>
      </trkpt>
      <trkpt lat="42.86183" lon="1.18772">
        <ele>783.8</ele>
        <time>2024-05-12T09:17:50Z</time>
      </trkpt>
      <trkpt lat="42.86188" lon="1.1877">
        <ele>782.2</ele>
        <time>2024-05-12T09:17:51Z</time>
      </trkpt>
      <trkpt lat="42.86192" lon="1.18767">
        <ele>781.2</ele>
        <time>2024-05-12T09:17:52Z</time>
      </trkpt>
      <trkpt lat="42.86197" lon="1.18764">
        <ele>780.2</ele>
        <time>2024-05-12T09:17:53Z</time>
      </trkpt>
      <trkpt lat="42.86202" lon="1.1876">
        <ele>779.2</ele>
        <time>2024-05-12T09:17:54Z</time>
      </trkpt>
      <trkpt lat="42.86206" lon="1.18756">
        <ele>778.2</ele>
        <time>2024-05-12T09:17:55Z</time>
      </trkpt>
      <trkpt lat="42.86209" lon="1.18751">
        <ele>777.2</ele>
        <time>2024-05-12T09:17:56Z</time>
      </trkpt>
      <trkpt lat="42.86213" lon="1.18746">
        <ele>776.2</ele>
        <time>2024-05-12T09:17:57Z</time>
      </trkpt>
      <trkpt lat="42.86219" lon="1.18737">
        <ele>775</ele>
        <time>2024-05-12T09:17:58Z</time>
      </trkpt>
      <trkpt lat="42.86223" lon="1.18732">
        <ele>773.8</ele>
        <time>2024-05-12T09:17:59Z</time>
      </trkpt>
      <trkpt lat="42.86227" lon="1.18727">
        <ele>772.8</ele>
        <time>2024-05-12T09:18:00Z</time>
      </trkpt>
      <trkpt lat="42.8623" lon="1.18724">
        <ele>771.6</ele>
        <time>2024-05-12T09:18:01Z</time>
      </trkpt>
      <trkpt lat="42.86233" lon="1.1872">
        <ele>770.4</ele>
        <time>2024-05-12T09:18:02Z</time>
      </trkpt>
      <trkpt lat="42.86236" lon="1.18714">
        <ele>769.4</ele>
        <time>2024-05-12T09:18:03Z</time>
      </trkpt>
      <trkpt lat="42.8624" lon="1.1871">
        <ele>768.4</ele>
        <time>2024-05-12T09:18:04Z</time>
      </trkpt>
      <trkpt lat="42.86243" lon="1.18703">
        <ele>767.6</ele>
        <time>2024-05-12T09:18:05Z</time>
      </trkpt>
      <trkpt lat="42.86246" lon="1.18701">
        <ele>766.6</ele>
        <time>2024-05-12T09:18:06Z</time>
      </trkpt>
      <trkpt lat="42.86247" lon="1.18699">
        <ele>765.8</ele>
        <time>2024-05-12T09:18:07Z</time>
      </trkpt>
      <trkpt lat="42.86248" lon="1.18697">
        <ele>765</ele>
        <time>2024-05-12T09:18:08Z</time>
      </trkpt>
      <trkpt lat="42.86249" lon="1.18696">
        <ele>764.2</ele>
        <time>2024-05-12T09:18:09Z</time>
      </trkpt>
      <trkpt lat="42.86249" lon="1.18695">
        <ele>763.2</ele>
        <time>2024-05-12T09:18:10Z</time>
      </trkpt>
      <trkpt lat="42.86253" lon="1.18693">
        <ele>762.4</ele>
        <time>2024-05-12T09:18:37Z</time>
      </trkpt>
      <trkpt lat="42.86252" lon="1.18696">
        <ele>762.4</ele>
        <time>2024-05-12T09:18:38Z</time>
      </trkpt>
      <trkpt lat="42.86251" lon="1.18705">
        <ele>762</ele>
        <time>2024-05-12T09:18:40Z</time>
      </trkpt>
      <trkpt lat="42.8625" lon="1.18709">
        <ele>761</ele>
        <time>2024-05-12T09:18:41Z</time>
      </trkpt>
      <trkpt lat="42.86248" lon="1.18713">
        <ele>760.6</ele>
        <time>2024-05-12T09:18:42Z</time>
      </trkpt>
      <trkpt lat="42.86247" lon="1.18718">
        <ele>760</ele>
        <time>2024-05-12T09:18:43Z</time>
      </trkpt>
      <trkpt lat="42.86246" lon="1.18724">
        <ele>759.4</ele>
        <time>2024-05-12T09:18:44Z</time>
      </trkpt>
      <trkpt lat="42.86245" lon="1.1873">
        <ele>758.8</ele>
        <time>2024-05-12T09:18:45Z</time>
      </trkpt>
      <trkpt lat="42.86243" lon="1.18734">
        <ele>758.2</ele>
        <time>2024-05-12T09:18:46Z</time>
      </trkpt>
      <trkpt lat="42.8624" lon="1.18739">
        <ele>757.6</ele>
        <time>2024-05-12T09:18:47Z</time>
      </trkpt>
      <trkpt lat="42.86237" lon="1.18741">
        <ele>756.8</ele>
        <time>2024-05-12T09:18:48Z</time>
      </trkpt>
      <trkpt lat="42.86236" lon="1.18743">
        <ele>756.2</ele>
        <time>2024-05-12T09:18:49Z</time>
      </trkpt>
      <trkpt lat="42.86235" lon="1.18745">
        <ele>755.6</ele>
        <time>2024-05-12T09:18:50Z</time>
      </trkpt>
      <trkpt lat="42.86233" lon="1.18747">
        <ele>755</ele>
        <time>2024-05-12T09:18:52Z</time>
      </trkpt>
      <trkpt lat="42.86233" lon="1.1875">
        <ele>754.6</ele>
        <time>2024-05-12T09:18:53Z</time>
      </trkpt>
      <trkpt lat="42.86233" lon="1.18752">
        <ele>754.2</ele>
        <time>2024-05-12T09:18:54Z</time>
      </trkpt>
      <trkpt lat="42.86233" lon="1.18754">
        <ele>753.6</ele>
        <time>2024-05-12T09:18:55Z</time>
      </trkpt>
      <trkpt lat="42.86232" lon="1.18756">
        <ele>753</ele>
        <time>2024-05-12T09:18:56Z</time>
      </trkpt>
      <trkpt lat="42.8623" lon="1.18761">
        <ele>752.4</ele>
        <time>2024-05-12T09:18:57Z</time>
      </trkpt>
      <trkpt lat="42.86228" lon="1.18768">
        <ele>751.6</ele>
        <time>2024-05-12T09:18:58Z</time>
      </trkpt>
      <trkpt lat="42.86224" lon="1.18776">
        <ele>751</ele>
        <time>2024-05-12T09:18:59Z</time>
      </trkpt>
      <trkpt lat="42.86221" lon="1.18783">
        <ele>750.2</ele>
        <time>2024-05-12T09:19:00Z</time>
      </trkpt>
      <trkpt lat="42.8622" lon="1.18789">
        <ele>749.6</ele>
        <time>2024-05-12T09:19:01Z</time>
      </trkpt>
      <trkpt lat="42.86217" lon="1.18797">
        <ele>748.8</ele>
        <time>2024-05-12T09:19:02Z</time>
      </trkpt>
      <trkpt lat="42.86216" lon="1.18802">
        <ele>748</ele>
        <time>2024-05-12T09:19:03Z</time>
      </trkpt>
      <trkpt lat="42.86216" lon="1.18802">
        <ele>745.8</ele>
        <time>2024-05-12T09:19:05Z</time>
      </trkpt>
      <trkpt lat="42.86218" lon="1.188">
        <ele>745</ele>
        <time>2024-05-12T09:19:06Z</time>
      </trkpt>
      <trkpt lat="42.86218" lon="1.18798">
        <ele>744.4</ele>
        <time>2024-05-12T09:19:07Z</time>
      </trkpt>
      <trkpt lat="42.8622" lon="1.18796">
        <ele>743.8</ele>
        <time>2024-05-12T09:19:08Z</time>
      </trkpt>
      <trkpt lat="42.86222" lon="1.18792">
        <ele>743.2</ele>
        <time>2024-05-12T09:19:09Z</time>
      </trkpt>
      <trkpt lat="42.86224" lon="1.18788">
        <ele>742.6</ele>
        <time>2024-05-12T09:19:10Z</time>
      </trkpt>
      <trkpt lat="42.86226" lon="1.18785">
        <ele>742.2</ele>
        <time>2024-05-12T09:19:11Z</time>
      </trkpt>
      <trkpt lat="42.86229" lon="1.18781">
        <ele>741.6</ele>
        <time>2024-05-12T09:19:12Z</time>
      </trkpt>
      <trkpt lat="42.86232" lon="1.18778">
        <ele>741</ele>
        <time>2024-05-12T09:19:13Z</time>
      </trkpt>
      <trkpt lat="42.86235" lon="1.18775">
        <ele>740.4</ele>
        <time>2024-05-12T09:19:14Z</time>
      </trkpt>
      <trkpt lat="42.86239" lon="1.18773">
        <ele>739.8</ele>
        <time>2024-05-12T09:19:15Z</time>
      </trkpt>
      <trkpt lat="42.86245" lon="1.18768">
        <ele>739</ele>
        <time>2024-05-12T09:19:16Z</time>
      </trkpt>
      <trkpt lat="42.86251" lon="1.18762">
        <ele>738.2</ele>
        <time>2024-05-12T09:19:17Z</time>
      </trkpt>
      <trkpt lat="42.86257" lon="1.18755">
        <ele>737.4</ele>
        <time>2024-05-12T09:19:18Z</time>
      </trkpt>
      <trkpt lat="42.86263" lon="1.18748">
        <ele>736.6</ele>
        <time>2024-05-12T09:19:19Z</time>
      </trkpt>
      <trkpt lat="42.86269" lon="1.18741">
        <ele>735.6</ele>
        <time>2024-05-12T09:19:20Z</time>
      </trkpt>
      <trkpt lat="42.86274" lon="1.18733">
        <ele>734.8</ele>
        <time>2024-05-12T09:19:21Z</time>
      </trkpt>
      <trkpt lat="42.86279" lon="1.18725">
        <ele>734</ele>
        <time>2024-05-12T09:19:22Z</time>
      </trkpt>
      <trkpt lat="42.86285" lon="1.18719">
        <ele>733</ele>
        <time>2024-05-12T09:19:23Z</time>
      </trkpt>
      <trkpt lat="42.8629" lon="1.18712">
        <ele>732</ele>
        <time>2024-05-12T09:19:24Z</time>
      </trkpt>
      <trkpt lat="42.86294" lon="1.18705">
        <ele>731.2</ele>
        <time>2024-05-12T09:19:25Z</time>
      </trkpt>
      <trkpt lat="42.86298" lon="1.18698">
        <ele>730.2</ele>
        <time>2024-05-12T09:19:26Z</time>
      </trkpt>
      <trkpt lat="42.86302" lon="1.18692">
        <ele>729</ele>
        <time>2024-05-12T09:19:27Z</time>
      </trkpt>
      <trkpt lat="42.86303" lon="1.1869">
        <ele>728</ele>
        <time>2024-05-12T09:19:28Z</time>
      </trkpt>
      <trkpt lat="42.86304" lon="1.18689">
        <ele>727</ele>
        <time>2024-05-12T09:19:29Z</time>
      </trkpt>
      <trkpt lat="42.86305" lon="1.18689">
        <ele>725.4</ele>
        <time>2024-05-12T09:19:30Z</time>
      </trkpt>
      <trkpt lat="42.86305" lon="1.18688">
        <ele>724.4</ele>
        <time>2024-05-12T09:19:31Z</time>
      </trkpt>
      <trkpt lat="42.8631" lon="1.18679">
        <ele>722.8</ele>
        <time>2024-05-12T09:20:25Z</time>
      </trkpt>
      <trkpt lat="42.86316" lon="1.18669">
        <ele>722.8</ele>
        <time>2024-05-12T09:20:27Z</time>
      </trkpt>
      <trkpt lat="42.86319" lon="1.18663">
        <ele>722.2</ele>
        <time>2024-05-12T09:20:28Z</time>
      </trkpt>
      <trkpt lat="42.8632" lon="1.18659">
        <ele>721.8</ele>
        <time>2024-05-12T09:20:29Z</time>
      </trkpt>
      <trkpt lat="42.86322" lon="1.18658">
        <ele>721.2</ele>
        <time>2024-05-12T09:20:30Z</time>
      </trkpt>
      <trkpt lat="42.86323" lon="1.18655">
        <ele>720.8</ele>
        <time>2024-05-12T09:20:31Z</time>
      </trkpt>
      <trkpt lat="42.86325" lon="1.18652">
        <ele>720.2</ele>
        <time>2024-05-12T09:20:32Z</time>
      </trkpt>
      <trkpt lat="42.86328" lon="1.18646">
        <ele>719.6</ele>
        <time>2024-05-12T09:20:33Z</time>
      </trkpt>
      <trkpt lat="42.86331" lon="1.18641">
        <ele>719</ele>
        <time>2024-05-12T09:20:34Z</time>
      </trkpt>
      <trkpt lat="42.86335" lon="1.18636">
        <ele>718.4</ele>
        <time>2024-05-12T09:20:35Z</time>
      </trkpt>
      <trkpt lat="42.86338" lon="1.18631">
        <ele>717.8</ele>
        <time>2024-05-12T09:20:36Z</time>
      </trkpt>
      <trkpt lat="42.86342" lon="1.18624">
        <ele>717</ele>
        <time>2024-05-12T09:20:37Z</time>
      </trkpt>
      <trkpt lat="42.86348" lon="1.18614">
        <ele>716.2</ele>
        <time>2024-05-12T09:20:38Z</time>
      </trkpt>
      <trkpt lat="42.86353" lon="1.18605">
        <ele>715.4</ele>
        <time>2024-05-12T09:20:39Z</time>
      </trkpt>
      <trkpt lat="42.86358" lon="1.18597">
        <ele>714.6</ele>
        <time>2024-05-12T09:20:40Z</time>
      </trkpt>
      <trkpt lat="42.86363" lon="1.1859">
        <ele>713.6</ele>
        <time>2024-05-12T09:20:41Z</time>
      </trkpt>
      <trkpt lat="42.86368" lon="1.18582">
        <ele>712.6</ele>
        <time>2024-05-12T09:20:42Z</time>
      </trkpt>
      <trkpt lat="42.86371" lon="1.18576">
        <ele>710.8</ele>
        <time>2024-05-12T09:20:43Z</time>
      </trkpt>
      <trkpt lat="42.86376" lon="1.18568">
        <ele>709.8</ele>
        <time>2024-05-12T09:20:44Z</time>
      </trkpt>
      <trkpt lat="42.86379" lon="1.18562">
        <ele>708.8</ele>
        <time>2024-05-12T09:20:45Z</time>
      </trkpt>
      <trkpt lat="42.86383" lon="1.18556">
        <ele>707.8</ele>
        <time>2024-05-12T09:20:46Z</time>
      </trkpt>
      <trkpt lat="42.86385" lon="1.1855">
        <ele>706.8</ele>
        <time>2024-05-12T09:20:47Z</time>
      </trkpt>
      <trkpt lat="42.86386" lon="1.18546">
        <ele>705.8</ele>
        <time>2024-05-12T09:20:48Z</time>
      </trkpt>
      <trkpt lat="42.86388" lon="1.18541">
        <ele>704.8</ele>
        <time>2024-05-12T09:20:49Z</time>
      </trkpt>
      <trkpt lat="42.86391" lon="1.18537">
        <ele>703.8</ele>
        <time>2024-05-12T09:20:50Z</time>
      </trkpt>
      <trkpt lat="42.86394" lon="1.1853">
        <ele>702.8</ele>
        <time>2024-05-12T09:20:51Z</time>
      </trkpt>
      <trkpt lat="42.86397" lon="1.18522">
        <ele>702</ele>
        <time>2024-05-12T09:20:52Z</time>
      </trkpt>
      <trkpt lat="42.864" lon="1.18516">
        <ele>701.2</ele>
        <time>2024-05-12T09:20:53Z</time>
      </trkpt>
      <trkpt lat="42.86403" lon="1.18509">
        <ele>700.2</ele>
        <time>2024-05-12T09:20:54Z</time>
      </trkpt>
      <trkpt lat="42.86405" lon="1.18504">
        <ele>699.2</ele>
        <time>2024-05-12T09:20:55Z</time>
      </trkpt>
      <trkpt lat="42.86407" lon="1.18496">
        <ele>698</ele>
        <time>2024-05-12T09:20:56Z</time>
      </trkpt>
      <trkpt lat="42.8641" lon="1.18487">
        <ele>697</ele>
        <time>2024-05-12T09:20:57Z</time>
      </trkpt>
      <trkpt lat="42.8641" lon="1.1848">
        <ele>696</ele>
        <time>2024-05-12T09:20:58Z</time>
      </trkpt>
      <trkpt lat="42.86411" lon="1.18473">
        <ele>694.8</ele>
        <time>2024-05-12T09:20:59Z</time>
      </trkpt>
      <trkpt lat="42.86413" lon="1.18463">
        <ele>693.6</ele>
        <time>2024-05-12T09:21:00Z</time>
      </trkpt>
      <trkpt lat="42.86414" lon="1.18456">
        <ele>692.6</ele>
        <time>2024-05-12T09:21:01Z</time>
      </trkpt>
      <trkpt lat="42.86414" lon="1.18444">
        <ele>691.6</ele>
        <time>2024-05-12T09:21:02Z</time>
      </trkpt>
      <trkpt lat="42.86415" lon="1.18434">
        <ele>690.6</ele>
        <time>2024-05-12T09:21:03Z</time>
      </trkpt>
      <trkpt lat="42.86414" lon="1.18426">
        <ele>689.6</ele>
        <time>2024-05-12T09:21:04Z</time>
      </trkpt>
      <trkpt lat="42.86415" lon="1.18418">
        <ele>688.6</ele>
        <time>2024-05-12T09:21:05Z</time>
      </trkpt>
      <trkpt lat="42.86416" lon="1.1841">
        <ele>687.8</ele>
        <time>2024-05-12T09:21:06Z</time>
      </trkpt>
      <trkpt lat="42.86417" lon="1.18402">
        <ele>686.8</ele>
        <time>2024-05-12T09:21:07Z</time>
      </trkpt>
      <trkpt lat="42.86417" lon="1.18399">
        <ele>685</ele>
        <time>2024-05-12T09:21:08Z</time>
      </trkpt>
      <trkpt lat="42.86417" lon="1.18396">
        <ele>684</ele>
        <time>2024-05-12T09:21:09Z</time>
      </trkpt>
      <trkpt lat="42.86416" lon="1.18394">
        <ele>683.2</ele>
        <time>2024-05-12T09:21:10Z</time>
      </trkpt>
      <trkpt lat="42.86415" lon="1.18393">
        <ele>682.4</ele>
        <time>2024-05-12T09:21:11Z</time>
      </trkpt>
      <trkpt lat="42.86415" lon="1.18388">
        <ele>680.6</ele>
        <time>2024-05-12T09:21:13Z</time>
      </trkpt>
      <trkpt lat="42.86415" lon="1.18385">
        <ele>679.8</ele>
        <time>2024-05-12T09:21:14Z</time>
      </trkpt>
      <trkpt lat="42.86416" lon="1.18381">
        <ele>679.8</ele>
        <time>2024-05-12T09:21:15Z</time>
      </trkpt>
      <trkpt lat="42.86419" lon="1.18367">
        <ele>679.8</ele>
        <time>2024-05-12T09:21:17Z</time>
      </trkpt>
      <trkpt lat="42.86418" lon="1.18362">
        <ele>679.8</ele>
        <time>2024-05-12T09:21:18Z</time>
      </trkpt>
      <trkpt lat="42.86417" lon="1.18348">
        <ele>679.4</ele>
        <time>2024-05-12T09:21:20Z</time>
      </trkpt>
      <trkpt lat="42.86419" lon="1.1834">
        <ele>679</ele>
        <time>2024-05-12T09:21:21Z</time>
      </trkpt>
      <trkpt lat="42.8642" lon="1.18333">
        <ele>678.6</ele>
        <time>2024-05-12T09:21:22Z</time>
      </trkpt>
      <trkpt lat="42.8642" lon="1.18324">
        <ele>678</ele>
        <time>2024-05-12T09:21:23Z</time>
      </trkpt>
      <trkpt lat="42.86419" lon="1.18317">
        <ele>677.4</ele>
        <time>2024-05-12T09:21:24Z</time>
      </trkpt>
      <trkpt lat="42.86418" lon="1.1831">
        <ele>676.8</ele>
        <time>2024-05-12T09:21:25Z</time>
      </trkpt>
      <trkpt lat="42.86416" lon="1.18301">
        <ele>675.8</ele>
        <time>2024-05-12T09:21:26Z</time>
      </trkpt>
      <trkpt lat="42.86414" lon="1.18292">
        <ele>675</ele>
        <time>2024-05-12T09:21:27Z</time>
      </trkpt>
      <trkpt lat="42.86413" lon="1.18284">
        <ele>674.2</ele>
        <time>2024-05-12T09:21:28Z</time>
      </trkpt>
      <trkpt lat="42.86414" lon="1.18277">
        <ele>673.4</ele>
        <time>2024-05-12T09:21:29Z</time>
      </trkpt>
      <trkpt lat="42.86414" lon="1.18271">
        <ele>672.6</ele>
        <time>2024-05-12T09:21:30Z</time>
      </trkpt>
      <trkpt lat="42.86415" lon="1.18266">
        <ele>671.8</ele>
        <time>2024-05-12T09:21:31Z</time>
      </trkpt>
      <trkpt lat="42.86413" lon="1.1826">
        <ele>671</ele>
        <time>2024-05-12T09:21:32Z</time>
      </trkpt>
      <trkpt lat="42.86411" lon="1.18254">
        <ele>669.6</ele>
        <time>2024-05-12T09:21:33Z</time>
      </trkpt>
      <trkpt lat="42.8641" lon="1.18248">
        <ele>669</ele>
        <time>2024-05-12T09:21:34Z</time>
      </trkpt>
      <trkpt lat="42.8641" lon="1.18239">
        <ele>668.2</ele>
        <time>2024-05-12T09:21:35Z</time>
      </trkpt>
      <trkpt lat="42.8641" lon="1.1823">
        <ele>667.6</ele>
        <time>2024-05-12T09:21:36Z</time>
      </trkpt>
      <trkpt lat="42.8641" lon="1.1822">
        <ele>667</ele>
        <time>2024-05-12T09:21:37Z</time>
      </trkpt>
      <trkpt lat="42.86411" lon="1.18208">
        <ele>666.4</ele>
        <time>2024-05-12T09:21:38Z</time>
      </trkpt>
      <trkpt lat="42.86412" lon="1.18197">
        <ele>665.6</ele>
        <time>2024-05-12T09:21:39Z</time>
      </trkpt>
      <trkpt lat="42.86412" lon="1.18185">
        <ele>664.8</ele>
        <time>2024-05-12T09:21:40Z</time>
      </trkpt>
      <trkpt lat="42.86413" lon="1.18175">
        <ele>663.8</ele>
        <time>2024-05-12T09:21:41Z</time>
      </trkpt>
      <trkpt lat="42.86413" lon="1.18165">
        <ele>662.6</ele>
        <time>2024-05-12T09:21:42Z</time>
      </trkpt>
      <trkpt lat="42.86413" lon="1.18158">
        <ele>661.4</ele>
        <time>2024-05-12T09:21:43Z</time>
      </trkpt>
      <trkpt lat="42.86412" lon="1.18154">
        <ele>660.2</ele>
        <time>2024-05-12T09:21:44Z</time>
      </trkpt>
      <trkpt lat="42.86412" lon="1.18152">
        <ele>659</ele>
        <time>2024-05-12T09:21:45Z</time>
      </trkpt>
      <trkpt lat="42.86412" lon="1.1815">
        <ele>658</ele>
        <time>2024-05-12T09:21:46Z</time>
      </trkpt>
      <trkpt lat="42.86412" lon="1.18149">
        <ele>656.8</ele>
        <time>2024-05-12T09:21:47Z</time>
      </trkpt>
      <trkpt lat="42.86412" lon="1.1815">
        <ele>654.4</ele>
        <time>2024-05-12T09:21:51Z</time>
      </trkpt>
      <trkpt lat="42.86413" lon="1.18155">
        <ele>654</ele>
        <time>2024-05-12T09:21:52Z</time>
      </trkpt>
      <trkpt lat="42.86414" lon="1.18161">
        <ele>653.6</ele>
        <time>2024-05-12T09:21:53Z</time>
      </trkpt>
      <trkpt lat="42.86415" lon="1.18168">
        <ele>653.2</ele>
        <time>2024-05-12T09:21:54Z</time>
      </trkpt>
      <trkpt lat="42.86417" lon="1.18175">
        <ele>652.8</ele>
        <time>2024-05-12T09:21:55Z</time>
      </trkpt>
      <trkpt lat="42.8642" lon="1.18182">
        <ele>652.4</ele>
        <time>2024-05-12T09:21:56Z</time>
      </trkpt>
      <trkpt lat="42.86423" lon="1.18192">
        <ele>651.8</ele>
        <time>2024-05-12T09:21:57Z</time>
      </trkpt>
      <trkpt lat="42.86426" lon="1.18199">
        <ele>650.8</ele>
        <time>2024-05-12T09:21:58Z</time>
      </trkpt>
      <trkpt lat="42.86429" lon="1.18208">
        <ele>650.2</ele>
        <time>2024-05-12T09:21:59Z</time>
      </trkpt>
      <trkpt lat="42.86432" lon="1.18217">
        <ele>649.6</ele>
        <time>2024-05-12T09:22:00Z</time>
      </trkpt>
      <trkpt lat="42.86435" lon="1.18227">
        <ele>648.8</ele>
        <time>2024-05-12T09:22:01Z</time>
      </trkpt>
      <trkpt lat="42.8644" lon="1.18238">
        <ele>648</ele>
        <time>2024-05-12T09:22:02Z</time>
      </trkpt>
      <trkpt lat="42.86445" lon="1.18248">
        <ele>647.2</ele>
        <time>2024-05-12T09:22:03Z</time>
      </trkpt>
      <trkpt lat="42.8645" lon="1.18257">
        <ele>646.2</ele>
        <time>2024-05-12T09:22:04Z</time>
      </trkpt>
      <trkpt lat="42.86456" lon="1.18265">
        <ele>645.2</ele>
        <time>2024-05-12T09:22:05Z</time>
      </trkpt>
      <trkpt lat="42.86463" lon="1.18275">
        <ele>644.2</ele>
        <time>2024-05-12T09:22:06Z</time>
      </trkpt>
      <trkpt lat="42.86468" lon="1.1828">
        <ele>643.2</ele>
        <time>2024-05-12T09:22:07Z</time>
      </trkpt>
      <trkpt lat="42.86472" lon="1.18288">
        <ele>642.2</ele>
        <time>2024-05-12T09:22:08Z</time>
      </trkpt>
      <trkpt lat="42.86474" lon="1.18298">
        <ele>641.2</ele>
        <time>2024-05-12T09:22:09Z</time>
      </trkpt>
      <trkpt lat="42.86475" lon="1.18309">
        <ele>640</ele>
        <time>2024-05-12T09:22:10Z</time>
      </trkpt>
      <trkpt lat="42.86476" lon="1.18321">
        <ele>639.2</ele>
        <time>2024-05-12T09:22:11Z</time>
      </trkpt>
      <trkpt lat="42.86476" lon="1.18332">
        <ele>638.4</ele>
        <time>2024-05-12T09:22:12Z</time>
      </trkpt>
      <trkpt lat="42.86477" lon="1.18342">
        <ele>637.4</ele>
        <time>2024-05-12T09:22:13Z</time>
      </trkpt>
      <trkpt lat="42.86478" lon="1.18353">
        <ele>636.6</ele>
        <time>2024-05-12T09:22:14Z</time>
      </trkpt>
      <trkpt lat="42.86481" lon="1.18364">
        <ele>635.8</ele>
        <time>2024-05-12T09:22:15Z</time>
      </trkpt>
      <trkpt lat="42.86483" lon="1.18376">
        <ele>635</ele>
        <time>2024-05-12T09:22:16Z</time>
      </trkpt>
      <trkpt lat="42.86485" lon="1.18388">
        <ele>634.2</ele>
        <time>2024-05-12T09:22:17Z</time>
      </trkpt>
      <trkpt lat="42.86487" lon="1.18399">
        <ele>633.4</ele>
        <time>2024-05-12T09:22:18Z</time>
      </trkpt>
      <trkpt lat="42.86489" lon="1.18412">
        <ele>632.6</ele>
        <time>2024-05-12T09:22:19Z</time>
      </trkpt>
      <trkpt lat="42.86491" lon="1.18425">
        <ele>631.8</ele>
        <time>2024-05-12T09:22:20Z</time>
      </trkpt>
      <trkpt lat="42.86493" lon="1.18438">
        <ele>631.2</ele>
        <time>2024-05-12T09:22:21Z</time>
      </trkpt>
      <trkpt lat="42.86495" lon="1.18451">
        <ele>629.6</ele>
        <time>2024-05-12T09:22:22Z</time>
      </trkpt>
      <trkpt lat="42.86497" lon="1.18463">
        <ele>628.6</ele>
        <time>2024-05-12T09:22:23Z</time>
      </trkpt>
      <trkpt lat="42.86499" lon="1.18474">
        <ele>627.8</ele>
        <time>2024-05-12T09:22:24Z</time>
      </trkpt>
      <trkpt lat="42.86501" lon="1.18481">
        <ele>626.8</ele>
        <time>2024-05-12T09:22:25Z</time>
      </trkpt>
      <trkpt lat="42.86502" lon="1.18486">
        <ele>625.8</ele>
        <time>2024-05-12T09:22:26Z</time>
      </trkpt>
      <trkpt lat="42.86501" lon="1.18491">
        <ele>625</ele>
        <time>2024-05-12T09:22:27Z</time>
      </trkpt>
      <trkpt lat="42.865" lon="1.18493">
        <ele>624.4</ele>
        <time>2024-05-12T09:22:28Z</time>
      </trkpt>
      <trkpt lat="42.865" lon="1.18494">
        <ele>623.8</ele>
        <time>2024-05-12T09:22:29Z</time>
      </trkpt>
      <trkpt lat="42.865" lon="1.18496">
        <ele>623</ele>
        <time>2024-05-12T09:22:30Z</time>
      </trkpt>
      <trkpt lat="42.865" lon="1.18499">
        <ele>622.4</ele>
        <time>2024-05-12T09:22:31Z</time>
      </trkpt>
      <trkpt lat="42.86501" lon="1.18505">
        <ele>621.8</ele>
        <time>2024-05-12T09:22:32Z</time>
      </trkpt>
      <trkpt lat="42.86501" lon="1.18512">
        <ele>621.8</ele>
        <time>2024-05-12T09:22:33Z</time>
      </trkpt>
      <trkpt lat="42.86501" lon="1.18518">
        <ele>621.4</ele>
        <time>2024-05-12T09:22:34Z</time>
      </trkpt>
      <trkpt lat="42.86501" lon="1.18524">
        <ele>621</ele>
        <time>2024-05-12T09:22:35Z</time>
      </trkpt>
      <trkpt lat="42.86503" lon="1.18527">
        <ele>620.6</ele>
        <time>2024-05-12T09:22:36Z</time>
      </trkpt>
      <trkpt lat="42.86504" lon="1.18526">
        <ele>620.2</ele>
        <time>2024-05-12T09:22:37Z</time>
      </trkpt>
      <trkpt lat="42.86503" lon="1.18525">
        <ele>619.8</ele>
        <time>2024-05-12T09:22:38Z</time>
      </trkpt>
      <trkpt lat="42.86505" lon="1.1852">
        <ele>619.2</ele>
        <time>2024-05-12T09:22:39Z</time>
      </trkpt>
      <trkpt lat="42.86508" lon="1.18512">
        <ele>618.8</ele>
        <time>2024-05-12T09:22:40Z</time>
      </trkpt>
      <trkpt lat="42.86512" lon="1.18505">
        <ele>618.2</ele>
        <time>2024-05-12T09:22:41Z</time>
      </trkpt>
      <trkpt lat="42.86515" lon="1.18498">
        <ele>617.6</ele>
        <time>2024-05-12T09:22:42Z</time>
      </trkpt>
      <trkpt lat="42.8652" lon="1.1849">
        <ele>617</ele>
        <time>2024-05-12T09:22:43Z</time>
      </trkpt>
      <trkpt lat="42.86525" lon="1.18482">
        <ele>616.4</ele>
        <time>2024-05-12T09:22:44Z</time>
      </trkpt>
      <trkpt lat="42.86531" lon="1.18473">
        <ele>615.6</ele>
        <time>2024-05-12T09:22:45Z</time>
      </trkpt>
      <trkpt lat="42.86535" lon="1.18462">
        <ele>614.6</ele>
        <time>2024-05-12T09:22:46Z</time>
      </trkpt>
      <trkpt lat="42.86537" lon="1.18451">
        <ele>613</ele>
        <time>2024-05-12T09:22:47Z</time>
      </trkpt>
      <trkpt lat="42.8654" lon="1.1844">
        <ele>612.2</ele>
        <time>2024-05-12T09:22:48Z</time>
      </trkpt>
      <trkpt lat="42.8654" lon="1.18429">
        <ele>611.4</ele>
        <time>2024-05-12T09:22:49Z</time>
      </trkpt>
      <trkpt lat="42.8654" lon="1.18418">
        <ele>610.4</ele>
        <time>2024-05-12T09:22:50Z</time>
      </trkpt>
      <trkpt lat="42.86539" lon="1.18409">
        <ele>609.4</ele>
        <time>2024-05-12T09:22:51Z</time>
      </trkpt>
      <trkpt lat="42.86538" lon="1.18398">
        <ele>608.4</ele>
        <time>2024-05-12T09:22:52Z</time>
      </trkpt>
      <trkpt lat="42.86536" lon="1.18388">
        <ele>607.4</ele>
        <time>2024-05-12T09:22:53Z</time>
      </trkpt>
      <trkpt lat="42.86534" lon="1.18379">
        <ele>606.2</ele>
        <time>2024-05-12T09:22:54Z</time>
      </trkpt>
      <trkpt lat="42.86534" lon="1.18372">
        <ele>605.2</ele>
        <time>2024-05-12T09:22:55Z</time>
      </trkpt>
      <trkpt lat="42.86533" lon="1.18369">
        <ele>604</ele>
        <time>2024-05-12T09:22:56Z</time>
      </trkpt>
      <trkpt lat="42.86533" lon="1.18365">
        <ele>603</ele>
        <time>2024-05-12T09:22:57Z</time>
      </trkpt>
      <trkpt lat="42.86533" lon="1.18362">
        <ele>601.8</ele>
        <time>2024-05-12T09:22:58Z</time>
      </trkpt>
      <trkpt lat="42.86532" lon="1.18358">
        <ele>601.4</ele>
        <time>2024-05-12T09:22:59Z</time>
      </trkpt>
      <trkpt lat="42.86532" lon="1.18353">
        <ele>600.8</ele>
        <time>2024-05-12T09:23:00Z</time>
      </trkpt>
      <trkpt lat="42.86531" lon="1.18353">
        <ele>600.4</ele>
        <time>2024-05-12T09:23:01Z</time>
      </trkpt>
      <trkpt lat="42.86531" lon="1.18352">
        <ele>599.8</ele>
        <time>2024-05-12T09:23:02Z</time>
      </trkpt>
      <trkpt lat="42.86529" lon="1.18356">
        <ele>599.2</ele>
        <time>2024-05-12T09:23:03Z</time>
      </trkpt>
      <trkpt lat="42.8653" lon="1.18361">
        <ele>598.6</ele>
        <time>2024-05-12T09:23:04Z</time>
      </trkpt>
      <trkpt lat="42.8653" lon="1.18366">
        <ele>598</ele>
        <time>2024-05-12T09:23:05Z</time>
      </trkpt>
      <trkpt lat="42.86531" lon="1.18371">
        <ele>597.4</ele>
        <time>2024-05-12T09:23:06Z</time>
      </trkpt>
      <trkpt lat="42.86531" lon="1.18374">
        <ele>596.6</ele>
        <time>2024-05-12T09:23:07Z</time>
      </trkpt>
      <trkpt lat="42.86532" lon="1.18378">
        <ele>596</ele>
        <time>2024-05-12T09:23:08Z</time>
      </trkpt>
      <trkpt lat="42.86531" lon="1.18382">
        <ele>595.4</ele>
        <time>2024-05-12T09:23:09Z</time>
      </trkpt>
      <trkpt lat="42.86532" lon="1.18388">
        <ele>594.6</ele>
        <time>2024-05-12T09:23:10Z</time>
      </trkpt>
      <trkpt lat="42.86534" lon="1.18395">
        <ele>594</ele>
        <time>2024-05-12T09:23:11Z</time>
      </trkpt>
      <trkpt lat="42.86535" lon="1.18403">
        <ele>593</ele>
        <time>2024-05-12T09:23:12Z</time>
      </trkpt>
      <trkpt lat="42.86536" lon="1.18411">
        <ele>592.4</ele>
        <time>2024-05-12T09:23:13Z</time>
      </trkpt>
      <trkpt lat="42.86537" lon="1.18419">
        <ele>591.6</ele>
        <time>2024-05-12T09:23:14Z</time>
      </trkpt>
      <trkpt lat="42.86539" lon="1.18429">
        <ele>591</ele>
        <time>2024-05-12T09:23:15Z</time>
      </trkpt>
      <trkpt lat="42.86542" lon="1.18438">
        <ele>590.2</ele>
        <time>2024-05-12T09:23:16Z</time>
      </trkpt>
      <trkpt lat="42.86544" lon="1.18448">
        <ele>589.4</ele>
        <time>2024-05-12T09:23:17Z</time>
      </trkpt>
      <trkpt lat="42.86545" lon="1.18457">
        <ele>588.6</ele>
        <time>2024-05-12T09:23:18Z</time>
      </trkpt>
      <trkpt lat="42.86547" lon="1.18468">
        <ele>587.8</ele>
        <time>2024-05-12T09:23:19Z</time>
      </trkpt>
      <trkpt lat="42.86549" lon="1.18479">
        <ele>587</ele>
        <time>2024-05-12T09:23:20Z</time>
      </trkpt>
      <trkpt lat="42.8655" lon="1.1849">
        <ele>586</ele>
        <time>2024-05-12T09:23:21Z</time>
      </trkpt>
      <trkpt lat="42.86551" lon="1.18501">
        <ele>585.2</ele>
        <time>2024-05-12T09:23:22Z</time>
      </trkpt>
      <trkpt lat="42.86552" lon="1.18512">
        <ele>584.2</ele>
        <time>2024-05-12T09:23:23Z</time>
      </trkpt>
      <trkpt lat="42.86553" lon="1.18522">
        <ele>583.4</ele>
        <time>2024-05-12T09:23:24Z</time>
      </trkpt>
      <trkpt lat="42.86554" lon="1.18534">
        <ele>582.4</ele>
        <time>2024-05-12T09:23:25Z</time>
      </trkpt>
      <trkpt lat="42.86554" lon="1.18545">
        <ele>581.6</ele>
        <time>2024-05-12T09:23:26Z</time>
      </trkpt>
      <trkpt lat="42.86556" lon="1.18556">
        <ele>580.6</ele>
        <time>2024-05-12T09:23:27Z</time>
      </trkpt>
      <trkpt lat="42.86556" lon="1.18567">
        <ele>579.6</ele>
        <time>2024-05-12T09:23:28Z</time>
      </trkpt>
      <trkpt lat="42.86554" lon="1.18577">
        <ele>578.6</ele>
        <time>2024-05-12T09:23:29Z</time>
      </trkpt>
      <trkpt lat="42.86551" lon="1.18586">
        <ele>577.6</ele>
        <time>2024-05-12T09:23:30Z</time>
      </trkpt>
      <trkpt lat="42.86548" lon="1.18593">
        <ele>576.8</ele>
        <time>2024-05-12T09:23:31Z</time>
      </trkpt>
      <trkpt lat="42.86546" lon="1.18595">
        <ele>575.8</ele>
        <time>2024-05-12T09:23:32Z</time>
      </trkpt>
      <trkpt lat="42.86543" lon="1.18596">
        <ele>574.8</ele>
        <time>2024-05-12T09:23:33Z</time>
      </trkpt>
      <trkpt lat="42.86542" lon="1.18596">
        <ele>574</ele>
        <time>2024-05-12T09:23:34Z</time>
      </trkpt>
      <trkpt lat="42.86541" lon="1.18595">
        <ele>573</ele>
        <time>2024-05-12T09:23:35Z</time>
      </trkpt>
      <trkpt lat="42.8654" lon="1.18596">
        <ele>573</ele>
        <time>2024-05-12T09:23:37Z</time>
      </trkpt>
      <trkpt lat="42.86538" lon="1.18598">
        <ele>571.4</ele>
        <time>2024-05-12T09:23:41Z</time>
      </trkpt>
      <trkpt lat="42.86537" lon="1.18601">
        <ele>571</ele>
        <time>2024-05-12T09:23:42Z</time>
      </trkpt>
      <trkpt lat="42.86535" lon="1.18607">
        <ele>571</ele>
        <time>2024-05-12T09:23:43Z</time>
      </trkpt>
      <trkpt lat="42.86527" lon="1.18624">
        <ele>571</ele>
        <time>2024-05-12T09:23:46Z</time>
      </trkpt>
      <trkpt lat="42.86525" lon="1.1863">
        <ele>571</ele>
        <time>2024-05-12T09:23:47Z</time>
      </trkpt>
      <trkpt lat="42.86519" lon="1.18646">
        <ele>570.6</ele>
        <time>2024-05-12T09:23:50Z</time>
      </trkpt>
      <trkpt lat="42.86517" lon="1.18651">
        <ele>570</ele>
        <time>2024-05-12T09:23:51Z</time>
      </trkpt>
      <trkpt lat="42.86516" lon="1.18656">
        <ele>569.6</ele>
        <time>2024-05-12T09:23:52Z</time>
      </trkpt>
      <trkpt lat="42.86516" lon="1.18661">
        <ele>569.2</ele>
        <time>2024-05-12T09:23:53Z</time>
      </trkpt>
      <trkpt lat="42.86515" lon="1.18668">
        <ele>568.6</ele>
        <time>2024-05-12T09:23:54Z</time>
      </trkpt>
      <trkpt lat="42.86511" lon="1.18681">
        <ele>568.2</ele>
        <time>2024-05-12T09:23:56Z</time>
      </trkpt>
      <trkpt lat="42.8651" lon="1.18688">
        <ele>567.8</ele>
        <time>2024-05-12T09:23:57Z</time>
      </trkpt>
      <trkpt lat="42.86509" lon="1.18696">
        <ele>567.4</ele>
        <time>2024-05-12T09:23:58Z</time>
      </trkpt>
      <trkpt lat="42.86508" lon="1.18704">
        <ele>567</ele>
        <time>2024-05-12T09:23:59Z</time>
      </trkpt>
      <trkpt lat="42.86508" lon="1.18712">
        <ele>566.4</ele>
        <time>2024-05-12T09:24:00Z</time>
      </trkpt>
      <trkpt lat="42.86509" lon="1.1872">
        <ele>565.4</ele>
        <time>2024-05-12T09:24:01Z</time>
      </trkpt>
      <trkpt lat="42.8651" lon="1.18726">
        <ele>564.8</ele>
        <time>2024-05-12T09:24:02Z</time>
      </trkpt>
      <trkpt lat="42.86512" lon="1.18729">
        <ele>564.2</ele>
        <time>2024-05-12T09:24:03Z</time>
      </trkpt>
      <trkpt lat="42.86513" lon="1.18729">
        <ele>563.6</ele>
        <time>2024-05-12T09:24:04Z</time>
      </trkpt>
      <trkpt lat="42.86526" lon="1.18739">
        <ele>559.4</ele>
        <time>2024-05-12T09:25:44Z</time>
      </trkpt>
      <trkpt lat="42.8653" lon="1.18744">
        <ele>559</ele>
        <time>2024-05-12T09:25:45Z</time>
      </trkpt>
      <trkpt lat="42.86533" lon="1.1875">
        <ele>558.6</ele>
        <time>2024-05-12T09:25:46Z</time>
      </trkpt>
      <trkpt lat="42.86538" lon="1.18758">
        <ele>558.2</ele>
        <time>2024-05-12T09:25:47Z</time>
      </trkpt>
      <trkpt lat="42.86543" lon="1.18766">
        <ele>557.8</ele>
        <time>2024-05-12T09:25:48Z</time>
      </trkpt>
      <trkpt lat="42.86548" lon="1.18776">
        <ele>557.2</ele>
        <time>2024-05-12T09:25:49Z</time>
      </trkpt>
      <trkpt lat="42.86553" lon="1.18785">
        <ele>556.8</ele>
        <time>2024-05-12T09:25:50Z</time>
      </trkpt>
      <trkpt lat="42.86558" lon="1.18795">
        <ele>556</ele>
        <time>2024-05-12T09:25:51Z</time>
      </trkpt>
      <trkpt lat="42.86563" lon="1.18804">
        <ele>555.2</ele>
        <time>2024-05-12T09:25:52Z</time>
      </trkpt>
      <trkpt lat="42.86568" lon="1.18814">
        <ele>554.6</ele>
        <time>2024-05-12T09:25:53Z</time>
      </trkpt>
      <trkpt lat="42.86572" lon="1.18823">
        <ele>553.8</ele>
        <time>2024-05-12T09:25:54Z</time>
      </trkpt>
      <trkpt lat="42.86575" lon="1.1883">
        <ele>553</ele>
        <time>2024-05-12T09:25:55Z</time>
      </trkpt>
      <trkpt lat="42.86581" lon="1.18834">
        <ele>553</ele>
        <time>2024-05-12T09:25:56Z</time>
      </trkpt>
      <trkpt lat="42.86585" lon="1.18833">
        <ele>553</ele>
        <time>2024-05-12T09:25:58Z</time>
      </trkpt>
      <trkpt lat="42.86596" lon="1.18832">
        <ele>553</ele>
        <time>2024-05-12T09:26:02Z</time>
      </trkpt>
      <trkpt lat="42.86598" lon="1.18832">
        <ele>553</ele>
        <time>2024-05-12T09:26:03Z</time>
      </trkpt>
      <trkpt lat="42.86606" lon="1.1883">
        <ele>553.4</ele>
        <time>2024-05-12T09:26:05Z</time>
      </trkpt>
      <trkpt lat="42.86608" lon="1.18829">
        <ele>554</ele>
        <time>2024-05-12T09:26:06Z</time>
      </trkpt>
      <trkpt lat="42.8661" lon="1.18828">
        <ele>554.4</ele>
        <time>2024-05-12T09:26:07Z</time>
      </trkpt>
      <trkpt lat="42.86612" lon="1.18827">
        <ele>554.8</ele>
        <time>2024-05-12T09:26:08Z</time>
      </trkpt>
      <trkpt lat="42.86615" lon="1.18828">
        <ele>555.2</ele>
        <time>2024-05-12T09:26:09Z</time>
      </trkpt>
      <trkpt lat="42.86617" lon="1.18827">
        <ele>555.2</ele>
        <time>2024-05-12T09:26:10Z</time>
      </trkpt>
      <trkpt lat="42.86617" lon="1.18841">
        <ele>555.2</ele>
        <time>2024-05-12T09:26:13Z</time>
      </trkpt>
      <trkpt lat="42.86616" lon="1.18879">
        <ele>555.2</ele>
        <time>2024-05-12T09:26:19Z</time>
      </trkpt>
      <trkpt lat="42.86614" lon="1.18886">
        <ele>555.2</ele>
        <time>2024-05-12T09:26:20Z</time>
      </trkpt>
      <trkpt lat="42.8661" lon="1.18906">
        <ele>555.2</ele>
        <time>2024-05-12T09:26:23Z</time>
      </trkpt>
      <trkpt lat="42.86609" lon="1.18919">
        <ele>555.2</ele>
        <time>2024-05-12T09:26:25Z</time>
      </trkpt>
      <trkpt lat="42.86608" lon="1.1894">
        <ele>555.2</ele>
        <time>2024-05-12T09:26:28Z</time>
      </trkpt>
      <trkpt lat="42.86608" lon="1.18963">
        <ele>555.2</ele>
        <time>2024-05-12T09:26:31Z</time>
      </trkpt>
      <trkpt lat="42.86609" lon="1.18985">
        <ele>555.2</ele>
        <time>2024-05-12T09:26:34Z</time>
      </trkpt>
      <trkpt lat="42.86613" lon="1.18994">
        <ele>555.2</ele>
        <time>2024-05-12T09:26:35Z</time>
      </trkpt>
      <trkpt lat="42.86623" lon="1.19018">
        <ele>555.2</ele>
        <time>2024-05-12T09:26:38Z</time>
      </trkpt>
      <trkpt lat="42.86635" lon="1.19057">
        <ele>555.2</ele>
        <time>2024-05-12T09:26:43Z</time>
      </trkpt>
      <trkpt lat="42.86638" lon="1.19065">
        <ele>555.2</ele>
        <time>2024-05-12T09:26:44Z</time>
      </trkpt>
      <trkpt lat="42.86651" lon="1.19104">
        <ele>554.8</ele>
        <time>2024-05-12T09:26:49Z</time>
      </trkpt>
      <trkpt lat="42.86653" lon="1.19111">
        <ele>554.4</ele>
        <time>2024-05-12T09:26:50Z</time>
      </trkpt>
      <trkpt lat="42.86655" lon="1.19117">
        <ele>554</ele>
        <time>2024-05-12T09:26:51Z</time>
      </trkpt>
      <trkpt lat="42.86657" lon="1.19123">
        <ele>553.6</ele>
        <time>2024-05-12T09:26:52Z</time>
      </trkpt>
      <trkpt lat="42.86658" lon="1.19129">
        <ele>553</ele>
        <time>2024-05-12T09:26:53Z</time>
      </trkpt>
      <trkpt lat="42.86661" lon="1.19141">
        <ele>553</ele>
        <time>2024-05-12T09:26:55Z</time>
      </trkpt>
      <trkpt lat="42.86668" lon="1.19156">
        <ele>553</ele>
        <time>2024-05-12T09:26:58Z</time>
      </trkpt>
      <trkpt lat="42.86678" lon="1.19171">
        <ele>553</ele>
        <time>2024-05-12T09:27:01Z</time>
      </trkpt>
      <trkpt lat="42.86682" lon="1.19175">
        <ele>553</ele>
        <time>2024-05-12T09:27:02Z</time>
      </trkpt>
      <trkpt lat="42.86693" lon="1.19187">
        <ele>553</ele>
        <time>2024-05-12T09:27:05Z</time>
      </trkpt>
      <trkpt lat="42.86699" lon="1.19194">
        <ele>553</ele>
        <time>2024-05-12T09:27:07Z</time>
      </trkpt>
      <trkpt lat="42.86726" lon="1.1922">
        <ele>553</ele>
        <time>2024-05-12T09:27:15Z</time>
      </trkpt>
      <trkpt lat="42.86738" lon="1.19236">
        <ele>552.6</ele>
        <time>2024-05-12T09:27:19Z</time>
      </trkpt>
      <trkpt lat="42.86741" lon="1.1924">
        <ele>552.2</ele>
        <time>2024-05-12T09:27:20Z</time>
      </trkpt>
      <trkpt lat="42.8674" lon="1.19245">
        <ele>551.8</ele>
        <time>2024-05-12T09:27:21Z</time>
      </trkpt>
      <trkpt lat="42.8674" lon="1.19249">
        <ele>551.4</ele>
        <time>2024-05-12T09:27:22Z</time>
      </trkpt>
      <trkpt lat="42.86737" lon="1.19256">
        <ele>551</ele>
        <time>2024-05-12T09:27:23Z</time>
      </trkpt>
      <trkpt lat="42.86731" lon="1.19271">
        <ele>551</ele>
        <time>2024-05-12T09:27:25Z</time>
      </trkpt>
      <trkpt lat="42.86721" lon="1.19294">
        <ele>550.6</ele>
        <time>2024-05-12T09:27:28Z</time>
      </trkpt>
      <trkpt lat="42.86717" lon="1.19302">
        <ele>550</ele>
        <time>2024-05-12T09:27:29Z</time>
      </trkpt>
      <trkpt lat="42.86712" lon="1.19311">
        <ele>549.6</ele>
        <time>2024-05-12T09:27:30Z</time>
      </trkpt>
      <trkpt lat="42.86707" lon="1.19319">
        <ele>549.2</ele>
        <time>2024-05-12T09:27:31Z</time>
      </trkpt>
      <trkpt lat="42.86701" lon="1.19329">
        <ele>548.6</ele>
        <time>2024-05-12T09:27:32Z</time>
      </trkpt>
      <trkpt lat="42.86695" lon="1.19339">
        <ele>548</ele>
        <time>2024-05-12T09:27:33Z</time>
      </trkpt>
      <trkpt lat="42.86689" lon="1.19351">
        <ele>547.4</ele>
        <time>2024-05-12T09:27:34Z</time>
      </trkpt>
      <trkpt lat="42.86683" lon="1.19362">
        <ele>546.6</ele>
        <time>2024-05-12T09:27:35Z</time>
      </trkpt>
      <trkpt lat="42.86676" lon="1.19375">
        <ele>545.8</ele>
        <time>2024-05-12T09:27:36Z</time>
      </trkpt>
      <trkpt lat="42.8667" lon="1.19387">
        <ele>545</ele>
        <time>2024-05-12T09:27:37Z</time>
      </trkpt>
      <trkpt lat="42.86663" lon="1.19399">
        <ele>544.2</ele>
        <time>2024-05-12T09:27:38Z</time>
      </trkpt>
      <trkpt lat="42.86657" lon="1.19412">
        <ele>543.4</ele>
        <time>2024-05-12T09:27:39Z</time>
      </trkpt>
      <trkpt lat="42.8665" lon="1.19425">
        <ele>542.6</ele>
        <time>2024-05-12T09:27:40Z</time>
      </trkpt>
      <trkpt lat="42.86643" lon="1.19438">
        <ele>541.8</ele>
        <time>2024-05-12T09:27:41Z</time>
      </trkpt>
      <trkpt lat="42.86637" lon="1.19451">
        <ele>541</ele>
        <time>2024-05-12T09:27:42Z</time>
      </trkpt>
      <trkpt lat="42.86631" lon="1.19463">
        <ele>540.2</ele>
        <time>2024-05-12T09:27:43Z</time>
      </trkpt>
      <trkpt lat="42.86625" lon="1.19475">
        <ele>538.8</ele>
        <time>2024-05-12T09:27:44Z</time>
      </trkpt>
      <trkpt lat="42.86619" lon="1.19488">
        <ele>538</ele>
        <time>2024-05-12T09:27:45Z</time>
      </trkpt>
      <trkpt lat="42.86613" lon="1.195">
        <ele>537.4</ele>
        <time>2024-05-12T09:27:46Z</time>
      </trkpt>
      <trkpt lat="42.86607" lon="1.19513">
        <ele>536.6</ele>
        <time>2024-05-12T09:27:47Z</time>
      </trkpt>
      <trkpt lat="42.86601" lon="1.19526">
        <ele>535.8</ele>
        <time>2024-05-12T09:27:48Z</time>
      </trkpt>
      <trkpt lat="42.86596" lon="1.19539">
        <ele>535.2</ele>
        <time>2024-05-12T09:27:49Z</time>
      </trkpt>
      <trkpt lat="42.86591" lon="1.19552">
        <ele>534.4</ele>
        <time>2024-05-12T09:27:50Z</time>
      </trkpt>
      <trkpt lat="42.86587" lon="1.19565">
        <ele>534</ele>
        <time>2024-05-12T09:27:51Z</time>
      </trkpt>
      <trkpt lat="42.86583" lon="1.19577">
        <ele>533.4</ele>
        <time>2024-05-12T09:27:52Z</time>
      </trkpt>
      <trkpt lat="42.86579" lon="1.1959">
        <ele>533</ele>
        <time>2024-05-12T09:27:53Z</time>
      </trkpt>
      <trkpt lat="42.86576" lon="1.19602">
        <ele>532.6</ele>
        <time>2024-05-12T09:27:54Z</time>
      </trkpt>
      <trkpt lat="42.86573" lon="1.19615">
        <ele>532.2</ele>
        <time>2024-05-12T09:27:55Z</time>
      </trkpt>
      <trkpt lat="42.86573" lon="1.19628">
        <ele>532.2</ele>
        <time>2024-05-12T09:27:56Z</time>
      </trkpt>
      <trkpt lat="42.86572" lon="1.19674">
        <ele>532.2</ele>
        <time>2024-05-12T09:28:00Z</time>
      </trkpt>
      <trkpt lat="42.86574" lon="1.19718">
        <ele>532.2</ele>
        <time>2024-05-12T09:28:05Z</time>
      </trkpt>
      <trkpt lat="42.86574" lon="1.19727">
        <ele>532.2</ele>
        <time>2024-05-12T09:28:07Z</time>
      </trkpt>
      <trkpt lat="42.86572" lon="1.19729">
        <ele>532.2</ele>
        <time>2024-05-12T09:28:08Z</time>
      </trkpt>
      <trkpt lat="42.86568" lon="1.19728">
        <ele>532.2</ele>
        <time>2024-05-12T09:28:11Z</time>
      </trkpt>
      <trkpt lat="42.86563" lon="1.19723">
        <ele>532.2</ele>
        <time>2024-05-12T09:28:14Z</time>
      </trkpt>
      <trkpt lat="42.86557" lon="1.19712">
        <ele>531.6</ele>
        <time>2024-05-12T09:28:16Z</time>
      </trkpt>
      <trkpt lat="42.86555" lon="1.19705">
        <ele>531.2</ele>
        <time>2024-05-12T09:28:17Z</time>
      </trkpt>
      <trkpt lat="42.86551" lon="1.19695">
        <ele>530.8</ele>
        <time>2024-05-12T09:28:18Z</time>
      </trkpt>
      <trkpt lat="42.8655" lon="1.19686">
        <ele>530.2</ele>
        <time>2024-05-12T09:28:19Z</time>
      </trkpt>
      <trkpt lat="42.86543" lon="1.19678">
        <ele>529.6</ele>
        <time>2024-05-12T09:28:20Z</time>
      </trkpt>
      <trkpt lat="42.8654" lon="1.19675">
        <ele>529</ele>
        <time>2024-05-12T09:28:21Z</time>
      </trkpt>
      <trkpt lat="42.86536" lon="1.19674">
        <ele>528.4</ele>
        <time>2024-05-12T09:28:22Z</time>
      </trkpt>
      <trkpt lat="42.86533" lon="1.19673">
        <ele>527.8</ele>
        <time>2024-05-12T09:28:23Z</time>
      </trkpt>
      <trkpt lat="42.86515" lon="1.19672">
        <ele>527.8</ele>
        <time>2024-05-12T09:28:28Z</time>
      </trkpt>
      <trkpt lat="42.86492" lon="1.19679">
        <ele>527.8</ele>
        <time>2024-05-12T09:28:34Z</time>
      </trkpt>
      <trkpt lat="42.86488" lon="1.19686">
        <ele>527.8</ele>
        <time>2024-05-12T09:28:36Z</time>
      </trkpt>
      <trkpt lat="42.86487" lon="1.19691">
        <ele>527.8</ele>
        <time>2024-05-12T09:28:37Z</time>
      </trkpt>
      <trkpt lat="42.86485" lon="1.19724">
        <ele>527.8</ele>
        <time>2024-05-12T09:28:42Z</time>
      </trkpt>
      <trkpt lat="42.86482" lon="1.19749">
        <ele>527.8</ele>
        <time>2024-05-12T09:28:45Z</time>
      </trkpt>
      <trkpt lat="42.86483" lon="1.19758">
        <ele>527.8</ele>
        <time>2024-05-12T09:28:46Z</time>
      </trkpt>
      <trkpt lat="42.86482" lon="1.19787">
        <ele>527.4</ele>
        <time>2024-05-12T09:28:49Z</time>
      </trkpt>
      <trkpt lat="42.86481" lon="1.19797">
        <ele>526.8</ele>
        <time>2024-05-12T09:28:50Z</time>
      </trkpt>
      <trkpt lat="42.86478" lon="1.19807">
        <ele>526.4</ele>
        <time>2024-05-12T09:28:51Z</time>
      </trkpt>
      <trkpt lat="42.86476" lon="1.19816">
        <ele>526</ele>
        <time>2024-05-12T09:28:52Z</time>
      </trkpt>
      <trkpt lat="42.86474" lon="1.19826">
        <ele>525.4</ele>
        <time>2024-05-12T09:28:53Z</time>
      </trkpt>
      <trkpt lat="42.8647" lon="1.19843">
        <ele>525</ele>
        <time>2024-05-12T09:28:55Z</time>
      </trkpt>
      <trkpt lat="42.86469" lon="1.19849">
        <ele>524.6</ele>
        <time>2024-05-12T09:28:56Z</time>
      </trkpt>
      <trkpt lat="42.86469" lon="1.19853">
        <ele>523.8</ele>
        <time>2024-05-12T09:28:57Z</time>
      </trkpt>
      <trkpt lat="42.86469" lon="1.19856">
        <ele>523.4</ele>
        <time>2024-05-12T09:28:58Z</time>
      </trkpt>
      <trkpt lat="42.86468" lon="1.19861">
        <ele>523.4</ele>
        <time>2024-05-12T09:29:02Z</time>
      </trkpt>
      <trkpt lat="42.86471" lon="1.19865">
        <ele>521.4</ele>
        <time>2024-05-12T09:36:55Z</time>
      </trkpt>
      <trkpt lat="42.86471" lon="1.19867">
        <ele>521.4</ele>
        <time>2024-05-12T09:36:56Z</time>
      </trkpt>
      <trkpt lat="42.86469" lon="1.19876">
        <ele>521.4</ele>
        <time>2024-05-12T09:37:00Z</time>
      </trkpt>
      <trkpt lat="42.86464" lon="1.19896">
        <ele>521.4</ele>
        <time>2024-05-12T09:37:05Z</time>
      </trkpt>
      <trkpt lat="42.86462" lon="1.19905">
        <ele>521.4</ele>
        <time>2024-05-12T09:37:07Z</time>
      </trkpt>
      <trkpt lat="42.86459" lon="1.19921">
        <ele>521.4</ele>
        <time>2024-05-12T09:37:11Z</time>
      </trkpt>
      <trkpt lat="42.86459" lon="1.19924">
        <ele>520.6</ele>
        <time>2024-05-12T09:37:12Z</time>
      </trkpt>
      <trkpt lat="42.86459" lon="1.19928">
        <ele>520.2</ele>
        <time>2024-05-12T09:37:13Z</time>
      </trkpt>
      <trkpt lat="42.86458" lon="1.19932">
        <ele>519.8</ele>
        <time>2024-05-12T09:37:14Z</time>
      </trkpt>
      <trkpt lat="42.86456" lon="1.19936">
        <ele>519.4</ele>
        <time>2024-05-12T09:37:15Z</time>
      </trkpt>
      <trkpt lat="42.86455" lon="1.19941">
        <ele>519.4</ele>
        <time>2024-05-12T09:37:16Z</time>
      </trkpt>
      <trkpt lat="42.86448" lon="1.19965">
        <ele>519.4</ele>
        <time>2024-05-12T09:37:21Z</time>
      </trkpt>
      <trkpt lat="42.86442" lon="1.19979">
        <ele>519.4</ele>
        <time>2024-05-12T09:37:24Z</time>
      </trkpt>
      <trkpt lat="42.86435" lon="1.1999">
        <ele>519.4</ele>
        <time>2024-05-12T09:37:27Z</time>
      </trkpt>
      <trkpt lat="42.86425" lon="1.20009">
        <ele>519.4</ele>
        <time>2024-05-12T09:37:33Z</time>
      </trkpt>
      <trkpt lat="42.86421" lon="1.20017">
        <ele>518.8</ele>
        <time>2024-05-12T09:37:35Z</time>
      </trkpt>
      <trkpt lat="42.86419" lon="1.2002">
        <ele>518</ele>
        <time>2024-05-12T09:37:36Z</time>
      </trkpt>
      <trkpt lat="42.86416" lon="1.20025">
        <ele>517.6</ele>
        <time>2024-05-12T09:37:37Z</time>
      </trkpt>
      <trkpt lat="42.86414" lon="1.2003">
        <ele>517.2</ele>
        <time>2024-05-12T09:37:38Z</time>
      </trkpt>
      <trkpt lat="42.86409" lon="1.20046">
        <ele>517.2</ele>
        <time>2024-05-12T09:37:41Z</time>
      </trkpt>
      <trkpt lat="42.86401" lon="1.20066">
        <ele>517.2</ele>
        <time>2024-05-12T09:37:45Z</time>
      </trkpt>
      <trkpt lat="42.86387" lon="1.20087">
        <ele>517.2</ele>
        <time>2024-05-12T09:37:52Z</time>
      </trkpt>
      <trkpt lat="42.86387" lon="1.20093">
        <ele>517.2</ele>
        <time>2024-05-12T09:37:54Z</time>
      </trkpt>
      <trkpt lat="42.8639" lon="1.20101">
        <ele>516.8</ele>
        <time>2024-05-12T09:37:56Z</time>
      </trkpt>
      <trkpt lat="42.86392" lon="1.20105">
        <ele>516.4</ele>
        <time>2024-05-12T09:37:57Z</time>
      </trkpt>
      <trkpt lat="42.86393" lon="1.20108">
        <ele>516</ele>
        <time>2024-05-12T09:37:58Z</time>
      </trkpt>
      <trkpt lat="42.86394" lon="1.20112">
        <ele>515.6</ele>
        <time>2024-05-12T09:37:59Z</time>
      </trkpt>
      <trkpt lat="42.86397" lon="1.20115">
        <ele>515.2</ele>
        <time>2024-05-12T09:38:00Z</time>
      </trkpt>
      <trkpt lat="42.86399" lon="1.20122">
        <ele>515.2</ele>
        <time>2024-05-12T09:38:02Z</time>
      </trkpt>
      <trkpt lat="42.86399" lon="1.20132">
        <ele>515.2</ele>
        <time>2024-05-12T09:38:06Z</time>
      </trkpt>
      <trkpt lat="42.86396" lon="1.20133">
        <ele>515.2</ele>
        <time>2024-05-12T09:38:07Z</time>
      </trkpt>
      <trkpt lat="42.86382" lon="1.20136">
        <ele>515.2</ele>
        <time>2024-05-12T09:38:12Z</time>
      </trkpt>
      <trkpt lat="42.86366" lon="1.20151">
        <ele>515.2</ele>
        <time>2024-05-12T09:38:17Z</time>
      </trkpt>
      <trkpt lat="42.86353" lon="1.20162">
        <ele>515.2</ele>
        <time>2024-05-12T09:38:22Z</time>
      </trkpt>
      <trkpt lat="42.86352" lon="1.20165">
        <ele>515.2</ele>
        <time>2024-05-12T09:38:24Z</time>
      </trkpt>
      <trkpt lat="42.86354" lon="1.20166">
        <ele>515.2</ele>
        <time>2024-05-12T09:38:26Z</time>
      </trkpt>
      <trkpt lat="42.86362" lon="1.20157">
        <ele>515.2</ele>
        <time>2024-05-12T09:38:29Z</time>
      </trkpt>
      <trkpt lat="42.86377" lon="1.20142">
        <ele>515.2</ele>
        <time>2024-05-12T09:38:34Z</time>
      </trkpt>
      <trkpt lat="42.86384" lon="1.20137">
        <ele>515.2</ele>
        <time>2024-05-12T09:38:36Z</time>
      </trkpt>
      <trkpt lat="42.86396" lon="1.20136">
        <ele>515.2</ele>
        <time>2024-05-12T09:38:39Z</time>
      </trkpt>
      <trkpt lat="42.86411" lon="1.2013">
        <ele>515.2</ele>
        <time>2024-05-12T09:38:43Z</time>
      </trkpt>
      <trkpt lat="42.86416" lon="1.20129">
        <ele>515.2</ele>
        <time>2024-05-12T09:38:44Z</time>
      </trkpt>
      <trkpt lat="42.86427" lon="1.20134">
        <ele>515.2</ele>
        <time>2024-05-12T09:38:47Z</time>
      </trkpt>
      <trkpt lat="42.86432" lon="1.20141">
        <ele>515.2</ele>
        <time>2024-05-12T09:38:50Z</time>
      </trkpt>
      <trkpt lat="42.86437" lon="1.2015">
        <ele>515.6</ele>
        <time>2024-05-12T09:38:54Z</time>
      </trkpt>
      <trkpt lat="42.86438" lon="1.20152">
        <ele>516</ele>
        <time>2024-05-12T09:38:55Z</time>
      </trkpt>
      <trkpt lat="42.8644" lon="1.20154">
        <ele>516.4</ele>
        <time>2024-05-12T09:38:56Z</time>
      </trkpt>
      <trkpt lat="42.86441" lon="1.20156">
        <ele>516.8</ele>
        <time>2024-05-12T09:38:57Z</time>
      </trkpt>
      <trkpt lat="42.86443" lon="1.20158">
        <ele>517.2</ele>
        <time>2024-05-12T09:38:58Z</time>
      </trkpt>
      <trkpt lat="42.86456" lon="1.2017">
        <ele>517.2</ele>
        <time>2024-05-12T09:39:02Z</time>
      </trkpt>
      <trkpt lat="42.86489" lon="1.20189">
        <ele>517.2</ele>
        <time>2024-05-12T09:39:09Z</time>
      </trkpt>
      <trkpt lat="42.86529" lon="1.20211">
        <ele>517.2</ele>
        <time>2024-05-12T09:39:17Z</time>
      </trkpt>
      <trkpt lat="42.86557" lon="1.20225">
        <ele>516.8</ele>
        <time>2024-05-12T09:39:23Z</time>
      </trkpt>
      <trkpt lat="42.86563" lon="1.20226">
        <ele>516.4</ele>
        <time>2024-05-12T09:39:24Z</time>
      </trkpt>
      <trkpt lat="42.86567" lon="1.20227">
        <ele>516</ele>
        <time>2024-05-12T09:39:25Z</time>
      </trkpt>
      <trkpt lat="42.86575" lon="1.20231">
        <ele>515.6</ele>
        <time>2024-05-12T09:39:26Z</time>
      </trkpt>
      <trkpt lat="42.86582" lon="1.20233">
        <ele>515.2</ele>
        <time>2024-05-12T09:39:27Z</time>
      </trkpt>
      <trkpt lat="42.86593" lon="1.20238">
        <ele>515.2</ele>
        <time>2024-05-12T09:39:29Z</time>
      </trkpt>
      <trkpt lat="42.86598" lon="1.20241">
        <ele>515.2</ele>
        <time>2024-05-12T09:39:30Z</time>
      </trkpt>
      <trkpt lat="42.86631" lon="1.2026">
        <ele>515.2</ele>
        <time>2024-05-12T09:39:36Z</time>
      </trkpt>
      <trkpt lat="42.86655" lon="1.20272">
        <ele>514.2</ele>
        <time>2024-05-12T09:39:40Z</time>
      </trkpt>
      <trkpt lat="42.86661" lon="1.20275">
        <ele>513.8</ele>
        <time>2024-05-12T09:39:41Z</time>
      </trkpt>
      <trkpt lat="42.86666" lon="1.20278">
        <ele>513.4</ele>
        <time>2024-05-12T09:39:42Z</time>
      </trkpt>
      <trkpt lat="42.86672" lon="1.20281">
        <ele>513</ele>
        <time>2024-05-12T09:39:43Z</time>
      </trkpt>
      <trkpt lat="42.86709" lon="1.20302">
        <ele>513</ele>
        <time>2024-05-12T09:39:50Z</time>
      </trkpt>
      <trkpt lat="42.86727" lon="1.20312">
        <ele>512.6</ele>
        <time>2024-05-12T09:39:54Z</time>
      </trkpt>
      <trkpt lat="42.86732" lon="1.20315">
        <ele>512.2</ele>
        <time>2024-05-12T09:39:55Z</time>
      </trkpt>
      <trkpt lat="42.86735" lon="1.20317">
        <ele>511.8</ele>
        <time>2024-05-12T09:39:56Z</time>
      </trkpt>
      <trkpt lat="42.8674" lon="1.2032">
        <ele>511.4</ele>
        <time>2024-05-12T09:39:57Z</time>
      </trkpt>
      <trkpt lat="42.86744" lon="1.20322">
        <ele>511</ele>
        <time>2024-05-12T09:39:58Z</time>
      </trkpt>
      <trkpt lat="42.86778" lon="1.20341">
        <ele>511</ele>
        <time>2024-05-12T09:40:06Z</time>
      </trkpt>
      <trkpt lat="42.86814" lon="1.2036">
        <ele>511</ele>
        <time>2024-05-12T09:40:14Z</time>
      </trkpt>
      <trkpt lat="42.86845" lon="1.2038">
        <ele>511</ele>
        <time>2024-05-12T09:40:21Z</time>
      </trkpt>
      <trkpt lat="42.86881" lon="1.20402">
        <ele>511</ele>
        <time>2024-05-12T09:40:29Z</time>
      </trkpt>
      <trkpt lat="42.86894" lon="1.20408">
        <ele>511</ele>
        <time>2024-05-12T09:40:32Z</time>
      </trkpt>
      <trkpt lat="42.86905" lon="1.20414">
        <ele>511</ele>
        <time>2024-05-12T09:40:35Z</time>
      </trkpt>
      <trkpt lat="42.86913" lon="1.20418">
        <ele>511</ele>
        <time>2024-05-12T09:40:37Z</time>
      </trkpt>
      <trkpt lat="42.86926" lon="1.20425">
        <ele>511</ele>
        <time>2024-05-12T09:40:40Z</time>
      </trkpt>
      <trkpt lat="42.86929" lon="1.20428">
        <ele>511</ele>
        <time>2024-05-12T09:40:41Z</time>
      </trkpt>
      <trkpt lat="42.86956" lon="1.20444">
        <ele>511</ele>
        <time>2024-05-12T09:40:48Z</time>
      </trkpt>
      <trkpt lat="42.86974" lon="1.20459">
        <ele>511</ele>
        <time>2024-05-12T09:40:54Z</time>
      </trkpt>
      <trkpt lat="42.86978" lon="1.2047">
        <ele>511</ele>
        <time>2024-05-12T09:40:57Z</time>
      </trkpt>
      <trkpt lat="42.86979" lon="1.20475">
        <ele>511</ele>
        <time>2024-05-12T09:40:58Z</time>
      </trkpt>
      <trkpt lat="42.86974" lon="1.20498">
        <ele>511</ele>
        <time>2024-05-12T09:41:03Z</time>
      </trkpt>
      <trkpt lat="42.86961" lon="1.20529">
        <ele>510.6</ele>
        <time>2024-05-12T09:41:10Z</time>
      </trkpt>
      <trkpt lat="42.86959" lon="1.20535">
        <ele>510</ele>
        <time>2024-05-12T09:41:11Z</time>
      </trkpt>
      <trkpt lat="42.86957" lon="1.2054">
        <ele>509.6</ele>
        <time>2024-05-12T09:41:12Z</time>
      </trkpt>
      <trkpt lat="42.86953" lon="1.20545">
        <ele>509.2</ele>
        <time>2024-05-12T09:41:13Z</time>
      </trkpt>
      <trkpt lat="42.8695" lon="1.20551">
        <ele>508.8</ele>
        <time>2024-05-12T09:41:14Z</time>
      </trkpt>
      <trkpt lat="42.86946" lon="1.20562">
        <ele>508.8</ele>
        <time>2024-05-12T09:41:16Z</time>
      </trkpt>
      <trkpt lat="42.86935" lon="1.20585">
        <ele>508.8</ele>
        <time>2024-05-12T09:41:20Z</time>
      </trkpt>
      <trkpt lat="42.86918" lon="1.20626">
        <ele>508.8</ele>
        <time>2024-05-12T09:41:27Z</time>
      </trkpt>
      <trkpt lat="42.86901" lon="1.20662">
        <ele>508.8</ele>
        <time>2024-05-12T09:41:33Z</time>
      </trkpt>
      <trkpt lat="42.86881" lon="1.20707">
        <ele>508.8</ele>
        <time>2024-05-12T09:41:40Z</time>
      </trkpt>
      <trkpt lat="42.86866" lon="1.20741">
        <ele>508.8</ele>
        <time>2024-05-12T09:41:46Z</time>
      </trkpt>
      <trkpt lat="42.86849" lon="1.20777">
        <ele>508.8</ele>
        <time>2024-05-12T09:41:53Z</time>
      </trkpt>
      <trkpt lat="42.86845" lon="1.20787">
        <ele>508.8</ele>
        <time>2024-05-12T09:41:55Z</time>
      </trkpt>
      <trkpt lat="42.86838" lon="1.20802">
        <ele>508.8</ele>
        <time>2024-05-12T09:41:58Z</time>
      </trkpt>
      <trkpt lat="42.86825" lon="1.20825">
        <ele>508.8</ele>
        <time>2024-05-12T09:42:03Z</time>
      </trkpt>
      <trkpt lat="42.86821" lon="1.20828">
        <ele>509.4</ele>
        <time>2024-05-12T09:42:04Z</time>
      </trkpt>
      <trkpt lat="42.86817" lon="1.20832">
        <ele>509.8</ele>
        <time>2024-05-12T09:42:05Z</time>
      </trkpt>
      <trkpt lat="42.86814" lon="1.20837">
        <ele>510.2</ele>
        <time>2024-05-12T09:42:06Z</time>
      </trkpt>
      <trkpt lat="42.86813" lon="1.20844">
        <ele>510.6</ele>
        <time>2024-05-12T09:42:07Z</time>
      </trkpt>
      <trkpt lat="42.86813" lon="1.20851">
        <ele>511</ele>
        <time>2024-05-12T09:42:08Z</time>
      </trkpt>
      <trkpt lat="42.8682" lon="1.20859">
        <ele>511</ele>
        <time>2024-05-12T09:42:10Z</time>
      </trkpt>
      <trkpt lat="42.86839" lon="1.20868">
        <ele>511</ele>
        <time>2024-05-12T09:42:14Z</time>
      </trkpt>
      <trkpt lat="42.86848" lon="1.20883">
        <ele>511</ele>
        <time>2024-05-12T09:42:17Z</time>
      </trkpt>
      <trkpt lat="42.86861" lon="1.20891">
        <ele>511</ele>
        <time>2024-05-12T09:42:20Z</time>
      </trkpt>
      <trkpt lat="42.8687" lon="1.20897">
        <ele>511</ele>
        <time>2024-05-12T09:42:22Z</time>
      </trkpt>
      <trkpt lat="42.8691" lon="1.20921">
        <ele>511</ele>
        <time>2024-05-12T09:42:30Z</time>
      </trkpt>
      <trkpt lat="42.86914" lon="1.20925">
        <ele>511</ele>
        <time>2024-05-12T09:42:31Z</time>
      </trkpt>
      <trkpt lat="42.86923" lon="1.20932">
        <ele>511</ele>
        <time>2024-05-12T09:42:33Z</time>
      </trkpt>
      <trkpt lat="42.86936" lon="1.20945">
        <ele>511</ele>
        <time>2024-05-12T09:42:36Z</time>
      </trkpt>
      <trkpt lat="42.86941" lon="1.2095">
        <ele>510.6</ele>
        <time>2024-05-12T09:42:37Z</time>
      </trkpt>
      <trkpt lat="42.86945" lon="1.20955">
        <ele>510.2</ele>
        <time>2024-05-12T09:42:38Z</time>
      </trkpt>
      <trkpt lat="42.8695" lon="1.2096">
        <ele>509.8</ele>
        <time>2024-05-12T09:42:39Z</time>
      </trkpt>
      <trkpt lat="42.86954" lon="1.20966">
        <ele>509.4</ele>
        <time>2024-05-12T09:42:40Z</time>
      </trkpt>
      <trkpt lat="42.86959" lon="1.20971">
        <ele>508.8</ele>
        <time>2024-05-12T09:42:41Z</time>
      </trkpt>
      <trkpt lat="42.86962" lon="1.20976">
        <ele>508.8</ele>
        <time>2024-05-12T09:42:42Z</time>
      </trkpt>
      <trkpt lat="42.86986" lon="1.21007">
        <ele>508.8</ele>
        <time>2024-05-12T09:42:48Z</time>
      </trkpt>
      <trkpt lat="42.86999" lon="1.21021">
        <ele>508.4</ele>
        <time>2024-05-12T09:42:51Z</time>
      </trkpt>
      <trkpt lat="42.87004" lon="1.21024">
        <ele>508</ele>
        <time>2024-05-12T09:42:52Z</time>
      </trkpt>
      <trkpt lat="42.87009" lon="1.21027">
        <ele>507.6</ele>
        <time>2024-05-12T09:42:53Z</time>
      </trkpt>
      <trkpt lat="42.87014" lon="1.2103">
        <ele>507.2</ele>
        <time>2024-05-12T09:42:54Z</time>
      </trkpt>
      <trkpt lat="42.8702" lon="1.21034">
        <ele>506.6</ele>
        <time>2024-05-12T09:42:55Z</time>
      </trkpt>
      <trkpt lat="42.87045" lon="1.21049">
        <ele>506.6</ele>
        <time>2024-05-12T09:42:59Z</time>
      </trkpt>
      <trkpt lat="42.87073" lon="1.21066">
        <ele>506.6</ele>
        <time>2024-05-12T09:43:04Z</time>
      </trkpt>
      <trkpt lat="42.87108" lon="1.21085">
        <ele>506.6</ele>
        <time>2024-05-12T09:43:11Z</time>
      </trkpt>
      <trkpt lat="42.8714" lon="1.21101">
        <ele>506.6</ele>
        <time>2024-05-12T09:43:17Z</time>
      </trkpt>
      <trkpt lat="42.87176" lon="1.21118">
        <ele>506.6</ele>
        <time>2024-05-12T09:43:24Z</time>
      </trkpt>
      <trkpt lat="42.87214" lon="1.21133">
        <ele>506.6</ele>
        <time>2024-05-12T09:43:31Z</time>
      </trkpt>
      <trkpt lat="42.8725" lon="1.21157">
        <ele>506.6</ele>
        <time>2024-05-12T09:43:38Z</time>
      </trkpt>
      <trkpt lat="42.87259" lon="1.21165">
        <ele>506.2</ele>
        <time>2024-05-12T09:43:40Z</time>
      </trkpt>
      <trkpt lat="42.87263" lon="1.21169">
        <ele>505.8</ele>
        <time>2024-05-12T09:43:41Z</time>
      </trkpt>
      <trkpt lat="42.87268" lon="1.21174">
        <ele>505.4</ele>
        <time>2024-05-12T09:43:42Z</time>
      </trkpt>
      <trkpt lat="42.87272" lon="1.21179">
        <ele>505</ele>
        <time>2024-05-12T09:43:43Z</time>
      </trkpt>
      <trkpt lat="42.87276" lon="1.21184">
        <ele>504.6</ele>
        <time>2024-05-12T09:43:44Z</time>
      </trkpt>
      <trkpt lat="42.87281" lon="1.21189">
        <ele>504.6</ele>
        <time>2024-05-12T09:43:45Z</time>
      </trkpt>
      <trkpt lat="42.8731" lon="1.2122">
        <ele>504.6</ele>
        <time>2024-05-12T09:43:52Z</time>
      </trkpt>
      <trkpt lat="42.87334" lon="1.21245">
        <ele>504.6</ele>
        <time>2024-05-12T09:43:58Z</time>
      </trkpt>
      <trkpt lat="42.87361" lon="1.21276">
        <ele>504.6</ele>
        <time>2024-05-12T09:44:05Z</time>
      </trkpt>
      <trkpt lat="42.87372" lon="1.21288">
        <ele>504.6</ele>
        <time>2024-05-12T09:44:08Z</time>
      </trkpt>
      <trkpt lat="42.87383" lon="1.213">
        <ele>504.6</ele>
        <time>2024-05-12T09:44:11Z</time>
      </trkpt>
      <trkpt lat="42.87416" lon="1.21336">
        <ele>505.2</ele>
        <time>2024-05-12T09:44:20Z</time>
      </trkpt>
      <trkpt lat="42.87419" lon="1.2134">
        <ele>505.6</ele>
        <time>2024-05-12T09:44:21Z</time>
      </trkpt>
      <trkpt lat="42.87422" lon="1.21344">
        <ele>506</ele>
        <time>2024-05-12T09:44:22Z</time>
      </trkpt>
      <trkpt lat="42.87425" lon="1.21348">
        <ele>506.4</ele>
        <time>2024-05-12T09:44:23Z</time>
      </trkpt>
      <trkpt lat="42.87428" lon="1.21351">
        <ele>507</ele>
        <time>2024-05-12T09:44:24Z</time>
      </trkpt>
      <trkpt lat="42.87436" lon="1.21361">
        <ele>507</ele>
        <time>2024-05-12T09:44:27Z</time>
      </trkpt>
      <trkpt lat="42.87454" lon="1.21382">
        <ele>507</ele>
        <time>2024-05-12T09:44:34Z</time>
      </trkpt>
      <trkpt lat="42.87461" lon="1.21395">
        <ele>507</ele>
        <time>2024-05-12T09:44:40Z</time>
      </trkpt>
      <trkpt lat="42.87462" lon="1.21398">
        <ele>507</ele>
        <time>2024-05-12T09:44:42Z</time>
      </trkpt>
      <trkpt lat="42.87467" lon="1.21399">
        <ele>507</ele>
        <time>2024-05-12T09:44:45Z</time>
      </trkpt>
      <trkpt lat="42.87473" lon="1.21403">
        <ele>507</ele>
        <time>2024-05-12T09:44:49Z</time>
      </trkpt>
      <trkpt lat="42.87475" lon="1.21408">
        <ele>507</ele>
        <time>2024-05-12T09:44:51Z</time>
      </trkpt>
      <trkpt lat="42.87478" lon="1.21413">
        <ele>507</ele>
        <time>2024-05-12T09:44:53Z</time>
      </trkpt>
      <trkpt lat="42.87483" lon="1.21426">
        <ele>507</ele>
        <time>2024-05-12T09:44:57Z</time>
      </trkpt>
      <trkpt lat="42.87488" lon="1.21441">
        <ele>506.6</ele>
        <time>2024-05-12T09:45:01Z</time>
      </trkpt>
      <trkpt lat="42.87489" lon="1.21445">
        <ele>505.8</ele>
        <time>2024-05-12T09:45:02Z</time>
      </trkpt>
      <trkpt lat="42.8749" lon="1.21449">
        <ele>505.4</ele>
        <time>2024-05-12T09:45:03Z</time>
      </trkpt>
      <trkpt lat="42.87491" lon="1.21452">
        <ele>505</ele>
        <time>2024-05-12T09:45:04Z</time>
      </trkpt>
      <trkpt lat="42.87494" lon="1.21465">
        <ele>505</ele>
        <time>2024-05-12T09:45:08Z</time>
      </trkpt>
      <trkpt lat="42.875" lon="1.21481">
        <ele>505</ele>
        <time>2024-05-12T09:45:13Z</time>
      </trkpt>
      <trkpt lat="42.87504" lon="1.21496">
        <ele>505</ele>
        <time>2024-05-12T09:45:18Z</time>
      </trkpt>
      <trkpt lat="42.87503" lon="1.21499">
        <ele>505</ele>
        <time>2024-05-12T09:45:19Z</time>
      </trkpt>
      <trkpt lat="42.875" lon="1.21519">
        <ele>505</ele>
        <time>2024-05-12T09:45:26Z</time>
      </trkpt>
      <trkpt lat="42.87496" lon="1.21536">
        <ele>505</ele>
        <time>2024-05-12T09:45:31Z</time>
      </trkpt>
      <trkpt lat="42.87488" lon="1.21556">
        <ele>505</ele>
        <time>2024-05-12T09:45:36Z</time>
      </trkpt>
      <trkpt lat="42.87486" lon="1.21561">
        <ele>505</ele>
        <time>2024-05-12T09:45:37Z</time>
      </trkpt>
      <trkpt lat="42.87481" lon="1.2157">
        <ele>505</ele>
        <time>2024-05-12T09:45:39Z</time>
      </trkpt>
      <trkpt lat="42.87473" lon="1.21583">
        <ele>505</ele>
        <time>2024-05-12T09:45:42Z</time>
      </trkpt>
      <trkpt lat="42.8745" lon="1.21618">
        <ele>505</ele>
        <time>2024-05-12T09:45:51Z</time>
      </trkpt>
      <trkpt lat="42.87435" lon="1.21639">
        <ele>505</ele>
        <time>2024-05-12T09:45:58Z</time>
      </trkpt>
      <trkpt lat="42.8744" lon="1.21654">
        <ele>505</ele>
        <time>2024-05-12T09:46:02Z</time>
      </trkpt>
      <trkpt lat="42.87443" lon="1.21677">
        <ele>505</ele>
        <time>2024-05-12T09:46:06Z</time>
      </trkpt>
      <trkpt lat="42.87442" lon="1.21683">
        <ele>505</ele>
        <time>2024-05-12T09:46:07Z</time>
      </trkpt>
      <trkpt lat="42.87441" lon="1.21696">
        <ele>505</ele>
        <time>2024-05-12T09:46:09Z</time>
      </trkpt>
      <trkpt lat="42.87446" lon="1.21719">
        <ele>505</ele>
        <time>2024-05-12T09:46:13Z</time>
      </trkpt>
      <trkpt lat="42.87448" lon="1.21724">
        <ele>505</ele>
        <time>2024-05-12T09:46:14Z</time>
      </trkpt>
      <trkpt lat="42.87458" lon="1.21748">
        <ele>505</ele>
        <time>2024-05-12T09:46:19Z</time>
      </trkpt>
      <trkpt lat="42.87461" lon="1.21771">
        <ele>505</ele>
        <time>2024-05-12T09:46:24Z</time>
      </trkpt>
      <trkpt lat="42.87456" lon="1.21795">
        <ele>505</ele>
        <time>2024-05-12T09:46:29Z</time>
      </trkpt>
      <trkpt lat="42.87452" lon="1.21805">
        <ele>505</ele>
        <time>2024-05-12T09:46:31Z</time>
      </trkpt>
      <trkpt lat="42.87451" lon="1.21816">
        <ele>505</ele>
        <time>2024-05-12T09:46:33Z</time>
      </trkpt>
      <trkpt lat="42.87453" lon="1.21827">
        <ele>505</ele>
        <time>2024-05-12T09:46:35Z</time>
      </trkpt>
      <trkpt lat="42.87456" lon="1.21852">
        <ele>505</ele>
        <time>2024-05-12T09:46:39Z</time>
      </trkpt>
      <trkpt lat="42.87461" lon="1.21875">
        <ele>505</ele>
        <time>2024-05-12T09:46:43Z</time>
      </trkpt>
      <trkpt lat="42.87462" lon="1.2188">
        <ele>505.4</ele>
        <time>2024-05-12T09:46:44Z</time>
      </trkpt>
      <trkpt lat="42.87463" lon="1.21886">
        <ele>505.8</ele>
        <time>2024-05-12T09:46:45Z</time>
      </trkpt>
      <trkpt lat="42.87464" lon="1.21893">
        <ele>506.2</ele>
        <time>2024-05-12T09:46:46Z</time>
      </trkpt>
      <trkpt lat="42.87466" lon="1.21898">
        <ele>506.6</ele>
        <time>2024-05-12T09:46:47Z</time>
      </trkpt>
      <trkpt lat="42.87467" lon="1.21904">
        <ele>507</ele>
        <time>2024-05-12T09:46:48Z</time>
      </trkpt>
      <trkpt lat="42.87471" lon="1.2192">
        <ele>507</ele>
        <time>2024-05-12T09:46:51Z</time>
      </trkpt>
      <trkpt lat="42.87472" lon="1.2193">
        <ele>507.4</ele>
        <time>2024-05-12T09:46:53Z</time>
      </trkpt>
      <trkpt lat="42.87473" lon="1.21935">
        <ele>507.8</ele>
        <time>2024-05-12T09:46:54Z</time>
      </trkpt>
      <trkpt lat="42.87474" lon="1.21939">
        <ele>508.2</ele>
        <time>2024-05-12T09:46:55Z</time>
      </trkpt>
      <trkpt lat="42.87475" lon="1.21943">
        <ele>508.6</ele>
        <time>2024-05-12T09:46:56Z</time>
      </trkpt>
      <trkpt lat="42.87476" lon="1.21948">
        <ele>509</ele>
        <time>2024-05-12T09:46:57Z</time>
      </trkpt>
      <trkpt lat="42.87479" lon="1.21967">
        <ele>509.6</ele>
        <time>2024-05-12T09:47:01Z</time>
      </trkpt>
      <trkpt lat="42.87478" lon="1.21971">
        <ele>510</ele>
        <time>2024-05-12T09:47:02Z</time>
      </trkpt>
      <trkpt lat="42.87477" lon="1.21976">
        <ele>510.4</ele>
        <time>2024-05-12T09:47:03Z</time>
      </trkpt>
      <trkpt lat="42.87474" lon="1.21979">
        <ele>510.8</ele>
        <time>2024-05-12T09:47:04Z</time>
      </trkpt>
      <trkpt lat="42.87471" lon="1.21982">
        <ele>511.2</ele>
        <time>2024-05-12T09:47:05Z</time>
      </trkpt>
      <trkpt lat="42.87468" lon="1.21984">
        <ele>511.6</ele>
        <time>2024-05-12T09:47:06Z</time>
      </trkpt>
      <trkpt lat="42.87465" lon="1.21986">
        <ele>512</ele>
        <time>2024-05-12T09:47:07Z</time>
      </trkpt>
      <trkpt lat="42.87462" lon="1.21988">
        <ele>512.6</ele>
        <time>2024-05-12T09:47:08Z</time>
      </trkpt>
      <trkpt lat="42.87459" lon="1.2199">
        <ele>513</ele>
        <time>2024-05-12T09:47:09Z</time>
      </trkpt>
      <trkpt lat="42.87456" lon="1.21992">
        <ele>513.4</ele>
        <time>2024-05-12T09:47:10Z</time>
      </trkpt>
      <trkpt lat="42.87446" lon="1.21999">
        <ele>513.8</ele>
        <time>2024-05-12T09:47:13Z</time>
      </trkpt>
      <trkpt lat="42.87443" lon="1.22002">
        <ele>514.2</ele>
        <time>2024-05-12T09:47:14Z</time>
      </trkpt>
      <trkpt lat="42.8744" lon="1.22004">
        <ele>514.6</ele>
        <time>2024-05-12T09:47:15Z</time>
      </trkpt>
      <trkpt lat="42.87436" lon="1.22007">
        <ele>515.2</ele>
        <time>2024-05-12T09:47:16Z</time>
      </trkpt>
      <trkpt lat="42.87433" lon="1.22009">
        <ele>515.6</ele>
        <time>2024-05-12T09:47:17Z</time>
      </trkpt>
      <trkpt lat="42.87417" lon="1.2202">
        <ele>515.6</ele>
        <time>2024-05-12T09:47:22Z</time>
      </trkpt>
      <trkpt lat="42.87409" lon="1.22035">
        <ele>516</ele>
        <time>2024-05-12T09:47:26Z</time>
      </trkpt>
      <trkpt lat="42.87407" lon="1.22039">
        <ele>516.4</ele>
        <time>2024-05-12T09:47:27Z</time>
      </trkpt>
      <trkpt lat="42.87406" lon="1.22044">
        <ele>517</ele>
        <time>2024-05-12T09:47:28Z</time>
      </trkpt>
      <trkpt lat="42.87404" lon="1.22048">
        <ele>517.4</ele>
        <time>2024-05-12T09:47:29Z</time>
      </trkpt>
      <trkpt lat="42.87403" lon="1.22053">
        <ele>518.2</ele>
        <time>2024-05-12T09:47:30Z</time>
      </trkpt>
      <trkpt lat="42.87402" lon="1.22057">
        <ele>518.6</ele>
        <time>2024-05-12T09:47:31Z</time>
      </trkpt>
      <trkpt lat="42.87401" lon="1.22061">
        <ele>519</ele>
        <time>2024-05-12T09:47:32Z</time>
      </trkpt>
      <trkpt lat="42.87399" lon="1.22065">
        <ele>519.4</ele>
        <time>2024-05-12T09:47:33Z</time>
      </trkpt>
      <trkpt lat="42.87398" lon="1.22069">
        <ele>519.8</ele>
        <time>2024-05-12T09:47:34Z</time>
      </trkpt>
      <trkpt lat="42.87393" lon="1.22089">
        <ele>520.4</ele>
        <time>2024-05-12T09:47:39Z</time>
      </trkpt>
      <trkpt lat="42.87392" lon="1.22093">
        <ele>520.8</ele>
        <time>2024-05-12T09:47:40Z</time>
      </trkpt>
      <trkpt lat="42.87391" lon="1.22096">
        <ele>521.2</ele>
        <time>2024-05-12T09:47:41Z</time>
      </trkpt>
      <trkpt lat="42.8739" lon="1.221">
        <ele>521.6</ele>
        <time>2024-05-12T09:47:42Z</time>
      </trkpt>
      <trkpt lat="42.87389" lon="1.22103">
        <ele>522</ele>
        <time>2024-05-12T09:47:43Z</time>
      </trkpt>
      <trkpt lat="42.87386" lon="1.22109">
        <ele>522.4</ele>
        <time>2024-05-12T09:47:45Z</time>
      </trkpt>
      <trkpt lat="42.87385" lon="1.22113">
        <ele>522.8</ele>
        <time>2024-05-12T09:47:46Z</time>
      </trkpt>
      <trkpt lat="42.87385" lon="1.22116">
        <ele>523.2</ele>
        <time>2024-05-12T09:47:47Z</time>
      </trkpt>
      <trkpt lat="42.87383" lon="1.2212">
        <ele>523.6</ele>
        <time>2024-05-12T09:47:49Z</time>
      </trkpt>
      <trkpt lat="42.87382" lon="1.22123">
        <ele>524</ele>
        <time>2024-05-12T09:47:50Z</time>
      </trkpt>
      <trkpt lat="42.87382" lon="1.22126">
        <ele>524.4</ele>
        <time>2024-05-12T09:47:51Z</time>
      </trkpt>
      <trkpt lat="42.87381" lon="1.22129">
        <ele>524.8</ele>
        <time>2024-05-12T09:47:52Z</time>
      </trkpt>
      <trkpt lat="42.8738" lon="1.22131">
        <ele>525.2</ele>
        <time>2024-05-12T09:47:53Z</time>
      </trkpt>
      <trkpt lat="42.87378" lon="1.22134">
        <ele>525.6</ele>
        <time>2024-05-12T09:47:54Z</time>
      </trkpt>
      <trkpt lat="42.87377" lon="1.22137">
        <ele>526</ele>
        <time>2024-05-12T09:47:55Z</time>
      </trkpt>
      <trkpt lat="42.87375" lon="1.2214">
        <ele>526.6</ele>
        <time>2024-05-12T09:47:56Z</time>
      </trkpt>
      <trkpt lat="42.87374" lon="1.22143">
        <ele>527</ele>
        <time>2024-05-12T09:47:57Z</time>
      </trkpt>
      <trkpt lat="42.87372" lon="1.22145">
        <ele>527.4</ele>
        <time>2024-05-12T09:47:58Z</time>
      </trkpt>
      <trkpt lat="42.87371" lon="1.22147">
        <ele>527.8</ele>
        <time>2024-05-12T09:47:59Z</time>
      </trkpt>
      <trkpt lat="42.87369" lon="1.22149">
        <ele>528.4</ele>
        <time>2024-05-12T09:48:00Z</time>
      </trkpt>
      <trkpt lat="42.87365" lon="1.2215">
        <ele>528.8</ele>
        <time>2024-05-12T09:48:02Z</time>
      </trkpt>
      <trkpt lat="42.87363" lon="1.2215">
        <ele>529.2</ele>
        <time>2024-05-12T09:48:03Z</time>
      </trkpt>
      <trkpt lat="42.87361" lon="1.22149">
        <ele>529.6</ele>
        <time>2024-05-12T09:48:04Z</time>
      </trkpt>
      <trkpt lat="42.87358" lon="1.22148">
        <ele>530</ele>
        <time>2024-05-12T09:48:05Z</time>
      </trkpt>
      <trkpt lat="42.87354" lon="1.22147">
        <ele>530.6</ele>
        <time>2024-05-12T09:48:06Z</time>
      </trkpt>
      <trkpt lat="42.87351" lon="1.22146">
        <ele>530.6</ele>
        <time>2024-05-12T09:48:07Z</time>
      </trkpt>
      <trkpt lat="42.87346" lon="1.22142">
        <ele>531</ele>
        <time>2024-05-12T09:48:09Z</time>
      </trkpt>
      <trkpt lat="42.87344" lon="1.22142">
        <ele>531.4</ele>
        <time>2024-05-12T09:48:10Z</time>
      </trkpt>
      <trkpt lat="42.87341" lon="1.22141">
        <ele>531.8</ele>
        <time>2024-05-12T09:48:11Z</time>
      </trkpt>
      <trkpt lat="42.87338" lon="1.22141">
        <ele>532.2</ele>
        <time>2024-05-12T09:48:12Z</time>
      </trkpt>
      <trkpt lat="42.87335" lon="1.22141">
        <ele>532.6</ele>
        <time>2024-05-12T09:48:13Z</time>
      </trkpt>
      <trkpt lat="42.87328" lon="1.22145">
        <ele>533.2</ele>
        <time>2024-05-12T09:48:16Z</time>
      </trkpt>
      <trkpt lat="42.87326" lon="1.22147">
        <ele>533.6</ele>
        <time>2024-05-12T09:48:17Z</time>
      </trkpt>
      <trkpt lat="42.87325" lon="1.22149">
        <ele>534</ele>
        <time>2024-05-12T09:48:18Z</time>
      </trkpt>
      <trkpt lat="42.87323" lon="1.22152">
        <ele>534.6</ele>
        <time>2024-05-12T09:48:19Z</time>
      </trkpt>
      <trkpt lat="42.87321" lon="1.22155">
        <ele>535</ele>
        <time>2024-05-12T09:48:20Z</time>
      </trkpt>
      <trkpt lat="42.87318" lon="1.2216">
        <ele>535.4</ele>
        <time>2024-05-12T09:48:22Z</time>
      </trkpt>
      <trkpt lat="42.87317" lon="1.22163">
        <ele>535.8</ele>
        <time>2024-05-12T09:48:23Z</time>
      </trkpt>
      <trkpt lat="42.87315" lon="1.22166">
        <ele>536.2</ele>
        <time>2024-05-12T09:48:24Z</time>
      </trkpt>
      <trkpt lat="42.87314" lon="1.22169">
        <ele>536.6</ele>
        <time>2024-05-12T09:48:25Z</time>
      </trkpt>
      <trkpt lat="42.87312" lon="1.22172">
        <ele>537</ele>
        <time>2024-05-12T09:48:26Z</time>
      </trkpt>
      <trkpt lat="42.87306" lon="1.22184">
        <ele>537.4</ele>
        <time>2024-05-12T09:48:30Z</time>
      </trkpt>
      <trkpt lat="42.87305" lon="1.22187">
        <ele>538</ele>
        <time>2024-05-12T09:48:31Z</time>
      </trkpt>
      <trkpt lat="42.87304" lon="1.2219">
        <ele>538.4</ele>
        <time>2024-05-12T09:48:32Z</time>
      </trkpt>
      <trkpt lat="42.87302" lon="1.22193">
        <ele>538.8</ele>
        <time>2024-05-12T09:48:33Z</time>
      </trkpt>
      <trkpt lat="42.87301" lon="1.22196">
        <ele>539.2</ele>
        <time>2024-05-12T09:48:34Z</time>
      </trkpt>
      <trkpt lat="42.87295" lon="1.22207">
        <ele>539.8</ele>
        <time>2024-05-12T09:48:38Z</time>
      </trkpt>
      <trkpt lat="42.87293" lon="1.2221">
        <ele>540.2</ele>
        <time>2024-05-12T09:48:39Z</time>
      </trkpt>
      <trkpt lat="42.87292" lon="1.22213">
        <ele>540.6</ele>
        <time>2024-05-12T09:48:40Z</time>
      </trkpt>
      <trkpt lat="42.87291" lon="1.22217">
        <ele>541</ele>
        <time>2024-05-12T09:48:41Z</time>
      </trkpt>
      <trkpt lat="42.8729" lon="1.2222">
        <ele>541.4</ele>
        <time>2024-05-12T09:48:42Z</time>
      </trkpt>
      <trkpt lat="42.87289" lon="1.22227">
        <ele>541.8</ele>
        <time>2024-05-12T09:48:44Z</time>
      </trkpt>
      <trkpt lat="42.8729" lon="1.22231">
        <ele>542.8</ele>
        <time>2024-05-12T09:48:45Z</time>
      </trkpt>
      <trkpt lat="42.87291" lon="1.22234">
        <ele>543.2</ele>
        <time>2024-05-12T09:48:46Z</time>
      </trkpt>
      <trkpt lat="42.87292" lon="1.22237">
        <ele>543.6</ele>
        <time>2024-05-12T09:48:47Z</time>
      </trkpt>
      <trkpt lat="42.87297" lon="1.22245">
        <ele>544</ele>
        <time>2024-05-12T09:48:50Z</time>
      </trkpt>
      <trkpt lat="42.87299" lon="1.22248">
        <ele>544.4</ele>
        <time>2024-05-12T09:48:51Z</time>
      </trkpt>
      <trkpt lat="42.87301" lon="1.2225">
        <ele>544.8</ele>
        <time>2024-05-12T09:48:52Z</time>
      </trkpt>
      <trkpt lat="42.87302" lon="1.22253">
        <ele>545.2</ele>
        <time>2024-05-12T09:48:53Z</time>
      </trkpt>
      <trkpt lat="42.87304" lon="1.22256">
        <ele>545.6</ele>
        <time>2024-05-12T09:48:54Z</time>
      </trkpt>
      <trkpt lat="42.87307" lon="1.22262">
        <ele>546</ele>
        <time>2024-05-12T09:48:56Z</time>
      </trkpt>
      <trkpt lat="42.87308" lon="1.22266">
        <ele>546.6</ele>
        <time>2024-05-12T09:48:57Z</time>
      </trkpt>
      <trkpt lat="42.8731" lon="1.22269">
        <ele>547</ele>
        <time>2024-05-12T09:48:58Z</time>
      </trkpt>
      <trkpt lat="42.87311" lon="1.22271">
        <ele>547.4</ele>
        <time>2024-05-12T09:48:59Z</time>
      </trkpt>
      <trkpt lat="42.87313" lon="1.22274">
        <ele>548</ele>
        <time>2024-05-12T09:49:00Z</time>
      </trkpt>
      <trkpt lat="42.87317" lon="1.22283">
        <ele>548</ele>
        <time>2024-05-12T09:49:03Z</time>
      </trkpt>
      <trkpt lat="42.87321" lon="1.22288">
        <ele>548.4</ele>
        <time>2024-05-12T09:49:05Z</time>
      </trkpt>
      <trkpt lat="42.87323" lon="1.2229">
        <ele>548.8</ele>
        <time>2024-05-12T09:49:06Z</time>
      </trkpt>
      <trkpt lat="42.87325" lon="1.22292">
        <ele>549.2</ele>
        <time>2024-05-12T09:49:07Z</time>
      </trkpt>
      <trkpt lat="42.87327" lon="1.22293">
        <ele>549.6</ele>
        <time>2024-05-12T09:49:08Z</time>
      </trkpt>
      <trkpt lat="42.8733" lon="1.22294">
        <ele>550.2</ele>
        <time>2024-05-12T09:49:09Z</time>
      </trkpt>
      <trkpt lat="42.87337" lon="1.22293">
        <ele>550.6</ele>
        <time>2024-05-12T09:49:12Z</time>
      </trkpt>
      <trkpt lat="42.8734" lon="1.22291">
        <ele>551</ele>
        <time>2024-05-12T09:49:13Z</time>
      </trkpt>
      <trkpt lat="42.87342" lon="1.2229">
        <ele>551.4</ele>
        <time>2024-05-12T09:49:14Z</time>
      </trkpt>
      <trkpt lat="42.87344" lon="1.22288">
        <ele>552</ele>
        <time>2024-05-12T09:49:15Z</time>
      </trkpt>
      <trkpt lat="42.87346" lon="1.22286">
        <ele>552.4</ele>
        <time>2024-05-12T09:49:16Z</time>
      </trkpt>
      <trkpt lat="42.87353" lon="1.22281">
        <ele>552.8</ele>
        <time>2024-05-12T09:49:19Z</time>
      </trkpt>
      <trkpt lat="42.87355" lon="1.2228">
        <ele>553.4</ele>
        <time>2024-05-12T09:49:20Z</time>
      </trkpt>
      <trkpt lat="42.87358" lon="1.22278">
        <ele>553.8</ele>
        <time>2024-05-12T09:49:21Z</time>
      </trkpt>
      <trkpt lat="42.8736" lon="1.22277">
        <ele>554.4</ele>
        <time>2024-05-12T09:49:22Z</time>
      </trkpt>
      <trkpt lat="42.87362" lon="1.22275">
        <ele>554.8</ele>
        <time>2024-05-12T09:49:23Z</time>
      </trkpt>
      <trkpt lat="42.87372" lon="1.2227">
        <ele>555.4</ele>
        <time>2024-05-12T09:49:27Z</time>
      </trkpt>
      <trkpt lat="42.87374" lon="1.22269">
        <ele>555.8</ele>
        <time>2024-05-12T09:49:28Z</time>
      </trkpt>
      <trkpt lat="42.87377" lon="1.22268">
        <ele>556.2</ele>
        <time>2024-05-12T09:49:29Z</time>
      </trkpt>
      <trkpt lat="42.87379" lon="1.22267">
        <ele>556.6</ele>
        <time>2024-05-12T09:49:30Z</time>
      </trkpt>
      <trkpt lat="42.87381" lon="1.22266">
        <ele>557</ele>
        <time>2024-05-12T09:49:31Z</time>
      </trkpt>
      <trkpt lat="42.87387" lon="1.22264">
        <ele>557.4</ele>
        <time>2024-05-12T09:49:33Z</time>
      </trkpt>
      <trkpt lat="42.87389" lon="1.22263">
        <ele>557.8</ele>
        <time>2024-05-12T09:49:34Z</time>
      </trkpt>
      <trkpt lat="42.87391" lon="1.22262">
        <ele>558.6</ele>
        <time>2024-05-12T09:49:35Z</time>
      </trkpt>
      <trkpt lat="42.87394" lon="1.22262">
        <ele>559</ele>
        <time>2024-05-12T09:49:36Z</time>
      </trkpt>
      <trkpt lat="42.87401" lon="1.22261">
        <ele>559</ele>
        <time>2024-05-12T09:49:39Z</time>
      </trkpt>
      <trkpt lat="42.87404" lon="1.2226">
        <ele>559.6</ele>
        <time>2024-05-12T09:49:40Z</time>
      </trkpt>
      <trkpt lat="42.87406" lon="1.2226">
        <ele>560</ele>
        <time>2024-05-12T09:49:41Z</time>
      </trkpt>
      <trkpt lat="42.87409" lon="1.2226">
        <ele>560.4</ele>
        <time>2024-05-12T09:49:42Z</time>
      </trkpt>
      <trkpt lat="42.87412" lon="1.22259">
        <ele>560.8</ele>
        <time>2024-05-12T09:49:43Z</time>
      </trkpt>
      <trkpt lat="42.87414" lon="1.22259">
        <ele>561.4</ele>
        <time>2024-05-12T09:49:44Z</time>
      </trkpt>
      <trkpt lat="42.87416" lon="1.22258">
        <ele>561.4</ele>
        <time>2024-05-12T09:49:45Z</time>
      </trkpt>
      <trkpt lat="42.87418" lon="1.22259">
        <ele>561.4</ele>
        <time>2024-05-12T09:49:48Z</time>
      </trkpt>
      <trkpt lat="42.87422" lon="1.22257">
        <ele>561.8</ele>
        <time>2024-05-12T09:49:54Z</time>
      </trkpt>
      <trkpt lat="42.87424" lon="1.22255">
        <ele>562.2</ele>
        <time>2024-05-12T09:49:55Z</time>
      </trkpt>
      <trkpt lat="42.87427" lon="1.22252">
        <ele>562.6</ele>
        <time>2024-05-12T09:49:56Z</time>
      </trkpt>
      <trkpt lat="42.8743" lon="1.22251">
        <ele>563</ele>
        <time>2024-05-12T09:49:57Z</time>
      </trkpt>
      <trkpt lat="42.87431" lon="1.2225">
        <ele>563.4</ele>
        <time>2024-05-12T09:49:58Z</time>
      </trkpt>
      <trkpt lat="42.87439" lon="1.22243">
        <ele>563.8</ele>
        <time>2024-05-12T09:50:02Z</time>
      </trkpt>
      <trkpt lat="42.87441" lon="1.22241">
        <ele>564.2</ele>
        <time>2024-05-12T09:50:03Z</time>
      </trkpt>
      <trkpt lat="42.87443" lon="1.22239">
        <ele>564.6</ele>
        <time>2024-05-12T09:50:04Z</time>
      </trkpt>
      <trkpt lat="42.87445" lon="1.22237">
        <ele>565</ele>
        <time>2024-05-12T09:50:05Z</time>
      </trkpt>
      <trkpt lat="42.87448" lon="1.22235">
        <ele>565.4</ele>
        <time>2024-05-12T09:50:06Z</time>
      </trkpt>
      <trkpt lat="42.87456" lon="1.22232">
        <ele>565.8</ele>
        <time>2024-05-12T09:50:10Z</time>
      </trkpt>
      <trkpt lat="42.87458" lon="1.22231">
        <ele>566.4</ele>
        <time>2024-05-12T09:50:11Z</time>
      </trkpt>
      <trkpt lat="42.8746" lon="1.2223">
        <ele>566.8</ele>
        <time>2024-05-12T09:50:12Z</time>
      </trkpt>
      <trkpt lat="42.87462" lon="1.2223">
        <ele>567.2</ele>
        <time>2024-05-12T09:50:13Z</time>
      </trkpt>
      <trkpt lat="42.87464" lon="1.22229">
        <ele>567.6</ele>
        <time>2024-05-12T09:50:14Z</time>
      </trkpt>
      <trkpt lat="42.8747" lon="1.22227">
        <ele>567.6</ele>
        <time>2024-05-12T09:50:18Z</time>
      </trkpt>
      <trkpt lat="42.87472" lon="1.22227">
        <ele>568</ele>
        <time>2024-05-12T09:50:19Z</time>
      </trkpt>
      <trkpt lat="42.87474" lon="1.22226">
        <ele>568.6</ele>
        <time>2024-05-12T09:50:20Z</time>
      </trkpt>
      <trkpt lat="42.87476" lon="1.22225">
        <ele>569</ele>
        <time>2024-05-12T09:50:21Z</time>
      </trkpt>
      <trkpt lat="42.87477" lon="1.22224">
        <ele>569.4</ele>
        <time>2024-05-12T09:50:22Z</time>
      </trkpt>
      <trkpt lat="42.87479" lon="1.22224">
        <ele>569.8</ele>
        <time>2024-05-12T09:50:23Z</time>
      </trkpt>
      <trkpt lat="42.87481" lon="1.22223">
        <ele>569.8</ele>
        <time>2024-05-12T09:50:24Z</time>
      </trkpt>
      <trkpt lat="42.87484" lon="1.22225">
        <ele>570.4</ele>
        <time>2024-05-12T09:50:25Z</time>
      </trkpt>
      <trkpt lat="42.87485" lon="1.22226">
        <ele>570.8</ele>
        <time>2024-05-12T09:50:26Z</time>
      </trkpt>
      <trkpt lat="42.87487" lon="1.22229">
        <ele>571.2</ele>
        <time>2024-05-12T09:50:27Z</time>
      </trkpt>
      <trkpt lat="42.87488" lon="1.22232">
        <ele>571.8</ele>
        <time>2024-05-12T09:50:28Z</time>
      </trkpt>
      <trkpt lat="42.87487" lon="1.22234">
        <ele>572.2</ele>
        <time>2024-05-12T09:50:29Z</time>
      </trkpt>
      <trkpt lat="42.87483" lon="1.22237">
        <ele>572.6</ele>
        <time>2024-05-12T09:50:31Z</time>
      </trkpt>
      <trkpt lat="42.87482" lon="1.22239">
        <ele>573</ele>
        <time>2024-05-12T09:50:32Z</time>
      </trkpt>
      <trkpt lat="42.87481" lon="1.2224">
        <ele>573.4</ele>
        <time>2024-05-12T09:50:33Z</time>
      </trkpt>
      <trkpt lat="42.87479" lon="1.22242">
        <ele>573.8</ele>
        <time>2024-05-12T09:50:34Z</time>
      </trkpt>
      <trkpt lat="42.87477" lon="1.22243">
        <ele>574.2</ele>
        <time>2024-05-12T09:50:35Z</time>
      </trkpt>
      <trkpt lat="42.87473" lon="1.22249">
        <ele>574.6</ele>
        <time>2024-05-12T09:50:38Z</time>
      </trkpt>
      <trkpt lat="42.87472" lon="1.22252">
        <ele>575</ele>
        <time>2024-05-12T09:50:39Z</time>
      </trkpt>
      <trkpt lat="42.87471" lon="1.22254">
        <ele>575.4</ele>
        <time>2024-05-12T09:50:40Z</time>
      </trkpt>
      <trkpt lat="42.8747" lon="1.22257">
        <ele>575.8</ele>
        <time>2024-05-12T09:50:41Z</time>
      </trkpt>
      <trkpt lat="42.87469" lon="1.22259">
        <ele>576.2</ele>
        <time>2024-05-12T09:50:42Z</time>
      </trkpt>
      <trkpt lat="42.87466" lon="1.22263">
        <ele>576.2</ele>
        <time>2024-05-12T09:50:44Z</time>
      </trkpt>
      <trkpt lat="42.87464" lon="1.22268">
        <ele>576.6</ele>
        <time>2024-05-12T09:50:46Z</time>
      </trkpt>
      <trkpt lat="42.87462" lon="1.22271">
        <ele>577.2</ele>
        <time>2024-05-12T09:50:47Z</time>
      </trkpt>
      <trkpt lat="42.87461" lon="1.22273">
        <ele>578</ele>
        <time>2024-05-12T09:50:48Z</time>
      </trkpt>
      <trkpt lat="42.8746" lon="1.22276">
        <ele>578.4</ele>
        <time>2024-05-12T09:50:49Z</time>
      </trkpt>
      <trkpt lat="42.87457" lon="1.22281">
        <ele>578.4</ele>
        <time>2024-05-12T09:50:51Z</time>
      </trkpt>
      <trkpt lat="42.87455" lon="1.22286">
        <ele>578.8</ele>
        <time>2024-05-12T09:50:53Z</time>
      </trkpt>
      <trkpt lat="42.87454" lon="1.22289">
        <ele>579.2</ele>
        <time>2024-05-12T09:50:54Z</time>
      </trkpt>
      <trkpt lat="42.87453" lon="1.22292">
        <ele>579.6</ele>
        <time>2024-05-12T09:50:55Z</time>
      </trkpt>
      <trkpt lat="42.87452" lon="1.22295">
        <ele>580.2</ele>
        <time>2024-05-12T09:50:56Z</time>
      </trkpt>
      <trkpt lat="42.87451" lon="1.22298">
        <ele>580.6</ele>
        <time>2024-05-12T09:50:57Z</time>
      </trkpt>
      <trkpt lat="42.87447" lon="1.2231">
        <ele>581</ele>
        <time>2024-05-12T09:51:01Z</time>
      </trkpt>
      <trkpt lat="42.87446" lon="1.22314">
        <ele>581.4</ele>
        <time>2024-05-12T09:51:02Z</time>
      </trkpt>
      <trkpt lat="42.87444" lon="1.22316">
        <ele>581.8</ele>
        <time>2024-05-12T09:51:03Z</time>
      </trkpt>
      <trkpt lat="42.87443" lon="1.2232">
        <ele>582.4</ele>
        <time>2024-05-12T09:51:04Z</time>
      </trkpt>
      <trkpt lat="42.87442" lon="1.22323">
        <ele>582.8</ele>
        <time>2024-05-12T09:51:05Z</time>
      </trkpt>
      <trkpt lat="42.87439" lon="1.22332">
        <ele>582.8</ele>
        <time>2024-05-12T09:51:08Z</time>
      </trkpt>
      <trkpt lat="42.87436" lon="1.22338">
        <ele>583.2</ele>
        <time>2024-05-12T09:51:10Z</time>
      </trkpt>
      <trkpt lat="42.87435" lon="1.22341">
        <ele>583.6</ele>
        <time>2024-05-12T09:51:11Z</time>
      </trkpt>
      <trkpt lat="42.87433" lon="1.22344">
        <ele>584</ele>
        <time>2024-05-12T09:51:12Z</time>
      </trkpt>
      <trkpt lat="42.87432" lon="1.22347">
        <ele>584.8</ele>
        <time>2024-05-12T09:51:13Z</time>
      </trkpt>
      <trkpt lat="42.87432" lon="1.22353">
        <ele>584.8</ele>
        <time>2024-05-12T09:51:15Z</time>
      </trkpt>
      <trkpt lat="42.87435" lon="1.22355">
        <ele>585.2</ele>
        <time>2024-05-12T09:51:17Z</time>
      </trkpt>
      <trkpt lat="42.87438" lon="1.22353">
        <ele>585.6</ele>
        <time>2024-05-12T09:51:18Z</time>
      </trkpt>
      <trkpt lat="42.87439" lon="1.2235">
        <ele>586.2</ele>
        <time>2024-05-12T09:51:19Z</time>
      </trkpt>
      <trkpt lat="42.8744" lon="1.22347">
        <ele>586.6</ele>
        <time>2024-05-12T09:51:20Z</time>
      </trkpt>
      <trkpt lat="42.87442" lon="1.22344">
        <ele>587</ele>
        <time>2024-05-12T09:51:21Z</time>
      </trkpt>
      <trkpt lat="42.87443" lon="1.22342">
        <ele>587</ele>
        <time>2024-05-12T09:51:22Z</time>
      </trkpt>
      <trkpt lat="42.87449" lon="1.22335">
        <ele>587</ele>
        <time>2024-05-12T09:51:27Z</time>
      </trkpt>
      <trkpt lat="42.87454" lon="1.22329">
        <ele>587</ele>
        <time>2024-05-12T09:51:31Z</time>
      </trkpt>
      <trkpt lat="42.87456" lon="1.22326">
        <ele>587</ele>
        <time>2024-05-12T09:51:32Z</time>
      </trkpt>
      <trkpt lat="42.87458" lon="1.22323">
        <ele>587.4</ele>
        <time>2024-05-12T09:51:33Z</time>
      </trkpt>
      <trkpt lat="42.87461" lon="1.22319">
        <ele>587.8</ele>
        <time>2024-05-12T09:51:34Z</time>
      </trkpt>
      <trkpt lat="42.87463" lon="1.22316">
        <ele>588.2</ele>
        <time>2024-05-12T09:51:35Z</time>
      </trkpt>
      <trkpt lat="42.87465" lon="1.22313">
        <ele>588.6</ele>
        <time>2024-05-12T09:51:36Z</time>
      </trkpt>
      <trkpt lat="42.87467" lon="1.2231">
        <ele>589.2</ele>
        <time>2024-05-12T09:51:37Z</time>
      </trkpt>
      <trkpt lat="42.8748" lon="1.223">
        <ele>589.2</ele>
        <time>2024-05-12T09:51:42Z</time>
      </trkpt>
      <trkpt lat="42.87485" lon="1.22298">
        <ele>589.6</ele>
        <time>2024-05-12T09:51:44Z</time>
      </trkpt>
      <trkpt lat="42.87488" lon="1.22296">
        <ele>590</ele>
        <time>2024-05-12T09:51:45Z</time>
      </trkpt>
      <trkpt lat="42.87491" lon="1.22296">
        <ele>590.4</ele>
        <time>2024-05-12T09:51:46Z</time>
      </trkpt>
      <trkpt lat="42.87494" lon="1.22295">
        <ele>590.8</ele>
        <time>2024-05-12T09:51:47Z</time>
      </trkpt>
      <trkpt lat="42.87496" lon="1.22295">
        <ele>591.2</ele>
        <time>2024-05-12T09:51:48Z</time>
      </trkpt>
      <trkpt lat="42.87513" lon="1.22297">
        <ele>591.2</ele>
        <time>2024-05-12T09:51:54Z</time>
      </trkpt>
      <trkpt lat="42.87526" lon="1.22308">
        <ele>591.2</ele>
        <time>2024-05-12T09:51:59Z</time>
      </trkpt>
      <trkpt lat="42.87535" lon="1.22318">
        <ele>591.6</ele>
        <time>2024-05-12T09:52:03Z</time>
      </trkpt>
      <trkpt lat="42.87537" lon="1.2232">
        <ele>592</ele>
        <time>2024-05-12T09:52:04Z</time>
      </trkpt>
      <trkpt lat="42.87539" lon="1.22323">
        <ele>592.4</ele>
        <time>2024-05-12T09:52:05Z</time>
      </trkpt>
      <trkpt lat="42.8754" lon="1.22326">
        <ele>592.8</ele>
        <time>2024-05-12T09:52:06Z</time>
      </trkpt>
      <trkpt lat="42.87543" lon="1.2233">
        <ele>593.4</ele>
        <time>2024-05-12T09:52:07Z</time>
      </trkpt>
      <trkpt lat="42.87548" lon="1.2234">
        <ele>593.8</ele>
        <time>2024-05-12T09:52:10Z</time>
      </trkpt>
      <trkpt lat="42.8755" lon="1.22344">
        <ele>594.4</ele>
        <time>2024-05-12T09:52:11Z</time>
      </trkpt>
      <trkpt lat="42.87551" lon="1.22347">
        <ele>594.8</ele>
        <time>2024-05-12T09:52:12Z</time>
      </trkpt>
      <trkpt lat="42.87552" lon="1.22352">
        <ele>595.4</ele>
        <time>2024-05-12T09:52:13Z</time>
      </trkpt>
      <trkpt lat="42.87551" lon="1.22356">
        <ele>596</ele>
        <time>2024-05-12T09:52:14Z</time>
      </trkpt>
      <trkpt lat="42.8755" lon="1.22359">
        <ele>596.6</ele>
        <time>2024-05-12T09:52:15Z</time>
      </trkpt>
      <trkpt lat="42.87548" lon="1.22362">
        <ele>597</ele>
        <time>2024-05-12T09:52:16Z</time>
      </trkpt>
      <trkpt lat="42.87547" lon="1.22363">
        <ele>597.6</ele>
        <time>2024-05-12T09:52:17Z</time>
      </trkpt>
      <trkpt lat="42.87544" lon="1.22365">
        <ele>598.2</ele>
        <time>2024-05-12T09:52:18Z</time>
      </trkpt>
      <trkpt lat="42.87542" lon="1.22366">
        <ele>598.8</ele>
        <time>2024-05-12T09:52:19Z</time>
      </trkpt>
      <trkpt lat="42.87539" lon="1.22368">
        <ele>599.2</ele>
        <time>2024-05-12T09:52:20Z</time>
      </trkpt>
      <trkpt lat="42.87537" lon="1.22368">
        <ele>599.8</ele>
        <time>2024-05-12T09:52:21Z</time>
      </trkpt>
      <trkpt lat="42.87535" lon="1.22369">
        <ele>600.4</ele>
        <time>2024-05-12T09:52:22Z</time>
      </trkpt>
      <trkpt lat="42.87531" lon="1.22372">
        <ele>600.8</ele>
        <time>2024-05-12T09:52:24Z</time>
      </trkpt>
      <trkpt lat="42.87528" lon="1.22373">
        <ele>601.2</ele>
        <time>2024-05-12T09:52:25Z</time>
      </trkpt>
      <trkpt lat="42.87526" lon="1.22374">
        <ele>602</ele>
        <time>2024-05-12T09:52:26Z</time>
      </trkpt>
      <trkpt lat="42.87523" lon="1.22376">
        <ele>602.4</ele>
        <time>2024-05-12T09:52:27Z</time>
      </trkpt>
      <trkpt lat="42.87519" lon="1.2238">
        <ele>602.8</ele>
        <time>2024-05-12T09:52:29Z</time>
      </trkpt>
      <trkpt lat="42.87517" lon="1.22383">
        <ele>603.2</ele>
        <time>2024-05-12T09:52:30Z</time>
      </trkpt>
      <trkpt lat="42.87516" lon="1.22386">
        <ele>603.6</ele>
        <time>2024-05-12T09:52:31Z</time>
      </trkpt>
      <trkpt lat="42.87515" lon="1.22389">
        <ele>604</ele>
        <time>2024-05-12T09:52:32Z</time>
      </trkpt>
      <trkpt lat="42.87515" lon="1.22392">
        <ele>604.4</ele>
        <time>2024-05-12T09:52:33Z</time>
      </trkpt>
      <trkpt lat="42.87516" lon="1.22401">
        <ele>604.8</ele>
        <time>2024-05-12T09:52:36Z</time>
      </trkpt>
      <trkpt lat="42.87517" lon="1.22404">
        <ele>605.2</ele>
        <time>2024-05-12T09:52:37Z</time>
      </trkpt>
      <trkpt lat="42.87518" lon="1.22407">
        <ele>605.6</ele>
        <time>2024-05-12T09:52:38Z</time>
      </trkpt>
      <trkpt lat="42.8752" lon="1.2241">
        <ele>606</ele>
        <time>2024-05-12T09:52:39Z</time>
      </trkpt>
      <trkpt lat="42.87522" lon="1.22413">
        <ele>606.4</ele>
        <time>2024-05-12T09:52:40Z</time>
      </trkpt>
      <trkpt lat="42.87527" lon="1.22421">
        <ele>606.4</ele>
        <time>2024-05-12T09:52:43Z</time>
      </trkpt>
      <trkpt lat="42.87529" lon="1.22422">
        <ele>607</ele>
        <time>2024-05-12T09:52:44Z</time>
      </trkpt>
      <trkpt lat="42.87532" lon="1.22423">
        <ele>607.4</ele>
        <time>2024-05-12T09:52:45Z</time>
      </trkpt>
      <trkpt lat="42.87534" lon="1.22424">
        <ele>607.8</ele>
        <time>2024-05-12T09:52:46Z</time>
      </trkpt>
      <trkpt lat="42.87535" lon="1.22426">
        <ele>608.2</ele>
        <time>2024-05-12T09:52:47Z</time>
      </trkpt>
      <trkpt lat="42.87537" lon="1.22428">
        <ele>608.6</ele>
        <time>2024-05-12T09:52:48Z</time>
      </trkpt>
      <trkpt lat="42.87542" lon="1.22439">
        <ele>609</ele>
        <time>2024-05-12T09:52:52Z</time>
      </trkpt>
      <trkpt lat="42.87543" lon="1.22443">
        <ele>609.4</ele>
        <time>2024-05-12T09:52:53Z</time>
      </trkpt>
      <trkpt lat="42.87543" lon="1.22446">
        <ele>609.8</ele>
        <time>2024-05-12T09:52:54Z</time>
      </trkpt>
      <trkpt lat="42.87544" lon="1.22449">
        <ele>610.2</ele>
        <time>2024-05-12T09:52:55Z</time>
      </trkpt>
      <trkpt lat="42.87545" lon="1.22451">
        <ele>610.6</ele>
        <time>2024-05-12T09:52:56Z</time>
      </trkpt>
      <trkpt lat="42.87549" lon="1.22459">
        <ele>610.6</ele>
        <time>2024-05-12T09:52:59Z</time>
      </trkpt>
      <trkpt lat="42.87553" lon="1.22463">
        <ele>611</ele>
        <time>2024-05-12T09:53:01Z</time>
      </trkpt>
      <trkpt lat="42.87555" lon="1.22464">
        <ele>611.6</ele>
        <time>2024-05-12T09:53:02Z</time>
      </trkpt>
      <trkpt lat="42.87556" lon="1.22465">
        <ele>612</ele>
        <time>2024-05-12T09:53:03Z</time>
      </trkpt>
      <trkpt lat="42.87558" lon="1.22466">
        <ele>612.4</ele>
        <time>2024-05-12T09:53:04Z</time>
      </trkpt>
      <trkpt lat="42.87559" lon="1.22467">
        <ele>612.8</ele>
        <time>2024-05-12T09:53:05Z</time>
      </trkpt>
      <trkpt lat="42.87567" lon="1.22469">
        <ele>612.8</ele>
        <time>2024-05-12T09:53:10Z</time>
      </trkpt>
      <trkpt lat="42.87578" lon="1.22475">
        <ele>613.2</ele>
        <time>2024-05-12T09:53:14Z</time>
      </trkpt>
      <trkpt lat="42.87581" lon="1.22477">
        <ele>613.6</ele>
        <time>2024-05-12T09:53:15Z</time>
      </trkpt>
      <trkpt lat="42.87584" lon="1.22478">
        <ele>614.6</ele>
        <time>2024-05-12T09:53:16Z</time>
      </trkpt>
      <trkpt lat="42.87586" lon="1.2248">
        <ele>615</ele>
        <time>2024-05-12T09:53:17Z</time>
      </trkpt>
      <trkpt lat="42.87591" lon="1.22483">
        <ele>615.4</ele>
        <time>2024-05-12T09:53:19Z</time>
      </trkpt>
      <trkpt lat="42.87594" lon="1.22484">
        <ele>615.8</ele>
        <time>2024-05-12T09:53:20Z</time>
      </trkpt>
      <trkpt lat="42.87596" lon="1.22485">
        <ele>616.2</ele>
        <time>2024-05-12T09:53:21Z</time>
      </trkpt>
      <trkpt lat="42.87599" lon="1.22487">
        <ele>616.6</ele>
        <time>2024-05-12T09:53:22Z</time>
      </trkpt>
      <trkpt lat="42.87602" lon="1.22489">
        <ele>617</ele>
        <time>2024-05-12T09:53:23Z</time>
      </trkpt>
      <trkpt lat="42.87609" lon="1.22493">
        <ele>617.6</ele>
        <time>2024-05-12T09:53:26Z</time>
      </trkpt>
      <trkpt lat="42.87612" lon="1.22493">
        <ele>618</ele>
        <time>2024-05-12T09:53:27Z</time>
      </trkpt>
      <trkpt lat="42.87614" lon="1.22494">
        <ele>618.4</ele>
        <time>2024-05-12T09:53:28Z</time>
      </trkpt>
      <trkpt lat="42.87616" lon="1.22493">
        <ele>618.8</ele>
        <time>2024-05-12T09:53:29Z</time>
      </trkpt>
      <trkpt lat="42.87618" lon="1.22494">
        <ele>619.4</ele>
        <time>2024-05-12T09:53:30Z</time>
      </trkpt>
      <trkpt lat="42.87627" lon="1.22493">
        <ele>619.8</ele>
        <time>2024-05-12T09:53:33Z</time>
      </trkpt>
      <trkpt lat="42.8763" lon="1.22492">
        <ele>620.2</ele>
        <time>2024-05-12T09:53:34Z</time>
      </trkpt>
      <trkpt lat="42.87633" lon="1.22492">
        <ele>620.6</ele>
        <time>2024-05-12T09:53:35Z</time>
      </trkpt>
      <trkpt lat="42.87635" lon="1.22493">
        <ele>621.2</ele>
        <time>2024-05-12T09:53:36Z</time>
      </trkpt>
      <trkpt lat="42.87637" lon="1.22494">
        <ele>621.6</ele>
        <time>2024-05-12T09:53:37Z</time>
      </trkpt>
      <trkpt lat="42.8764" lon="1.22499">
        <ele>622</ele>
        <time>2024-05-12T09:53:39Z</time>
      </trkpt>
      <trkpt lat="42.8764" lon="1.22501">
        <ele>622.4</ele>
        <time>2024-05-12T09:53:40Z</time>
      </trkpt>
      <trkpt lat="42.8764" lon="1.22503">
        <ele>623.2</ele>
        <time>2024-05-12T09:53:41Z</time>
      </trkpt>
      <trkpt lat="42.87639" lon="1.22505">
        <ele>623.6</ele>
        <time>2024-05-12T09:53:42Z</time>
      </trkpt>
      <trkpt lat="42.87638" lon="1.22508">
        <ele>624</ele>
        <time>2024-05-12T09:53:43Z</time>
      </trkpt>
      <trkpt lat="42.87637" lon="1.2251">
        <ele>624.4</ele>
        <time>2024-05-12T09:53:44Z</time>
      </trkpt>
      <trkpt lat="42.87635" lon="1.22513">
        <ele>624.8</ele>
        <time>2024-05-12T09:53:45Z</time>
      </trkpt>
      <trkpt lat="42.87634" lon="1.22516">
        <ele>625.4</ele>
        <time>2024-05-12T09:53:46Z</time>
      </trkpt>
      <trkpt lat="42.87632" lon="1.2252">
        <ele>625.8</ele>
        <time>2024-05-12T09:53:47Z</time>
      </trkpt>
      <trkpt lat="42.87624" lon="1.22526">
        <ele>626.2</ele>
        <time>2024-05-12T09:53:51Z</time>
      </trkpt>
      <trkpt lat="42.87622" lon="1.22529">
        <ele>626.6</ele>
        <time>2024-05-12T09:53:52Z</time>
      </trkpt>
      <trkpt lat="42.8762" lon="1.22531">
        <ele>627.2</ele>
        <time>2024-05-12T09:53:53Z</time>
      </trkpt>
      <trkpt lat="42.87618" lon="1.22534">
        <ele>627.6</ele>
        <time>2024-05-12T09:53:54Z</time>
      </trkpt>
      <trkpt lat="42.87616" lon="1.22535">
        <ele>628</ele>
        <time>2024-05-12T09:53:55Z</time>
      </trkpt>
      <trkpt lat="42.87613" lon="1.22539">
        <ele>628</ele>
        <time>2024-05-12T09:53:57Z</time>
      </trkpt>
      <trkpt lat="42.87611" lon="1.22541">
        <ele>628.4</ele>
        <time>2024-05-12T09:53:58Z</time>
      </trkpt>
      <trkpt lat="42.87609" lon="1.22542">
        <ele>628.8</ele>
        <time>2024-05-12T09:53:59Z</time>
      </trkpt>
      <trkpt lat="42.87608" lon="1.22544">
        <ele>629.2</ele>
        <time>2024-05-12T09:54:00Z</time>
      </trkpt>
      <trkpt lat="42.87605" lon="1.22547">
        <ele>629.6</ele>
        <time>2024-05-12T09:54:01Z</time>
      </trkpt>
      <trkpt lat="42.87603" lon="1.22549">
        <ele>630</ele>
        <time>2024-05-12T09:54:02Z</time>
      </trkpt>
      <trkpt lat="42.87599" lon="1.22553">
        <ele>630.4</ele>
        <time>2024-05-12T09:54:03Z</time>
      </trkpt>
      <trkpt lat="42.87599" lon="1.22553">
        <ele>630.4</ele>
        <time>2024-05-12T09:54:04Z</time>
      </trkpt>
      <trkpt lat="42.87597" lon="1.22555">
        <ele>631.2</ele>
        <time>2024-05-12T09:54:05Z</time>
      </trkpt>
      <trkpt lat="42.87595" lon="1.22556">
        <ele>631.6</ele>
        <time>2024-05-12T09:54:06Z</time>
      </trkpt>
      <trkpt lat="42.87593" lon="1.22558">
        <ele>632</ele>
        <time>2024-05-12T09:54:07Z</time>
      </trkpt>
      <trkpt lat="42.87588" lon="1.22564">
        <ele>632</ele>
        <time>2024-05-12T09:54:10Z</time>
      </trkpt>
      <trkpt lat="42.87586" lon="1.22565">
        <ele>632.6</ele>
        <time>2024-05-12T09:54:11Z</time>
      </trkpt>
      <trkpt lat="42.87585" lon="1.22567">
        <ele>633</ele>
        <time>2024-05-12T09:54:12Z</time>
      </trkpt>
      <trkpt lat="42.87584" lon="1.22567">
        <ele>633.4</ele>
        <time>2024-05-12T09:54:13Z</time>
      </trkpt>
      <trkpt lat="42.87582" lon="1.22569">
        <ele>633.8</ele>
        <time>2024-05-12T09:54:14Z</time>
      </trkpt>
      <trkpt lat="42.87581" lon="1.22571">
        <ele>634.2</ele>
        <time>2024-05-12T09:54:15Z</time>
      </trkpt>
      <trkpt lat="42.87577" lon="1.22576">
        <ele>634.6</ele>
        <time>2024-05-12T09:54:18Z</time>
      </trkpt>
      <trkpt lat="42.87575" lon="1.22577">
        <ele>635</ele>
        <time>2024-05-12T09:54:19Z</time>
      </trkpt>
      <trkpt lat="42.87574" lon="1.22579">
        <ele>635.4</ele>
        <time>2024-05-12T09:54:20Z</time>
      </trkpt>
      <trkpt lat="42.87571" lon="1.22582">
        <ele>635.8</ele>
        <time>2024-05-12T09:54:21Z</time>
      </trkpt>
      <trkpt lat="42.8757" lon="1.22584">
        <ele>636.2</ele>
        <time>2024-05-12T09:54:22Z</time>
      </trkpt>
      <trkpt lat="42.87568" lon="1.22587">
        <ele>636.6</ele>
        <time>2024-05-12T09:54:24Z</time>
      </trkpt>
      <trkpt lat="42.87568" lon="1.2259">
        <ele>637</ele>
        <time>2024-05-12T09:54:25Z</time>
      </trkpt>
      <trkpt lat="42.87567" lon="1.22593">
        <ele>637.4</ele>
        <time>2024-05-12T09:54:26Z</time>
      </trkpt>
      <trkpt lat="42.87567" lon="1.22597">
        <ele>637.8</ele>
        <time>2024-05-12T09:54:27Z</time>
      </trkpt>
      <trkpt lat="42.87567" lon="1.22601">
        <ele>638.2</ele>
        <time>2024-05-12T09:54:28Z</time>
      </trkpt>
      <trkpt lat="42.87567" lon="1.22606">
        <ele>638.6</ele>
        <time>2024-05-12T09:54:29Z</time>
      </trkpt>
      <trkpt lat="42.87569" lon="1.2261">
        <ele>639.6</ele>
        <time>2024-05-12T09:54:30Z</time>
      </trkpt>
      <trkpt lat="42.87571" lon="1.22613">
        <ele>640</ele>
        <time>2024-05-12T09:54:31Z</time>
      </trkpt>
      <trkpt lat="42.87573" lon="1.22613">
        <ele>640.4</ele>
        <time>2024-05-12T09:54:32Z</time>
      </trkpt>
      <trkpt lat="42.87576" lon="1.22614">
        <ele>640.8</ele>
        <time>2024-05-12T09:54:33Z</time>
      </trkpt>
      <trkpt lat="42.87577" lon="1.22617">
        <ele>641.4</ele>
        <time>2024-05-12T09:54:34Z</time>
      </trkpt>
      <trkpt lat="42.87578" lon="1.22618">
        <ele>641.8</ele>
        <time>2024-05-12T09:54:35Z</time>
      </trkpt>
      <trkpt lat="42.8758" lon="1.22619">
        <ele>642.2</ele>
        <time>2024-05-12T09:54:36Z</time>
      </trkpt>
      <trkpt lat="42.87581" lon="1.22619">
        <ele>642.6</ele>
        <time>2024-05-12T09:54:37Z</time>
      </trkpt>
      <trkpt lat="42.87585" lon="1.22618">
        <ele>643</ele>
        <time>2024-05-12T09:54:39Z</time>
      </trkpt>
      <trkpt lat="42.87587" lon="1.22618">
        <ele>643.4</ele>
        <time>2024-05-12T09:54:40Z</time>
      </trkpt>
      <trkpt lat="42.87589" lon="1.22617">
        <ele>643.8</ele>
        <time>2024-05-12T09:54:41Z</time>
      </trkpt>
      <trkpt lat="42.87591" lon="1.22617">
        <ele>644.2</ele>
        <time>2024-05-12T09:54:42Z</time>
      </trkpt>
      <trkpt lat="42.87593" lon="1.22616">
        <ele>644.6</ele>
        <time>2024-05-12T09:54:43Z</time>
      </trkpt>
      <trkpt lat="42.87595" lon="1.22615">
        <ele>644.6</ele>
        <time>2024-05-12T09:54:44Z</time>
      </trkpt>
      <trkpt lat="42.87599" lon="1.22614">
        <ele>645</ele>
        <time>2024-05-12T09:54:46Z</time>
      </trkpt>
      <trkpt lat="42.87601" lon="1.22613">
        <ele>645.4</ele>
        <time>2024-05-12T09:54:47Z</time>
      </trkpt>
      <trkpt lat="42.87603" lon="1.22613">
        <ele>646</ele>
        <time>2024-05-12T09:54:48Z</time>
      </trkpt>
      <trkpt lat="42.87604" lon="1.22613">
        <ele>646.4</ele>
        <time>2024-05-12T09:54:49Z</time>
      </trkpt>
      <trkpt lat="42.87606" lon="1.22615">
        <ele>646.8</ele>
        <time>2024-05-12T09:54:50Z</time>
      </trkpt>
      <trkpt lat="42.87606" lon="1.22622">
        <ele>647.2</ele>
        <time>2024-05-12T09:54:54Z</time>
      </trkpt>
      <trkpt lat="42.87604" lon="1.22623">
        <ele>648.2</ele>
        <time>2024-05-12T09:54:55Z</time>
      </trkpt>
      <trkpt lat="42.87602" lon="1.22623">
        <ele>648.6</ele>
        <time>2024-05-12T09:54:56Z</time>
      </trkpt>
      <trkpt lat="42.876" lon="1.22624">
        <ele>649</ele>
        <time>2024-05-12T09:54:57Z</time>
      </trkpt>
      <trkpt lat="42.87595" lon="1.22629">
        <ele>649</ele>
        <time>2024-05-12T09:55:00Z</time>
      </trkpt>
      <trkpt lat="42.87594" lon="1.22631">
        <ele>649.4</ele>
        <time>2024-05-12T09:55:01Z</time>
      </trkpt>
      <trkpt lat="42.87592" lon="1.22634">
        <ele>650</ele>
        <time>2024-05-12T09:55:02Z</time>
      </trkpt>
      <trkpt lat="42.8759" lon="1.22636">
        <ele>650.4</ele>
        <time>2024-05-12T09:55:03Z</time>
      </trkpt>
      <trkpt lat="42.8759" lon="1.22639">
        <ele>650.8</ele>
        <time>2024-05-12T09:55:04Z</time>
      </trkpt>
      <trkpt lat="42.87589" lon="1.22641">
        <ele>651.2</ele>
        <time>2024-05-12T09:55:05Z</time>
      </trkpt>
      <trkpt lat="42.87587" lon="1.22644">
        <ele>651.2</ele>
        <time>2024-05-12T09:55:06Z</time>
      </trkpt>
      <trkpt lat="42.87577" lon="1.2266">
        <ele>651.2</ele>
        <time>2024-05-12T09:55:12Z</time>
      </trkpt>
      <trkpt lat="42.87574" lon="1.22665">
        <ele>651.6</ele>
        <time>2024-05-12T09:55:14Z</time>
      </trkpt>
      <trkpt lat="42.87572" lon="1.22667">
        <ele>652</ele>
        <time>2024-05-12T09:55:15Z</time>
      </trkpt>
      <trkpt lat="42.87571" lon="1.2267">
        <ele>652.4</ele>
        <time>2024-05-12T09:55:16Z</time>
      </trkpt>
      <trkpt lat="42.87569" lon="1.22672">
        <ele>652.8</ele>
        <time>2024-05-12T09:55:17Z</time>
      </trkpt>
      <trkpt lat="42.87568" lon="1.22675">
        <ele>653.2</ele>
        <time>2024-05-12T09:55:18Z</time>
      </trkpt>
      <trkpt lat="42.87564" lon="1.22679">
        <ele>653.2</ele>
        <time>2024-05-12T09:55:20Z</time>
      </trkpt>
      <trkpt lat="42.87558" lon="1.22687">
        <ele>653.6</ele>
        <time>2024-05-12T09:55:23Z</time>
      </trkpt>
      <trkpt lat="42.87557" lon="1.22689">
        <ele>654.2</ele>
        <time>2024-05-12T09:55:24Z</time>
      </trkpt>
      <trkpt lat="42.87555" lon="1.22691">
        <ele>654.6</ele>
        <time>2024-05-12T09:55:25Z</time>
      </trkpt>
      <trkpt lat="42.87553" lon="1.22693">
        <ele>655</ele>
        <time>2024-05-12T09:55:26Z</time>
      </trkpt>
      <trkpt lat="42.87551" lon="1.22696">
        <ele>655.4</ele>
        <time>2024-05-12T09:55:27Z</time>
      </trkpt>
      <trkpt lat="42.87545" lon="1.22703">
        <ele>655.8</ele>
        <time>2024-05-12T09:55:30Z</time>
      </trkpt>
      <trkpt lat="42.87543" lon="1.22705">
        <ele>656.4</ele>
        <time>2024-05-12T09:55:31Z</time>
      </trkpt>
      <trkpt lat="42.87541" lon="1.22708">
        <ele>656.8</ele>
        <time>2024-05-12T09:55:32Z</time>
      </trkpt>
      <trkpt lat="42.87539" lon="1.2271">
        <ele>657.2</ele>
        <time>2024-05-12T09:55:33Z</time>
      </trkpt>
      <trkpt lat="42.87537" lon="1.22713">
        <ele>657.6</ele>
        <time>2024-05-12T09:55:34Z</time>
      </trkpt>
      <trkpt lat="42.87523" lon="1.22733">
        <ele>658</ele>
        <time>2024-05-12T09:55:41Z</time>
      </trkpt>
      <trkpt lat="42.87521" lon="1.22736">
        <ele>658.4</ele>
        <time>2024-05-12T09:55:42Z</time>
      </trkpt>
      <trkpt lat="42.87519" lon="1.22738">
        <ele>658.8</ele>
        <time>2024-05-12T09:55:43Z</time>
      </trkpt>
      <trkpt lat="42.87516" lon="1.2274">
        <ele>659.6</ele>
        <time>2024-05-12T09:55:44Z</time>
      </trkpt>
      <trkpt lat="42.87512" lon="1.22746">
        <ele>659.6</ele>
        <time>2024-05-12T09:55:46Z</time>
      </trkpt>
      <trkpt lat="42.87497" lon="1.22764">
        <ele>659.6</ele>
        <time>2024-05-12T09:55:53Z</time>
      </trkpt>
      <trkpt lat="42.87486" lon="1.22775">
        <ele>660</ele>
        <time>2024-05-12T09:55:58Z</time>
      </trkpt>
      <trkpt lat="42.87485" lon="1.22778">
        <ele>660.4</ele>
        <time>2024-05-12T09:55:59Z</time>
      </trkpt>
      <trkpt lat="42.87482" lon="1.22781">
        <ele>660.8</ele>
        <time>2024-05-12T09:56:00Z</time>
      </trkpt>
      <trkpt lat="42.87481" lon="1.22783">
        <ele>661.2</ele>
        <time>2024-05-12T09:56:01Z</time>
      </trkpt>
      <trkpt lat="42.87478" lon="1.22785">
        <ele>661.6</ele>
        <time>2024-05-12T09:56:02Z</time>
      </trkpt>
      <trkpt lat="42.87471" lon="1.22792">
        <ele>661.6</ele>
        <time>2024-05-12T09:56:05Z</time>
      </trkpt>
      <trkpt lat="42.8746" lon="1.22808">
        <ele>662.2</ele>
        <time>2024-05-12T09:56:11Z</time>
      </trkpt>
      <trkpt lat="42.87458" lon="1.22811">
        <ele>662.6</ele>
        <time>2024-05-12T09:56:12Z</time>
      </trkpt>
      <trkpt lat="42.87457" lon="1.22814">
        <ele>663</ele>
        <time>2024-05-12T09:56:13Z</time>
      </trkpt>
      <trkpt lat="42.87457" lon="1.22817">
        <ele>663.4</ele>
        <time>2024-05-12T09:56:14Z</time>
      </trkpt>
      <trkpt lat="42.87456" lon="1.2282">
        <ele>663.8</ele>
        <time>2024-05-12T09:56:15Z</time>
      </trkpt>
      <trkpt lat="42.87455" lon="1.22831">
        <ele>663.8</ele>
        <time>2024-05-12T09:56:18Z</time>
      </trkpt>
      <trkpt lat="42.87456" lon="1.22842">
        <ele>664.2</ele>
        <time>2024-05-12T09:56:21Z</time>
      </trkpt>
      <trkpt lat="42.87456" lon="1.22846">
        <ele>664.8</ele>
        <time>2024-05-12T09:56:22Z</time>
      </trkpt>
      <trkpt lat="42.87457" lon="1.2285">
        <ele>665.2</ele>
        <time>2024-05-12T09:56:23Z</time>
      </trkpt>
      <trkpt lat="42.87457" lon="1.22854">
        <ele>665.6</ele>
        <time>2024-05-12T09:56:24Z</time>
      </trkpt>
      <trkpt lat="42.87458" lon="1.22857">
        <ele>666</ele>
        <time>2024-05-12T09:56:25Z</time>
      </trkpt>
      <trkpt lat="42.87459" lon="1.22863">
        <ele>666.4</ele>
        <time>2024-05-12T09:56:27Z</time>
      </trkpt>
      <trkpt lat="42.8746" lon="1.22866">
        <ele>667</ele>
        <time>2024-05-12T09:56:28Z</time>
      </trkpt>
      <trkpt lat="42.87462" lon="1.2287">
        <ele>667.4</ele>
        <time>2024-05-12T09:56:29Z</time>
      </trkpt>
      <trkpt lat="42.87463" lon="1.22874">
        <ele>667.8</ele>
        <time>2024-05-12T09:56:30Z</time>
      </trkpt>
      <trkpt lat="42.87464" lon="1.22878">
        <ele>668.2</ele>
        <time>2024-05-12T09:56:31Z</time>
      </trkpt>
      <trkpt lat="42.87465" lon="1.22884">
        <ele>668.6</ele>
        <time>2024-05-12T09:56:33Z</time>
      </trkpt>
      <trkpt lat="42.87466" lon="1.22887">
        <ele>669.6</ele>
        <time>2024-05-12T09:56:34Z</time>
      </trkpt>
      <trkpt lat="42.87467" lon="1.22891">
        <ele>670</ele>
        <time>2024-05-12T09:56:35Z</time>
      </trkpt>
      <trkpt lat="42.87467" lon="1.22893">
        <ele>670.4</ele>
        <time>2024-05-12T09:56:36Z</time>
      </trkpt>
      <trkpt lat="42.87468" lon="1.22907">
        <ele>670.8</ele>
        <time>2024-05-12T09:56:40Z</time>
      </trkpt>
      <trkpt lat="42.87468" lon="1.22911">
        <ele>671.4</ele>
        <time>2024-05-12T09:56:41Z</time>
      </trkpt>
      <trkpt lat="42.87468" lon="1.22914">
        <ele>671.8</ele>
        <time>2024-05-12T09:56:42Z</time>
      </trkpt>
      <trkpt lat="42.87467" lon="1.22917">
        <ele>672.2</ele>
        <time>2024-05-12T09:56:43Z</time>
      </trkpt>
      <trkpt lat="42.87466" lon="1.22921">
        <ele>672.6</ele>
        <time>2024-05-12T09:56:44Z</time>
      </trkpt>
      <trkpt lat="42.8746" lon="1.22933">
        <ele>672.6</ele>
        <time>2024-05-12T09:56:48Z</time>
      </trkpt>
      <trkpt lat="42.87459" lon="1.22936">
        <ele>673.2</ele>
        <time>2024-05-12T09:56:49Z</time>
      </trkpt>
      <trkpt lat="42.87457" lon="1.22938">
        <ele>673.6</ele>
        <time>2024-05-12T09:56:50Z</time>
      </trkpt>
      <trkpt lat="42.87456" lon="1.22941">
        <ele>674</ele>
        <time>2024-05-12T09:56:51Z</time>
      </trkpt>
      <trkpt lat="42.87454" lon="1.22944">
        <ele>674.4</ele>
        <time>2024-05-12T09:56:52Z</time>
      </trkpt>
      <trkpt lat="42.87452" lon="1.22946">
        <ele>674.8</ele>
        <time>2024-05-12T09:56:53Z</time>
      </trkpt>
      <trkpt lat="42.87447" lon="1.22951">
        <ele>674.8</ele>
        <time>2024-05-12T09:56:55Z</time>
      </trkpt>
      <trkpt lat="42.87439" lon="1.22966">
        <ele>675.2</ele>
        <time>2024-05-12T09:57:00Z</time>
      </trkpt>
      <trkpt lat="42.87438" lon="1.2297">
        <ele>675.6</ele>
        <time>2024-05-12T09:57:01Z</time>
      </trkpt>
      <trkpt lat="42.87437" lon="1.22973">
        <ele>676.2</ele>
        <time>2024-05-12T09:57:02Z</time>
      </trkpt>
      <trkpt lat="42.87436" lon="1.22976">
        <ele>676.6</ele>
        <time>2024-05-12T09:57:03Z</time>
      </trkpt>
      <trkpt lat="42.87434" lon="1.22979">
        <ele>677</ele>
        <time>2024-05-12T09:57:04Z</time>
      </trkpt>
      <trkpt lat="42.87433" lon="1.22995">
        <ele>677</ele>
        <time>2024-05-12T09:57:08Z</time>
      </trkpt>
      <trkpt lat="42.87436" lon="1.2301">
        <ele>677.4</ele>
        <time>2024-05-12T09:57:12Z</time>
      </trkpt>
      <trkpt lat="42.87438" lon="1.23013">
        <ele>677.8</ele>
        <time>2024-05-12T09:57:13Z</time>
      </trkpt>
      <trkpt lat="42.87441" lon="1.23015">
        <ele>678.2</ele>
        <time>2024-05-12T09:57:14Z</time>
      </trkpt>
      <trkpt lat="42.87444" lon="1.23017">
        <ele>678.6</ele>
        <time>2024-05-12T09:57:15Z</time>
      </trkpt>
      <trkpt lat="42.87447" lon="1.23019">
        <ele>679</ele>
        <time>2024-05-12T09:57:16Z</time>
      </trkpt>
      <trkpt lat="42.87454" lon="1.23023">
        <ele>679</ele>
        <time>2024-05-12T09:57:19Z</time>
      </trkpt>
      <trkpt lat="42.87457" lon="1.23024">
        <ele>679.4</ele>
        <time>2024-05-12T09:57:20Z</time>
      </trkpt>
      <trkpt lat="42.87459" lon="1.23026">
        <ele>679.8</ele>
        <time>2024-05-12T09:57:21Z</time>
      </trkpt>
      <trkpt lat="42.87461" lon="1.23028">
        <ele>680.2</ele>
        <time>2024-05-12T09:57:22Z</time>
      </trkpt>
      <trkpt lat="42.87464" lon="1.23031">
        <ele>681</ele>
        <time>2024-05-12T09:57:23Z</time>
      </trkpt>
      <trkpt lat="42.87467" lon="1.23036">
        <ele>681.4</ele>
        <time>2024-05-12T09:57:25Z</time>
      </trkpt>
      <trkpt lat="42.87469" lon="1.23038">
        <ele>681.8</ele>
        <time>2024-05-12T09:57:26Z</time>
      </trkpt>
      <trkpt lat="42.8747" lon="1.23041">
        <ele>682.2</ele>
        <time>2024-05-12T09:57:27Z</time>
      </trkpt>
      <trkpt lat="42.87472" lon="1.23044">
        <ele>682.6</ele>
        <time>2024-05-12T09:57:28Z</time>
      </trkpt>
      <trkpt lat="42.87474" lon="1.23047">
        <ele>683</ele>
        <time>2024-05-12T09:57:29Z</time>
      </trkpt>
      <trkpt lat="42.87479" lon="1.2306">
        <ele>683.6</ele>
        <time>2024-05-12T09:57:33Z</time>
      </trkpt>
      <trkpt lat="42.8748" lon="1.23064">
        <ele>684</ele>
        <time>2024-05-12T09:57:34Z</time>
      </trkpt>
      <trkpt lat="42.87481" lon="1.23068">
        <ele>684.4</ele>
        <time>2024-05-12T09:57:35Z</time>
      </trkpt>
      <trkpt lat="42.87482" lon="1.23071">
        <ele>684.8</ele>
        <time>2024-05-12T09:57:36Z</time>
      </trkpt>
      <trkpt lat="42.87483" lon="1.23074">
        <ele>685.2</ele>
        <time>2024-05-12T09:57:37Z</time>
      </trkpt>
      <trkpt lat="42.8749" lon="1.23082">
        <ele>685.2</ele>
        <time>2024-05-12T09:57:40Z</time>
      </trkpt>
      <trkpt lat="42.87491" lon="1.23085">
        <ele>685.6</ele>
        <time>2024-05-12T09:57:41Z</time>
      </trkpt>
      <trkpt lat="42.87493" lon="1.23089">
        <ele>686</ele>
        <time>2024-05-12T09:57:42Z</time>
      </trkpt>
      <trkpt lat="42.87495" lon="1.23092">
        <ele>686.6</ele>
        <time>2024-05-12T09:57:43Z</time>
      </trkpt>
      <trkpt lat="42.87496" lon="1.23095">
        <ele>687</ele>
        <time>2024-05-12T09:57:44Z</time>
      </trkpt>
      <trkpt lat="42.87497" lon="1.23099">
        <ele>687.4</ele>
        <time>2024-05-12T09:57:45Z</time>
      </trkpt>
      <trkpt lat="42.875" lon="1.23108">
        <ele>688.2</ele>
        <time>2024-05-12T09:57:48Z</time>
      </trkpt>
      <trkpt lat="42.87501" lon="1.23112">
        <ele>688.6</ele>
        <time>2024-05-12T09:57:49Z</time>
      </trkpt>
      <trkpt lat="42.87501" lon="1.23116">
        <ele>689.2</ele>
        <time>2024-05-12T09:57:50Z</time>
      </trkpt>
      <trkpt lat="42.87501" lon="1.2312">
        <ele>689.6</ele>
        <time>2024-05-12T09:57:51Z</time>
      </trkpt>
      <trkpt lat="42.875" lon="1.23123">
        <ele>689.6</ele>
        <time>2024-05-12T09:57:52Z</time>
      </trkpt>
      <trkpt lat="42.87499" lon="1.23134">
        <ele>690</ele>
        <time>2024-05-12T09:57:55Z</time>
      </trkpt>
      <trkpt lat="42.87498" lon="1.23138">
        <ele>690.4</ele>
        <time>2024-05-12T09:57:56Z</time>
      </trkpt>
      <trkpt lat="42.87498" lon="1.23142">
        <ele>690.8</ele>
        <time>2024-05-12T09:57:57Z</time>
      </trkpt>
      <trkpt lat="42.87497" lon="1.23145">
        <ele>691.2</ele>
        <time>2024-05-12T09:57:58Z</time>
      </trkpt>
      <trkpt lat="42.87496" lon="1.23149">
        <ele>691.6</ele>
        <time>2024-05-12T09:57:59Z</time>
      </trkpt>
      <trkpt lat="42.87493" lon="1.23159">
        <ele>692</ele>
        <time>2024-05-12T09:58:02Z</time>
      </trkpt>
      <trkpt lat="42.87493" lon="1.23162">
        <ele>692.6</ele>
        <time>2024-05-12T09:58:03Z</time>
      </trkpt>
      <trkpt lat="42.87491" lon="1.23165">
        <ele>693</ele>
        <time>2024-05-12T09:58:04Z</time>
      </trkpt>
      <trkpt lat="42.8749" lon="1.23168">
        <ele>693.4</ele>
        <time>2024-05-12T09:58:05Z</time>
      </trkpt>
      <trkpt lat="42.87489" lon="1.23172">
        <ele>693.8</ele>
        <time>2024-05-12T09:58:06Z</time>
      </trkpt>
      <trkpt lat="42.87488" lon="1.23185">
        <ele>694.2</ele>
        <time>2024-05-12T09:58:10Z</time>
      </trkpt>
      <trkpt lat="42.87487" lon="1.23189">
        <ele>694.6</ele>
        <time>2024-05-12T09:58:11Z</time>
      </trkpt>
      <trkpt lat="42.87487" lon="1.23192">
        <ele>695.6</ele>
        <time>2024-05-12T09:58:12Z</time>
      </trkpt>
      <trkpt lat="42.87486" lon="1.23196">
        <ele>696</ele>
        <time>2024-05-12T09:58:13Z</time>
      </trkpt>
      <trkpt lat="42.87485" lon="1.23204">
        <ele>696</ele>
        <time>2024-05-12T09:58:15Z</time>
      </trkpt>
      <trkpt lat="42.87483" lon="1.23211">
        <ele>696.4</ele>
        <time>2024-05-12T09:58:17Z</time>
      </trkpt>
      <trkpt lat="42.87482" lon="1.23216">
        <ele>696.8</ele>
        <time>2024-05-12T09:58:18Z</time>
      </trkpt>
      <trkpt lat="42.87482" lon="1.2322">
        <ele>697.2</ele>
        <time>2024-05-12T09:58:19Z</time>
      </trkpt>
      <trkpt lat="42.8748" lon="1.23223">
        <ele>697.6</ele>
        <time>2024-05-12T09:58:20Z</time>
      </trkpt>
      <trkpt lat="42.87479" lon="1.23226">
        <ele>698</ele>
        <time>2024-05-12T09:58:21Z</time>
      </trkpt>
      <trkpt lat="42.87472" lon="1.23242">
        <ele>698.6</ele>
        <time>2024-05-12T09:58:26Z</time>
      </trkpt>
      <trkpt lat="42.87471" lon="1.23245">
        <ele>699</ele>
        <time>2024-05-12T09:58:27Z</time>
      </trkpt>
      <trkpt lat="42.87469" lon="1.23248">
        <ele>699.4</ele>
        <time>2024-05-12T09:58:28Z</time>
      </trkpt>
      <trkpt lat="42.87468" lon="1.23252">
        <ele>699.8</ele>
        <time>2024-05-12T09:58:29Z</time>
      </trkpt>
      <trkpt lat="42.87467" lon="1.23255">
        <ele>700.2</ele>
        <time>2024-05-12T09:58:30Z</time>
      </trkpt>
      <trkpt lat="42.87464" lon="1.23264">
        <ele>700.6</ele>
        <time>2024-05-12T09:58:33Z</time>
      </trkpt>
      <trkpt lat="42.87463" lon="1.23267">
        <ele>701</ele>
        <time>2024-05-12T09:58:34Z</time>
      </trkpt>
      <trkpt lat="42.87461" lon="1.2327">
        <ele>701.4</ele>
        <time>2024-05-12T09:58:35Z</time>
      </trkpt>
      <trkpt lat="42.8746" lon="1.23273">
        <ele>702.4</ele>
        <time>2024-05-12T09:58:36Z</time>
      </trkpt>
      <trkpt lat="42.87456" lon="1.23281">
        <ele>702.8</ele>
        <time>2024-05-12T09:58:39Z</time>
      </trkpt>
      <trkpt lat="42.87455" lon="1.23283">
        <ele>703.2</ele>
        <time>2024-05-12T09:58:40Z</time>
      </trkpt>
      <trkpt lat="42.87454" lon="1.23286">
        <ele>703.6</ele>
        <time>2024-05-12T09:58:41Z</time>
      </trkpt>
      <trkpt lat="42.87452" lon="1.23288">
        <ele>704</ele>
        <time>2024-05-12T09:58:42Z</time>
      </trkpt>
      <trkpt lat="42.87451" lon="1.23291">
        <ele>704.4</ele>
        <time>2024-05-12T09:58:43Z</time>
      </trkpt>
      <trkpt lat="42.87447" lon="1.23301">
        <ele>704.8</ele>
        <time>2024-05-12T09:58:46Z</time>
      </trkpt>
      <trkpt lat="42.87446" lon="1.23304">
        <ele>705.2</ele>
        <time>2024-05-12T09:58:47Z</time>
      </trkpt>
      <trkpt lat="42.87445" lon="1.23307">
        <ele>705.6</ele>
        <time>2024-05-12T09:58:48Z</time>
      </trkpt>
      <trkpt lat="42.87445" lon="1.23311">
        <ele>706.2</ele>
        <time>2024-05-12T09:58:49Z</time>
      </trkpt>
      <trkpt lat="42.87444" lon="1.23314">
        <ele>706.6</ele>
        <time>2024-05-12T09:58:50Z</time>
      </trkpt>
      <trkpt lat="42.87445" lon="1.23321">
        <ele>706.6</ele>
        <time>2024-05-12T09:58:52Z</time>
      </trkpt>
      <trkpt lat="42.87446" lon="1.23325">
        <ele>707</ele>
        <time>2024-05-12T09:58:53Z</time>
      </trkpt>
      <trkpt lat="42.87448" lon="1.23328">
        <ele>707.4</ele>
        <time>2024-05-12T09:58:54Z</time>
      </trkpt>
      <trkpt lat="42.8745" lon="1.23331">
        <ele>707.8</ele>
        <time>2024-05-12T09:58:55Z</time>
      </trkpt>
      <trkpt lat="42.87451" lon="1.23334">
        <ele>708.2</ele>
        <time>2024-05-12T09:58:56Z</time>
      </trkpt>
      <trkpt lat="42.87453" lon="1.23337">
        <ele>708.6</ele>
        <time>2024-05-12T09:58:57Z</time>
      </trkpt>
      <trkpt lat="42.87455" lon="1.23339">
        <ele>708.6</ele>
        <time>2024-05-12T09:58:58Z</time>
      </trkpt>
      <trkpt lat="42.87462" lon="1.23349">
        <ele>709.4</ele>
        <time>2024-05-12T09:59:01Z</time>
      </trkpt>
      <trkpt lat="42.87463" lon="1.23352">
        <ele>710</ele>
        <time>2024-05-12T09:59:02Z</time>
      </trkpt>
      <trkpt lat="42.87465" lon="1.23355">
        <ele>710.4</ele>
        <time>2024-05-12T09:59:03Z</time>
      </trkpt>
      <trkpt lat="42.87467" lon="1.23359">
        <ele>710.8</ele>
        <time>2024-05-12T09:59:04Z</time>
      </trkpt>
      <trkpt lat="42.87476" lon="1.23384">
        <ele>710.8</ele>
        <time>2024-05-12T09:59:10Z</time>
      </trkpt>
      <trkpt lat="42.87479" lon="1.234">
        <ele>710.8</ele>
        <time>2024-05-12T09:59:14Z</time>
      </trkpt>
      <trkpt lat="42.87482" lon="1.23426">
        <ele>710.8</ele>
        <time>2024-05-12T09:59:20Z</time>
      </trkpt>
      <trkpt lat="42.87482" lon="1.23434">
        <ele>711.2</ele>
        <time>2024-05-12T09:59:22Z</time>
      </trkpt>
      <trkpt lat="42.87483" lon="1.23438">
        <ele>711.6</ele>
        <time>2024-05-12T09:59:23Z</time>
      </trkpt>
      <trkpt lat="42.87483" lon="1.23442">
        <ele>712</ele>
        <time>2024-05-12T09:59:24Z</time>
      </trkpt>
      <trkpt lat="42.87482" lon="1.23446">
        <ele>712.4</ele>
        <time>2024-05-12T09:59:25Z</time>
      </trkpt>
      <trkpt lat="42.87483" lon="1.23451">
        <ele>712.8</ele>
        <time>2024-05-12T09:59:26Z</time>
      </trkpt>
      <trkpt lat="42.87482" lon="1.23455">
        <ele>712.8</ele>
        <time>2024-05-12T09:59:27Z</time>
      </trkpt>
      <trkpt lat="42.87483" lon="1.23479">
        <ele>713.2</ele>
        <time>2024-05-12T09:59:33Z</time>
      </trkpt>
      <trkpt lat="42.87482" lon="1.23483">
        <ele>713.6</ele>
        <time>2024-05-12T09:59:34Z</time>
      </trkpt>
      <trkpt lat="42.87482" lon="1.23488">
        <ele>714</ele>
        <time>2024-05-12T09:59:35Z</time>
      </trkpt>
      <trkpt lat="42.87483" lon="1.23492">
        <ele>714.4</ele>
        <time>2024-05-12T09:59:36Z</time>
      </trkpt>
      <trkpt lat="42.87484" lon="1.23496">
        <ele>714.8</ele>
        <time>2024-05-12T09:59:37Z</time>
      </trkpt>
      <trkpt lat="42.87485" lon="1.235">
        <ele>714.8</ele>
        <time>2024-05-12T09:59:38Z</time>
      </trkpt>
      <trkpt lat="42.87495" lon="1.23508">
        <ele>715.2</ele>
        <time>2024-05-12T09:59:42Z</time>
      </trkpt>
      <trkpt lat="42.87497" lon="1.23511">
        <ele>715.8</ele>
        <time>2024-05-12T09:59:43Z</time>
      </trkpt>
      <trkpt lat="42.87499" lon="1.23513">
        <ele>716.2</ele>
        <time>2024-05-12T09:59:44Z</time>
      </trkpt>
      <trkpt lat="42.875" lon="1.23516">
        <ele>716.6</ele>
        <time>2024-05-12T09:59:45Z</time>
      </trkpt>
      <trkpt lat="42.87502" lon="1.23521">
        <ele>717</ele>
        <time>2024-05-12T09:59:46Z</time>
      </trkpt>
      <trkpt lat="42.87506" lon="1.23537">
        <ele>717.4</ele>
        <time>2024-05-12T09:59:50Z</time>
      </trkpt>
      <trkpt lat="42.87507" lon="1.2354">
        <ele>718.2</ele>
        <time>2024-05-12T09:59:51Z</time>
      </trkpt>
      <trkpt lat="42.87507" lon="1.23544">
        <ele>718.6</ele>
        <time>2024-05-12T09:59:52Z</time>
      </trkpt>
      <trkpt lat="42.87507" lon="1.23548">
        <ele>719</ele>
        <time>2024-05-12T09:59:53Z</time>
      </trkpt>
      <trkpt lat="42.87512" lon="1.23571">
        <ele>719</ele>
        <time>2024-05-12T09:59:58Z</time>
      </trkpt>
      <trkpt lat="42.87515" lon="1.23581">
        <ele>719.6</ele>
        <time>2024-05-12T10:00:01Z</time>
      </trkpt>
      <trkpt lat="42.87516" lon="1.23585">
        <ele>720</ele>
        <time>2024-05-12T10:00:02Z</time>
      </trkpt>
      <trkpt lat="42.87516" lon="1.23588">
        <ele>720.4</ele>
        <time>2024-05-12T10:00:03Z</time>
      </trkpt>
      <trkpt lat="42.87518" lon="1.23591">
        <ele>720.8</ele>
        <time>2024-05-12T10:00:04Z</time>
      </trkpt>
      <trkpt lat="42.87519" lon="1.23594">
        <ele>721.2</ele>
        <time>2024-05-12T10:00:05Z</time>
      </trkpt>
      <trkpt lat="42.87523" lon="1.23601">
        <ele>721.2</ele>
        <time>2024-05-12T10:00:07Z</time>
      </trkpt>
      <trkpt lat="42.87526" lon="1.23608">
        <ele>721.6</ele>
        <time>2024-05-12T10:00:09Z</time>
      </trkpt>
      <trkpt lat="42.87528" lon="1.23612">
        <ele>722</ele>
        <time>2024-05-12T10:00:10Z</time>
      </trkpt>
      <trkpt lat="42.8753" lon="1.23616">
        <ele>722.4</ele>
        <time>2024-05-12T10:00:11Z</time>
      </trkpt>
      <trkpt lat="42.87532" lon="1.2362">
        <ele>722.8</ele>
        <time>2024-05-12T10:00:12Z</time>
      </trkpt>
      <trkpt lat="42.87534" lon="1.23624">
        <ele>723.2</ele>
        <time>2024-05-12T10:00:13Z</time>
      </trkpt>
      <trkpt lat="42.87539" lon="1.23625">
        <ele>723.8</ele>
        <time>2024-05-12T10:00:14Z</time>
      </trkpt>
      <trkpt lat="42.87541" lon="1.23627">
        <ele>724.2</ele>
        <time>2024-05-12T10:00:15Z</time>
      </trkpt>
      <trkpt lat="42.87544" lon="1.2363">
        <ele>725</ele>
        <time>2024-05-12T10:00:16Z</time>
      </trkpt>
      <trkpt lat="42.87546" lon="1.23633">
        <ele>725.4</ele>
        <time>2024-05-12T10:00:17Z</time>
      </trkpt>
      <trkpt lat="42.87548" lon="1.23635">
        <ele>726</ele>
        <time>2024-05-12T10:00:18Z</time>
      </trkpt>
      <trkpt lat="42.87549" lon="1.23637">
        <ele>726.4</ele>
        <time>2024-05-12T10:00:19Z</time>
      </trkpt>
      <trkpt lat="42.8755" lon="1.23641">
        <ele>727</ele>
        <time>2024-05-12T10:00:20Z</time>
      </trkpt>
      <trkpt lat="42.87551" lon="1.23645">
        <ele>727.4</ele>
        <time>2024-05-12T10:00:21Z</time>
      </trkpt>
      <trkpt lat="42.87552" lon="1.23648">
        <ele>727.8</ele>
        <time>2024-05-12T10:00:22Z</time>
      </trkpt>
      <trkpt lat="42.87552" lon="1.23652">
        <ele>728.2</ele>
        <time>2024-05-12T10:00:23Z</time>
      </trkpt>
      <trkpt lat="42.87552" lon="1.23655">
        <ele>728.8</ele>
        <time>2024-05-12T10:00:24Z</time>
      </trkpt>
      <trkpt lat="42.87553" lon="1.23658">
        <ele>729.2</ele>
        <time>2024-05-12T10:00:25Z</time>
      </trkpt>
      <trkpt lat="42.87554" lon="1.23662">
        <ele>729.6</ele>
        <time>2024-05-12T10:00:26Z</time>
      </trkpt>
      <trkpt lat="42.87555" lon="1.23666">
        <ele>730</ele>
        <time>2024-05-12T10:00:27Z</time>
      </trkpt>
      <trkpt lat="42.87556" lon="1.23674">
        <ele>730.4</ele>
        <time>2024-05-12T10:00:29Z</time>
      </trkpt>
      <trkpt lat="42.87557" lon="1.23678">
        <ele>730.8</ele>
        <time>2024-05-12T10:00:30Z</time>
      </trkpt>
      <trkpt lat="42.87559" lon="1.2368">
        <ele>731.2</ele>
        <time>2024-05-12T10:00:31Z</time>
      </trkpt>
      <trkpt lat="42.87559" lon="1.23683">
        <ele>731.6</ele>
        <time>2024-05-12T10:00:32Z</time>
      </trkpt>
      <trkpt lat="42.8756" lon="1.23686">
        <ele>732.2</ele>
        <time>2024-05-12T10:00:33Z</time>
      </trkpt>
      <trkpt lat="42.8756" lon="1.2369">
        <ele>732.2</ele>
        <time>2024-05-12T10:00:34Z</time>
      </trkpt>
      <trkpt lat="42.8756" lon="1.23694">
        <ele>732.6</ele>
        <time>2024-05-12T10:00:35Z</time>
      </trkpt>
      <trkpt lat="42.87561" lon="1.23697">
        <ele>733</ele>
        <time>2024-05-12T10:00:36Z</time>
      </trkpt>
      <trkpt lat="42.8756" lon="1.23701">
        <ele>733.4</ele>
        <time>2024-05-12T10:00:37Z</time>
      </trkpt>
      <trkpt lat="42.8756" lon="1.23704">
        <ele>733.8</ele>
        <time>2024-05-12T10:00:38Z</time>
      </trkpt>
      <trkpt lat="42.87559" lon="1.23709">
        <ele>734.2</ele>
        <time>2024-05-12T10:00:39Z</time>
      </trkpt>
      <trkpt lat="42.87559" lon="1.23716">
        <ele>734.8</ele>
        <time>2024-05-12T10:00:41Z</time>
      </trkpt>
      <trkpt lat="42.87558" lon="1.2372">
        <ele>735.2</ele>
        <time>2024-05-12T10:00:42Z</time>
      </trkpt>
      <trkpt lat="42.87557" lon="1.23723">
        <ele>735.6</ele>
        <time>2024-05-12T10:00:43Z</time>
      </trkpt>
      <trkpt lat="42.87555" lon="1.23726">
        <ele>736</ele>
        <time>2024-05-12T10:00:44Z</time>
      </trkpt>
      <trkpt lat="42.87554" lon="1.23729">
        <ele>736.6</ele>
        <time>2024-05-12T10:00:45Z</time>
      </trkpt>
      <trkpt lat="42.8755" lon="1.2374">
        <ele>737</ele>
        <time>2024-05-12T10:00:48Z</time>
      </trkpt>
      <trkpt lat="42.87549" lon="1.23743">
        <ele>737.4</ele>
        <time>2024-05-12T10:00:49Z</time>
      </trkpt>
      <trkpt lat="42.87547" lon="1.23746">
        <ele>738</ele>
        <time>2024-05-12T10:00:50Z</time>
      </trkpt>
      <trkpt lat="42.87545" lon="1.23748">
        <ele>738.4</ele>
        <time>2024-05-12T10:00:51Z</time>
      </trkpt>
      <trkpt lat="42.87544" lon="1.23751">
        <ele>738.8</ele>
        <time>2024-05-12T10:00:52Z</time>
      </trkpt>
      <trkpt lat="42.8754" lon="1.23761">
        <ele>739.2</ele>
        <time>2024-05-12T10:00:55Z</time>
      </trkpt>
      <trkpt lat="42.87539" lon="1.23765">
        <ele>739.6</ele>
        <time>2024-05-12T10:00:56Z</time>
      </trkpt>
      <trkpt lat="42.87537" lon="1.23769">
        <ele>740.2</ele>
        <time>2024-05-12T10:00:57Z</time>
      </trkpt>
      <trkpt lat="42.87536" lon="1.23773">
        <ele>740.6</ele>
        <time>2024-05-12T10:00:58Z</time>
      </trkpt>
      <trkpt lat="42.87535" lon="1.23776">
        <ele>741</ele>
        <time>2024-05-12T10:00:59Z</time>
      </trkpt>
      <trkpt lat="42.87529" lon="1.23786">
        <ele>741.4</ele>
        <time>2024-05-12T10:01:03Z</time>
      </trkpt>
      <trkpt lat="42.87528" lon="1.23789">
        <ele>742</ele>
        <time>2024-05-12T10:01:04Z</time>
      </trkpt>
      <trkpt lat="42.87526" lon="1.23792">
        <ele>742.4</ele>
        <time>2024-05-12T10:01:05Z</time>
      </trkpt>
      <trkpt lat="42.87525" lon="1.23795">
        <ele>743.4</ele>
        <time>2024-05-12T10:01:06Z</time>
      </trkpt>
      <trkpt lat="42.87522" lon="1.23805">
        <ele>743.8</ele>
        <time>2024-05-12T10:01:09Z</time>
      </trkpt>
      <trkpt lat="42.8752" lon="1.23809">
        <ele>744.2</ele>
        <time>2024-05-12T10:01:10Z</time>
      </trkpt>
      <trkpt lat="42.87519" lon="1.23812">
        <ele>744.6</ele>
        <time>2024-05-12T10:01:11Z</time>
      </trkpt>
      <trkpt lat="42.87518" lon="1.23815">
        <ele>745</ele>
        <time>2024-05-12T10:01:12Z</time>
      </trkpt>
      <trkpt lat="42.87518" lon="1.23818">
        <ele>745.6</ele>
        <time>2024-05-12T10:01:13Z</time>
      </trkpt>
      <trkpt lat="42.87516" lon="1.23829">
        <ele>746</ele>
        <time>2024-05-12T10:01:17Z</time>
      </trkpt>
      <trkpt lat="42.87516" lon="1.23832">
        <ele>746.4</ele>
        <time>2024-05-12T10:01:18Z</time>
      </trkpt>
      <trkpt lat="42.87516" lon="1.23837">
        <ele>747</ele>
        <time>2024-05-12T10:01:19Z</time>
      </trkpt>
      <trkpt lat="42.87517" lon="1.2384">
        <ele>747.4</ele>
        <time>2024-05-12T10:01:20Z</time>
      </trkpt>
      <trkpt lat="42.87517" lon="1.23845">
        <ele>747.8</ele>
        <time>2024-05-12T10:01:21Z</time>
      </trkpt>
      <trkpt lat="42.87518" lon="1.23847">
        <ele>748.2</ele>
        <time>2024-05-12T10:01:22Z</time>
      </trkpt>
      <trkpt lat="42.87519" lon="1.23851">
        <ele>748.8</ele>
        <time>2024-05-12T10:01:23Z</time>
      </trkpt>
      <trkpt lat="42.87522" lon="1.23853">
        <ele>749.2</ele>
        <time>2024-05-12T10:01:24Z</time>
      </trkpt>
      <trkpt lat="42.87524" lon="1.23856">
        <ele>749.6</ele>
        <time>2024-05-12T10:01:25Z</time>
      </trkpt>
      <trkpt lat="42.87527" lon="1.23858">
        <ele>750</ele>
        <time>2024-05-12T10:01:26Z</time>
      </trkpt>
      <trkpt lat="42.87529" lon="1.2386">
        <ele>750.4</ele>
        <time>2024-05-12T10:01:27Z</time>
      </trkpt>
      <trkpt lat="42.87532" lon="1.23861">
        <ele>750.8</ele>
        <time>2024-05-12T10:01:28Z</time>
      </trkpt>
      <trkpt lat="42.87534" lon="1.23862">
        <ele>751.2</ele>
        <time>2024-05-12T10:01:29Z</time>
      </trkpt>
      <trkpt lat="42.87536" lon="1.23863">
        <ele>752</ele>
        <time>2024-05-12T10:01:30Z</time>
      </trkpt>
      <trkpt lat="42.8754" lon="1.23866">
        <ele>752</ele>
        <time>2024-05-12T10:01:32Z</time>
      </trkpt>
      <trkpt lat="42.87545" lon="1.23871">
        <ele>752.4</ele>
        <time>2024-05-12T10:01:35Z</time>
      </trkpt>
      <trkpt lat="42.87547" lon="1.23874">
        <ele>753</ele>
        <time>2024-05-12T10:01:36Z</time>
      </trkpt>
      <trkpt lat="42.87547" lon="1.23878">
        <ele>753.4</ele>
        <time>2024-05-12T10:01:37Z</time>
      </trkpt>
      <trkpt lat="42.87547" lon="1.23881">
        <ele>753.8</ele>
        <time>2024-05-12T10:01:38Z</time>
      </trkpt>
      <trkpt lat="42.87547" lon="1.23885">
        <ele>754.2</ele>
        <time>2024-05-12T10:01:39Z</time>
      </trkpt>
      <trkpt lat="42.87547" lon="1.23891">
        <ele>754.8</ele>
        <time>2024-05-12T10:01:41Z</time>
      </trkpt>
      <trkpt lat="42.87547" lon="1.23894">
        <ele>755.2</ele>
        <time>2024-05-12T10:01:42Z</time>
      </trkpt>
      <trkpt lat="42.87547" lon="1.23898">
        <ele>755.6</ele>
        <time>2024-05-12T10:01:43Z</time>
      </trkpt>
      <trkpt lat="42.87547" lon="1.23901">
        <ele>756</ele>
        <time>2024-05-12T10:01:44Z</time>
      </trkpt>
      <trkpt lat="42.87548" lon="1.23905">
        <ele>756.4</ele>
        <time>2024-05-12T10:01:45Z</time>
      </trkpt>
      <trkpt lat="42.87549" lon="1.23908">
        <ele>757</ele>
        <time>2024-05-12T10:01:46Z</time>
      </trkpt>
      <trkpt lat="42.8755" lon="1.23911">
        <ele>757.4</ele>
        <time>2024-05-12T10:01:47Z</time>
      </trkpt>
      <trkpt lat="42.87551" lon="1.23914">
        <ele>757.8</ele>
        <time>2024-05-12T10:01:48Z</time>
      </trkpt>
      <trkpt lat="42.87552" lon="1.23916">
        <ele>758.2</ele>
        <time>2024-05-12T10:01:49Z</time>
      </trkpt>
      <trkpt lat="42.87553" lon="1.23918">
        <ele>758.8</ele>
        <time>2024-05-12T10:01:50Z</time>
      </trkpt>
      <trkpt lat="42.87554" lon="1.23921">
        <ele>759.2</ele>
        <time>2024-05-12T10:01:51Z</time>
      </trkpt>
      <trkpt lat="42.87555" lon="1.23924">
        <ele>759.6</ele>
        <time>2024-05-12T10:01:52Z</time>
      </trkpt>
      <trkpt lat="42.87557" lon="1.23927">
        <ele>760</ele>
        <time>2024-05-12T10:01:53Z</time>
      </trkpt>
      <trkpt lat="42.87558" lon="1.2393">
        <ele>760.4</ele>
        <time>2024-05-12T10:01:54Z</time>
      </trkpt>
      <trkpt lat="42.87558" lon="1.23932">
        <ele>760.8</ele>
        <time>2024-05-12T10:01:55Z</time>
      </trkpt>
      <trkpt lat="42.87559" lon="1.23935">
        <ele>761.2</ele>
        <time>2024-05-12T10:01:56Z</time>
      </trkpt>
      <trkpt lat="42.8756" lon="1.23938">
        <ele>761.6</ele>
        <time>2024-05-12T10:01:57Z</time>
      </trkpt>
      <trkpt lat="42.87561" lon="1.23941">
        <ele>762.2</ele>
        <time>2024-05-12T10:01:58Z</time>
      </trkpt>
      <trkpt lat="42.87563" lon="1.23943">
        <ele>762.6</ele>
        <time>2024-05-12T10:01:59Z</time>
      </trkpt>
      <trkpt lat="42.87563" lon="1.23946">
        <ele>763</ele>
        <time>2024-05-12T10:02:00Z</time>
      </trkpt>
      <trkpt lat="42.87567" lon="1.23954">
        <ele>763.4</ele>
        <time>2024-05-12T10:02:03Z</time>
      </trkpt>
      <trkpt lat="42.87568" lon="1.23957">
        <ele>764</ele>
        <time>2024-05-12T10:02:04Z</time>
      </trkpt>
      <trkpt lat="42.87568" lon="1.23959">
        <ele>764.4</ele>
        <time>2024-05-12T10:02:05Z</time>
      </trkpt>
      <trkpt lat="42.87569" lon="1.23962">
        <ele>764.8</ele>
        <time>2024-05-12T10:02:06Z</time>
      </trkpt>
      <trkpt lat="42.87571" lon="1.23966">
        <ele>765.4</ele>
        <time>2024-05-12T10:02:07Z</time>
      </trkpt>
      <trkpt lat="42.87572" lon="1.23971">
        <ele>765.4</ele>
        <time>2024-05-12T10:02:09Z</time>
      </trkpt>
      <trkpt lat="42.87571" lon="1.2398">
        <ele>765.8</ele>
        <time>2024-05-12T10:02:11Z</time>
      </trkpt>
      <trkpt lat="42.87571" lon="1.23983">
        <ele>766.2</ele>
        <time>2024-05-12T10:02:12Z</time>
      </trkpt>
      <trkpt lat="42.8757" lon="1.23986">
        <ele>766.8</ele>
        <time>2024-05-12T10:02:13Z</time>
      </trkpt>
      <trkpt lat="42.87571" lon="1.23988">
        <ele>767.2</ele>
        <time>2024-05-12T10:02:14Z</time>
      </trkpt>
      <trkpt lat="42.87571" lon="1.23992">
        <ele>767.6</ele>
        <time>2024-05-12T10:02:15Z</time>
      </trkpt>
      <trkpt lat="42.8757" lon="1.23995">
        <ele>768.2</ele>
        <time>2024-05-12T10:02:16Z</time>
      </trkpt>
      <trkpt lat="42.8757" lon="1.23998">
        <ele>768.6</ele>
        <time>2024-05-12T10:02:17Z</time>
      </trkpt>
      <trkpt lat="42.87569" lon="1.24002">
        <ele>769.2</ele>
        <time>2024-05-12T10:02:18Z</time>
      </trkpt>
      <trkpt lat="42.87568" lon="1.24005">
        <ele>769.6</ele>
        <time>2024-05-12T10:02:19Z</time>
      </trkpt>
      <trkpt lat="42.87567" lon="1.24007">
        <ele>770.6</ele>
        <time>2024-05-12T10:02:20Z</time>
      </trkpt>
      <trkpt lat="42.87567" lon="1.24009">
        <ele>771.2</ele>
        <time>2024-05-12T10:02:21Z</time>
      </trkpt>
      <trkpt lat="42.87567" lon="1.24011">
        <ele>771.6</ele>
        <time>2024-05-12T10:02:22Z</time>
      </trkpt>
      <trkpt lat="42.87567" lon="1.24013">
        <ele>772.2</ele>
        <time>2024-05-12T10:02:23Z</time>
      </trkpt>
      <trkpt lat="42.87567" lon="1.24015">
        <ele>772.6</ele>
        <time>2024-05-12T10:02:24Z</time>
      </trkpt>
      <trkpt lat="42.87566" lon="1.24018">
        <ele>773</ele>
        <time>2024-05-12T10:02:25Z</time>
      </trkpt>
      <trkpt lat="42.87566" lon="1.24022">
        <ele>773.4</ele>
        <time>2024-05-12T10:02:26Z</time>
      </trkpt>
      <trkpt lat="42.87566" lon="1.24025">
        <ele>773.8</ele>
        <time>2024-05-12T10:02:27Z</time>
      </trkpt>
      <trkpt lat="42.87566" lon="1.24027">
        <ele>774.2</ele>
        <time>2024-05-12T10:02:28Z</time>
      </trkpt>
      <trkpt lat="42.87566" lon="1.24029">
        <ele>774.2</ele>
        <time>2024-05-12T10:02:29Z</time>
      </trkpt>
      <trkpt lat="42.87565" lon="1.24032">
        <ele>774.6</ele>
        <time>2024-05-12T10:02:30Z</time>
      </trkpt>
      <trkpt lat="42.87565" lon="1.24034">
        <ele>775.2</ele>
        <time>2024-05-12T10:02:31Z</time>
      </trkpt>
      <trkpt lat="42.87565" lon="1.24037">
        <ele>775.6</ele>
        <time>2024-05-12T10:02:32Z</time>
      </trkpt>
      <trkpt lat="42.87565" lon="1.2404">
        <ele>776.2</ele>
        <time>2024-05-12T10:02:33Z</time>
      </trkpt>
      <trkpt lat="42.87566" lon="1.24044">
        <ele>776.6</ele>
        <time>2024-05-12T10:02:34Z</time>
      </trkpt>
      <trkpt lat="42.87566" lon="1.24046">
        <ele>776.6</ele>
        <time>2024-05-12T10:02:35Z</time>
      </trkpt>
      <trkpt lat="42.87566" lon="1.24049">
        <ele>777</ele>
        <time>2024-05-12T10:02:36Z</time>
      </trkpt>
      <trkpt lat="42.87567" lon="1.24051">
        <ele>777.4</ele>
        <time>2024-05-12T10:02:37Z</time>
      </trkpt>
      <trkpt lat="42.87566" lon="1.24055">
        <ele>777.8</ele>
        <time>2024-05-12T10:02:38Z</time>
      </trkpt>
      <trkpt lat="42.87566" lon="1.24059">
        <ele>778.2</ele>
        <time>2024-05-12T10:02:39Z</time>
      </trkpt>
      <trkpt lat="42.87565" lon="1.24063">
        <ele>778.8</ele>
        <time>2024-05-12T10:02:40Z</time>
      </trkpt>
      <trkpt lat="42.87566" lon="1.24067">
        <ele>778.8</ele>
        <time>2024-05-12T10:02:41Z</time>
      </trkpt>
      <trkpt lat="42.87565" lon="1.24071">
        <ele>779.2</ele>
        <time>2024-05-12T10:02:42Z</time>
      </trkpt>
      <trkpt lat="42.87565" lon="1.24073">
        <ele>779.6</ele>
        <time>2024-05-12T10:02:43Z</time>
      </trkpt>
      <trkpt lat="42.87564" lon="1.24077">
        <ele>780.2</ele>
        <time>2024-05-12T10:02:44Z</time>
      </trkpt>
      <trkpt lat="42.87564" lon="1.24079">
        <ele>781</ele>
        <time>2024-05-12T10:02:45Z</time>
      </trkpt>
      <trkpt lat="42.87564" lon="1.24082">
        <ele>781</ele>
        <time>2024-05-12T10:02:46Z</time>
      </trkpt>
      <trkpt lat="42.87565" lon="1.24084">
        <ele>781.6</ele>
        <time>2024-05-12T10:02:47Z</time>
      </trkpt>
      <trkpt lat="42.87565" lon="1.24086">
        <ele>782</ele>
        <time>2024-05-12T10:02:48Z</time>
      </trkpt>
      <trkpt lat="42.87566" lon="1.24089">
        <ele>782.4</ele>
        <time>2024-05-12T10:02:49Z</time>
      </trkpt>
      <trkpt lat="42.87566" lon="1.24092">
        <ele>783</ele>
        <time>2024-05-12T10:02:50Z</time>
      </trkpt>
      <trkpt lat="42.87566" lon="1.24095">
        <ele>783.4</ele>
        <time>2024-05-12T10:02:51Z</time>
      </trkpt>
      <trkpt lat="42.87567" lon="1.24104">
        <ele>783.4</ele>
        <time>2024-05-12T10:02:54Z</time>
      </trkpt>
      <trkpt lat="42.87568" lon="1.24109">
        <ele>783.8</ele>
        <time>2024-05-12T10:02:56Z</time>
      </trkpt>
      <trkpt lat="42.87568" lon="1.24112">
        <ele>784.2</ele>
        <time>2024-05-12T10:02:57Z</time>
      </trkpt>
      <trkpt lat="42.87568" lon="1.24116">
        <ele>784.8</ele>
        <time>2024-05-12T10:02:58Z</time>
      </trkpt>
      <trkpt lat="42.87568" lon="1.24119">
        <ele>785.2</ele>
        <time>2024-05-12T10:02:59Z</time>
      </trkpt>
      <trkpt lat="42.87568" lon="1.24122">
        <ele>785.6</ele>
        <time>2024-05-12T10:03:00Z</time>
      </trkpt>
      <trkpt lat="42.87568" lon="1.24129">
        <ele>785.6</ele>
        <time>2024-05-12T10:03:02Z</time>
      </trkpt>
      <trkpt lat="42.87567" lon="1.24131">
        <ele>786</ele>
        <time>2024-05-12T10:03:03Z</time>
      </trkpt>
      <trkpt lat="42.87568" lon="1.24135">
        <ele>786.4</ele>
        <time>2024-05-12T10:03:04Z</time>
      </trkpt>
      <trkpt lat="42.87567" lon="1.24138">
        <ele>786.8</ele>
        <time>2024-05-12T10:03:05Z</time>
      </trkpt>
      <trkpt lat="42.87566" lon="1.2414">
        <ele>787.2</ele>
        <time>2024-05-12T10:03:06Z</time>
      </trkpt>
      <trkpt lat="42.87566" lon="1.24143">
        <ele>787.6</ele>
        <time>2024-05-12T10:03:07Z</time>
      </trkpt>
      <trkpt lat="42.87564" lon="1.24152">
        <ele>788.4</ele>
        <time>2024-05-12T10:03:10Z</time>
      </trkpt>
      <trkpt lat="42.87563" lon="1.24155">
        <ele>789</ele>
        <time>2024-05-12T10:03:11Z</time>
      </trkpt>
      <trkpt lat="42.87562" lon="1.24158">
        <ele>789.4</ele>
        <time>2024-05-12T10:03:12Z</time>
      </trkpt>
      <trkpt lat="42.87561" lon="1.24161">
        <ele>789.8</ele>
        <time>2024-05-12T10:03:13Z</time>
      </trkpt>
      <trkpt lat="42.87559" lon="1.24174">
        <ele>790.2</ele>
        <time>2024-05-12T10:03:17Z</time>
      </trkpt>
      <trkpt lat="42.87558" lon="1.24177">
        <ele>790.6</ele>
        <time>2024-05-12T10:03:18Z</time>
      </trkpt>
      <trkpt lat="42.87557" lon="1.24181">
        <ele>791</ele>
        <time>2024-05-12T10:03:19Z</time>
      </trkpt>
      <trkpt lat="42.87556" lon="1.24183">
        <ele>791.4</ele>
        <time>2024-05-12T10:03:20Z</time>
      </trkpt>
      <trkpt lat="42.87555" lon="1.24186">
        <ele>792</ele>
        <time>2024-05-12T10:03:21Z</time>
      </trkpt>
      <trkpt lat="42.87554" lon="1.24193">
        <ele>792</ele>
        <time>2024-05-12T10:03:23Z</time>
      </trkpt>
      <trkpt lat="42.87553" lon="1.24203">
        <ele>792.4</ele>
        <time>2024-05-12T10:03:26Z</time>
      </trkpt>
      <trkpt lat="42.87553" lon="1.24207">
        <ele>792.8</ele>
        <time>2024-05-12T10:03:27Z</time>
      </trkpt>
      <trkpt lat="42.87553" lon="1.24211">
        <ele>793.2</ele>
        <time>2024-05-12T10:03:28Z</time>
      </trkpt>
      <trkpt lat="42.87552" lon="1.24214">
        <ele>793.6</ele>
        <time>2024-05-12T10:03:29Z</time>
      </trkpt>
      <trkpt lat="42.87552" lon="1.24217">
        <ele>794</ele>
        <time>2024-05-12T10:03:30Z</time>
      </trkpt>
      <trkpt lat="42.87551" lon="1.24233">
        <ele>794</ele>
        <time>2024-05-12T10:03:35Z</time>
      </trkpt>
      <trkpt lat="42.8755" lon="1.24242">
        <ele>794</ele>
        <time>2024-05-12T10:03:39Z</time>
      </trkpt>
      <trkpt lat="42.87549" lon="1.24246">
        <ele>794</ele>
        <time>2024-05-12T10:03:41Z</time>
      </trkpt>
      <trkpt lat="42.87547" lon="1.24264">
        <ele>794</ele>
        <time>2024-05-12T10:03:47Z</time>
      </trkpt>
      <trkpt lat="42.87547" lon="1.24265">
        <ele>794</ele>
        <time>2024-05-12T10:03:48Z</time>
      </trkpt>
      <trkpt lat="42.87544" lon="1.24275">
        <ele>794</ele>
        <time>2024-05-12T10:03:52Z</time>
      </trkpt>
      <trkpt lat="42.87546" lon="1.2428">
        <ele>794</ele>
        <time>2024-05-12T10:03:53Z</time>
      </trkpt>
      <trkpt lat="42.87548" lon="1.24291">
        <ele>794</ele>
        <time>2024-05-12T10:03:55Z</time>
      </trkpt>
      <trkpt lat="42.87553" lon="1.24309">
        <ele>795</ele>
        <time>2024-05-12T10:03:59Z</time>
      </trkpt>
      <trkpt lat="42.87553" lon="1.24314">
        <ele>795.4</ele>
        <time>2024-05-12T10:04:00Z</time>
      </trkpt>
      <trkpt lat="42.87554" lon="1.24318">
        <ele>795.8</ele>
        <time>2024-05-12T10:04:01Z</time>
      </trkpt>
      <trkpt lat="42.87554" lon="1.24322">
        <ele>796.2</ele>
        <time>2024-05-12T10:04:02Z</time>
      </trkpt>
      <trkpt lat="42.87556" lon="1.24342">
        <ele>796.2</ele>
        <time>2024-05-12T10:04:07Z</time>
      </trkpt>
      <trkpt lat="42.87557" lon="1.24348">
        <ele>796.6</ele>
        <time>2024-05-12T10:04:09Z</time>
      </trkpt>
      <trkpt lat="42.87558" lon="1.24351">
        <ele>797</ele>
        <time>2024-05-12T10:04:10Z</time>
      </trkpt>
      <trkpt lat="42.87559" lon="1.24354">
        <ele>797.4</ele>
        <time>2024-05-12T10:04:11Z</time>
      </trkpt>
      <trkpt lat="42.87559" lon="1.24357">
        <ele>797.8</ele>
        <time>2024-05-12T10:04:12Z</time>
      </trkpt>
      <trkpt lat="42.8756" lon="1.24361">
        <ele>798.2</ele>
        <time>2024-05-12T10:04:13Z</time>
      </trkpt>
      <trkpt lat="42.87562" lon="1.24376">
        <ele>798.2</ele>
        <time>2024-05-12T10:04:17Z</time>
      </trkpt>
      <trkpt lat="42.87562" lon="1.24379">
        <ele>798.8</ele>
        <time>2024-05-12T10:04:18Z</time>
      </trkpt>
      <trkpt lat="42.87562" lon="1.24382">
        <ele>799.2</ele>
        <time>2024-05-12T10:04:19Z</time>
      </trkpt>
      <trkpt lat="42.87563" lon="1.24386">
        <ele>799.6</ele>
        <time>2024-05-12T10:04:20Z</time>
      </trkpt>
      <trkpt lat="42.87563" lon="1.24389">
        <ele>800</ele>
        <time>2024-05-12T10:04:21Z</time>
      </trkpt>
      <trkpt lat="42.87562" lon="1.24392">
        <ele>800.4</ele>
        <time>2024-05-12T10:04:22Z</time>
      </trkpt>
      <trkpt lat="42.87563" lon="1.24406">
        <ele>800.8</ele>
        <time>2024-05-12T10:04:26Z</time>
      </trkpt>
      <trkpt lat="42.87564" lon="1.2441">
        <ele>801.2</ele>
        <time>2024-05-12T10:04:27Z</time>
      </trkpt>
      <trkpt lat="42.87564" lon="1.24413">
        <ele>801.6</ele>
        <time>2024-05-12T10:04:28Z</time>
      </trkpt>
      <trkpt lat="42.87565" lon="1.24417">
        <ele>802.2</ele>
        <time>2024-05-12T10:04:29Z</time>
      </trkpt>
      <trkpt lat="42.87566" lon="1.2442">
        <ele>802.6</ele>
        <time>2024-05-12T10:04:30Z</time>
      </trkpt>
      <trkpt lat="42.87568" lon="1.24429">
        <ele>802.6</ele>
        <time>2024-05-12T10:04:33Z</time>
      </trkpt>
      <trkpt lat="42.87568" lon="1.24431">
        <ele>802.6</ele>
        <time>2024-05-12T10:04:34Z</time>
      </trkpt>
      <trkpt lat="42.87568" lon="1.24434">
        <ele>803</ele>
        <time>2024-05-12T10:04:35Z</time>
      </trkpt>
      <trkpt lat="42.8757" lon="1.24437">
        <ele>803.4</ele>
        <time>2024-05-12T10:04:36Z</time>
      </trkpt>
      <trkpt lat="42.87572" lon="1.2444">
        <ele>803.8</ele>
        <time>2024-05-12T10:04:37Z</time>
      </trkpt>
      <trkpt lat="42.87573" lon="1.24444">
        <ele>804.2</ele>
        <time>2024-05-12T10:04:38Z</time>
      </trkpt>
      <trkpt lat="42.87574" lon="1.24448">
        <ele>804.6</ele>
        <time>2024-05-12T10:04:39Z</time>
      </trkpt>
      <trkpt lat="42.87576" lon="1.24455">
        <ele>805</ele>
        <time>2024-05-12T10:04:41Z</time>
      </trkpt>
      <trkpt lat="42.87577" lon="1.24458">
        <ele>805.4</ele>
        <time>2024-05-12T10:04:42Z</time>
      </trkpt>
      <trkpt lat="42.87579" lon="1.24461">
        <ele>805.8</ele>
        <time>2024-05-12T10:04:43Z</time>
      </trkpt>
      <trkpt lat="42.8758" lon="1.24465">
        <ele>806.2</ele>
        <time>2024-05-12T10:04:44Z</time>
      </trkpt>
      <trkpt lat="42.87581" lon="1.24467">
        <ele>806.8</ele>
        <time>2024-05-12T10:04:45Z</time>
      </trkpt>
      <trkpt lat="42.87583" lon="1.24474">
        <ele>807.2</ele>
        <time>2024-05-12T10:04:47Z</time>
      </trkpt>
      <trkpt lat="42.87584" lon="1.24477">
        <ele>807.6</ele>
        <time>2024-05-12T10:04:48Z</time>
      </trkpt>
      <trkpt lat="42.87585" lon="1.24481">
        <ele>808</ele>
        <time>2024-05-12T10:04:49Z</time>
      </trkpt>
      <trkpt lat="42.87585" lon="1.24483">
        <ele>808.6</ele>
        <time>2024-05-12T10:04:50Z</time>
      </trkpt>
      <trkpt lat="42.87586" lon="1.24486">
        <ele>809</ele>
        <time>2024-05-12T10:04:51Z</time>
      </trkpt>
      <trkpt lat="42.87587" lon="1.24492">
        <ele>809.4</ele>
        <time>2024-05-12T10:04:53Z</time>
      </trkpt>
      <trkpt lat="42.87588" lon="1.24495">
        <ele>809.8</ele>
        <time>2024-05-12T10:04:54Z</time>
      </trkpt>
      <trkpt lat="42.87588" lon="1.24498">
        <ele>810.2</ele>
        <time>2024-05-12T10:04:55Z</time>
      </trkpt>
      <trkpt lat="42.87589" lon="1.24502">
        <ele>810.6</ele>
        <time>2024-05-12T10:04:56Z</time>
      </trkpt>
      <trkpt lat="42.8759" lon="1.24505">
        <ele>811</ele>
        <time>2024-05-12T10:04:57Z</time>
      </trkpt>
      <trkpt lat="42.87592" lon="1.24514">
        <ele>811.6</ele>
        <time>2024-05-12T10:05:00Z</time>
      </trkpt>
      <trkpt lat="42.87593" lon="1.24516">
        <ele>812</ele>
        <time>2024-05-12T10:05:01Z</time>
      </trkpt>
      <trkpt lat="42.87594" lon="1.2452">
        <ele>812.4</ele>
        <time>2024-05-12T10:05:02Z</time>
      </trkpt>
      <trkpt lat="42.87595" lon="1.24523">
        <ele>812.8</ele>
        <time>2024-05-12T10:05:03Z</time>
      </trkpt>
      <trkpt lat="42.87595" lon="1.24526">
        <ele>813.2</ele>
        <time>2024-05-12T10:05:04Z</time>
      </trkpt>
      <trkpt lat="42.87598" lon="1.2453">
        <ele>813.6</ele>
        <time>2024-05-12T10:05:06Z</time>
      </trkpt>
      <trkpt lat="42.87599" lon="1.24532">
        <ele>814</ele>
        <time>2024-05-12T10:05:07Z</time>
      </trkpt>
      <trkpt lat="42.876" lon="1.24535">
        <ele>814.6</ele>
        <time>2024-05-12T10:05:08Z</time>
      </trkpt>
      <trkpt lat="42.87603" lon="1.24537">
        <ele>815</ele>
        <time>2024-05-12T10:05:09Z</time>
      </trkpt>
      <trkpt lat="42.87604" lon="1.24538">
        <ele>815.4</ele>
        <time>2024-05-12T10:05:10Z</time>
      </trkpt>
      <trkpt lat="42.87606" lon="1.24541">
        <ele>815.8</ele>
        <time>2024-05-12T10:05:11Z</time>
      </trkpt>
      <trkpt lat="42.87608" lon="1.24544">
        <ele>816.2</ele>
        <time>2024-05-12T10:05:12Z</time>
      </trkpt>
      <trkpt lat="42.87609" lon="1.24547">
        <ele>816.6</ele>
        <time>2024-05-12T10:05:13Z</time>
      </trkpt>
      <trkpt lat="42.8761" lon="1.24549">
        <ele>817</ele>
        <time>2024-05-12T10:05:14Z</time>
      </trkpt>
      <trkpt lat="42.87612" lon="1.24552">
        <ele>817.4</ele>
        <time>2024-05-12T10:05:15Z</time>
      </trkpt>
      <trkpt lat="42.87614" lon="1.24555">
        <ele>817.4</ele>
        <time>2024-05-12T10:05:16Z</time>
      </trkpt>
      <trkpt lat="42.87619" lon="1.24566">
        <ele>817.8</ele>
        <time>2024-05-12T10:05:20Z</time>
      </trkpt>
      <trkpt lat="42.8762" lon="1.24569">
        <ele>818.2</ele>
        <time>2024-05-12T10:05:21Z</time>
      </trkpt>
      <trkpt lat="42.87622" lon="1.24572">
        <ele>818.8</ele>
        <time>2024-05-12T10:05:22Z</time>
      </trkpt>
      <trkpt lat="42.87623" lon="1.24575">
        <ele>819.2</ele>
        <time>2024-05-12T10:05:23Z</time>
      </trkpt>
      <trkpt lat="42.87623" lon="1.24578">
        <ele>819.6</ele>
        <time>2024-05-12T10:05:24Z</time>
      </trkpt>
      <trkpt lat="42.87625" lon="1.24587">
        <ele>820</ele>
        <time>2024-05-12T10:05:28Z</time>
      </trkpt>
      <trkpt lat="42.87626" lon="1.2459">
        <ele>820.4</ele>
        <time>2024-05-12T10:05:29Z</time>
      </trkpt>
      <trkpt lat="42.87626" lon="1.24591">
        <ele>820.8</ele>
        <time>2024-05-12T10:05:30Z</time>
      </trkpt>
      <trkpt lat="42.87627" lon="1.24594">
        <ele>821.2</ele>
        <time>2024-05-12T10:05:31Z</time>
      </trkpt>
      <trkpt lat="42.87627" lon="1.24595">
        <ele>821.6</ele>
        <time>2024-05-12T10:05:32Z</time>
      </trkpt>
      <trkpt lat="42.87628" lon="1.24595">
        <ele>821.6</ele>
        <time>2024-05-12T10:05:34Z</time>
      </trkpt>
      <trkpt lat="42.87628" lon="1.24596">
        <ele>821.6</ele>
        <time>2024-05-12T10:07:39Z</time>
      </trkpt>
      <trkpt lat="42.87639" lon="1.24588">
        <ele>821.6</ele>
        <time>2024-05-12T10:07:43Z</time>
      </trkpt>
      <trkpt lat="42.87643" lon="1.24585">
        <ele>821.6</ele>
        <time>2024-05-12T10:07:44Z</time>
      </trkpt>
      <trkpt lat="42.87652" lon="1.24576">
        <ele>821.6</ele>
        <time>2024-05-12T10:07:46Z</time>
      </trkpt>
      <trkpt lat="42.87658" lon="1.24571">
        <ele>821.2</ele>
        <time>2024-05-12T10:07:47Z</time>
      </trkpt>
      <trkpt lat="42.87663" lon="1.24565">
        <ele>820.6</ele>
        <time>2024-05-12T10:07:48Z</time>
      </trkpt>
      <trkpt lat="42.87668" lon="1.2456">
        <ele>819.8</ele>
        <time>2024-05-12T10:07:49Z</time>
      </trkpt>
      <trkpt lat="42.87673" lon="1.24555">
        <ele>819</ele>
        <time>2024-05-12T10:07:50Z</time>
      </trkpt>
      <trkpt lat="42.87678" lon="1.24551">
        <ele>818.2</ele>
        <time>2024-05-12T10:07:51Z</time>
      </trkpt>
      <trkpt lat="42.87682" lon="1.24547">
        <ele>817.4</ele>
        <time>2024-05-12T10:07:52Z</time>
      </trkpt>
      <trkpt lat="42.87686" lon="1.24542">
        <ele>816.6</ele>
        <time>2024-05-12T10:07:53Z</time>
      </trkpt>
      <trkpt lat="42.8769" lon="1.24538">
        <ele>815.6</ele>
        <time>2024-05-12T10:07:54Z</time>
      </trkpt>
      <trkpt lat="42.87695" lon="1.24534">
        <ele>814.6</ele>
        <time>2024-05-12T10:07:55Z</time>
      </trkpt>
      <trkpt lat="42.87699" lon="1.2453">
        <ele>813.6</ele>
        <time>2024-05-12T10:07:56Z</time>
      </trkpt>
      <trkpt lat="42.87703" lon="1.24527">
        <ele>812.4</ele>
        <time>2024-05-12T10:07:57Z</time>
      </trkpt>
      <trkpt lat="42.87708" lon="1.24524">
        <ele>811.2</ele>
        <time>2024-05-12T10:07:58Z</time>
      </trkpt>
      <trkpt lat="42.87712" lon="1.2452">
        <ele>810.2</ele>
        <time>2024-05-12T10:07:59Z</time>
      </trkpt>
      <trkpt lat="42.87717" lon="1.24516">
        <ele>809</ele>
        <time>2024-05-12T10:08:00Z</time>
      </trkpt>
      <trkpt lat="42.87724" lon="1.24511">
        <ele>808</ele>
        <time>2024-05-12T10:08:01Z</time>
      </trkpt>
      <trkpt lat="42.87731" lon="1.24506">
        <ele>807</ele>
        <time>2024-05-12T10:08:02Z</time>
      </trkpt>
      <trkpt lat="42.87737" lon="1.24502">
        <ele>806</ele>
        <time>2024-05-12T10:08:03Z</time>
      </trkpt>
      <trkpt lat="42.87743" lon="1.24497">
        <ele>804.8</ele>
        <time>2024-05-12T10:08:04Z</time>
      </trkpt>
      <trkpt lat="42.87748" lon="1.24492">
        <ele>802.6</ele>
        <time>2024-05-12T10:08:05Z</time>
      </trkpt>
      <trkpt lat="42.87753" lon="1.24487">
        <ele>801.4</ele>
        <time>2024-05-12T10:08:06Z</time>
      </trkpt>
      <trkpt lat="42.87757" lon="1.24481">
        <ele>800.2</ele>
        <time>2024-05-12T10:08:07Z</time>
      </trkpt>
      <trkpt lat="42.87761" lon="1.24475">
        <ele>799.2</ele>
        <time>2024-05-12T10:08:08Z</time>
      </trkpt>
      <trkpt lat="42.87764" lon="1.24468">
        <ele>798</ele>
        <time>2024-05-12T10:08:09Z</time>
      </trkpt>
      <trkpt lat="42.87768" lon="1.24461">
        <ele>796.8</ele>
        <time>2024-05-12T10:08:10Z</time>
      </trkpt>
      <trkpt lat="42.87773" lon="1.24454">
        <ele>795.8</ele>
        <time>2024-05-12T10:08:11Z</time>
      </trkpt>
      <trkpt lat="42.87778" lon="1.24448">
        <ele>794.6</ele>
        <time>2024-05-12T10:08:12Z</time>
      </trkpt>
      <trkpt lat="42.87783" lon="1.24442">
        <ele>793.4</ele>
        <time>2024-05-12T10:08:13Z</time>
      </trkpt>
      <trkpt lat="42.87789" lon="1.24436">
        <ele>792.4</ele>
        <time>2024-05-12T10:08:14Z</time>
      </trkpt>
      <trkpt lat="42.87792" lon="1.2443">
        <ele>791.4</ele>
        <time>2024-05-12T10:08:15Z</time>
      </trkpt>
      <trkpt lat="42.87795" lon="1.24422">
        <ele>790.2</ele>
        <time>2024-05-12T10:08:16Z</time>
      </trkpt>
      <trkpt lat="42.87799" lon="1.24415">
        <ele>789.2</ele>
        <time>2024-05-12T10:08:17Z</time>
      </trkpt>
      <trkpt lat="42.87803" lon="1.24407">
        <ele>788.2</ele>
        <time>2024-05-12T10:08:18Z</time>
      </trkpt>
      <trkpt lat="42.87808" lon="1.24399">
        <ele>787</ele>
        <time>2024-05-12T10:08:19Z</time>
      </trkpt>
      <trkpt lat="42.87813" lon="1.24392">
        <ele>786.4</ele>
        <time>2024-05-12T10:08:20Z</time>
      </trkpt>
      <trkpt lat="42.87819" lon="1.24384">
        <ele>785.6</ele>
        <time>2024-05-12T10:08:21Z</time>
      </trkpt>
      <trkpt lat="42.87823" lon="1.24376">
        <ele>785</ele>
        <time>2024-05-12T10:08:22Z</time>
      </trkpt>
      <trkpt lat="42.87827" lon="1.24368">
        <ele>784.2</ele>
        <time>2024-05-12T10:08:23Z</time>
      </trkpt>
      <trkpt lat="42.8783" lon="1.2436">
        <ele>783.6</ele>
        <time>2024-05-12T10:08:24Z</time>
      </trkpt>
      <trkpt lat="42.87833" lon="1.24354">
        <ele>783</ele>
        <time>2024-05-12T10:08:25Z</time>
      </trkpt>
      <trkpt lat="42.87836" lon="1.24348">
        <ele>782.4</ele>
        <time>2024-05-12T10:08:26Z</time>
      </trkpt>
      <trkpt lat="42.87838" lon="1.24343">
        <ele>781.8</ele>
        <time>2024-05-12T10:08:27Z</time>
      </trkpt>
      <trkpt lat="42.87841" lon="1.24338">
        <ele>781.2</ele>
        <time>2024-05-12T10:08:28Z</time>
      </trkpt>
      <trkpt lat="42.87845" lon="1.24332">
        <ele>780.6</ele>
        <time>2024-05-12T10:08:29Z</time>
      </trkpt>
      <trkpt lat="42.87848" lon="1.24327">
        <ele>779.8</ele>
        <time>2024-05-12T10:08:30Z</time>
      </trkpt>
      <trkpt lat="42.87852" lon="1.24321">
        <ele>779</ele>
        <time>2024-05-12T10:08:31Z</time>
      </trkpt>
      <trkpt lat="42.87855" lon="1.24316">
        <ele>778.4</ele>
        <time>2024-05-12T10:08:32Z</time>
      </trkpt>
      <trkpt lat="42.87857" lon="1.24312">
        <ele>777.8</ele>
        <time>2024-05-12T10:08:33Z</time>
      </trkpt>
      <trkpt lat="42.87858" lon="1.24309">
        <ele>777</ele>
        <time>2024-05-12T10:08:34Z</time>
      </trkpt>
      <trkpt lat="42.87859" lon="1.24306">
        <ele>776.2</ele>
        <time>2024-05-12T10:08:35Z</time>
      </trkpt>
      <trkpt lat="42.87861" lon="1.24303">
        <ele>775.4</ele>
        <time>2024-05-12T10:08:36Z</time>
      </trkpt>
      <trkpt lat="42.87862" lon="1.24299">
        <ele>774.8</ele>
        <time>2024-05-12T10:08:37Z</time>
      </trkpt>
      <trkpt lat="42.87865" lon="1.24295">
        <ele>774</ele>
        <time>2024-05-12T10:08:38Z</time>
      </trkpt>
      <trkpt lat="42.87867" lon="1.24291">
        <ele>773.4</ele>
        <time>2024-05-12T10:08:39Z</time>
      </trkpt>
      <trkpt lat="42.87869" lon="1.24287">
        <ele>772.8</ele>
        <time>2024-05-12T10:08:40Z</time>
      </trkpt>
      <trkpt lat="42.87872" lon="1.24283">
        <ele>772</ele>
        <time>2024-05-12T10:08:41Z</time>
      </trkpt>
      <trkpt lat="42.87877" lon="1.24278">
        <ele>771.2</ele>
        <time>2024-05-12T10:08:42Z</time>
      </trkpt>
      <trkpt lat="42.87882" lon="1.24273">
        <ele>770.4</ele>
        <time>2024-05-12T10:08:43Z</time>
      </trkpt>
      <trkpt lat="42.87887" lon="1.24269">
        <ele>769.4</ele>
        <time>2024-05-12T10:08:44Z</time>
      </trkpt>
      <trkpt lat="42.87891" lon="1.24264">
        <ele>768.4</ele>
        <time>2024-05-12T10:08:45Z</time>
      </trkpt>
      <trkpt lat="42.87895" lon="1.24258">
        <ele>767.4</ele>
        <time>2024-05-12T10:08:46Z</time>
      </trkpt>
      <trkpt lat="42.87899" lon="1.24251">
        <ele>766.4</ele>
        <time>2024-05-12T10:08:47Z</time>
      </trkpt>
      <trkpt lat="42.87904" lon="1.24243">
        <ele>765.2</ele>
        <time>2024-05-12T10:08:48Z</time>
      </trkpt>
      <trkpt lat="42.87908" lon="1.24237">
        <ele>764</ele>
        <time>2024-05-12T10:08:49Z</time>
      </trkpt>
      <trkpt lat="42.87913" lon="1.24231">
        <ele>763</ele>
        <time>2024-05-12T10:08:50Z</time>
      </trkpt>
      <trkpt lat="42.87919" lon="1.24225">
        <ele>762.2</ele>
        <time>2024-05-12T10:08:51Z</time>
      </trkpt>
      <trkpt lat="42.87924" lon="1.2422">
        <ele>761.2</ele>
        <time>2024-05-12T10:08:52Z</time>
      </trkpt>
      <trkpt lat="42.87929" lon="1.24215">
        <ele>760.4</ele>
        <time>2024-05-12T10:08:53Z</time>
      </trkpt>
      <trkpt lat="42.87935" lon="1.24211">
        <ele>758.6</ele>
        <time>2024-05-12T10:08:54Z</time>
      </trkpt>
      <trkpt lat="42.87941" lon="1.24207">
        <ele>757.8</ele>
        <time>2024-05-12T10:08:55Z</time>
      </trkpt>
      <trkpt lat="42.87947" lon="1.24202">
        <ele>756.8</ele>
        <time>2024-05-12T10:08:56Z</time>
      </trkpt>
      <trkpt lat="42.87964" lon="1.24184">
        <ele>756.8</ele>
        <time>2024-05-12T10:09:00Z</time>
      </trkpt>
      <trkpt lat="42.87968" lon="1.2418">
        <ele>756.8</ele>
        <time>2024-05-12T10:09:01Z</time>
      </trkpt>
      <trkpt lat="42.87981" lon="1.2417">
        <ele>756.8</ele>
        <time>2024-05-12T10:09:04Z</time>
      </trkpt>
      <trkpt lat="42.87989" lon="1.24167">
        <ele>756.8</ele>
        <time>2024-05-12T10:09:06Z</time>
      </trkpt>
      <trkpt lat="42.87994" lon="1.24165">
        <ele>756.8</ele>
        <time>2024-05-12T10:09:07Z</time>
      </trkpt>
      <trkpt lat="42.88004" lon="1.24159">
        <ele>756.8</ele>
        <time>2024-05-12T10:09:09Z</time>
      </trkpt>
      <trkpt lat="42.88018" lon="1.2414">
        <ele>756.4</ele>
        <time>2024-05-12T10:09:12Z</time>
      </trkpt>
      <trkpt lat="42.8802" lon="1.24133">
        <ele>755.8</ele>
        <time>2024-05-12T10:09:13Z</time>
      </trkpt>
      <trkpt lat="42.88022" lon="1.24127">
        <ele>755</ele>
        <time>2024-05-12T10:09:14Z</time>
      </trkpt>
      <trkpt lat="42.88024" lon="1.2412">
        <ele>754.2</ele>
        <time>2024-05-12T10:09:15Z</time>
      </trkpt>
      <trkpt lat="42.88027" lon="1.24113">
        <ele>753.2</ele>
        <time>2024-05-12T10:09:16Z</time>
      </trkpt>
      <trkpt lat="42.88029" lon="1.24106">
        <ele>752</ele>
        <time>2024-05-12T10:09:17Z</time>
      </trkpt>
      <trkpt lat="42.88033" lon="1.241">
        <ele>750.8</ele>
        <time>2024-05-12T10:09:18Z</time>
      </trkpt>
      <trkpt lat="42.88036" lon="1.24095">
        <ele>748.4</ele>
        <time>2024-05-12T10:09:19Z</time>
      </trkpt>
      <trkpt lat="42.88039" lon="1.24089">
        <ele>747.2</ele>
        <time>2024-05-12T10:09:20Z</time>
      </trkpt>
      <trkpt lat="42.88043" lon="1.24082">
        <ele>746</ele>
        <time>2024-05-12T10:09:21Z</time>
      </trkpt>
      <trkpt lat="42.88048" lon="1.24075">
        <ele>744.8</ele>
        <time>2024-05-12T10:09:22Z</time>
      </trkpt>
      <trkpt lat="42.88053" lon="1.24067">
        <ele>743.8</ele>
        <time>2024-05-12T10:09:23Z</time>
      </trkpt>
      <trkpt lat="42.88059" lon="1.24058">
        <ele>742.6</ele>
        <time>2024-05-12T10:09:24Z</time>
      </trkpt>
      <trkpt lat="42.88067" lon="1.24051">
        <ele>741.6</ele>
        <time>2024-05-12T10:09:25Z</time>
      </trkpt>
      <trkpt lat="42.88074" lon="1.24043">
        <ele>740.8</ele>
        <time>2024-05-12T10:09:26Z</time>
      </trkpt>
      <trkpt lat="42.88081" lon="1.24034">
        <ele>739.8</ele>
        <time>2024-05-12T10:09:27Z</time>
      </trkpt>
      <trkpt lat="42.88089" lon="1.24026">
        <ele>738.8</ele>
        <time>2024-05-12T10:09:28Z</time>
      </trkpt>
      <trkpt lat="42.88096" lon="1.24018">
        <ele>737.8</ele>
        <time>2024-05-12T10:09:29Z</time>
      </trkpt>
      <trkpt lat="42.88103" lon="1.24011">
        <ele>736.8</ele>
        <time>2024-05-12T10:09:30Z</time>
      </trkpt>
      <trkpt lat="42.88111" lon="1.24004">
        <ele>736</ele>
        <time>2024-05-12T10:09:31Z</time>
      </trkpt>
      <trkpt lat="42.88119" lon="1.23998">
        <ele>735</ele>
        <time>2024-05-12T10:09:32Z</time>
      </trkpt>
      <trkpt lat="42.88127" lon="1.23992">
        <ele>734.2</ele>
        <time>2024-05-12T10:09:33Z</time>
      </trkpt>
      <trkpt lat="42.88134" lon="1.23986">
        <ele>733.2</ele>
        <time>2024-05-12T10:09:34Z</time>
      </trkpt>
      <trkpt lat="42.88142" lon="1.23979">
        <ele>732.6</ele>
        <time>2024-05-12T10:09:35Z</time>
      </trkpt>
      <trkpt lat="42.88149" lon="1.23973">
        <ele>731.8</ele>
        <time>2024-05-12T10:09:36Z</time>
      </trkpt>
      <trkpt lat="42.88155" lon="1.23965">
        <ele>731.2</ele>
        <time>2024-05-12T10:09:37Z</time>
      </trkpt>
      <trkpt lat="42.8816" lon="1.23957">
        <ele>730.4</ele>
        <time>2024-05-12T10:09:38Z</time>
      </trkpt>
      <trkpt lat="42.88163" lon="1.23954">
        <ele>729.6</ele>
        <time>2024-05-12T10:09:39Z</time>
      </trkpt>
      <trkpt lat="42.88165" lon="1.23951">
        <ele>728.8</ele>
        <time>2024-05-12T10:09:40Z</time>
      </trkpt>
      <trkpt lat="42.88167" lon="1.23948">
        <ele>728</ele>
        <time>2024-05-12T10:09:41Z</time>
      </trkpt>
      <trkpt lat="42.88168" lon="1.23946">
        <ele>727.2</ele>
        <time>2024-05-12T10:09:42Z</time>
      </trkpt>
      <trkpt lat="42.88172" lon="1.2394">
        <ele>727.2</ele>
        <time>2024-05-12T10:09:44Z</time>
      </trkpt>
      <trkpt lat="42.88183" lon="1.23922">
        <ele>727.2</ele>
        <time>2024-05-12T10:09:48Z</time>
      </trkpt>
      <trkpt lat="42.88198" lon="1.23902">
        <ele>727.2</ele>
        <time>2024-05-12T10:09:53Z</time>
      </trkpt>
      <trkpt lat="42.88217" lon="1.23881">
        <ele>727.2</ele>
        <time>2024-05-12T10:09:57Z</time>
      </trkpt>
      <trkpt lat="42.88241" lon="1.23861">
        <ele>727.2</ele>
        <time>2024-05-12T10:10:02Z</time>
      </trkpt>
      <trkpt lat="42.88266" lon="1.23844">
        <ele>727.2</ele>
        <time>2024-05-12T10:10:07Z</time>
      </trkpt>
      <trkpt lat="42.88275" lon="1.23836">
        <ele>727.2</ele>
        <time>2024-05-12T10:10:09Z</time>
      </trkpt>
      <trkpt lat="42.8829" lon="1.23821">
        <ele>726.6</ele>
        <time>2024-05-12T10:10:12Z</time>
      </trkpt>
      <trkpt lat="42.88296" lon="1.23817">
        <ele>726.2</ele>
        <time>2024-05-12T10:10:13Z</time>
      </trkpt>
      <trkpt lat="42.88302" lon="1.23814">
        <ele>725.6</ele>
        <time>2024-05-12T10:10:14Z</time>
      </trkpt>
      <trkpt lat="42.88309" lon="1.23812">
        <ele>725</ele>
        <time>2024-05-12T10:10:15Z</time>
      </trkpt>
      <trkpt lat="42.88315" lon="1.23809">
        <ele>724.4</ele>
        <time>2024-05-12T10:10:16Z</time>
      </trkpt>
      <trkpt lat="42.88322" lon="1.23806">
        <ele>723.8</ele>
        <time>2024-05-12T10:10:17Z</time>
      </trkpt>
      <trkpt lat="42.88329" lon="1.23805">
        <ele>723.2</ele>
        <time>2024-05-12T10:10:18Z</time>
      </trkpt>
      <trkpt lat="42.88335" lon="1.23805">
        <ele>722.4</ele>
        <time>2024-05-12T10:10:19Z</time>
      </trkpt>
      <trkpt lat="42.88341" lon="1.23808">
        <ele>721.4</ele>
        <time>2024-05-12T10:10:20Z</time>
      </trkpt>
      <trkpt lat="42.88346" lon="1.2381">
        <ele>720.6</ele>
        <time>2024-05-12T10:10:21Z</time>
      </trkpt>
      <trkpt lat="42.88352" lon="1.23812">
        <ele>719.6</ele>
        <time>2024-05-12T10:10:22Z</time>
      </trkpt>
      <trkpt lat="42.88359" lon="1.23813">
        <ele>718.6</ele>
        <time>2024-05-12T10:10:23Z</time>
      </trkpt>
      <trkpt lat="42.88365" lon="1.23813">
        <ele>717.8</ele>
        <time>2024-05-12T10:10:24Z</time>
      </trkpt>
      <trkpt lat="42.88371" lon="1.23813">
        <ele>716.8</ele>
        <time>2024-05-12T10:10:25Z</time>
      </trkpt>
      <trkpt lat="42.88378" lon="1.23814">
        <ele>715.8</ele>
        <time>2024-05-12T10:10:26Z</time>
      </trkpt>
      <trkpt lat="42.88386" lon="1.23815">
        <ele>714.8</ele>
        <time>2024-05-12T10:10:27Z</time>
      </trkpt>
      <trkpt lat="42.88394" lon="1.23816">
        <ele>713.6</ele>
        <time>2024-05-12T10:10:28Z</time>
      </trkpt>
      <trkpt lat="42.88401" lon="1.23818">
        <ele>712.6</ele>
        <time>2024-05-12T10:10:29Z</time>
      </trkpt>
      <trkpt lat="42.88407" lon="1.23819">
        <ele>711.4</ele>
        <time>2024-05-12T10:10:30Z</time>
      </trkpt>
      <trkpt lat="42.88413" lon="1.23821">
        <ele>710.4</ele>
        <time>2024-05-12T10:10:31Z</time>
      </trkpt>
      <trkpt lat="42.88419" lon="1.23823">
        <ele>709.2</ele>
        <time>2024-05-12T10:10:32Z</time>
      </trkpt>
      <trkpt lat="42.88423" lon="1.23824">
        <ele>708.2</ele>
        <time>2024-05-12T10:10:33Z</time>
      </trkpt>
      <trkpt lat="42.88427" lon="1.23825">
        <ele>705.8</ele>
        <time>2024-05-12T10:10:34Z</time>
      </trkpt>
      <trkpt lat="42.8843" lon="1.23825">
        <ele>704.8</ele>
        <time>2024-05-12T10:10:35Z</time>
      </trkpt>
      <trkpt lat="42.88434" lon="1.23826">
        <ele>703.8</ele>
        <time>2024-05-12T10:10:36Z</time>
      </trkpt>
      <trkpt lat="42.88438" lon="1.23828">
        <ele>702.8</ele>
        <time>2024-05-12T10:10:37Z</time>
      </trkpt>
      <trkpt lat="42.88443" lon="1.23831">
        <ele>701.8</ele>
        <time>2024-05-12T10:10:38Z</time>
      </trkpt>
      <trkpt lat="42.88448" lon="1.23834">
        <ele>701.2</ele>
        <time>2024-05-12T10:10:39Z</time>
      </trkpt>
      <trkpt lat="42.88453" lon="1.23836">
        <ele>700.6</ele>
        <time>2024-05-12T10:10:40Z</time>
      </trkpt>
      <trkpt lat="42.88459" lon="1.23838">
        <ele>699.8</ele>
        <time>2024-05-12T10:10:41Z</time>
      </trkpt>
      <trkpt lat="42.88466" lon="1.2384">
        <ele>699.2</ele>
        <time>2024-05-12T10:10:42Z</time>
      </trkpt>
      <trkpt lat="42.88472" lon="1.23841">
        <ele>698.6</ele>
        <time>2024-05-12T10:10:43Z</time>
      </trkpt>
      <trkpt lat="42.88479" lon="1.23842">
        <ele>698</ele>
        <time>2024-05-12T10:10:44Z</time>
      </trkpt>
      <trkpt lat="42.88484" lon="1.23843">
        <ele>697.4</ele>
        <time>2024-05-12T10:10:45Z</time>
      </trkpt>
      <trkpt lat="42.8849" lon="1.23845">
        <ele>696.6</ele>
        <time>2024-05-12T10:10:46Z</time>
      </trkpt>
      <trkpt lat="42.88496" lon="1.23847">
        <ele>696</ele>
        <time>2024-05-12T10:10:47Z</time>
      </trkpt>
      <trkpt lat="42.88502" lon="1.23849">
        <ele>695.2</ele>
        <time>2024-05-12T10:10:48Z</time>
      </trkpt>
      <trkpt lat="42.88507" lon="1.23848">
        <ele>694.4</ele>
        <time>2024-05-12T10:10:49Z</time>
      </trkpt>
      <trkpt lat="42.88513" lon="1.23846">
        <ele>693.8</ele>
        <time>2024-05-12T10:10:50Z</time>
      </trkpt>
      <trkpt lat="42.88517" lon="1.23844">
        <ele>693.2</ele>
        <time>2024-05-12T10:10:51Z</time>
      </trkpt>
      <trkpt lat="42.88522" lon="1.23841">
        <ele>692.8</ele>
        <time>2024-05-12T10:10:52Z</time>
      </trkpt>
      <trkpt lat="42.88526" lon="1.23838">
        <ele>692.2</ele>
        <time>2024-05-12T10:10:53Z</time>
      </trkpt>
      <trkpt lat="42.8853" lon="1.23835">
        <ele>691.6</ele>
        <time>2024-05-12T10:10:54Z</time>
      </trkpt>
      <trkpt lat="42.88534" lon="1.23833">
        <ele>690.8</ele>
        <time>2024-05-12T10:10:55Z</time>
      </trkpt>
      <trkpt lat="42.88537" lon="1.2383">
        <ele>690.2</ele>
        <time>2024-05-12T10:10:56Z</time>
      </trkpt>
      <trkpt lat="42.8854" lon="1.23827">
        <ele>689.6</ele>
        <time>2024-05-12T10:10:57Z</time>
      </trkpt>
      <trkpt lat="42.88542" lon="1.23825">
        <ele>688.2</ele>
        <time>2024-05-12T10:10:58Z</time>
      </trkpt>
      <trkpt lat="42.88545" lon="1.23821">
        <ele>687.4</ele>
        <time>2024-05-12T10:10:59Z</time>
      </trkpt>
      <trkpt lat="42.88549" lon="1.23817">
        <ele>686.6</ele>
        <time>2024-05-12T10:11:00Z</time>
      </trkpt>
      <trkpt lat="42.88552" lon="1.23812">
        <ele>686</ele>
        <time>2024-05-12T10:11:01Z</time>
      </trkpt>
      <trkpt lat="42.88555" lon="1.23808">
        <ele>685.2</ele>
        <time>2024-05-12T10:11:02Z</time>
      </trkpt>
      <trkpt lat="42.88558" lon="1.23803">
        <ele>684.4</ele>
        <time>2024-05-12T10:11:03Z</time>
      </trkpt>
      <trkpt lat="42.88562" lon="1.23798">
        <ele>683.8</ele>
        <time>2024-05-12T10:11:04Z</time>
      </trkpt>
      <trkpt lat="42.88565" lon="1.23792">
        <ele>683</ele>
        <time>2024-05-12T10:11:05Z</time>
      </trkpt>
      <trkpt lat="42.88569" lon="1.23785">
        <ele>682.2</ele>
        <time>2024-05-12T10:11:06Z</time>
      </trkpt>
      <trkpt lat="42.88571" lon="1.2378">
        <ele>682.2</ele>
        <time>2024-05-12T10:11:07Z</time>
      </trkpt>
      <trkpt lat="42.88577" lon="1.23759">
        <ele>682.2</ele>
        <time>2024-05-12T10:11:11Z</time>
      </trkpt>
      <trkpt lat="42.88579" lon="1.23752">
        <ele>682.2</ele>
        <time>2024-05-12T10:11:12Z</time>
      </trkpt>
      <trkpt lat="42.88581" lon="1.23745">
        <ele>682.2</ele>
        <time>2024-05-12T10:11:13Z</time>
      </trkpt>
      <trkpt lat="42.88589" lon="1.23728">
        <ele>682.2</ele>
        <time>2024-05-12T10:11:16Z</time>
      </trkpt>
      <trkpt lat="42.88596" lon="1.23712">
        <ele>682.8</ele>
        <time>2024-05-12T10:11:20Z</time>
      </trkpt>
      <trkpt lat="42.88598" lon="1.23708">
        <ele>683.2</ele>
        <time>2024-05-12T10:11:21Z</time>
      </trkpt>
      <trkpt lat="42.886" lon="1.23705">
        <ele>683.8</ele>
        <time>2024-05-12T10:11:22Z</time>
      </trkpt>
      <trkpt lat="42.88601" lon="1.23702">
        <ele>684.8</ele>
        <time>2024-05-12T10:11:23Z</time>
      </trkpt>
      <trkpt lat="42.88603" lon="1.23698">
        <ele>685.4</ele>
        <time>2024-05-12T10:11:24Z</time>
      </trkpt>
      <trkpt lat="42.88604" lon="1.23694">
        <ele>686</ele>
        <time>2024-05-12T10:11:25Z</time>
      </trkpt>
      <trkpt lat="42.88605" lon="1.23691">
        <ele>686.4</ele>
        <time>2024-05-12T10:11:26Z</time>
      </trkpt>
      <trkpt lat="42.88607" lon="1.23687">
        <ele>687</ele>
        <time>2024-05-12T10:11:27Z</time>
      </trkpt>
      <trkpt lat="42.88609" lon="1.23683">
        <ele>687.4</ele>
        <time>2024-05-12T10:11:28Z</time>
      </trkpt>
      <trkpt lat="42.88611" lon="1.23678">
        <ele>688</ele>
        <time>2024-05-12T10:11:29Z</time>
      </trkpt>
      <trkpt lat="42.88613" lon="1.23674">
        <ele>688.4</ele>
        <time>2024-05-12T10:11:30Z</time>
      </trkpt>
      <trkpt lat="42.88614" lon="1.2367">
        <ele>688.8</ele>
        <time>2024-05-12T10:11:31Z</time>
      </trkpt>
      <trkpt lat="42.88616" lon="1.23666">
        <ele>689.2</ele>
        <time>2024-05-12T10:11:32Z</time>
      </trkpt>
      <trkpt lat="42.88618" lon="1.23663">
        <ele>689.8</ele>
        <time>2024-05-12T10:11:33Z</time>
      </trkpt>
      <trkpt lat="42.8862" lon="1.23659">
        <ele>690.2</ele>
        <time>2024-05-12T10:11:34Z</time>
      </trkpt>
      <trkpt lat="42.88622" lon="1.23656">
        <ele>690.8</ele>
        <time>2024-05-12T10:11:35Z</time>
      </trkpt>
      <trkpt lat="42.88624" lon="1.23653">
        <ele>691.2</ele>
        <time>2024-05-12T10:11:36Z</time>
      </trkpt>
      <trkpt lat="42.88626" lon="1.2365">
        <ele>691.2</ele>
        <time>2024-05-12T10:11:37Z</time>
      </trkpt>
      <trkpt lat="42.8863" lon="1.23644">
        <ele>691.6</ele>
        <time>2024-05-12T10:11:39Z</time>
      </trkpt>
      <trkpt lat="42.88633" lon="1.23641">
        <ele>692</ele>
        <time>2024-05-12T10:11:40Z</time>
      </trkpt>
      <trkpt lat="42.88635" lon="1.23637">
        <ele>692.6</ele>
        <time>2024-05-12T10:11:41Z</time>
      </trkpt>
      <trkpt lat="42.88637" lon="1.23635">
        <ele>693</ele>
        <time>2024-05-12T10:11:42Z</time>
      </trkpt>
      <trkpt lat="42.8864" lon="1.23633">
        <ele>693.4</ele>
        <time>2024-05-12T10:11:43Z</time>
      </trkpt>
      <trkpt lat="42.88649" lon="1.23615">
        <ele>694.2</ele>
        <time>2024-05-12T10:11:48Z</time>
      </trkpt>
      <trkpt lat="42.88651" lon="1.23612">
        <ele>694.6</ele>
        <time>2024-05-12T10:11:49Z</time>
      </trkpt>
      <trkpt lat="42.88653" lon="1.23608">
        <ele>695.2</ele>
        <time>2024-05-12T10:11:50Z</time>
      </trkpt>
      <trkpt lat="42.88655" lon="1.23605">
        <ele>695.6</ele>
        <time>2024-05-12T10:11:51Z</time>
      </trkpt>
      <trkpt lat="42.88662" lon="1.23596">
        <ele>695.6</ele>
        <time>2024-05-12T10:11:54Z</time>
      </trkpt>
      <trkpt lat="42.88674" lon="1.23578">
        <ele>695.6</ele>
        <time>2024-05-12T10:12:00Z</time>
      </trkpt>
      <trkpt lat="42.88676" lon="1.23576">
        <ele>696</ele>
        <time>2024-05-12T10:12:01Z</time>
      </trkpt>
      <trkpt lat="42.88678" lon="1.23573">
        <ele>696.4</ele>
        <time>2024-05-12T10:12:02Z</time>
      </trkpt>
      <trkpt lat="42.88681" lon="1.23571">
        <ele>696.8</ele>
        <time>2024-05-12T10:12:03Z</time>
      </trkpt>
      <trkpt lat="42.88683" lon="1.23569">
        <ele>697.2</ele>
        <time>2024-05-12T10:12:04Z</time>
      </trkpt>
      <trkpt lat="42.88685" lon="1.23567">
        <ele>697.6</ele>
        <time>2024-05-12T10:12:05Z</time>
      </trkpt>
      <trkpt lat="42.88691" lon="1.23561">
        <ele>698</ele>
        <time>2024-05-12T10:12:08Z</time>
      </trkpt>
      <trkpt lat="42.88693" lon="1.23558">
        <ele>698.6</ele>
        <time>2024-05-12T10:12:09Z</time>
      </trkpt>
      <trkpt lat="42.88695" lon="1.23556">
        <ele>699</ele>
        <time>2024-05-12T10:12:10Z</time>
      </trkpt>
      <trkpt lat="42.88697" lon="1.23554">
        <ele>699.4</ele>
        <time>2024-05-12T10:12:11Z</time>
      </trkpt>
      <trkpt lat="42.887" lon="1.23551">
        <ele>699.8</ele>
        <time>2024-05-12T10:12:12Z</time>
      </trkpt>
      <trkpt lat="42.88709" lon="1.23535">
        <ele>699.8</ele>
        <time>2024-05-12T10:12:17Z</time>
      </trkpt>
      <trkpt lat="42.88718" lon="1.23518">
        <ele>700.2</ele>
        <time>2024-05-12T10:12:22Z</time>
      </trkpt>
      <trkpt lat="42.8872" lon="1.23515">
        <ele>700.6</ele>
        <time>2024-05-12T10:12:23Z</time>
      </trkpt>
      <trkpt lat="42.88722" lon="1.23512">
        <ele>701.2</ele>
        <time>2024-05-12T10:12:24Z</time>
      </trkpt>
      <trkpt lat="42.88723" lon="1.23509">
        <ele>701.6</ele>
        <time>2024-05-12T10:12:25Z</time>
      </trkpt>
      <trkpt lat="42.88725" lon="1.23506">
        <ele>702</ele>
        <time>2024-05-12T10:12:26Z</time>
      </trkpt>
      <trkpt lat="42.88726" lon="1.235">
        <ele>702</ele>
        <time>2024-05-12T10:12:28Z</time>
      </trkpt>
      <trkpt lat="42.88727" lon="1.23489">
        <ele>702.4</ele>
        <time>2024-05-12T10:12:31Z</time>
      </trkpt>
      <trkpt lat="42.88727" lon="1.23484">
        <ele>702.8</ele>
        <time>2024-05-12T10:12:32Z</time>
      </trkpt>
      <trkpt lat="42.88728" lon="1.2348">
        <ele>703.2</ele>
        <time>2024-05-12T10:12:33Z</time>
      </trkpt>
      <trkpt lat="42.88728" lon="1.23476">
        <ele>703.8</ele>
        <time>2024-05-12T10:12:34Z</time>
      </trkpt>
      <trkpt lat="42.8873" lon="1.23471">
        <ele>704.2</ele>
        <time>2024-05-12T10:12:35Z</time>
      </trkpt>
      <trkpt lat="42.88734" lon="1.2346">
        <ele>705</ele>
        <time>2024-05-12T10:12:38Z</time>
      </trkpt>
      <trkpt lat="42.88734" lon="1.23457">
        <ele>705.4</ele>
        <time>2024-05-12T10:12:39Z</time>
      </trkpt>
      <trkpt lat="42.88736" lon="1.23454">
        <ele>705.8</ele>
        <time>2024-05-12T10:12:40Z</time>
      </trkpt>
      <trkpt lat="42.88738" lon="1.23451">
        <ele>706.2</ele>
        <time>2024-05-12T10:12:41Z</time>
      </trkpt>
      <trkpt lat="42.88742" lon="1.23448">
        <ele>706.2</ele>
        <time>2024-05-12T10:12:43Z</time>
      </trkpt>
      <trkpt lat="42.88747" lon="1.23444">
        <ele>706.2</ele>
        <time>2024-05-12T10:12:47Z</time>
      </trkpt>
      <trkpt lat="42.88749" lon="1.23443">
        <ele>706.2</ele>
        <time>2024-05-12T10:12:49Z</time>
      </trkpt>
      <trkpt lat="42.88751" lon="1.2344">
        <ele>706.2</ele>
        <time>2024-05-12T10:12:52Z</time>
      </trkpt>
      <trkpt lat="42.88752" lon="1.23438">
        <ele>706.2</ele>
        <time>2024-05-12T10:13:31Z</time>
      </trkpt>
      <trkpt lat="42.88752" lon="1.23435">
        <ele>706.2</ele>
        <time>2024-05-12T10:13:32Z</time>
      </trkpt>
      <trkpt lat="42.88754" lon="1.2342">
        <ele>706.2</ele>
        <time>2024-05-12T10:13:36Z</time>
      </trkpt>
      <trkpt lat="42.88755" lon="1.23412">
        <ele>706.6</ele>
        <time>2024-05-12T10:13:38Z</time>
      </trkpt>
      <trkpt lat="42.88756" lon="1.23408">
        <ele>707</ele>
        <time>2024-05-12T10:13:39Z</time>
      </trkpt>
      <trkpt lat="42.88757" lon="1.23404">
        <ele>707.4</ele>
        <time>2024-05-12T10:13:40Z</time>
      </trkpt>
      <trkpt lat="42.88758" lon="1.23401">
        <ele>707.8</ele>
        <time>2024-05-12T10:13:41Z</time>
      </trkpt>
      <trkpt lat="42.8876" lon="1.23398">
        <ele>708.2</ele>
        <time>2024-05-12T10:13:42Z</time>
      </trkpt>
      <trkpt lat="42.88762" lon="1.23391">
        <ele>708.6</ele>
        <time>2024-05-12T10:13:44Z</time>
      </trkpt>
      <trkpt lat="42.88764" lon="1.23388">
        <ele>709</ele>
        <time>2024-05-12T10:13:45Z</time>
      </trkpt>
      <trkpt lat="42.88765" lon="1.23384">
        <ele>709.4</ele>
        <time>2024-05-12T10:13:46Z</time>
      </trkpt>
      <trkpt lat="42.88767" lon="1.23381">
        <ele>709.8</ele>
        <time>2024-05-12T10:13:47Z</time>
      </trkpt>
      <trkpt lat="42.88769" lon="1.23378">
        <ele>710.2</ele>
        <time>2024-05-12T10:13:48Z</time>
      </trkpt>
      <trkpt lat="42.88772" lon="1.23373">
        <ele>710.6</ele>
        <time>2024-05-12T10:13:50Z</time>
      </trkpt>
      <trkpt lat="42.88773" lon="1.2337">
        <ele>711.2</ele>
        <time>2024-05-12T10:13:51Z</time>
      </trkpt>
      <trkpt lat="42.88775" lon="1.23367">
        <ele>712.2</ele>
        <time>2024-05-12T10:13:52Z</time>
      </trkpt>
      <trkpt lat="42.88776" lon="1.23364">
        <ele>712.6</ele>
        <time>2024-05-12T10:13:53Z</time>
      </trkpt>
      <trkpt lat="42.88778" lon="1.23361">
        <ele>713.2</ele>
        <time>2024-05-12T10:13:54Z</time>
      </trkpt>
      <trkpt lat="42.8878" lon="1.23357">
        <ele>713.6</ele>
        <time>2024-05-12T10:13:55Z</time>
      </trkpt>
      <trkpt lat="42.88782" lon="1.23354">
        <ele>714</ele>
        <time>2024-05-12T10:13:56Z</time>
      </trkpt>
      <trkpt lat="42.88785" lon="1.23351">
        <ele>714.6</ele>
        <time>2024-05-12T10:13:57Z</time>
      </trkpt>
      <trkpt lat="42.88787" lon="1.23347">
        <ele>715</ele>
        <time>2024-05-12T10:13:58Z</time>
      </trkpt>
      <trkpt lat="42.88788" lon="1.23344">
        <ele>715.6</ele>
        <time>2024-05-12T10:13:59Z</time>
      </trkpt>
      <trkpt lat="42.88789" lon="1.23341">
        <ele>716.2</ele>
        <time>2024-05-12T10:14:00Z</time>
      </trkpt>
      <trkpt lat="42.88791" lon="1.23339">
        <ele>716.6</ele>
        <time>2024-05-12T10:14:01Z</time>
      </trkpt>
      <trkpt lat="42.88792" lon="1.23337">
        <ele>717.2</ele>
        <time>2024-05-12T10:14:02Z</time>
      </trkpt>
      <trkpt lat="42.88794" lon="1.23334">
        <ele>717.6</ele>
        <time>2024-05-12T10:14:03Z</time>
      </trkpt>
      <trkpt lat="42.88796" lon="1.23331">
        <ele>718</ele>
        <time>2024-05-12T10:14:04Z</time>
      </trkpt>
      <trkpt lat="42.88798" lon="1.23327">
        <ele>718.4</ele>
        <time>2024-05-12T10:14:05Z</time>
      </trkpt>
      <trkpt lat="42.888" lon="1.23323">
        <ele>718.8</ele>
        <time>2024-05-12T10:14:06Z</time>
      </trkpt>
      <trkpt lat="42.88803" lon="1.23318">
        <ele>719.2</ele>
        <time>2024-05-12T10:14:07Z</time>
      </trkpt>
      <trkpt lat="42.88808" lon="1.2331">
        <ele>719.2</ele>
        <time>2024-05-12T10:14:09Z</time>
      </trkpt>
      <trkpt lat="42.8881" lon="1.23307">
        <ele>719.6</ele>
        <time>2024-05-12T10:14:10Z</time>
      </trkpt>
      <trkpt lat="42.88812" lon="1.23303">
        <ele>720.2</ele>
        <time>2024-05-12T10:14:11Z</time>
      </trkpt>
      <trkpt lat="42.88814" lon="1.233">
        <ele>720.6</ele>
        <time>2024-05-12T10:14:12Z</time>
      </trkpt>
      <trkpt lat="42.88816" lon="1.23296">
        <ele>721</ele>
        <time>2024-05-12T10:14:13Z</time>
      </trkpt>
      <trkpt lat="42.88818" lon="1.23293">
        <ele>721.4</ele>
        <time>2024-05-12T10:14:14Z</time>
      </trkpt>
      <trkpt lat="42.88823" lon="1.23288">
        <ele>721.4</ele>
        <time>2024-05-12T10:14:16Z</time>
      </trkpt>
      <trkpt lat="42.88829" lon="1.23282">
        <ele>721.8</ele>
        <time>2024-05-12T10:14:18Z</time>
      </trkpt>
      <trkpt lat="42.88831" lon="1.23279">
        <ele>722.2</ele>
        <time>2024-05-12T10:14:19Z</time>
      </trkpt>
      <trkpt lat="42.88834" lon="1.23276">
        <ele>722.6</ele>
        <time>2024-05-12T10:14:20Z</time>
      </trkpt>
      <trkpt lat="42.88836" lon="1.23273">
        <ele>723</ele>
        <time>2024-05-12T10:14:21Z</time>
      </trkpt>
      <trkpt lat="42.88838" lon="1.23271">
        <ele>723.4</ele>
        <time>2024-05-12T10:14:22Z</time>
      </trkpt>
      <trkpt lat="42.88841" lon="1.23268">
        <ele>723.4</ele>
        <time>2024-05-12T10:14:23Z</time>
      </trkpt>
      <trkpt lat="42.88851" lon="1.23256">
        <ele>723.8</ele>
        <time>2024-05-12T10:14:27Z</time>
      </trkpt>
      <trkpt lat="42.88853" lon="1.23253">
        <ele>724.2</ele>
        <time>2024-05-12T10:14:28Z</time>
      </trkpt>
      <trkpt lat="42.88856" lon="1.23251">
        <ele>724.6</ele>
        <time>2024-05-12T10:14:29Z</time>
      </trkpt>
      <trkpt lat="42.88859" lon="1.23249">
        <ele>725.2</ele>
        <time>2024-05-12T10:14:30Z</time>
      </trkpt>
      <trkpt lat="42.88862" lon="1.23247">
        <ele>725.6</ele>
        <time>2024-05-12T10:14:31Z</time>
      </trkpt>
      <trkpt lat="42.88874" lon="1.23243">
        <ele>725.6</ele>
        <time>2024-05-12T10:14:34Z</time>
      </trkpt>
      <trkpt lat="42.88888" lon="1.23239">
        <ele>725.6</ele>
        <time>2024-05-12T10:14:37Z</time>
      </trkpt>
      <trkpt lat="42.88893" lon="1.23239">
        <ele>725.6</ele>
        <time>2024-05-12T10:14:38Z</time>
      </trkpt>
      <trkpt lat="42.88917" lon="1.23243">
        <ele>725.6</ele>
        <time>2024-05-12T10:14:43Z</time>
      </trkpt>
      <trkpt lat="42.88922" lon="1.23244">
        <ele>725</ele>
        <time>2024-05-12T10:14:44Z</time>
      </trkpt>
      <trkpt lat="42.88927" lon="1.23245">
        <ele>724.6</ele>
        <time>2024-05-12T10:14:45Z</time>
      </trkpt>
      <trkpt lat="42.88932" lon="1.23246">
        <ele>724.2</ele>
        <time>2024-05-12T10:14:46Z</time>
      </trkpt>
      <trkpt lat="42.88937" lon="1.23245">
        <ele>723.8</ele>
        <time>2024-05-12T10:14:47Z</time>
      </trkpt>
      <trkpt lat="42.88941" lon="1.23244">
        <ele>723.4</ele>
        <time>2024-05-12T10:14:48Z</time>
      </trkpt>
      <trkpt lat="42.88945" lon="1.23243">
        <ele>723.4</ele>
        <time>2024-05-12T10:14:49Z</time>
      </trkpt>
      <trkpt lat="42.88949" lon="1.23241">
        <ele>723.4</ele>
        <time>2024-05-12T10:14:50Z</time>
      </trkpt>
      <trkpt lat="42.88965" lon="1.23228">
        <ele>723.4</ele>
        <time>2024-05-12T10:14:54Z</time>
      </trkpt>
      <trkpt lat="42.88973" lon="1.2322">
        <ele>723.4</ele>
        <time>2024-05-12T10:14:56Z</time>
      </trkpt>
      <trkpt lat="42.88987" lon="1.23208">
        <ele>723.4</ele>
        <time>2024-05-12T10:14:59Z</time>
      </trkpt>
      <trkpt lat="42.88999" lon="1.23199">
        <ele>723.4</ele>
        <time>2024-05-12T10:15:02Z</time>
      </trkpt>
      <trkpt lat="42.89004" lon="1.23196">
        <ele>723.4</ele>
        <time>2024-05-12T10:15:03Z</time>
      </trkpt>
      <trkpt lat="42.89008" lon="1.23193">
        <ele>723.4</ele>
        <time>2024-05-12T10:15:04Z</time>
      </trkpt>
      <trkpt lat="42.89031" lon="1.23173">
        <ele>723.4</ele>
        <time>2024-05-12T10:15:09Z</time>
      </trkpt>
      <trkpt lat="42.89035" lon="1.23168">
        <ele>723</ele>
        <time>2024-05-12T10:15:10Z</time>
      </trkpt>
      <trkpt lat="42.8904" lon="1.23163">
        <ele>722.6</ele>
        <time>2024-05-12T10:15:11Z</time>
      </trkpt>
      <trkpt lat="42.89044" lon="1.23158">
        <ele>721.8</ele>
        <time>2024-05-12T10:15:12Z</time>
      </trkpt>
      <trkpt lat="42.8905" lon="1.23153">
        <ele>721.2</ele>
        <time>2024-05-12T10:15:13Z</time>
      </trkpt>
      <trkpt lat="42.89058" lon="1.23144">
        <ele>720.2</ele>
        <time>2024-05-12T10:15:14Z</time>
      </trkpt>
      <trkpt lat="42.89066" lon="1.23137">
        <ele>719.2</ele>
        <time>2024-05-12T10:15:15Z</time>
      </trkpt>
      <trkpt lat="42.89073" lon="1.23129">
        <ele>718</ele>
        <time>2024-05-12T10:15:16Z</time>
      </trkpt>
      <trkpt lat="42.89081" lon="1.23122">
        <ele>717</ele>
        <time>2024-05-12T10:15:17Z</time>
      </trkpt>
      <trkpt lat="42.89089" lon="1.23115">
        <ele>715.8</ele>
        <time>2024-05-12T10:15:18Z</time>
      </trkpt>
      <trkpt lat="42.89097" lon="1.23109">
        <ele>714.6</ele>
        <time>2024-05-12T10:15:19Z</time>
      </trkpt>
      <trkpt lat="42.89104" lon="1.23102">
        <ele>713.4</ele>
        <time>2024-05-12T10:15:20Z</time>
      </trkpt>
      <trkpt lat="42.89111" lon="1.23095">
        <ele>712.2</ele>
        <time>2024-05-12T10:15:21Z</time>
      </trkpt>
      <trkpt lat="42.89119" lon="1.23087">
        <ele>711.2</ele>
        <time>2024-05-12T10:15:22Z</time>
      </trkpt>
      <trkpt lat="42.89125" lon="1.23079">
        <ele>710.2</ele>
        <time>2024-05-12T10:15:23Z</time>
      </trkpt>
      <trkpt lat="42.89132" lon="1.2307">
        <ele>709.2</ele>
        <time>2024-05-12T10:15:24Z</time>
      </trkpt>
      <trkpt lat="42.89139" lon="1.2306">
        <ele>708.2</ele>
        <time>2024-05-12T10:15:25Z</time>
      </trkpt>
      <trkpt lat="42.89146" lon="1.23051">
        <ele>707.4</ele>
        <time>2024-05-12T10:15:26Z</time>
      </trkpt>
      <trkpt lat="42.89154" lon="1.23044">
        <ele>706.6</ele>
        <time>2024-05-12T10:15:27Z</time>
      </trkpt>
      <trkpt lat="42.89161" lon="1.23037">
        <ele>706</ele>
        <time>2024-05-12T10:15:28Z</time>
      </trkpt>
      <trkpt lat="42.89168" lon="1.23029">
        <ele>705.2</ele>
        <time>2024-05-12T10:15:29Z</time>
      </trkpt>
      <trkpt lat="42.89175" lon="1.23022">
        <ele>704.4</ele>
        <time>2024-05-12T10:15:30Z</time>
      </trkpt>
      <trkpt lat="42.89186" lon="1.2301">
        <ele>704.4</ele>
        <time>2024-05-12T10:15:32Z</time>
      </trkpt>
      <trkpt lat="42.89202" lon="1.22996">
        <ele>704.4</ele>
        <time>2024-05-12T10:15:36Z</time>
      </trkpt>
      <trkpt lat="42.8923" lon="1.22978">
        <ele>704.4</ele>
        <time>2024-05-12T10:15:42Z</time>
      </trkpt>
      <trkpt lat="42.89239" lon="1.22971">
        <ele>704.8</ele>
        <time>2024-05-12T10:15:44Z</time>
      </trkpt>
      <trkpt lat="42.89243" lon="1.22967">
        <ele>705.2</ele>
        <time>2024-05-12T10:15:45Z</time>
      </trkpt>
      <trkpt lat="42.89247" lon="1.22964">
        <ele>705.6</ele>
        <time>2024-05-12T10:15:46Z</time>
      </trkpt>
      <trkpt lat="42.8925" lon="1.22961">
        <ele>706</ele>
        <time>2024-05-12T10:15:47Z</time>
      </trkpt>
      <trkpt lat="42.89254" lon="1.22957">
        <ele>706.4</ele>
        <time>2024-05-12T10:15:48Z</time>
      </trkpt>
      <trkpt lat="42.89261" lon="1.22949">
        <ele>706.8</ele>
        <time>2024-05-12T10:15:50Z</time>
      </trkpt>
      <trkpt lat="42.89264" lon="1.22945">
        <ele>707.4</ele>
        <time>2024-05-12T10:15:51Z</time>
      </trkpt>
      <trkpt lat="42.89268" lon="1.22941">
        <ele>707.8</ele>
        <time>2024-05-12T10:15:52Z</time>
      </trkpt>
      <trkpt lat="42.89271" lon="1.22936">
        <ele>708.2</ele>
        <time>2024-05-12T10:15:53Z</time>
      </trkpt>
      <trkpt lat="42.89274" lon="1.22932">
        <ele>708.8</ele>
        <time>2024-05-12T10:15:54Z</time>
      </trkpt>
      <trkpt lat="42.8928" lon="1.22923">
        <ele>709.2</ele>
        <time>2024-05-12T10:15:56Z</time>
      </trkpt>
      <trkpt lat="42.89282" lon="1.22918">
        <ele>709.6</ele>
        <time>2024-05-12T10:15:57Z</time>
      </trkpt>
      <trkpt lat="42.89284" lon="1.22914">
        <ele>710</ele>
        <time>2024-05-12T10:15:58Z</time>
      </trkpt>
      <trkpt lat="42.89286" lon="1.22909">
        <ele>710.4</ele>
        <time>2024-05-12T10:15:59Z</time>
      </trkpt>
      <trkpt lat="42.89289" lon="1.22903">
        <ele>710.8</ele>
        <time>2024-05-12T10:16:00Z</time>
      </trkpt>
      <trkpt lat="42.89292" lon="1.22897">
        <ele>710.8</ele>
        <time>2024-05-12T10:16:01Z</time>
      </trkpt>
      <trkpt lat="42.89295" lon="1.22888">
        <ele>710.4</ele>
        <time>2024-05-12T10:16:02Z</time>
      </trkpt>
      <trkpt lat="42.89298" lon="1.22879">
        <ele>710</ele>
        <time>2024-05-12T10:16:03Z</time>
      </trkpt>
      <trkpt lat="42.89302" lon="1.22872">
        <ele>709.4</ele>
        <time>2024-05-12T10:16:04Z</time>
      </trkpt>
      <trkpt lat="42.89308" lon="1.22867">
        <ele>708.6</ele>
        <time>2024-05-12T10:16:05Z</time>
      </trkpt>
      <trkpt lat="42.89313" lon="1.22865">
        <ele>707.6</ele>
        <time>2024-05-12T10:16:06Z</time>
      </trkpt>
      <trkpt lat="42.89319" lon="1.22865">
        <ele>706.8</ele>
        <time>2024-05-12T10:16:07Z</time>
      </trkpt>
      <trkpt lat="42.89325" lon="1.22864">
        <ele>706</ele>
        <time>2024-05-12T10:16:08Z</time>
      </trkpt>
      <trkpt lat="42.89333" lon="1.22862">
        <ele>705</ele>
        <time>2024-05-12T10:16:09Z</time>
      </trkpt>
      <trkpt lat="42.89342" lon="1.22862">
        <ele>704</ele>
        <time>2024-05-12T10:16:10Z</time>
      </trkpt>
      <trkpt lat="42.8935" lon="1.22861">
        <ele>702.8</ele>
        <time>2024-05-12T10:16:11Z</time>
      </trkpt>
      <trkpt lat="42.89359" lon="1.22861">
        <ele>701.4</ele>
        <time>2024-05-12T10:16:12Z</time>
      </trkpt>
      <trkpt lat="42.89366" lon="1.22859">
        <ele>700.2</ele>
        <time>2024-05-12T10:16:13Z</time>
      </trkpt>
      <trkpt lat="42.89373" lon="1.22856">
        <ele>698.8</ele>
        <time>2024-05-12T10:16:14Z</time>
      </trkpt>
      <trkpt lat="42.8938" lon="1.22854">
        <ele>697.6</ele>
        <time>2024-05-12T10:16:15Z</time>
      </trkpt>
      <trkpt lat="42.89387" lon="1.22853">
        <ele>696.4</ele>
        <time>2024-05-12T10:16:16Z</time>
      </trkpt>
      <trkpt lat="42.89394" lon="1.22852">
        <ele>695.2</ele>
        <time>2024-05-12T10:16:17Z</time>
      </trkpt>
      <trkpt lat="42.89408" lon="1.22853">
        <ele>692.8</ele>
        <time>2024-05-12T10:16:18Z</time>
      </trkpt>
      <trkpt lat="42.89408" lon="1.22853">
        <ele>692.8</ele>
        <time>2024-05-12T10:16:19Z</time>
      </trkpt>
      <trkpt lat="42.89417" lon="1.22854">
        <ele>691.6</ele>
        <time>2024-05-12T10:16:20Z</time>
      </trkpt>
      <trkpt lat="42.89426" lon="1.22855">
        <ele>689</ele>
        <time>2024-05-12T10:16:21Z</time>
      </trkpt>
      <trkpt lat="42.89435" lon="1.22857">
        <ele>688</ele>
        <time>2024-05-12T10:16:22Z</time>
      </trkpt>
      <trkpt lat="42.89444" lon="1.22859">
        <ele>686.8</ele>
        <time>2024-05-12T10:16:23Z</time>
      </trkpt>
      <trkpt lat="42.89452" lon="1.22859">
        <ele>685.8</ele>
        <time>2024-05-12T10:16:24Z</time>
      </trkpt>
      <trkpt lat="42.89459" lon="1.22858">
        <ele>684.6</ele>
        <time>2024-05-12T10:16:25Z</time>
      </trkpt>
      <trkpt lat="42.89464" lon="1.22855">
        <ele>683.6</ele>
        <time>2024-05-12T10:16:26Z</time>
      </trkpt>
      <trkpt lat="42.8948" lon="1.2285">
        <ele>683.6</ele>
        <time>2024-05-12T10:16:30Z</time>
      </trkpt>
      <trkpt lat="42.8949" lon="1.22845">
        <ele>684</ele>
        <time>2024-05-12T10:16:33Z</time>
      </trkpt>
      <trkpt lat="42.89493" lon="1.22843">
        <ele>684.6</ele>
        <time>2024-05-12T10:16:34Z</time>
      </trkpt>
      <trkpt lat="42.89497" lon="1.22841">
        <ele>685</ele>
        <time>2024-05-12T10:16:35Z</time>
      </trkpt>
      <trkpt lat="42.89501" lon="1.2284">
        <ele>685.4</ele>
        <time>2024-05-12T10:16:36Z</time>
      </trkpt>
      <trkpt lat="42.89504" lon="1.22838">
        <ele>686</ele>
        <time>2024-05-12T10:16:37Z</time>
      </trkpt>
      <trkpt lat="42.89508" lon="1.22835">
        <ele>686.4</ele>
        <time>2024-05-12T10:16:38Z</time>
      </trkpt>
      <trkpt lat="42.89511" lon="1.22832">
        <ele>686.8</ele>
        <time>2024-05-12T10:16:39Z</time>
      </trkpt>
      <trkpt lat="42.89515" lon="1.22828">
        <ele>687.2</ele>
        <time>2024-05-12T10:16:40Z</time>
      </trkpt>
      <trkpt lat="42.89519" lon="1.22826">
        <ele>687.6</ele>
        <time>2024-05-12T10:16:41Z</time>
      </trkpt>
      <trkpt lat="42.89523" lon="1.22823">
        <ele>688</ele>
        <time>2024-05-12T10:16:42Z</time>
      </trkpt>
      <trkpt lat="42.89531" lon="1.22817">
        <ele>688</ele>
        <time>2024-05-12T10:16:44Z</time>
      </trkpt>
      <trkpt lat="42.89548" lon="1.22807">
        <ele>688.4</ele>
        <time>2024-05-12T10:16:48Z</time>
      </trkpt>
      <trkpt lat="42.89552" lon="1.22804">
        <ele>688.8</ele>
        <time>2024-05-12T10:16:49Z</time>
      </trkpt>
      <trkpt lat="42.89556" lon="1.22802">
        <ele>689.2</ele>
        <time>2024-05-12T10:16:50Z</time>
      </trkpt>
      <trkpt lat="42.89559" lon="1.22799">
        <ele>689.6</ele>
        <time>2024-05-12T10:16:51Z</time>
      </trkpt>
      <trkpt lat="42.89563" lon="1.22795">
        <ele>690</ele>
        <time>2024-05-12T10:16:52Z</time>
      </trkpt>
      <trkpt lat="42.89573" lon="1.22783">
        <ele>690</ele>
        <time>2024-05-12T10:16:55Z</time>
      </trkpt>
      <trkpt lat="42.89587" lon="1.22764">
        <ele>690.6</ele>
        <time>2024-05-12T10:17:00Z</time>
      </trkpt>
      <trkpt lat="42.89589" lon="1.2276">
        <ele>691</ele>
        <time>2024-05-12T10:17:01Z</time>
      </trkpt>
      <trkpt lat="42.89592" lon="1.22756">
        <ele>691.4</ele>
        <time>2024-05-12T10:17:02Z</time>
      </trkpt>
      <trkpt lat="42.89594" lon="1.22752">
        <ele>691.8</ele>
        <time>2024-05-12T10:17:03Z</time>
      </trkpt>
      <trkpt lat="42.89597" lon="1.22747">
        <ele>692.2</ele>
        <time>2024-05-12T10:17:04Z</time>
      </trkpt>
      <trkpt lat="42.89608" lon="1.22732">
        <ele>692.2</ele>
        <time>2024-05-12T10:17:08Z</time>
      </trkpt>
      <trkpt lat="42.8961" lon="1.22728">
        <ele>692.6</ele>
        <time>2024-05-12T10:17:09Z</time>
      </trkpt>
      <trkpt lat="42.89612" lon="1.22723">
        <ele>693.4</ele>
        <time>2024-05-12T10:17:10Z</time>
      </trkpt>
      <trkpt lat="42.89613" lon="1.22717">
        <ele>694</ele>
        <time>2024-05-12T10:17:11Z</time>
      </trkpt>
      <trkpt lat="42.89615" lon="1.22712">
        <ele>694.4</ele>
        <time>2024-05-12T10:17:12Z</time>
      </trkpt>
      <trkpt lat="42.89623" lon="1.22683">
        <ele>694.4</ele>
        <time>2024-05-12T10:17:18Z</time>
      </trkpt>
      <trkpt lat="42.89625" lon="1.22668">
        <ele>694.4</ele>
        <time>2024-05-12T10:17:21Z</time>
      </trkpt>
      <trkpt lat="42.89626" lon="1.22663">
        <ele>694.4</ele>
        <time>2024-05-12T10:17:22Z</time>
      </trkpt>
      <trkpt lat="42.89628" lon="1.22654">
        <ele>694.8</ele>
        <time>2024-05-12T10:17:24Z</time>
      </trkpt>
      <trkpt lat="42.89628" lon="1.22649">
        <ele>695.2</ele>
        <time>2024-05-12T10:17:25Z</time>
      </trkpt>
      <trkpt lat="42.89629" lon="1.22643">
        <ele>695.6</ele>
        <time>2024-05-12T10:17:26Z</time>
      </trkpt>
      <trkpt lat="42.89629" lon="1.22637">
        <ele>696</ele>
        <time>2024-05-12T10:17:27Z</time>
      </trkpt>
      <trkpt lat="42.89629" lon="1.22632">
        <ele>696.4</ele>
        <time>2024-05-12T10:17:28Z</time>
      </trkpt>
      <trkpt lat="42.89631" lon="1.22622">
        <ele>696.8</ele>
        <time>2024-05-12T10:17:30Z</time>
      </trkpt>
      <trkpt lat="42.89632" lon="1.22617">
        <ele>697.2</ele>
        <time>2024-05-12T10:17:31Z</time>
      </trkpt>
      <trkpt lat="42.89633" lon="1.22613">
        <ele>697.6</ele>
        <time>2024-05-12T10:17:32Z</time>
      </trkpt>
      <trkpt lat="42.89634" lon="1.22609">
        <ele>698</ele>
        <time>2024-05-12T10:17:33Z</time>
      </trkpt>
      <trkpt lat="42.89636" lon="1.22604">
        <ele>698.6</ele>
        <time>2024-05-12T10:17:34Z</time>
      </trkpt>
      <trkpt lat="42.89642" lon="1.22587">
        <ele>698.6</ele>
        <time>2024-05-12T10:17:38Z</time>
      </trkpt>
      <trkpt lat="42.89644" lon="1.22582">
        <ele>698.6</ele>
        <time>2024-05-12T10:17:39Z</time>
      </trkpt>
      <trkpt lat="42.89652" lon="1.2256">
        <ele>698.6</ele>
        <time>2024-05-12T10:17:43Z</time>
      </trkpt>
      <trkpt lat="42.89658" lon="1.22547">
        <ele>698</ele>
        <time>2024-05-12T10:17:45Z</time>
      </trkpt>
      <trkpt lat="42.89661" lon="1.22541">
        <ele>697.6</ele>
        <time>2024-05-12T10:17:46Z</time>
      </trkpt>
      <trkpt lat="42.89664" lon="1.22535">
        <ele>697</ele>
        <time>2024-05-12T10:17:47Z</time>
      </trkpt>
      <trkpt lat="42.89667" lon="1.22528">
        <ele>696.6</ele>
        <time>2024-05-12T10:17:48Z</time>
      </trkpt>
      <trkpt lat="42.8967" lon="1.22523">
        <ele>696.2</ele>
        <time>2024-05-12T10:17:49Z</time>
      </trkpt>
      <trkpt lat="42.89677" lon="1.2251">
        <ele>696.2</ele>
        <time>2024-05-12T10:17:51Z</time>
      </trkpt>
      <trkpt lat="42.89682" lon="1.22504">
        <ele>695.8</ele>
        <time>2024-05-12T10:17:52Z</time>
      </trkpt>
      <trkpt lat="42.89687" lon="1.22497">
        <ele>695.2</ele>
        <time>2024-05-12T10:17:53Z</time>
      </trkpt>
      <trkpt lat="42.89693" lon="1.2249">
        <ele>694.8</ele>
        <time>2024-05-12T10:17:54Z</time>
      </trkpt>
      <trkpt lat="42.89698" lon="1.22483">
        <ele>694.4</ele>
        <time>2024-05-12T10:17:55Z</time>
      </trkpt>
      <trkpt lat="42.89705" lon="1.22475">
        <ele>694</ele>
        <time>2024-05-12T10:17:56Z</time>
      </trkpt>
      <trkpt lat="42.89712" lon="1.22468">
        <ele>693.4</ele>
        <time>2024-05-12T10:17:57Z</time>
      </trkpt>
      <trkpt lat="42.8972" lon="1.22462">
        <ele>692.8</ele>
        <time>2024-05-12T10:17:58Z</time>
      </trkpt>
      <trkpt lat="42.89727" lon="1.22456">
        <ele>692</ele>
        <time>2024-05-12T10:17:59Z</time>
      </trkpt>
      <trkpt lat="42.89736" lon="1.22449">
        <ele>690.4</ele>
        <time>2024-05-12T10:18:00Z</time>
      </trkpt>
      <trkpt lat="42.89744" lon="1.22444">
        <ele>689.6</ele>
        <time>2024-05-12T10:18:01Z</time>
      </trkpt>
      <trkpt lat="42.89752" lon="1.22438">
        <ele>689</ele>
        <time>2024-05-12T10:18:02Z</time>
      </trkpt>
      <trkpt lat="42.8976" lon="1.22433">
        <ele>688.2</ele>
        <time>2024-05-12T10:18:03Z</time>
      </trkpt>
      <trkpt lat="42.89768" lon="1.22427">
        <ele>687.4</ele>
        <time>2024-05-12T10:18:04Z</time>
      </trkpt>
      <trkpt lat="42.89776" lon="1.22421">
        <ele>686.6</ele>
        <time>2024-05-12T10:18:05Z</time>
      </trkpt>
      <trkpt lat="42.89784" lon="1.22415">
        <ele>686</ele>
        <time>2024-05-12T10:18:06Z</time>
      </trkpt>
      <trkpt lat="42.89791" lon="1.22409">
        <ele>685.2</ele>
        <time>2024-05-12T10:18:07Z</time>
      </trkpt>
      <trkpt lat="42.89796" lon="1.22403">
        <ele>684.4</ele>
        <time>2024-05-12T10:18:08Z</time>
      </trkpt>
      <trkpt lat="42.89799" lon="1.22396">
        <ele>683.4</ele>
        <time>2024-05-12T10:18:09Z</time>
      </trkpt>
      <trkpt lat="42.89799" lon="1.22392">
        <ele>682.6</ele>
        <time>2024-05-12T10:18:10Z</time>
      </trkpt>
      <trkpt lat="42.89797" lon="1.22388">
        <ele>681.6</ele>
        <time>2024-05-12T10:18:11Z</time>
      </trkpt>
      <trkpt lat="42.89795" lon="1.22385">
        <ele>680.6</ele>
        <time>2024-05-12T10:18:12Z</time>
      </trkpt>
      <trkpt lat="42.89791" lon="1.22382">
        <ele>679.8</ele>
        <time>2024-05-12T10:18:13Z</time>
      </trkpt>
      <trkpt lat="42.89773" lon="1.22368">
        <ele>679.4</ele>
        <time>2024-05-12T10:18:17Z</time>
      </trkpt>
      <trkpt lat="42.89768" lon="1.22364">
        <ele>678.8</ele>
        <time>2024-05-12T10:18:18Z</time>
      </trkpt>
      <trkpt lat="42.89763" lon="1.22359">
        <ele>678.4</ele>
        <time>2024-05-12T10:18:19Z</time>
      </trkpt>
      <trkpt lat="42.89757" lon="1.22355">
        <ele>677.8</ele>
        <time>2024-05-12T10:18:20Z</time>
      </trkpt>
      <trkpt lat="42.89752" lon="1.22354">
        <ele>677.2</ele>
        <time>2024-05-12T10:18:21Z</time>
      </trkpt>
      <trkpt lat="42.89745" lon="1.22353">
        <ele>676.4</ele>
        <time>2024-05-12T10:18:22Z</time>
      </trkpt>
      <trkpt lat="42.89738" lon="1.22353">
        <ele>675.6</ele>
        <time>2024-05-12T10:18:23Z</time>
      </trkpt>
      <trkpt lat="42.89731" lon="1.22351">
        <ele>674.6</ele>
        <time>2024-05-12T10:18:24Z</time>
      </trkpt>
      <trkpt lat="42.89723" lon="1.2235">
        <ele>672.8</ele>
        <time>2024-05-12T10:18:25Z</time>
      </trkpt>
      <trkpt lat="42.89714" lon="1.22349">
        <ele>671.8</ele>
        <time>2024-05-12T10:18:26Z</time>
      </trkpt>
      <trkpt lat="42.89705" lon="1.22348">
        <ele>671</ele>
        <time>2024-05-12T10:18:27Z</time>
      </trkpt>
      <trkpt lat="42.89695" lon="1.22347">
        <ele>670</ele>
        <time>2024-05-12T10:18:28Z</time>
      </trkpt>
      <trkpt lat="42.89686" lon="1.22347">
        <ele>669</ele>
        <time>2024-05-12T10:18:29Z</time>
      </trkpt>
      <trkpt lat="42.89677" lon="1.22347">
        <ele>668</ele>
        <time>2024-05-12T10:18:30Z</time>
      </trkpt>
      <trkpt lat="42.89668" lon="1.22348">
        <ele>667</ele>
        <time>2024-05-12T10:18:31Z</time>
      </trkpt>
      <trkpt lat="42.89659" lon="1.22347">
        <ele>666</ele>
        <time>2024-05-12T10:18:32Z</time>
      </trkpt>
      <trkpt lat="42.89651" lon="1.22345">
        <ele>665.2</ele>
        <time>2024-05-12T10:18:33Z</time>
      </trkpt>
      <trkpt lat="42.89644" lon="1.22341">
        <ele>664.4</ele>
        <time>2024-05-12T10:18:34Z</time>
      </trkpt>
      <trkpt lat="42.89637" lon="1.22334">
        <ele>663.6</ele>
        <time>2024-05-12T10:18:35Z</time>
      </trkpt>
      <trkpt lat="42.89631" lon="1.22326">
        <ele>662.6</ele>
        <time>2024-05-12T10:18:36Z</time>
      </trkpt>
      <trkpt lat="42.89626" lon="1.22317">
        <ele>661.8</ele>
        <time>2024-05-12T10:18:37Z</time>
      </trkpt>
      <trkpt lat="42.89621" lon="1.22307">
        <ele>661.2</ele>
        <time>2024-05-12T10:18:38Z</time>
      </trkpt>
      <trkpt lat="42.89615" lon="1.223">
        <ele>660.4</ele>
        <time>2024-05-12T10:18:39Z</time>
      </trkpt>
      <trkpt lat="42.89609" lon="1.22295">
        <ele>659.6</ele>
        <time>2024-05-12T10:18:40Z</time>
      </trkpt>
      <trkpt lat="42.89602" lon="1.22292">
        <ele>659</ele>
        <time>2024-05-12T10:18:41Z</time>
      </trkpt>
      <trkpt lat="42.89595" lon="1.22289">
        <ele>658.2</ele>
        <time>2024-05-12T10:18:42Z</time>
      </trkpt>
      <trkpt lat="42.89589" lon="1.22286">
        <ele>657.4</ele>
        <time>2024-05-12T10:18:43Z</time>
      </trkpt>
      <trkpt lat="42.89583" lon="1.22283">
        <ele>656.6</ele>
        <time>2024-05-12T10:18:44Z</time>
      </trkpt>
      <trkpt lat="42.89577" lon="1.22279">
        <ele>655.8</ele>
        <time>2024-05-12T10:18:45Z</time>
      </trkpt>
      <trkpt lat="42.89571" lon="1.22275">
        <ele>654.8</ele>
        <time>2024-05-12T10:18:46Z</time>
      </trkpt>
      <trkpt lat="42.89566" lon="1.2227">
        <ele>653.8</ele>
        <time>2024-05-12T10:18:47Z</time>
      </trkpt>
      <trkpt lat="42.89563" lon="1.22267">
        <ele>652.8</ele>
        <time>2024-05-12T10:18:48Z</time>
      </trkpt>
      <trkpt lat="42.89561" lon="1.22264">
        <ele>651.6</ele>
        <time>2024-05-12T10:18:49Z</time>
      </trkpt>
      <trkpt lat="42.8956" lon="1.22262">
        <ele>649</ele>
        <time>2024-05-12T10:18:50Z</time>
      </trkpt>
      <trkpt lat="42.8956" lon="1.2226">
        <ele>647.8</ele>
        <time>2024-05-12T10:18:51Z</time>
      </trkpt>
      <trkpt lat="42.89559" lon="1.22259">
        <ele>646.8</ele>
        <time>2024-05-12T10:18:52Z</time>
      </trkpt>
      <trkpt lat="42.89558" lon="1.22258">
        <ele>645.8</ele>
        <time>2024-05-12T10:18:53Z</time>
      </trkpt>
      <trkpt lat="42.89558" lon="1.22256">
        <ele>645</ele>
        <time>2024-05-12T10:18:54Z</time>
      </trkpt>
      <trkpt lat="42.89557" lon="1.22255">
        <ele>644</ele>
        <time>2024-05-12T10:18:55Z</time>
      </trkpt>
      <trkpt lat="42.89556" lon="1.22254">
        <ele>643.2</ele>
        <time>2024-05-12T10:18:56Z</time>
      </trkpt>
      <trkpt lat="42.89556" lon="1.22254">
        <ele>642.8</ele>
        <time>2024-05-12T10:18:57Z</time>
      </trkpt>
      <trkpt lat="42.89555" lon="1.22253">
        <ele>642.2</ele>
        <time>2024-05-12T10:18:58Z</time>
      </trkpt>
      <trkpt lat="42.89555" lon="1.22253">
        <ele>641.8</ele>
        <time>2024-05-12T10:18:59Z</time>
      </trkpt>
      <trkpt lat="42.89555" lon="1.22251">
        <ele>641</ele>
        <time>2024-05-12T10:19:06Z</time>
      </trkpt>
      <trkpt lat="42.89554" lon="1.22246">
        <ele>641</ele>
        <time>2024-05-12T10:19:09Z</time>
      </trkpt>
      <trkpt lat="42.89554" lon="1.22246">
        <ele>641</ele>
        <time>2024-05-12T10:19:10Z</time>
      </trkpt>
      <trkpt lat="42.89553" lon="1.22244">
        <ele>641</ele>
        <time>2024-05-12T10:19:34Z</time>
      </trkpt>
      <trkpt lat="42.89552" lon="1.22238">
        <ele>641</ele>
        <time>2024-05-12T10:19:36Z</time>
      </trkpt>
      <trkpt lat="42.89548" lon="1.22229">
        <ele>640.6</ele>
        <time>2024-05-12T10:19:38Z</time>
      </trkpt>
      <trkpt lat="42.89544" lon="1.22225">
        <ele>639.6</ele>
        <time>2024-05-12T10:19:39Z</time>
      </trkpt>
      <trkpt lat="42.8954" lon="1.22221">
        <ele>639</ele>
        <time>2024-05-12T10:19:40Z</time>
      </trkpt>
      <trkpt lat="42.89534" lon="1.22217">
        <ele>638.4</ele>
        <time>2024-05-12T10:19:41Z</time>
      </trkpt>
      <trkpt lat="42.89528" lon="1.22213">
        <ele>637.8</ele>
        <time>2024-05-12T10:19:42Z</time>
      </trkpt>
      <trkpt lat="42.89523" lon="1.22208">
        <ele>637</ele>
        <time>2024-05-12T10:19:43Z</time>
      </trkpt>
      <trkpt lat="42.89518" lon="1.22201">
        <ele>636.2</ele>
        <time>2024-05-12T10:19:44Z</time>
      </trkpt>
      <trkpt lat="42.89514" lon="1.22194">
        <ele>635.4</ele>
        <time>2024-05-12T10:19:45Z</time>
      </trkpt>
      <trkpt lat="42.8951" lon="1.22186">
        <ele>634.6</ele>
        <time>2024-05-12T10:19:46Z</time>
      </trkpt>
      <trkpt lat="42.89507" lon="1.22177">
        <ele>634</ele>
        <time>2024-05-12T10:19:47Z</time>
      </trkpt>
      <trkpt lat="42.89505" lon="1.22168">
        <ele>633.4</ele>
        <time>2024-05-12T10:19:48Z</time>
      </trkpt>
      <trkpt lat="42.89503" lon="1.22158">
        <ele>632.8</ele>
        <time>2024-05-12T10:19:49Z</time>
      </trkpt>
      <trkpt lat="42.89499" lon="1.22149">
        <ele>632.2</ele>
        <time>2024-05-12T10:19:50Z</time>
      </trkpt>
      <trkpt lat="42.89494" lon="1.2214">
        <ele>631.4</ele>
        <time>2024-05-12T10:19:51Z</time>
      </trkpt>
      <trkpt lat="42.8949" lon="1.22129">
        <ele>630.8</ele>
        <time>2024-05-12T10:19:52Z</time>
      </trkpt>
      <trkpt lat="42.89487" lon="1.22117">
        <ele>629.8</ele>
        <time>2024-05-12T10:19:53Z</time>
      </trkpt>
      <trkpt lat="42.89486" lon="1.22107">
        <ele>629</ele>
        <time>2024-05-12T10:19:54Z</time>
      </trkpt>
      <trkpt lat="42.89488" lon="1.22097">
        <ele>628</ele>
        <time>2024-05-12T10:19:55Z</time>
      </trkpt>
      <trkpt lat="42.89491" lon="1.22087">
        <ele>627</ele>
        <time>2024-05-12T10:19:56Z</time>
      </trkpt>
      <trkpt lat="42.89493" lon="1.22078">
        <ele>626.2</ele>
        <time>2024-05-12T10:19:57Z</time>
      </trkpt>
      <trkpt lat="42.89494" lon="1.2207">
        <ele>625.2</ele>
        <time>2024-05-12T10:19:58Z</time>
      </trkpt>
      <trkpt lat="42.89491" lon="1.22064">
        <ele>624.4</ele>
        <time>2024-05-12T10:19:59Z</time>
      </trkpt>
      <trkpt lat="42.89489" lon="1.22059">
        <ele>623.6</ele>
        <time>2024-05-12T10:20:00Z</time>
      </trkpt>
      <trkpt lat="42.89488" lon="1.22051">
        <ele>622.6</ele>
        <time>2024-05-12T10:20:01Z</time>
      </trkpt>
      <trkpt lat="42.89488" lon="1.22042">
        <ele>621.6</ele>
        <time>2024-05-12T10:20:02Z</time>
      </trkpt>
      <trkpt lat="42.8949" lon="1.22033">
        <ele>620.6</ele>
        <time>2024-05-12T10:20:03Z</time>
      </trkpt>
      <trkpt lat="42.89491" lon="1.22026">
        <ele>618.6</ele>
        <time>2024-05-12T10:20:04Z</time>
      </trkpt>
      <trkpt lat="42.89492" lon="1.22019">
        <ele>617.6</ele>
        <time>2024-05-12T10:20:05Z</time>
      </trkpt>
      <trkpt lat="42.89494" lon="1.22011">
        <ele>616.4</ele>
        <time>2024-05-12T10:20:06Z</time>
      </trkpt>
      <trkpt lat="42.89496" lon="1.22005">
        <ele>615.4</ele>
        <time>2024-05-12T10:20:07Z</time>
      </trkpt>
      <trkpt lat="42.89498" lon="1.22002">
        <ele>614.4</ele>
        <time>2024-05-12T10:20:08Z</time>
      </trkpt>
      <trkpt lat="42.89499" lon="1.22002">
        <ele>613.4</ele>
        <time>2024-05-12T10:20:09Z</time>
      </trkpt>
      <trkpt lat="42.89499" lon="1.22002">
        <ele>612.6</ele>
        <time>2024-05-12T10:20:10Z</time>
      </trkpt>
      <trkpt lat="42.895" lon="1.22002">
        <ele>611.6</ele>
        <time>2024-05-12T10:20:11Z</time>
      </trkpt>
      <trkpt lat="42.895" lon="1.22002">
        <ele>611.6</ele>
        <time>2024-05-12T10:20:12Z</time>
      </trkpt>
      <trkpt lat="42.89506" lon="1.22005">
        <ele>611.2</ele>
        <time>2024-05-12T10:21:33Z</time>
      </trkpt>
      <trkpt lat="42.89509" lon="1.22009">
        <ele>610.8</ele>
        <time>2024-05-12T10:21:34Z</time>
      </trkpt>
      <trkpt lat="42.89512" lon="1.22016">
        <ele>610.4</ele>
        <time>2024-05-12T10:21:35Z</time>
      </trkpt>
      <trkpt lat="42.89516" lon="1.22024">
        <ele>610</ele>
        <time>2024-05-12T10:21:36Z</time>
      </trkpt>
      <trkpt lat="42.8952" lon="1.22032">
        <ele>609.4</ele>
        <time>2024-05-12T10:21:37Z</time>
      </trkpt>
      <trkpt lat="42.89523" lon="1.2204">
        <ele>608.8</ele>
        <time>2024-05-12T10:21:38Z</time>
      </trkpt>
      <trkpt lat="42.89527" lon="1.22044">
        <ele>608.2</ele>
        <time>2024-05-12T10:21:39Z</time>
      </trkpt>
      <trkpt lat="42.89531" lon="1.22046">
        <ele>607.6</ele>
        <time>2024-05-12T10:21:40Z</time>
      </trkpt>
      <trkpt lat="42.89536" lon="1.22045">
        <ele>607</ele>
        <time>2024-05-12T10:21:41Z</time>
      </trkpt>
      <trkpt lat="42.89541" lon="1.22044">
        <ele>606</ele>
        <time>2024-05-12T10:21:42Z</time>
      </trkpt>
      <trkpt lat="42.89548" lon="1.22042">
        <ele>604.4</ele>
        <time>2024-05-12T10:21:43Z</time>
      </trkpt>
      <trkpt lat="42.89555" lon="1.22041">
        <ele>603.4</ele>
        <time>2024-05-12T10:21:44Z</time>
      </trkpt>
      <trkpt lat="42.89563" lon="1.2204">
        <ele>602.6</ele>
        <time>2024-05-12T10:21:45Z</time>
      </trkpt>
      <trkpt lat="42.8957" lon="1.22041">
        <ele>601.6</ele>
        <time>2024-05-12T10:21:46Z</time>
      </trkpt>
      <trkpt lat="42.89577" lon="1.22044">
        <ele>600.6</ele>
        <time>2024-05-12T10:21:47Z</time>
      </trkpt>
      <trkpt lat="42.89585" lon="1.22047">
        <ele>599.6</ele>
        <time>2024-05-12T10:21:48Z</time>
      </trkpt>
      <trkpt lat="42.89592" lon="1.22053">
        <ele>598.6</ele>
        <time>2024-05-12T10:21:49Z</time>
      </trkpt>
      <trkpt lat="42.89599" lon="1.22058">
        <ele>597.6</ele>
        <time>2024-05-12T10:21:50Z</time>
      </trkpt>
      <trkpt lat="42.89607" lon="1.22064">
        <ele>596.6</ele>
        <time>2024-05-12T10:21:51Z</time>
      </trkpt>
      <trkpt lat="42.89612" lon="1.22068">
        <ele>595.8</ele>
        <time>2024-05-12T10:21:52Z</time>
      </trkpt>
      <trkpt lat="42.89617" lon="1.2207">
        <ele>594.8</ele>
        <time>2024-05-12T10:21:54Z</time>
      </trkpt>
      <trkpt lat="42.8962" lon="1.2207">
        <ele>594</ele>
        <time>2024-05-12T10:21:55Z</time>
      </trkpt>
      <trkpt lat="42.89621" lon="1.22068">
        <ele>593</ele>
        <time>2024-05-12T10:21:56Z</time>
      </trkpt>
      <trkpt lat="42.89621" lon="1.22063">
        <ele>592.2</ele>
        <time>2024-05-12T10:21:57Z</time>
      </trkpt>
      <trkpt lat="42.89619" lon="1.22057">
        <ele>591.2</ele>
        <time>2024-05-12T10:21:58Z</time>
      </trkpt>
      <trkpt lat="42.89617" lon="1.22051">
        <ele>590.4</ele>
        <time>2024-05-12T10:21:59Z</time>
      </trkpt>
      <trkpt lat="42.89614" lon="1.22044">
        <ele>589.8</ele>
        <time>2024-05-12T10:22:00Z</time>
      </trkpt>
      <trkpt lat="42.89611" lon="1.22036">
        <ele>589.4</ele>
        <time>2024-05-12T10:22:01Z</time>
      </trkpt>
      <trkpt lat="42.89606" lon="1.22027">
        <ele>588.8</ele>
        <time>2024-05-12T10:22:02Z</time>
      </trkpt>
      <trkpt lat="42.89602" lon="1.22019">
        <ele>588</ele>
        <time>2024-05-12T10:22:03Z</time>
      </trkpt>
      <trkpt lat="42.89598" lon="1.22012">
        <ele>587.4</ele>
        <time>2024-05-12T10:22:04Z</time>
      </trkpt>
      <trkpt lat="42.89594" lon="1.22005">
        <ele>586.6</ele>
        <time>2024-05-12T10:22:05Z</time>
      </trkpt>
      <trkpt lat="42.89588" lon="1.21998">
        <ele>585.8</ele>
        <time>2024-05-12T10:22:06Z</time>
      </trkpt>
      <trkpt lat="42.89582" lon="1.21993">
        <ele>585</ele>
        <time>2024-05-12T10:22:07Z</time>
      </trkpt>
      <trkpt lat="42.89576" lon="1.2199">
        <ele>584</ele>
        <time>2024-05-12T10:22:08Z</time>
      </trkpt>
      <trkpt lat="42.89569" lon="1.21985">
        <ele>582</ele>
        <time>2024-05-12T10:22:09Z</time>
      </trkpt>
      <trkpt lat="42.89563" lon="1.2198">
        <ele>580.8</ele>
        <time>2024-05-12T10:22:10Z</time>
      </trkpt>
      <trkpt lat="42.89562" lon="1.21972">
        <ele>579.8</ele>
        <time>2024-05-12T10:22:11Z</time>
      </trkpt>
      <trkpt lat="42.89562" lon="1.21963">
        <ele>578.6</ele>
        <time>2024-05-12T10:22:12Z</time>
      </trkpt>
      <trkpt lat="42.89563" lon="1.21954">
        <ele>577.4</ele>
        <time>2024-05-12T10:22:13Z</time>
      </trkpt>
      <trkpt lat="42.89564" lon="1.21946">
        <ele>576.8</ele>
        <time>2024-05-12T10:22:14Z</time>
      </trkpt>
      <trkpt lat="42.89565" lon="1.21938">
        <ele>576</ele>
        <time>2024-05-12T10:22:15Z</time>
      </trkpt>
      <trkpt lat="42.89565" lon="1.21929">
        <ele>575.4</ele>
        <time>2024-05-12T10:22:16Z</time>
      </trkpt>
      <trkpt lat="42.89564" lon="1.21921">
        <ele>574.6</ele>
        <time>2024-05-12T10:22:17Z</time>
      </trkpt>
      <trkpt lat="42.89561" lon="1.21911">
        <ele>574</ele>
        <time>2024-05-12T10:22:18Z</time>
      </trkpt>
      <trkpt lat="42.89559" lon="1.21901">
        <ele>573.2</ele>
        <time>2024-05-12T10:22:19Z</time>
      </trkpt>
      <trkpt lat="42.89554" lon="1.2189">
        <ele>572.2</ele>
        <time>2024-05-12T10:22:20Z</time>
      </trkpt>
      <trkpt lat="42.89549" lon="1.21881">
        <ele>571.2</ele>
        <time>2024-05-12T10:22:21Z</time>
      </trkpt>
      <trkpt lat="42.89544" lon="1.21873">
        <ele>570.2</ele>
        <time>2024-05-12T10:22:22Z</time>
      </trkpt>
      <trkpt lat="42.8954" lon="1.21866">
        <ele>569</ele>
        <time>2024-05-12T10:22:23Z</time>
      </trkpt>
      <trkpt lat="42.89538" lon="1.21861">
        <ele>568</ele>
        <time>2024-05-12T10:22:24Z</time>
      </trkpt>
      <trkpt lat="42.89537" lon="1.21857">
        <ele>567.2</ele>
        <time>2024-05-12T10:22:25Z</time>
      </trkpt>
      <trkpt lat="42.89537" lon="1.21857">
        <ele>566.2</ele>
        <time>2024-05-12T10:22:26Z</time>
      </trkpt>
      <trkpt lat="42.8954" lon="1.21858">
        <ele>565.4</ele>
        <time>2024-05-12T10:22:27Z</time>
      </trkpt>
      <trkpt lat="42.89543" lon="1.21861">
        <ele>564.4</ele>
        <time>2024-05-12T10:22:28Z</time>
      </trkpt>
      <trkpt lat="42.89547" lon="1.21865">
        <ele>563.8</ele>
        <time>2024-05-12T10:22:29Z</time>
      </trkpt>
      <trkpt lat="42.8955" lon="1.21871">
        <ele>563.2</ele>
        <time>2024-05-12T10:22:30Z</time>
      </trkpt>
      <trkpt lat="42.89555" lon="1.21875">
        <ele>562.6</ele>
        <time>2024-05-12T10:22:31Z</time>
      </trkpt>
      <trkpt lat="42.89559" lon="1.21881">
        <ele>561.8</ele>
        <time>2024-05-12T10:22:32Z</time>
      </trkpt>
      <trkpt lat="42.89564" lon="1.21888">
        <ele>561.2</ele>
        <time>2024-05-12T10:22:33Z</time>
      </trkpt>
      <trkpt lat="42.89568" lon="1.21894">
        <ele>560.4</ele>
        <time>2024-05-12T10:22:34Z</time>
      </trkpt>
      <trkpt lat="42.89573" lon="1.21901">
        <ele>560</ele>
        <time>2024-05-12T10:22:35Z</time>
      </trkpt>
      <trkpt lat="42.89578" lon="1.21907">
        <ele>559.6</ele>
        <time>2024-05-12T10:22:36Z</time>
      </trkpt>
      <trkpt lat="42.89582" lon="1.21914">
        <ele>559.2</ele>
        <time>2024-05-12T10:22:37Z</time>
      </trkpt>
      <trkpt lat="42.89585" lon="1.2192">
        <ele>558.8</ele>
        <time>2024-05-12T10:22:38Z</time>
      </trkpt>
      <trkpt lat="42.89587" lon="1.21923">
        <ele>558.4</ele>
        <time>2024-05-12T10:22:39Z</time>
      </trkpt>
      <trkpt lat="42.89589" lon="1.21924">
        <ele>557.8</ele>
        <time>2024-05-12T10:22:40Z</time>
      </trkpt>
      <trkpt lat="42.8959" lon="1.21923">
        <ele>557.4</ele>
        <time>2024-05-12T10:22:41Z</time>
      </trkpt>
      <trkpt lat="42.89592" lon="1.21922">
        <ele>557</ele>
        <time>2024-05-12T10:22:42Z</time>
      </trkpt>
      <trkpt lat="42.89593" lon="1.21919">
        <ele>557</ele>
        <time>2024-05-12T10:22:43Z</time>
      </trkpt>
      <trkpt lat="42.89595" lon="1.21913">
        <ele>556.6</ele>
        <time>2024-05-12T10:22:44Z</time>
      </trkpt>
      <trkpt lat="42.89595" lon="1.21906">
        <ele>556</ele>
        <time>2024-05-12T10:22:45Z</time>
      </trkpt>
      <trkpt lat="42.89595" lon="1.21897">
        <ele>555.4</ele>
        <time>2024-05-12T10:22:46Z</time>
      </trkpt>
      <trkpt lat="42.89594" lon="1.21888">
        <ele>554.8</ele>
        <time>2024-05-12T10:22:47Z</time>
      </trkpt>
      <trkpt lat="42.89592" lon="1.21878">
        <ele>554.2</ele>
        <time>2024-05-12T10:22:48Z</time>
      </trkpt>
      <trkpt lat="42.89589" lon="1.21868">
        <ele>553.2</ele>
        <time>2024-05-12T10:22:49Z</time>
      </trkpt>
      <trkpt lat="42.89585" lon="1.21858">
        <ele>552.4</ele>
        <time>2024-05-12T10:22:50Z</time>
      </trkpt>
      <trkpt lat="42.89581" lon="1.21846">
        <ele>551.2</ele>
        <time>2024-05-12T10:22:51Z</time>
      </trkpt>
      <trkpt lat="42.89576" lon="1.21833">
        <ele>550.2</ele>
        <time>2024-05-12T10:22:52Z</time>
      </trkpt>
      <trkpt lat="42.8957" lon="1.21821">
        <ele>549</ele>
        <time>2024-05-12T10:22:53Z</time>
      </trkpt>
      <trkpt lat="42.89566" lon="1.21809">
        <ele>547.6</ele>
        <time>2024-05-12T10:22:54Z</time>
      </trkpt>
      <trkpt lat="42.89561" lon="1.21798">
        <ele>546.4</ele>
        <time>2024-05-12T10:22:55Z</time>
      </trkpt>
      <trkpt lat="42.89556" lon="1.21786">
        <ele>545.2</ele>
        <time>2024-05-12T10:22:56Z</time>
      </trkpt>
      <trkpt lat="42.89551" lon="1.21775">
        <ele>543.8</ele>
        <time>2024-05-12T10:22:57Z</time>
      </trkpt>
      <trkpt lat="42.89547" lon="1.21764">
        <ele>542.6</ele>
        <time>2024-05-12T10:22:58Z</time>
      </trkpt>
      <trkpt lat="42.89544" lon="1.21756">
        <ele>540.2</ele>
        <time>2024-05-12T10:22:59Z</time>
      </trkpt>
      <trkpt lat="42.89542" lon="1.21752">
        <ele>539.2</ele>
        <time>2024-05-12T10:23:00Z</time>
      </trkpt>
      <trkpt lat="42.89542" lon="1.21747">
        <ele>538.2</ele>
        <time>2024-05-12T10:23:01Z</time>
      </trkpt>
      <trkpt lat="42.89543" lon="1.21747">
        <ele>537.2</ele>
        <time>2024-05-12T10:23:02Z</time>
      </trkpt>
      <trkpt lat="42.89546" lon="1.21748">
        <ele>536.4</ele>
        <time>2024-05-12T10:23:03Z</time>
      </trkpt>
      <trkpt lat="42.89548" lon="1.21753">
        <ele>535.6</ele>
        <time>2024-05-12T10:23:04Z</time>
      </trkpt>
      <trkpt lat="42.89551" lon="1.21758">
        <ele>534.8</ele>
        <time>2024-05-12T10:23:05Z</time>
      </trkpt>
      <trkpt lat="42.89554" lon="1.21762">
        <ele>533.8</ele>
        <time>2024-05-12T10:23:06Z</time>
      </trkpt>
      <trkpt lat="42.89557" lon="1.21766">
        <ele>533.4</ele>
        <time>2024-05-12T10:23:07Z</time>
      </trkpt>
      <trkpt lat="42.8956" lon="1.21769">
        <ele>533</ele>
        <time>2024-05-12T10:23:08Z</time>
      </trkpt>
      <trkpt lat="42.89564" lon="1.21772">
        <ele>532.6</ele>
        <time>2024-05-12T10:23:09Z</time>
      </trkpt>
      <trkpt lat="42.89569" lon="1.21778">
        <ele>532.2</ele>
        <time>2024-05-12T10:23:10Z</time>
      </trkpt>
      <trkpt lat="42.89571" lon="1.2178">
        <ele>531.6</ele>
        <time>2024-05-12T10:23:11Z</time>
      </trkpt>
      <trkpt lat="42.89573" lon="1.21781">
        <ele>531.2</ele>
        <time>2024-05-12T10:23:12Z</time>
      </trkpt>
      <trkpt lat="42.89574" lon="1.21779">
        <ele>530.6</ele>
        <time>2024-05-12T10:23:13Z</time>
      </trkpt>
      <trkpt lat="42.89574" lon="1.21777">
        <ele>530.2</ele>
        <time>2024-05-12T10:23:14Z</time>
      </trkpt>
      <trkpt lat="42.89574" lon="1.21776">
        <ele>529.6</ele>
        <time>2024-05-12T10:23:15Z</time>
      </trkpt>
      <trkpt lat="42.89573" lon="1.21773">
        <ele>529.6</ele>
        <time>2024-05-12T10:23:16Z</time>
      </trkpt>
      <trkpt lat="42.8957" lon="1.21764">
        <ele>529.2</ele>
        <time>2024-05-12T10:23:18Z</time>
      </trkpt>
      <trkpt lat="42.89568" lon="1.21761">
        <ele>528.6</ele>
        <time>2024-05-12T10:23:19Z</time>
      </trkpt>
      <trkpt lat="42.89567" lon="1.21759">
        <ele>528.2</ele>
        <time>2024-05-12T10:23:20Z</time>
      </trkpt>
      <trkpt lat="42.89566" lon="1.21756">
        <ele>527.6</ele>
        <time>2024-05-12T10:23:21Z</time>
      </trkpt>
      <trkpt lat="42.89565" lon="1.21753">
        <ele>527.2</ele>
        <time>2024-05-12T10:23:22Z</time>
      </trkpt>
      <trkpt lat="42.89562" lon="1.21746">
        <ele>526.8</ele>
        <time>2024-05-12T10:23:24Z</time>
      </trkpt>
      <trkpt lat="42.89561" lon="1.21741">
        <ele>526.4</ele>
        <time>2024-05-12T10:23:25Z</time>
      </trkpt>
      <trkpt lat="42.89559" lon="1.21736">
        <ele>526</ele>
        <time>2024-05-12T10:23:26Z</time>
      </trkpt>
      <trkpt lat="42.89557" lon="1.21729">
        <ele>525.4</ele>
        <time>2024-05-12T10:23:27Z</time>
      </trkpt>
      <trkpt lat="42.89554" lon="1.21724">
        <ele>525</ele>
        <time>2024-05-12T10:23:28Z</time>
      </trkpt>
      <trkpt lat="42.89545" lon="1.21709">
        <ele>524.6</ele>
        <time>2024-05-12T10:23:31Z</time>
      </trkpt>
      <trkpt lat="42.89541" lon="1.21702">
        <ele>524.2</ele>
        <time>2024-05-12T10:23:32Z</time>
      </trkpt>
      <trkpt lat="42.89536" lon="1.21693">
        <ele>523.8</ele>
        <time>2024-05-12T10:23:33Z</time>
      </trkpt>
      <trkpt lat="42.89533" lon="1.21685">
        <ele>523.2</ele>
        <time>2024-05-12T10:23:34Z</time>
      </trkpt>
      <trkpt lat="42.89531" lon="1.21676">
        <ele>522.6</ele>
        <time>2024-05-12T10:23:35Z</time>
      </trkpt>
      <trkpt lat="42.89528" lon="1.21668">
        <ele>522</ele>
        <time>2024-05-12T10:23:36Z</time>
      </trkpt>
      <trkpt lat="42.89525" lon="1.21659">
        <ele>521.2</ele>
        <time>2024-05-12T10:23:37Z</time>
      </trkpt>
      <trkpt lat="42.89522" lon="1.21648">
        <ele>520.4</ele>
        <time>2024-05-12T10:23:38Z</time>
      </trkpt>
      <trkpt lat="42.8952" lon="1.21638">
        <ele>519.8</ele>
        <time>2024-05-12T10:23:39Z</time>
      </trkpt>
      <trkpt lat="42.89518" lon="1.21628">
        <ele>519</ele>
        <time>2024-05-12T10:23:40Z</time>
      </trkpt>
      <trkpt lat="42.89516" lon="1.21618">
        <ele>518.4</ele>
        <time>2024-05-12T10:23:41Z</time>
      </trkpt>
      <trkpt lat="42.89514" lon="1.21608">
        <ele>517.8</ele>
        <time>2024-05-12T10:23:42Z</time>
      </trkpt>
      <trkpt lat="42.89509" lon="1.216">
        <ele>517.2</ele>
        <time>2024-05-12T10:23:43Z</time>
      </trkpt>
      <trkpt lat="42.89503" lon="1.21592">
        <ele>516.6</ele>
        <time>2024-05-12T10:23:44Z</time>
      </trkpt>
      <trkpt lat="42.89496" lon="1.21586">
        <ele>516</ele>
        <time>2024-05-12T10:23:45Z</time>
      </trkpt>
      <trkpt lat="42.89482" lon="1.21575">
        <ele>515.6</ele>
        <time>2024-05-12T10:23:47Z</time>
      </trkpt>
      <trkpt lat="42.89476" lon="1.21572">
        <ele>514.6</ele>
        <time>2024-05-12T10:23:48Z</time>
      </trkpt>
      <trkpt lat="42.89468" lon="1.21572">
        <ele>514</ele>
        <time>2024-05-12T10:23:49Z</time>
      </trkpt>
      <trkpt lat="42.89459" lon="1.21571">
        <ele>513.2</ele>
        <time>2024-05-12T10:23:50Z</time>
      </trkpt>
      <trkpt lat="42.89449" lon="1.21572">
        <ele>512.2</ele>
        <time>2024-05-12T10:23:51Z</time>
      </trkpt>
      <trkpt lat="42.8944" lon="1.21572">
        <ele>511.4</ele>
        <time>2024-05-12T10:23:52Z</time>
      </trkpt>
      <trkpt lat="42.89429" lon="1.21574">
        <ele>510.2</ele>
        <time>2024-05-12T10:23:53Z</time>
      </trkpt>
      <trkpt lat="42.89419" lon="1.21576">
        <ele>509.2</ele>
        <time>2024-05-12T10:23:54Z</time>
      </trkpt>
      <trkpt lat="42.89409" lon="1.21579">
        <ele>508</ele>
        <time>2024-05-12T10:23:55Z</time>
      </trkpt>
      <trkpt lat="42.89398" lon="1.21582">
        <ele>506.8</ele>
        <time>2024-05-12T10:23:56Z</time>
      </trkpt>
      <trkpt lat="42.89388" lon="1.21585">
        <ele>505.8</ele>
        <time>2024-05-12T10:23:57Z</time>
      </trkpt>
      <trkpt lat="42.89378" lon="1.21588">
        <ele>504.6</ele>
        <time>2024-05-12T10:23:58Z</time>
      </trkpt>
      <trkpt lat="42.89369" lon="1.21594">
        <ele>503.6</ele>
        <time>2024-05-12T10:23:59Z</time>
      </trkpt>
      <trkpt lat="42.89351" lon="1.2161">
        <ele>503.6</ele>
        <time>2024-05-12T10:24:02Z</time>
      </trkpt>
      <trkpt lat="42.89344" lon="1.21618">
        <ele>503.6</ele>
        <time>2024-05-12T10:24:04Z</time>
      </trkpt>
      <trkpt lat="42.89338" lon="1.21626">
        <ele>503.6</ele>
        <time>2024-05-12T10:24:06Z</time>
      </trkpt>
      <trkpt lat="42.89335" lon="1.2163">
        <ele>503.6</ele>
        <time>2024-05-12T10:24:07Z</time>
      </trkpt>
      <trkpt lat="42.89327" lon="1.21631">
        <ele>503</ele>
        <time>2024-05-12T10:24:09Z</time>
      </trkpt>
      <trkpt lat="42.89322" lon="1.21628">
        <ele>502.4</ele>
        <time>2024-05-12T10:24:10Z</time>
      </trkpt>
      <trkpt lat="42.89317" lon="1.21624">
        <ele>501.8</ele>
        <time>2024-05-12T10:24:11Z</time>
      </trkpt>
      <trkpt lat="42.89312" lon="1.21621">
        <ele>501.2</ele>
        <time>2024-05-12T10:24:12Z</time>
      </trkpt>
      <trkpt lat="42.89306" lon="1.21617">
        <ele>499.6</ele>
        <time>2024-05-12T10:24:13Z</time>
      </trkpt>
      <trkpt lat="42.893" lon="1.21613">
        <ele>498.8</ele>
        <time>2024-05-12T10:24:14Z</time>
      </trkpt>
      <trkpt lat="42.89294" lon="1.21608">
        <ele>498</ele>
        <time>2024-05-12T10:24:15Z</time>
      </trkpt>
      <trkpt lat="42.89289" lon="1.216">
        <ele>497</ele>
        <time>2024-05-12T10:24:16Z</time>
      </trkpt>
      <trkpt lat="42.89289" lon="1.21592">
        <ele>496.2</ele>
        <time>2024-05-12T10:24:17Z</time>
      </trkpt>
      <trkpt lat="42.8929" lon="1.21584">
        <ele>495.4</ele>
        <time>2024-05-12T10:24:18Z</time>
      </trkpt>
      <trkpt lat="42.89285" lon="1.21561">
        <ele>495</ele>
        <time>2024-05-12T10:24:21Z</time>
      </trkpt>
      <trkpt lat="42.89281" lon="1.21554">
        <ele>494.6</ele>
        <time>2024-05-12T10:24:22Z</time>
      </trkpt>
      <trkpt lat="42.89277" lon="1.21547">
        <ele>494.2</ele>
        <time>2024-05-12T10:24:23Z</time>
      </trkpt>
      <trkpt lat="42.89271" lon="1.21543">
        <ele>493.8</ele>
        <time>2024-05-12T10:24:24Z</time>
      </trkpt>
      <trkpt lat="42.89265" lon="1.2154">
        <ele>493.4</ele>
        <time>2024-05-12T10:24:25Z</time>
      </trkpt>
      <trkpt lat="42.8925" lon="1.21532">
        <ele>493.4</ele>
        <time>2024-05-12T10:24:28Z</time>
      </trkpt>
      <trkpt lat="42.8924" lon="1.21527">
        <ele>493.4</ele>
        <time>2024-05-12T10:24:30Z</time>
      </trkpt>
      <trkpt lat="42.89235" lon="1.21525">
        <ele>493.4</ele>
        <time>2024-05-12T10:24:31Z</time>
      </trkpt>
      <trkpt lat="42.89202" lon="1.21514">
        <ele>492.8</ele>
        <time>2024-05-12T10:24:37Z</time>
      </trkpt>
      <trkpt lat="42.89196" lon="1.21514">
        <ele>492</ele>
        <time>2024-05-12T10:24:38Z</time>
      </trkpt>
      <trkpt lat="42.8919" lon="1.21515">
        <ele>491.6</ele>
        <time>2024-05-12T10:24:39Z</time>
      </trkpt>
      <trkpt lat="42.89185" lon="1.21516">
        <ele>491.2</ele>
        <time>2024-05-12T10:24:40Z</time>
      </trkpt>
      <trkpt lat="42.89179" lon="1.21519">
        <ele>491.2</ele>
        <time>2024-05-12T10:24:41Z</time>
      </trkpt>
      <trkpt lat="42.89168" lon="1.21525">
        <ele>491.2</ele>
        <time>2024-05-12T10:24:43Z</time>
      </trkpt>
      <trkpt lat="42.89158" lon="1.21532">
        <ele>491.2</ele>
        <time>2024-05-12T10:24:46Z</time>
      </trkpt>
      <trkpt lat="42.89155" lon="1.21535">
        <ele>491.2</ele>
        <time>2024-05-12T10:24:47Z</time>
      </trkpt>
      <trkpt lat="42.8914" lon="1.21542">
        <ele>491.2</ele>
        <time>2024-05-12T10:24:52Z</time>
      </trkpt>
      <trkpt lat="42.89119" lon="1.21546">
        <ele>491.2</ele>
        <time>2024-05-12T10:24:57Z</time>
      </trkpt>
      <trkpt lat="42.89096" lon="1.21552">
        <ele>491.2</ele>
        <time>2024-05-12T10:25:02Z</time>
      </trkpt>
      <trkpt lat="42.89091" lon="1.21554">
        <ele>491.2</ele>
        <time>2024-05-12T10:25:03Z</time>
      </trkpt>
      <trkpt lat="42.89076" lon="1.21561">
        <ele>491.2</ele>
        <time>2024-05-12T10:25:06Z</time>
      </trkpt>
      <trkpt lat="42.89071" lon="1.21565">
        <ele>491.2</ele>
        <time>2024-05-12T10:25:07Z</time>
      </trkpt>
      <trkpt lat="42.89052" lon="1.21571">
        <ele>491.2</ele>
        <time>2024-05-12T10:25:11Z</time>
      </trkpt>
      <trkpt lat="42.89035" lon="1.21578">
        <ele>491.2</ele>
        <time>2024-05-12T10:25:15Z</time>
      </trkpt>
      <trkpt lat="42.89017" lon="1.21582">
        <ele>491.2</ele>
        <time>2024-05-12T10:25:19Z</time>
      </trkpt>
      <trkpt lat="42.89011" lon="1.21582">
        <ele>491.2</ele>
        <time>2024-05-12T10:25:20Z</time>
      </trkpt>
      <trkpt lat="42.89005" lon="1.21584">
        <ele>491.2</ele>
        <time>2024-05-12T10:25:21Z</time>
      </trkpt>
      <trkpt lat="42.88993" lon="1.21586">
        <ele>491.2</ele>
        <time>2024-05-12T10:25:23Z</time>
      </trkpt>
      <trkpt lat="42.88976" lon="1.21592">
        <ele>491.2</ele>
        <time>2024-05-12T10:25:27Z</time>
      </trkpt>
      <trkpt lat="42.88962" lon="1.21594">
        <ele>491.2</ele>
        <time>2024-05-12T10:25:30Z</time>
      </trkpt>
      <trkpt lat="42.88957" lon="1.21595">
        <ele>491.2</ele>
        <time>2024-05-12T10:25:31Z</time>
      </trkpt>
      <trkpt lat="42.88943" lon="1.216">
        <ele>491.2</ele>
        <time>2024-05-12T10:25:35Z</time>
      </trkpt>
      <trkpt lat="42.88934" lon="1.216">
        <ele>491.2</ele>
        <time>2024-05-12T10:25:37Z</time>
      </trkpt>
      <trkpt lat="42.88925" lon="1.21601">
        <ele>491.2</ele>
        <time>2024-05-12T10:25:39Z</time>
      </trkpt>
      <trkpt lat="42.88911" lon="1.216">
        <ele>491.2</ele>
        <time>2024-05-12T10:25:43Z</time>
      </trkpt>
      <trkpt lat="42.88891" lon="1.21597">
        <ele>491.2</ele>
        <time>2024-05-12T10:25:48Z</time>
      </trkpt>
      <trkpt lat="42.88886" lon="1.21597">
        <ele>491.2</ele>
        <time>2024-05-12T10:25:49Z</time>
      </trkpt>
      <trkpt lat="42.88874" lon="1.21596">
        <ele>492</ele>
        <time>2024-05-12T10:25:52Z</time>
      </trkpt>
      <trkpt lat="42.8887" lon="1.21596">
        <ele>492.4</ele>
        <time>2024-05-12T10:25:53Z</time>
      </trkpt>
      <trkpt lat="42.88865" lon="1.21595">
        <ele>492.8</ele>
        <time>2024-05-12T10:25:54Z</time>
      </trkpt>
      <trkpt lat="42.88861" lon="1.21595">
        <ele>493.2</ele>
        <time>2024-05-12T10:25:55Z</time>
      </trkpt>
      <trkpt lat="42.8885" lon="1.21593">
        <ele>493.2</ele>
        <time>2024-05-12T10:25:57Z</time>
      </trkpt>
      <trkpt lat="42.88841" lon="1.2159">
        <ele>493.2</ele>
        <time>2024-05-12T10:25:59Z</time>
      </trkpt>
      <trkpt lat="42.88832" lon="1.21584">
        <ele>493.2</ele>
        <time>2024-05-12T10:26:01Z</time>
      </trkpt>
      <trkpt lat="42.88827" lon="1.2158">
        <ele>492.8</ele>
        <time>2024-05-12T10:26:02Z</time>
      </trkpt>
      <trkpt lat="42.88824" lon="1.21576">
        <ele>492.2</ele>
        <time>2024-05-12T10:26:03Z</time>
      </trkpt>
      <trkpt lat="42.88822" lon="1.21573">
        <ele>491.6</ele>
        <time>2024-05-12T10:26:04Z</time>
      </trkpt>
      <trkpt lat="42.8882" lon="1.2157">
        <ele>491</ele>
        <time>2024-05-12T10:26:05Z</time>
      </trkpt>
      <trkpt lat="42.88819" lon="1.21568">
        <ele>490.6</ele>
        <time>2024-05-12T10:26:06Z</time>
      </trkpt>
      <trkpt lat="42.88811" lon="1.21561">
        <ele>490.6</ele>
        <time>2024-05-12T10:26:11Z</time>
      </trkpt>
      <trkpt lat="42.88804" lon="1.21557">
        <ele>490.6</ele>
        <time>2024-05-12T10:26:16Z</time>
      </trkpt>
      <trkpt lat="42.88799" lon="1.21553">
        <ele>490.6</ele>
        <time>2024-05-12T10:26:19Z</time>
      </trkpt>
      <trkpt lat="42.88794" lon="1.21549">
        <ele>490.6</ele>
        <time>2024-05-12T10:26:21Z</time>
      </trkpt>
      <trkpt lat="42.88791" lon="1.21547">
        <ele>490.6</ele>
        <time>2024-05-12T10:26:23Z</time>
      </trkpt>
      <trkpt lat="42.88787" lon="1.21543">
        <ele>490.6</ele>
        <time>2024-05-12T10:26:25Z</time>
      </trkpt>
      <trkpt lat="42.88786" lon="1.21541">
        <ele>490.6</ele>
        <time>2024-05-12T10:26:26Z</time>
      </trkpt>
      <trkpt lat="42.88785" lon="1.21538">
        <ele>490.6</ele>
        <time>2024-05-12T10:26:28Z</time>
      </trkpt>
      <trkpt lat="42.88784" lon="1.21535">
        <ele>490.6</ele>
        <time>2024-05-12T10:27:10Z</time>
      </trkpt>
      <trkpt lat="42.88783" lon="1.21533">
        <ele>490.6</ele>
        <time>2024-05-12T10:27:11Z</time>
      </trkpt>
      <trkpt lat="42.88782" lon="1.21528">
        <ele>490.6</ele>
        <time>2024-05-12T10:27:13Z</time>
      </trkpt>
      <trkpt lat="42.8878" lon="1.21521">
        <ele>490.6</ele>
        <time>2024-05-12T10:27:16Z</time>
      </trkpt>
      <trkpt lat="42.88774" lon="1.21525">
        <ele>490.6</ele>
        <time>2024-05-12T10:27:20Z</time>
      </trkpt>
      <trkpt lat="42.88774" lon="1.21525">
        <ele>490.6</ele>
        <time>2024-05-12T10:27:22Z</time>
      </trkpt>
      <trkpt lat="42.88772" lon="1.21526">
        <ele>490.6</ele>
        <time>2024-05-12T10:27:30Z</time>
      </trkpt>
      <trkpt lat="42.8877" lon="1.21527">
        <ele>490.6</ele>
        <time>2024-05-12T10:27:31Z</time>
      </trkpt>
      <trkpt lat="42.8876" lon="1.21522">
        <ele>490.6</ele>
        <time>2024-05-12T10:27:34Z</time>
      </trkpt>
      <trkpt lat="42.88744" lon="1.21516">
        <ele>490.6</ele>
        <time>2024-05-12T10:27:40Z</time>
      </trkpt>
      <trkpt lat="42.8873" lon="1.21511">
        <ele>490.6</ele>
        <time>2024-05-12T10:27:45Z</time>
      </trkpt>
      <trkpt lat="42.88713" lon="1.21512">
        <ele>490.6</ele>
        <time>2024-05-12T10:27:50Z</time>
      </trkpt>
      <trkpt lat="42.8871" lon="1.21515">
        <ele>491</ele>
        <time>2024-05-12T10:27:52Z</time>
      </trkpt>
      <trkpt lat="42.88709" lon="1.21518">
        <ele>491.4</ele>
        <time>2024-05-12T10:27:53Z</time>
      </trkpt>
      <trkpt lat="42.88708" lon="1.2152">
        <ele>491.8</ele>
        <time>2024-05-12T10:27:54Z</time>
      </trkpt>
      <trkpt lat="42.88707" lon="1.21522">
        <ele>492.2</ele>
        <time>2024-05-12T10:27:55Z</time>
      </trkpt>
      <trkpt lat="42.88707" lon="1.21523">
        <ele>493.2</ele>
        <time>2024-05-12T10:27:56Z</time>
      </trkpt>
      <trkpt lat="42.88706" lon="1.21525">
        <ele>493.6</ele>
        <time>2024-05-12T10:27:57Z</time>
      </trkpt>
      <trkpt lat="42.88706" lon="1.21527">
        <ele>494.2</ele>
        <time>2024-05-12T10:27:58Z</time>
      </trkpt>
      <trkpt lat="42.88704" lon="1.2153">
        <ele>494.6</ele>
        <time>2024-05-12T10:27:59Z</time>
      </trkpt>
      <trkpt lat="42.88703" lon="1.21532">
        <ele>495.2</ele>
        <time>2024-05-12T10:28:00Z</time>
      </trkpt>
      <trkpt lat="42.88702" lon="1.21534">
        <ele>495.8</ele>
        <time>2024-05-12T10:28:01Z</time>
      </trkpt>
      <trkpt lat="42.88701" lon="1.21537">
        <ele>496.2</ele>
        <time>2024-05-12T10:28:02Z</time>
      </trkpt>
      <trkpt lat="42.88699" lon="1.21539">
        <ele>496.8</ele>
        <time>2024-05-12T10:28:03Z</time>
      </trkpt>
      <trkpt lat="42.88698" lon="1.2154">
        <ele>497.2</ele>
        <time>2024-05-12T10:28:04Z</time>
      </trkpt>
      <trkpt lat="42.88696" lon="1.21541">
        <ele>497.8</ele>
        <time>2024-05-12T10:28:05Z</time>
      </trkpt>
      <trkpt lat="42.88694" lon="1.21542">
        <ele>498.2</ele>
        <time>2024-05-12T10:28:06Z</time>
      </trkpt>
      <trkpt lat="42.88692" lon="1.21543">
        <ele>498.6</ele>
        <time>2024-05-12T10:28:07Z</time>
      </trkpt>
      <trkpt lat="42.8869" lon="1.21545">
        <ele>499</ele>
        <time>2024-05-12T10:28:08Z</time>
      </trkpt>
      <trkpt lat="42.88688" lon="1.21545">
        <ele>499</ele>
        <time>2024-05-12T10:28:09Z</time>
      </trkpt>
      <trkpt lat="42.88671" lon="1.2155">
        <ele>499</ele>
        <time>2024-05-12T10:28:14Z</time>
      </trkpt>
      <trkpt lat="42.88651" lon="1.21557">
        <ele>499</ele>
        <time>2024-05-12T10:28:20Z</time>
      </trkpt>
      <trkpt lat="42.88641" lon="1.21564">
        <ele>499</ele>
        <time>2024-05-12T10:28:24Z</time>
      </trkpt>
      <trkpt lat="42.88628" lon="1.2157">
        <ele>499</ele>
        <time>2024-05-12T10:28:29Z</time>
      </trkpt>
      <trkpt lat="42.88626" lon="1.2157">
        <ele>499.6</ele>
        <time>2024-05-12T10:28:30Z</time>
      </trkpt>
      <trkpt lat="42.88624" lon="1.2157">
        <ele>500</ele>
        <time>2024-05-12T10:28:31Z</time>
      </trkpt>
      <trkpt lat="42.88622" lon="1.2157">
        <ele>500.6</ele>
        <time>2024-05-12T10:28:32Z</time>
      </trkpt>
      <trkpt lat="42.8862" lon="1.2157">
        <ele>501</ele>
        <time>2024-05-12T10:28:33Z</time>
      </trkpt>
      <trkpt lat="42.88619" lon="1.2157">
        <ele>501.6</ele>
        <time>2024-05-12T10:28:34Z</time>
      </trkpt>
      <trkpt lat="42.88617" lon="1.2157">
        <ele>502</ele>
        <time>2024-05-12T10:28:35Z</time>
      </trkpt>
      <trkpt lat="42.88615" lon="1.2157">
        <ele>502.6</ele>
        <time>2024-05-12T10:28:36Z</time>
      </trkpt>
      <trkpt lat="42.88613" lon="1.2157">
        <ele>503</ele>
        <time>2024-05-12T10:28:37Z</time>
      </trkpt>
      <trkpt lat="42.88611" lon="1.21569">
        <ele>503.6</ele>
        <time>2024-05-12T10:28:38Z</time>
      </trkpt>
      <trkpt lat="42.88609" lon="1.21569">
        <ele>504</ele>
        <time>2024-05-12T10:28:39Z</time>
      </trkpt>
      <trkpt lat="42.88607" lon="1.21569">
        <ele>504</ele>
        <time>2024-05-12T10:28:40Z</time>
      </trkpt>
      <trkpt lat="42.88599" lon="1.21569">
        <ele>504</ele>
        <time>2024-05-12T10:28:45Z</time>
      </trkpt>
      <trkpt lat="42.88595" lon="1.21568">
        <ele>504</ele>
        <time>2024-05-12T10:28:59Z</time>
      </trkpt>
      <trkpt lat="42.88593" lon="1.21568">
        <ele>504</ele>
        <time>2024-05-12T10:29:01Z</time>
      </trkpt>
      <trkpt lat="42.88587" lon="1.21567">
        <ele>504</ele>
        <time>2024-05-12T10:29:03Z</time>
      </trkpt>
      <trkpt lat="42.88584" lon="1.21567">
        <ele>504</ele>
        <time>2024-05-12T10:29:05Z</time>
      </trkpt>
      <trkpt lat="42.88587" lon="1.21575">
        <ele>506</ele>
        <time>2024-05-12T10:29:20Z</time>
      </trkpt>
      <trkpt lat="42.88588" lon="1.21576">
        <ele>506.4</ele>
        <time>2024-05-12T10:29:21Z</time>
      </trkpt>
      <trkpt lat="42.88589" lon="1.21578">
        <ele>507</ele>
        <time>2024-05-12T10:29:22Z</time>
      </trkpt>
      <trkpt lat="42.8859" lon="1.2158">
        <ele>507.4</ele>
        <time>2024-05-12T10:29:23Z</time>
      </trkpt>
      <trkpt lat="42.88591" lon="1.21582">
        <ele>507.8</ele>
        <time>2024-05-12T10:29:24Z</time>
      </trkpt>
      <trkpt lat="42.88592" lon="1.21584">
        <ele>508.2</ele>
        <time>2024-05-12T10:29:25Z</time>
      </trkpt>
      <trkpt lat="42.88592" lon="1.21586">
        <ele>508.8</ele>
        <time>2024-05-12T10:29:26Z</time>
      </trkpt>
      <trkpt lat="42.88593" lon="1.21587">
        <ele>509.2</ele>
        <time>2024-05-12T10:29:27Z</time>
      </trkpt>
      <trkpt lat="42.88594" lon="1.2159">
        <ele>509.6</ele>
        <time>2024-05-12T10:29:28Z</time>
      </trkpt>
      <trkpt lat="42.88595" lon="1.21592">
        <ele>510.2</ele>
        <time>2024-05-12T10:29:29Z</time>
      </trkpt>
      <trkpt lat="42.88596" lon="1.21594">
        <ele>510.6</ele>
        <time>2024-05-12T10:29:30Z</time>
      </trkpt>
      <trkpt lat="42.88596" lon="1.21597">
        <ele>511.2</ele>
        <time>2024-05-12T10:29:31Z</time>
      </trkpt>
      <trkpt lat="42.88596" lon="1.21599">
        <ele>511.8</ele>
        <time>2024-05-12T10:29:32Z</time>
      </trkpt>
      <trkpt lat="42.88595" lon="1.21601">
        <ele>512.2</ele>
        <time>2024-05-12T10:29:33Z</time>
      </trkpt>
      <trkpt lat="42.88594" lon="1.21602">
        <ele>512.8</ele>
        <time>2024-05-12T10:29:34Z</time>
      </trkpt>
      <trkpt lat="42.88593" lon="1.21603">
        <ele>513.6</ele>
        <time>2024-05-12T10:29:35Z</time>
      </trkpt>
      <trkpt lat="42.88592" lon="1.21605">
        <ele>514.2</ele>
        <time>2024-05-12T10:29:36Z</time>
      </trkpt>
      <trkpt lat="42.88591" lon="1.21607">
        <ele>514.6</ele>
        <time>2024-05-12T10:29:37Z</time>
      </trkpt>
      <trkpt lat="42.88591" lon="1.21609">
        <ele>515</ele>
        <time>2024-05-12T10:29:38Z</time>
      </trkpt>
      <trkpt lat="42.8859" lon="1.2161">
        <ele>515.6</ele>
        <time>2024-05-12T10:29:39Z</time>
      </trkpt>
      <trkpt lat="42.88589" lon="1.21611">
        <ele>516</ele>
        <time>2024-05-12T10:29:40Z</time>
      </trkpt>
      <trkpt lat="42.88587" lon="1.21612">
        <ele>516.6</ele>
        <time>2024-05-12T10:29:41Z</time>
      </trkpt>
      <trkpt lat="42.88586" lon="1.21613">
        <ele>517</ele>
        <time>2024-05-12T10:29:42Z</time>
      </trkpt>
      <trkpt lat="42.88585" lon="1.21613">
        <ele>517.4</ele>
        <time>2024-05-12T10:29:43Z</time>
      </trkpt>
      <trkpt lat="42.88584" lon="1.21614">
        <ele>518</ele>
        <time>2024-05-12T10:29:44Z</time>
      </trkpt>
      <trkpt lat="42.88583" lon="1.21615">
        <ele>518.4</ele>
        <time>2024-05-12T10:29:45Z</time>
      </trkpt>
      <trkpt lat="42.88583" lon="1.21615">
        <ele>518.8</ele>
        <time>2024-05-12T10:29:46Z</time>
      </trkpt>
      <trkpt lat="42.88581" lon="1.21617">
        <ele>519.2</ele>
        <time>2024-05-12T10:29:47Z</time>
      </trkpt>
      <trkpt lat="42.88579" lon="1.21617">
        <ele>519.6</ele>
        <time>2024-05-12T10:29:48Z</time>
      </trkpt>
      <trkpt lat="42.88577" lon="1.21619">
        <ele>520.2</ele>
        <time>2024-05-12T10:29:50Z</time>
      </trkpt>
      <trkpt lat="42.88575" lon="1.21619">
        <ele>520.6</ele>
        <time>2024-05-12T10:29:51Z</time>
      </trkpt>
      <trkpt lat="42.88574" lon="1.2162">
        <ele>521</ele>
        <time>2024-05-12T10:29:52Z</time>
      </trkpt>
      <trkpt lat="42.88572" lon="1.21621">
        <ele>521.4</ele>
        <time>2024-05-12T10:29:53Z</time>
      </trkpt>
      <trkpt lat="42.88571" lon="1.21623">
        <ele>521.8</ele>
        <time>2024-05-12T10:29:54Z</time>
      </trkpt>
      <trkpt lat="42.88567" lon="1.21626">
        <ele>522.2</ele>
        <time>2024-05-12T10:29:56Z</time>
      </trkpt>
      <trkpt lat="42.88566" lon="1.21627">
        <ele>522.6</ele>
        <time>2024-05-12T10:29:57Z</time>
      </trkpt>
      <trkpt lat="42.88564" lon="1.21629">
        <ele>523</ele>
        <time>2024-05-12T10:29:58Z</time>
      </trkpt>
      <trkpt lat="42.88562" lon="1.21629">
        <ele>523.4</ele>
        <time>2024-05-12T10:29:59Z</time>
      </trkpt>
      <trkpt lat="42.88561" lon="1.21631">
        <ele>524</ele>
        <time>2024-05-12T10:30:00Z</time>
      </trkpt>
      <trkpt lat="42.8856" lon="1.21632">
        <ele>524.4</ele>
        <time>2024-05-12T10:30:01Z</time>
      </trkpt>
      <trkpt lat="42.88559" lon="1.21633">
        <ele>524.8</ele>
        <time>2024-05-12T10:30:02Z</time>
      </trkpt>
      <trkpt lat="42.88558" lon="1.21635">
        <ele>525.4</ele>
        <time>2024-05-12T10:30:03Z</time>
      </trkpt>
      <trkpt lat="42.88557" lon="1.21636">
        <ele>525.8</ele>
        <time>2024-05-12T10:30:04Z</time>
      </trkpt>
      <trkpt lat="42.88557" lon="1.21636">
        <ele>526.2</ele>
        <time>2024-05-12T10:30:05Z</time>
      </trkpt>
      <trkpt lat="42.88555" lon="1.21638">
        <ele>526.8</ele>
        <time>2024-05-12T10:30:06Z</time>
      </trkpt>
      <trkpt lat="42.88555" lon="1.21639">
        <ele>527.2</ele>
        <time>2024-05-12T10:30:07Z</time>
      </trkpt>
      <trkpt lat="42.88554" lon="1.21639">
        <ele>527.6</ele>
        <time>2024-05-12T10:30:08Z</time>
      </trkpt>
      <trkpt lat="42.88553" lon="1.21641">
        <ele>528</ele>
        <time>2024-05-12T10:30:09Z</time>
      </trkpt>
      <trkpt lat="42.88552" lon="1.21642">
        <ele>528.6</ele>
        <time>2024-05-12T10:30:10Z</time>
      </trkpt>
      <trkpt lat="42.8855" lon="1.21644">
        <ele>528.6</ele>
        <time>2024-05-12T10:30:11Z</time>
      </trkpt>
      <trkpt lat="42.88548" lon="1.21647">
        <ele>529</ele>
        <time>2024-05-12T10:30:13Z</time>
      </trkpt>
      <trkpt lat="42.88547" lon="1.2165">
        <ele>529.4</ele>
        <time>2024-05-12T10:30:14Z</time>
      </trkpt>
      <trkpt lat="42.88546" lon="1.21652">
        <ele>530</ele>
        <time>2024-05-12T10:30:15Z</time>
      </trkpt>
      <trkpt lat="42.88546" lon="1.21655">
        <ele>530.4</ele>
        <time>2024-05-12T10:30:16Z</time>
      </trkpt>
      <trkpt lat="42.88545" lon="1.21657">
        <ele>531</ele>
        <time>2024-05-12T10:30:17Z</time>
      </trkpt>
      <trkpt lat="42.88539" lon="1.21666">
        <ele>531</ele>
        <time>2024-05-12T10:30:21Z</time>
      </trkpt>
      <trkpt lat="42.88537" lon="1.2167">
        <ele>531</ele>
        <time>2024-05-12T10:30:22Z</time>
      </trkpt>
      <trkpt lat="42.88529" lon="1.21677">
        <ele>531.4</ele>
        <time>2024-05-12T10:30:25Z</time>
      </trkpt>
      <trkpt lat="42.88526" lon="1.21678">
        <ele>531.8</ele>
        <time>2024-05-12T10:30:26Z</time>
      </trkpt>
      <trkpt lat="42.88523" lon="1.21679">
        <ele>532.2</ele>
        <time>2024-05-12T10:30:27Z</time>
      </trkpt>
      <trkpt lat="42.8852" lon="1.21679">
        <ele>532.6</ele>
        <time>2024-05-12T10:30:28Z</time>
      </trkpt>
      <trkpt lat="42.88517" lon="1.2168">
        <ele>533</ele>
        <time>2024-05-12T10:30:29Z</time>
      </trkpt>
      <trkpt lat="42.88509" lon="1.21681">
        <ele>533</ele>
        <time>2024-05-12T10:30:32Z</time>
      </trkpt>
      <trkpt lat="42.88495" lon="1.21683">
        <ele>533</ele>
        <time>2024-05-12T10:30:37Z</time>
      </trkpt>
      <trkpt lat="42.88484" lon="1.2169">
        <ele>533</ele>
        <time>2024-05-12T10:30:41Z</time>
      </trkpt>
      <trkpt lat="42.88482" lon="1.21694">
        <ele>533</ele>
        <time>2024-05-12T10:30:42Z</time>
      </trkpt>
      <trkpt lat="42.8848" lon="1.21698">
        <ele>533</ele>
        <time>2024-05-12T10:30:43Z</time>
      </trkpt>
      <trkpt lat="42.88472" lon="1.2171">
        <ele>533</ele>
        <time>2024-05-12T10:30:46Z</time>
      </trkpt>
      <trkpt lat="42.8847" lon="1.21714">
        <ele>533.4</ele>
        <time>2024-05-12T10:30:47Z</time>
      </trkpt>
      <trkpt lat="42.88469" lon="1.21718">
        <ele>534.2</ele>
        <time>2024-05-12T10:30:48Z</time>
      </trkpt>
      <trkpt lat="42.88468" lon="1.21722">
        <ele>534.6</ele>
        <time>2024-05-12T10:30:49Z</time>
      </trkpt>
      <trkpt lat="42.88468" lon="1.21725">
        <ele>535</ele>
        <time>2024-05-12T10:30:50Z</time>
      </trkpt>
      <trkpt lat="42.88468" lon="1.21742">
        <ele>535</ele>
        <time>2024-05-12T10:30:54Z</time>
      </trkpt>
      <trkpt lat="42.88468" lon="1.21746">
        <ele>535</ele>
        <time>2024-05-12T10:30:55Z</time>
      </trkpt>
      <trkpt lat="42.88468" lon="1.2175">
        <ele>535.4</ele>
        <time>2024-05-12T10:30:56Z</time>
      </trkpt>
      <trkpt lat="42.88468" lon="1.21754">
        <ele>536</ele>
        <time>2024-05-12T10:30:57Z</time>
      </trkpt>
      <trkpt lat="42.88467" lon="1.21759">
        <ele>536.4</ele>
        <time>2024-05-12T10:30:58Z</time>
      </trkpt>
      <trkpt lat="42.88467" lon="1.21763">
        <ele>536.8</ele>
        <time>2024-05-12T10:30:59Z</time>
      </trkpt>
      <trkpt lat="42.88467" lon="1.21768">
        <ele>537.2</ele>
        <time>2024-05-12T10:31:00Z</time>
      </trkpt>
      <trkpt lat="42.88467" lon="1.21772">
        <ele>537.2</ele>
        <time>2024-05-12T10:31:01Z</time>
      </trkpt>
      <trkpt lat="42.88468" lon="1.21791">
        <ele>537.2</ele>
        <time>2024-05-12T10:31:06Z</time>
      </trkpt>
      <trkpt lat="42.88468" lon="1.21801">
        <ele>537.6</ele>
        <time>2024-05-12T10:31:08Z</time>
      </trkpt>
      <trkpt lat="42.88467" lon="1.21806">
        <ele>538</ele>
        <time>2024-05-12T10:31:09Z</time>
      </trkpt>
      <trkpt lat="42.88468" lon="1.2181">
        <ele>538.4</ele>
        <time>2024-05-12T10:31:10Z</time>
      </trkpt>
      <trkpt lat="42.88468" lon="1.21815">
        <ele>538.8</ele>
        <time>2024-05-12T10:31:11Z</time>
      </trkpt>
      <trkpt lat="42.88467" lon="1.21819">
        <ele>539.2</ele>
        <time>2024-05-12T10:31:12Z</time>
      </trkpt>
      <trkpt lat="42.88466" lon="1.21832">
        <ele>539.6</ele>
        <time>2024-05-12T10:31:15Z</time>
      </trkpt>
      <trkpt lat="42.88465" lon="1.21836">
        <ele>540</ele>
        <time>2024-05-12T10:31:16Z</time>
      </trkpt>
      <trkpt lat="42.88466" lon="1.2184">
        <ele>540.6</ele>
        <time>2024-05-12T10:31:17Z</time>
      </trkpt>
      <trkpt lat="42.88465" lon="1.21844">
        <ele>541</ele>
        <time>2024-05-12T10:31:18Z</time>
      </trkpt>
      <trkpt lat="42.88465" lon="1.21847">
        <ele>541.4</ele>
        <time>2024-05-12T10:31:19Z</time>
      </trkpt>
      <trkpt lat="42.88466" lon="1.21851">
        <ele>541.4</ele>
        <time>2024-05-12T10:31:20Z</time>
      </trkpt>
      <trkpt lat="42.88466" lon="1.21862">
        <ele>541.8</ele>
        <time>2024-05-12T10:31:23Z</time>
      </trkpt>
      <trkpt lat="42.88466" lon="1.21866">
        <ele>542.2</ele>
        <time>2024-05-12T10:31:24Z</time>
      </trkpt>
      <trkpt lat="42.88466" lon="1.21869">
        <ele>542.6</ele>
        <time>2024-05-12T10:31:25Z</time>
      </trkpt>
      <trkpt lat="42.88467" lon="1.21873">
        <ele>543.2</ele>
        <time>2024-05-12T10:31:26Z</time>
      </trkpt>
      <trkpt lat="42.88467" lon="1.21877">
        <ele>543.6</ele>
        <time>2024-05-12T10:31:27Z</time>
      </trkpt>
      <trkpt lat="42.88468" lon="1.2188">
        <ele>543.6</ele>
        <time>2024-05-12T10:31:28Z</time>
      </trkpt>
      <trkpt lat="42.88468" lon="1.21885">
        <ele>544</ele>
        <time>2024-05-12T10:31:30Z</time>
      </trkpt>
      <trkpt lat="42.88469" lon="1.21888">
        <ele>544.4</ele>
        <time>2024-05-12T10:31:31Z</time>
      </trkpt>
      <trkpt lat="42.8847" lon="1.21891">
        <ele>544.8</ele>
        <time>2024-05-12T10:31:32Z</time>
      </trkpt>
      <trkpt lat="42.8847" lon="1.21895">
        <ele>545.2</ele>
        <time>2024-05-12T10:31:33Z</time>
      </trkpt>
      <trkpt lat="42.8847" lon="1.21899">
        <ele>545.6</ele>
        <time>2024-05-12T10:31:34Z</time>
      </trkpt>
      <trkpt lat="42.88472" lon="1.21909">
        <ele>546</ele>
        <time>2024-05-12T10:31:37Z</time>
      </trkpt>
      <trkpt lat="42.88472" lon="1.21913">
        <ele>547</ele>
        <time>2024-05-12T10:31:38Z</time>
      </trkpt>
      <trkpt lat="42.88473" lon="1.21916">
        <ele>547.4</ele>
        <time>2024-05-12T10:31:39Z</time>
      </trkpt>
      <trkpt lat="42.88474" lon="1.21919">
        <ele>547.8</ele>
        <time>2024-05-12T10:31:40Z</time>
      </trkpt>
      <trkpt lat="42.88475" lon="1.21922">
        <ele>548.2</ele>
        <time>2024-05-12T10:31:41Z</time>
      </trkpt>
      <trkpt lat="42.88476" lon="1.21925">
        <ele>548.6</ele>
        <time>2024-05-12T10:31:42Z</time>
      </trkpt>
      <trkpt lat="42.88477" lon="1.21927">
        <ele>549</ele>
        <time>2024-05-12T10:31:43Z</time>
      </trkpt>
      <trkpt lat="42.88478" lon="1.21929">
        <ele>549.4</ele>
        <time>2024-05-12T10:31:44Z</time>
      </trkpt>
      <trkpt lat="42.8848" lon="1.21932">
        <ele>549.8</ele>
        <time>2024-05-12T10:31:45Z</time>
      </trkpt>
      <trkpt lat="42.88481" lon="1.21934">
        <ele>550.4</ele>
        <time>2024-05-12T10:31:46Z</time>
      </trkpt>
      <trkpt lat="42.88483" lon="1.21936">
        <ele>550.8</ele>
        <time>2024-05-12T10:31:47Z</time>
      </trkpt>
      <trkpt lat="42.88484" lon="1.21938">
        <ele>551.2</ele>
        <time>2024-05-12T10:31:48Z</time>
      </trkpt>
      <trkpt lat="42.88485" lon="1.21939">
        <ele>551.6</ele>
        <time>2024-05-12T10:31:49Z</time>
      </trkpt>
      <trkpt lat="42.88487" lon="1.21941">
        <ele>552</ele>
        <time>2024-05-12T10:31:50Z</time>
      </trkpt>
      <trkpt lat="42.88488" lon="1.21943">
        <ele>552.6</ele>
        <time>2024-05-12T10:31:51Z</time>
      </trkpt>
      <trkpt lat="42.88489" lon="1.21946">
        <ele>553</ele>
        <time>2024-05-12T10:31:52Z</time>
      </trkpt>
      <trkpt lat="42.88491" lon="1.21949">
        <ele>553.4</ele>
        <time>2024-05-12T10:31:53Z</time>
      </trkpt>
      <trkpt lat="42.88492" lon="1.21951">
        <ele>553.8</ele>
        <time>2024-05-12T10:31:54Z</time>
      </trkpt>
      <trkpt lat="42.88493" lon="1.21953">
        <ele>554.4</ele>
        <time>2024-05-12T10:31:55Z</time>
      </trkpt>
      <trkpt lat="42.88493" lon="1.21955">
        <ele>554.8</ele>
        <time>2024-05-12T10:31:56Z</time>
      </trkpt>
      <trkpt lat="42.88494" lon="1.21956">
        <ele>555.4</ele>
        <time>2024-05-12T10:31:57Z</time>
      </trkpt>
      <trkpt lat="42.88494" lon="1.21957">
        <ele>555.8</ele>
        <time>2024-05-12T10:31:58Z</time>
      </trkpt>
      <trkpt lat="42.88494" lon="1.21958">
        <ele>556.4</ele>
        <time>2024-05-12T10:31:59Z</time>
      </trkpt>
      <trkpt lat="42.88494" lon="1.2196">
        <ele>556.4</ele>
        <time>2024-05-12T10:32:00Z</time>
      </trkpt>
      <trkpt lat="42.88492" lon="1.21975">
        <ele>556.4</ele>
        <time>2024-05-12T10:32:06Z</time>
      </trkpt>
      <trkpt lat="42.8849" lon="1.21977">
        <ele>556.4</ele>
        <time>2024-05-12T10:32:08Z</time>
      </trkpt>
      <trkpt lat="42.88488" lon="1.21978">
        <ele>556.8</ele>
        <time>2024-05-12T10:32:10Z</time>
      </trkpt>
      <trkpt lat="42.88486" lon="1.21978">
        <ele>557.2</ele>
        <time>2024-05-12T10:32:11Z</time>
      </trkpt>
      <trkpt lat="42.88484" lon="1.21979">
        <ele>557.8</ele>
        <time>2024-05-12T10:32:12Z</time>
      </trkpt>
      <trkpt lat="42.88483" lon="1.21979">
        <ele>558.2</ele>
        <time>2024-05-12T10:32:13Z</time>
      </trkpt>
      <trkpt lat="42.88482" lon="1.21979">
        <ele>558.6</ele>
        <time>2024-05-12T10:32:14Z</time>
      </trkpt>
      <trkpt lat="42.88479" lon="1.21981">
        <ele>558.6</ele>
        <time>2024-05-12T10:32:17Z</time>
      </trkpt>
      <trkpt lat="42.88478" lon="1.21983">
        <ele>558.6</ele>
        <time>2024-05-12T10:32:18Z</time>
      </trkpt>
      <trkpt lat="42.88474" lon="1.21985">
        <ele>558.6</ele>
        <time>2024-05-12T10:32:22Z</time>
      </trkpt>
      <trkpt lat="42.88471" lon="1.21987">
        <ele>558.6</ele>
        <time>2024-05-12T10:33:16Z</time>
      </trkpt>
      <trkpt lat="42.88466" lon="1.2199">
        <ele>558.6</ele>
        <time>2024-05-12T10:33:18Z</time>
      </trkpt>
      <trkpt lat="42.88454" lon="1.21996">
        <ele>559</ele>
        <time>2024-05-12T10:33:22Z</time>
      </trkpt>
      <trkpt lat="42.88451" lon="1.21999">
        <ele>559.4</ele>
        <time>2024-05-12T10:33:23Z</time>
      </trkpt>
      <trkpt lat="42.88448" lon="1.22001">
        <ele>560</ele>
        <time>2024-05-12T10:33:24Z</time>
      </trkpt>
      <trkpt lat="42.88445" lon="1.22004">
        <ele>560.4</ele>
        <time>2024-05-12T10:33:25Z</time>
      </trkpt>
      <trkpt lat="42.88443" lon="1.22007">
        <ele>560.8</ele>
        <time>2024-05-12T10:33:26Z</time>
      </trkpt>
      <trkpt lat="42.88437" lon="1.22011">
        <ele>560.8</ele>
        <time>2024-05-12T10:33:28Z</time>
      </trkpt>
      <trkpt lat="42.8843" lon="1.22016">
        <ele>561.2</ele>
        <time>2024-05-12T10:33:30Z</time>
      </trkpt>
      <trkpt lat="42.88426" lon="1.22017">
        <ele>561.6</ele>
        <time>2024-05-12T10:33:31Z</time>
      </trkpt>
      <trkpt lat="42.88423" lon="1.22019">
        <ele>562</ele>
        <time>2024-05-12T10:33:32Z</time>
      </trkpt>
      <trkpt lat="42.88421" lon="1.2202">
        <ele>562.4</ele>
        <time>2024-05-12T10:33:33Z</time>
      </trkpt>
      <trkpt lat="42.88418" lon="1.22022">
        <ele>562.8</ele>
        <time>2024-05-12T10:33:34Z</time>
      </trkpt>
      <trkpt lat="42.88411" lon="1.22025">
        <ele>563.2</ele>
        <time>2024-05-12T10:33:36Z</time>
      </trkpt>
      <trkpt lat="42.88407" lon="1.22028">
        <ele>563.6</ele>
        <time>2024-05-12T10:33:37Z</time>
      </trkpt>
      <trkpt lat="42.88404" lon="1.22031">
        <ele>564</ele>
        <time>2024-05-12T10:33:38Z</time>
      </trkpt>
      <trkpt lat="42.884" lon="1.22034">
        <ele>564.6</ele>
        <time>2024-05-12T10:33:39Z</time>
      </trkpt>
      <trkpt lat="42.88397" lon="1.22037">
        <ele>565.4</ele>
        <time>2024-05-12T10:33:40Z</time>
      </trkpt>
      <trkpt lat="42.88394" lon="1.22039">
        <ele>566</ele>
        <time>2024-05-12T10:33:41Z</time>
      </trkpt>
      <trkpt lat="42.88392" lon="1.22041">
        <ele>566.4</ele>
        <time>2024-05-12T10:33:42Z</time>
      </trkpt>
      <trkpt lat="42.88389" lon="1.22042">
        <ele>567</ele>
        <time>2024-05-12T10:33:43Z</time>
      </trkpt>
      <trkpt lat="42.88387" lon="1.22045">
        <ele>567.4</ele>
        <time>2024-05-12T10:33:44Z</time>
      </trkpt>
      <trkpt lat="42.88385" lon="1.22048">
        <ele>567.8</ele>
        <time>2024-05-12T10:33:45Z</time>
      </trkpt>
      <trkpt lat="42.88384" lon="1.2205">
        <ele>568.4</ele>
        <time>2024-05-12T10:33:46Z</time>
      </trkpt>
      <trkpt lat="42.88382" lon="1.22052">
        <ele>568.8</ele>
        <time>2024-05-12T10:33:47Z</time>
      </trkpt>
      <trkpt lat="42.8838" lon="1.22054">
        <ele>569.2</ele>
        <time>2024-05-12T10:33:48Z</time>
      </trkpt>
      <trkpt lat="42.88378" lon="1.22056">
        <ele>569.8</ele>
        <time>2024-05-12T10:33:49Z</time>
      </trkpt>
      <trkpt lat="42.88376" lon="1.22059">
        <ele>570.2</ele>
        <time>2024-05-12T10:33:50Z</time>
      </trkpt>
      <trkpt lat="42.88373" lon="1.22063">
        <ele>570.6</ele>
        <time>2024-05-12T10:33:51Z</time>
      </trkpt>
      <trkpt lat="42.88372" lon="1.22066">
        <ele>571</ele>
        <time>2024-05-12T10:33:52Z</time>
      </trkpt>
      <trkpt lat="42.8837" lon="1.22071">
        <ele>571.6</ele>
        <time>2024-05-12T10:33:53Z</time>
      </trkpt>
      <trkpt lat="42.88368" lon="1.22075">
        <ele>572</ele>
        <time>2024-05-12T10:33:54Z</time>
      </trkpt>
      <trkpt lat="42.88363" lon="1.22091">
        <ele>572</ele>
        <time>2024-05-12T10:33:58Z</time>
      </trkpt>
      <trkpt lat="42.88358" lon="1.22111">
        <ele>572</ele>
        <time>2024-05-12T10:34:01Z</time>
      </trkpt>
      <trkpt lat="42.88356" lon="1.22117">
        <ele>572</ele>
        <time>2024-05-12T10:34:02Z</time>
      </trkpt>
      <trkpt lat="42.88352" lon="1.22125">
        <ele>572</ele>
        <time>2024-05-12T10:34:03Z</time>
      </trkpt>
      <trkpt lat="42.88342" lon="1.22142">
        <ele>571.6</ele>
        <time>2024-05-12T10:34:05Z</time>
      </trkpt>
      <trkpt lat="42.88336" lon="1.2215">
        <ele>571</ele>
        <time>2024-05-12T10:34:06Z</time>
      </trkpt>
      <trkpt lat="42.8833" lon="1.22157">
        <ele>570.6</ele>
        <time>2024-05-12T10:34:07Z</time>
      </trkpt>
      <trkpt lat="42.88325" lon="1.22165">
        <ele>570</ele>
        <time>2024-05-12T10:34:08Z</time>
      </trkpt>
      <trkpt lat="42.8832" lon="1.22174">
        <ele>569.6</ele>
        <time>2024-05-12T10:34:09Z</time>
      </trkpt>
      <trkpt lat="42.88317" lon="1.22184">
        <ele>569</ele>
        <time>2024-05-12T10:34:10Z</time>
      </trkpt>
      <trkpt lat="42.88311" lon="1.22192">
        <ele>568.6</ele>
        <time>2024-05-12T10:34:11Z</time>
      </trkpt>
      <trkpt lat="42.88307" lon="1.22199">
        <ele>568</ele>
        <time>2024-05-12T10:34:12Z</time>
      </trkpt>
      <trkpt lat="42.88302" lon="1.22205">
        <ele>567.6</ele>
        <time>2024-05-12T10:34:13Z</time>
      </trkpt>
      <trkpt lat="42.88295" lon="1.22218">
        <ele>567.6</ele>
        <time>2024-05-12T10:34:15Z</time>
      </trkpt>
      <trkpt lat="42.88293" lon="1.22225">
        <ele>567.6</ele>
        <time>2024-05-12T10:34:16Z</time>
      </trkpt>
      <trkpt lat="42.88278" lon="1.22244">
        <ele>567.6</ele>
        <time>2024-05-12T10:34:21Z</time>
      </trkpt>
      <trkpt lat="42.88275" lon="1.22252">
        <ele>567.6</ele>
        <time>2024-05-12T10:34:26Z</time>
      </trkpt>
      <trkpt lat="42.88274" lon="1.22244">
        <ele>567.6</ele>
        <time>2024-05-12T10:34:52Z</time>
      </trkpt>
      <trkpt lat="42.88274" lon="1.22243">
        <ele>568.4</ele>
        <time>2024-05-12T10:34:54Z</time>
      </trkpt>
      <trkpt lat="42.88273" lon="1.2224">
        <ele>568.8</ele>
        <time>2024-05-12T10:34:55Z</time>
      </trkpt>
      <trkpt lat="42.88273" lon="1.22239">
        <ele>569.2</ele>
        <time>2024-05-12T10:34:56Z</time>
      </trkpt>
      <trkpt lat="42.88272" lon="1.22238">
        <ele>569.6</ele>
        <time>2024-05-12T10:34:57Z</time>
      </trkpt>
      <trkpt lat="42.88271" lon="1.22235">
        <ele>570</ele>
        <time>2024-05-12T10:34:59Z</time>
      </trkpt>
      <trkpt lat="42.88271" lon="1.22232">
        <ele>570.6</ele>
        <time>2024-05-12T10:35:00Z</time>
      </trkpt>
      <trkpt lat="42.88271" lon="1.2223">
        <ele>571</ele>
        <time>2024-05-12T10:35:01Z</time>
      </trkpt>
      <trkpt lat="42.88272" lon="1.22229">
        <ele>571.6</ele>
        <time>2024-05-12T10:35:02Z</time>
      </trkpt>
      <trkpt lat="42.88271" lon="1.22226">
        <ele>572</ele>
        <time>2024-05-12T10:35:03Z</time>
      </trkpt>
      <trkpt lat="42.88271" lon="1.22224">
        <ele>572.6</ele>
        <time>2024-05-12T10:35:04Z</time>
      </trkpt>
      <trkpt lat="42.8827" lon="1.22221">
        <ele>573</ele>
        <time>2024-05-12T10:35:05Z</time>
      </trkpt>
      <trkpt lat="42.88269" lon="1.22219">
        <ele>573.4</ele>
        <time>2024-05-12T10:35:06Z</time>
      </trkpt>
      <trkpt lat="42.88269" lon="1.22217">
        <ele>574</ele>
        <time>2024-05-12T10:35:07Z</time>
      </trkpt>
      <trkpt lat="42.8827" lon="1.22215">
        <ele>574.4</ele>
        <time>2024-05-12T10:35:08Z</time>
      </trkpt>
      <trkpt lat="42.88269" lon="1.22214">
        <ele>575</ele>
        <time>2024-05-12T10:35:09Z</time>
      </trkpt>
      <trkpt lat="42.88268" lon="1.22211">
        <ele>575.4</ele>
        <time>2024-05-12T10:35:10Z</time>
      </trkpt>
      <trkpt lat="42.88267" lon="1.22209">
        <ele>575.8</ele>
        <time>2024-05-12T10:35:11Z</time>
      </trkpt>
      <trkpt lat="42.88266" lon="1.22207">
        <ele>576.4</ele>
        <time>2024-05-12T10:35:12Z</time>
      </trkpt>
      <trkpt lat="42.88266" lon="1.22205">
        <ele>576.8</ele>
        <time>2024-05-12T10:35:13Z</time>
      </trkpt>
      <trkpt lat="42.88266" lon="1.22202">
        <ele>577.4</ele>
        <time>2024-05-12T10:35:14Z</time>
      </trkpt>
      <trkpt lat="42.88265" lon="1.22201">
        <ele>577.8</ele>
        <time>2024-05-12T10:35:15Z</time>
      </trkpt>
      <trkpt lat="42.88264" lon="1.22199">
        <ele>578.4</ele>
        <time>2024-05-12T10:35:16Z</time>
      </trkpt>
      <trkpt lat="42.88264" lon="1.22198">
        <ele>578.8</ele>
        <time>2024-05-12T10:35:17Z</time>
      </trkpt>
      <trkpt lat="42.88264" lon="1.22196">
        <ele>579.2</ele>
        <time>2024-05-12T10:35:18Z</time>
      </trkpt>
      <trkpt lat="42.88264" lon="1.22194">
        <ele>580.2</ele>
        <time>2024-05-12T10:35:19Z</time>
      </trkpt>
      <trkpt lat="42.88265" lon="1.2219">
        <ele>580.6</ele>
        <time>2024-05-12T10:35:20Z</time>
      </trkpt>
      <trkpt lat="42.88265" lon="1.22188">
        <ele>581</ele>
        <time>2024-05-12T10:35:21Z</time>
      </trkpt>
      <trkpt lat="42.88265" lon="1.22186">
        <ele>581.4</ele>
        <time>2024-05-12T10:35:22Z</time>
      </trkpt>
      <trkpt lat="42.88265" lon="1.22183">
        <ele>581.8</ele>
        <time>2024-05-12T10:35:23Z</time>
      </trkpt>
      <trkpt lat="42.88263" lon="1.22181">
        <ele>582.4</ele>
        <time>2024-05-12T10:35:24Z</time>
      </trkpt>
      <trkpt lat="42.88262" lon="1.22179">
        <ele>582.8</ele>
        <time>2024-05-12T10:35:25Z</time>
      </trkpt>
      <trkpt lat="42.88261" lon="1.22177">
        <ele>583.4</ele>
        <time>2024-05-12T10:35:26Z</time>
      </trkpt>
      <trkpt lat="42.8826" lon="1.22176">
        <ele>583.8</ele>
        <time>2024-05-12T10:35:27Z</time>
      </trkpt>
      <trkpt lat="42.88258" lon="1.22176">
        <ele>584.4</ele>
        <time>2024-05-12T10:35:28Z</time>
      </trkpt>
      <trkpt lat="42.88256" lon="1.22175">
        <ele>584.8</ele>
        <time>2024-05-12T10:35:29Z</time>
      </trkpt>
      <trkpt lat="42.88254" lon="1.22174">
        <ele>585.4</ele>
        <time>2024-05-12T10:35:30Z</time>
      </trkpt>
      <trkpt lat="42.88252" lon="1.22173">
        <ele>585.8</ele>
        <time>2024-05-12T10:35:31Z</time>
      </trkpt>
      <trkpt lat="42.88251" lon="1.22172">
        <ele>586.2</ele>
        <time>2024-05-12T10:35:32Z</time>
      </trkpt>
      <trkpt lat="42.88249" lon="1.22171">
        <ele>587</ele>
        <time>2024-05-12T10:35:33Z</time>
      </trkpt>
      <trkpt lat="42.88248" lon="1.22169">
        <ele>587.6</ele>
        <time>2024-05-12T10:35:34Z</time>
      </trkpt>
      <trkpt lat="42.88247" lon="1.22166">
        <ele>588.2</ele>
        <time>2024-05-12T10:35:35Z</time>
      </trkpt>
      <trkpt lat="42.88247" lon="1.22166">
        <ele>588.8</ele>
        <time>2024-05-12T10:35:36Z</time>
      </trkpt>
      <trkpt lat="42.88247" lon="1.22165">
        <ele>589.4</ele>
        <time>2024-05-12T10:35:37Z</time>
      </trkpt>
      <trkpt lat="42.88247" lon="1.22164">
        <ele>589.4</ele>
        <time>2024-05-12T10:35:38Z</time>
      </trkpt>
      <trkpt lat="42.88239" lon="1.22155">
        <ele>591.4</ele>
        <time>2024-05-12T10:36:24Z</time>
      </trkpt>
      <trkpt lat="42.88237" lon="1.22152">
        <ele>591.4</ele>
        <time>2024-05-12T10:36:25Z</time>
      </trkpt>
      <trkpt lat="42.88233" lon="1.22149">
        <ele>591.4</ele>
        <time>2024-05-12T10:36:30Z</time>
      </trkpt>
      <trkpt lat="42.8823" lon="1.22146">
        <ele>593.4</ele>
        <time>2024-05-12T10:42:02Z</time>
      </trkpt>
      <trkpt lat="42.88225" lon="1.22142">
        <ele>593.4</ele>
        <time>2024-05-12T10:42:05Z</time>
      </trkpt>
      <trkpt lat="42.88217" lon="1.22133">
        <ele>593.4</ele>
        <time>2024-05-12T10:42:09Z</time>
      </trkpt>
      <trkpt lat="42.88198" lon="1.22121">
        <ele>593.4</ele>
        <time>2024-05-12T10:42:14Z</time>
      </trkpt>
      <trkpt lat="42.88183" lon="1.22111">
        <ele>592.8</ele>
        <time>2024-05-12T10:42:17Z</time>
      </trkpt>
      <trkpt lat="42.88177" lon="1.22107">
        <ele>592.4</ele>
        <time>2024-05-12T10:42:18Z</time>
      </trkpt>
      <trkpt lat="42.88171" lon="1.22102">
        <ele>592</ele>
        <time>2024-05-12T10:42:19Z</time>
      </trkpt>
      <trkpt lat="42.88164" lon="1.22097">
        <ele>591.4</ele>
        <time>2024-05-12T10:42:20Z</time>
      </trkpt>
      <trkpt lat="42.88156" lon="1.22091">
        <ele>590.8</ele>
        <time>2024-05-12T10:42:21Z</time>
      </trkpt>
      <trkpt lat="42.88147" lon="1.22086">
        <ele>590.2</ele>
        <time>2024-05-12T10:42:22Z</time>
      </trkpt>
      <trkpt lat="42.88138" lon="1.2208">
        <ele>589.6</ele>
        <time>2024-05-12T10:42:23Z</time>
      </trkpt>
      <trkpt lat="42.88128" lon="1.22074">
        <ele>588.8</ele>
        <time>2024-05-12T10:42:24Z</time>
      </trkpt>
      <trkpt lat="42.88118" lon="1.22068">
        <ele>587.8</ele>
        <time>2024-05-12T10:42:25Z</time>
      </trkpt>
      <trkpt lat="42.88109" lon="1.22063">
        <ele>586.6</ele>
        <time>2024-05-12T10:42:26Z</time>
      </trkpt>
      <trkpt lat="42.88099" lon="1.22057">
        <ele>585.4</ele>
        <time>2024-05-12T10:42:27Z</time>
      </trkpt>
      <trkpt lat="42.8809" lon="1.22051">
        <ele>584.2</ele>
        <time>2024-05-12T10:42:28Z</time>
      </trkpt>
      <trkpt lat="42.88082" lon="1.22046">
        <ele>583</ele>
        <time>2024-05-12T10:42:29Z</time>
      </trkpt>
      <trkpt lat="42.88074" lon="1.22041">
        <ele>581.8</ele>
        <time>2024-05-12T10:42:30Z</time>
      </trkpt>
      <trkpt lat="42.88065" lon="1.22035">
        <ele>580.6</ele>
        <time>2024-05-12T10:42:31Z</time>
      </trkpt>
      <trkpt lat="42.88055" lon="1.22029">
        <ele>579.4</ele>
        <time>2024-05-12T10:42:32Z</time>
      </trkpt>
      <trkpt lat="42.88045" lon="1.22023">
        <ele>578.2</ele>
        <time>2024-05-12T10:42:33Z</time>
      </trkpt>
      <trkpt lat="42.88035" lon="1.22018">
        <ele>577.4</ele>
        <time>2024-05-12T10:42:34Z</time>
      </trkpt>
      <trkpt lat="42.88026" lon="1.22013">
        <ele>576.4</ele>
        <time>2024-05-12T10:42:35Z</time>
      </trkpt>
      <trkpt lat="42.88017" lon="1.22008">
        <ele>575.4</ele>
        <time>2024-05-12T10:42:36Z</time>
      </trkpt>
      <trkpt lat="42.88009" lon="1.22005">
        <ele>573.4</ele>
        <time>2024-05-12T10:42:37Z</time>
      </trkpt>
      <trkpt lat="42.88001" lon="1.22002">
        <ele>572.6</ele>
        <time>2024-05-12T10:42:38Z</time>
      </trkpt>
      <trkpt lat="42.87992" lon="1.21998">
        <ele>571.8</ele>
        <time>2024-05-12T10:42:39Z</time>
      </trkpt>
      <trkpt lat="42.87983" lon="1.21993">
        <ele>570.8</ele>
        <time>2024-05-12T10:42:40Z</time>
      </trkpt>
      <trkpt lat="42.87975" lon="1.21988">
        <ele>569.8</ele>
        <time>2024-05-12T10:42:41Z</time>
      </trkpt>
      <trkpt lat="42.87967" lon="1.21984">
        <ele>568.8</ele>
        <time>2024-05-12T10:42:42Z</time>
      </trkpt>
      <trkpt lat="42.87959" lon="1.21981">
        <ele>567.6</ele>
        <time>2024-05-12T10:42:43Z</time>
      </trkpt>
      <trkpt lat="42.87951" lon="1.21979">
        <ele>566.6</ele>
        <time>2024-05-12T10:42:44Z</time>
      </trkpt>
      <trkpt lat="42.87943" lon="1.21981">
        <ele>565.4</ele>
        <time>2024-05-12T10:42:45Z</time>
      </trkpt>
      <trkpt lat="42.87936" lon="1.21983">
        <ele>564.2</ele>
        <time>2024-05-12T10:42:46Z</time>
      </trkpt>
      <trkpt lat="42.87929" lon="1.21988">
        <ele>563.2</ele>
        <time>2024-05-12T10:42:47Z</time>
      </trkpt>
      <trkpt lat="42.87921" lon="1.21992">
        <ele>562.2</ele>
        <time>2024-05-12T10:42:48Z</time>
      </trkpt>
      <trkpt lat="42.87914" lon="1.21993">
        <ele>561.2</ele>
        <time>2024-05-12T10:42:49Z</time>
      </trkpt>
      <trkpt lat="42.87909" lon="1.21992">
        <ele>560</ele>
        <time>2024-05-12T10:42:50Z</time>
      </trkpt>
      <trkpt lat="42.87906" lon="1.21988">
        <ele>559</ele>
        <time>2024-05-12T10:42:51Z</time>
      </trkpt>
      <trkpt lat="42.87903" lon="1.21983">
        <ele>558</ele>
        <time>2024-05-12T10:42:52Z</time>
      </trkpt>
      <trkpt lat="42.87901" lon="1.21978">
        <ele>556.8</ele>
        <time>2024-05-12T10:42:53Z</time>
      </trkpt>
      <trkpt lat="42.87899" lon="1.21971">
        <ele>556.8</ele>
        <time>2024-05-12T10:42:55Z</time>
      </trkpt>
      <trkpt lat="42.87901" lon="1.21953">
        <ele>556.8</ele>
        <time>2024-05-12T10:42:59Z</time>
      </trkpt>
      <trkpt lat="42.87907" lon="1.21934">
        <ele>556.4</ele>
        <time>2024-05-12T10:43:03Z</time>
      </trkpt>
      <trkpt lat="42.87909" lon="1.21926">
        <ele>556</ele>
        <time>2024-05-12T10:43:04Z</time>
      </trkpt>
      <trkpt lat="42.8791" lon="1.21917">
        <ele>555.4</ele>
        <time>2024-05-12T10:43:05Z</time>
      </trkpt>
      <trkpt lat="42.8791" lon="1.21907">
        <ele>555</ele>
        <time>2024-05-12T10:43:06Z</time>
      </trkpt>
      <trkpt lat="42.8791" lon="1.21898">
        <ele>554.4</ele>
        <time>2024-05-12T10:43:07Z</time>
      </trkpt>
      <trkpt lat="42.8791" lon="1.21888">
        <ele>553.8</ele>
        <time>2024-05-12T10:43:08Z</time>
      </trkpt>
      <trkpt lat="42.87909" lon="1.2188">
        <ele>553.2</ele>
        <time>2024-05-12T10:43:09Z</time>
      </trkpt>
      <trkpt lat="42.87907" lon="1.21871">
        <ele>552.4</ele>
        <time>2024-05-12T10:43:10Z</time>
      </trkpt>
      <trkpt lat="42.87901" lon="1.21862">
        <ele>551.4</ele>
        <time>2024-05-12T10:43:11Z</time>
      </trkpt>
      <trkpt lat="42.87893" lon="1.21854">
        <ele>550.4</ele>
        <time>2024-05-12T10:43:12Z</time>
      </trkpt>
      <trkpt lat="42.87884" lon="1.21848">
        <ele>549.2</ele>
        <time>2024-05-12T10:43:13Z</time>
      </trkpt>
      <trkpt lat="42.87874" lon="1.21845">
        <ele>548.2</ele>
        <time>2024-05-12T10:43:14Z</time>
      </trkpt>
      <trkpt lat="42.87863" lon="1.21843">
        <ele>547</ele>
        <time>2024-05-12T10:43:15Z</time>
      </trkpt>
      <trkpt lat="42.87852" lon="1.21842">
        <ele>545.8</ele>
        <time>2024-05-12T10:43:16Z</time>
      </trkpt>
      <trkpt lat="42.8784" lon="1.21841">
        <ele>544.6</ele>
        <time>2024-05-12T10:43:17Z</time>
      </trkpt>
      <trkpt lat="42.87827" lon="1.21841">
        <ele>543.6</ele>
        <time>2024-05-12T10:43:18Z</time>
      </trkpt>
      <trkpt lat="42.87816" lon="1.21842">
        <ele>542.4</ele>
        <time>2024-05-12T10:43:19Z</time>
      </trkpt>
      <trkpt lat="42.87806" lon="1.21845">
        <ele>541.2</ele>
        <time>2024-05-12T10:43:20Z</time>
      </trkpt>
      <trkpt lat="42.87796" lon="1.21849">
        <ele>540</ele>
        <time>2024-05-12T10:43:21Z</time>
      </trkpt>
      <trkpt lat="42.87787" lon="1.21853">
        <ele>538.8</ele>
        <time>2024-05-12T10:43:22Z</time>
      </trkpt>
      <trkpt lat="42.87777" lon="1.21857">
        <ele>537.6</ele>
        <time>2024-05-12T10:43:23Z</time>
      </trkpt>
      <trkpt lat="42.87768" lon="1.21862">
        <ele>536.4</ele>
        <time>2024-05-12T10:43:24Z</time>
      </trkpt>
      <trkpt lat="42.87757" lon="1.21863">
        <ele>535.2</ele>
        <time>2024-05-12T10:43:25Z</time>
      </trkpt>
      <trkpt lat="42.87746" lon="1.21862">
        <ele>532.8</ele>
        <time>2024-05-12T10:43:26Z</time>
      </trkpt>
      <trkpt lat="42.87735" lon="1.2186">
        <ele>531.6</ele>
        <time>2024-05-12T10:43:27Z</time>
      </trkpt>
      <trkpt lat="42.87724" lon="1.2186">
        <ele>530.2</ele>
        <time>2024-05-12T10:43:28Z</time>
      </trkpt>
      <trkpt lat="42.87712" lon="1.21862">
        <ele>529</ele>
        <time>2024-05-12T10:43:29Z</time>
      </trkpt>
      <trkpt lat="42.877" lon="1.21864">
        <ele>527.6</ele>
        <time>2024-05-12T10:43:30Z</time>
      </trkpt>
      <trkpt lat="42.87688" lon="1.21865">
        <ele>526.6</ele>
        <time>2024-05-12T10:43:31Z</time>
      </trkpt>
      <trkpt lat="42.87677" lon="1.21865">
        <ele>525.4</ele>
        <time>2024-05-12T10:43:32Z</time>
      </trkpt>
      <trkpt lat="42.87666" lon="1.21865">
        <ele>524.2</ele>
        <time>2024-05-12T10:43:33Z</time>
      </trkpt>
      <trkpt lat="42.87656" lon="1.21865">
        <ele>523.4</ele>
        <time>2024-05-12T10:43:34Z</time>
      </trkpt>
      <trkpt lat="42.87646" lon="1.21865">
        <ele>522.6</ele>
        <time>2024-05-12T10:43:35Z</time>
      </trkpt>
      <trkpt lat="42.87637" lon="1.21867">
        <ele>521.6</ele>
        <time>2024-05-12T10:43:36Z</time>
      </trkpt>
      <trkpt lat="42.87628" lon="1.2187">
        <ele>520.8</ele>
        <time>2024-05-12T10:43:37Z</time>
      </trkpt>
      <trkpt lat="42.8762" lon="1.21873">
        <ele>520</ele>
        <time>2024-05-12T10:43:38Z</time>
      </trkpt>
      <trkpt lat="42.87611" lon="1.21874">
        <ele>519.4</ele>
        <time>2024-05-12T10:43:39Z</time>
      </trkpt>
      <trkpt lat="42.87603" lon="1.21874">
        <ele>518.4</ele>
        <time>2024-05-12T10:43:40Z</time>
      </trkpt>
      <trkpt lat="42.87595" lon="1.21873">
        <ele>517.6</ele>
        <time>2024-05-12T10:43:41Z</time>
      </trkpt>
      <trkpt lat="42.87586" lon="1.21869">
        <ele>516.6</ele>
        <time>2024-05-12T10:43:42Z</time>
      </trkpt>
      <trkpt lat="42.87579" lon="1.21864">
        <ele>515.6</ele>
        <time>2024-05-12T10:43:43Z</time>
      </trkpt>
      <trkpt lat="42.87571" lon="1.21858">
        <ele>514.6</ele>
        <time>2024-05-12T10:43:44Z</time>
      </trkpt>
      <trkpt lat="42.87563" lon="1.21852">
        <ele>513.8</ele>
        <time>2024-05-12T10:43:45Z</time>
      </trkpt>
      <trkpt lat="42.87555" lon="1.21848">
        <ele>512.8</ele>
        <time>2024-05-12T10:43:46Z</time>
      </trkpt>
      <trkpt lat="42.87548" lon="1.21843">
        <ele>512</ele>
        <time>2024-05-12T10:43:47Z</time>
      </trkpt>
      <trkpt lat="42.87541" lon="1.21838">
        <ele>511</ele>
        <time>2024-05-12T10:43:48Z</time>
      </trkpt>
      <trkpt lat="42.87537" lon="1.21831">
        <ele>510.2</ele>
        <time>2024-05-12T10:43:49Z</time>
      </trkpt>
      <trkpt lat="42.8753" lon="1.21814">
        <ele>509.6</ele>
        <time>2024-05-12T10:43:51Z</time>
      </trkpt>
      <trkpt lat="42.87526" lon="1.21805">
        <ele>509.2</ele>
        <time>2024-05-12T10:43:52Z</time>
      </trkpt>
      <trkpt lat="42.87522" lon="1.21797">
        <ele>508.8</ele>
        <time>2024-05-12T10:43:53Z</time>
      </trkpt>
      <trkpt lat="42.87518" lon="1.21789">
        <ele>508.4</ele>
        <time>2024-05-12T10:43:54Z</time>
      </trkpt>
      <trkpt lat="42.87515" lon="1.21782">
        <ele>508</ele>
        <time>2024-05-12T10:43:55Z</time>
      </trkpt>
      <trkpt lat="42.87513" lon="1.21776">
        <ele>508</ele>
        <time>2024-05-12T10:43:56Z</time>
      </trkpt>
      <trkpt lat="42.87506" lon="1.21767">
        <ele>508</ele>
        <time>2024-05-12T10:43:59Z</time>
      </trkpt>
      <trkpt lat="42.87502" lon="1.21766">
        <ele>507.6</ele>
        <time>2024-05-12T10:44:00Z</time>
      </trkpt>
      <trkpt lat="42.87499" lon="1.21767">
        <ele>507.2</ele>
        <time>2024-05-12T10:44:01Z</time>
      </trkpt>
      <trkpt lat="42.87495" lon="1.21768">
        <ele>506.8</ele>
        <time>2024-05-12T10:44:02Z</time>
      </trkpt>
      <trkpt lat="42.87491" lon="1.21769">
        <ele>506.2</ele>
        <time>2024-05-12T10:44:03Z</time>
      </trkpt>
      <trkpt lat="42.87488" lon="1.21771">
        <ele>505.8</ele>
        <time>2024-05-12T10:44:04Z</time>
      </trkpt>
      <trkpt lat="42.87473" lon="1.21768">
        <ele>505.8</ele>
        <time>2024-05-12T10:44:08Z</time>
      </trkpt>
      <trkpt lat="42.87463" lon="1.21752">
        <ele>505.8</ele>
        <time>2024-05-12T10:44:12Z</time>
      </trkpt>
      <trkpt lat="42.8745" lon="1.21727">
        <ele>505.8</ele>
        <time>2024-05-12T10:44:18Z</time>
      </trkpt>
      <trkpt lat="42.87442" lon="1.21716">
        <ele>505.8</ele>
        <time>2024-05-12T10:44:21Z</time>
      </trkpt>
      <trkpt lat="42.87438" lon="1.21716">
        <ele>505.8</ele>
        <time>2024-05-12T10:44:22Z</time>
      </trkpt>
      <trkpt lat="42.87427" lon="1.21727">
        <ele>505.8</ele>
        <time>2024-05-12T10:44:25Z</time>
      </trkpt>
      <trkpt lat="42.87415" lon="1.21732">
        <ele>505.8</ele>
        <time>2024-05-12T10:44:29Z</time>
      </trkpt>
      <trkpt lat="42.87411" lon="1.2173">
        <ele>505.8</ele>
        <time>2024-05-12T10:44:31Z</time>
      </trkpt>
      <trkpt lat="42.87408" lon="1.21731">
        <ele>505.8</ele>
        <time>2024-05-12T10:44:32Z</time>
      </trkpt>
      <trkpt lat="42.87406" lon="1.21732">
        <ele>505.8</ele>
        <time>2024-05-12T10:44:33Z</time>
      </trkpt>
      <trkpt lat="42.87399" lon="1.21741">
        <ele>505.8</ele>
        <time>2024-05-12T10:44:38Z</time>
      </trkpt>
      <trkpt lat="42.87398" lon="1.2174">
        <ele>505.8</ele>
        <time>2024-05-12T10:44:40Z</time>
      </trkpt>
    </trkseg>
  </trk>
</gpx>